<?xml version="1.0" encoding="UTF-8" standalone="no" ?>
<gpx xmlns="http://www.topografix.com/GPX/1/1" xmlns:xsi="http://www.w3.org/2001/XMLSchema-instance" xsi:schemaLocation="http://www.topografix.com/GPX/1/1 http://www.topografix.com/GPX/1/1/gpx.xsd" version="1.1" creator="VisuGPX - https://www.visugpx.com">
  <metadata>
    <name>2018-10-23 Bike ride-Amberieux en Dombes O via Toussieux v41k</name>
    <desc><![CDATA[2018-10-23 Bike ride-Amberieux en Dombes O via Toussieux v41k]]></desc>
  </metadata>
  <wpt lat="45.92465" lon="4.73711">
    <ele>174</ele>
    <name><![CDATA[2018-10-23 10:24 (Start)]]></name>
  </wpt>
  <wpt lat="45.92456" lon="4.73714">
    <ele>174</ele>
    <name><![CDATA[2018-10-23 10:24 (End)]]></name>
  </wpt>
  <trk>
    <name><![CDATA[2018-10-23 10:24]]></name>
    <trkseg>
      <trkpt lat="45.92465" lon="4.73711">
        <ele>174</ele>
        <time>2018-10-23T08:24:29.573Z</time>
      </trkpt>
      <trkpt lat="45.92466" lon="4.73702">
        <ele>174</ele>
        <time>2018-10-23T08:24:56Z</time>
      </trkpt>
      <trkpt lat="45.92466" lon="4.73698">
        <ele>174</ele>
        <time>2018-10-23T08:24:57Z</time>
      </trkpt>
      <trkpt lat="45.92466" lon="4.73687">
        <ele>174</ele>
        <time>2018-10-23T08:25:00Z</time>
      </trkpt>
      <trkpt lat="45.92466" lon="4.73682">
        <ele>174</ele>
        <time>2018-10-23T08:25:01Z</time>
      </trkpt>
      <trkpt lat="45.92468" lon="4.7367">
        <ele>174</ele>
        <time>2018-10-23T08:25:04Z</time>
      </trkpt>
      <trkpt lat="45.92468" lon="4.73665">
        <ele>174</ele>
        <time>2018-10-23T08:25:05Z</time>
      </trkpt>
      <trkpt lat="45.9247" lon="4.73654">
        <ele>174</ele>
        <time>2018-10-23T08:25:06Z</time>
      </trkpt>
      <trkpt lat="45.92471" lon="4.73649">
        <ele>174</ele>
        <time>2018-10-23T08:25:07Z</time>
      </trkpt>
      <trkpt lat="45.92473" lon="4.73637">
        <ele>174</ele>
        <time>2018-10-23T08:25:09Z</time>
      </trkpt>
      <trkpt lat="45.92473" lon="4.73631">
        <ele>174</ele>
        <time>2018-10-23T08:25:10Z</time>
      </trkpt>
      <trkpt lat="45.92474" lon="4.73618">
        <ele>174</ele>
        <time>2018-10-23T08:25:12Z</time>
      </trkpt>
      <trkpt lat="45.92474" lon="4.73611">
        <ele>174</ele>
        <time>2018-10-23T08:25:13Z</time>
      </trkpt>
      <trkpt lat="45.92473" lon="4.73604">
        <ele>174</ele>
        <time>2018-10-23T08:25:14Z</time>
      </trkpt>
      <trkpt lat="45.92473" lon="4.73597">
        <ele>174</ele>
        <time>2018-10-23T08:25:15Z</time>
      </trkpt>
      <trkpt lat="45.92473" lon="4.73591">
        <ele>174</ele>
        <time>2018-10-23T08:25:16Z</time>
      </trkpt>
      <trkpt lat="45.92472" lon="4.73584">
        <ele>174</ele>
        <time>2018-10-23T08:25:17Z</time>
      </trkpt>
      <trkpt lat="45.92473" lon="4.73573">
        <ele>173</ele>
        <time>2018-10-23T08:25:19Z</time>
      </trkpt>
      <trkpt lat="45.92472" lon="4.73563">
        <ele>173</ele>
        <time>2018-10-23T08:25:20Z</time>
      </trkpt>
      <trkpt lat="45.92471" lon="4.73551">
        <ele>173</ele>
        <time>2018-10-23T08:25:22Z</time>
      </trkpt>
      <trkpt lat="45.92472" lon="4.73549">
        <ele>173</ele>
        <time>2018-10-23T08:25:23Z</time>
      </trkpt>
      <trkpt lat="45.92472" lon="4.73542">
        <ele>173</ele>
        <time>2018-10-23T08:25:25Z</time>
      </trkpt>
      <trkpt lat="45.92473" lon="4.73534">
        <ele>174</ele>
        <time>2018-10-23T08:25:26Z</time>
      </trkpt>
      <trkpt lat="45.92472" lon="4.73527">
        <ele>174</ele>
        <time>2018-10-23T08:25:27Z</time>
      </trkpt>
      <trkpt lat="45.92473" lon="4.7352">
        <ele>174</ele>
        <time>2018-10-23T08:25:28Z</time>
      </trkpt>
      <trkpt lat="45.92472" lon="4.73509">
        <ele>174</ele>
        <time>2018-10-23T08:25:30Z</time>
      </trkpt>
      <trkpt lat="45.92472" lon="4.73502">
        <ele>174</ele>
        <time>2018-10-23T08:25:31Z</time>
      </trkpt>
      <trkpt lat="45.92473" lon="4.73494">
        <ele>173</ele>
        <time>2018-10-23T08:25:32Z</time>
      </trkpt>
      <trkpt lat="45.92473" lon="4.73487">
        <ele>173</ele>
        <time>2018-10-23T08:25:33Z</time>
      </trkpt>
      <trkpt lat="45.92473" lon="4.7348">
        <ele>173</ele>
        <time>2018-10-23T08:25:34Z</time>
      </trkpt>
      <trkpt lat="45.92473" lon="4.73473">
        <ele>173</ele>
        <time>2018-10-23T08:25:35Z</time>
      </trkpt>
      <trkpt lat="45.92472" lon="4.73462">
        <ele>173</ele>
        <time>2018-10-23T08:25:37Z</time>
      </trkpt>
      <trkpt lat="45.92472" lon="4.73456">
        <ele>173</ele>
        <time>2018-10-23T08:25:38Z</time>
      </trkpt>
      <trkpt lat="45.92469" lon="4.73444">
        <ele>173</ele>
        <time>2018-10-23T08:25:40Z</time>
      </trkpt>
      <trkpt lat="45.92467" lon="4.73439">
        <ele>173</ele>
        <time>2018-10-23T08:25:41Z</time>
      </trkpt>
      <trkpt lat="45.92462" lon="4.73429">
        <ele>173</ele>
        <time>2018-10-23T08:25:43Z</time>
      </trkpt>
      <trkpt lat="45.92457" lon="4.73425">
        <ele>173</ele>
        <time>2018-10-23T08:25:44Z</time>
      </trkpt>
      <trkpt lat="45.9245" lon="4.73418">
        <ele>173</ele>
        <time>2018-10-23T08:25:46Z</time>
      </trkpt>
      <trkpt lat="45.92448" lon="4.73416">
        <ele>172</ele>
        <time>2018-10-23T08:25:47Z</time>
      </trkpt>
      <trkpt lat="45.92441" lon="4.73411">
        <ele>172</ele>
        <time>2018-10-23T08:25:49Z</time>
      </trkpt>
      <trkpt lat="45.92438" lon="4.73408">
        <ele>172</ele>
        <time>2018-10-23T08:25:50Z</time>
      </trkpt>
      <trkpt lat="45.92434" lon="4.734">
        <ele>172</ele>
        <time>2018-10-23T08:25:52Z</time>
      </trkpt>
      <trkpt lat="45.92432" lon="4.73394">
        <ele>172</ele>
        <time>2018-10-23T08:25:53Z</time>
      </trkpt>
      <trkpt lat="45.9243" lon="4.73387">
        <ele>172</ele>
        <time>2018-10-23T08:25:54Z</time>
      </trkpt>
      <trkpt lat="45.92429" lon="4.7338">
        <ele>172</ele>
        <time>2018-10-23T08:25:55Z</time>
      </trkpt>
      <trkpt lat="45.92428" lon="4.73372">
        <ele>172</ele>
        <time>2018-10-23T08:25:56Z</time>
      </trkpt>
      <trkpt lat="45.92427" lon="4.73365">
        <ele>172</ele>
        <time>2018-10-23T08:25:57Z</time>
      </trkpt>
      <trkpt lat="45.92426" lon="4.73357">
        <ele>171</ele>
        <time>2018-10-23T08:25:58Z</time>
      </trkpt>
      <trkpt lat="45.92424" lon="4.73349">
        <ele>171</ele>
        <time>2018-10-23T08:25:59Z</time>
      </trkpt>
      <trkpt lat="45.92423" lon="4.73341">
        <ele>171</ele>
        <time>2018-10-23T08:26:00Z</time>
      </trkpt>
      <trkpt lat="45.92422" lon="4.73334">
        <ele>171</ele>
        <time>2018-10-23T08:26:01Z</time>
      </trkpt>
      <trkpt lat="45.92421" lon="4.73326">
        <ele>171</ele>
        <time>2018-10-23T08:26:02Z</time>
      </trkpt>
      <trkpt lat="45.92421" lon="4.73317">
        <ele>171</ele>
        <time>2018-10-23T08:26:03Z</time>
      </trkpt>
      <trkpt lat="45.92419" lon="4.7331">
        <ele>171</ele>
        <time>2018-10-23T08:26:04Z</time>
      </trkpt>
      <trkpt lat="45.92418" lon="4.73302">
        <ele>171</ele>
        <time>2018-10-23T08:26:05Z</time>
      </trkpt>
      <trkpt lat="45.92417" lon="4.73294">
        <ele>171</ele>
        <time>2018-10-23T08:26:06Z</time>
      </trkpt>
      <trkpt lat="45.92417" lon="4.73285">
        <ele>171</ele>
        <time>2018-10-23T08:26:07Z</time>
      </trkpt>
      <trkpt lat="45.92417" lon="4.73278">
        <ele>171</ele>
        <time>2018-10-23T08:26:08Z</time>
      </trkpt>
      <trkpt lat="45.92416" lon="4.7327">
        <ele>171</ele>
        <time>2018-10-23T08:26:09Z</time>
      </trkpt>
      <trkpt lat="45.92415" lon="4.73262">
        <ele>171</ele>
        <time>2018-10-23T08:26:10Z</time>
      </trkpt>
      <trkpt lat="45.92414" lon="4.73254">
        <ele>171</ele>
        <time>2018-10-23T08:26:11Z</time>
      </trkpt>
      <trkpt lat="45.92414" lon="4.73246">
        <ele>171</ele>
        <time>2018-10-23T08:26:12Z</time>
      </trkpt>
      <trkpt lat="45.92413" lon="4.73239">
        <ele>171</ele>
        <time>2018-10-23T08:26:13Z</time>
      </trkpt>
      <trkpt lat="45.92413" lon="4.73231">
        <ele>171</ele>
        <time>2018-10-23T08:26:14Z</time>
      </trkpt>
      <trkpt lat="45.92412" lon="4.73223">
        <ele>171</ele>
        <time>2018-10-23T08:26:15Z</time>
      </trkpt>
      <trkpt lat="45.92412" lon="4.73215">
        <ele>171</ele>
        <time>2018-10-23T08:26:16Z</time>
      </trkpt>
      <trkpt lat="45.9241" lon="4.73208">
        <ele>171</ele>
        <time>2018-10-23T08:26:17Z</time>
      </trkpt>
      <trkpt lat="45.9241" lon="4.732">
        <ele>171</ele>
        <time>2018-10-23T08:26:18Z</time>
      </trkpt>
      <trkpt lat="45.9241" lon="4.73192">
        <ele>171</ele>
        <time>2018-10-23T08:26:19Z</time>
      </trkpt>
      <trkpt lat="45.9241" lon="4.73184">
        <ele>171</ele>
        <time>2018-10-23T08:26:20Z</time>
      </trkpt>
      <trkpt lat="45.9241" lon="4.73176">
        <ele>170</ele>
        <time>2018-10-23T08:26:21Z</time>
      </trkpt>
      <trkpt lat="45.9241" lon="4.73168">
        <ele>170</ele>
        <time>2018-10-23T08:26:22Z</time>
      </trkpt>
      <trkpt lat="45.92411" lon="4.73161">
        <ele>170</ele>
        <time>2018-10-23T08:26:23Z</time>
      </trkpt>
      <trkpt lat="45.9241" lon="4.73154">
        <ele>170</ele>
        <time>2018-10-23T08:26:24Z</time>
      </trkpt>
      <trkpt lat="45.92411" lon="4.73147">
        <ele>171</ele>
        <time>2018-10-23T08:26:25Z</time>
      </trkpt>
      <trkpt lat="45.92409" lon="4.73139">
        <ele>171</ele>
        <time>2018-10-23T08:26:26Z</time>
      </trkpt>
      <trkpt lat="45.92409" lon="4.73132">
        <ele>171</ele>
        <time>2018-10-23T08:26:27Z</time>
      </trkpt>
      <trkpt lat="45.92411" lon="4.7312">
        <ele>171</ele>
        <time>2018-10-23T08:26:29Z</time>
      </trkpt>
      <trkpt lat="45.92413" lon="4.73115">
        <ele>171</ele>
        <time>2018-10-23T08:26:30Z</time>
      </trkpt>
      <trkpt lat="45.92417" lon="4.73111">
        <ele>170</ele>
        <time>2018-10-23T08:26:31Z</time>
      </trkpt>
      <trkpt lat="45.92421" lon="4.73108">
        <ele>171</ele>
        <time>2018-10-23T08:26:32Z</time>
      </trkpt>
      <trkpt lat="45.92425" lon="4.73104">
        <ele>171</ele>
        <time>2018-10-23T08:26:33Z</time>
      </trkpt>
      <trkpt lat="45.92429" lon="4.731">
        <ele>171</ele>
        <time>2018-10-23T08:26:34Z</time>
      </trkpt>
      <trkpt lat="45.92434" lon="4.73098">
        <ele>171</ele>
        <time>2018-10-23T08:26:35Z</time>
      </trkpt>
      <trkpt lat="45.92438" lon="4.73095">
        <ele>171</ele>
        <time>2018-10-23T08:26:36Z</time>
      </trkpt>
      <trkpt lat="45.92442" lon="4.73091">
        <ele>170</ele>
        <time>2018-10-23T08:26:37Z</time>
      </trkpt>
      <trkpt lat="45.92447" lon="4.73088">
        <ele>170</ele>
        <time>2018-10-23T08:26:38Z</time>
      </trkpt>
      <trkpt lat="45.92452" lon="4.73084">
        <ele>170</ele>
        <time>2018-10-23T08:26:39Z</time>
      </trkpt>
      <trkpt lat="45.92456" lon="4.7308">
        <ele>170</ele>
        <time>2018-10-23T08:26:40Z</time>
      </trkpt>
      <trkpt lat="45.92461" lon="4.73077">
        <ele>170</ele>
        <time>2018-10-23T08:26:41Z</time>
      </trkpt>
      <trkpt lat="45.92466" lon="4.73073">
        <ele>170</ele>
        <time>2018-10-23T08:26:42Z</time>
      </trkpt>
      <trkpt lat="45.92471" lon="4.7307">
        <ele>170</ele>
        <time>2018-10-23T08:26:43Z</time>
      </trkpt>
      <trkpt lat="45.92475" lon="4.73066">
        <ele>170</ele>
        <time>2018-10-23T08:26:44Z</time>
      </trkpt>
      <trkpt lat="45.9248" lon="4.73061">
        <ele>170</ele>
        <time>2018-10-23T08:26:45Z</time>
      </trkpt>
      <trkpt lat="45.92484" lon="4.73058">
        <ele>170</ele>
        <time>2018-10-23T08:26:46Z</time>
      </trkpt>
      <trkpt lat="45.92489" lon="4.73053">
        <ele>170</ele>
        <time>2018-10-23T08:26:47Z</time>
      </trkpt>
      <trkpt lat="45.92493" lon="4.7305">
        <ele>170</ele>
        <time>2018-10-23T08:26:48Z</time>
      </trkpt>
      <trkpt lat="45.92498" lon="4.73046">
        <ele>170</ele>
        <time>2018-10-23T08:26:49Z</time>
      </trkpt>
      <trkpt lat="45.92502" lon="4.73043">
        <ele>170</ele>
        <time>2018-10-23T08:26:50Z</time>
      </trkpt>
      <trkpt lat="45.92508" lon="4.73039">
        <ele>169</ele>
        <time>2018-10-23T08:26:51Z</time>
      </trkpt>
      <trkpt lat="45.92514" lon="4.73034">
        <ele>169</ele>
        <time>2018-10-23T08:26:52Z</time>
      </trkpt>
      <trkpt lat="45.92518" lon="4.73031">
        <ele>169</ele>
        <time>2018-10-23T08:26:53Z</time>
      </trkpt>
      <trkpt lat="45.92522" lon="4.73027">
        <ele>169</ele>
        <time>2018-10-23T08:26:54Z</time>
      </trkpt>
      <trkpt lat="45.92526" lon="4.73023">
        <ele>169</ele>
        <time>2018-10-23T08:26:55Z</time>
      </trkpt>
      <trkpt lat="45.92531" lon="4.73019">
        <ele>169</ele>
        <time>2018-10-23T08:26:56Z</time>
      </trkpt>
      <trkpt lat="45.92535" lon="4.73015">
        <ele>169</ele>
        <time>2018-10-23T08:26:57Z</time>
      </trkpt>
      <trkpt lat="45.9254" lon="4.73011">
        <ele>169</ele>
        <time>2018-10-23T08:26:58Z</time>
      </trkpt>
      <trkpt lat="45.92544" lon="4.73007">
        <ele>169</ele>
        <time>2018-10-23T08:26:59Z</time>
      </trkpt>
      <trkpt lat="45.92548" lon="4.73003">
        <ele>169</ele>
        <time>2018-10-23T08:27:00Z</time>
      </trkpt>
      <trkpt lat="45.92552" lon="4.72999">
        <ele>169</ele>
        <time>2018-10-23T08:27:01Z</time>
      </trkpt>
      <trkpt lat="45.92557" lon="4.72995">
        <ele>169</ele>
        <time>2018-10-23T08:27:02Z</time>
      </trkpt>
      <trkpt lat="45.92561" lon="4.72991">
        <ele>169</ele>
        <time>2018-10-23T08:27:03Z</time>
      </trkpt>
      <trkpt lat="45.92565" lon="4.72987">
        <ele>169</ele>
        <time>2018-10-23T08:27:04Z</time>
      </trkpt>
      <trkpt lat="45.92569" lon="4.72982">
        <ele>169</ele>
        <time>2018-10-23T08:27:05Z</time>
      </trkpt>
      <trkpt lat="45.92574" lon="4.72977">
        <ele>169</ele>
        <time>2018-10-23T08:27:06Z</time>
      </trkpt>
      <trkpt lat="45.92578" lon="4.72972">
        <ele>169</ele>
        <time>2018-10-23T08:27:07Z</time>
      </trkpt>
      <trkpt lat="45.92583" lon="4.72967">
        <ele>169</ele>
        <time>2018-10-23T08:27:08Z</time>
      </trkpt>
      <trkpt lat="45.92587" lon="4.72961">
        <ele>169</ele>
        <time>2018-10-23T08:27:09Z</time>
      </trkpt>
      <trkpt lat="45.92591" lon="4.72956">
        <ele>169</ele>
        <time>2018-10-23T08:27:10Z</time>
      </trkpt>
      <trkpt lat="45.92595" lon="4.72952">
        <ele>169</ele>
        <time>2018-10-23T08:27:11Z</time>
      </trkpt>
      <trkpt lat="45.92601" lon="4.72946">
        <ele>169</ele>
        <time>2018-10-23T08:27:12Z</time>
      </trkpt>
      <trkpt lat="45.92604" lon="4.72942">
        <ele>169</ele>
        <time>2018-10-23T08:27:13Z</time>
      </trkpt>
      <trkpt lat="45.92608" lon="4.72938">
        <ele>169</ele>
        <time>2018-10-23T08:27:14Z</time>
      </trkpt>
      <trkpt lat="45.92612" lon="4.72934">
        <ele>169</ele>
        <time>2018-10-23T08:27:15Z</time>
      </trkpt>
      <trkpt lat="45.92616" lon="4.72929">
        <ele>169</ele>
        <time>2018-10-23T08:27:16Z</time>
      </trkpt>
      <trkpt lat="45.9262" lon="4.72926">
        <ele>169</ele>
        <time>2018-10-23T08:27:17Z</time>
      </trkpt>
      <trkpt lat="45.92624" lon="4.72921">
        <ele>169</ele>
        <time>2018-10-23T08:27:18Z</time>
      </trkpt>
      <trkpt lat="45.92628" lon="4.72917">
        <ele>170</ele>
        <time>2018-10-23T08:27:19Z</time>
      </trkpt>
      <trkpt lat="45.92632" lon="4.72913">
        <ele>169</ele>
        <time>2018-10-23T08:27:20Z</time>
      </trkpt>
      <trkpt lat="45.92637" lon="4.7291">
        <ele>169</ele>
        <time>2018-10-23T08:27:21Z</time>
      </trkpt>
      <trkpt lat="45.92642" lon="4.72907">
        <ele>169</ele>
        <time>2018-10-23T08:27:22Z</time>
      </trkpt>
      <trkpt lat="45.92647" lon="4.72903">
        <ele>170</ele>
        <time>2018-10-23T08:27:23Z</time>
      </trkpt>
      <trkpt lat="45.92652" lon="4.729">
        <ele>170</ele>
        <time>2018-10-23T08:27:24Z</time>
      </trkpt>
      <trkpt lat="45.92657" lon="4.72898">
        <ele>170</ele>
        <time>2018-10-23T08:27:25Z</time>
      </trkpt>
      <trkpt lat="45.92662" lon="4.72894">
        <ele>170</ele>
        <time>2018-10-23T08:27:26Z</time>
      </trkpt>
      <trkpt lat="45.92667" lon="4.7289">
        <ele>170</ele>
        <time>2018-10-23T08:27:27Z</time>
      </trkpt>
      <trkpt lat="45.92671" lon="4.72886">
        <ele>170</ele>
        <time>2018-10-23T08:27:28Z</time>
      </trkpt>
      <trkpt lat="45.92677" lon="4.72882">
        <ele>170</ele>
        <time>2018-10-23T08:27:29Z</time>
      </trkpt>
      <trkpt lat="45.92681" lon="4.72879">
        <ele>170</ele>
        <time>2018-10-23T08:27:30Z</time>
      </trkpt>
      <trkpt lat="45.92686" lon="4.72875">
        <ele>170</ele>
        <time>2018-10-23T08:27:31Z</time>
      </trkpt>
      <trkpt lat="45.9269" lon="4.72871">
        <ele>169</ele>
        <time>2018-10-23T08:27:32Z</time>
      </trkpt>
      <trkpt lat="45.92698" lon="4.72865">
        <ele>169</ele>
        <time>2018-10-23T08:27:34Z</time>
      </trkpt>
      <trkpt lat="45.92702" lon="4.72861">
        <ele>169</ele>
        <time>2018-10-23T08:27:35Z</time>
      </trkpt>
      <trkpt lat="45.92707" lon="4.72857">
        <ele>169</ele>
        <time>2018-10-23T08:27:36Z</time>
      </trkpt>
      <trkpt lat="45.92712" lon="4.72854">
        <ele>169</ele>
        <time>2018-10-23T08:27:37Z</time>
      </trkpt>
      <trkpt lat="45.92718" lon="4.72851">
        <ele>169</ele>
        <time>2018-10-23T08:27:38Z</time>
      </trkpt>
      <trkpt lat="45.92723" lon="4.72847">
        <ele>169</ele>
        <time>2018-10-23T08:27:39Z</time>
      </trkpt>
      <trkpt lat="45.92728" lon="4.72843">
        <ele>169</ele>
        <time>2018-10-23T08:27:40Z</time>
      </trkpt>
      <trkpt lat="45.92732" lon="4.72838">
        <ele>169</ele>
        <time>2018-10-23T08:27:41Z</time>
      </trkpt>
      <trkpt lat="45.92738" lon="4.72834">
        <ele>169</ele>
        <time>2018-10-23T08:27:42Z</time>
      </trkpt>
      <trkpt lat="45.92743" lon="4.72831">
        <ele>169</ele>
        <time>2018-10-23T08:27:43Z</time>
      </trkpt>
      <trkpt lat="45.92748" lon="4.72827">
        <ele>169</ele>
        <time>2018-10-23T08:27:44Z</time>
      </trkpt>
      <trkpt lat="45.92752" lon="4.72824">
        <ele>169</ele>
        <time>2018-10-23T08:27:45Z</time>
      </trkpt>
      <trkpt lat="45.92757" lon="4.72819">
        <ele>170</ele>
        <time>2018-10-23T08:27:46Z</time>
      </trkpt>
      <trkpt lat="45.92762" lon="4.72813">
        <ele>170</ele>
        <time>2018-10-23T08:27:47Z</time>
      </trkpt>
      <trkpt lat="45.92765" lon="4.7281">
        <ele>170</ele>
        <time>2018-10-23T08:27:48Z</time>
      </trkpt>
      <trkpt lat="45.9277" lon="4.72807">
        <ele>170</ele>
        <time>2018-10-23T08:27:49Z</time>
      </trkpt>
      <trkpt lat="45.92774" lon="4.72804">
        <ele>170</ele>
        <time>2018-10-23T08:27:50Z</time>
      </trkpt>
      <trkpt lat="45.92778" lon="4.728">
        <ele>170</ele>
        <time>2018-10-23T08:27:51Z</time>
      </trkpt>
      <trkpt lat="45.92782" lon="4.72796">
        <ele>170</ele>
        <time>2018-10-23T08:27:52Z</time>
      </trkpt>
      <trkpt lat="45.92787" lon="4.72793">
        <ele>170</ele>
        <time>2018-10-23T08:27:53Z</time>
      </trkpt>
      <trkpt lat="45.92795" lon="4.72787">
        <ele>171</ele>
        <time>2018-10-23T08:27:55Z</time>
      </trkpt>
      <trkpt lat="45.92798" lon="4.72786">
        <ele>171</ele>
        <time>2018-10-23T08:27:56Z</time>
      </trkpt>
      <trkpt lat="45.92806" lon="4.72787">
        <ele>171</ele>
        <time>2018-10-23T08:27:58Z</time>
      </trkpt>
      <trkpt lat="45.92808" lon="4.72793">
        <ele>171</ele>
        <time>2018-10-23T08:27:59Z</time>
      </trkpt>
      <trkpt lat="45.92809" lon="4.72805">
        <ele>171</ele>
        <time>2018-10-23T08:28:01Z</time>
      </trkpt>
      <trkpt lat="45.9281" lon="4.72811">
        <ele>171</ele>
        <time>2018-10-23T08:28:02Z</time>
      </trkpt>
      <trkpt lat="45.92811" lon="4.72817">
        <ele>171</ele>
        <time>2018-10-23T08:28:03Z</time>
      </trkpt>
      <trkpt lat="45.92812" lon="4.72825">
        <ele>171</ele>
        <time>2018-10-23T08:28:04Z</time>
      </trkpt>
      <trkpt lat="45.92814" lon="4.72832">
        <ele>171</ele>
        <time>2018-10-23T08:28:05Z</time>
      </trkpt>
      <trkpt lat="45.92814" lon="4.72838">
        <ele>170</ele>
        <time>2018-10-23T08:28:06Z</time>
      </trkpt>
      <trkpt lat="45.92816" lon="4.72846">
        <ele>170</ele>
        <time>2018-10-23T08:28:07Z</time>
      </trkpt>
      <trkpt lat="45.92817" lon="4.72853">
        <ele>170</ele>
        <time>2018-10-23T08:28:08Z</time>
      </trkpt>
      <trkpt lat="45.92819" lon="4.7286">
        <ele>170</ele>
        <time>2018-10-23T08:28:09Z</time>
      </trkpt>
      <trkpt lat="45.9282" lon="4.72867">
        <ele>170</ele>
        <time>2018-10-23T08:28:10Z</time>
      </trkpt>
      <trkpt lat="45.92822" lon="4.72875">
        <ele>170</ele>
        <time>2018-10-23T08:28:11Z</time>
      </trkpt>
      <trkpt lat="45.92825" lon="4.72884">
        <ele>170</ele>
        <time>2018-10-23T08:28:12Z</time>
      </trkpt>
      <trkpt lat="45.92826" lon="4.7289">
        <ele>170</ele>
        <time>2018-10-23T08:28:13Z</time>
      </trkpt>
      <trkpt lat="45.92828" lon="4.72899">
        <ele>170</ele>
        <time>2018-10-23T08:28:14Z</time>
      </trkpt>
      <trkpt lat="45.92829" lon="4.72907">
        <ele>170</ele>
        <time>2018-10-23T08:28:15Z</time>
      </trkpt>
      <trkpt lat="45.9283" lon="4.72914">
        <ele>170</ele>
        <time>2018-10-23T08:28:16Z</time>
      </trkpt>
      <trkpt lat="45.9283" lon="4.72922">
        <ele>170</ele>
        <time>2018-10-23T08:28:17Z</time>
      </trkpt>
      <trkpt lat="45.92832" lon="4.7293">
        <ele>170</ele>
        <time>2018-10-23T08:28:18Z</time>
      </trkpt>
      <trkpt lat="45.92833" lon="4.72938">
        <ele>170</ele>
        <time>2018-10-23T08:28:19Z</time>
      </trkpt>
      <trkpt lat="45.92834" lon="4.72946">
        <ele>171</ele>
        <time>2018-10-23T08:28:20Z</time>
      </trkpt>
      <trkpt lat="45.92834" lon="4.72954">
        <ele>171</ele>
        <time>2018-10-23T08:28:21Z</time>
      </trkpt>
      <trkpt lat="45.92835" lon="4.7296">
        <ele>171</ele>
        <time>2018-10-23T08:28:22Z</time>
      </trkpt>
      <trkpt lat="45.92835" lon="4.72967">
        <ele>171</ele>
        <time>2018-10-23T08:28:23Z</time>
      </trkpt>
      <trkpt lat="45.92837" lon="4.72975">
        <ele>171</ele>
        <time>2018-10-23T08:28:24Z</time>
      </trkpt>
      <trkpt lat="45.92838" lon="4.72981">
        <ele>171</ele>
        <time>2018-10-23T08:28:25Z</time>
      </trkpt>
      <trkpt lat="45.92838" lon="4.72988">
        <ele>170</ele>
        <time>2018-10-23T08:28:26Z</time>
      </trkpt>
      <trkpt lat="45.92839" lon="4.72995">
        <ele>170</ele>
        <time>2018-10-23T08:28:27Z</time>
      </trkpt>
      <trkpt lat="45.9284" lon="4.73004">
        <ele>170</ele>
        <time>2018-10-23T08:28:28Z</time>
      </trkpt>
      <trkpt lat="45.9284" lon="4.73011">
        <ele>171</ele>
        <time>2018-10-23T08:28:29Z</time>
      </trkpt>
      <trkpt lat="45.92839" lon="4.73019">
        <ele>171</ele>
        <time>2018-10-23T08:28:30Z</time>
      </trkpt>
      <trkpt lat="45.9284" lon="4.73027">
        <ele>171</ele>
        <time>2018-10-23T08:28:31Z</time>
      </trkpt>
      <trkpt lat="45.92841" lon="4.73034">
        <ele>171</ele>
        <time>2018-10-23T08:28:32Z</time>
      </trkpt>
      <trkpt lat="45.92842" lon="4.73042">
        <ele>171</ele>
        <time>2018-10-23T08:28:33Z</time>
      </trkpt>
      <trkpt lat="45.92844" lon="4.73048">
        <ele>171</ele>
        <time>2018-10-23T08:28:34Z</time>
      </trkpt>
      <trkpt lat="45.92847" lon="4.73054">
        <ele>171</ele>
        <time>2018-10-23T08:28:35Z</time>
      </trkpt>
      <trkpt lat="45.92849" lon="4.7306">
        <ele>171</ele>
        <time>2018-10-23T08:28:36Z</time>
      </trkpt>
      <trkpt lat="45.92851" lon="4.73068">
        <ele>171</ele>
        <time>2018-10-23T08:28:37Z</time>
      </trkpt>
      <trkpt lat="45.9285" lon="4.73075">
        <ele>171</ele>
        <time>2018-10-23T08:28:38Z</time>
      </trkpt>
      <trkpt lat="45.92852" lon="4.73087">
        <ele>171</ele>
        <time>2018-10-23T08:28:40Z</time>
      </trkpt>
      <trkpt lat="45.92852" lon="4.73094">
        <ele>171</ele>
        <time>2018-10-23T08:28:41Z</time>
      </trkpt>
      <trkpt lat="45.92855" lon="4.73099">
        <ele>171</ele>
        <time>2018-10-23T08:28:42Z</time>
      </trkpt>
      <trkpt lat="45.92859" lon="4.73104">
        <ele>171</ele>
        <time>2018-10-23T08:28:43Z</time>
      </trkpt>
      <trkpt lat="45.92865" lon="4.73104">
        <ele>171</ele>
        <time>2018-10-23T08:28:45Z</time>
      </trkpt>
      <trkpt lat="45.92868" lon="4.73101">
        <ele>172</ele>
        <time>2018-10-23T08:28:46Z</time>
      </trkpt>
      <trkpt lat="45.92874" lon="4.73094">
        <ele>172</ele>
        <time>2018-10-23T08:28:48Z</time>
      </trkpt>
      <trkpt lat="45.92876" lon="4.73091">
        <ele>172</ele>
        <time>2018-10-23T08:28:49Z</time>
      </trkpt>
      <trkpt lat="45.92882" lon="4.73082">
        <ele>172</ele>
        <time>2018-10-23T08:28:59Z</time>
      </trkpt>
      <trkpt lat="45.92883" lon="4.73082">
        <ele>172</ele>
        <time>2018-10-23T08:29:00Z</time>
      </trkpt>
      <trkpt lat="45.92891" lon="4.73078">
        <ele>172</ele>
        <time>2018-10-23T08:29:03Z</time>
      </trkpt>
      <trkpt lat="45.92896" lon="4.73072">
        <ele>172</ele>
        <time>2018-10-23T08:29:04Z</time>
      </trkpt>
      <trkpt lat="45.92901" lon="4.73062">
        <ele>172</ele>
        <time>2018-10-23T08:29:06Z</time>
      </trkpt>
      <trkpt lat="45.92904" lon="4.73055">
        <ele>172</ele>
        <time>2018-10-23T08:29:07Z</time>
      </trkpt>
      <trkpt lat="45.92907" lon="4.7305">
        <ele>172</ele>
        <time>2018-10-23T08:29:08Z</time>
      </trkpt>
      <trkpt lat="45.92911" lon="4.73045">
        <ele>172</ele>
        <time>2018-10-23T08:29:09Z</time>
      </trkpt>
      <trkpt lat="45.92914" lon="4.7304">
        <ele>172</ele>
        <time>2018-10-23T08:29:10Z</time>
      </trkpt>
      <trkpt lat="45.92918" lon="4.73035">
        <ele>172</ele>
        <time>2018-10-23T08:29:11Z</time>
      </trkpt>
      <trkpt lat="45.92921" lon="4.7303">
        <ele>171</ele>
        <time>2018-10-23T08:29:12Z</time>
      </trkpt>
      <trkpt lat="45.92925" lon="4.73025">
        <ele>171</ele>
        <time>2018-10-23T08:29:13Z</time>
      </trkpt>
      <trkpt lat="45.92929" lon="4.7302">
        <ele>171</ele>
        <time>2018-10-23T08:29:14Z</time>
      </trkpt>
      <trkpt lat="45.92934" lon="4.73015">
        <ele>171</ele>
        <time>2018-10-23T08:29:15Z</time>
      </trkpt>
      <trkpt lat="45.92937" lon="4.7301">
        <ele>171</ele>
        <time>2018-10-23T08:29:16Z</time>
      </trkpt>
      <trkpt lat="45.92942" lon="4.73004">
        <ele>171</ele>
        <time>2018-10-23T08:29:17Z</time>
      </trkpt>
      <trkpt lat="45.92946" lon="4.72999">
        <ele>171</ele>
        <time>2018-10-23T08:29:18Z</time>
      </trkpt>
      <trkpt lat="45.9295" lon="4.72993">
        <ele>171</ele>
        <time>2018-10-23T08:29:19Z</time>
      </trkpt>
      <trkpt lat="45.92955" lon="4.72988">
        <ele>171</ele>
        <time>2018-10-23T08:29:20Z</time>
      </trkpt>
      <trkpt lat="45.92959" lon="4.72984">
        <ele>171</ele>
        <time>2018-10-23T08:29:21Z</time>
      </trkpt>
      <trkpt lat="45.92964" lon="4.72979">
        <ele>171</ele>
        <time>2018-10-23T08:29:22Z</time>
      </trkpt>
      <trkpt lat="45.92968" lon="4.72972">
        <ele>171</ele>
        <time>2018-10-23T08:29:23Z</time>
      </trkpt>
      <trkpt lat="45.92973" lon="4.72966">
        <ele>171</ele>
        <time>2018-10-23T08:29:24Z</time>
      </trkpt>
      <trkpt lat="45.92977" lon="4.72961">
        <ele>171</ele>
        <time>2018-10-23T08:29:25Z</time>
      </trkpt>
      <trkpt lat="45.92981" lon="4.72956">
        <ele>171</ele>
        <time>2018-10-23T08:29:26Z</time>
      </trkpt>
      <trkpt lat="45.92986" lon="4.72951">
        <ele>171</ele>
        <time>2018-10-23T08:29:27Z</time>
      </trkpt>
      <trkpt lat="45.9299" lon="4.72946">
        <ele>171</ele>
        <time>2018-10-23T08:29:28Z</time>
      </trkpt>
      <trkpt lat="45.92994" lon="4.72942">
        <ele>171</ele>
        <time>2018-10-23T08:29:29Z</time>
      </trkpt>
      <trkpt lat="45.92997" lon="4.72939">
        <ele>171</ele>
        <time>2018-10-23T08:29:30Z</time>
      </trkpt>
      <trkpt lat="45.93001" lon="4.72934">
        <ele>170</ele>
        <time>2018-10-23T08:29:31Z</time>
      </trkpt>
      <trkpt lat="45.93004" lon="4.72928">
        <ele>170</ele>
        <time>2018-10-23T08:29:32Z</time>
      </trkpt>
      <trkpt lat="45.93009" lon="4.72924">
        <ele>170</ele>
        <time>2018-10-23T08:29:33Z</time>
      </trkpt>
      <trkpt lat="45.93013" lon="4.7292">
        <ele>170</ele>
        <time>2018-10-23T08:29:34Z</time>
      </trkpt>
      <trkpt lat="45.93017" lon="4.72915">
        <ele>171</ele>
        <time>2018-10-23T08:29:35Z</time>
      </trkpt>
      <trkpt lat="45.93022" lon="4.72909">
        <ele>172</ele>
        <time>2018-10-23T08:29:36Z</time>
      </trkpt>
      <trkpt lat="45.93026" lon="4.72904">
        <ele>172</ele>
        <time>2018-10-23T08:29:37Z</time>
      </trkpt>
      <trkpt lat="45.93031" lon="4.72898">
        <ele>172</ele>
        <time>2018-10-23T08:29:38Z</time>
      </trkpt>
      <trkpt lat="45.93035" lon="4.72893">
        <ele>172</ele>
        <time>2018-10-23T08:29:39Z</time>
      </trkpt>
      <trkpt lat="45.9304" lon="4.72887">
        <ele>172</ele>
        <time>2018-10-23T08:29:40Z</time>
      </trkpt>
      <trkpt lat="45.93045" lon="4.72882">
        <ele>172</ele>
        <time>2018-10-23T08:29:41Z</time>
      </trkpt>
      <trkpt lat="45.9305" lon="4.72876">
        <ele>172</ele>
        <time>2018-10-23T08:29:42Z</time>
      </trkpt>
      <trkpt lat="45.93053" lon="4.72872">
        <ele>172</ele>
        <time>2018-10-23T08:29:43Z</time>
      </trkpt>
      <trkpt lat="45.93058" lon="4.72868">
        <ele>172</ele>
        <time>2018-10-23T08:29:44Z</time>
      </trkpt>
      <trkpt lat="45.9306" lon="4.72862">
        <ele>172</ele>
        <time>2018-10-23T08:29:45Z</time>
      </trkpt>
      <trkpt lat="45.93064" lon="4.72856">
        <ele>172</ele>
        <time>2018-10-23T08:29:46Z</time>
      </trkpt>
      <trkpt lat="45.93068" lon="4.72852">
        <ele>172</ele>
        <time>2018-10-23T08:29:47Z</time>
      </trkpt>
      <trkpt lat="45.93072" lon="4.72847">
        <ele>172</ele>
        <time>2018-10-23T08:29:48Z</time>
      </trkpt>
      <trkpt lat="45.93101" lon="4.72805">
        <ele>171</ele>
        <time>2018-10-23T08:29:56Z</time>
      </trkpt>
      <trkpt lat="45.93116" lon="4.72803">
        <ele>171</ele>
        <time>2018-10-23T08:29:57Z</time>
      </trkpt>
      <trkpt lat="45.93122" lon="4.72794">
        <ele>171</ele>
        <time>2018-10-23T08:29:59Z</time>
      </trkpt>
      <trkpt lat="45.93126" lon="4.72789">
        <ele>171</ele>
        <time>2018-10-23T08:30:00Z</time>
      </trkpt>
      <trkpt lat="45.93131" lon="4.72783">
        <ele>171</ele>
        <time>2018-10-23T08:30:01.92Z</time>
      </trkpt>
      <trkpt lat="45.93135" lon="4.72781">
        <ele>171</ele>
        <time>2018-10-23T08:30:02Z</time>
      </trkpt>
      <trkpt lat="45.93139" lon="4.72775">
        <ele>171</ele>
        <time>2018-10-23T08:30:03Z</time>
      </trkpt>
      <trkpt lat="45.93143" lon="4.72769">
        <ele>171</ele>
        <time>2018-10-23T08:30:04Z</time>
      </trkpt>
      <trkpt lat="45.93148" lon="4.72764">
        <ele>171</ele>
        <time>2018-10-23T08:30:05Z</time>
      </trkpt>
      <trkpt lat="45.93152" lon="4.72759">
        <ele>170</ele>
        <time>2018-10-23T08:30:06Z</time>
      </trkpt>
      <trkpt lat="45.93156" lon="4.72753">
        <ele>170</ele>
        <time>2018-10-23T08:30:07Z</time>
      </trkpt>
      <trkpt lat="45.93159" lon="4.7275">
        <ele>170</ele>
        <time>2018-10-23T08:30:08Z</time>
      </trkpt>
      <trkpt lat="45.93163" lon="4.72746">
        <ele>170</ele>
        <time>2018-10-23T08:30:09Z</time>
      </trkpt>
      <trkpt lat="45.93167" lon="4.72741">
        <ele>170</ele>
        <time>2018-10-23T08:30:10Z</time>
      </trkpt>
      <trkpt lat="45.93171" lon="4.72736">
        <ele>170</ele>
        <time>2018-10-23T08:30:11Z</time>
      </trkpt>
      <trkpt lat="45.93175" lon="4.7273">
        <ele>170</ele>
        <time>2018-10-23T08:30:12Z</time>
      </trkpt>
      <trkpt lat="45.9318" lon="4.72725">
        <ele>170</ele>
        <time>2018-10-23T08:30:13Z</time>
      </trkpt>
      <trkpt lat="45.93184" lon="4.72721">
        <ele>169</ele>
        <time>2018-10-23T08:30:14Z</time>
      </trkpt>
      <trkpt lat="45.93188" lon="4.72716">
        <ele>169</ele>
        <time>2018-10-23T08:30:15Z</time>
      </trkpt>
      <trkpt lat="45.93192" lon="4.72712">
        <ele>169</ele>
        <time>2018-10-23T08:30:16Z</time>
      </trkpt>
      <trkpt lat="45.93196" lon="4.72707">
        <ele>169</ele>
        <time>2018-10-23T08:30:17Z</time>
      </trkpt>
      <trkpt lat="45.93201" lon="4.72701">
        <ele>169</ele>
        <time>2018-10-23T08:30:18Z</time>
      </trkpt>
      <trkpt lat="45.93206" lon="4.72695">
        <ele>169</ele>
        <time>2018-10-23T08:30:19Z</time>
      </trkpt>
      <trkpt lat="45.93211" lon="4.72691">
        <ele>169</ele>
        <time>2018-10-23T08:30:20Z</time>
      </trkpt>
      <trkpt lat="45.93215" lon="4.72685">
        <ele>169</ele>
        <time>2018-10-23T08:30:21Z</time>
      </trkpt>
      <trkpt lat="45.93219" lon="4.7268">
        <ele>169</ele>
        <time>2018-10-23T08:30:22Z</time>
      </trkpt>
      <trkpt lat="45.93222" lon="4.72673">
        <ele>169</ele>
        <time>2018-10-23T08:30:23Z</time>
      </trkpt>
      <trkpt lat="45.93227" lon="4.7267">
        <ele>169</ele>
        <time>2018-10-23T08:30:24Z</time>
      </trkpt>
      <trkpt lat="45.93231" lon="4.72664">
        <ele>169</ele>
        <time>2018-10-23T08:30:25Z</time>
      </trkpt>
      <trkpt lat="45.93236" lon="4.72659">
        <ele>169</ele>
        <time>2018-10-23T08:30:26Z</time>
      </trkpt>
      <trkpt lat="45.93239" lon="4.72654">
        <ele>169</ele>
        <time>2018-10-23T08:30:27Z</time>
      </trkpt>
      <trkpt lat="45.93244" lon="4.72649">
        <ele>169</ele>
        <time>2018-10-23T08:30:28Z</time>
      </trkpt>
      <trkpt lat="45.93248" lon="4.72644">
        <ele>170</ele>
        <time>2018-10-23T08:30:29Z</time>
      </trkpt>
      <trkpt lat="45.93253" lon="4.72639">
        <ele>169</ele>
        <time>2018-10-23T08:30:30Z</time>
      </trkpt>
      <trkpt lat="45.93258" lon="4.72633">
        <ele>170</ele>
        <time>2018-10-23T08:30:31Z</time>
      </trkpt>
      <trkpt lat="45.93264" lon="4.72623">
        <ele>170</ele>
        <time>2018-10-23T08:30:32Z</time>
      </trkpt>
      <trkpt lat="45.93268" lon="4.72618">
        <ele>170</ele>
        <time>2018-10-23T08:30:33Z</time>
      </trkpt>
      <trkpt lat="45.93272" lon="4.72612">
        <ele>170</ele>
        <time>2018-10-23T08:30:34Z</time>
      </trkpt>
      <trkpt lat="45.93276" lon="4.72608">
        <ele>170</ele>
        <time>2018-10-23T08:30:35Z</time>
      </trkpt>
      <trkpt lat="45.9328" lon="4.72603">
        <ele>170</ele>
        <time>2018-10-23T08:30:36Z</time>
      </trkpt>
      <trkpt lat="45.93283" lon="4.72595">
        <ele>170</ele>
        <time>2018-10-23T08:30:37Z</time>
      </trkpt>
      <trkpt lat="45.93286" lon="4.7259">
        <ele>170</ele>
        <time>2018-10-23T08:30:38Z</time>
      </trkpt>
      <trkpt lat="45.9329" lon="4.72587">
        <ele>170</ele>
        <time>2018-10-23T08:30:39Z</time>
      </trkpt>
      <trkpt lat="45.93294" lon="4.72582">
        <ele>171</ele>
        <time>2018-10-23T08:30:40Z</time>
      </trkpt>
      <trkpt lat="45.93297" lon="4.72578">
        <ele>171</ele>
        <time>2018-10-23T08:30:41Z</time>
      </trkpt>
      <trkpt lat="45.93303" lon="4.72569">
        <ele>171</ele>
        <time>2018-10-23T08:30:42Z</time>
      </trkpt>
      <trkpt lat="45.93306" lon="4.72564">
        <ele>171</ele>
        <time>2018-10-23T08:30:43Z</time>
      </trkpt>
      <trkpt lat="45.9331" lon="4.7256">
        <ele>171</ele>
        <time>2018-10-23T08:30:44Z</time>
      </trkpt>
      <trkpt lat="45.93315" lon="4.72555">
        <ele>172</ele>
        <time>2018-10-23T08:30:45Z</time>
      </trkpt>
      <trkpt lat="45.93319" lon="4.7255">
        <ele>172</ele>
        <time>2018-10-23T08:30:46Z</time>
      </trkpt>
      <trkpt lat="45.93324" lon="4.72545">
        <ele>172</ele>
        <time>2018-10-23T08:30:47Z</time>
      </trkpt>
      <trkpt lat="45.93328" lon="4.72539">
        <ele>172</ele>
        <time>2018-10-23T08:30:48Z</time>
      </trkpt>
      <trkpt lat="45.93332" lon="4.72534">
        <ele>172</ele>
        <time>2018-10-23T08:30:49Z</time>
      </trkpt>
      <trkpt lat="45.93336" lon="4.72529">
        <ele>172</ele>
        <time>2018-10-23T08:30:50Z</time>
      </trkpt>
      <trkpt lat="45.9334" lon="4.72523">
        <ele>172</ele>
        <time>2018-10-23T08:30:51Z</time>
      </trkpt>
      <trkpt lat="45.93343" lon="4.7252">
        <ele>172</ele>
        <time>2018-10-23T08:30:52Z</time>
      </trkpt>
      <trkpt lat="45.93351" lon="4.72514">
        <ele>172</ele>
        <time>2018-10-23T08:30:54Z</time>
      </trkpt>
      <trkpt lat="45.93355" lon="4.72509">
        <ele>172</ele>
        <time>2018-10-23T08:30:55Z</time>
      </trkpt>
      <trkpt lat="45.93359" lon="4.72504">
        <ele>172</ele>
        <time>2018-10-23T08:30:56Z</time>
      </trkpt>
      <trkpt lat="45.93363" lon="4.72495">
        <ele>173</ele>
        <time>2018-10-23T08:30:57Z</time>
      </trkpt>
      <trkpt lat="45.93367" lon="4.72492">
        <ele>173</ele>
        <time>2018-10-23T08:30:58Z</time>
      </trkpt>
      <trkpt lat="45.93371" lon="4.72487">
        <ele>173</ele>
        <time>2018-10-23T08:30:59Z</time>
      </trkpt>
      <trkpt lat="45.93376" lon="4.72482">
        <ele>173</ele>
        <time>2018-10-23T08:31:00Z</time>
      </trkpt>
      <trkpt lat="45.93379" lon="4.72478">
        <ele>173</ele>
        <time>2018-10-23T08:31:01Z</time>
      </trkpt>
      <trkpt lat="45.93383" lon="4.72475">
        <ele>173</ele>
        <time>2018-10-23T08:31:02Z</time>
      </trkpt>
      <trkpt lat="45.93386" lon="4.72468">
        <ele>173</ele>
        <time>2018-10-23T08:31:03Z</time>
      </trkpt>
      <trkpt lat="45.93393" lon="4.7246">
        <ele>173</ele>
        <time>2018-10-23T08:31:05Z</time>
      </trkpt>
      <trkpt lat="45.93395" lon="4.72456">
        <ele>173</ele>
        <time>2018-10-23T08:31:06Z</time>
      </trkpt>
      <trkpt lat="45.93399" lon="4.72445">
        <ele>173</ele>
        <time>2018-10-23T08:31:08Z</time>
      </trkpt>
      <trkpt lat="45.93401" lon="4.72438">
        <ele>173</ele>
        <time>2018-10-23T08:31:09Z</time>
      </trkpt>
      <trkpt lat="45.93405" lon="4.72428">
        <ele>173</ele>
        <time>2018-10-23T08:31:11Z</time>
      </trkpt>
      <trkpt lat="45.93408" lon="4.72422">
        <ele>174</ele>
        <time>2018-10-23T08:31:12Z</time>
      </trkpt>
      <trkpt lat="45.93411" lon="4.72417">
        <ele>174</ele>
        <time>2018-10-23T08:31:13Z</time>
      </trkpt>
      <trkpt lat="45.93415" lon="4.72412">
        <ele>174</ele>
        <time>2018-10-23T08:31:14Z</time>
      </trkpt>
      <trkpt lat="45.9342" lon="4.7241">
        <ele>174</ele>
        <time>2018-10-23T08:31:15Z</time>
      </trkpt>
      <trkpt lat="45.93425" lon="4.72408">
        <ele>174</ele>
        <time>2018-10-23T08:31:16Z</time>
      </trkpt>
      <trkpt lat="45.9343" lon="4.72405">
        <ele>174</ele>
        <time>2018-10-23T08:31:17Z</time>
      </trkpt>
      <trkpt lat="45.93435" lon="4.72403">
        <ele>174</ele>
        <time>2018-10-23T08:31:18Z</time>
      </trkpt>
      <trkpt lat="45.9344" lon="4.724">
        <ele>173</ele>
        <time>2018-10-23T08:31:19Z</time>
      </trkpt>
      <trkpt lat="45.93445" lon="4.72398">
        <ele>173</ele>
        <time>2018-10-23T08:31:20Z</time>
      </trkpt>
      <trkpt lat="45.93451" lon="4.72395">
        <ele>173</ele>
        <time>2018-10-23T08:31:21Z</time>
      </trkpt>
      <trkpt lat="45.93455" lon="4.72391">
        <ele>173</ele>
        <time>2018-10-23T08:31:22Z</time>
      </trkpt>
      <trkpt lat="45.93459" lon="4.72387">
        <ele>173</ele>
        <time>2018-10-23T08:31:23Z</time>
      </trkpt>
      <trkpt lat="45.93463" lon="4.72382">
        <ele>173</ele>
        <time>2018-10-23T08:31:24Z</time>
      </trkpt>
      <trkpt lat="45.93467" lon="4.72378">
        <ele>173</ele>
        <time>2018-10-23T08:31:25Z</time>
      </trkpt>
      <trkpt lat="45.93471" lon="4.72372">
        <ele>173</ele>
        <time>2018-10-23T08:31:26Z</time>
      </trkpt>
      <trkpt lat="45.93475" lon="4.72368">
        <ele>173</ele>
        <time>2018-10-23T08:31:27Z</time>
      </trkpt>
      <trkpt lat="45.93479" lon="4.72363">
        <ele>173</ele>
        <time>2018-10-23T08:31:28Z</time>
      </trkpt>
      <trkpt lat="45.93483" lon="4.72357">
        <ele>173</ele>
        <time>2018-10-23T08:31:29Z</time>
      </trkpt>
      <trkpt lat="45.93487" lon="4.72352">
        <ele>173</ele>
        <time>2018-10-23T08:31:30Z</time>
      </trkpt>
      <trkpt lat="45.93491" lon="4.72348">
        <ele>173</ele>
        <time>2018-10-23T08:31:31Z</time>
      </trkpt>
      <trkpt lat="45.93495" lon="4.7234">
        <ele>173</ele>
        <time>2018-10-23T08:31:32Z</time>
      </trkpt>
      <trkpt lat="45.93499" lon="4.72334">
        <ele>173</ele>
        <time>2018-10-23T08:31:33Z</time>
      </trkpt>
      <trkpt lat="45.93503" lon="4.72329">
        <ele>173</ele>
        <time>2018-10-23T08:31:34Z</time>
      </trkpt>
      <trkpt lat="45.93508" lon="4.72321">
        <ele>173</ele>
        <time>2018-10-23T08:31:35Z</time>
      </trkpt>
      <trkpt lat="45.93511" lon="4.72317">
        <ele>173</ele>
        <time>2018-10-23T08:31:36Z</time>
      </trkpt>
      <trkpt lat="45.93515" lon="4.72312">
        <ele>173</ele>
        <time>2018-10-23T08:31:37Z</time>
      </trkpt>
      <trkpt lat="45.93519" lon="4.72307">
        <ele>173</ele>
        <time>2018-10-23T08:31:38Z</time>
      </trkpt>
      <trkpt lat="45.93522" lon="4.723">
        <ele>172</ele>
        <time>2018-10-23T08:31:39Z</time>
      </trkpt>
      <trkpt lat="45.93525" lon="4.72295">
        <ele>172</ele>
        <time>2018-10-23T08:31:40Z</time>
      </trkpt>
      <trkpt lat="45.93528" lon="4.72288">
        <ele>172</ele>
        <time>2018-10-23T08:31:41Z</time>
      </trkpt>
      <trkpt lat="45.93531" lon="4.72282">
        <ele>172</ele>
        <time>2018-10-23T08:31:42Z</time>
      </trkpt>
      <trkpt lat="45.93534" lon="4.72276">
        <ele>172</ele>
        <time>2018-10-23T08:31:43Z</time>
      </trkpt>
      <trkpt lat="45.93537" lon="4.7227">
        <ele>172</ele>
        <time>2018-10-23T08:31:44Z</time>
      </trkpt>
      <trkpt lat="45.93539" lon="4.72264">
        <ele>172</ele>
        <time>2018-10-23T08:31:45Z</time>
      </trkpt>
      <trkpt lat="45.93541" lon="4.72258">
        <ele>172</ele>
        <time>2018-10-23T08:31:46Z</time>
      </trkpt>
      <trkpt lat="45.93543" lon="4.72252">
        <ele>172</ele>
        <time>2018-10-23T08:31:47Z</time>
      </trkpt>
      <trkpt lat="45.93545" lon="4.72245">
        <ele>172</ele>
        <time>2018-10-23T08:31:48Z</time>
      </trkpt>
      <trkpt lat="45.93549" lon="4.72238">
        <ele>172</ele>
        <time>2018-10-23T08:31:49Z</time>
      </trkpt>
      <trkpt lat="45.93551" lon="4.72233">
        <ele>172</ele>
        <time>2018-10-23T08:31:50Z</time>
      </trkpt>
      <trkpt lat="45.93554" lon="4.72229">
        <ele>173</ele>
        <time>2018-10-23T08:31:51Z</time>
      </trkpt>
      <trkpt lat="45.9356" lon="4.72225">
        <ele>173</ele>
        <time>2018-10-23T08:31:52Z</time>
      </trkpt>
      <trkpt lat="45.93565" lon="4.72226">
        <ele>173</ele>
        <time>2018-10-23T08:31:53Z</time>
      </trkpt>
      <trkpt lat="45.9357" lon="4.72229">
        <ele>173</ele>
        <time>2018-10-23T08:31:54Z</time>
      </trkpt>
      <trkpt lat="45.93574" lon="4.72234">
        <ele>173</ele>
        <time>2018-10-23T08:31:55Z</time>
      </trkpt>
      <trkpt lat="45.93579" lon="4.72239">
        <ele>173</ele>
        <time>2018-10-23T08:31:56Z</time>
      </trkpt>
      <trkpt lat="45.93583" lon="4.72242">
        <ele>173</ele>
        <time>2018-10-23T08:31:57Z</time>
      </trkpt>
      <trkpt lat="45.93588" lon="4.72247">
        <ele>173</ele>
        <time>2018-10-23T08:31:58Z</time>
      </trkpt>
      <trkpt lat="45.93592" lon="4.72251">
        <ele>173</ele>
        <time>2018-10-23T08:31:59Z</time>
      </trkpt>
      <trkpt lat="45.93597" lon="4.72257">
        <ele>173</ele>
        <time>2018-10-23T08:32:00Z</time>
      </trkpt>
      <trkpt lat="45.93601" lon="4.7226">
        <ele>173</ele>
        <time>2018-10-23T08:32:01Z</time>
      </trkpt>
      <trkpt lat="45.93605" lon="4.72264">
        <ele>173</ele>
        <time>2018-10-23T08:32:02Z</time>
      </trkpt>
      <trkpt lat="45.93608" lon="4.72269">
        <ele>172</ele>
        <time>2018-10-23T08:32:03Z</time>
      </trkpt>
      <trkpt lat="45.93612" lon="4.72274">
        <ele>172</ele>
        <time>2018-10-23T08:32:04Z</time>
      </trkpt>
      <trkpt lat="45.93615" lon="4.72279">
        <ele>172</ele>
        <time>2018-10-23T08:32:05Z</time>
      </trkpt>
      <trkpt lat="45.93619" lon="4.72283">
        <ele>172</ele>
        <time>2018-10-23T08:32:06Z</time>
      </trkpt>
      <trkpt lat="45.93623" lon="4.72287">
        <ele>172</ele>
        <time>2018-10-23T08:32:07Z</time>
      </trkpt>
      <trkpt lat="45.93626" lon="4.72294">
        <ele>172</ele>
        <time>2018-10-23T08:32:08Z</time>
      </trkpt>
      <trkpt lat="45.93632" lon="4.72296">
        <ele>172</ele>
        <time>2018-10-23T08:32:09Z</time>
      </trkpt>
      <trkpt lat="45.93637" lon="4.72298">
        <ele>172</ele>
        <time>2018-10-23T08:32:10Z</time>
      </trkpt>
      <trkpt lat="45.93641" lon="4.72303">
        <ele>172</ele>
        <time>2018-10-23T08:32:11Z</time>
      </trkpt>
      <trkpt lat="45.93644" lon="4.72308">
        <ele>172</ele>
        <time>2018-10-23T08:32:12Z</time>
      </trkpt>
      <trkpt lat="45.93648" lon="4.72313">
        <ele>172</ele>
        <time>2018-10-23T08:32:13Z</time>
      </trkpt>
      <trkpt lat="45.93652" lon="4.72318">
        <ele>172</ele>
        <time>2018-10-23T08:32:14Z</time>
      </trkpt>
      <trkpt lat="45.93657" lon="4.72322">
        <ele>172</ele>
        <time>2018-10-23T08:32:15Z</time>
      </trkpt>
      <trkpt lat="45.9366" lon="4.72326">
        <ele>171</ele>
        <time>2018-10-23T08:32:16Z</time>
      </trkpt>
      <trkpt lat="45.93663" lon="4.72329">
        <ele>171</ele>
        <time>2018-10-23T08:32:17Z</time>
      </trkpt>
      <trkpt lat="45.93669" lon="4.72333">
        <ele>171</ele>
        <time>2018-10-23T08:32:18Z</time>
      </trkpt>
      <trkpt lat="45.93672" lon="4.72337">
        <ele>171</ele>
        <time>2018-10-23T08:32:19Z</time>
      </trkpt>
      <trkpt lat="45.93676" lon="4.72341">
        <ele>171</ele>
        <time>2018-10-23T08:32:20Z</time>
      </trkpt>
      <trkpt lat="45.9368" lon="4.72345">
        <ele>171</ele>
        <time>2018-10-23T08:32:21Z</time>
      </trkpt>
      <trkpt lat="45.93684" lon="4.7235">
        <ele>171</ele>
        <time>2018-10-23T08:32:22Z</time>
      </trkpt>
      <trkpt lat="45.93691" lon="4.72351">
        <ele>171</ele>
        <time>2018-10-23T08:32:23Z</time>
      </trkpt>
      <trkpt lat="45.93695" lon="4.72355">
        <ele>171</ele>
        <time>2018-10-23T08:32:24Z</time>
      </trkpt>
      <trkpt lat="45.937" lon="4.72358">
        <ele>171</ele>
        <time>2018-10-23T08:32:25Z</time>
      </trkpt>
      <trkpt lat="45.93704" lon="4.72365">
        <ele>171</ele>
        <time>2018-10-23T08:32:26Z</time>
      </trkpt>
      <trkpt lat="45.93713" lon="4.72371">
        <ele>172</ele>
        <time>2018-10-23T08:32:27Z</time>
      </trkpt>
      <trkpt lat="45.93718" lon="4.72376">
        <ele>171</ele>
        <time>2018-10-23T08:32:28Z</time>
      </trkpt>
      <trkpt lat="45.93725" lon="4.72381">
        <ele>171</ele>
        <time>2018-10-23T08:32:29Z</time>
      </trkpt>
      <trkpt lat="45.9373" lon="4.72385">
        <ele>171</ele>
        <time>2018-10-23T08:32:30Z</time>
      </trkpt>
      <trkpt lat="45.93734" lon="4.7239">
        <ele>171</ele>
        <time>2018-10-23T08:32:31Z</time>
      </trkpt>
      <trkpt lat="45.93738" lon="4.72392">
        <ele>171</ele>
        <time>2018-10-23T08:32:32Z</time>
      </trkpt>
      <trkpt lat="45.93742" lon="4.72396">
        <ele>171</ele>
        <time>2018-10-23T08:32:33Z</time>
      </trkpt>
      <trkpt lat="45.93745" lon="4.72398">
        <ele>171</ele>
        <time>2018-10-23T08:32:34Z</time>
      </trkpt>
      <trkpt lat="45.9375" lon="4.72403">
        <ele>171</ele>
        <time>2018-10-23T08:32:35Z</time>
      </trkpt>
      <trkpt lat="45.93755" lon="4.72406">
        <ele>171</ele>
        <time>2018-10-23T08:32:36Z</time>
      </trkpt>
      <trkpt lat="45.9376" lon="4.72412">
        <ele>171</ele>
        <time>2018-10-23T08:32:37Z</time>
      </trkpt>
      <trkpt lat="45.93765" lon="4.72414">
        <ele>171</ele>
        <time>2018-10-23T08:32:38Z</time>
      </trkpt>
      <trkpt lat="45.93768" lon="4.72418">
        <ele>171</ele>
        <time>2018-10-23T08:32:39Z</time>
      </trkpt>
      <trkpt lat="45.93772" lon="4.72422">
        <ele>171</ele>
        <time>2018-10-23T08:32:40Z</time>
      </trkpt>
      <trkpt lat="45.93776" lon="4.72426">
        <ele>171</ele>
        <time>2018-10-23T08:32:41Z</time>
      </trkpt>
      <trkpt lat="45.9378" lon="4.72432">
        <ele>172</ele>
        <time>2018-10-23T08:32:42Z</time>
      </trkpt>
      <trkpt lat="45.93784" lon="4.72436">
        <ele>172</ele>
        <time>2018-10-23T08:32:43Z</time>
      </trkpt>
      <trkpt lat="45.93789" lon="4.72442">
        <ele>172</ele>
        <time>2018-10-23T08:32:44Z</time>
      </trkpt>
      <trkpt lat="45.93793" lon="4.72446">
        <ele>172</ele>
        <time>2018-10-23T08:32:45Z</time>
      </trkpt>
      <trkpt lat="45.93797" lon="4.72451">
        <ele>172</ele>
        <time>2018-10-23T08:32:46Z</time>
      </trkpt>
      <trkpt lat="45.93801" lon="4.72456">
        <ele>172</ele>
        <time>2018-10-23T08:32:47Z</time>
      </trkpt>
      <trkpt lat="45.93805" lon="4.72461">
        <ele>172</ele>
        <time>2018-10-23T08:32:48Z</time>
      </trkpt>
      <trkpt lat="45.93809" lon="4.72466">
        <ele>172</ele>
        <time>2018-10-23T08:32:49Z</time>
      </trkpt>
      <trkpt lat="45.93814" lon="4.72471">
        <ele>172</ele>
        <time>2018-10-23T08:32:51Z</time>
      </trkpt>
      <trkpt lat="45.93819" lon="4.72477">
        <ele>172</ele>
        <time>2018-10-23T08:32:52Z</time>
      </trkpt>
      <trkpt lat="45.93823" lon="4.72482">
        <ele>173</ele>
        <time>2018-10-23T08:32:53Z</time>
      </trkpt>
      <trkpt lat="45.93827" lon="4.72486">
        <ele>173</ele>
        <time>2018-10-23T08:32:54Z</time>
      </trkpt>
      <trkpt lat="45.93831" lon="4.72485">
        <ele>173</ele>
        <time>2018-10-23T08:32:57Z</time>
      </trkpt>
      <trkpt lat="45.93846" lon="4.72489">
        <ele>173</ele>
        <time>2018-10-23T08:32:58Z</time>
      </trkpt>
      <trkpt lat="45.9385" lon="4.7249">
        <ele>173</ele>
        <time>2018-10-23T08:32:59Z</time>
      </trkpt>
      <trkpt lat="45.93854" lon="4.72504">
        <ele>173</ele>
        <time>2018-10-23T08:33:00Z</time>
      </trkpt>
      <trkpt lat="45.93861" lon="4.7251">
        <ele>173</ele>
        <time>2018-10-23T08:33:01Z</time>
      </trkpt>
      <trkpt lat="45.93866" lon="4.72516">
        <ele>173</ele>
        <time>2018-10-23T08:33:02Z</time>
      </trkpt>
      <trkpt lat="45.93872" lon="4.72516">
        <ele>173</ele>
        <time>2018-10-23T08:33:03Z</time>
      </trkpt>
      <trkpt lat="45.93877" lon="4.72516">
        <ele>173</ele>
        <time>2018-10-23T08:33:04Z</time>
      </trkpt>
      <trkpt lat="45.93881" lon="4.72514">
        <ele>173</ele>
        <time>2018-10-23T08:33:05Z</time>
      </trkpt>
      <trkpt lat="45.93887" lon="4.72509">
        <ele>173</ele>
        <time>2018-10-23T08:33:06Z</time>
      </trkpt>
      <trkpt lat="45.93891" lon="4.72505">
        <ele>173</ele>
        <time>2018-10-23T08:33:07Z</time>
      </trkpt>
      <trkpt lat="45.93895" lon="4.72499">
        <ele>172</ele>
        <time>2018-10-23T08:33:08Z</time>
      </trkpt>
      <trkpt lat="45.93899" lon="4.72494">
        <ele>172</ele>
        <time>2018-10-23T08:33:09Z</time>
      </trkpt>
      <trkpt lat="45.93902" lon="4.72488">
        <ele>172</ele>
        <time>2018-10-23T08:33:10Z</time>
      </trkpt>
      <trkpt lat="45.93907" lon="4.72483">
        <ele>172</ele>
        <time>2018-10-23T08:33:11Z</time>
      </trkpt>
      <trkpt lat="45.93911" lon="4.72477">
        <ele>172</ele>
        <time>2018-10-23T08:33:12Z</time>
      </trkpt>
      <trkpt lat="45.93916" lon="4.72471">
        <ele>172</ele>
        <time>2018-10-23T08:33:13Z</time>
      </trkpt>
      <trkpt lat="45.93921" lon="4.72466">
        <ele>171</ele>
        <time>2018-10-23T08:33:14Z</time>
      </trkpt>
      <trkpt lat="45.93924" lon="4.72462">
        <ele>171</ele>
        <time>2018-10-23T08:33:15Z</time>
      </trkpt>
      <trkpt lat="45.93929" lon="4.72456">
        <ele>171</ele>
        <time>2018-10-23T08:33:16Z</time>
      </trkpt>
      <trkpt lat="45.93934" lon="4.72451">
        <ele>171</ele>
        <time>2018-10-23T08:33:17Z</time>
      </trkpt>
      <trkpt lat="45.93939" lon="4.72445">
        <ele>171</ele>
        <time>2018-10-23T08:33:18Z</time>
      </trkpt>
      <trkpt lat="45.93945" lon="4.72438">
        <ele>171</ele>
        <time>2018-10-23T08:33:19Z</time>
      </trkpt>
      <trkpt lat="45.93949" lon="4.72432">
        <ele>171</ele>
        <time>2018-10-23T08:33:20Z</time>
      </trkpt>
      <trkpt lat="45.93954" lon="4.72427">
        <ele>171</ele>
        <time>2018-10-23T08:33:21Z</time>
      </trkpt>
      <trkpt lat="45.93958" lon="4.72421">
        <ele>171</ele>
        <time>2018-10-23T08:33:22Z</time>
      </trkpt>
      <trkpt lat="45.93964" lon="4.72415">
        <ele>171</ele>
        <time>2018-10-23T08:33:23Z</time>
      </trkpt>
      <trkpt lat="45.93969" lon="4.7241">
        <ele>171</ele>
        <time>2018-10-23T08:33:24Z</time>
      </trkpt>
      <trkpt lat="45.93973" lon="4.72402">
        <ele>171</ele>
        <time>2018-10-23T08:33:25Z</time>
      </trkpt>
      <trkpt lat="45.93978" lon="4.72396">
        <ele>171</ele>
        <time>2018-10-23T08:33:26Z</time>
      </trkpt>
      <trkpt lat="45.93983" lon="4.72391">
        <ele>171</ele>
        <time>2018-10-23T08:33:27Z</time>
      </trkpt>
      <trkpt lat="45.93987" lon="4.72386">
        <ele>171</ele>
        <time>2018-10-23T08:33:28Z</time>
      </trkpt>
      <trkpt lat="45.93991" lon="4.72381">
        <ele>171</ele>
        <time>2018-10-23T08:33:29Z</time>
      </trkpt>
      <trkpt lat="45.93996" lon="4.72377">
        <ele>171</ele>
        <time>2018-10-23T08:33:30Z</time>
      </trkpt>
      <trkpt lat="45.93999" lon="4.72371">
        <ele>171</ele>
        <time>2018-10-23T08:33:31Z</time>
      </trkpt>
      <trkpt lat="45.94003" lon="4.72365">
        <ele>171</ele>
        <time>2018-10-23T08:33:32Z</time>
      </trkpt>
      <trkpt lat="45.94007" lon="4.72358">
        <ele>171</ele>
        <time>2018-10-23T08:33:33Z</time>
      </trkpt>
      <trkpt lat="45.94012" lon="4.72352">
        <ele>171</ele>
        <time>2018-10-23T08:33:34Z</time>
      </trkpt>
      <trkpt lat="45.94016" lon="4.72347">
        <ele>171</ele>
        <time>2018-10-23T08:33:35Z</time>
      </trkpt>
      <trkpt lat="45.94022" lon="4.72341">
        <ele>171</ele>
        <time>2018-10-23T08:33:36Z</time>
      </trkpt>
      <trkpt lat="45.94026" lon="4.72336">
        <ele>171</ele>
        <time>2018-10-23T08:33:37Z</time>
      </trkpt>
      <trkpt lat="45.9403" lon="4.7233">
        <ele>171</ele>
        <time>2018-10-23T08:33:38Z</time>
      </trkpt>
      <trkpt lat="45.94036" lon="4.72327">
        <ele>171</ele>
        <time>2018-10-23T08:33:39Z</time>
      </trkpt>
      <trkpt lat="45.9404" lon="4.72321">
        <ele>171</ele>
        <time>2018-10-23T08:33:40Z</time>
      </trkpt>
      <trkpt lat="45.94044" lon="4.72317">
        <ele>171</ele>
        <time>2018-10-23T08:33:41Z</time>
      </trkpt>
      <trkpt lat="45.94048" lon="4.72312">
        <ele>171</ele>
        <time>2018-10-23T08:33:42Z</time>
      </trkpt>
      <trkpt lat="45.94052" lon="4.72306">
        <ele>171</ele>
        <time>2018-10-23T08:33:43Z</time>
      </trkpt>
      <trkpt lat="45.94055" lon="4.72302">
        <ele>171</ele>
        <time>2018-10-23T08:33:44Z</time>
      </trkpt>
      <trkpt lat="45.94059" lon="4.72296">
        <ele>171</ele>
        <time>2018-10-23T08:33:45Z</time>
      </trkpt>
      <trkpt lat="45.94062" lon="4.72291">
        <ele>171</ele>
        <time>2018-10-23T08:33:46Z</time>
      </trkpt>
      <trkpt lat="45.94066" lon="4.72287">
        <ele>171</ele>
        <time>2018-10-23T08:33:47Z</time>
      </trkpt>
      <trkpt lat="45.94072" lon="4.72283">
        <ele>171</ele>
        <time>2018-10-23T08:33:48Z</time>
      </trkpt>
      <trkpt lat="45.94076" lon="4.72279">
        <ele>171</ele>
        <time>2018-10-23T08:33:49Z</time>
      </trkpt>
      <trkpt lat="45.94081" lon="4.72275">
        <ele>171</ele>
        <time>2018-10-23T08:33:50Z</time>
      </trkpt>
      <trkpt lat="45.94084" lon="4.7227">
        <ele>171</ele>
        <time>2018-10-23T08:33:51Z</time>
      </trkpt>
      <trkpt lat="45.9409" lon="4.72267">
        <ele>171</ele>
        <time>2018-10-23T08:33:52Z</time>
      </trkpt>
      <trkpt lat="45.94094" lon="4.72264">
        <ele>171</ele>
        <time>2018-10-23T08:33:53Z</time>
      </trkpt>
      <trkpt lat="45.94099" lon="4.72263">
        <ele>171</ele>
        <time>2018-10-23T08:33:54Z</time>
      </trkpt>
      <trkpt lat="45.94107" lon="4.72268">
        <ele>171</ele>
        <time>2018-10-23T08:33:55Z</time>
      </trkpt>
      <trkpt lat="45.94112" lon="4.72269">
        <ele>171</ele>
        <time>2018-10-23T08:33:56Z</time>
      </trkpt>
      <trkpt lat="45.94116" lon="4.72269">
        <ele>171</ele>
        <time>2018-10-23T08:33:57Z</time>
      </trkpt>
      <trkpt lat="45.94121" lon="4.72271">
        <ele>171</ele>
        <time>2018-10-23T08:33:58Z</time>
      </trkpt>
      <trkpt lat="45.94129" lon="4.72275">
        <ele>171</ele>
        <time>2018-10-23T08:34:00Z</time>
      </trkpt>
      <trkpt lat="45.94134" lon="4.72277">
        <ele>171</ele>
        <time>2018-10-23T08:34:01Z</time>
      </trkpt>
      <trkpt lat="45.94139" lon="4.7228">
        <ele>171</ele>
        <time>2018-10-23T08:34:02Z</time>
      </trkpt>
      <trkpt lat="45.94144" lon="4.72283">
        <ele>171</ele>
        <time>2018-10-23T08:34:03Z</time>
      </trkpt>
      <trkpt lat="45.94149" lon="4.72285">
        <ele>171</ele>
        <time>2018-10-23T08:34:04Z</time>
      </trkpt>
      <trkpt lat="45.94155" lon="4.72288">
        <ele>171</ele>
        <time>2018-10-23T08:34:05Z</time>
      </trkpt>
      <trkpt lat="45.9416" lon="4.72289">
        <ele>171</ele>
        <time>2018-10-23T08:34:06Z</time>
      </trkpt>
      <trkpt lat="45.94165" lon="4.7229">
        <ele>171</ele>
        <time>2018-10-23T08:34:07Z</time>
      </trkpt>
      <trkpt lat="45.94171" lon="4.72292">
        <ele>171</ele>
        <time>2018-10-23T08:34:08Z</time>
      </trkpt>
      <trkpt lat="45.94177" lon="4.72293">
        <ele>171</ele>
        <time>2018-10-23T08:34:09Z</time>
      </trkpt>
      <trkpt lat="45.94182" lon="4.72293">
        <ele>171</ele>
        <time>2018-10-23T08:34:10Z</time>
      </trkpt>
      <trkpt lat="45.94187" lon="4.72293">
        <ele>171</ele>
        <time>2018-10-23T08:34:11Z</time>
      </trkpt>
      <trkpt lat="45.94193" lon="4.72294">
        <ele>171</ele>
        <time>2018-10-23T08:34:12Z</time>
      </trkpt>
      <trkpt lat="45.94198" lon="4.72292">
        <ele>171</ele>
        <time>2018-10-23T08:34:13Z</time>
      </trkpt>
      <trkpt lat="45.94203" lon="4.72293">
        <ele>171</ele>
        <time>2018-10-23T08:34:14Z</time>
      </trkpt>
      <trkpt lat="45.94209" lon="4.72292">
        <ele>171</ele>
        <time>2018-10-23T08:34:15Z</time>
      </trkpt>
      <trkpt lat="45.94214" lon="4.72292">
        <ele>171</ele>
        <time>2018-10-23T08:34:16Z</time>
      </trkpt>
      <trkpt lat="45.94218" lon="4.72294">
        <ele>171</ele>
        <time>2018-10-23T08:34:17Z</time>
      </trkpt>
      <trkpt lat="45.94223" lon="4.72292">
        <ele>171</ele>
        <time>2018-10-23T08:34:18Z</time>
      </trkpt>
      <trkpt lat="45.94229" lon="4.72292">
        <ele>171</ele>
        <time>2018-10-23T08:34:19Z</time>
      </trkpt>
      <trkpt lat="45.94234" lon="4.72292">
        <ele>171</ele>
        <time>2018-10-23T08:34:20Z</time>
      </trkpt>
      <trkpt lat="45.94241" lon="4.72289">
        <ele>171</ele>
        <time>2018-10-23T08:34:21Z</time>
      </trkpt>
      <trkpt lat="45.94246" lon="4.72288">
        <ele>171</ele>
        <time>2018-10-23T08:34:22Z</time>
      </trkpt>
      <trkpt lat="45.94251" lon="4.72286">
        <ele>171</ele>
        <time>2018-10-23T08:34:23Z</time>
      </trkpt>
      <trkpt lat="45.94258" lon="4.72283">
        <ele>171</ele>
        <time>2018-10-23T08:34:24Z</time>
      </trkpt>
      <trkpt lat="45.94263" lon="4.7228">
        <ele>171</ele>
        <time>2018-10-23T08:34:25Z</time>
      </trkpt>
      <trkpt lat="45.94268" lon="4.72277">
        <ele>171</ele>
        <time>2018-10-23T08:34:26Z</time>
      </trkpt>
      <trkpt lat="45.94273" lon="4.72276">
        <ele>171</ele>
        <time>2018-10-23T08:34:27Z</time>
      </trkpt>
      <trkpt lat="45.94281" lon="4.72279">
        <ele>171</ele>
        <time>2018-10-23T08:34:29Z</time>
      </trkpt>
      <trkpt lat="45.94284" lon="4.72284">
        <ele>171</ele>
        <time>2018-10-23T08:34:30Z</time>
      </trkpt>
      <trkpt lat="45.94286" lon="4.72289">
        <ele>171</ele>
        <time>2018-10-23T08:34:31Z</time>
      </trkpt>
      <trkpt lat="45.94288" lon="4.72295">
        <ele>171</ele>
        <time>2018-10-23T08:34:32Z</time>
      </trkpt>
      <trkpt lat="45.94291" lon="4.723">
        <ele>171</ele>
        <time>2018-10-23T08:34:33Z</time>
      </trkpt>
      <trkpt lat="45.94294" lon="4.72306">
        <ele>171</ele>
        <time>2018-10-23T08:34:34Z</time>
      </trkpt>
      <trkpt lat="45.94296" lon="4.72313">
        <ele>171</ele>
        <time>2018-10-23T08:34:35Z</time>
      </trkpt>
      <trkpt lat="45.94299" lon="4.72319">
        <ele>171</ele>
        <time>2018-10-23T08:34:36Z</time>
      </trkpt>
      <trkpt lat="45.94303" lon="4.72326">
        <ele>171</ele>
        <time>2018-10-23T08:34:37Z</time>
      </trkpt>
      <trkpt lat="45.94305" lon="4.72333">
        <ele>171</ele>
        <time>2018-10-23T08:34:38Z</time>
      </trkpt>
      <trkpt lat="45.94307" lon="4.72339">
        <ele>172</ele>
        <time>2018-10-23T08:34:39Z</time>
      </trkpt>
      <trkpt lat="45.9431" lon="4.72346">
        <ele>172</ele>
        <time>2018-10-23T08:34:40Z</time>
      </trkpt>
      <trkpt lat="45.94314" lon="4.72352">
        <ele>172</ele>
        <time>2018-10-23T08:34:41Z</time>
      </trkpt>
      <trkpt lat="45.94315" lon="4.7236">
        <ele>172</ele>
        <time>2018-10-23T08:34:42Z</time>
      </trkpt>
      <trkpt lat="45.94318" lon="4.72367">
        <ele>172</ele>
        <time>2018-10-23T08:34:43Z</time>
      </trkpt>
      <trkpt lat="45.9432" lon="4.72372">
        <ele>172</ele>
        <time>2018-10-23T08:34:44Z</time>
      </trkpt>
      <trkpt lat="45.94325" lon="4.72383">
        <ele>172</ele>
        <time>2018-10-23T08:34:46Z</time>
      </trkpt>
      <trkpt lat="45.94329" lon="4.72389">
        <ele>172</ele>
        <time>2018-10-23T08:34:47Z</time>
      </trkpt>
      <trkpt lat="45.94331" lon="4.72395">
        <ele>172</ele>
        <time>2018-10-23T08:34:48Z</time>
      </trkpt>
      <trkpt lat="45.94334" lon="4.72401">
        <ele>173</ele>
        <time>2018-10-23T08:34:49Z</time>
      </trkpt>
      <trkpt lat="45.94336" lon="4.72407">
        <ele>173</ele>
        <time>2018-10-23T08:34:50Z</time>
      </trkpt>
      <trkpt lat="45.94339" lon="4.72413">
        <ele>173</ele>
        <time>2018-10-23T08:34:51Z</time>
      </trkpt>
      <trkpt lat="45.94342" lon="4.72418">
        <ele>173</ele>
        <time>2018-10-23T08:34:52Z</time>
      </trkpt>
      <trkpt lat="45.94345" lon="4.72425">
        <ele>173</ele>
        <time>2018-10-23T08:34:53Z</time>
      </trkpt>
      <trkpt lat="45.94348" lon="4.72432">
        <ele>173</ele>
        <time>2018-10-23T08:34:54Z</time>
      </trkpt>
      <trkpt lat="45.94351" lon="4.72438">
        <ele>173</ele>
        <time>2018-10-23T08:34:55Z</time>
      </trkpt>
      <trkpt lat="45.94354" lon="4.72445">
        <ele>173</ele>
        <time>2018-10-23T08:34:56Z</time>
      </trkpt>
      <trkpt lat="45.94355" lon="4.7245">
        <ele>173</ele>
        <time>2018-10-23T08:34:57Z</time>
      </trkpt>
      <trkpt lat="45.94358" lon="4.72457">
        <ele>173</ele>
        <time>2018-10-23T08:34:58Z</time>
      </trkpt>
      <trkpt lat="45.9436" lon="4.72464">
        <ele>173</ele>
        <time>2018-10-23T08:34:59Z</time>
      </trkpt>
      <trkpt lat="45.94364" lon="4.72471">
        <ele>173</ele>
        <time>2018-10-23T08:35:00Z</time>
      </trkpt>
      <trkpt lat="45.94368" lon="4.72479">
        <ele>173</ele>
        <time>2018-10-23T08:35:01Z</time>
      </trkpt>
      <trkpt lat="45.9437" lon="4.72484">
        <ele>173</ele>
        <time>2018-10-23T08:35:02Z</time>
      </trkpt>
      <trkpt lat="45.94371" lon="4.72491">
        <ele>173</ele>
        <time>2018-10-23T08:35:03Z</time>
      </trkpt>
      <trkpt lat="45.94376" lon="4.72502">
        <ele>174</ele>
        <time>2018-10-23T08:35:05Z</time>
      </trkpt>
      <trkpt lat="45.94378" lon="4.72507">
        <ele>174</ele>
        <time>2018-10-23T08:35:06Z</time>
      </trkpt>
      <trkpt lat="45.9438" lon="4.72519">
        <ele>174</ele>
        <time>2018-10-23T08:35:08Z</time>
      </trkpt>
      <trkpt lat="45.94382" lon="4.72526">
        <ele>174</ele>
        <time>2018-10-23T08:35:09Z</time>
      </trkpt>
      <trkpt lat="45.94383" lon="4.72533">
        <ele>174</ele>
        <time>2018-10-23T08:35:10Z</time>
      </trkpt>
      <trkpt lat="45.94385" lon="4.7254">
        <ele>174</ele>
        <time>2018-10-23T08:35:11Z</time>
      </trkpt>
      <trkpt lat="45.94386" lon="4.72549">
        <ele>173</ele>
        <time>2018-10-23T08:35:12Z</time>
      </trkpt>
      <trkpt lat="45.94387" lon="4.72556">
        <ele>173</ele>
        <time>2018-10-23T08:35:13Z</time>
      </trkpt>
      <trkpt lat="45.9439" lon="4.72562">
        <ele>173</ele>
        <time>2018-10-23T08:35:14Z</time>
      </trkpt>
      <trkpt lat="45.94392" lon="4.7257">
        <ele>173</ele>
        <time>2018-10-23T08:35:15Z</time>
      </trkpt>
      <trkpt lat="45.94393" lon="4.72577">
        <ele>173</ele>
        <time>2018-10-23T08:35:16Z</time>
      </trkpt>
      <trkpt lat="45.94394" lon="4.72584">
        <ele>173</ele>
        <time>2018-10-23T08:35:17Z</time>
      </trkpt>
      <trkpt lat="45.94394" lon="4.72591">
        <ele>173</ele>
        <time>2018-10-23T08:35:18Z</time>
      </trkpt>
      <trkpt lat="45.94396" lon="4.72597">
        <ele>173</ele>
        <time>2018-10-23T08:35:19Z</time>
      </trkpt>
      <trkpt lat="45.94398" lon="4.72604">
        <ele>173</ele>
        <time>2018-10-23T08:35:20Z</time>
      </trkpt>
      <trkpt lat="45.94398" lon="4.7261">
        <ele>173</ele>
        <time>2018-10-23T08:35:21Z</time>
      </trkpt>
      <trkpt lat="45.94401" lon="4.72621">
        <ele>173</ele>
        <time>2018-10-23T08:35:23Z</time>
      </trkpt>
      <trkpt lat="45.94402" lon="4.72628">
        <ele>174</ele>
        <time>2018-10-23T08:35:24Z</time>
      </trkpt>
      <trkpt lat="45.94403" lon="4.72634">
        <ele>174</ele>
        <time>2018-10-23T08:35:25Z</time>
      </trkpt>
      <trkpt lat="45.94405" lon="4.72641">
        <ele>174</ele>
        <time>2018-10-23T08:35:26Z</time>
      </trkpt>
      <trkpt lat="45.94407" lon="4.72647">
        <ele>174</ele>
        <time>2018-10-23T08:35:27Z</time>
      </trkpt>
      <trkpt lat="45.94407" lon="4.72654">
        <ele>174</ele>
        <time>2018-10-23T08:35:28Z</time>
      </trkpt>
      <trkpt lat="45.94409" lon="4.7266">
        <ele>174</ele>
        <time>2018-10-23T08:35:29Z</time>
      </trkpt>
      <trkpt lat="45.9441" lon="4.72667">
        <ele>174</ele>
        <time>2018-10-23T08:35:30Z</time>
      </trkpt>
      <trkpt lat="45.9441" lon="4.72674">
        <ele>173</ele>
        <time>2018-10-23T08:35:31Z</time>
      </trkpt>
      <trkpt lat="45.94412" lon="4.7268">
        <ele>173</ele>
        <time>2018-10-23T08:35:32Z</time>
      </trkpt>
      <trkpt lat="45.94412" lon="4.72688">
        <ele>173</ele>
        <time>2018-10-23T08:35:33Z</time>
      </trkpt>
      <trkpt lat="45.94413" lon="4.72695">
        <ele>173</ele>
        <time>2018-10-23T08:35:34Z</time>
      </trkpt>
      <trkpt lat="45.94414" lon="4.72703">
        <ele>172</ele>
        <time>2018-10-23T08:35:35Z</time>
      </trkpt>
      <trkpt lat="45.94415" lon="4.7271">
        <ele>172</ele>
        <time>2018-10-23T08:35:36Z</time>
      </trkpt>
      <trkpt lat="45.94416" lon="4.72719">
        <ele>172</ele>
        <time>2018-10-23T08:35:37Z</time>
      </trkpt>
      <trkpt lat="45.94417" lon="4.72727">
        <ele>171</ele>
        <time>2018-10-23T08:35:38Z</time>
      </trkpt>
      <trkpt lat="45.94418" lon="4.72734">
        <ele>171</ele>
        <time>2018-10-23T08:35:39Z</time>
      </trkpt>
      <trkpt lat="45.94419" lon="4.72741">
        <ele>171</ele>
        <time>2018-10-23T08:35:40Z</time>
      </trkpt>
      <trkpt lat="45.94421" lon="4.72748">
        <ele>171</ele>
        <time>2018-10-23T08:35:41Z</time>
      </trkpt>
      <trkpt lat="45.94422" lon="4.72755">
        <ele>170</ele>
        <time>2018-10-23T08:35:42Z</time>
      </trkpt>
      <trkpt lat="45.94424" lon="4.72762">
        <ele>169</ele>
        <time>2018-10-23T08:35:43Z</time>
      </trkpt>
      <trkpt lat="45.94423" lon="4.7277">
        <ele>169</ele>
        <time>2018-10-23T08:35:44Z</time>
      </trkpt>
      <trkpt lat="45.94423" lon="4.72777">
        <ele>168</ele>
        <time>2018-10-23T08:35:45Z</time>
      </trkpt>
      <trkpt lat="45.94424" lon="4.72785">
        <ele>168</ele>
        <time>2018-10-23T08:35:46Z</time>
      </trkpt>
      <trkpt lat="45.94425" lon="4.72794">
        <ele>168</ele>
        <time>2018-10-23T08:35:47Z</time>
      </trkpt>
      <trkpt lat="45.94426" lon="4.728">
        <ele>167</ele>
        <time>2018-10-23T08:35:48Z</time>
      </trkpt>
      <trkpt lat="45.94427" lon="4.72807">
        <ele>167</ele>
        <time>2018-10-23T08:35:49Z</time>
      </trkpt>
      <trkpt lat="45.94427" lon="4.72813">
        <ele>167</ele>
        <time>2018-10-23T08:35:50Z</time>
      </trkpt>
      <trkpt lat="45.94428" lon="4.7282">
        <ele>167</ele>
        <time>2018-10-23T08:35:51Z</time>
      </trkpt>
      <trkpt lat="45.94429" lon="4.72826">
        <ele>167</ele>
        <time>2018-10-23T08:35:52Z</time>
      </trkpt>
      <trkpt lat="45.94431" lon="4.72837">
        <ele>166</ele>
        <time>2018-10-23T08:35:54Z</time>
      </trkpt>
      <trkpt lat="45.94432" lon="4.72843">
        <ele>166</ele>
        <time>2018-10-23T08:35:55Z</time>
      </trkpt>
      <trkpt lat="45.94433" lon="4.72853">
        <ele>166</ele>
        <time>2018-10-23T08:35:57Z</time>
      </trkpt>
      <trkpt lat="45.94434" lon="4.72859">
        <ele>166</ele>
        <time>2018-10-23T08:35:58Z</time>
      </trkpt>
      <trkpt lat="45.94436" lon="4.72871">
        <ele>166</ele>
        <time>2018-10-23T08:36:00Z</time>
      </trkpt>
      <trkpt lat="45.94436" lon="4.72876">
        <ele>166</ele>
        <time>2018-10-23T08:36:01Z</time>
      </trkpt>
      <trkpt lat="45.94437" lon="4.72887">
        <ele>166</ele>
        <time>2018-10-23T08:36:03Z</time>
      </trkpt>
      <trkpt lat="45.94438" lon="4.72893">
        <ele>166</ele>
        <time>2018-10-23T08:36:04Z</time>
      </trkpt>
      <trkpt lat="45.94439" lon="4.72906">
        <ele>166</ele>
        <time>2018-10-23T08:36:06Z</time>
      </trkpt>
      <trkpt lat="45.9444" lon="4.72912">
        <ele>166</ele>
        <time>2018-10-23T08:36:07Z</time>
      </trkpt>
      <trkpt lat="45.94442" lon="4.72919">
        <ele>167</ele>
        <time>2018-10-23T08:36:08Z</time>
      </trkpt>
      <trkpt lat="45.94444" lon="4.72928">
        <ele>167</ele>
        <time>2018-10-23T08:36:09Z</time>
      </trkpt>
      <trkpt lat="45.94445" lon="4.72934">
        <ele>167</ele>
        <time>2018-10-23T08:36:10Z</time>
      </trkpt>
      <trkpt lat="45.94447" lon="4.72941">
        <ele>167</ele>
        <time>2018-10-23T08:36:11Z</time>
      </trkpt>
      <trkpt lat="45.94448" lon="4.72948">
        <ele>167</ele>
        <time>2018-10-23T08:36:12Z</time>
      </trkpt>
      <trkpt lat="45.94449" lon="4.72957">
        <ele>167</ele>
        <time>2018-10-23T08:36:13Z</time>
      </trkpt>
      <trkpt lat="45.94451" lon="4.72966">
        <ele>167</ele>
        <time>2018-10-23T08:36:14Z</time>
      </trkpt>
      <trkpt lat="45.94452" lon="4.72975">
        <ele>167</ele>
        <time>2018-10-23T08:36:15Z</time>
      </trkpt>
      <trkpt lat="45.94453" lon="4.72984">
        <ele>167</ele>
        <time>2018-10-23T08:36:16Z</time>
      </trkpt>
      <trkpt lat="45.94455" lon="4.72993">
        <ele>168</ele>
        <time>2018-10-23T08:36:17Z</time>
      </trkpt>
      <trkpt lat="45.94456" lon="4.73003">
        <ele>169</ele>
        <time>2018-10-23T08:36:18Z</time>
      </trkpt>
      <trkpt lat="45.94457" lon="4.73012">
        <ele>169</ele>
        <time>2018-10-23T08:36:19Z</time>
      </trkpt>
      <trkpt lat="45.94458" lon="4.73022">
        <ele>169</ele>
        <time>2018-10-23T08:36:20Z</time>
      </trkpt>
      <trkpt lat="45.94458" lon="4.73032">
        <ele>169</ele>
        <time>2018-10-23T08:36:21Z</time>
      </trkpt>
      <trkpt lat="45.94458" lon="4.73043">
        <ele>170</ele>
        <time>2018-10-23T08:36:22Z</time>
      </trkpt>
      <trkpt lat="45.9446" lon="4.73052">
        <ele>170</ele>
        <time>2018-10-23T08:36:23Z</time>
      </trkpt>
      <trkpt lat="45.94462" lon="4.73065">
        <ele>170</ele>
        <time>2018-10-23T08:36:24Z</time>
      </trkpt>
      <trkpt lat="45.94462" lon="4.73074">
        <ele>170</ele>
        <time>2018-10-23T08:36:25Z</time>
      </trkpt>
      <trkpt lat="45.94464" lon="4.73084">
        <ele>171</ele>
        <time>2018-10-23T08:36:26Z</time>
      </trkpt>
      <trkpt lat="45.94466" lon="4.73093">
        <ele>172</ele>
        <time>2018-10-23T08:36:27Z</time>
      </trkpt>
      <trkpt lat="45.94468" lon="4.73102">
        <ele>172</ele>
        <time>2018-10-23T08:36:28Z</time>
      </trkpt>
      <trkpt lat="45.9447" lon="4.73111">
        <ele>172</ele>
        <time>2018-10-23T08:36:29Z</time>
      </trkpt>
      <trkpt lat="45.94473" lon="4.7312">
        <ele>172</ele>
        <time>2018-10-23T08:36:30Z</time>
      </trkpt>
      <trkpt lat="45.94475" lon="4.73129">
        <ele>172</ele>
        <time>2018-10-23T08:36:31Z</time>
      </trkpt>
      <trkpt lat="45.94475" lon="4.73137">
        <ele>172</ele>
        <time>2018-10-23T08:36:32Z</time>
      </trkpt>
      <trkpt lat="45.94477" lon="4.73144">
        <ele>172</ele>
        <time>2018-10-23T08:36:33Z</time>
      </trkpt>
      <trkpt lat="45.94477" lon="4.73152">
        <ele>173</ele>
        <time>2018-10-23T08:36:34Z</time>
      </trkpt>
      <trkpt lat="45.94478" lon="4.73159">
        <ele>173</ele>
        <time>2018-10-23T08:36:35Z</time>
      </trkpt>
      <trkpt lat="45.94479" lon="4.73167">
        <ele>174</ele>
        <time>2018-10-23T08:36:36Z</time>
      </trkpt>
      <trkpt lat="45.9448" lon="4.73175">
        <ele>174</ele>
        <time>2018-10-23T08:36:37Z</time>
      </trkpt>
      <trkpt lat="45.94481" lon="4.73183">
        <ele>174</ele>
        <time>2018-10-23T08:36:38Z</time>
      </trkpt>
      <trkpt lat="45.94482" lon="4.7319">
        <ele>174</ele>
        <time>2018-10-23T08:36:39Z</time>
      </trkpt>
      <trkpt lat="45.94483" lon="4.73199">
        <ele>174</ele>
        <time>2018-10-23T08:36:40Z</time>
      </trkpt>
      <trkpt lat="45.94485" lon="4.73206">
        <ele>175</ele>
        <time>2018-10-23T08:36:41Z</time>
      </trkpt>
      <trkpt lat="45.94487" lon="4.73214">
        <ele>175</ele>
        <time>2018-10-23T08:36:42Z</time>
      </trkpt>
      <trkpt lat="45.94487" lon="4.73222">
        <ele>175</ele>
        <time>2018-10-23T08:36:43Z</time>
      </trkpt>
      <trkpt lat="45.94486" lon="4.73235">
        <ele>175</ele>
        <time>2018-10-23T08:36:45Z</time>
      </trkpt>
      <trkpt lat="45.94487" lon="4.73241">
        <ele>175</ele>
        <time>2018-10-23T08:36:46Z</time>
      </trkpt>
      <trkpt lat="45.94488" lon="4.73253">
        <ele>176</ele>
        <time>2018-10-23T08:36:48Z</time>
      </trkpt>
      <trkpt lat="45.94488" lon="4.7326">
        <ele>176</ele>
        <time>2018-10-23T08:36:49Z</time>
      </trkpt>
      <trkpt lat="45.9449" lon="4.73271">
        <ele>177</ele>
        <time>2018-10-23T08:36:51Z</time>
      </trkpt>
      <trkpt lat="45.9449" lon="4.73276">
        <ele>177</ele>
        <time>2018-10-23T08:36:52Z</time>
      </trkpt>
      <trkpt lat="45.94491" lon="4.73287">
        <ele>177</ele>
        <time>2018-10-23T08:36:54Z</time>
      </trkpt>
      <trkpt lat="45.94492" lon="4.73293">
        <ele>177</ele>
        <time>2018-10-23T08:36:55Z</time>
      </trkpt>
      <trkpt lat="45.94493" lon="4.73306">
        <ele>177</ele>
        <time>2018-10-23T08:36:58Z</time>
      </trkpt>
      <trkpt lat="45.94493" lon="4.73311">
        <ele>177</ele>
        <time>2018-10-23T08:36:59Z</time>
      </trkpt>
      <trkpt lat="45.94494" lon="4.7332">
        <ele>177</ele>
        <time>2018-10-23T08:37:01Z</time>
      </trkpt>
      <trkpt lat="45.94495" lon="4.73324">
        <ele>177</ele>
        <time>2018-10-23T08:37:02Z</time>
      </trkpt>
      <trkpt lat="45.94496" lon="4.73334">
        <ele>177</ele>
        <time>2018-10-23T08:37:03Z</time>
      </trkpt>
      <trkpt lat="45.94497" lon="4.7334">
        <ele>178</ele>
        <time>2018-10-23T08:37:04Z</time>
      </trkpt>
      <trkpt lat="45.94498" lon="4.7335">
        <ele>178</ele>
        <time>2018-10-23T08:37:06Z</time>
      </trkpt>
      <trkpt lat="45.94498" lon="4.73354">
        <ele>178</ele>
        <time>2018-10-23T08:37:07Z</time>
      </trkpt>
      <trkpt lat="45.945" lon="4.73366">
        <ele>179</ele>
        <time>2018-10-23T08:37:09Z</time>
      </trkpt>
      <trkpt lat="45.94501" lon="4.73371">
        <ele>178</ele>
        <time>2018-10-23T08:37:10Z</time>
      </trkpt>
      <trkpt lat="45.94502" lon="4.73381">
        <ele>179</ele>
        <time>2018-10-23T08:37:12Z</time>
      </trkpt>
      <trkpt lat="45.94502" lon="4.73386">
        <ele>179</ele>
        <time>2018-10-23T08:37:13Z</time>
      </trkpt>
      <trkpt lat="45.94503" lon="4.73397">
        <ele>179</ele>
        <time>2018-10-23T08:37:15Z</time>
      </trkpt>
      <trkpt lat="45.94503" lon="4.73402">
        <ele>179</ele>
        <time>2018-10-23T08:37:16Z</time>
      </trkpt>
      <trkpt lat="45.94503" lon="4.73413">
        <ele>180</ele>
        <time>2018-10-23T08:37:18Z</time>
      </trkpt>
      <trkpt lat="45.94503" lon="4.73418">
        <ele>180</ele>
        <time>2018-10-23T08:37:19Z</time>
      </trkpt>
      <trkpt lat="45.94503" lon="4.73431">
        <ele>180</ele>
        <time>2018-10-23T08:37:22Z</time>
      </trkpt>
      <trkpt lat="45.94503" lon="4.73435">
        <ele>181</ele>
        <time>2018-10-23T08:37:23Z</time>
      </trkpt>
      <trkpt lat="45.94504" lon="4.73448">
        <ele>181</ele>
        <time>2018-10-23T08:37:26Z</time>
      </trkpt>
      <trkpt lat="45.94504" lon="4.73454">
        <ele>181</ele>
        <time>2018-10-23T08:37:27Z</time>
      </trkpt>
      <trkpt lat="45.94504" lon="4.73463">
        <ele>181</ele>
        <time>2018-10-23T08:37:29Z</time>
      </trkpt>
      <trkpt lat="45.94504" lon="4.73468">
        <ele>181</ele>
        <time>2018-10-23T08:37:30Z</time>
      </trkpt>
      <trkpt lat="45.94504" lon="4.7348">
        <ele>182</ele>
        <time>2018-10-23T08:37:32Z</time>
      </trkpt>
      <trkpt lat="45.94505" lon="4.73487">
        <ele>182</ele>
        <time>2018-10-23T08:37:33Z</time>
      </trkpt>
      <trkpt lat="45.94506" lon="4.73499">
        <ele>183</ele>
        <time>2018-10-23T08:37:35Z</time>
      </trkpt>
      <trkpt lat="45.94506" lon="4.73504">
        <ele>183</ele>
        <time>2018-10-23T08:37:36Z</time>
      </trkpt>
      <trkpt lat="45.94506" lon="4.73515">
        <ele>183</ele>
        <time>2018-10-23T08:37:38Z</time>
      </trkpt>
      <trkpt lat="45.94506" lon="4.73521">
        <ele>183</ele>
        <time>2018-10-23T08:37:39Z</time>
      </trkpt>
      <trkpt lat="45.94506" lon="4.73532">
        <ele>183</ele>
        <time>2018-10-23T08:37:41Z</time>
      </trkpt>
      <trkpt lat="45.94505" lon="4.73537">
        <ele>183</ele>
        <time>2018-10-23T08:37:42Z</time>
      </trkpt>
      <trkpt lat="45.94505" lon="4.73549">
        <ele>183</ele>
        <time>2018-10-23T08:37:44Z</time>
      </trkpt>
      <trkpt lat="45.94505" lon="4.73555">
        <ele>183</ele>
        <time>2018-10-23T08:37:45Z</time>
      </trkpt>
      <trkpt lat="45.94505" lon="4.73566">
        <ele>184</ele>
        <time>2018-10-23T08:37:47Z</time>
      </trkpt>
      <trkpt lat="45.94504" lon="4.73572">
        <ele>184</ele>
        <time>2018-10-23T08:37:48Z</time>
      </trkpt>
      <trkpt lat="45.94504" lon="4.73583">
        <ele>185</ele>
        <time>2018-10-23T08:37:50Z</time>
      </trkpt>
      <trkpt lat="45.94504" lon="4.73589">
        <ele>185</ele>
        <time>2018-10-23T08:37:51Z</time>
      </trkpt>
      <trkpt lat="45.94503" lon="4.73601">
        <ele>184</ele>
        <time>2018-10-23T08:37:53Z</time>
      </trkpt>
      <trkpt lat="45.94502" lon="4.73607">
        <ele>184</ele>
        <time>2018-10-23T08:37:54Z</time>
      </trkpt>
      <trkpt lat="45.94501" lon="4.73618">
        <ele>184</ele>
        <time>2018-10-23T08:37:56Z</time>
      </trkpt>
      <trkpt lat="45.945" lon="4.73624">
        <ele>186</ele>
        <time>2018-10-23T08:37:57Z</time>
      </trkpt>
      <trkpt lat="45.94498" lon="4.73636">
        <ele>186</ele>
        <time>2018-10-23T08:37:59Z</time>
      </trkpt>
      <trkpt lat="45.94497" lon="4.73642">
        <ele>186</ele>
        <time>2018-10-23T08:38:00Z</time>
      </trkpt>
      <trkpt lat="45.94495" lon="4.73653">
        <ele>185</ele>
        <time>2018-10-23T08:38:02Z</time>
      </trkpt>
      <trkpt lat="45.94494" lon="4.73659">
        <ele>185</ele>
        <time>2018-10-23T08:38:03Z</time>
      </trkpt>
      <trkpt lat="45.94493" lon="4.73665">
        <ele>185</ele>
        <time>2018-10-23T08:38:04Z</time>
      </trkpt>
      <trkpt lat="45.94492" lon="4.73672">
        <ele>185</ele>
        <time>2018-10-23T08:38:05Z</time>
      </trkpt>
      <trkpt lat="45.94491" lon="4.7368">
        <ele>186</ele>
        <time>2018-10-23T08:38:06Z</time>
      </trkpt>
      <trkpt lat="45.9449" lon="4.73687">
        <ele>186</ele>
        <time>2018-10-23T08:38:07Z</time>
      </trkpt>
      <trkpt lat="45.94489" lon="4.73693">
        <ele>186</ele>
        <time>2018-10-23T08:38:08Z</time>
      </trkpt>
      <trkpt lat="45.94489" lon="4.73701">
        <ele>186</ele>
        <time>2018-10-23T08:38:09Z</time>
      </trkpt>
      <trkpt lat="45.94488" lon="4.73707">
        <ele>186</ele>
        <time>2018-10-23T08:38:10Z</time>
      </trkpt>
      <trkpt lat="45.94488" lon="4.73714">
        <ele>186</ele>
        <time>2018-10-23T08:38:11Z</time>
      </trkpt>
      <trkpt lat="45.94487" lon="4.73721">
        <ele>186</ele>
        <time>2018-10-23T08:38:12Z</time>
      </trkpt>
      <trkpt lat="45.94486" lon="4.73728">
        <ele>186</ele>
        <time>2018-10-23T08:38:13Z</time>
      </trkpt>
      <trkpt lat="45.94485" lon="4.73735">
        <ele>186</ele>
        <time>2018-10-23T08:38:14Z</time>
      </trkpt>
      <trkpt lat="45.94484" lon="4.73741">
        <ele>186</ele>
        <time>2018-10-23T08:38:15Z</time>
      </trkpt>
      <trkpt lat="45.94482" lon="4.73748">
        <ele>186</ele>
        <time>2018-10-23T08:38:16Z</time>
      </trkpt>
      <trkpt lat="45.94481" lon="4.73754">
        <ele>186</ele>
        <time>2018-10-23T08:38:17Z</time>
      </trkpt>
      <trkpt lat="45.94478" lon="4.73766">
        <ele>186</ele>
        <time>2018-10-23T08:38:19Z</time>
      </trkpt>
      <trkpt lat="45.94479" lon="4.7377">
        <ele>186</ele>
        <time>2018-10-23T08:38:20Z</time>
      </trkpt>
      <trkpt lat="45.94484" lon="4.7378">
        <ele>186</ele>
        <time>2018-10-23T08:38:22Z</time>
      </trkpt>
      <trkpt lat="45.94488" lon="4.73782">
        <ele>186</ele>
        <time>2018-10-23T08:38:23Z</time>
      </trkpt>
      <trkpt lat="45.94494" lon="4.73787">
        <ele>186</ele>
        <time>2018-10-23T08:38:25Z</time>
      </trkpt>
      <trkpt lat="45.94499" lon="4.73792">
        <ele>185</ele>
        <time>2018-10-23T08:38:26Z</time>
      </trkpt>
      <trkpt lat="45.94506" lon="4.73797">
        <ele>186</ele>
        <time>2018-10-23T08:38:28Z</time>
      </trkpt>
      <trkpt lat="45.9451" lon="4.738">
        <ele>186</ele>
        <time>2018-10-23T08:38:29Z</time>
      </trkpt>
      <trkpt lat="45.94513" lon="4.73804">
        <ele>186</ele>
        <time>2018-10-23T08:38:30Z</time>
      </trkpt>
      <trkpt lat="45.94517" lon="4.73808">
        <ele>186</ele>
        <time>2018-10-23T08:38:31Z</time>
      </trkpt>
      <trkpt lat="45.94521" lon="4.73811">
        <ele>186</ele>
        <time>2018-10-23T08:38:32Z</time>
      </trkpt>
      <trkpt lat="45.94525" lon="4.73817">
        <ele>186</ele>
        <time>2018-10-23T08:38:33Z</time>
      </trkpt>
      <trkpt lat="45.94529" lon="4.73821">
        <ele>186</ele>
        <time>2018-10-23T08:38:34Z</time>
      </trkpt>
      <trkpt lat="45.94534" lon="4.73825">
        <ele>186</ele>
        <time>2018-10-23T08:38:35Z</time>
      </trkpt>
      <trkpt lat="45.94542" lon="4.7383">
        <ele>186</ele>
        <time>2018-10-23T08:38:37Z</time>
      </trkpt>
      <trkpt lat="45.94546" lon="4.73833">
        <ele>186</ele>
        <time>2018-10-23T08:38:38Z</time>
      </trkpt>
      <trkpt lat="45.94552" lon="4.73839">
        <ele>186</ele>
        <time>2018-10-23T08:38:40Z</time>
      </trkpt>
      <trkpt lat="45.94556" lon="4.73843">
        <ele>186</ele>
        <time>2018-10-23T08:38:41Z</time>
      </trkpt>
      <trkpt lat="45.94562" lon="4.7385">
        <ele>186</ele>
        <time>2018-10-23T08:38:43Z</time>
      </trkpt>
      <trkpt lat="45.94565" lon="4.73854">
        <ele>186</ele>
        <time>2018-10-23T08:38:44Z</time>
      </trkpt>
      <trkpt lat="45.94572" lon="4.73861">
        <ele>186</ele>
        <time>2018-10-23T08:38:46Z</time>
      </trkpt>
      <trkpt lat="45.94576" lon="4.73864">
        <ele>186</ele>
        <time>2018-10-23T08:38:47Z</time>
      </trkpt>
      <trkpt lat="45.94583" lon="4.73871">
        <ele>186</ele>
        <time>2018-10-23T08:38:49Z</time>
      </trkpt>
      <trkpt lat="45.94587" lon="4.73874">
        <ele>187</ele>
        <time>2018-10-23T08:38:50Z</time>
      </trkpt>
      <trkpt lat="45.94594" lon="4.73881">
        <ele>187</ele>
        <time>2018-10-23T08:38:52Z</time>
      </trkpt>
      <trkpt lat="45.94597" lon="4.73885">
        <ele>187</ele>
        <time>2018-10-23T08:38:53Z</time>
      </trkpt>
      <trkpt lat="45.94604" lon="4.73892">
        <ele>187</ele>
        <time>2018-10-23T08:38:55Z</time>
      </trkpt>
      <trkpt lat="45.94608" lon="4.73896">
        <ele>187</ele>
        <time>2018-10-23T08:38:56Z</time>
      </trkpt>
      <trkpt lat="45.94614" lon="4.73904">
        <ele>187</ele>
        <time>2018-10-23T08:38:58Z</time>
      </trkpt>
      <trkpt lat="45.94617" lon="4.73909">
        <ele>187</ele>
        <time>2018-10-23T08:38:59Z</time>
      </trkpt>
      <trkpt lat="45.94621" lon="4.73913">
        <ele>187</ele>
        <time>2018-10-23T08:39:00Z</time>
      </trkpt>
      <trkpt lat="45.94624" lon="4.73918">
        <ele>187</ele>
        <time>2018-10-23T08:39:01Z</time>
      </trkpt>
      <trkpt lat="45.94628" lon="4.73922">
        <ele>187</ele>
        <time>2018-10-23T08:39:02Z</time>
      </trkpt>
      <trkpt lat="45.94631" lon="4.73926">
        <ele>187</ele>
        <time>2018-10-23T08:39:03Z</time>
      </trkpt>
      <trkpt lat="45.94637" lon="4.73935">
        <ele>187</ele>
        <time>2018-10-23T08:39:05Z</time>
      </trkpt>
      <trkpt lat="45.94641" lon="4.7394">
        <ele>187</ele>
        <time>2018-10-23T08:39:06Z</time>
      </trkpt>
      <trkpt lat="45.94644" lon="4.73946">
        <ele>187</ele>
        <time>2018-10-23T08:39:07Z</time>
      </trkpt>
      <trkpt lat="45.94648" lon="4.7395">
        <ele>187</ele>
        <time>2018-10-23T08:39:08Z</time>
      </trkpt>
      <trkpt lat="45.94654" lon="4.73957">
        <ele>187</ele>
        <time>2018-10-23T08:39:10Z</time>
      </trkpt>
      <trkpt lat="45.94658" lon="4.73961">
        <ele>187</ele>
        <time>2018-10-23T08:39:11Z</time>
      </trkpt>
      <trkpt lat="45.94662" lon="4.73965">
        <ele>187</ele>
        <time>2018-10-23T08:39:12Z</time>
      </trkpt>
      <trkpt lat="45.94666" lon="4.73969">
        <ele>187</ele>
        <time>2018-10-23T08:39:13Z</time>
      </trkpt>
      <trkpt lat="45.94669" lon="4.73973">
        <ele>187</ele>
        <time>2018-10-23T08:39:14Z</time>
      </trkpt>
      <trkpt lat="45.94672" lon="4.73978">
        <ele>187</ele>
        <time>2018-10-23T08:39:15Z</time>
      </trkpt>
      <trkpt lat="45.94676" lon="4.73983">
        <ele>187</ele>
        <time>2018-10-23T08:39:16Z</time>
      </trkpt>
      <trkpt lat="45.94679" lon="4.73987">
        <ele>187</ele>
        <time>2018-10-23T08:39:17Z</time>
      </trkpt>
      <trkpt lat="45.94682" lon="4.73991">
        <ele>187</ele>
        <time>2018-10-23T08:39:18Z</time>
      </trkpt>
      <trkpt lat="45.94686" lon="4.73995">
        <ele>187</ele>
        <time>2018-10-23T08:39:19Z</time>
      </trkpt>
      <trkpt lat="45.94692" lon="4.74003">
        <ele>187</ele>
        <time>2018-10-23T08:39:21Z</time>
      </trkpt>
      <trkpt lat="45.94695" lon="4.74007">
        <ele>187</ele>
        <time>2018-10-23T08:39:22Z</time>
      </trkpt>
      <trkpt lat="45.94699" lon="4.74012">
        <ele>187</ele>
        <time>2018-10-23T08:39:23Z</time>
      </trkpt>
      <trkpt lat="45.94702" lon="4.74016">
        <ele>187</ele>
        <time>2018-10-23T08:39:24Z</time>
      </trkpt>
      <trkpt lat="45.94707" lon="4.74024">
        <ele>187</ele>
        <time>2018-10-23T08:39:26Z</time>
      </trkpt>
      <trkpt lat="45.94711" lon="4.74029">
        <ele>187</ele>
        <time>2018-10-23T08:39:27Z</time>
      </trkpt>
      <trkpt lat="45.94717" lon="4.74037">
        <ele>187</ele>
        <time>2018-10-23T08:39:29Z</time>
      </trkpt>
      <trkpt lat="45.9472" lon="4.74041">
        <ele>187</ele>
        <time>2018-10-23T08:39:30Z</time>
      </trkpt>
      <trkpt lat="45.94726" lon="4.74049">
        <ele>188</ele>
        <time>2018-10-23T08:39:32Z</time>
      </trkpt>
      <trkpt lat="45.94729" lon="4.74053">
        <ele>188</ele>
        <time>2018-10-23T08:39:33Z</time>
      </trkpt>
      <trkpt lat="45.94732" lon="4.74058">
        <ele>188</ele>
        <time>2018-10-23T08:39:34Z</time>
      </trkpt>
      <trkpt lat="45.94736" lon="4.74063">
        <ele>188</ele>
        <time>2018-10-23T08:39:35Z</time>
      </trkpt>
      <trkpt lat="45.9474" lon="4.74068">
        <ele>188</ele>
        <time>2018-10-23T08:39:36Z</time>
      </trkpt>
      <trkpt lat="45.94743" lon="4.74073">
        <ele>188</ele>
        <time>2018-10-23T08:39:37Z</time>
      </trkpt>
      <trkpt lat="45.94746" lon="4.74078">
        <ele>189</ele>
        <time>2018-10-23T08:39:38Z</time>
      </trkpt>
      <trkpt lat="45.9475" lon="4.74083">
        <ele>189</ele>
        <time>2018-10-23T08:39:39Z</time>
      </trkpt>
      <trkpt lat="45.94754" lon="4.74088">
        <ele>189</ele>
        <time>2018-10-23T08:39:40Z</time>
      </trkpt>
      <trkpt lat="45.94757" lon="4.74094">
        <ele>189</ele>
        <time>2018-10-23T08:39:41Z</time>
      </trkpt>
      <trkpt lat="45.94762" lon="4.74099">
        <ele>189</ele>
        <time>2018-10-23T08:39:42Z</time>
      </trkpt>
      <trkpt lat="45.94764" lon="4.74104">
        <ele>189</ele>
        <time>2018-10-23T08:39:43Z</time>
      </trkpt>
      <trkpt lat="45.94767" lon="4.74108">
        <ele>189</ele>
        <time>2018-10-23T08:39:44Z</time>
      </trkpt>
      <trkpt lat="45.9477" lon="4.74113">
        <ele>189</ele>
        <time>2018-10-23T08:39:45Z</time>
      </trkpt>
      <trkpt lat="45.94775" lon="4.7412">
        <ele>189</ele>
        <time>2018-10-23T08:39:46Z</time>
      </trkpt>
      <trkpt lat="45.94778" lon="4.74124">
        <ele>189</ele>
        <time>2018-10-23T08:39:47Z</time>
      </trkpt>
      <trkpt lat="45.94782" lon="4.74125">
        <ele>189</ele>
        <time>2018-10-23T08:39:48Z</time>
      </trkpt>
      <trkpt lat="45.94786" lon="4.74129">
        <ele>189</ele>
        <time>2018-10-23T08:39:49Z</time>
      </trkpt>
      <trkpt lat="45.9479" lon="4.74134">
        <ele>189</ele>
        <time>2018-10-23T08:39:50Z</time>
      </trkpt>
      <trkpt lat="45.94793" lon="4.74139">
        <ele>189</ele>
        <time>2018-10-23T08:39:51Z</time>
      </trkpt>
      <trkpt lat="45.94798" lon="4.74149">
        <ele>189</ele>
        <time>2018-10-23T08:39:53Z</time>
      </trkpt>
      <trkpt lat="45.94802" lon="4.74154">
        <ele>189</ele>
        <time>2018-10-23T08:39:54Z</time>
      </trkpt>
      <trkpt lat="45.94805" lon="4.7416">
        <ele>189</ele>
        <time>2018-10-23T08:39:55Z</time>
      </trkpt>
      <trkpt lat="45.94808" lon="4.74165">
        <ele>189</ele>
        <time>2018-10-23T08:39:56Z</time>
      </trkpt>
      <trkpt lat="45.94811" lon="4.74171">
        <ele>189</ele>
        <time>2018-10-23T08:39:57Z</time>
      </trkpt>
      <trkpt lat="45.94815" lon="4.74177">
        <ele>189</ele>
        <time>2018-10-23T08:39:58Z</time>
      </trkpt>
      <trkpt lat="45.94818" lon="4.74182">
        <ele>189</ele>
        <time>2018-10-23T08:39:59Z</time>
      </trkpt>
      <trkpt lat="45.9482" lon="4.74189">
        <ele>189</ele>
        <time>2018-10-23T08:40:00Z</time>
      </trkpt>
      <trkpt lat="45.94825" lon="4.742">
        <ele>189</ele>
        <time>2018-10-23T08:40:02Z</time>
      </trkpt>
      <trkpt lat="45.94827" lon="4.74206">
        <ele>189</ele>
        <time>2018-10-23T08:40:03Z</time>
      </trkpt>
      <trkpt lat="45.94834" lon="4.74213">
        <ele>190</ele>
        <time>2018-10-23T08:40:05Z</time>
      </trkpt>
      <trkpt lat="45.94835" lon="4.74222">
        <ele>190</ele>
        <time>2018-10-23T08:40:06Z</time>
      </trkpt>
      <trkpt lat="45.94841" lon="4.7423">
        <ele>190</ele>
        <time>2018-10-23T08:40:08Z</time>
      </trkpt>
      <trkpt lat="45.94844" lon="4.74239">
        <ele>190</ele>
        <time>2018-10-23T08:40:09Z</time>
      </trkpt>
      <trkpt lat="45.9485" lon="4.74246">
        <ele>190</ele>
        <time>2018-10-23T08:40:10Z</time>
      </trkpt>
      <trkpt lat="45.94852" lon="4.74252">
        <ele>190</ele>
        <time>2018-10-23T08:40:11Z</time>
      </trkpt>
      <trkpt lat="45.94856" lon="4.74258">
        <ele>190</ele>
        <time>2018-10-23T08:40:12Z</time>
      </trkpt>
      <trkpt lat="45.94859" lon="4.74262">
        <ele>190</ele>
        <time>2018-10-23T08:40:13Z</time>
      </trkpt>
      <trkpt lat="45.94863" lon="4.74267">
        <ele>190</ele>
        <time>2018-10-23T08:40:14Z</time>
      </trkpt>
      <trkpt lat="45.94865" lon="4.74272">
        <ele>190</ele>
        <time>2018-10-23T08:40:15Z</time>
      </trkpt>
      <trkpt lat="45.94869" lon="4.74278">
        <ele>191</ele>
        <time>2018-10-23T08:40:16Z</time>
      </trkpt>
      <trkpt lat="45.94872" lon="4.74285">
        <ele>191</ele>
        <time>2018-10-23T08:40:17Z</time>
      </trkpt>
      <trkpt lat="45.94875" lon="4.74291">
        <ele>191</ele>
        <time>2018-10-23T08:40:18Z</time>
      </trkpt>
      <trkpt lat="45.94878" lon="4.74299">
        <ele>191</ele>
        <time>2018-10-23T08:40:19Z</time>
      </trkpt>
      <trkpt lat="45.94881" lon="4.74305">
        <ele>191</ele>
        <time>2018-10-23T08:40:20Z</time>
      </trkpt>
      <trkpt lat="45.94883" lon="4.7431">
        <ele>191</ele>
        <time>2018-10-23T08:40:21Z</time>
      </trkpt>
      <trkpt lat="45.94887" lon="4.74316">
        <ele>191</ele>
        <time>2018-10-23T08:40:22Z</time>
      </trkpt>
      <trkpt lat="45.9489" lon="4.74322">
        <ele>191</ele>
        <time>2018-10-23T08:40:23Z</time>
      </trkpt>
      <trkpt lat="45.94894" lon="4.74333">
        <ele>191</ele>
        <time>2018-10-23T08:40:25Z</time>
      </trkpt>
      <trkpt lat="45.94896" lon="4.74339">
        <ele>191</ele>
        <time>2018-10-23T08:40:26Z</time>
      </trkpt>
      <trkpt lat="45.94898" lon="4.74345">
        <ele>191</ele>
        <time>2018-10-23T08:40:27Z</time>
      </trkpt>
      <trkpt lat="45.94902" lon="4.7435">
        <ele>191</ele>
        <time>2018-10-23T08:40:28Z</time>
      </trkpt>
      <trkpt lat="45.94904" lon="4.74355">
        <ele>191</ele>
        <time>2018-10-23T08:40:29Z</time>
      </trkpt>
      <trkpt lat="45.94907" lon="4.74362">
        <ele>191</ele>
        <time>2018-10-23T08:40:30Z</time>
      </trkpt>
      <trkpt lat="45.9491" lon="4.74367">
        <ele>191</ele>
        <time>2018-10-23T08:40:31Z</time>
      </trkpt>
      <trkpt lat="45.94913" lon="4.74373">
        <ele>191</ele>
        <time>2018-10-23T08:40:32Z</time>
      </trkpt>
      <trkpt lat="45.94917" lon="4.74383">
        <ele>192</ele>
        <time>2018-10-23T08:40:34Z</time>
      </trkpt>
      <trkpt lat="45.94919" lon="4.74389">
        <ele>192</ele>
        <time>2018-10-23T08:40:35Z</time>
      </trkpt>
      <trkpt lat="45.94922" lon="4.74395">
        <ele>192</ele>
        <time>2018-10-23T08:40:36Z</time>
      </trkpt>
      <trkpt lat="45.94925" lon="4.74401">
        <ele>192</ele>
        <time>2018-10-23T08:40:37Z</time>
      </trkpt>
      <trkpt lat="45.94928" lon="4.74406">
        <ele>192</ele>
        <time>2018-10-23T08:40:38Z</time>
      </trkpt>
      <trkpt lat="45.94931" lon="4.74412">
        <ele>192</ele>
        <time>2018-10-23T08:40:39Z</time>
      </trkpt>
      <trkpt lat="45.94934" lon="4.74417">
        <ele>192</ele>
        <time>2018-10-23T08:40:40Z</time>
      </trkpt>
      <trkpt lat="45.94937" lon="4.74423">
        <ele>192</ele>
        <time>2018-10-23T08:40:41Z</time>
      </trkpt>
      <trkpt lat="45.9494" lon="4.74429">
        <ele>192</ele>
        <time>2018-10-23T08:40:42Z</time>
      </trkpt>
      <trkpt lat="45.94947" lon="4.74434">
        <ele>192</ele>
        <time>2018-10-23T08:40:43Z</time>
      </trkpt>
      <trkpt lat="45.94952" lon="4.74444">
        <ele>192</ele>
        <time>2018-10-23T08:40:45Z</time>
      </trkpt>
      <trkpt lat="45.94955" lon="4.74449">
        <ele>192</ele>
        <time>2018-10-23T08:40:46Z</time>
      </trkpt>
      <trkpt lat="45.9496" lon="4.74459">
        <ele>193</ele>
        <time>2018-10-23T08:40:48Z</time>
      </trkpt>
      <trkpt lat="45.94961" lon="4.74465">
        <ele>193</ele>
        <time>2018-10-23T08:40:49Z</time>
      </trkpt>
      <trkpt lat="45.94964" lon="4.74471">
        <ele>193</ele>
        <time>2018-10-23T08:40:50Z</time>
      </trkpt>
      <trkpt lat="45.94966" lon="4.74477">
        <ele>193</ele>
        <time>2018-10-23T08:40:51Z</time>
      </trkpt>
      <trkpt lat="45.94972" lon="4.74487">
        <ele>193</ele>
        <time>2018-10-23T08:40:53Z</time>
      </trkpt>
      <trkpt lat="45.94975" lon="4.74492">
        <ele>193</ele>
        <time>2018-10-23T08:40:54Z</time>
      </trkpt>
      <trkpt lat="45.94978" lon="4.74498">
        <ele>193</ele>
        <time>2018-10-23T08:40:55Z</time>
      </trkpt>
      <trkpt lat="45.9498" lon="4.74504">
        <ele>193</ele>
        <time>2018-10-23T08:40:56Z</time>
      </trkpt>
      <trkpt lat="45.94985" lon="4.74515">
        <ele>193</ele>
        <time>2018-10-23T08:40:58Z</time>
      </trkpt>
      <trkpt lat="45.94988" lon="4.7452">
        <ele>193</ele>
        <time>2018-10-23T08:40:59Z</time>
      </trkpt>
      <trkpt lat="45.94991" lon="4.74526">
        <ele>193</ele>
        <time>2018-10-23T08:41:00Z</time>
      </trkpt>
      <trkpt lat="45.94995" lon="4.7453">
        <ele>193</ele>
        <time>2018-10-23T08:41:01Z</time>
      </trkpt>
      <trkpt lat="45.94998" lon="4.74535">
        <ele>193</ele>
        <time>2018-10-23T08:41:02Z</time>
      </trkpt>
      <trkpt lat="45.95" lon="4.74541">
        <ele>194</ele>
        <time>2018-10-23T08:41:03Z</time>
      </trkpt>
      <trkpt lat="45.95003" lon="4.74546">
        <ele>194</ele>
        <time>2018-10-23T08:41:04Z</time>
      </trkpt>
      <trkpt lat="45.95005" lon="4.74553">
        <ele>194</ele>
        <time>2018-10-23T08:41:05Z</time>
      </trkpt>
      <trkpt lat="45.95011" lon="4.74562">
        <ele>194</ele>
        <time>2018-10-23T08:41:07Z</time>
      </trkpt>
      <trkpt lat="45.95014" lon="4.74567">
        <ele>194</ele>
        <time>2018-10-23T08:41:08Z</time>
      </trkpt>
      <trkpt lat="45.9502" lon="4.74576">
        <ele>194</ele>
        <time>2018-10-23T08:41:10Z</time>
      </trkpt>
      <trkpt lat="45.95023" lon="4.74582">
        <ele>194</ele>
        <time>2018-10-23T08:41:11Z</time>
      </trkpt>
      <trkpt lat="45.95027" lon="4.74592">
        <ele>194</ele>
        <time>2018-10-23T08:41:13Z</time>
      </trkpt>
      <trkpt lat="45.95032" lon="4.74596">
        <ele>194</ele>
        <time>2018-10-23T08:41:14Z</time>
      </trkpt>
      <trkpt lat="45.95035" lon="4.74602">
        <ele>194</ele>
        <time>2018-10-23T08:41:15Z</time>
      </trkpt>
      <trkpt lat="45.95039" lon="4.74608">
        <ele>194</ele>
        <time>2018-10-23T08:41:16Z</time>
      </trkpt>
      <trkpt lat="45.95042" lon="4.74617">
        <ele>194</ele>
        <time>2018-10-23T08:41:18Z</time>
      </trkpt>
      <trkpt lat="45.95045" lon="4.74623">
        <ele>194</ele>
        <time>2018-10-23T08:41:19Z</time>
      </trkpt>
      <trkpt lat="45.95048" lon="4.74629">
        <ele>194</ele>
        <time>2018-10-23T08:41:20Z</time>
      </trkpt>
      <trkpt lat="45.95052" lon="4.74633">
        <ele>194</ele>
        <time>2018-10-23T08:41:21Z</time>
      </trkpt>
      <trkpt lat="45.95055" lon="4.74639">
        <ele>194</ele>
        <time>2018-10-23T08:41:22Z</time>
      </trkpt>
      <trkpt lat="45.95057" lon="4.74645">
        <ele>194</ele>
        <time>2018-10-23T08:41:23Z</time>
      </trkpt>
      <trkpt lat="45.9506" lon="4.74651">
        <ele>194</ele>
        <time>2018-10-23T08:41:24Z</time>
      </trkpt>
      <trkpt lat="45.95063" lon="4.74658">
        <ele>195</ele>
        <time>2018-10-23T08:41:25Z</time>
      </trkpt>
      <trkpt lat="45.95067" lon="4.74663">
        <ele>195</ele>
        <time>2018-10-23T08:41:26Z</time>
      </trkpt>
      <trkpt lat="45.9507" lon="4.7467">
        <ele>194</ele>
        <time>2018-10-23T08:41:27Z</time>
      </trkpt>
      <trkpt lat="45.95073" lon="4.74675">
        <ele>194</ele>
        <time>2018-10-23T08:41:28Z</time>
      </trkpt>
      <trkpt lat="45.95076" lon="4.74681">
        <ele>194</ele>
        <time>2018-10-23T08:41:29Z</time>
      </trkpt>
      <trkpt lat="45.95079" lon="4.74688">
        <ele>194</ele>
        <time>2018-10-23T08:41:30Z</time>
      </trkpt>
      <trkpt lat="45.95081" lon="4.74693">
        <ele>194</ele>
        <time>2018-10-23T08:41:31Z</time>
      </trkpt>
      <trkpt lat="45.95084" lon="4.747">
        <ele>194</ele>
        <time>2018-10-23T08:41:32Z</time>
      </trkpt>
      <trkpt lat="45.95087" lon="4.74704">
        <ele>194</ele>
        <time>2018-10-23T08:41:33Z</time>
      </trkpt>
      <trkpt lat="45.95091" lon="4.7471">
        <ele>194</ele>
        <time>2018-10-23T08:41:34Z</time>
      </trkpt>
      <trkpt lat="45.95093" lon="4.74716">
        <ele>194</ele>
        <time>2018-10-23T08:41:35Z</time>
      </trkpt>
      <trkpt lat="45.95096" lon="4.74721">
        <ele>194</ele>
        <time>2018-10-23T08:41:36Z</time>
      </trkpt>
      <trkpt lat="45.951" lon="4.74727">
        <ele>194</ele>
        <time>2018-10-23T08:41:37Z</time>
      </trkpt>
      <trkpt lat="45.95103" lon="4.74733">
        <ele>194</ele>
        <time>2018-10-23T08:41:38Z</time>
      </trkpt>
      <trkpt lat="45.95107" lon="4.74738">
        <ele>194</ele>
        <time>2018-10-23T08:41:39Z</time>
      </trkpt>
      <trkpt lat="45.9511" lon="4.74743">
        <ele>194</ele>
        <time>2018-10-23T08:41:40Z</time>
      </trkpt>
      <trkpt lat="45.95115" lon="4.74748">
        <ele>194</ele>
        <time>2018-10-23T08:41:41Z</time>
      </trkpt>
      <trkpt lat="45.95118" lon="4.74753">
        <ele>194</ele>
        <time>2018-10-23T08:41:42Z</time>
      </trkpt>
      <trkpt lat="45.95122" lon="4.74758">
        <ele>194</ele>
        <time>2018-10-23T08:41:43Z</time>
      </trkpt>
      <trkpt lat="45.95126" lon="4.74762">
        <ele>194</ele>
        <time>2018-10-23T08:41:44Z</time>
      </trkpt>
      <trkpt lat="45.95128" lon="4.74768">
        <ele>194</ele>
        <time>2018-10-23T08:41:45Z</time>
      </trkpt>
      <trkpt lat="45.95132" lon="4.74774">
        <ele>194</ele>
        <time>2018-10-23T08:41:46Z</time>
      </trkpt>
      <trkpt lat="45.95135" lon="4.74779">
        <ele>194</ele>
        <time>2018-10-23T08:41:47Z</time>
      </trkpt>
      <trkpt lat="45.95138" lon="4.74784">
        <ele>194</ele>
        <time>2018-10-23T08:41:48Z</time>
      </trkpt>
      <trkpt lat="45.95142" lon="4.7479">
        <ele>194</ele>
        <time>2018-10-23T08:41:49Z</time>
      </trkpt>
      <trkpt lat="45.95145" lon="4.74796">
        <ele>194</ele>
        <time>2018-10-23T08:41:50Z</time>
      </trkpt>
      <trkpt lat="45.95149" lon="4.74801">
        <ele>194</ele>
        <time>2018-10-23T08:41:51Z</time>
      </trkpt>
      <trkpt lat="45.95153" lon="4.74806">
        <ele>194</ele>
        <time>2018-10-23T08:41:52Z</time>
      </trkpt>
      <trkpt lat="45.95156" lon="4.74813">
        <ele>194</ele>
        <time>2018-10-23T08:41:53Z</time>
      </trkpt>
      <trkpt lat="45.9516" lon="4.74818">
        <ele>194</ele>
        <time>2018-10-23T08:41:54Z</time>
      </trkpt>
      <trkpt lat="45.95164" lon="4.74824">
        <ele>194</ele>
        <time>2018-10-23T08:41:55Z</time>
      </trkpt>
      <trkpt lat="45.95167" lon="4.74829">
        <ele>194</ele>
        <time>2018-10-23T08:41:56Z</time>
      </trkpt>
      <trkpt lat="45.95171" lon="4.74835">
        <ele>194</ele>
        <time>2018-10-23T08:41:57Z</time>
      </trkpt>
      <trkpt lat="45.95174" lon="4.74841">
        <ele>194</ele>
        <time>2018-10-23T08:41:58Z</time>
      </trkpt>
      <trkpt lat="45.95176" lon="4.74846">
        <ele>194</ele>
        <time>2018-10-23T08:41:59Z</time>
      </trkpt>
      <trkpt lat="45.95178" lon="4.74852">
        <ele>194</ele>
        <time>2018-10-23T08:42:00Z</time>
      </trkpt>
      <trkpt lat="45.95182" lon="4.74856">
        <ele>194</ele>
        <time>2018-10-23T08:42:01Z</time>
      </trkpt>
      <trkpt lat="45.95185" lon="4.74862">
        <ele>194</ele>
        <time>2018-10-23T08:42:02Z</time>
      </trkpt>
      <trkpt lat="45.95188" lon="4.74867">
        <ele>194</ele>
        <time>2018-10-23T08:42:03Z</time>
      </trkpt>
      <trkpt lat="45.95193" lon="4.74872">
        <ele>194</ele>
        <time>2018-10-23T08:42:04Z</time>
      </trkpt>
      <trkpt lat="45.95196" lon="4.74875">
        <ele>194</ele>
        <time>2018-10-23T08:42:05Z</time>
      </trkpt>
      <trkpt lat="45.952" lon="4.74886">
        <ele>194</ele>
        <time>2018-10-23T08:42:07Z</time>
      </trkpt>
      <trkpt lat="45.95204" lon="4.74891">
        <ele>194</ele>
        <time>2018-10-23T08:42:08Z</time>
      </trkpt>
      <trkpt lat="45.9521" lon="4.749">
        <ele>193</ele>
        <time>2018-10-23T08:42:10Z</time>
      </trkpt>
      <trkpt lat="45.95214" lon="4.74905">
        <ele>193</ele>
        <time>2018-10-23T08:42:11Z</time>
      </trkpt>
      <trkpt lat="45.95217" lon="4.7491">
        <ele>193</ele>
        <time>2018-10-23T08:42:12Z</time>
      </trkpt>
      <trkpt lat="45.9522" lon="4.74916">
        <ele>193</ele>
        <time>2018-10-23T08:42:13Z</time>
      </trkpt>
      <trkpt lat="45.95224" lon="4.74922">
        <ele>192</ele>
        <time>2018-10-23T08:42:14Z</time>
      </trkpt>
      <trkpt lat="45.95227" lon="4.74928">
        <ele>192</ele>
        <time>2018-10-23T08:42:15Z</time>
      </trkpt>
      <trkpt lat="45.9523" lon="4.74934">
        <ele>192</ele>
        <time>2018-10-23T08:42:16Z</time>
      </trkpt>
      <trkpt lat="45.95234" lon="4.74938">
        <ele>192</ele>
        <time>2018-10-23T08:42:17Z</time>
      </trkpt>
      <trkpt lat="45.95238" lon="4.74943">
        <ele>192</ele>
        <time>2018-10-23T08:42:18Z</time>
      </trkpt>
      <trkpt lat="45.95242" lon="4.74948">
        <ele>192</ele>
        <time>2018-10-23T08:42:19Z</time>
      </trkpt>
      <trkpt lat="45.95247" lon="4.74958">
        <ele>192</ele>
        <time>2018-10-23T08:42:21Z</time>
      </trkpt>
      <trkpt lat="45.95251" lon="4.74963">
        <ele>192</ele>
        <time>2018-10-23T08:42:22Z</time>
      </trkpt>
      <trkpt lat="45.95254" lon="4.74969">
        <ele>192</ele>
        <time>2018-10-23T08:42:23Z</time>
      </trkpt>
      <trkpt lat="45.95257" lon="4.74974">
        <ele>192</ele>
        <time>2018-10-23T08:42:24Z</time>
      </trkpt>
      <trkpt lat="45.9526" lon="4.7498">
        <ele>192</ele>
        <time>2018-10-23T08:42:25Z</time>
      </trkpt>
      <trkpt lat="45.95263" lon="4.74985">
        <ele>192</ele>
        <time>2018-10-23T08:42:26Z</time>
      </trkpt>
      <trkpt lat="45.95267" lon="4.7499">
        <ele>192</ele>
        <time>2018-10-23T08:42:27Z</time>
      </trkpt>
      <trkpt lat="45.9527" lon="4.74995">
        <ele>192</ele>
        <time>2018-10-23T08:42:28Z</time>
      </trkpt>
      <trkpt lat="45.95273" lon="4.75">
        <ele>192</ele>
        <time>2018-10-23T08:42:29Z</time>
      </trkpt>
      <trkpt lat="45.95276" lon="4.75005">
        <ele>191</ele>
        <time>2018-10-23T08:42:30Z</time>
      </trkpt>
      <trkpt lat="45.95279" lon="4.7501">
        <ele>191</ele>
        <time>2018-10-23T08:42:31Z</time>
      </trkpt>
      <trkpt lat="45.95283" lon="4.75017">
        <ele>191</ele>
        <time>2018-10-23T08:42:32Z</time>
      </trkpt>
      <trkpt lat="45.95287" lon="4.75022">
        <ele>191</ele>
        <time>2018-10-23T08:42:33Z</time>
      </trkpt>
      <trkpt lat="45.95291" lon="4.75028">
        <ele>191</ele>
        <time>2018-10-23T08:42:34Z</time>
      </trkpt>
      <trkpt lat="45.95296" lon="4.75033">
        <ele>191</ele>
        <time>2018-10-23T08:42:35Z</time>
      </trkpt>
      <trkpt lat="45.95302" lon="4.75037">
        <ele>191</ele>
        <time>2018-10-23T08:42:36Z</time>
      </trkpt>
      <trkpt lat="45.95304" lon="4.75043">
        <ele>191</ele>
        <time>2018-10-23T08:42:37Z</time>
      </trkpt>
      <trkpt lat="45.95309" lon="4.7505">
        <ele>192</ele>
        <time>2018-10-23T08:42:38Z</time>
      </trkpt>
      <trkpt lat="45.95314" lon="4.75057">
        <ele>192</ele>
        <time>2018-10-23T08:42:39Z</time>
      </trkpt>
      <trkpt lat="45.95317" lon="4.75063">
        <ele>192</ele>
        <time>2018-10-23T08:42:40Z</time>
      </trkpt>
      <trkpt lat="45.9532" lon="4.7507">
        <ele>192</ele>
        <time>2018-10-23T08:42:41Z</time>
      </trkpt>
      <trkpt lat="45.95323" lon="4.75076">
        <ele>192</ele>
        <time>2018-10-23T08:42:42Z</time>
      </trkpt>
      <trkpt lat="45.95328" lon="4.75082">
        <ele>193</ele>
        <time>2018-10-23T08:42:43Z</time>
      </trkpt>
      <trkpt lat="45.95333" lon="4.75088">
        <ele>192</ele>
        <time>2018-10-23T08:42:44Z</time>
      </trkpt>
      <trkpt lat="45.95336" lon="4.75094">
        <ele>192</ele>
        <time>2018-10-23T08:42:45Z</time>
      </trkpt>
      <trkpt lat="45.95339" lon="4.751">
        <ele>192</ele>
        <time>2018-10-23T08:42:46Z</time>
      </trkpt>
      <trkpt lat="45.95343" lon="4.75105">
        <ele>192</ele>
        <time>2018-10-23T08:42:47Z</time>
      </trkpt>
      <trkpt lat="45.95347" lon="4.7511">
        <ele>192</ele>
        <time>2018-10-23T08:42:48Z</time>
      </trkpt>
      <trkpt lat="45.9535" lon="4.75115">
        <ele>192</ele>
        <time>2018-10-23T08:42:49Z</time>
      </trkpt>
      <trkpt lat="45.95353" lon="4.7512">
        <ele>191</ele>
        <time>2018-10-23T08:42:50Z</time>
      </trkpt>
      <trkpt lat="45.95356" lon="4.75126">
        <ele>191</ele>
        <time>2018-10-23T08:42:51Z</time>
      </trkpt>
      <trkpt lat="45.9536" lon="4.75132">
        <ele>191</ele>
        <time>2018-10-23T08:42:52Z</time>
      </trkpt>
      <trkpt lat="45.95364" lon="4.75138">
        <ele>191</ele>
        <time>2018-10-23T08:42:53Z</time>
      </trkpt>
      <trkpt lat="45.95367" lon="4.75144">
        <ele>191</ele>
        <time>2018-10-23T08:42:54Z</time>
      </trkpt>
      <trkpt lat="45.95371" lon="4.75151">
        <ele>191</ele>
        <time>2018-10-23T08:42:55Z</time>
      </trkpt>
      <trkpt lat="45.95376" lon="4.75157">
        <ele>191</ele>
        <time>2018-10-23T08:42:56Z</time>
      </trkpt>
      <trkpt lat="45.95382" lon="4.75161">
        <ele>191</ele>
        <time>2018-10-23T08:42:57Z</time>
      </trkpt>
      <trkpt lat="45.95384" lon="4.75168">
        <ele>189</ele>
        <time>2018-10-23T08:42:58Z</time>
      </trkpt>
      <trkpt lat="45.95388" lon="4.75176">
        <ele>189</ele>
        <time>2018-10-23T08:42:59Z</time>
      </trkpt>
      <trkpt lat="45.95392" lon="4.75181">
        <ele>189</ele>
        <time>2018-10-23T08:43:00Z</time>
      </trkpt>
      <trkpt lat="45.95396" lon="4.75187">
        <ele>189</ele>
        <time>2018-10-23T08:43:01Z</time>
      </trkpt>
      <trkpt lat="45.954" lon="4.75194">
        <ele>189</ele>
        <time>2018-10-23T08:43:02Z</time>
      </trkpt>
      <trkpt lat="45.95403" lon="4.752">
        <ele>189</ele>
        <time>2018-10-23T08:43:03Z</time>
      </trkpt>
      <trkpt lat="45.95406" lon="4.75207">
        <ele>189</ele>
        <time>2018-10-23T08:43:04Z</time>
      </trkpt>
      <trkpt lat="45.95409" lon="4.75213">
        <ele>189</ele>
        <time>2018-10-23T08:43:05Z</time>
      </trkpt>
      <trkpt lat="45.95412" lon="4.75219">
        <ele>189</ele>
        <time>2018-10-23T08:43:06Z</time>
      </trkpt>
      <trkpt lat="45.95415" lon="4.75225">
        <ele>189</ele>
        <time>2018-10-23T08:43:07Z</time>
      </trkpt>
      <trkpt lat="45.9542" lon="4.75231">
        <ele>190</ele>
        <time>2018-10-23T08:43:08Z</time>
      </trkpt>
      <trkpt lat="45.95422" lon="4.75238">
        <ele>190</ele>
        <time>2018-10-23T08:43:09Z</time>
      </trkpt>
      <trkpt lat="45.95425" lon="4.75246">
        <ele>190</ele>
        <time>2018-10-23T08:43:10Z</time>
      </trkpt>
      <trkpt lat="45.9543" lon="4.75253">
        <ele>189</ele>
        <time>2018-10-23T08:43:11Z</time>
      </trkpt>
      <trkpt lat="45.95431" lon="4.7526">
        <ele>189</ele>
        <time>2018-10-23T08:43:12Z</time>
      </trkpt>
      <trkpt lat="45.95434" lon="4.75267">
        <ele>189</ele>
        <time>2018-10-23T08:43:13Z</time>
      </trkpt>
      <trkpt lat="45.95437" lon="4.75274">
        <ele>189</ele>
        <time>2018-10-23T08:43:14Z</time>
      </trkpt>
      <trkpt lat="45.9544" lon="4.75281">
        <ele>188</ele>
        <time>2018-10-23T08:43:15Z</time>
      </trkpt>
      <trkpt lat="45.95442" lon="4.75288">
        <ele>188</ele>
        <time>2018-10-23T08:43:16Z</time>
      </trkpt>
      <trkpt lat="45.95448" lon="4.75296">
        <ele>188</ele>
        <time>2018-10-23T08:43:17Z</time>
      </trkpt>
      <trkpt lat="45.95451" lon="4.75303">
        <ele>188</ele>
        <time>2018-10-23T08:43:18Z</time>
      </trkpt>
      <trkpt lat="45.95457" lon="4.75309">
        <ele>188</ele>
        <time>2018-10-23T08:43:19Z</time>
      </trkpt>
      <trkpt lat="45.95461" lon="4.75316">
        <ele>188</ele>
        <time>2018-10-23T08:43:20Z</time>
      </trkpt>
      <trkpt lat="45.95465" lon="4.75324">
        <ele>188</ele>
        <time>2018-10-23T08:43:21Z</time>
      </trkpt>
      <trkpt lat="45.95469" lon="4.75331">
        <ele>188</ele>
        <time>2018-10-23T08:43:22Z</time>
      </trkpt>
      <trkpt lat="45.95472" lon="4.75338">
        <ele>186</ele>
        <time>2018-10-23T08:43:23Z</time>
      </trkpt>
      <trkpt lat="45.95477" lon="4.75345">
        <ele>186</ele>
        <time>2018-10-23T08:43:24Z</time>
      </trkpt>
      <trkpt lat="45.95481" lon="4.75352">
        <ele>186</ele>
        <time>2018-10-23T08:43:25Z</time>
      </trkpt>
      <trkpt lat="45.95486" lon="4.75359">
        <ele>186</ele>
        <time>2018-10-23T08:43:26Z</time>
      </trkpt>
      <trkpt lat="45.95491" lon="4.75366">
        <ele>186</ele>
        <time>2018-10-23T08:43:27Z</time>
      </trkpt>
      <trkpt lat="45.95494" lon="4.75373">
        <ele>185</ele>
        <time>2018-10-23T08:43:28Z</time>
      </trkpt>
      <trkpt lat="45.95499" lon="4.7538">
        <ele>185</ele>
        <time>2018-10-23T08:43:29Z</time>
      </trkpt>
      <trkpt lat="45.95501" lon="4.75388">
        <ele>188</ele>
        <time>2018-10-23T08:43:30Z</time>
      </trkpt>
      <trkpt lat="45.95504" lon="4.75396">
        <ele>188</ele>
        <time>2018-10-23T08:43:31Z</time>
      </trkpt>
      <trkpt lat="45.95506" lon="4.75403">
        <ele>187</ele>
        <time>2018-10-23T08:43:32Z</time>
      </trkpt>
      <trkpt lat="45.95508" lon="4.75411">
        <ele>187</ele>
        <time>2018-10-23T08:43:33Z</time>
      </trkpt>
      <trkpt lat="45.9551" lon="4.75419">
        <ele>186</ele>
        <time>2018-10-23T08:43:34Z</time>
      </trkpt>
      <trkpt lat="45.95512" lon="4.75426">
        <ele>186</ele>
        <time>2018-10-23T08:43:35Z</time>
      </trkpt>
      <trkpt lat="45.95514" lon="4.75434">
        <ele>186</ele>
        <time>2018-10-23T08:43:36Z</time>
      </trkpt>
      <trkpt lat="45.95514" lon="4.75441">
        <ele>187</ele>
        <time>2018-10-23T08:43:37Z</time>
      </trkpt>
      <trkpt lat="45.95514" lon="4.75448">
        <ele>187</ele>
        <time>2018-10-23T08:43:38Z</time>
      </trkpt>
      <trkpt lat="45.95513" lon="4.75456">
        <ele>187</ele>
        <time>2018-10-23T08:43:39Z</time>
      </trkpt>
      <trkpt lat="45.95511" lon="4.75462">
        <ele>186</ele>
        <time>2018-10-23T08:43:40Z</time>
      </trkpt>
      <trkpt lat="45.9551" lon="4.7547">
        <ele>186</ele>
        <time>2018-10-23T08:43:41Z</time>
      </trkpt>
      <trkpt lat="45.9551" lon="4.75477">
        <ele>186</ele>
        <time>2018-10-23T08:43:42Z</time>
      </trkpt>
      <trkpt lat="45.95513" lon="4.75484">
        <ele>186</ele>
        <time>2018-10-23T08:43:43Z</time>
      </trkpt>
      <trkpt lat="45.95516" lon="4.7549">
        <ele>186</ele>
        <time>2018-10-23T08:43:44Z</time>
      </trkpt>
      <trkpt lat="45.9552" lon="4.75495">
        <ele>186</ele>
        <time>2018-10-23T08:43:45Z</time>
      </trkpt>
      <trkpt lat="45.95524" lon="4.755">
        <ele>186</ele>
        <time>2018-10-23T08:43:46Z</time>
      </trkpt>
      <trkpt lat="45.95528" lon="4.75502">
        <ele>185</ele>
        <time>2018-10-23T08:43:47Z</time>
      </trkpt>
      <trkpt lat="45.95533" lon="4.75506">
        <ele>186</ele>
        <time>2018-10-23T08:43:48Z</time>
      </trkpt>
      <trkpt lat="45.95537" lon="4.7551">
        <ele>186</ele>
        <time>2018-10-23T08:43:49Z</time>
      </trkpt>
      <trkpt lat="45.95542" lon="4.75515">
        <ele>186</ele>
        <time>2018-10-23T08:43:50Z</time>
      </trkpt>
      <trkpt lat="45.95546" lon="4.75519">
        <ele>186</ele>
        <time>2018-10-23T08:43:51Z</time>
      </trkpt>
      <trkpt lat="45.95551" lon="4.75524">
        <ele>186</ele>
        <time>2018-10-23T08:43:52Z</time>
      </trkpt>
      <trkpt lat="45.95556" lon="4.75528">
        <ele>186</ele>
        <time>2018-10-23T08:43:53Z</time>
      </trkpt>
      <trkpt lat="45.95561" lon="4.75532">
        <ele>186</ele>
        <time>2018-10-23T08:43:54Z</time>
      </trkpt>
      <trkpt lat="45.95566" lon="4.75536">
        <ele>186</ele>
        <time>2018-10-23T08:43:55Z</time>
      </trkpt>
      <trkpt lat="45.9557" lon="4.75542">
        <ele>186</ele>
        <time>2018-10-23T08:43:56Z</time>
      </trkpt>
      <trkpt lat="45.95575" lon="4.75547">
        <ele>186</ele>
        <time>2018-10-23T08:43:57Z</time>
      </trkpt>
      <trkpt lat="45.95579" lon="4.75552">
        <ele>186</ele>
        <time>2018-10-23T08:43:58Z</time>
      </trkpt>
      <trkpt lat="45.95583" lon="4.75558">
        <ele>186</ele>
        <time>2018-10-23T08:43:59Z</time>
      </trkpt>
      <trkpt lat="45.95587" lon="4.75563">
        <ele>188</ele>
        <time>2018-10-23T08:44:00Z</time>
      </trkpt>
      <trkpt lat="45.95591" lon="4.75569">
        <ele>188</ele>
        <time>2018-10-23T08:44:01Z</time>
      </trkpt>
      <trkpt lat="45.95594" lon="4.75576">
        <ele>187</ele>
        <time>2018-10-23T08:44:02Z</time>
      </trkpt>
      <trkpt lat="45.95597" lon="4.75583">
        <ele>187</ele>
        <time>2018-10-23T08:44:03Z</time>
      </trkpt>
      <trkpt lat="45.956" lon="4.7559">
        <ele>187</ele>
        <time>2018-10-23T08:44:04Z</time>
      </trkpt>
      <trkpt lat="45.95603" lon="4.75597">
        <ele>187</ele>
        <time>2018-10-23T08:44:05Z</time>
      </trkpt>
      <trkpt lat="45.95606" lon="4.75604">
        <ele>187</ele>
        <time>2018-10-23T08:44:06Z</time>
      </trkpt>
      <trkpt lat="45.95608" lon="4.75611">
        <ele>188</ele>
        <time>2018-10-23T08:44:07Z</time>
      </trkpt>
      <trkpt lat="45.9561" lon="4.75618">
        <ele>188</ele>
        <time>2018-10-23T08:44:08Z</time>
      </trkpt>
      <trkpt lat="45.95612" lon="4.75624">
        <ele>188</ele>
        <time>2018-10-23T08:44:09Z</time>
      </trkpt>
      <trkpt lat="45.95614" lon="4.7563">
        <ele>188</ele>
        <time>2018-10-23T08:44:10Z</time>
      </trkpt>
      <trkpt lat="45.95616" lon="4.75637">
        <ele>188</ele>
        <time>2018-10-23T08:44:11Z</time>
      </trkpt>
      <trkpt lat="45.95617" lon="4.75644">
        <ele>188</ele>
        <time>2018-10-23T08:44:12Z</time>
      </trkpt>
      <trkpt lat="45.95618" lon="4.75652">
        <ele>188</ele>
        <time>2018-10-23T08:44:13Z</time>
      </trkpt>
      <trkpt lat="45.9562" lon="4.75658">
        <ele>188</ele>
        <time>2018-10-23T08:44:14Z</time>
      </trkpt>
      <trkpt lat="45.95621" lon="4.75665">
        <ele>188</ele>
        <time>2018-10-23T08:44:15Z</time>
      </trkpt>
      <trkpt lat="45.95624" lon="4.75673">
        <ele>187</ele>
        <time>2018-10-23T08:44:16Z</time>
      </trkpt>
      <trkpt lat="45.95625" lon="4.7568">
        <ele>187</ele>
        <time>2018-10-23T08:44:17Z</time>
      </trkpt>
      <trkpt lat="45.95626" lon="4.75686">
        <ele>187</ele>
        <time>2018-10-23T08:44:18Z</time>
      </trkpt>
      <trkpt lat="45.95628" lon="4.75692">
        <ele>187</ele>
        <time>2018-10-23T08:44:19Z</time>
      </trkpt>
      <trkpt lat="45.95628" lon="4.75699">
        <ele>187</ele>
        <time>2018-10-23T08:44:20Z</time>
      </trkpt>
      <trkpt lat="45.95629" lon="4.75706">
        <ele>187</ele>
        <time>2018-10-23T08:44:21Z</time>
      </trkpt>
      <trkpt lat="45.95629" lon="4.75713">
        <ele>187</ele>
        <time>2018-10-23T08:44:22Z</time>
      </trkpt>
      <trkpt lat="45.9563" lon="4.75719">
        <ele>187</ele>
        <time>2018-10-23T08:44:23Z</time>
      </trkpt>
      <trkpt lat="45.95631" lon="4.75727">
        <ele>187</ele>
        <time>2018-10-23T08:44:24Z</time>
      </trkpt>
      <trkpt lat="45.95632" lon="4.75734">
        <ele>187</ele>
        <time>2018-10-23T08:44:25Z</time>
      </trkpt>
      <trkpt lat="45.95633" lon="4.75741">
        <ele>187</ele>
        <time>2018-10-23T08:44:26Z</time>
      </trkpt>
      <trkpt lat="45.95635" lon="4.75748">
        <ele>187</ele>
        <time>2018-10-23T08:44:27Z</time>
      </trkpt>
      <trkpt lat="45.95635" lon="4.75756">
        <ele>186</ele>
        <time>2018-10-23T08:44:28Z</time>
      </trkpt>
      <trkpt lat="45.95637" lon="4.75764">
        <ele>186</ele>
        <time>2018-10-23T08:44:29Z</time>
      </trkpt>
      <trkpt lat="45.95639" lon="4.75771">
        <ele>186</ele>
        <time>2018-10-23T08:44:30Z</time>
      </trkpt>
      <trkpt lat="45.9564" lon="4.75779">
        <ele>186</ele>
        <time>2018-10-23T08:44:31Z</time>
      </trkpt>
      <trkpt lat="45.95641" lon="4.75787">
        <ele>185</ele>
        <time>2018-10-23T08:44:32Z</time>
      </trkpt>
      <trkpt lat="45.95642" lon="4.75795">
        <ele>185</ele>
        <time>2018-10-23T08:44:33Z</time>
      </trkpt>
      <trkpt lat="45.95643" lon="4.75802">
        <ele>185</ele>
        <time>2018-10-23T08:44:34Z</time>
      </trkpt>
      <trkpt lat="45.95644" lon="4.7581">
        <ele>185</ele>
        <time>2018-10-23T08:44:35Z</time>
      </trkpt>
      <trkpt lat="45.95646" lon="4.75818">
        <ele>185</ele>
        <time>2018-10-23T08:44:36Z</time>
      </trkpt>
      <trkpt lat="45.95649" lon="4.75825">
        <ele>185</ele>
        <time>2018-10-23T08:44:37Z</time>
      </trkpt>
      <trkpt lat="45.9565" lon="4.75833">
        <ele>185</ele>
        <time>2018-10-23T08:44:38Z</time>
      </trkpt>
      <trkpt lat="45.95651" lon="4.75839">
        <ele>185</ele>
        <time>2018-10-23T08:44:39Z</time>
      </trkpt>
      <trkpt lat="45.95653" lon="4.75846">
        <ele>185</ele>
        <time>2018-10-23T08:44:40Z</time>
      </trkpt>
      <trkpt lat="45.95655" lon="4.75853">
        <ele>184</ele>
        <time>2018-10-23T08:44:41Z</time>
      </trkpt>
      <trkpt lat="45.95657" lon="4.75859">
        <ele>184</ele>
        <time>2018-10-23T08:44:42Z</time>
      </trkpt>
      <trkpt lat="45.95659" lon="4.75868">
        <ele>184</ele>
        <time>2018-10-23T08:44:43Z</time>
      </trkpt>
      <trkpt lat="45.95662" lon="4.75876">
        <ele>184</ele>
        <time>2018-10-23T08:44:44Z</time>
      </trkpt>
      <trkpt lat="45.95664" lon="4.75883">
        <ele>184</ele>
        <time>2018-10-23T08:44:45Z</time>
      </trkpt>
      <trkpt lat="45.95667" lon="4.75891">
        <ele>186</ele>
        <time>2018-10-23T08:44:46Z</time>
      </trkpt>
      <trkpt lat="45.95669" lon="4.75898">
        <ele>185</ele>
        <time>2018-10-23T08:44:47Z</time>
      </trkpt>
      <trkpt lat="45.95672" lon="4.75906">
        <ele>185</ele>
        <time>2018-10-23T08:44:48Z</time>
      </trkpt>
      <trkpt lat="45.95675" lon="4.75914">
        <ele>185</ele>
        <time>2018-10-23T08:44:49Z</time>
      </trkpt>
      <trkpt lat="45.95678" lon="4.75922">
        <ele>185</ele>
        <time>2018-10-23T08:44:50Z</time>
      </trkpt>
      <trkpt lat="45.9568" lon="4.7593">
        <ele>185</ele>
        <time>2018-10-23T08:44:51Z</time>
      </trkpt>
      <trkpt lat="45.95684" lon="4.75937">
        <ele>185</ele>
        <time>2018-10-23T08:44:52Z</time>
      </trkpt>
      <trkpt lat="45.95687" lon="4.75944">
        <ele>185</ele>
        <time>2018-10-23T08:44:53Z</time>
      </trkpt>
      <trkpt lat="45.9569" lon="4.7595">
        <ele>185</ele>
        <time>2018-10-23T08:44:54Z</time>
      </trkpt>
      <trkpt lat="45.95693" lon="4.75956">
        <ele>185</ele>
        <time>2018-10-23T08:44:55Z</time>
      </trkpt>
      <trkpt lat="45.95697" lon="4.75963">
        <ele>185</ele>
        <time>2018-10-23T08:44:56Z</time>
      </trkpt>
      <trkpt lat="45.957" lon="4.75969">
        <ele>185</ele>
        <time>2018-10-23T08:44:57Z</time>
      </trkpt>
      <trkpt lat="45.95704" lon="4.75976">
        <ele>185</ele>
        <time>2018-10-23T08:44:58Z</time>
      </trkpt>
      <trkpt lat="45.95706" lon="4.75982">
        <ele>185</ele>
        <time>2018-10-23T08:44:59Z</time>
      </trkpt>
      <trkpt lat="45.95709" lon="4.75988">
        <ele>185</ele>
        <time>2018-10-23T08:45:00Z</time>
      </trkpt>
      <trkpt lat="45.95712" lon="4.75995">
        <ele>185</ele>
        <time>2018-10-23T08:45:01Z</time>
      </trkpt>
      <trkpt lat="45.95715" lon="4.76001">
        <ele>184</ele>
        <time>2018-10-23T08:45:02Z</time>
      </trkpt>
      <trkpt lat="45.95718" lon="4.76007">
        <ele>184</ele>
        <time>2018-10-23T08:45:03Z</time>
      </trkpt>
      <trkpt lat="45.9572" lon="4.76014">
        <ele>184</ele>
        <time>2018-10-23T08:45:04Z</time>
      </trkpt>
      <trkpt lat="45.95725" lon="4.76018">
        <ele>185</ele>
        <time>2018-10-23T08:45:05Z</time>
      </trkpt>
      <trkpt lat="45.95727" lon="4.76025">
        <ele>185</ele>
        <time>2018-10-23T08:45:06Z</time>
      </trkpt>
      <trkpt lat="45.95731" lon="4.76031">
        <ele>184</ele>
        <time>2018-10-23T08:45:07Z</time>
      </trkpt>
      <trkpt lat="45.95734" lon="4.76037">
        <ele>184</ele>
        <time>2018-10-23T08:45:08Z</time>
      </trkpt>
      <trkpt lat="45.95737" lon="4.76043">
        <ele>184</ele>
        <time>2018-10-23T08:45:09Z</time>
      </trkpt>
      <trkpt lat="45.9574" lon="4.76049">
        <ele>184</ele>
        <time>2018-10-23T08:45:10Z</time>
      </trkpt>
      <trkpt lat="45.95743" lon="4.76055">
        <ele>184</ele>
        <time>2018-10-23T08:45:11Z</time>
      </trkpt>
      <trkpt lat="45.95747" lon="4.76061">
        <ele>185</ele>
        <time>2018-10-23T08:45:12Z</time>
      </trkpt>
      <trkpt lat="45.95749" lon="4.76068">
        <ele>185</ele>
        <time>2018-10-23T08:45:13Z</time>
      </trkpt>
      <trkpt lat="45.9575" lon="4.76075">
        <ele>186</ele>
        <time>2018-10-23T08:45:14Z</time>
      </trkpt>
      <trkpt lat="45.95752" lon="4.76082">
        <ele>185</ele>
        <time>2018-10-23T08:45:15Z</time>
      </trkpt>
      <trkpt lat="45.95754" lon="4.76089">
        <ele>185</ele>
        <time>2018-10-23T08:45:16Z</time>
      </trkpt>
      <trkpt lat="45.95756" lon="4.76096">
        <ele>186</ele>
        <time>2018-10-23T08:45:17Z</time>
      </trkpt>
      <trkpt lat="45.95758" lon="4.76104">
        <ele>186</ele>
        <time>2018-10-23T08:45:18Z</time>
      </trkpt>
      <trkpt lat="45.9576" lon="4.76112">
        <ele>186</ele>
        <time>2018-10-23T08:45:19Z</time>
      </trkpt>
      <trkpt lat="45.95761" lon="4.7612">
        <ele>186</ele>
        <time>2018-10-23T08:45:20Z</time>
      </trkpt>
      <trkpt lat="45.95761" lon="4.76128">
        <ele>186</ele>
        <time>2018-10-23T08:45:21Z</time>
      </trkpt>
      <trkpt lat="45.95762" lon="4.76135">
        <ele>186</ele>
        <time>2018-10-23T08:45:22Z</time>
      </trkpt>
      <trkpt lat="45.95763" lon="4.76143">
        <ele>186</ele>
        <time>2018-10-23T08:45:23Z</time>
      </trkpt>
      <trkpt lat="45.95763" lon="4.76151">
        <ele>186</ele>
        <time>2018-10-23T08:45:24Z</time>
      </trkpt>
      <trkpt lat="45.95764" lon="4.76159">
        <ele>186</ele>
        <time>2018-10-23T08:45:25Z</time>
      </trkpt>
      <trkpt lat="45.95764" lon="4.76166">
        <ele>186</ele>
        <time>2018-10-23T08:45:26Z</time>
      </trkpt>
      <trkpt lat="45.95764" lon="4.76174">
        <ele>185</ele>
        <time>2018-10-23T08:45:27Z</time>
      </trkpt>
      <trkpt lat="45.95764" lon="4.76181">
        <ele>186</ele>
        <time>2018-10-23T08:45:28Z</time>
      </trkpt>
      <trkpt lat="45.95764" lon="4.76189">
        <ele>186</ele>
        <time>2018-10-23T08:45:29Z</time>
      </trkpt>
      <trkpt lat="45.95764" lon="4.76196">
        <ele>186</ele>
        <time>2018-10-23T08:45:30Z</time>
      </trkpt>
      <trkpt lat="45.95765" lon="4.76204">
        <ele>186</ele>
        <time>2018-10-23T08:45:31Z</time>
      </trkpt>
      <trkpt lat="45.95766" lon="4.76212">
        <ele>186</ele>
        <time>2018-10-23T08:45:32Z</time>
      </trkpt>
      <trkpt lat="45.95766" lon="4.76219">
        <ele>186</ele>
        <time>2018-10-23T08:45:33Z</time>
      </trkpt>
      <trkpt lat="45.95767" lon="4.76227">
        <ele>186</ele>
        <time>2018-10-23T08:45:34Z</time>
      </trkpt>
      <trkpt lat="45.95767" lon="4.76233">
        <ele>186</ele>
        <time>2018-10-23T08:45:35Z</time>
      </trkpt>
      <trkpt lat="45.95767" lon="4.76239">
        <ele>186</ele>
        <time>2018-10-23T08:45:36Z</time>
      </trkpt>
      <trkpt lat="45.95767" lon="4.76251">
        <ele>185</ele>
        <time>2018-10-23T08:45:38Z</time>
      </trkpt>
      <trkpt lat="45.95767" lon="4.76258">
        <ele>185</ele>
        <time>2018-10-23T08:45:39Z</time>
      </trkpt>
      <trkpt lat="45.95767" lon="4.76265">
        <ele>185</ele>
        <time>2018-10-23T08:45:40Z</time>
      </trkpt>
      <trkpt lat="45.95767" lon="4.76272">
        <ele>186</ele>
        <time>2018-10-23T08:45:41Z</time>
      </trkpt>
      <trkpt lat="45.95768" lon="4.76284">
        <ele>186</ele>
        <time>2018-10-23T08:45:43Z</time>
      </trkpt>
      <trkpt lat="45.95769" lon="4.76291">
        <ele>186</ele>
        <time>2018-10-23T08:45:44Z</time>
      </trkpt>
      <trkpt lat="45.95769" lon="4.76299">
        <ele>186</ele>
        <time>2018-10-23T08:45:45Z</time>
      </trkpt>
      <trkpt lat="45.9577" lon="4.76306">
        <ele>186</ele>
        <time>2018-10-23T08:45:46Z</time>
      </trkpt>
      <trkpt lat="45.9577" lon="4.76313">
        <ele>185</ele>
        <time>2018-10-23T08:45:47Z</time>
      </trkpt>
      <trkpt lat="45.9577" lon="4.76321">
        <ele>185</ele>
        <time>2018-10-23T08:45:48Z</time>
      </trkpt>
      <trkpt lat="45.95771" lon="4.76329">
        <ele>185</ele>
        <time>2018-10-23T08:45:49Z</time>
      </trkpt>
      <trkpt lat="45.95772" lon="4.76336">
        <ele>186</ele>
        <time>2018-10-23T08:45:50Z</time>
      </trkpt>
      <trkpt lat="45.95772" lon="4.76344">
        <ele>186</ele>
        <time>2018-10-23T08:45:51Z</time>
      </trkpt>
      <trkpt lat="45.95773" lon="4.76351">
        <ele>186</ele>
        <time>2018-10-23T08:45:52Z</time>
      </trkpt>
      <trkpt lat="45.95774" lon="4.76358">
        <ele>186</ele>
        <time>2018-10-23T08:45:53Z</time>
      </trkpt>
      <trkpt lat="45.95774" lon="4.76364">
        <ele>186</ele>
        <time>2018-10-23T08:45:54Z</time>
      </trkpt>
      <trkpt lat="45.95774" lon="4.76371">
        <ele>186</ele>
        <time>2018-10-23T08:45:55Z</time>
      </trkpt>
      <trkpt lat="45.95775" lon="4.76378">
        <ele>186</ele>
        <time>2018-10-23T08:45:56Z</time>
      </trkpt>
      <trkpt lat="45.95775" lon="4.76384">
        <ele>186</ele>
        <time>2018-10-23T08:45:57Z</time>
      </trkpt>
      <trkpt lat="45.95776" lon="4.76392">
        <ele>186</ele>
        <time>2018-10-23T08:45:58Z</time>
      </trkpt>
      <trkpt lat="45.95776" lon="4.76399">
        <ele>186</ele>
        <time>2018-10-23T08:45:59Z</time>
      </trkpt>
      <trkpt lat="45.95776" lon="4.76406">
        <ele>186</ele>
        <time>2018-10-23T08:46:00Z</time>
      </trkpt>
      <trkpt lat="45.95777" lon="4.76413">
        <ele>186</ele>
        <time>2018-10-23T08:46:01Z</time>
      </trkpt>
      <trkpt lat="45.95777" lon="4.76419">
        <ele>186</ele>
        <time>2018-10-23T08:46:02Z</time>
      </trkpt>
      <trkpt lat="45.95779" lon="4.76426">
        <ele>186</ele>
        <time>2018-10-23T08:46:03Z</time>
      </trkpt>
      <trkpt lat="45.95779" lon="4.76433">
        <ele>186</ele>
        <time>2018-10-23T08:46:04Z</time>
      </trkpt>
      <trkpt lat="45.95781" lon="4.76445">
        <ele>186</ele>
        <time>2018-10-23T08:46:06Z</time>
      </trkpt>
      <trkpt lat="45.95783" lon="4.76451">
        <ele>186</ele>
        <time>2018-10-23T08:46:07Z</time>
      </trkpt>
      <trkpt lat="45.95783" lon="4.76457">
        <ele>186</ele>
        <time>2018-10-23T08:46:08Z</time>
      </trkpt>
      <trkpt lat="45.95785" lon="4.76465">
        <ele>186</ele>
        <time>2018-10-23T08:46:09Z</time>
      </trkpt>
      <trkpt lat="45.95786" lon="4.76473">
        <ele>186</ele>
        <time>2018-10-23T08:46:10Z</time>
      </trkpt>
      <trkpt lat="45.95787" lon="4.7648">
        <ele>186</ele>
        <time>2018-10-23T08:46:11Z</time>
      </trkpt>
      <trkpt lat="45.95787" lon="4.76487">
        <ele>186</ele>
        <time>2018-10-23T08:46:12Z</time>
      </trkpt>
      <trkpt lat="45.95788" lon="4.76494">
        <ele>186</ele>
        <time>2018-10-23T08:46:13Z</time>
      </trkpt>
      <trkpt lat="45.9579" lon="4.76501">
        <ele>187</ele>
        <time>2018-10-23T08:46:14Z</time>
      </trkpt>
      <trkpt lat="45.9579" lon="4.76509">
        <ele>187</ele>
        <time>2018-10-23T08:46:15Z</time>
      </trkpt>
      <trkpt lat="45.95791" lon="4.76516">
        <ele>187</ele>
        <time>2018-10-23T08:46:16Z</time>
      </trkpt>
      <trkpt lat="45.95793" lon="4.76523">
        <ele>187</ele>
        <time>2018-10-23T08:46:17Z</time>
      </trkpt>
      <trkpt lat="45.95794" lon="4.76532">
        <ele>187</ele>
        <time>2018-10-23T08:46:18Z</time>
      </trkpt>
      <trkpt lat="45.95796" lon="4.76539">
        <ele>187</ele>
        <time>2018-10-23T08:46:19Z</time>
      </trkpt>
      <trkpt lat="45.95797" lon="4.76546">
        <ele>187</ele>
        <time>2018-10-23T08:46:20Z</time>
      </trkpt>
      <trkpt lat="45.95798" lon="4.76554">
        <ele>187</ele>
        <time>2018-10-23T08:46:21Z</time>
      </trkpt>
      <trkpt lat="45.95799" lon="4.76561">
        <ele>187</ele>
        <time>2018-10-23T08:46:22Z</time>
      </trkpt>
      <trkpt lat="45.958" lon="4.76568">
        <ele>187</ele>
        <time>2018-10-23T08:46:23Z</time>
      </trkpt>
      <trkpt lat="45.95801" lon="4.76575">
        <ele>187</ele>
        <time>2018-10-23T08:46:24Z</time>
      </trkpt>
      <trkpt lat="45.95802" lon="4.76583">
        <ele>187</ele>
        <time>2018-10-23T08:46:25Z</time>
      </trkpt>
      <trkpt lat="45.95803" lon="4.7659">
        <ele>187</ele>
        <time>2018-10-23T08:46:26Z</time>
      </trkpt>
      <trkpt lat="45.95804" lon="4.76597">
        <ele>188</ele>
        <time>2018-10-23T08:46:27Z</time>
      </trkpt>
      <trkpt lat="45.95805" lon="4.76604">
        <ele>188</ele>
        <time>2018-10-23T08:46:28Z</time>
      </trkpt>
      <trkpt lat="45.95806" lon="4.76611">
        <ele>188</ele>
        <time>2018-10-23T08:46:29Z</time>
      </trkpt>
      <trkpt lat="45.95807" lon="4.76618">
        <ele>188</ele>
        <time>2018-10-23T08:46:30Z</time>
      </trkpt>
      <trkpt lat="45.95808" lon="4.76624">
        <ele>188</ele>
        <time>2018-10-23T08:46:31Z</time>
      </trkpt>
      <trkpt lat="45.95809" lon="4.76631">
        <ele>188</ele>
        <time>2018-10-23T08:46:32Z</time>
      </trkpt>
      <trkpt lat="45.95809" lon="4.76638">
        <ele>188</ele>
        <time>2018-10-23T08:46:33Z</time>
      </trkpt>
      <trkpt lat="45.9581" lon="4.76644">
        <ele>188</ele>
        <time>2018-10-23T08:46:34Z</time>
      </trkpt>
      <trkpt lat="45.9581" lon="4.76651">
        <ele>188</ele>
        <time>2018-10-23T08:46:35Z</time>
      </trkpt>
      <trkpt lat="45.95811" lon="4.76657">
        <ele>188</ele>
        <time>2018-10-23T08:46:36Z</time>
      </trkpt>
      <trkpt lat="45.95811" lon="4.76665">
        <ele>188</ele>
        <time>2018-10-23T08:46:37Z</time>
      </trkpt>
      <trkpt lat="45.95813" lon="4.76674">
        <ele>189</ele>
        <time>2018-10-23T08:46:38Z</time>
      </trkpt>
      <trkpt lat="45.95814" lon="4.76679">
        <ele>189</ele>
        <time>2018-10-23T08:46:39Z</time>
      </trkpt>
      <trkpt lat="45.95814" lon="4.76686">
        <ele>189</ele>
        <time>2018-10-23T08:46:40Z</time>
      </trkpt>
      <trkpt lat="45.95816" lon="4.76693">
        <ele>189</ele>
        <time>2018-10-23T08:46:41Z</time>
      </trkpt>
      <trkpt lat="45.95817" lon="4.767">
        <ele>189</ele>
        <time>2018-10-23T08:46:42Z</time>
      </trkpt>
      <trkpt lat="45.95818" lon="4.76706">
        <ele>189</ele>
        <time>2018-10-23T08:46:43Z</time>
      </trkpt>
      <trkpt lat="45.95819" lon="4.76714">
        <ele>189</ele>
        <time>2018-10-23T08:46:44Z</time>
      </trkpt>
      <trkpt lat="45.95821" lon="4.7672">
        <ele>189</ele>
        <time>2018-10-23T08:46:45Z</time>
      </trkpt>
      <trkpt lat="45.95822" lon="4.76728">
        <ele>190</ele>
        <time>2018-10-23T08:46:46Z</time>
      </trkpt>
      <trkpt lat="45.95822" lon="4.76734">
        <ele>190</ele>
        <time>2018-10-23T08:46:47Z</time>
      </trkpt>
      <trkpt lat="45.95825" lon="4.7674">
        <ele>190</ele>
        <time>2018-10-23T08:46:48Z</time>
      </trkpt>
      <trkpt lat="45.95827" lon="4.76746">
        <ele>190</ele>
        <time>2018-10-23T08:46:49Z</time>
      </trkpt>
      <trkpt lat="45.95829" lon="4.76758">
        <ele>191</ele>
        <time>2018-10-23T08:46:51Z</time>
      </trkpt>
      <trkpt lat="45.9583" lon="4.76763">
        <ele>190</ele>
        <time>2018-10-23T08:46:52Z</time>
      </trkpt>
      <trkpt lat="45.95833" lon="4.76771">
        <ele>190</ele>
        <time>2018-10-23T08:46:53Z</time>
      </trkpt>
      <trkpt lat="45.95834" lon="4.76778">
        <ele>191</ele>
        <time>2018-10-23T08:46:54Z</time>
      </trkpt>
      <trkpt lat="45.95836" lon="4.76783">
        <ele>191</ele>
        <time>2018-10-23T08:46:55Z</time>
      </trkpt>
      <trkpt lat="45.95837" lon="4.7679">
        <ele>191</ele>
        <time>2018-10-23T08:46:56Z</time>
      </trkpt>
      <trkpt lat="45.95837" lon="4.76797">
        <ele>191</ele>
        <time>2018-10-23T08:46:57Z</time>
      </trkpt>
      <trkpt lat="45.95836" lon="4.76805">
        <ele>191</ele>
        <time>2018-10-23T08:46:58Z</time>
      </trkpt>
      <trkpt lat="45.95835" lon="4.76811">
        <ele>190</ele>
        <time>2018-10-23T08:46:59Z</time>
      </trkpt>
      <trkpt lat="45.95835" lon="4.76819">
        <ele>190</ele>
        <time>2018-10-23T08:47:00Z</time>
      </trkpt>
      <trkpt lat="45.95833" lon="4.76827">
        <ele>190</ele>
        <time>2018-10-23T08:47:01Z</time>
      </trkpt>
      <trkpt lat="45.95831" lon="4.76834">
        <ele>190</ele>
        <time>2018-10-23T08:47:02Z</time>
      </trkpt>
      <trkpt lat="45.95829" lon="4.76842">
        <ele>190</ele>
        <time>2018-10-23T08:47:03Z</time>
      </trkpt>
      <trkpt lat="45.95827" lon="4.7685">
        <ele>190</ele>
        <time>2018-10-23T08:47:04Z</time>
      </trkpt>
      <trkpt lat="45.95826" lon="4.76857">
        <ele>189</ele>
        <time>2018-10-23T08:47:05Z</time>
      </trkpt>
      <trkpt lat="45.95824" lon="4.76864">
        <ele>189</ele>
        <time>2018-10-23T08:47:06Z</time>
      </trkpt>
      <trkpt lat="45.95823" lon="4.76871">
        <ele>189</ele>
        <time>2018-10-23T08:47:07Z</time>
      </trkpt>
      <trkpt lat="45.95822" lon="4.76877">
        <ele>189</ele>
        <time>2018-10-23T08:47:08Z</time>
      </trkpt>
      <trkpt lat="45.9582" lon="4.76886">
        <ele>189</ele>
        <time>2018-10-23T08:47:09Z</time>
      </trkpt>
      <trkpt lat="45.95818" lon="4.76893">
        <ele>189</ele>
        <time>2018-10-23T08:47:10Z</time>
      </trkpt>
      <trkpt lat="45.95815" lon="4.76899">
        <ele>189</ele>
        <time>2018-10-23T08:47:11Z</time>
      </trkpt>
      <trkpt lat="45.95814" lon="4.76907">
        <ele>189</ele>
        <time>2018-10-23T08:47:12Z</time>
      </trkpt>
      <trkpt lat="45.95812" lon="4.76914">
        <ele>189</ele>
        <time>2018-10-23T08:47:13Z</time>
      </trkpt>
      <trkpt lat="45.9581" lon="4.76924">
        <ele>189</ele>
        <time>2018-10-23T08:47:14Z</time>
      </trkpt>
      <trkpt lat="45.95809" lon="4.76932">
        <ele>189</ele>
        <time>2018-10-23T08:47:15Z</time>
      </trkpt>
      <trkpt lat="45.95807" lon="4.76939">
        <ele>189</ele>
        <time>2018-10-23T08:47:16Z</time>
      </trkpt>
      <trkpt lat="45.95806" lon="4.76946">
        <ele>189</ele>
        <time>2018-10-23T08:47:17Z</time>
      </trkpt>
      <trkpt lat="45.95805" lon="4.76953">
        <ele>189</ele>
        <time>2018-10-23T08:47:18Z</time>
      </trkpt>
      <trkpt lat="45.95804" lon="4.7696">
        <ele>189</ele>
        <time>2018-10-23T08:47:19Z</time>
      </trkpt>
      <trkpt lat="45.95803" lon="4.76968">
        <ele>189</ele>
        <time>2018-10-23T08:47:20Z</time>
      </trkpt>
      <trkpt lat="45.95802" lon="4.76975">
        <ele>189</ele>
        <time>2018-10-23T08:47:21Z</time>
      </trkpt>
      <trkpt lat="45.95801" lon="4.76982">
        <ele>189</ele>
        <time>2018-10-23T08:47:22Z</time>
      </trkpt>
      <trkpt lat="45.95801" lon="4.76989">
        <ele>189</ele>
        <time>2018-10-23T08:47:23Z</time>
      </trkpt>
      <trkpt lat="45.95801" lon="4.76997">
        <ele>189</ele>
        <time>2018-10-23T08:47:24Z</time>
      </trkpt>
      <trkpt lat="45.95802" lon="4.77004">
        <ele>190</ele>
        <time>2018-10-23T08:47:25Z</time>
      </trkpt>
      <trkpt lat="45.95803" lon="4.77011">
        <ele>190</ele>
        <time>2018-10-23T08:47:26Z</time>
      </trkpt>
      <trkpt lat="45.95804" lon="4.77018">
        <ele>190</ele>
        <time>2018-10-23T08:47:27Z</time>
      </trkpt>
      <trkpt lat="45.95805" lon="4.77024">
        <ele>190</ele>
        <time>2018-10-23T08:47:28Z</time>
      </trkpt>
      <trkpt lat="45.95808" lon="4.77031">
        <ele>190</ele>
        <time>2018-10-23T08:47:29Z</time>
      </trkpt>
      <trkpt lat="45.95811" lon="4.77037">
        <ele>190</ele>
        <time>2018-10-23T08:47:30Z</time>
      </trkpt>
      <trkpt lat="45.95815" lon="4.77043">
        <ele>190</ele>
        <time>2018-10-23T08:47:31Z</time>
      </trkpt>
      <trkpt lat="45.95818" lon="4.7705">
        <ele>190</ele>
        <time>2018-10-23T08:47:32Z</time>
      </trkpt>
      <trkpt lat="45.95821" lon="4.77057">
        <ele>190</ele>
        <time>2018-10-23T08:47:33Z</time>
      </trkpt>
      <trkpt lat="45.95825" lon="4.77063">
        <ele>191</ele>
        <time>2018-10-23T08:47:34Z</time>
      </trkpt>
      <trkpt lat="45.95829" lon="4.77074">
        <ele>191</ele>
        <time>2018-10-23T08:47:36Z</time>
      </trkpt>
      <trkpt lat="45.95831" lon="4.77081">
        <ele>192</ele>
        <time>2018-10-23T08:47:37Z</time>
      </trkpt>
      <trkpt lat="45.95834" lon="4.77087">
        <ele>192</ele>
        <time>2018-10-23T08:47:38Z</time>
      </trkpt>
      <trkpt lat="45.95836" lon="4.77095">
        <ele>193</ele>
        <time>2018-10-23T08:47:39Z</time>
      </trkpt>
      <trkpt lat="45.95841" lon="4.77106">
        <ele>193</ele>
        <time>2018-10-23T08:47:41Z</time>
      </trkpt>
      <trkpt lat="45.95843" lon="4.77112">
        <ele>193</ele>
        <time>2018-10-23T08:47:42Z</time>
      </trkpt>
      <trkpt lat="45.95848" lon="4.77121">
        <ele>193</ele>
        <time>2018-10-23T08:47:44Z</time>
      </trkpt>
      <trkpt lat="45.9585" lon="4.77129">
        <ele>193</ele>
        <time>2018-10-23T08:47:45Z</time>
      </trkpt>
      <trkpt lat="45.95851" lon="4.77135">
        <ele>193</ele>
        <time>2018-10-23T08:47:46Z</time>
      </trkpt>
      <trkpt lat="45.95853" lon="4.77143">
        <ele>193</ele>
        <time>2018-10-23T08:47:47Z</time>
      </trkpt>
      <trkpt lat="45.95854" lon="4.77149">
        <ele>193</ele>
        <time>2018-10-23T08:47:48Z</time>
      </trkpt>
      <trkpt lat="45.95858" lon="4.77155">
        <ele>193</ele>
        <time>2018-10-23T08:47:49Z</time>
      </trkpt>
      <trkpt lat="45.95861" lon="4.77161">
        <ele>193</ele>
        <time>2018-10-23T08:47:50Z</time>
      </trkpt>
      <trkpt lat="45.95862" lon="4.77168">
        <ele>192</ele>
        <time>2018-10-23T08:47:51Z</time>
      </trkpt>
      <trkpt lat="45.95866" lon="4.7718">
        <ele>193</ele>
        <time>2018-10-23T08:47:53Z</time>
      </trkpt>
      <trkpt lat="45.95869" lon="4.77186">
        <ele>193</ele>
        <time>2018-10-23T08:47:54Z</time>
      </trkpt>
      <trkpt lat="45.9587" lon="4.77193">
        <ele>193</ele>
        <time>2018-10-23T08:47:55Z</time>
      </trkpt>
      <trkpt lat="45.95871" lon="4.77199">
        <ele>193</ele>
        <time>2018-10-23T08:47:56Z</time>
      </trkpt>
      <trkpt lat="45.95873" lon="4.77207">
        <ele>193</ele>
        <time>2018-10-23T08:47:57Z</time>
      </trkpt>
      <trkpt lat="45.95874" lon="4.77214">
        <ele>193</ele>
        <time>2018-10-23T08:47:58Z</time>
      </trkpt>
      <trkpt lat="45.95876" lon="4.77221">
        <ele>193</ele>
        <time>2018-10-23T08:47:59Z</time>
      </trkpt>
      <trkpt lat="45.95877" lon="4.77228">
        <ele>193</ele>
        <time>2018-10-23T08:48:00Z</time>
      </trkpt>
      <trkpt lat="45.95879" lon="4.77235">
        <ele>193</ele>
        <time>2018-10-23T08:48:01Z</time>
      </trkpt>
      <trkpt lat="45.95879" lon="4.77243">
        <ele>193</ele>
        <time>2018-10-23T08:48:02Z</time>
      </trkpt>
      <trkpt lat="45.9588" lon="4.7725">
        <ele>193</ele>
        <time>2018-10-23T08:48:03Z</time>
      </trkpt>
      <trkpt lat="45.95881" lon="4.77258">
        <ele>193</ele>
        <time>2018-10-23T08:48:04Z</time>
      </trkpt>
      <trkpt lat="45.95882" lon="4.77264">
        <ele>193</ele>
        <time>2018-10-23T08:48:05Z</time>
      </trkpt>
      <trkpt lat="45.95884" lon="4.77271">
        <ele>193</ele>
        <time>2018-10-23T08:48:06Z</time>
      </trkpt>
      <trkpt lat="45.95886" lon="4.77276">
        <ele>193</ele>
        <time>2018-10-23T08:48:07Z</time>
      </trkpt>
      <trkpt lat="45.95887" lon="4.77283">
        <ele>193</ele>
        <time>2018-10-23T08:48:08Z</time>
      </trkpt>
      <trkpt lat="45.95888" lon="4.77289">
        <ele>193</ele>
        <time>2018-10-23T08:48:09Z</time>
      </trkpt>
      <trkpt lat="45.95889" lon="4.77296">
        <ele>193</ele>
        <time>2018-10-23T08:48:10Z</time>
      </trkpt>
      <trkpt lat="45.95891" lon="4.77303">
        <ele>193</ele>
        <time>2018-10-23T08:48:11Z</time>
      </trkpt>
      <trkpt lat="45.95892" lon="4.77309">
        <ele>193</ele>
        <time>2018-10-23T08:48:12Z</time>
      </trkpt>
      <trkpt lat="45.95894" lon="4.77315">
        <ele>193</ele>
        <time>2018-10-23T08:48:13Z</time>
      </trkpt>
      <trkpt lat="45.95897" lon="4.77321">
        <ele>193</ele>
        <time>2018-10-23T08:48:14Z</time>
      </trkpt>
      <trkpt lat="45.95898" lon="4.77327">
        <ele>194</ele>
        <time>2018-10-23T08:48:15Z</time>
      </trkpt>
      <trkpt lat="45.95901" lon="4.77333">
        <ele>193</ele>
        <time>2018-10-23T08:48:16Z</time>
      </trkpt>
      <trkpt lat="45.95904" lon="4.77339">
        <ele>194</ele>
        <time>2018-10-23T08:48:17Z</time>
      </trkpt>
      <trkpt lat="45.95906" lon="4.77345">
        <ele>193</ele>
        <time>2018-10-23T08:48:18Z</time>
      </trkpt>
      <trkpt lat="45.95909" lon="4.77349">
        <ele>193</ele>
        <time>2018-10-23T08:48:19Z</time>
      </trkpt>
      <trkpt lat="45.95912" lon="4.77355">
        <ele>193</ele>
        <time>2018-10-23T08:48:20Z</time>
      </trkpt>
      <trkpt lat="45.95916" lon="4.77362">
        <ele>193</ele>
        <time>2018-10-23T08:48:21Z</time>
      </trkpt>
      <trkpt lat="45.95916" lon="4.77368">
        <ele>193</ele>
        <time>2018-10-23T08:48:22Z</time>
      </trkpt>
      <trkpt lat="45.95918" lon="4.77375">
        <ele>196</ele>
        <time>2018-10-23T08:48:23Z</time>
      </trkpt>
      <trkpt lat="45.9592" lon="4.77381">
        <ele>196</ele>
        <time>2018-10-23T08:48:24Z</time>
      </trkpt>
      <trkpt lat="45.95921" lon="4.77388">
        <ele>196</ele>
        <time>2018-10-23T08:48:25Z</time>
      </trkpt>
      <trkpt lat="45.95924" lon="4.77395">
        <ele>196</ele>
        <time>2018-10-23T08:48:26Z</time>
      </trkpt>
      <trkpt lat="45.95925" lon="4.77402">
        <ele>196</ele>
        <time>2018-10-23T08:48:27Z</time>
      </trkpt>
      <trkpt lat="45.95927" lon="4.77408">
        <ele>195</ele>
        <time>2018-10-23T08:48:28Z</time>
      </trkpt>
      <trkpt lat="45.95929" lon="4.77414">
        <ele>195</ele>
        <time>2018-10-23T08:48:29Z</time>
      </trkpt>
      <trkpt lat="45.9593" lon="4.7742">
        <ele>195</ele>
        <time>2018-10-23T08:48:30Z</time>
      </trkpt>
      <trkpt lat="45.95933" lon="4.77432">
        <ele>195</ele>
        <time>2018-10-23T08:48:32Z</time>
      </trkpt>
      <trkpt lat="45.95935" lon="4.77437">
        <ele>195</ele>
        <time>2018-10-23T08:48:33Z</time>
      </trkpt>
      <trkpt lat="45.95937" lon="4.77443">
        <ele>195</ele>
        <time>2018-10-23T08:48:34Z</time>
      </trkpt>
      <trkpt lat="45.95938" lon="4.77449">
        <ele>196</ele>
        <time>2018-10-23T08:48:35Z</time>
      </trkpt>
      <trkpt lat="45.95943" lon="4.7746">
        <ele>196</ele>
        <time>2018-10-23T08:48:37Z</time>
      </trkpt>
      <trkpt lat="45.95945" lon="4.77466">
        <ele>196</ele>
        <time>2018-10-23T08:48:38Z</time>
      </trkpt>
      <trkpt lat="45.95949" lon="4.77477">
        <ele>196</ele>
        <time>2018-10-23T08:48:40Z</time>
      </trkpt>
      <trkpt lat="45.95951" lon="4.77482">
        <ele>196</ele>
        <time>2018-10-23T08:48:41Z</time>
      </trkpt>
      <trkpt lat="45.95955" lon="4.77492">
        <ele>196</ele>
        <time>2018-10-23T08:48:43Z</time>
      </trkpt>
      <trkpt lat="45.95957" lon="4.77499">
        <ele>196</ele>
        <time>2018-10-23T08:48:44Z</time>
      </trkpt>
      <trkpt lat="45.95961" lon="4.77509">
        <ele>195</ele>
        <time>2018-10-23T08:48:46Z</time>
      </trkpt>
      <trkpt lat="45.95963" lon="4.77514">
        <ele>195</ele>
        <time>2018-10-23T08:48:47Z</time>
      </trkpt>
      <trkpt lat="45.95967" lon="4.77524">
        <ele>195</ele>
        <time>2018-10-23T08:48:49Z</time>
      </trkpt>
      <trkpt lat="45.95969" lon="4.77528">
        <ele>195</ele>
        <time>2018-10-23T08:48:50Z</time>
      </trkpt>
      <trkpt lat="45.95973" lon="4.77535">
        <ele>196</ele>
        <time>2018-10-23T08:48:52Z</time>
      </trkpt>
      <trkpt lat="45.95975" lon="4.7754">
        <ele>196</ele>
        <time>2018-10-23T08:48:53Z</time>
      </trkpt>
      <trkpt lat="45.9598" lon="4.77549">
        <ele>196</ele>
        <time>2018-10-23T08:48:55Z</time>
      </trkpt>
      <trkpt lat="45.95982" lon="4.77554">
        <ele>196</ele>
        <time>2018-10-23T08:48:56Z</time>
      </trkpt>
      <trkpt lat="45.95986" lon="4.77564">
        <ele>196</ele>
        <time>2018-10-23T08:48:58Z</time>
      </trkpt>
      <trkpt lat="45.95987" lon="4.77571">
        <ele>196</ele>
        <time>2018-10-23T08:48:59Z</time>
      </trkpt>
      <trkpt lat="45.95989" lon="4.77577">
        <ele>196</ele>
        <time>2018-10-23T08:49:00Z</time>
      </trkpt>
      <trkpt lat="45.95992" lon="4.77584">
        <ele>196</ele>
        <time>2018-10-23T08:49:01Z</time>
      </trkpt>
      <trkpt lat="45.95994" lon="4.77589">
        <ele>196</ele>
        <time>2018-10-23T08:49:02Z</time>
      </trkpt>
      <trkpt lat="45.95997" lon="4.77594">
        <ele>196</ele>
        <time>2018-10-23T08:49:03Z</time>
      </trkpt>
      <trkpt lat="45.96" lon="4.77599">
        <ele>198</ele>
        <time>2018-10-23T08:49:04Z</time>
      </trkpt>
      <trkpt lat="45.96004" lon="4.77602">
        <ele>198</ele>
        <time>2018-10-23T08:49:05Z</time>
      </trkpt>
      <trkpt lat="45.9601" lon="4.77609">
        <ele>199</ele>
        <time>2018-10-23T08:49:07Z</time>
      </trkpt>
      <trkpt lat="45.96014" lon="4.77611">
        <ele>199</ele>
        <time>2018-10-23T08:49:08Z</time>
      </trkpt>
      <trkpt lat="45.9602" lon="4.7762">
        <ele>199</ele>
        <time>2018-10-23T08:49:10Z</time>
      </trkpt>
      <trkpt lat="45.96023" lon="4.77624">
        <ele>199</ele>
        <time>2018-10-23T08:49:11Z</time>
      </trkpt>
      <trkpt lat="45.96029" lon="4.77631">
        <ele>199</ele>
        <time>2018-10-23T08:49:13Z</time>
      </trkpt>
      <trkpt lat="45.9603" lon="4.77633">
        <ele>199</ele>
        <time>2018-10-23T08:49:14Z</time>
      </trkpt>
      <trkpt lat="45.96036" lon="4.77639">
        <ele>199</ele>
        <time>2018-10-23T08:49:16Z</time>
      </trkpt>
      <trkpt lat="45.96038" lon="4.77642">
        <ele>199</ele>
        <time>2018-10-23T08:49:17Z</time>
      </trkpt>
      <trkpt lat="45.96042" lon="4.77648">
        <ele>199</ele>
        <time>2018-10-23T08:49:18Z</time>
      </trkpt>
      <trkpt lat="45.96045" lon="4.77651">
        <ele>199</ele>
        <time>2018-10-23T08:49:19Z</time>
      </trkpt>
      <trkpt lat="45.96051" lon="4.77659">
        <ele>200</ele>
        <time>2018-10-23T08:49:21Z</time>
      </trkpt>
      <trkpt lat="45.96054" lon="4.77663">
        <ele>200</ele>
        <time>2018-10-23T08:49:22Z</time>
      </trkpt>
      <trkpt lat="45.96058" lon="4.77668">
        <ele>198</ele>
        <time>2018-10-23T08:49:24Z</time>
      </trkpt>
      <trkpt lat="45.96063" lon="4.77674">
        <ele>198</ele>
        <time>2018-10-23T08:49:25Z</time>
      </trkpt>
      <trkpt lat="45.96068" lon="4.77681">
        <ele>198</ele>
        <time>2018-10-23T08:49:27Z</time>
      </trkpt>
      <trkpt lat="45.96071" lon="4.77685">
        <ele>198</ele>
        <time>2018-10-23T08:49:28Z</time>
      </trkpt>
      <trkpt lat="45.96076" lon="4.77694">
        <ele>197</ele>
        <time>2018-10-23T08:49:30Z</time>
      </trkpt>
      <trkpt lat="45.96079" lon="4.77698">
        <ele>197</ele>
        <time>2018-10-23T08:49:31Z</time>
      </trkpt>
      <trkpt lat="45.96084" lon="4.77707">
        <ele>200</ele>
        <time>2018-10-23T08:49:33Z</time>
      </trkpt>
      <trkpt lat="45.96086" lon="4.77712">
        <ele>200</ele>
        <time>2018-10-23T08:49:34Z</time>
      </trkpt>
      <trkpt lat="45.96092" lon="4.7772">
        <ele>199</ele>
        <time>2018-10-23T08:49:36Z</time>
      </trkpt>
      <trkpt lat="45.96094" lon="4.77724">
        <ele>199</ele>
        <time>2018-10-23T08:49:37Z</time>
      </trkpt>
      <trkpt lat="45.96099" lon="4.77732">
        <ele>199</ele>
        <time>2018-10-23T08:49:39Z</time>
      </trkpt>
      <trkpt lat="45.96102" lon="4.77737">
        <ele>199</ele>
        <time>2018-10-23T08:49:40Z</time>
      </trkpt>
      <trkpt lat="45.96107" lon="4.77744">
        <ele>199</ele>
        <time>2018-10-23T08:49:42Z</time>
      </trkpt>
      <trkpt lat="45.9611" lon="4.77748">
        <ele>199</ele>
        <time>2018-10-23T08:49:43Z</time>
      </trkpt>
      <trkpt lat="45.96115" lon="4.77757">
        <ele>197</ele>
        <time>2018-10-23T08:49:45Z</time>
      </trkpt>
      <trkpt lat="45.96118" lon="4.77762">
        <ele>197</ele>
        <time>2018-10-23T08:49:46Z</time>
      </trkpt>
      <trkpt lat="45.96124" lon="4.77771">
        <ele>197</ele>
        <time>2018-10-23T08:49:48Z</time>
      </trkpt>
      <trkpt lat="45.96126" lon="4.77775">
        <ele>198</ele>
        <time>2018-10-23T08:49:49Z</time>
      </trkpt>
      <trkpt lat="45.96132" lon="4.77784">
        <ele>198</ele>
        <time>2018-10-23T08:49:51Z</time>
      </trkpt>
      <trkpt lat="45.96135" lon="4.77788">
        <ele>198</ele>
        <time>2018-10-23T08:49:52Z</time>
      </trkpt>
      <trkpt lat="45.96139" lon="4.77798">
        <ele>198</ele>
        <time>2018-10-23T08:49:54Z</time>
      </trkpt>
      <trkpt lat="45.96142" lon="4.77803">
        <ele>198</ele>
        <time>2018-10-23T08:49:55Z</time>
      </trkpt>
      <trkpt lat="45.96144" lon="4.77808">
        <ele>198</ele>
        <time>2018-10-23T08:49:56Z</time>
      </trkpt>
      <trkpt lat="45.96147" lon="4.77813">
        <ele>198</ele>
        <time>2018-10-23T08:49:57Z</time>
      </trkpt>
      <trkpt lat="45.96153" lon="4.77823">
        <ele>198</ele>
        <time>2018-10-23T08:49:59Z</time>
      </trkpt>
      <trkpt lat="45.96155" lon="4.77828">
        <ele>198</ele>
        <time>2018-10-23T08:50:00Z</time>
      </trkpt>
      <trkpt lat="45.9616" lon="4.77836">
        <ele>198</ele>
        <time>2018-10-23T08:50:02Z</time>
      </trkpt>
      <trkpt lat="45.96164" lon="4.7784">
        <ele>198</ele>
        <time>2018-10-23T08:50:03Z</time>
      </trkpt>
      <trkpt lat="45.9617" lon="4.7785">
        <ele>201</ele>
        <time>2018-10-23T08:50:05Z</time>
      </trkpt>
      <trkpt lat="45.96173" lon="4.77856">
        <ele>201</ele>
        <time>2018-10-23T08:50:06Z</time>
      </trkpt>
      <trkpt lat="45.96175" lon="4.77861">
        <ele>201</ele>
        <time>2018-10-23T08:50:07Z</time>
      </trkpt>
      <trkpt lat="45.96178" lon="4.77867">
        <ele>201</ele>
        <time>2018-10-23T08:50:08Z</time>
      </trkpt>
      <trkpt lat="45.96183" lon="4.77877">
        <ele>201</ele>
        <time>2018-10-23T08:50:10Z</time>
      </trkpt>
      <trkpt lat="45.96187" lon="4.77882">
        <ele>201</ele>
        <time>2018-10-23T08:50:11Z</time>
      </trkpt>
      <trkpt lat="45.96192" lon="4.7789">
        <ele>201</ele>
        <time>2018-10-23T08:50:13Z</time>
      </trkpt>
      <trkpt lat="45.96193" lon="4.77895">
        <ele>201</ele>
        <time>2018-10-23T08:50:14Z</time>
      </trkpt>
      <trkpt lat="45.96195" lon="4.779">
        <ele>201</ele>
        <time>2018-10-23T08:50:15Z</time>
      </trkpt>
      <trkpt lat="45.962" lon="4.77905">
        <ele>201</ele>
        <time>2018-10-23T08:50:16Z</time>
      </trkpt>
      <trkpt lat="45.96203" lon="4.7791">
        <ele>202</ele>
        <time>2018-10-23T08:50:17Z</time>
      </trkpt>
      <trkpt lat="45.96207" lon="4.77915">
        <ele>202</ele>
        <time>2018-10-23T08:50:18Z</time>
      </trkpt>
      <trkpt lat="45.96213" lon="4.77921">
        <ele>200</ele>
        <time>2018-10-23T08:50:20Z</time>
      </trkpt>
      <trkpt lat="45.96216" lon="4.77925">
        <ele>200</ele>
        <time>2018-10-23T08:50:21Z</time>
      </trkpt>
      <trkpt lat="45.9622" lon="4.77931">
        <ele>200</ele>
        <time>2018-10-23T08:50:22Z</time>
      </trkpt>
      <trkpt lat="45.96223" lon="4.77936">
        <ele>200</ele>
        <time>2018-10-23T08:50:23Z</time>
      </trkpt>
      <trkpt lat="45.96228" lon="4.77945">
        <ele>200</ele>
        <time>2018-10-23T08:50:25Z</time>
      </trkpt>
      <trkpt lat="45.96231" lon="4.7795">
        <ele>199</ele>
        <time>2018-10-23T08:50:26Z</time>
      </trkpt>
      <trkpt lat="45.96235" lon="4.77956">
        <ele>199</ele>
        <time>2018-10-23T08:50:27Z</time>
      </trkpt>
      <trkpt lat="45.96238" lon="4.7796">
        <ele>199</ele>
        <time>2018-10-23T08:50:28Z</time>
      </trkpt>
      <trkpt lat="45.96242" lon="4.77966">
        <ele>199</ele>
        <time>2018-10-23T08:50:29Z</time>
      </trkpt>
      <trkpt lat="45.96246" lon="4.77971">
        <ele>198</ele>
        <time>2018-10-23T08:50:30Z</time>
      </trkpt>
      <trkpt lat="45.96252" lon="4.77972">
        <ele>203</ele>
        <time>2018-10-23T08:50:31Z</time>
      </trkpt>
      <trkpt lat="45.96256" lon="4.77975">
        <ele>203</ele>
        <time>2018-10-23T08:50:32Z</time>
      </trkpt>
      <trkpt lat="45.9626" lon="4.77978">
        <ele>202</ele>
        <time>2018-10-23T08:50:33Z</time>
      </trkpt>
      <trkpt lat="45.96264" lon="4.77982">
        <ele>202</ele>
        <time>2018-10-23T08:50:34Z</time>
      </trkpt>
      <trkpt lat="45.9627" lon="4.77991">
        <ele>202</ele>
        <time>2018-10-23T08:50:36Z</time>
      </trkpt>
      <trkpt lat="45.96274" lon="4.77994">
        <ele>202</ele>
        <time>2018-10-23T08:50:37Z</time>
      </trkpt>
      <trkpt lat="45.96278" lon="4.77999">
        <ele>203</ele>
        <time>2018-10-23T08:50:38Z</time>
      </trkpt>
      <trkpt lat="45.96282" lon="4.78003">
        <ele>198</ele>
        <time>2018-10-23T08:50:39Z</time>
      </trkpt>
      <trkpt lat="45.96286" lon="4.78006">
        <ele>199</ele>
        <time>2018-10-23T08:50:40Z</time>
      </trkpt>
      <trkpt lat="45.96291" lon="4.78011">
        <ele>199</ele>
        <time>2018-10-23T08:50:41Z</time>
      </trkpt>
      <trkpt lat="45.96298" lon="4.78016">
        <ele>199</ele>
        <time>2018-10-23T08:50:42Z</time>
      </trkpt>
      <trkpt lat="45.96303" lon="4.78021">
        <ele>199</ele>
        <time>2018-10-23T08:50:43Z</time>
      </trkpt>
      <trkpt lat="45.9631" lon="4.78028">
        <ele>200</ele>
        <time>2018-10-23T08:50:45Z</time>
      </trkpt>
      <trkpt lat="45.96313" lon="4.78033">
        <ele>199</ele>
        <time>2018-10-23T08:50:46Z</time>
      </trkpt>
      <trkpt lat="45.96317" lon="4.78038">
        <ele>199</ele>
        <time>2018-10-23T08:50:47Z</time>
      </trkpt>
      <trkpt lat="45.96321" lon="4.78041">
        <ele>199</ele>
        <time>2018-10-23T08:50:48Z</time>
      </trkpt>
      <trkpt lat="45.96326" lon="4.78046">
        <ele>199</ele>
        <time>2018-10-23T08:50:49Z</time>
      </trkpt>
      <trkpt lat="45.96329" lon="4.7805">
        <ele>199</ele>
        <time>2018-10-23T08:50:50Z</time>
      </trkpt>
      <trkpt lat="45.96334" lon="4.78055">
        <ele>202</ele>
        <time>2018-10-23T08:50:51Z</time>
      </trkpt>
      <trkpt lat="45.96338" lon="4.7806">
        <ele>202</ele>
        <time>2018-10-23T08:50:52Z</time>
      </trkpt>
      <trkpt lat="45.96344" lon="4.78068">
        <ele>201</ele>
        <time>2018-10-23T08:50:54Z</time>
      </trkpt>
      <trkpt lat="45.96348" lon="4.78071">
        <ele>201</ele>
        <time>2018-10-23T08:50:55Z</time>
      </trkpt>
      <trkpt lat="45.96354" lon="4.7808">
        <ele>201</ele>
        <time>2018-10-23T08:50:57Z</time>
      </trkpt>
      <trkpt lat="45.96357" lon="4.78084">
        <ele>199</ele>
        <time>2018-10-23T08:50:58Z</time>
      </trkpt>
      <trkpt lat="45.96363" lon="4.78088">
        <ele>199</ele>
        <time>2018-10-23T08:51:00Z</time>
      </trkpt>
      <trkpt lat="45.96368" lon="4.78094">
        <ele>199</ele>
        <time>2018-10-23T08:51:01Z</time>
      </trkpt>
      <trkpt lat="45.96375" lon="4.78101">
        <ele>200</ele>
        <time>2018-10-23T08:51:03Z</time>
      </trkpt>
      <trkpt lat="45.96378" lon="4.78103">
        <ele>200</ele>
        <time>2018-10-23T08:51:04Z</time>
      </trkpt>
      <trkpt lat="45.96381" lon="4.78106">
        <ele>200</ele>
        <time>2018-10-23T08:51:05Z</time>
      </trkpt>
      <trkpt lat="45.96385" lon="4.7811">
        <ele>200</ele>
        <time>2018-10-23T08:51:06Z</time>
      </trkpt>
      <trkpt lat="45.96392" lon="4.78116">
        <ele>200</ele>
        <time>2018-10-23T08:51:08Z</time>
      </trkpt>
      <trkpt lat="45.96395" lon="4.7812">
        <ele>200</ele>
        <time>2018-10-23T08:51:09Z</time>
      </trkpt>
      <trkpt lat="45.96402" lon="4.78126">
        <ele>200</ele>
        <time>2018-10-23T08:51:11Z</time>
      </trkpt>
      <trkpt lat="45.96406" lon="4.7813">
        <ele>199</ele>
        <time>2018-10-23T08:51:12Z</time>
      </trkpt>
      <trkpt lat="45.9641" lon="4.78134">
        <ele>199</ele>
        <time>2018-10-23T08:51:13Z</time>
      </trkpt>
      <trkpt lat="45.96415" lon="4.78139">
        <ele>199</ele>
        <time>2018-10-23T08:51:14Z</time>
      </trkpt>
      <trkpt lat="45.96419" lon="4.78142">
        <ele>203</ele>
        <time>2018-10-23T08:51:15Z</time>
      </trkpt>
      <trkpt lat="45.96423" lon="4.78147">
        <ele>202</ele>
        <time>2018-10-23T08:51:16Z</time>
      </trkpt>
      <trkpt lat="45.96427" lon="4.78151">
        <ele>202</ele>
        <time>2018-10-23T08:51:17Z</time>
      </trkpt>
      <trkpt lat="45.96431" lon="4.78155">
        <ele>202</ele>
        <time>2018-10-23T08:51:18Z</time>
      </trkpt>
      <trkpt lat="45.96435" lon="4.7816">
        <ele>202</ele>
        <time>2018-10-23T08:51:19Z</time>
      </trkpt>
      <trkpt lat="45.96439" lon="4.78163">
        <ele>202</ele>
        <time>2018-10-23T08:51:20Z</time>
      </trkpt>
      <trkpt lat="45.96443" lon="4.78168">
        <ele>199</ele>
        <time>2018-10-23T08:51:21Z</time>
      </trkpt>
      <trkpt lat="45.96447" lon="4.78171">
        <ele>199</ele>
        <time>2018-10-23T08:51:22Z</time>
      </trkpt>
      <trkpt lat="45.96451" lon="4.78174">
        <ele>199</ele>
        <time>2018-10-23T08:51:23Z</time>
      </trkpt>
      <trkpt lat="45.96455" lon="4.78177">
        <ele>200</ele>
        <time>2018-10-23T08:51:24Z</time>
      </trkpt>
      <trkpt lat="45.96459" lon="4.78181">
        <ele>200</ele>
        <time>2018-10-23T08:51:25Z</time>
      </trkpt>
      <trkpt lat="45.96463" lon="4.78185">
        <ele>200</ele>
        <time>2018-10-23T08:51:26Z</time>
      </trkpt>
      <trkpt lat="45.96467" lon="4.78189">
        <ele>200</ele>
        <time>2018-10-23T08:51:27Z</time>
      </trkpt>
      <trkpt lat="45.96472" lon="4.78192">
        <ele>200</ele>
        <time>2018-10-23T08:51:28Z</time>
      </trkpt>
      <trkpt lat="45.96477" lon="4.78189">
        <ele>201</ele>
        <time>2018-10-23T08:51:29Z</time>
      </trkpt>
      <trkpt lat="45.96482" lon="4.78191">
        <ele>201</ele>
        <time>2018-10-23T08:51:30Z</time>
      </trkpt>
      <trkpt lat="45.96486" lon="4.78194">
        <ele>201</ele>
        <time>2018-10-23T08:51:31Z</time>
      </trkpt>
      <trkpt lat="45.96491" lon="4.78197">
        <ele>201</ele>
        <time>2018-10-23T08:51:32Z</time>
      </trkpt>
      <trkpt lat="45.96495" lon="4.782">
        <ele>200</ele>
        <time>2018-10-23T08:51:33Z</time>
      </trkpt>
      <trkpt lat="45.96499" lon="4.78205">
        <ele>200</ele>
        <time>2018-10-23T08:51:34Z</time>
      </trkpt>
      <trkpt lat="45.965" lon="4.78211">
        <ele>200</ele>
        <time>2018-10-23T08:51:35Z</time>
      </trkpt>
      <trkpt lat="45.96503" lon="4.78217">
        <ele>204</ele>
        <time>2018-10-23T08:51:36Z</time>
      </trkpt>
      <trkpt lat="45.96506" lon="4.78223">
        <ele>204</ele>
        <time>2018-10-23T08:51:37Z</time>
      </trkpt>
      <trkpt lat="45.96508" lon="4.78229">
        <ele>203</ele>
        <time>2018-10-23T08:51:38Z</time>
      </trkpt>
      <trkpt lat="45.96513" lon="4.78236">
        <ele>203</ele>
        <time>2018-10-23T08:51:40Z</time>
      </trkpt>
      <trkpt lat="45.96516" lon="4.78243">
        <ele>202</ele>
        <time>2018-10-23T08:51:41Z</time>
      </trkpt>
      <trkpt lat="45.96521" lon="4.78253">
        <ele>199</ele>
        <time>2018-10-23T08:51:43Z</time>
      </trkpt>
      <trkpt lat="45.96522" lon="4.78255">
        <ele>199</ele>
        <time>2018-10-23T08:51:44Z</time>
      </trkpt>
      <trkpt lat="45.96526" lon="4.7826">
        <ele>200</ele>
        <time>2018-10-23T08:51:45Z</time>
      </trkpt>
      <trkpt lat="45.9653" lon="4.78265">
        <ele>200</ele>
        <time>2018-10-23T08:51:46Z</time>
      </trkpt>
      <trkpt lat="45.96532" lon="4.7827">
        <ele>200</ele>
        <time>2018-10-23T08:51:47Z</time>
      </trkpt>
      <trkpt lat="45.96537" lon="4.78275">
        <ele>200</ele>
        <time>2018-10-23T08:51:48Z</time>
      </trkpt>
      <trkpt lat="45.96542" lon="4.78284">
        <ele>200</ele>
        <time>2018-10-23T08:51:50Z</time>
      </trkpt>
      <trkpt lat="45.96544" lon="4.78289">
        <ele>200</ele>
        <time>2018-10-23T08:51:51Z</time>
      </trkpt>
      <trkpt lat="45.96548" lon="4.78292">
        <ele>200</ele>
        <time>2018-10-23T08:51:52Z</time>
      </trkpt>
      <trkpt lat="45.96551" lon="4.78297">
        <ele>200</ele>
        <time>2018-10-23T08:51:53Z</time>
      </trkpt>
      <trkpt lat="45.96555" lon="4.783">
        <ele>200</ele>
        <time>2018-10-23T08:51:54Z</time>
      </trkpt>
      <trkpt lat="45.96559" lon="4.78304">
        <ele>200</ele>
        <time>2018-10-23T08:51:55Z</time>
      </trkpt>
      <trkpt lat="45.96566" lon="4.78312">
        <ele>199</ele>
        <time>2018-10-23T08:51:57Z</time>
      </trkpt>
      <trkpt lat="45.96571" lon="4.78317">
        <ele>199</ele>
        <time>2018-10-23T08:51:58Z</time>
      </trkpt>
      <trkpt lat="45.96578" lon="4.78325">
        <ele>199</ele>
        <time>2018-10-23T08:52:00Z</time>
      </trkpt>
      <trkpt lat="45.96581" lon="4.78329">
        <ele>198</ele>
        <time>2018-10-23T08:52:01Z</time>
      </trkpt>
      <trkpt lat="45.96588" lon="4.78335">
        <ele>199</ele>
        <time>2018-10-23T08:52:03Z</time>
      </trkpt>
      <trkpt lat="45.96591" lon="4.78338">
        <ele>199</ele>
        <time>2018-10-23T08:52:04Z</time>
      </trkpt>
      <trkpt lat="45.96595" lon="4.78341">
        <ele>199</ele>
        <time>2018-10-23T08:52:05Z</time>
      </trkpt>
      <trkpt lat="45.966" lon="4.78345">
        <ele>200</ele>
        <time>2018-10-23T08:52:06Z</time>
      </trkpt>
      <trkpt lat="45.96604" lon="4.78348">
        <ele>200</ele>
        <time>2018-10-23T08:52:07Z</time>
      </trkpt>
      <trkpt lat="45.96608" lon="4.78351">
        <ele>200</ele>
        <time>2018-10-23T08:52:08Z</time>
      </trkpt>
      <trkpt lat="45.96612" lon="4.78355">
        <ele>200</ele>
        <time>2018-10-23T08:52:09Z</time>
      </trkpt>
      <trkpt lat="45.96616" lon="4.78358">
        <ele>201</ele>
        <time>2018-10-23T08:52:10Z</time>
      </trkpt>
      <trkpt lat="45.96624" lon="4.78364">
        <ele>201</ele>
        <time>2018-10-23T08:52:12Z</time>
      </trkpt>
      <trkpt lat="45.96627" lon="4.78368">
        <ele>201</ele>
        <time>2018-10-23T08:52:13Z</time>
      </trkpt>
      <trkpt lat="45.96631" lon="4.78371">
        <ele>201</ele>
        <time>2018-10-23T08:52:14Z</time>
      </trkpt>
      <trkpt lat="45.96635" lon="4.78375">
        <ele>201</ele>
        <time>2018-10-23T08:52:15Z</time>
      </trkpt>
      <trkpt lat="45.96639" lon="4.78378">
        <ele>201</ele>
        <time>2018-10-23T08:52:16Z</time>
      </trkpt>
      <trkpt lat="45.96643" lon="4.78381">
        <ele>201</ele>
        <time>2018-10-23T08:52:17Z</time>
      </trkpt>
      <trkpt lat="45.9665" lon="4.78388">
        <ele>201</ele>
        <time>2018-10-23T08:52:19Z</time>
      </trkpt>
      <trkpt lat="45.96654" lon="4.78392">
        <ele>201</ele>
        <time>2018-10-23T08:52:20Z</time>
      </trkpt>
      <trkpt lat="45.96661" lon="4.78399">
        <ele>201</ele>
        <time>2018-10-23T08:52:22Z</time>
      </trkpt>
      <trkpt lat="45.96665" lon="4.78402">
        <ele>201</ele>
        <time>2018-10-23T08:52:23Z</time>
      </trkpt>
      <trkpt lat="45.96672" lon="4.78408">
        <ele>203</ele>
        <time>2018-10-23T08:52:25Z</time>
      </trkpt>
      <trkpt lat="45.96676" lon="4.78411">
        <ele>203</ele>
        <time>2018-10-23T08:52:26Z</time>
      </trkpt>
      <trkpt lat="45.96683" lon="4.78417">
        <ele>202</ele>
        <time>2018-10-23T08:52:28Z</time>
      </trkpt>
      <trkpt lat="45.96686" lon="4.7842">
        <ele>202</ele>
        <time>2018-10-23T08:52:29Z</time>
      </trkpt>
      <trkpt lat="45.96693" lon="4.78427">
        <ele>202</ele>
        <time>2018-10-23T08:52:31Z</time>
      </trkpt>
      <trkpt lat="45.96696" lon="4.7843">
        <ele>203</ele>
        <time>2018-10-23T08:52:32Z</time>
      </trkpt>
      <trkpt lat="45.96703" lon="4.78438">
        <ele>203</ele>
        <time>2018-10-23T08:52:34Z</time>
      </trkpt>
      <trkpt lat="45.96706" lon="4.78443">
        <ele>203</ele>
        <time>2018-10-23T08:52:35Z</time>
      </trkpt>
      <trkpt lat="45.9671" lon="4.78447">
        <ele>203</ele>
        <time>2018-10-23T08:52:36Z</time>
      </trkpt>
      <trkpt lat="45.96714" lon="4.78451">
        <ele>203</ele>
        <time>2018-10-23T08:52:37Z</time>
      </trkpt>
      <trkpt lat="45.96718" lon="4.78457">
        <ele>203</ele>
        <time>2018-10-23T08:52:38Z</time>
      </trkpt>
      <trkpt lat="45.96721" lon="4.78462">
        <ele>203</ele>
        <time>2018-10-23T08:52:39Z</time>
      </trkpt>
      <trkpt lat="45.96726" lon="4.78465">
        <ele>203</ele>
        <time>2018-10-23T08:52:40Z</time>
      </trkpt>
      <trkpt lat="45.96731" lon="4.78469">
        <ele>203</ele>
        <time>2018-10-23T08:52:41Z</time>
      </trkpt>
      <trkpt lat="45.96736" lon="4.78473">
        <ele>203</ele>
        <time>2018-10-23T08:52:42Z</time>
      </trkpt>
      <trkpt lat="45.9674" lon="4.78477">
        <ele>203</ele>
        <time>2018-10-23T08:52:43Z</time>
      </trkpt>
      <trkpt lat="45.96744" lon="4.78481">
        <ele>203</ele>
        <time>2018-10-23T08:52:44Z</time>
      </trkpt>
      <trkpt lat="45.96748" lon="4.78483">
        <ele>203</ele>
        <time>2018-10-23T08:52:45Z</time>
      </trkpt>
      <trkpt lat="45.96752" lon="4.78487">
        <ele>204</ele>
        <time>2018-10-23T08:52:46Z</time>
      </trkpt>
      <trkpt lat="45.96756" lon="4.78492">
        <ele>204</ele>
        <time>2018-10-23T08:52:47Z</time>
      </trkpt>
      <trkpt lat="45.96763" lon="4.78499">
        <ele>204</ele>
        <time>2018-10-23T08:52:49Z</time>
      </trkpt>
      <trkpt lat="45.96765" lon="4.78504">
        <ele>203</ele>
        <time>2018-10-23T08:52:50Z</time>
      </trkpt>
      <trkpt lat="45.9677" lon="4.7851">
        <ele>203</ele>
        <time>2018-10-23T08:52:52Z</time>
      </trkpt>
      <trkpt lat="45.96774" lon="4.78515">
        <ele>203</ele>
        <time>2018-10-23T08:52:53Z</time>
      </trkpt>
      <trkpt lat="45.96779" lon="4.78524">
        <ele>203</ele>
        <time>2018-10-23T08:52:55Z</time>
      </trkpt>
      <trkpt lat="45.96782" lon="4.78528">
        <ele>203</ele>
        <time>2018-10-23T08:52:56Z</time>
      </trkpt>
      <trkpt lat="45.96787" lon="4.78536">
        <ele>203</ele>
        <time>2018-10-23T08:52:58Z</time>
      </trkpt>
      <trkpt lat="45.9679" lon="4.7854">
        <ele>203</ele>
        <time>2018-10-23T08:52:59Z</time>
      </trkpt>
      <trkpt lat="45.96796" lon="4.78549">
        <ele>203</ele>
        <time>2018-10-23T08:53:01Z</time>
      </trkpt>
      <trkpt lat="45.968" lon="4.78553">
        <ele>203</ele>
        <time>2018-10-23T08:53:02Z</time>
      </trkpt>
      <trkpt lat="45.96805" lon="4.78562">
        <ele>203</ele>
        <time>2018-10-23T08:53:04Z</time>
      </trkpt>
      <trkpt lat="45.96808" lon="4.78566">
        <ele>203</ele>
        <time>2018-10-23T08:53:05Z</time>
      </trkpt>
      <trkpt lat="45.96814" lon="4.78575">
        <ele>203</ele>
        <time>2018-10-23T08:53:07Z</time>
      </trkpt>
      <trkpt lat="45.96816" lon="4.78579">
        <ele>203</ele>
        <time>2018-10-23T08:53:08Z</time>
      </trkpt>
      <trkpt lat="45.96822" lon="4.78588">
        <ele>202</ele>
        <time>2018-10-23T08:53:10Z</time>
      </trkpt>
      <trkpt lat="45.96826" lon="4.78594">
        <ele>202</ele>
        <time>2018-10-23T08:53:11Z</time>
      </trkpt>
      <trkpt lat="45.96828" lon="4.786">
        <ele>202</ele>
        <time>2018-10-23T08:53:12Z</time>
      </trkpt>
      <trkpt lat="45.9683" lon="4.78607">
        <ele>202</ele>
        <time>2018-10-23T08:53:13Z</time>
      </trkpt>
      <trkpt lat="45.96833" lon="4.78613">
        <ele>202</ele>
        <time>2018-10-23T08:53:14Z</time>
      </trkpt>
      <trkpt lat="45.96835" lon="4.7862">
        <ele>203</ele>
        <time>2018-10-23T08:53:15Z</time>
      </trkpt>
      <trkpt lat="45.96836" lon="4.78626">
        <ele>203</ele>
        <time>2018-10-23T08:53:16Z</time>
      </trkpt>
      <trkpt lat="45.96838" lon="4.78632">
        <ele>203</ele>
        <time>2018-10-23T08:53:17Z</time>
      </trkpt>
      <trkpt lat="45.96842" lon="4.78643">
        <ele>203</ele>
        <time>2018-10-23T08:53:19Z</time>
      </trkpt>
      <trkpt lat="45.96845" lon="4.78648">
        <ele>203</ele>
        <time>2018-10-23T08:53:20Z</time>
      </trkpt>
      <trkpt lat="45.96851" lon="4.78657">
        <ele>203</ele>
        <time>2018-10-23T08:53:22Z</time>
      </trkpt>
      <trkpt lat="45.96854" lon="4.78662">
        <ele>203</ele>
        <time>2018-10-23T08:53:23Z</time>
      </trkpt>
      <trkpt lat="45.96856" lon="4.7867">
        <ele>202</ele>
        <time>2018-10-23T08:53:24Z</time>
      </trkpt>
      <trkpt lat="45.96858" lon="4.78676">
        <ele>202</ele>
        <time>2018-10-23T08:53:25Z</time>
      </trkpt>
      <trkpt lat="45.96862" lon="4.78686">
        <ele>202</ele>
        <time>2018-10-23T08:53:27Z</time>
      </trkpt>
      <trkpt lat="45.96865" lon="4.78693">
        <ele>202</ele>
        <time>2018-10-23T08:53:28Z</time>
      </trkpt>
      <trkpt lat="45.96867" lon="4.78699">
        <ele>202</ele>
        <time>2018-10-23T08:53:29Z</time>
      </trkpt>
      <trkpt lat="45.96871" lon="4.78702">
        <ele>202</ele>
        <time>2018-10-23T08:53:30Z</time>
      </trkpt>
      <trkpt lat="45.96874" lon="4.78707">
        <ele>202</ele>
        <time>2018-10-23T08:53:31Z</time>
      </trkpt>
      <trkpt lat="45.96876" lon="4.78713">
        <ele>202</ele>
        <time>2018-10-23T08:53:32Z</time>
      </trkpt>
      <trkpt lat="45.96882" lon="4.78722">
        <ele>202</ele>
        <time>2018-10-23T08:53:34Z</time>
      </trkpt>
      <trkpt lat="45.96885" lon="4.78726">
        <ele>202</ele>
        <time>2018-10-23T08:53:35Z</time>
      </trkpt>
      <trkpt lat="45.96889" lon="4.78737">
        <ele>202</ele>
        <time>2018-10-23T08:53:37Z</time>
      </trkpt>
      <trkpt lat="45.96892" lon="4.78744">
        <ele>202</ele>
        <time>2018-10-23T08:53:38Z</time>
      </trkpt>
      <trkpt lat="45.96897" lon="4.78754">
        <ele>201</ele>
        <time>2018-10-23T08:53:40Z</time>
      </trkpt>
      <trkpt lat="45.96899" lon="4.7876">
        <ele>201</ele>
        <time>2018-10-23T08:53:41Z</time>
      </trkpt>
      <trkpt lat="45.96902" lon="4.78766">
        <ele>201</ele>
        <time>2018-10-23T08:53:42Z</time>
      </trkpt>
      <trkpt lat="45.96903" lon="4.78772">
        <ele>201</ele>
        <time>2018-10-23T08:53:43Z</time>
      </trkpt>
      <trkpt lat="45.96907" lon="4.78777">
        <ele>201</ele>
        <time>2018-10-23T08:53:44Z</time>
      </trkpt>
      <trkpt lat="45.96909" lon="4.78782">
        <ele>201</ele>
        <time>2018-10-23T08:53:45Z</time>
      </trkpt>
      <trkpt lat="45.96912" lon="4.78788">
        <ele>201</ele>
        <time>2018-10-23T08:53:46Z</time>
      </trkpt>
      <trkpt lat="45.96918" lon="4.78793">
        <ele>203</ele>
        <time>2018-10-23T08:53:47Z</time>
      </trkpt>
      <trkpt lat="45.96921" lon="4.78798">
        <ele>203</ele>
        <time>2018-10-23T08:53:48Z</time>
      </trkpt>
      <trkpt lat="45.96924" lon="4.78804">
        <ele>203</ele>
        <time>2018-10-23T08:53:49Z</time>
      </trkpt>
      <trkpt lat="45.96927" lon="4.78809">
        <ele>203</ele>
        <time>2018-10-23T08:53:50Z</time>
      </trkpt>
      <trkpt lat="45.96931" lon="4.78814">
        <ele>202</ele>
        <time>2018-10-23T08:53:51Z</time>
      </trkpt>
      <trkpt lat="45.96933" lon="4.78819">
        <ele>202</ele>
        <time>2018-10-23T08:53:52Z</time>
      </trkpt>
      <trkpt lat="45.96936" lon="4.78824">
        <ele>202</ele>
        <time>2018-10-23T08:53:53Z</time>
      </trkpt>
      <trkpt lat="45.9694" lon="4.78829">
        <ele>203</ele>
        <time>2018-10-23T08:53:54Z</time>
      </trkpt>
      <trkpt lat="45.96943" lon="4.78834">
        <ele>202</ele>
        <time>2018-10-23T08:53:55Z</time>
      </trkpt>
      <trkpt lat="45.96949" lon="4.78842">
        <ele>202</ele>
        <time>2018-10-23T08:53:57Z</time>
      </trkpt>
      <trkpt lat="45.96953" lon="4.78846">
        <ele>203</ele>
        <time>2018-10-23T08:53:58Z</time>
      </trkpt>
      <trkpt lat="45.96957" lon="4.78851">
        <ele>203</ele>
        <time>2018-10-23T08:53:59Z</time>
      </trkpt>
      <trkpt lat="45.96961" lon="4.78856">
        <ele>203</ele>
        <time>2018-10-23T08:54:00Z</time>
      </trkpt>
      <trkpt lat="45.96968" lon="4.78864">
        <ele>203</ele>
        <time>2018-10-23T08:54:02Z</time>
      </trkpt>
      <trkpt lat="45.96972" lon="4.78868">
        <ele>203</ele>
        <time>2018-10-23T08:54:03Z</time>
      </trkpt>
      <trkpt lat="45.96979" lon="4.78874">
        <ele>203</ele>
        <time>2018-10-23T08:54:05Z</time>
      </trkpt>
      <trkpt lat="45.96983" lon="4.78878">
        <ele>203</ele>
        <time>2018-10-23T08:54:06Z</time>
      </trkpt>
      <trkpt lat="45.96986" lon="4.78882">
        <ele>203</ele>
        <time>2018-10-23T08:54:07Z</time>
      </trkpt>
      <trkpt lat="45.96989" lon="4.78887">
        <ele>203</ele>
        <time>2018-10-23T08:54:08Z</time>
      </trkpt>
      <trkpt lat="45.96995" lon="4.78895">
        <ele>203</ele>
        <time>2018-10-23T08:54:10Z</time>
      </trkpt>
      <trkpt lat="45.96999" lon="4.78899">
        <ele>204</ele>
        <time>2018-10-23T08:54:11Z</time>
      </trkpt>
      <trkpt lat="45.97006" lon="4.78906">
        <ele>206</ele>
        <time>2018-10-23T08:54:13Z</time>
      </trkpt>
      <trkpt lat="45.97009" lon="4.7891">
        <ele>206</ele>
        <time>2018-10-23T08:54:14Z</time>
      </trkpt>
      <trkpt lat="45.97015" lon="4.78918">
        <ele>205</ele>
        <time>2018-10-23T08:54:16Z</time>
      </trkpt>
      <trkpt lat="45.97018" lon="4.78922">
        <ele>205</ele>
        <time>2018-10-23T08:54:17Z</time>
      </trkpt>
      <trkpt lat="45.97024" lon="4.7893">
        <ele>205</ele>
        <time>2018-10-23T08:54:19Z</time>
      </trkpt>
      <trkpt lat="45.97026" lon="4.78934">
        <ele>205</ele>
        <time>2018-10-23T08:54:20Z</time>
      </trkpt>
      <trkpt lat="45.97032" lon="4.78944">
        <ele>205</ele>
        <time>2018-10-23T08:54:22Z</time>
      </trkpt>
      <trkpt lat="45.97034" lon="4.78948">
        <ele>205</ele>
        <time>2018-10-23T08:54:23Z</time>
      </trkpt>
      <trkpt lat="45.97039" lon="4.78958">
        <ele>205</ele>
        <time>2018-10-23T08:54:25Z</time>
      </trkpt>
      <trkpt lat="45.97041" lon="4.78963">
        <ele>205</ele>
        <time>2018-10-23T08:54:26Z</time>
      </trkpt>
      <trkpt lat="45.97046" lon="4.78972">
        <ele>205</ele>
        <time>2018-10-23T08:54:28Z</time>
      </trkpt>
      <trkpt lat="45.97048" lon="4.78978">
        <ele>205</ele>
        <time>2018-10-23T08:54:29Z</time>
      </trkpt>
      <trkpt lat="45.97051" lon="4.78987">
        <ele>205</ele>
        <time>2018-10-23T08:54:31Z</time>
      </trkpt>
      <trkpt lat="45.97052" lon="4.78992">
        <ele>205</ele>
        <time>2018-10-23T08:54:32Z</time>
      </trkpt>
      <trkpt lat="45.97056" lon="4.79002">
        <ele>203</ele>
        <time>2018-10-23T08:54:34Z</time>
      </trkpt>
      <trkpt lat="45.97058" lon="4.79007">
        <ele>204</ele>
        <time>2018-10-23T08:54:35Z</time>
      </trkpt>
      <trkpt lat="45.97059" lon="4.79013">
        <ele>204</ele>
        <time>2018-10-23T08:54:36Z</time>
      </trkpt>
      <trkpt lat="45.97062" lon="4.79019">
        <ele>204</ele>
        <time>2018-10-23T08:54:37Z</time>
      </trkpt>
      <trkpt lat="45.97064" lon="4.79029">
        <ele>203</ele>
        <time>2018-10-23T08:54:39Z</time>
      </trkpt>
      <trkpt lat="45.97066" lon="4.79036">
        <ele>203</ele>
        <time>2018-10-23T08:54:40Z</time>
      </trkpt>
      <trkpt lat="45.97068" lon="4.79043">
        <ele>203</ele>
        <time>2018-10-23T08:54:41Z</time>
      </trkpt>
      <trkpt lat="45.97069" lon="4.79049">
        <ele>203</ele>
        <time>2018-10-23T08:54:42Z</time>
      </trkpt>
      <trkpt lat="45.97071" lon="4.79056">
        <ele>203</ele>
        <time>2018-10-23T08:54:43Z</time>
      </trkpt>
      <trkpt lat="45.97073" lon="4.79062">
        <ele>203</ele>
        <time>2018-10-23T08:54:44Z</time>
      </trkpt>
      <trkpt lat="45.97074" lon="4.79069">
        <ele>204</ele>
        <time>2018-10-23T08:54:45Z</time>
      </trkpt>
      <trkpt lat="45.97076" lon="4.79075">
        <ele>204</ele>
        <time>2018-10-23T08:54:46Z</time>
      </trkpt>
      <trkpt lat="45.97078" lon="4.79087">
        <ele>204</ele>
        <time>2018-10-23T08:54:48Z</time>
      </trkpt>
      <trkpt lat="45.9708" lon="4.79092">
        <ele>204</ele>
        <time>2018-10-23T08:54:49Z</time>
      </trkpt>
      <trkpt lat="45.97083" lon="4.79103">
        <ele>204</ele>
        <time>2018-10-23T08:54:51Z</time>
      </trkpt>
      <trkpt lat="45.97084" lon="4.7911">
        <ele>206</ele>
        <time>2018-10-23T08:54:52Z</time>
      </trkpt>
      <trkpt lat="45.97086" lon="4.79115">
        <ele>206</ele>
        <time>2018-10-23T08:54:53Z</time>
      </trkpt>
      <trkpt lat="45.97089" lon="4.79121">
        <ele>206</ele>
        <time>2018-10-23T08:54:54Z</time>
      </trkpt>
      <trkpt lat="45.97092" lon="4.79126">
        <ele>206</ele>
        <time>2018-10-23T08:54:55Z</time>
      </trkpt>
      <trkpt lat="45.97095" lon="4.79132">
        <ele>206</ele>
        <time>2018-10-23T08:54:56Z</time>
      </trkpt>
      <trkpt lat="45.97098" lon="4.79138">
        <ele>206</ele>
        <time>2018-10-23T08:54:57Z</time>
      </trkpt>
      <trkpt lat="45.97102" lon="4.79145">
        <ele>206</ele>
        <time>2018-10-23T08:54:58Z</time>
      </trkpt>
      <trkpt lat="45.97108" lon="4.79155">
        <ele>206</ele>
        <time>2018-10-23T08:55:00Z</time>
      </trkpt>
      <trkpt lat="45.9711" lon="4.79161">
        <ele>206</ele>
        <time>2018-10-23T08:55:01Z</time>
      </trkpt>
      <trkpt lat="45.97113" lon="4.79168">
        <ele>205</ele>
        <time>2018-10-23T08:55:02Z</time>
      </trkpt>
      <trkpt lat="45.97116" lon="4.79174">
        <ele>206</ele>
        <time>2018-10-23T08:55:03Z</time>
      </trkpt>
      <trkpt lat="45.97118" lon="4.7918">
        <ele>206</ele>
        <time>2018-10-23T08:55:04Z</time>
      </trkpt>
      <trkpt lat="45.97121" lon="4.79185">
        <ele>206</ele>
        <time>2018-10-23T08:55:05Z</time>
      </trkpt>
      <trkpt lat="45.97123" lon="4.79191">
        <ele>206</ele>
        <time>2018-10-23T08:55:06Z</time>
      </trkpt>
      <trkpt lat="45.97127" lon="4.79197">
        <ele>206</ele>
        <time>2018-10-23T08:55:07Z</time>
      </trkpt>
      <trkpt lat="45.97131" lon="4.79207">
        <ele>206</ele>
        <time>2018-10-23T08:55:09Z</time>
      </trkpt>
      <trkpt lat="45.97134" lon="4.79213">
        <ele>206</ele>
        <time>2018-10-23T08:55:10Z</time>
      </trkpt>
      <trkpt lat="45.97135" lon="4.79219">
        <ele>206</ele>
        <time>2018-10-23T08:55:11Z</time>
      </trkpt>
      <trkpt lat="45.97137" lon="4.79226">
        <ele>205</ele>
        <time>2018-10-23T08:55:12Z</time>
      </trkpt>
      <trkpt lat="45.97141" lon="4.79237">
        <ele>205</ele>
        <time>2018-10-23T08:55:14Z</time>
      </trkpt>
      <trkpt lat="45.97143" lon="4.79244">
        <ele>205</ele>
        <time>2018-10-23T08:55:15Z</time>
      </trkpt>
      <trkpt lat="45.97146" lon="4.7925">
        <ele>205</ele>
        <time>2018-10-23T08:55:16Z</time>
      </trkpt>
      <trkpt lat="45.97148" lon="4.79255">
        <ele>204</ele>
        <time>2018-10-23T08:55:17Z</time>
      </trkpt>
      <trkpt lat="45.97153" lon="4.7926">
        <ele>204</ele>
        <time>2018-10-23T08:55:18Z</time>
      </trkpt>
      <trkpt lat="45.97155" lon="4.79266">
        <ele>204</ele>
        <time>2018-10-23T08:55:19Z</time>
      </trkpt>
      <trkpt lat="45.97158" lon="4.79272">
        <ele>204</ele>
        <time>2018-10-23T08:55:20Z</time>
      </trkpt>
      <trkpt lat="45.9716" lon="4.79278">
        <ele>204</ele>
        <time>2018-10-23T08:55:21Z</time>
      </trkpt>
      <trkpt lat="45.97164" lon="4.79288">
        <ele>204</ele>
        <time>2018-10-23T08:55:23Z</time>
      </trkpt>
      <trkpt lat="45.97166" lon="4.79293">
        <ele>204</ele>
        <time>2018-10-23T08:55:24Z</time>
      </trkpt>
      <trkpt lat="45.97168" lon="4.79298">
        <ele>207</ele>
        <time>2018-10-23T08:55:25Z</time>
      </trkpt>
      <trkpt lat="45.97171" lon="4.79304">
        <ele>207</ele>
        <time>2018-10-23T08:55:26Z</time>
      </trkpt>
      <trkpt lat="45.97173" lon="4.79316">
        <ele>207</ele>
        <time>2018-10-23T08:55:28Z</time>
      </trkpt>
      <trkpt lat="45.97175" lon="4.79321">
        <ele>207</ele>
        <time>2018-10-23T08:55:29Z</time>
      </trkpt>
      <trkpt lat="45.9718" lon="4.79331">
        <ele>206</ele>
        <time>2018-10-23T08:55:31Z</time>
      </trkpt>
      <trkpt lat="45.97182" lon="4.79335">
        <ele>206</ele>
        <time>2018-10-23T08:55:32Z</time>
      </trkpt>
      <trkpt lat="45.97187" lon="4.79345">
        <ele>207</ele>
        <time>2018-10-23T08:55:34Z</time>
      </trkpt>
      <trkpt lat="45.97189" lon="4.7935">
        <ele>207</ele>
        <time>2018-10-23T08:55:35Z</time>
      </trkpt>
      <trkpt lat="45.97194" lon="4.79361">
        <ele>207</ele>
        <time>2018-10-23T08:55:37Z</time>
      </trkpt>
      <trkpt lat="45.97196" lon="4.79366">
        <ele>207</ele>
        <time>2018-10-23T08:55:38Z</time>
      </trkpt>
      <trkpt lat="45.97198" lon="4.79371">
        <ele>207</ele>
        <time>2018-10-23T08:55:39Z</time>
      </trkpt>
      <trkpt lat="45.97201" lon="4.79377">
        <ele>207</ele>
        <time>2018-10-23T08:55:40Z</time>
      </trkpt>
      <trkpt lat="45.97203" lon="4.79383">
        <ele>208</ele>
        <time>2018-10-23T08:55:41Z</time>
      </trkpt>
      <trkpt lat="45.97206" lon="4.79388">
        <ele>208</ele>
        <time>2018-10-23T08:55:42Z</time>
      </trkpt>
      <trkpt lat="45.97209" lon="4.79394">
        <ele>208</ele>
        <time>2018-10-23T08:55:43Z</time>
      </trkpt>
      <trkpt lat="45.97211" lon="4.794">
        <ele>208</ele>
        <time>2018-10-23T08:55:44Z</time>
      </trkpt>
      <trkpt lat="45.97213" lon="4.79405">
        <ele>208</ele>
        <time>2018-10-23T08:55:45Z</time>
      </trkpt>
      <trkpt lat="45.97216" lon="4.79411">
        <ele>208</ele>
        <time>2018-10-23T08:55:46Z</time>
      </trkpt>
      <trkpt lat="45.9722" lon="4.79422">
        <ele>208</ele>
        <time>2018-10-23T08:55:48Z</time>
      </trkpt>
      <trkpt lat="45.97222" lon="4.79427">
        <ele>209</ele>
        <time>2018-10-23T08:55:49Z</time>
      </trkpt>
      <trkpt lat="45.97225" lon="4.79437">
        <ele>209</ele>
        <time>2018-10-23T08:55:51Z</time>
      </trkpt>
      <trkpt lat="45.97227" lon="4.79443">
        <ele>209</ele>
        <time>2018-10-23T08:55:52Z</time>
      </trkpt>
      <trkpt lat="45.97231" lon="4.79453">
        <ele>209</ele>
        <time>2018-10-23T08:55:54Z</time>
      </trkpt>
      <trkpt lat="45.97233" lon="4.79459">
        <ele>209</ele>
        <time>2018-10-23T08:55:55Z</time>
      </trkpt>
      <trkpt lat="45.97235" lon="4.79469">
        <ele>209</ele>
        <time>2018-10-23T08:55:57Z</time>
      </trkpt>
      <trkpt lat="45.97237" lon="4.79473">
        <ele>209</ele>
        <time>2018-10-23T08:55:58Z</time>
      </trkpt>
      <trkpt lat="45.97241" lon="4.79484">
        <ele>210</ele>
        <time>2018-10-23T08:56:00Z</time>
      </trkpt>
      <trkpt lat="45.97242" lon="4.7949">
        <ele>210</ele>
        <time>2018-10-23T08:56:01Z</time>
      </trkpt>
      <trkpt lat="45.97245" lon="4.79501">
        <ele>211</ele>
        <time>2018-10-23T08:56:03Z</time>
      </trkpt>
      <trkpt lat="45.97247" lon="4.79507">
        <ele>210</ele>
        <time>2018-10-23T08:56:04Z</time>
      </trkpt>
      <trkpt lat="45.97248" lon="4.79515">
        <ele>210</ele>
        <time>2018-10-23T08:56:05Z</time>
      </trkpt>
      <trkpt lat="45.97249" lon="4.79522">
        <ele>210</ele>
        <time>2018-10-23T08:56:06Z</time>
      </trkpt>
      <trkpt lat="45.97251" lon="4.79534">
        <ele>214</ele>
        <time>2018-10-23T08:56:08Z</time>
      </trkpt>
      <trkpt lat="45.97253" lon="4.79543">
        <ele>214</ele>
        <time>2018-10-23T08:56:09Z</time>
      </trkpt>
      <trkpt lat="45.97254" lon="4.79549">
        <ele>214</ele>
        <time>2018-10-23T08:56:10Z</time>
      </trkpt>
      <trkpt lat="45.97255" lon="4.79555">
        <ele>214</ele>
        <time>2018-10-23T08:56:11Z</time>
      </trkpt>
      <trkpt lat="45.97258" lon="4.79567">
        <ele>213</ele>
        <time>2018-10-23T08:56:13Z</time>
      </trkpt>
      <trkpt lat="45.97258" lon="4.79574">
        <ele>212</ele>
        <time>2018-10-23T08:56:14Z</time>
      </trkpt>
      <trkpt lat="45.97259" lon="4.7958">
        <ele>212</ele>
        <time>2018-10-23T08:56:15Z</time>
      </trkpt>
      <trkpt lat="45.97257" lon="4.79589">
        <ele>211</ele>
        <time>2018-10-23T08:56:16Z</time>
      </trkpt>
      <trkpt lat="45.97255" lon="4.79601">
        <ele>212</ele>
        <time>2018-10-23T08:56:18Z</time>
      </trkpt>
      <trkpt lat="45.97255" lon="4.79607">
        <ele>213</ele>
        <time>2018-10-23T08:56:19Z</time>
      </trkpt>
      <trkpt lat="45.97255" lon="4.79613">
        <ele>213</ele>
        <time>2018-10-23T08:56:20Z</time>
      </trkpt>
      <trkpt lat="45.97255" lon="4.7962">
        <ele>213</ele>
        <time>2018-10-23T08:56:21Z</time>
      </trkpt>
      <trkpt lat="45.97253" lon="4.79632">
        <ele>213</ele>
        <time>2018-10-23T08:56:23Z</time>
      </trkpt>
      <trkpt lat="45.97253" lon="4.79639">
        <ele>212</ele>
        <time>2018-10-23T08:56:24Z</time>
      </trkpt>
      <trkpt lat="45.97253" lon="4.79651">
        <ele>211</ele>
        <time>2018-10-23T08:56:26Z</time>
      </trkpt>
      <trkpt lat="45.97252" lon="4.79657">
        <ele>210</ele>
        <time>2018-10-23T08:56:27Z</time>
      </trkpt>
      <trkpt lat="45.97252" lon="4.79665">
        <ele>209</ele>
        <time>2018-10-23T08:56:28Z</time>
      </trkpt>
      <trkpt lat="45.97251" lon="4.79671">
        <ele>209</ele>
        <time>2018-10-23T08:56:29Z</time>
      </trkpt>
      <trkpt lat="45.97251" lon="4.79678">
        <ele>210</ele>
        <time>2018-10-23T08:56:30Z</time>
      </trkpt>
      <trkpt lat="45.97249" lon="4.79684">
        <ele>208</ele>
        <time>2018-10-23T08:56:31Z</time>
      </trkpt>
      <trkpt lat="45.97248" lon="4.7969">
        <ele>208</ele>
        <time>2018-10-23T08:56:32Z</time>
      </trkpt>
      <trkpt lat="45.97247" lon="4.79697">
        <ele>208</ele>
        <time>2018-10-23T08:56:33Z</time>
      </trkpt>
      <trkpt lat="45.97247" lon="4.79704">
        <ele>208</ele>
        <time>2018-10-23T08:56:34Z</time>
      </trkpt>
      <trkpt lat="45.97246" lon="4.79712">
        <ele>209</ele>
        <time>2018-10-23T08:56:35Z</time>
      </trkpt>
      <trkpt lat="45.97242" lon="4.79718">
        <ele>209</ele>
        <time>2018-10-23T08:56:36Z</time>
      </trkpt>
      <trkpt lat="45.97242" lon="4.79726">
        <ele>209</ele>
        <time>2018-10-23T08:56:37Z</time>
      </trkpt>
      <trkpt lat="45.97242" lon="4.79732">
        <ele>209</ele>
        <time>2018-10-23T08:56:38Z</time>
      </trkpt>
      <trkpt lat="45.97242" lon="4.7974">
        <ele>209</ele>
        <time>2018-10-23T08:56:39Z</time>
      </trkpt>
      <trkpt lat="45.97241" lon="4.79746">
        <ele>209</ele>
        <time>2018-10-23T08:56:40Z</time>
      </trkpt>
      <trkpt lat="45.9724" lon="4.79753">
        <ele>209</ele>
        <time>2018-10-23T08:56:41Z</time>
      </trkpt>
      <trkpt lat="45.97239" lon="4.79766">
        <ele>209</ele>
        <time>2018-10-23T08:56:43Z</time>
      </trkpt>
      <trkpt lat="45.97238" lon="4.79772">
        <ele>210</ele>
        <time>2018-10-23T08:56:44Z</time>
      </trkpt>
      <trkpt lat="45.97238" lon="4.79779">
        <ele>210</ele>
        <time>2018-10-23T08:56:45Z</time>
      </trkpt>
      <trkpt lat="45.9724" lon="4.79788">
        <ele>210</ele>
        <time>2018-10-23T08:56:46Z</time>
      </trkpt>
      <trkpt lat="45.97241" lon="4.79795">
        <ele>210</ele>
        <time>2018-10-23T08:56:47Z</time>
      </trkpt>
      <trkpt lat="45.9724" lon="4.79804">
        <ele>210</ele>
        <time>2018-10-23T08:56:48Z</time>
      </trkpt>
      <trkpt lat="45.97239" lon="4.7981">
        <ele>210</ele>
        <time>2018-10-23T08:56:49Z</time>
      </trkpt>
      <trkpt lat="45.97239" lon="4.79817">
        <ele>211</ele>
        <time>2018-10-23T08:56:50Z</time>
      </trkpt>
      <trkpt lat="45.97238" lon="4.79824">
        <ele>211</ele>
        <time>2018-10-23T08:56:51Z</time>
      </trkpt>
      <trkpt lat="45.97239" lon="4.79831">
        <ele>211</ele>
        <time>2018-10-23T08:56:52Z</time>
      </trkpt>
      <trkpt lat="45.97239" lon="4.79842">
        <ele>211</ele>
        <time>2018-10-23T08:56:54Z</time>
      </trkpt>
      <trkpt lat="45.9724" lon="4.79848">
        <ele>211</ele>
        <time>2018-10-23T08:56:55Z</time>
      </trkpt>
      <trkpt lat="45.97241" lon="4.79861">
        <ele>211</ele>
        <time>2018-10-23T08:56:57Z</time>
      </trkpt>
      <trkpt lat="45.97241" lon="4.79866">
        <ele>211</ele>
        <time>2018-10-23T08:56:58Z</time>
      </trkpt>
      <trkpt lat="45.97244" lon="4.79876">
        <ele>211</ele>
        <time>2018-10-23T08:57:01Z</time>
      </trkpt>
      <trkpt lat="45.97245" lon="4.79886">
        <ele>211</ele>
        <time>2018-10-23T08:57:02Z</time>
      </trkpt>
      <trkpt lat="45.97247" lon="4.79898">
        <ele>211</ele>
        <time>2018-10-23T08:57:05Z</time>
      </trkpt>
      <trkpt lat="45.97248" lon="4.79901">
        <ele>211</ele>
        <time>2018-10-23T08:57:06Z</time>
      </trkpt>
      <trkpt lat="45.97251" lon="4.79911">
        <ele>212</ele>
        <time>2018-10-23T08:57:10Z</time>
      </trkpt>
      <trkpt lat="45.97252" lon="4.79913">
        <ele>212</ele>
        <time>2018-10-23T08:57:11Z</time>
      </trkpt>
      <trkpt lat="45.97258" lon="4.79921">
        <ele>212</ele>
        <time>2018-10-23T08:57:17Z</time>
      </trkpt>
      <trkpt lat="45.97261" lon="4.79921">
        <ele>212</ele>
        <time>2018-10-23T08:57:18Z</time>
      </trkpt>
      <trkpt lat="45.97268" lon="4.79917">
        <ele>212</ele>
        <time>2018-10-23T08:57:21Z</time>
      </trkpt>
      <trkpt lat="45.97271" lon="4.79915">
        <ele>213</ele>
        <time>2018-10-23T08:57:22Z</time>
      </trkpt>
      <trkpt lat="45.97278" lon="4.79913">
        <ele>213</ele>
        <time>2018-10-23T08:57:23Z</time>
      </trkpt>
      <trkpt lat="45.97281" lon="4.79912">
        <ele>213</ele>
        <time>2018-10-23T08:57:24Z</time>
      </trkpt>
      <trkpt lat="45.97289" lon="4.79912">
        <ele>213</ele>
        <time>2018-10-23T08:57:26Z</time>
      </trkpt>
      <trkpt lat="45.97294" lon="4.79911">
        <ele>213</ele>
        <time>2018-10-23T08:57:27Z</time>
      </trkpt>
      <trkpt lat="45.97302" lon="4.7991">
        <ele>213</ele>
        <time>2018-10-23T08:57:29Z</time>
      </trkpt>
      <trkpt lat="45.97306" lon="4.79909">
        <ele>213</ele>
        <time>2018-10-23T08:57:30Z</time>
      </trkpt>
      <trkpt lat="45.97315" lon="4.79909">
        <ele>213</ele>
        <time>2018-10-23T08:57:32Z</time>
      </trkpt>
      <trkpt lat="45.97319" lon="4.79909">
        <ele>213</ele>
        <time>2018-10-23T08:57:33Z</time>
      </trkpt>
      <trkpt lat="45.97327" lon="4.79908">
        <ele>213</ele>
        <time>2018-10-23T08:57:35Z</time>
      </trkpt>
      <trkpt lat="45.97332" lon="4.79908">
        <ele>213</ele>
        <time>2018-10-23T08:57:36Z</time>
      </trkpt>
      <trkpt lat="45.9734" lon="4.79906">
        <ele>215</ele>
        <time>2018-10-23T08:57:38Z</time>
      </trkpt>
      <trkpt lat="45.97345" lon="4.79905">
        <ele>215</ele>
        <time>2018-10-23T08:57:39Z</time>
      </trkpt>
      <trkpt lat="45.97353" lon="4.79904">
        <ele>216</ele>
        <time>2018-10-23T08:57:41Z</time>
      </trkpt>
      <trkpt lat="45.97358" lon="4.79904">
        <ele>216</ele>
        <time>2018-10-23T08:57:42Z</time>
      </trkpt>
      <trkpt lat="45.97363" lon="4.79903">
        <ele>216</ele>
        <time>2018-10-23T08:57:43Z</time>
      </trkpt>
      <trkpt lat="45.97368" lon="4.79903">
        <ele>217</ele>
        <time>2018-10-23T08:57:44Z</time>
      </trkpt>
      <trkpt lat="45.97376" lon="4.79903">
        <ele>217</ele>
        <time>2018-10-23T08:57:46Z</time>
      </trkpt>
      <trkpt lat="45.9738" lon="4.79903">
        <ele>217</ele>
        <time>2018-10-23T08:57:47Z</time>
      </trkpt>
      <trkpt lat="45.97388" lon="4.79901">
        <ele>217</ele>
        <time>2018-10-23T08:57:49Z</time>
      </trkpt>
      <trkpt lat="45.97391" lon="4.799">
        <ele>217</ele>
        <time>2018-10-23T08:57:50Z</time>
      </trkpt>
      <trkpt lat="45.974" lon="4.799">
        <ele>217</ele>
        <time>2018-10-23T08:57:53Z</time>
      </trkpt>
      <trkpt lat="45.97405" lon="4.79899">
        <ele>217</ele>
        <time>2018-10-23T08:57:54Z</time>
      </trkpt>
      <trkpt lat="45.9741" lon="4.79899">
        <ele>217</ele>
        <time>2018-10-23T08:57:56Z</time>
      </trkpt>
      <trkpt lat="45.97415" lon="4.79899">
        <ele>217</ele>
        <time>2018-10-23T08:57:57Z</time>
      </trkpt>
      <trkpt lat="45.97424" lon="4.79898">
        <ele>219</ele>
        <time>2018-10-23T08:58:00Z</time>
      </trkpt>
      <trkpt lat="45.97429" lon="4.79897">
        <ele>219</ele>
        <time>2018-10-23T08:58:01Z</time>
      </trkpt>
      <trkpt lat="45.97436" lon="4.79896">
        <ele>220</ele>
        <time>2018-10-23T08:58:03Z</time>
      </trkpt>
      <trkpt lat="45.9744" lon="4.79896">
        <ele>220</ele>
        <time>2018-10-23T08:58:04Z</time>
      </trkpt>
      <trkpt lat="45.97448" lon="4.79896">
        <ele>220</ele>
        <time>2018-10-23T08:58:06Z</time>
      </trkpt>
      <trkpt lat="45.97451" lon="4.79896">
        <ele>220</ele>
        <time>2018-10-23T08:58:07Z</time>
      </trkpt>
      <trkpt lat="45.97457" lon="4.79894">
        <ele>220</ele>
        <time>2018-10-23T08:58:09Z</time>
      </trkpt>
      <trkpt lat="45.97462" lon="4.79893">
        <ele>221</ele>
        <time>2018-10-23T08:58:10Z</time>
      </trkpt>
      <trkpt lat="45.97471" lon="4.79893">
        <ele>221</ele>
        <time>2018-10-23T08:58:13Z</time>
      </trkpt>
      <trkpt lat="45.97474" lon="4.79893">
        <ele>221</ele>
        <time>2018-10-23T08:58:14Z</time>
      </trkpt>
      <trkpt lat="45.9748" lon="4.79892">
        <ele>221</ele>
        <time>2018-10-23T08:58:16Z</time>
      </trkpt>
      <trkpt lat="45.97483" lon="4.79892">
        <ele>221</ele>
        <time>2018-10-23T08:58:17Z</time>
      </trkpt>
      <trkpt lat="45.9749" lon="4.79891">
        <ele>221</ele>
        <time>2018-10-23T08:58:19Z</time>
      </trkpt>
      <trkpt lat="45.97494" lon="4.79891">
        <ele>221</ele>
        <time>2018-10-23T08:58:20Z</time>
      </trkpt>
      <trkpt lat="45.975" lon="4.7989">
        <ele>221</ele>
        <time>2018-10-23T08:58:22Z</time>
      </trkpt>
      <trkpt lat="45.97503" lon="4.7989">
        <ele>221</ele>
        <time>2018-10-23T08:58:23Z</time>
      </trkpt>
      <trkpt lat="45.9751" lon="4.7989">
        <ele>221</ele>
        <time>2018-10-23T08:58:25Z</time>
      </trkpt>
      <trkpt lat="45.97513" lon="4.7989">
        <ele>221</ele>
        <time>2018-10-23T08:58:26Z</time>
      </trkpt>
      <trkpt lat="45.97522" lon="4.79889">
        <ele>221</ele>
        <time>2018-10-23T08:58:29Z</time>
      </trkpt>
      <trkpt lat="45.97524" lon="4.79889">
        <ele>221</ele>
        <time>2018-10-23T08:58:30Z</time>
      </trkpt>
      <trkpt lat="45.97532" lon="4.79888">
        <ele>221</ele>
        <time>2018-10-23T08:58:33Z</time>
      </trkpt>
      <trkpt lat="45.97536" lon="4.79888">
        <ele>221</ele>
        <time>2018-10-23T08:58:34Z</time>
      </trkpt>
      <trkpt lat="45.97544" lon="4.79887">
        <ele>221</ele>
        <time>2018-10-23T08:58:37Z</time>
      </trkpt>
      <trkpt lat="45.97547" lon="4.79887">
        <ele>221</ele>
        <time>2018-10-23T08:58:38Z</time>
      </trkpt>
      <trkpt lat="45.97553" lon="4.79886">
        <ele>221</ele>
        <time>2018-10-23T08:58:40Z</time>
      </trkpt>
      <trkpt lat="45.97556" lon="4.79886">
        <ele>221</ele>
        <time>2018-10-23T08:58:41Z</time>
      </trkpt>
      <trkpt lat="45.97562" lon="4.79885">
        <ele>221</ele>
        <time>2018-10-23T08:58:43Z</time>
      </trkpt>
      <trkpt lat="45.97565" lon="4.79884">
        <ele>221</ele>
        <time>2018-10-23T08:58:44Z</time>
      </trkpt>
      <trkpt lat="45.97571" lon="4.79882">
        <ele>221</ele>
        <time>2018-10-23T08:58:46Z</time>
      </trkpt>
      <trkpt lat="45.97574" lon="4.79881">
        <ele>221</ele>
        <time>2018-10-23T08:58:47Z</time>
      </trkpt>
      <trkpt lat="45.97581" lon="4.79878">
        <ele>221</ele>
        <time>2018-10-23T08:58:49Z</time>
      </trkpt>
      <trkpt lat="45.97583" lon="4.79876">
        <ele>220</ele>
        <time>2018-10-23T08:58:50Z</time>
      </trkpt>
      <trkpt lat="45.9759" lon="4.79873">
        <ele>221</ele>
        <time>2018-10-23T08:58:52Z</time>
      </trkpt>
      <trkpt lat="45.97593" lon="4.79871">
        <ele>221</ele>
        <time>2018-10-23T08:58:53Z</time>
      </trkpt>
      <trkpt lat="45.97599" lon="4.79868">
        <ele>221</ele>
        <time>2018-10-23T08:58:55Z</time>
      </trkpt>
      <trkpt lat="45.97602" lon="4.79867">
        <ele>221</ele>
        <time>2018-10-23T08:58:56Z</time>
      </trkpt>
      <trkpt lat="45.97607" lon="4.79864">
        <ele>221</ele>
        <time>2018-10-23T08:58:58Z</time>
      </trkpt>
      <trkpt lat="45.9761" lon="4.79862">
        <ele>221</ele>
        <time>2018-10-23T08:58:59Z</time>
      </trkpt>
      <trkpt lat="45.97617" lon="4.79859">
        <ele>221</ele>
        <time>2018-10-23T08:59:01Z</time>
      </trkpt>
      <trkpt lat="45.9762" lon="4.79857">
        <ele>221</ele>
        <time>2018-10-23T08:59:02Z</time>
      </trkpt>
      <trkpt lat="45.97627" lon="4.79855">
        <ele>221</ele>
        <time>2018-10-23T08:59:04Z</time>
      </trkpt>
      <trkpt lat="45.9763" lon="4.79854">
        <ele>221</ele>
        <time>2018-10-23T08:59:05Z</time>
      </trkpt>
      <trkpt lat="45.97636" lon="4.79852">
        <ele>221</ele>
        <time>2018-10-23T08:59:06Z</time>
      </trkpt>
      <trkpt lat="45.9764" lon="4.79851">
        <ele>221</ele>
        <time>2018-10-23T08:59:07Z</time>
      </trkpt>
      <trkpt lat="45.97644" lon="4.7985">
        <ele>221</ele>
        <time>2018-10-23T08:59:09Z</time>
      </trkpt>
      <trkpt lat="45.9765" lon="4.79847">
        <ele>221</ele>
        <time>2018-10-23T08:59:10Z</time>
      </trkpt>
      <trkpt lat="45.97658" lon="4.79845">
        <ele>221</ele>
        <time>2018-10-23T08:59:12Z</time>
      </trkpt>
      <trkpt lat="45.97661" lon="4.79844">
        <ele>221</ele>
        <time>2018-10-23T08:59:13Z</time>
      </trkpt>
      <trkpt lat="45.9767" lon="4.79842">
        <ele>221</ele>
        <time>2018-10-23T08:59:15Z</time>
      </trkpt>
      <trkpt lat="45.97674" lon="4.79841">
        <ele>221</ele>
        <time>2018-10-23T08:59:16Z</time>
      </trkpt>
      <trkpt lat="45.97681" lon="4.79838">
        <ele>221</ele>
        <time>2018-10-23T08:59:18Z</time>
      </trkpt>
      <trkpt lat="45.97686" lon="4.79837">
        <ele>221</ele>
        <time>2018-10-23T08:59:19Z</time>
      </trkpt>
      <trkpt lat="45.97693" lon="4.79835">
        <ele>220</ele>
        <time>2018-10-23T08:59:21Z</time>
      </trkpt>
      <trkpt lat="45.97696" lon="4.79835">
        <ele>220</ele>
        <time>2018-10-23T08:59:22Z</time>
      </trkpt>
      <trkpt lat="45.97701" lon="4.79834">
        <ele>220</ele>
        <time>2018-10-23T08:59:24Z</time>
      </trkpt>
      <trkpt lat="45.97708" lon="4.79833">
        <ele>223</ele>
        <time>2018-10-23T08:59:25Z</time>
      </trkpt>
      <trkpt lat="45.97715" lon="4.79833">
        <ele>223</ele>
        <time>2018-10-23T08:59:27Z</time>
      </trkpt>
      <trkpt lat="45.97719" lon="4.79831">
        <ele>223</ele>
        <time>2018-10-23T08:59:28Z</time>
      </trkpt>
      <trkpt lat="45.97728" lon="4.79829">
        <ele>223</ele>
        <time>2018-10-23T08:59:30Z</time>
      </trkpt>
      <trkpt lat="45.97732" lon="4.79828">
        <ele>223</ele>
        <time>2018-10-23T08:59:31Z</time>
      </trkpt>
      <trkpt lat="45.97741" lon="4.79827">
        <ele>223</ele>
        <time>2018-10-23T08:59:33Z</time>
      </trkpt>
      <trkpt lat="45.97745" lon="4.79826">
        <ele>222</ele>
        <time>2018-10-23T08:59:34Z</time>
      </trkpt>
      <trkpt lat="45.9775" lon="4.79826">
        <ele>222</ele>
        <time>2018-10-23T08:59:35Z</time>
      </trkpt>
      <trkpt lat="45.97755" lon="4.79825">
        <ele>222</ele>
        <time>2018-10-23T08:59:36Z</time>
      </trkpt>
      <trkpt lat="45.97759" lon="4.79824">
        <ele>223</ele>
        <time>2018-10-23T08:59:37Z</time>
      </trkpt>
      <trkpt lat="45.97765" lon="4.79823">
        <ele>223</ele>
        <time>2018-10-23T08:59:38Z</time>
      </trkpt>
      <trkpt lat="45.97773" lon="4.79821">
        <ele>223</ele>
        <time>2018-10-23T08:59:40Z</time>
      </trkpt>
      <trkpt lat="45.97778" lon="4.7982">
        <ele>223</ele>
        <time>2018-10-23T08:59:41Z</time>
      </trkpt>
      <trkpt lat="45.97782" lon="4.79819">
        <ele>223</ele>
        <time>2018-10-23T08:59:42Z</time>
      </trkpt>
      <trkpt lat="45.97787" lon="4.79819">
        <ele>223</ele>
        <time>2018-10-23T08:59:43Z</time>
      </trkpt>
      <trkpt lat="45.97791" lon="4.79818">
        <ele>223</ele>
        <time>2018-10-23T08:59:44Z</time>
      </trkpt>
      <trkpt lat="45.97796" lon="4.79816">
        <ele>223</ele>
        <time>2018-10-23T08:59:45Z</time>
      </trkpt>
      <trkpt lat="45.978" lon="4.79816">
        <ele>223</ele>
        <time>2018-10-23T08:59:46Z</time>
      </trkpt>
      <trkpt lat="45.97805" lon="4.79815">
        <ele>223</ele>
        <time>2018-10-23T08:59:47Z</time>
      </trkpt>
      <trkpt lat="45.97814" lon="4.79812">
        <ele>223</ele>
        <time>2018-10-23T08:59:49Z</time>
      </trkpt>
      <trkpt lat="45.97818" lon="4.7981">
        <ele>223</ele>
        <time>2018-10-23T08:59:50Z</time>
      </trkpt>
      <trkpt lat="45.97823" lon="4.79809">
        <ele>223</ele>
        <time>2018-10-23T08:59:51Z</time>
      </trkpt>
      <trkpt lat="45.97828" lon="4.79809">
        <ele>223</ele>
        <time>2018-10-23T08:59:52Z</time>
      </trkpt>
      <trkpt lat="45.97835" lon="4.79805">
        <ele>224</ele>
        <time>2018-10-23T08:59:54Z</time>
      </trkpt>
      <trkpt lat="45.97839" lon="4.79805">
        <ele>224</ele>
        <time>2018-10-23T08:59:55Z</time>
      </trkpt>
      <trkpt lat="45.97848" lon="4.79803">
        <ele>224</ele>
        <time>2018-10-23T08:59:57Z</time>
      </trkpt>
      <trkpt lat="45.97852" lon="4.79801">
        <ele>224</ele>
        <time>2018-10-23T08:59:58Z</time>
      </trkpt>
      <trkpt lat="45.97861" lon="4.798">
        <ele>224</ele>
        <time>2018-10-23T09:00:00Z</time>
      </trkpt>
      <trkpt lat="45.97866" lon="4.798">
        <ele>224</ele>
        <time>2018-10-23T09:00:01Z</time>
      </trkpt>
      <trkpt lat="45.97872" lon="4.79799">
        <ele>224</ele>
        <time>2018-10-23T09:00:02Z</time>
      </trkpt>
      <trkpt lat="45.97876" lon="4.798">
        <ele>224</ele>
        <time>2018-10-23T09:00:03Z</time>
      </trkpt>
      <trkpt lat="45.97885" lon="4.79799">
        <ele>224</ele>
        <time>2018-10-23T09:00:05Z</time>
      </trkpt>
      <trkpt lat="45.97891" lon="4.798">
        <ele>224</ele>
        <time>2018-10-23T09:00:06Z</time>
      </trkpt>
      <trkpt lat="45.97896" lon="4.79799">
        <ele>224</ele>
        <time>2018-10-23T09:00:07Z</time>
      </trkpt>
      <trkpt lat="45.97901" lon="4.79797">
        <ele>224</ele>
        <time>2018-10-23T09:00:08Z</time>
      </trkpt>
      <trkpt lat="45.97907" lon="4.79796">
        <ele>224</ele>
        <time>2018-10-23T09:00:09Z</time>
      </trkpt>
      <trkpt lat="45.97913" lon="4.79792">
        <ele>224</ele>
        <time>2018-10-23T09:00:10Z</time>
      </trkpt>
      <trkpt lat="45.97919" lon="4.79792">
        <ele>224</ele>
        <time>2018-10-23T09:00:11Z</time>
      </trkpt>
      <trkpt lat="45.97925" lon="4.79789">
        <ele>224</ele>
        <time>2018-10-23T09:00:12Z</time>
      </trkpt>
      <trkpt lat="45.9793" lon="4.79789">
        <ele>224</ele>
        <time>2018-10-23T09:00:13Z</time>
      </trkpt>
      <trkpt lat="45.97935" lon="4.79789">
        <ele>224</ele>
        <time>2018-10-23T09:00:14Z</time>
      </trkpt>
      <trkpt lat="45.9794" lon="4.79788">
        <ele>224</ele>
        <time>2018-10-23T09:00:15Z</time>
      </trkpt>
      <trkpt lat="45.97945" lon="4.79787">
        <ele>224</ele>
        <time>2018-10-23T09:00:16Z</time>
      </trkpt>
      <trkpt lat="45.97951" lon="4.79786">
        <ele>224</ele>
        <time>2018-10-23T09:00:17Z</time>
      </trkpt>
      <trkpt lat="45.97956" lon="4.79785">
        <ele>224</ele>
        <time>2018-10-23T09:00:18Z</time>
      </trkpt>
      <trkpt lat="45.97961" lon="4.79784">
        <ele>224</ele>
        <time>2018-10-23T09:00:19Z</time>
      </trkpt>
      <trkpt lat="45.97966" lon="4.79783">
        <ele>224</ele>
        <time>2018-10-23T09:00:20Z</time>
      </trkpt>
      <trkpt lat="45.97971" lon="4.79782">
        <ele>224</ele>
        <time>2018-10-23T09:00:21Z</time>
      </trkpt>
      <trkpt lat="45.97976" lon="4.79781">
        <ele>224</ele>
        <time>2018-10-23T09:00:22Z</time>
      </trkpt>
      <trkpt lat="45.97982" lon="4.79781">
        <ele>224</ele>
        <time>2018-10-23T09:00:23Z</time>
      </trkpt>
      <trkpt lat="45.97987" lon="4.79781">
        <ele>224</ele>
        <time>2018-10-23T09:00:24Z</time>
      </trkpt>
      <trkpt lat="45.97992" lon="4.79781">
        <ele>224</ele>
        <time>2018-10-23T09:00:25Z</time>
      </trkpt>
      <trkpt lat="45.97997" lon="4.7978">
        <ele>224</ele>
        <time>2018-10-23T09:00:26Z</time>
      </trkpt>
      <trkpt lat="45.98002" lon="4.7978">
        <ele>223</ele>
        <time>2018-10-23T09:00:27Z</time>
      </trkpt>
      <trkpt lat="45.98008" lon="4.79779">
        <ele>223</ele>
        <time>2018-10-23T09:00:28Z</time>
      </trkpt>
      <trkpt lat="45.98013" lon="4.79779">
        <ele>223</ele>
        <time>2018-10-23T09:00:29Z</time>
      </trkpt>
      <trkpt lat="45.98017" lon="4.79779">
        <ele>223</ele>
        <time>2018-10-23T09:00:30Z</time>
      </trkpt>
      <trkpt lat="45.98023" lon="4.79779">
        <ele>223</ele>
        <time>2018-10-23T09:00:31Z</time>
      </trkpt>
      <trkpt lat="45.98027" lon="4.79779">
        <ele>223</ele>
        <time>2018-10-23T09:00:32Z</time>
      </trkpt>
      <trkpt lat="45.98033" lon="4.79777">
        <ele>223</ele>
        <time>2018-10-23T09:00:33Z</time>
      </trkpt>
      <trkpt lat="45.98037" lon="4.79776">
        <ele>223</ele>
        <time>2018-10-23T09:00:34Z</time>
      </trkpt>
      <trkpt lat="45.98046" lon="4.79773">
        <ele>223</ele>
        <time>2018-10-23T09:00:36Z</time>
      </trkpt>
      <trkpt lat="45.9805" lon="4.79771">
        <ele>223</ele>
        <time>2018-10-23T09:00:37Z</time>
      </trkpt>
      <trkpt lat="45.98059" lon="4.79771">
        <ele>223</ele>
        <time>2018-10-23T09:00:39Z</time>
      </trkpt>
      <trkpt lat="45.98063" lon="4.7977">
        <ele>223</ele>
        <time>2018-10-23T09:00:40Z</time>
      </trkpt>
      <trkpt lat="45.98068" lon="4.7977">
        <ele>223</ele>
        <time>2018-10-23T09:00:41Z</time>
      </trkpt>
      <trkpt lat="45.98072" lon="4.79769">
        <ele>223</ele>
        <time>2018-10-23T09:00:42Z</time>
      </trkpt>
      <trkpt lat="45.98077" lon="4.79769">
        <ele>223</ele>
        <time>2018-10-23T09:00:43Z</time>
      </trkpt>
      <trkpt lat="45.98082" lon="4.79767">
        <ele>223</ele>
        <time>2018-10-23T09:00:44Z</time>
      </trkpt>
      <trkpt lat="45.98091" lon="4.79766">
        <ele>223</ele>
        <time>2018-10-23T09:00:46Z</time>
      </trkpt>
      <trkpt lat="45.98095" lon="4.79765">
        <ele>223</ele>
        <time>2018-10-23T09:00:47Z</time>
      </trkpt>
      <trkpt lat="45.98102" lon="4.79764">
        <ele>224</ele>
        <time>2018-10-23T09:00:49Z</time>
      </trkpt>
      <trkpt lat="45.98105" lon="4.79764">
        <ele>224</ele>
        <time>2018-10-23T09:00:50Z</time>
      </trkpt>
      <trkpt lat="45.98113" lon="4.79763">
        <ele>224</ele>
        <time>2018-10-23T09:00:52Z</time>
      </trkpt>
      <trkpt lat="45.98117" lon="4.79762">
        <ele>224</ele>
        <time>2018-10-23T09:00:53Z</time>
      </trkpt>
      <trkpt lat="45.98124" lon="4.7976">
        <ele>224</ele>
        <time>2018-10-23T09:00:55Z</time>
      </trkpt>
      <trkpt lat="45.98128" lon="4.7976">
        <ele>224</ele>
        <time>2018-10-23T09:00:56Z</time>
      </trkpt>
      <trkpt lat="45.98136" lon="4.79758">
        <ele>224</ele>
        <time>2018-10-23T09:00:58Z</time>
      </trkpt>
      <trkpt lat="45.9814" lon="4.79758">
        <ele>224</ele>
        <time>2018-10-23T09:00:59Z</time>
      </trkpt>
      <trkpt lat="45.98148" lon="4.79757">
        <ele>225</ele>
        <time>2018-10-23T09:01:01Z</time>
      </trkpt>
      <trkpt lat="45.98152" lon="4.79757">
        <ele>225</ele>
        <time>2018-10-23T09:01:02Z</time>
      </trkpt>
      <trkpt lat="45.98159" lon="4.79758">
        <ele>225</ele>
        <time>2018-10-23T09:01:04Z</time>
      </trkpt>
      <trkpt lat="45.98163" lon="4.7976">
        <ele>225</ele>
        <time>2018-10-23T09:01:05Z</time>
      </trkpt>
      <trkpt lat="45.9817" lon="4.79767">
        <ele>226</ele>
        <time>2018-10-23T09:01:07Z</time>
      </trkpt>
      <trkpt lat="45.98172" lon="4.79771">
        <ele>226</ele>
        <time>2018-10-23T09:01:08Z</time>
      </trkpt>
      <trkpt lat="45.98177" lon="4.79781">
        <ele>226</ele>
        <time>2018-10-23T09:01:10Z</time>
      </trkpt>
      <trkpt lat="45.98179" lon="4.79787">
        <ele>226</ele>
        <time>2018-10-23T09:01:11Z</time>
      </trkpt>
      <trkpt lat="45.9818" lon="4.79797">
        <ele>226</ele>
        <time>2018-10-23T09:01:12Z</time>
      </trkpt>
      <trkpt lat="45.98183" lon="4.79803">
        <ele>226</ele>
        <time>2018-10-23T09:01:13Z</time>
      </trkpt>
      <trkpt lat="45.98185" lon="4.7981">
        <ele>225</ele>
        <time>2018-10-23T09:01:14Z</time>
      </trkpt>
      <trkpt lat="45.98187" lon="4.79816">
        <ele>225</ele>
        <time>2018-10-23T09:01:15Z</time>
      </trkpt>
      <trkpt lat="45.98191" lon="4.79823">
        <ele>225</ele>
        <time>2018-10-23T09:01:16Z</time>
      </trkpt>
      <trkpt lat="45.98193" lon="4.7983">
        <ele>225</ele>
        <time>2018-10-23T09:01:17Z</time>
      </trkpt>
      <trkpt lat="45.98195" lon="4.79838">
        <ele>225</ele>
        <time>2018-10-23T09:01:18Z</time>
      </trkpt>
      <trkpt lat="45.98197" lon="4.79845">
        <ele>225</ele>
        <time>2018-10-23T09:01:19Z</time>
      </trkpt>
      <trkpt lat="45.982" lon="4.79853">
        <ele>225</ele>
        <time>2018-10-23T09:01:20Z</time>
      </trkpt>
      <trkpt lat="45.98202" lon="4.79861">
        <ele>225</ele>
        <time>2018-10-23T09:01:21Z</time>
      </trkpt>
      <trkpt lat="45.98204" lon="4.79869">
        <ele>225</ele>
        <time>2018-10-23T09:01:22Z</time>
      </trkpt>
      <trkpt lat="45.98207" lon="4.79876">
        <ele>225</ele>
        <time>2018-10-23T09:01:23Z</time>
      </trkpt>
      <trkpt lat="45.9821" lon="4.79883">
        <ele>225</ele>
        <time>2018-10-23T09:01:24Z</time>
      </trkpt>
      <trkpt lat="45.98212" lon="4.79891">
        <ele>225</ele>
        <time>2018-10-23T09:01:25Z</time>
      </trkpt>
      <trkpt lat="45.98215" lon="4.79898">
        <ele>225</ele>
        <time>2018-10-23T09:01:26Z</time>
      </trkpt>
      <trkpt lat="45.98219" lon="4.79905">
        <ele>225</ele>
        <time>2018-10-23T09:01:27Z</time>
      </trkpt>
      <trkpt lat="45.98222" lon="4.79913">
        <ele>225</ele>
        <time>2018-10-23T09:01:28Z</time>
      </trkpt>
      <trkpt lat="45.98225" lon="4.79921">
        <ele>225</ele>
        <time>2018-10-23T09:01:29Z</time>
      </trkpt>
      <trkpt lat="45.98228" lon="4.79928">
        <ele>225</ele>
        <time>2018-10-23T09:01:30Z</time>
      </trkpt>
      <trkpt lat="45.98229" lon="4.79933">
        <ele>225</ele>
        <time>2018-10-23T09:01:31Z</time>
      </trkpt>
      <trkpt lat="45.98232" lon="4.7994">
        <ele>225</ele>
        <time>2018-10-23T09:01:32Z</time>
      </trkpt>
      <trkpt lat="45.98234" lon="4.79946">
        <ele>225</ele>
        <time>2018-10-23T09:01:33Z</time>
      </trkpt>
      <trkpt lat="45.98237" lon="4.79953">
        <ele>225</ele>
        <time>2018-10-23T09:01:34Z</time>
      </trkpt>
      <trkpt lat="45.98239" lon="4.79959">
        <ele>225</ele>
        <time>2018-10-23T09:01:35Z</time>
      </trkpt>
      <trkpt lat="45.98242" lon="4.79966">
        <ele>225</ele>
        <time>2018-10-23T09:01:36Z</time>
      </trkpt>
      <trkpt lat="45.98244" lon="4.79973">
        <ele>225</ele>
        <time>2018-10-23T09:01:37Z</time>
      </trkpt>
      <trkpt lat="45.98247" lon="4.7998">
        <ele>225</ele>
        <time>2018-10-23T09:01:38Z</time>
      </trkpt>
      <trkpt lat="45.98248" lon="4.79986">
        <ele>226</ele>
        <time>2018-10-23T09:01:39Z</time>
      </trkpt>
      <trkpt lat="45.98249" lon="4.79993">
        <ele>226</ele>
        <time>2018-10-23T09:01:40Z</time>
      </trkpt>
      <trkpt lat="45.98252" lon="4.79999">
        <ele>226</ele>
        <time>2018-10-23T09:01:41Z</time>
      </trkpt>
      <trkpt lat="45.98254" lon="4.80005">
        <ele>227</ele>
        <time>2018-10-23T09:01:42Z</time>
      </trkpt>
      <trkpt lat="45.98256" lon="4.80011">
        <ele>227</ele>
        <time>2018-10-23T09:01:43Z</time>
      </trkpt>
      <trkpt lat="45.9826" lon="4.80022">
        <ele>228</ele>
        <time>2018-10-23T09:01:45Z</time>
      </trkpt>
      <trkpt lat="45.98262" lon="4.80028">
        <ele>228</ele>
        <time>2018-10-23T09:01:46Z</time>
      </trkpt>
      <trkpt lat="45.98264" lon="4.80034">
        <ele>228</ele>
        <time>2018-10-23T09:01:47Z</time>
      </trkpt>
      <trkpt lat="45.98267" lon="4.80041">
        <ele>229</ele>
        <time>2018-10-23T09:01:48Z</time>
      </trkpt>
      <trkpt lat="45.98269" lon="4.80047">
        <ele>229</ele>
        <time>2018-10-23T09:01:49Z</time>
      </trkpt>
      <trkpt lat="45.98272" lon="4.80053">
        <ele>229</ele>
        <time>2018-10-23T09:01:50Z</time>
      </trkpt>
      <trkpt lat="45.98275" lon="4.8006">
        <ele>229</ele>
        <time>2018-10-23T09:01:51Z</time>
      </trkpt>
      <trkpt lat="45.9828" lon="4.80064">
        <ele>229</ele>
        <time>2018-10-23T09:01:52Z</time>
      </trkpt>
      <trkpt lat="45.98282" lon="4.80071">
        <ele>229</ele>
        <time>2018-10-23T09:01:53Z</time>
      </trkpt>
      <trkpt lat="45.98284" lon="4.80077">
        <ele>229</ele>
        <time>2018-10-23T09:01:54Z</time>
      </trkpt>
      <trkpt lat="45.98286" lon="4.80083">
        <ele>229</ele>
        <time>2018-10-23T09:01:55Z</time>
      </trkpt>
      <trkpt lat="45.98288" lon="4.80089">
        <ele>228</ele>
        <time>2018-10-23T09:01:56Z</time>
      </trkpt>
      <trkpt lat="45.9829" lon="4.80095">
        <ele>228</ele>
        <time>2018-10-23T09:01:57Z</time>
      </trkpt>
      <trkpt lat="45.98293" lon="4.80101">
        <ele>228</ele>
        <time>2018-10-23T09:01:58Z</time>
      </trkpt>
      <trkpt lat="45.98295" lon="4.80108">
        <ele>228</ele>
        <time>2018-10-23T09:01:59Z</time>
      </trkpt>
      <trkpt lat="45.98297" lon="4.80114">
        <ele>228</ele>
        <time>2018-10-23T09:02:00Z</time>
      </trkpt>
      <trkpt lat="45.98299" lon="4.80122">
        <ele>228</ele>
        <time>2018-10-23T09:02:01Z</time>
      </trkpt>
      <trkpt lat="45.98304" lon="4.80125">
        <ele>228</ele>
        <time>2018-10-23T09:02:02Z</time>
      </trkpt>
      <trkpt lat="45.98305" lon="4.80131">
        <ele>228</ele>
        <time>2018-10-23T09:02:03Z</time>
      </trkpt>
      <trkpt lat="45.98307" lon="4.80138">
        <ele>228</ele>
        <time>2018-10-23T09:02:04Z</time>
      </trkpt>
      <trkpt lat="45.98311" lon="4.80148">
        <ele>228</ele>
        <time>2018-10-23T09:02:06Z</time>
      </trkpt>
      <trkpt lat="45.98313" lon="4.80154">
        <ele>228</ele>
        <time>2018-10-23T09:02:07Z</time>
      </trkpt>
      <trkpt lat="45.98315" lon="4.8016">
        <ele>228</ele>
        <time>2018-10-23T09:02:08Z</time>
      </trkpt>
      <trkpt lat="45.98316" lon="4.80166">
        <ele>228</ele>
        <time>2018-10-23T09:02:09Z</time>
      </trkpt>
      <trkpt lat="45.9832" lon="4.80177">
        <ele>227</ele>
        <time>2018-10-23T09:02:11Z</time>
      </trkpt>
      <trkpt lat="45.98322" lon="4.80183">
        <ele>227</ele>
        <time>2018-10-23T09:02:12Z</time>
      </trkpt>
      <trkpt lat="45.98324" lon="4.80189">
        <ele>227</ele>
        <time>2018-10-23T09:02:13Z</time>
      </trkpt>
      <trkpt lat="45.98326" lon="4.80195">
        <ele>227</ele>
        <time>2018-10-23T09:02:14Z</time>
      </trkpt>
      <trkpt lat="45.98328" lon="4.80205">
        <ele>227</ele>
        <time>2018-10-23T09:02:16Z</time>
      </trkpt>
      <trkpt lat="45.9833" lon="4.8021">
        <ele>227</ele>
        <time>2018-10-23T09:02:17Z</time>
      </trkpt>
      <trkpt lat="45.98334" lon="4.80219">
        <ele>230</ele>
        <time>2018-10-23T09:02:19Z</time>
      </trkpt>
      <trkpt lat="45.98333" lon="4.80225">
        <ele>228</ele>
        <time>2018-10-23T09:02:20Z</time>
      </trkpt>
      <trkpt lat="45.98331" lon="4.80231">
        <ele>228</ele>
        <time>2018-10-23T09:02:21Z</time>
      </trkpt>
      <trkpt lat="45.98329" lon="4.80237">
        <ele>228</ele>
        <time>2018-10-23T09:02:22Z</time>
      </trkpt>
      <trkpt lat="45.98326" lon="4.80244">
        <ele>229</ele>
        <time>2018-10-23T09:02:23Z</time>
      </trkpt>
      <trkpt lat="45.98326" lon="4.8025">
        <ele>229</ele>
        <time>2018-10-23T09:02:24Z</time>
      </trkpt>
      <trkpt lat="45.98325" lon="4.80257">
        <ele>228</ele>
        <time>2018-10-23T09:02:25Z</time>
      </trkpt>
      <trkpt lat="45.98323" lon="4.80264">
        <ele>228</ele>
        <time>2018-10-23T09:02:26Z</time>
      </trkpt>
      <trkpt lat="45.98322" lon="4.80271">
        <ele>227</ele>
        <time>2018-10-23T09:02:27Z</time>
      </trkpt>
      <trkpt lat="45.98321" lon="4.80278">
        <ele>227</ele>
        <time>2018-10-23T09:02:28Z</time>
      </trkpt>
      <trkpt lat="45.98321" lon="4.80287">
        <ele>227</ele>
        <time>2018-10-23T09:02:29Z</time>
      </trkpt>
      <trkpt lat="45.98319" lon="4.80294">
        <ele>226</ele>
        <time>2018-10-23T09:02:30Z</time>
      </trkpt>
      <trkpt lat="45.98317" lon="4.80302">
        <ele>226</ele>
        <time>2018-10-23T09:02:31Z</time>
      </trkpt>
      <trkpt lat="45.98315" lon="4.80309">
        <ele>227</ele>
        <time>2018-10-23T09:02:32Z</time>
      </trkpt>
      <trkpt lat="45.98313" lon="4.80318">
        <ele>227</ele>
        <time>2018-10-23T09:02:33Z</time>
      </trkpt>
      <trkpt lat="45.98312" lon="4.80328">
        <ele>227</ele>
        <time>2018-10-23T09:02:34Z</time>
      </trkpt>
      <trkpt lat="45.98311" lon="4.80337">
        <ele>226</ele>
        <time>2018-10-23T09:02:35Z</time>
      </trkpt>
      <trkpt lat="45.98309" lon="4.80345">
        <ele>226</ele>
        <time>2018-10-23T09:02:36Z</time>
      </trkpt>
      <trkpt lat="45.98308" lon="4.80353">
        <ele>226</ele>
        <time>2018-10-23T09:02:37Z</time>
      </trkpt>
      <trkpt lat="45.98305" lon="4.80361">
        <ele>225</ele>
        <time>2018-10-23T09:02:38Z</time>
      </trkpt>
      <trkpt lat="45.98304" lon="4.8037">
        <ele>225</ele>
        <time>2018-10-23T09:02:39Z</time>
      </trkpt>
      <trkpt lat="45.98302" lon="4.80379">
        <ele>225</ele>
        <time>2018-10-23T09:02:40Z</time>
      </trkpt>
      <trkpt lat="45.983" lon="4.80388">
        <ele>225</ele>
        <time>2018-10-23T09:02:41Z</time>
      </trkpt>
      <trkpt lat="45.98298" lon="4.80396">
        <ele>225</ele>
        <time>2018-10-23T09:02:42Z</time>
      </trkpt>
      <trkpt lat="45.98296" lon="4.80405">
        <ele>224</ele>
        <time>2018-10-23T09:02:43Z</time>
      </trkpt>
      <trkpt lat="45.98294" lon="4.80415">
        <ele>224</ele>
        <time>2018-10-23T09:02:44Z</time>
      </trkpt>
      <trkpt lat="45.98292" lon="4.80424">
        <ele>224</ele>
        <time>2018-10-23T09:02:45Z</time>
      </trkpt>
      <trkpt lat="45.98291" lon="4.80434">
        <ele>224</ele>
        <time>2018-10-23T09:02:46Z</time>
      </trkpt>
      <trkpt lat="45.98291" lon="4.80446">
        <ele>224</ele>
        <time>2018-10-23T09:02:47Z</time>
      </trkpt>
      <trkpt lat="45.98289" lon="4.80456">
        <ele>224</ele>
        <time>2018-10-23T09:02:48Z</time>
      </trkpt>
      <trkpt lat="45.98287" lon="4.80465">
        <ele>224</ele>
        <time>2018-10-23T09:02:49Z</time>
      </trkpt>
      <trkpt lat="45.98285" lon="4.80474">
        <ele>223</ele>
        <time>2018-10-23T09:02:50Z</time>
      </trkpt>
      <trkpt lat="45.98282" lon="4.80485">
        <ele>223</ele>
        <time>2018-10-23T09:02:51Z</time>
      </trkpt>
      <trkpt lat="45.98279" lon="4.80493">
        <ele>223</ele>
        <time>2018-10-23T09:02:52Z</time>
      </trkpt>
      <trkpt lat="45.98277" lon="4.80502">
        <ele>224</ele>
        <time>2018-10-23T09:02:53Z</time>
      </trkpt>
      <trkpt lat="45.98274" lon="4.8051">
        <ele>224</ele>
        <time>2018-10-23T09:02:54Z</time>
      </trkpt>
      <trkpt lat="45.98271" lon="4.80518">
        <ele>224</ele>
        <time>2018-10-23T09:02:55Z</time>
      </trkpt>
      <trkpt lat="45.98269" lon="4.80526">
        <ele>224</ele>
        <time>2018-10-23T09:02:56Z</time>
      </trkpt>
      <trkpt lat="45.98267" lon="4.80533">
        <ele>224</ele>
        <time>2018-10-23T09:02:57Z</time>
      </trkpt>
      <trkpt lat="45.98266" lon="4.8054">
        <ele>224</ele>
        <time>2018-10-23T09:02:58Z</time>
      </trkpt>
      <trkpt lat="45.98264" lon="4.8055">
        <ele>224</ele>
        <time>2018-10-23T09:02:59Z</time>
      </trkpt>
      <trkpt lat="45.98263" lon="4.80558">
        <ele>224</ele>
        <time>2018-10-23T09:03:00Z</time>
      </trkpt>
      <trkpt lat="45.98261" lon="4.80565">
        <ele>224</ele>
        <time>2018-10-23T09:03:01Z</time>
      </trkpt>
      <trkpt lat="45.98259" lon="4.80571">
        <ele>224</ele>
        <time>2018-10-23T09:03:02Z</time>
      </trkpt>
      <trkpt lat="45.98257" lon="4.80577">
        <ele>224</ele>
        <time>2018-10-23T09:03:03Z</time>
      </trkpt>
      <trkpt lat="45.98256" lon="4.80583">
        <ele>224</ele>
        <time>2018-10-23T09:03:04Z</time>
      </trkpt>
      <trkpt lat="45.98254" lon="4.8059">
        <ele>224</ele>
        <time>2018-10-23T09:03:05Z</time>
      </trkpt>
      <trkpt lat="45.98251" lon="4.80596">
        <ele>224</ele>
        <time>2018-10-23T09:03:06Z</time>
      </trkpt>
      <trkpt lat="45.98249" lon="4.80603">
        <ele>224</ele>
        <time>2018-10-23T09:03:07Z</time>
      </trkpt>
      <trkpt lat="45.98247" lon="4.8061">
        <ele>224</ele>
        <time>2018-10-23T09:03:08Z</time>
      </trkpt>
      <trkpt lat="45.98244" lon="4.80617">
        <ele>224</ele>
        <time>2018-10-23T09:03:09Z</time>
      </trkpt>
      <trkpt lat="45.98242" lon="4.80623">
        <ele>224</ele>
        <time>2018-10-23T09:03:10Z</time>
      </trkpt>
      <trkpt lat="45.9824" lon="4.8063">
        <ele>224</ele>
        <time>2018-10-23T09:03:11Z</time>
      </trkpt>
      <trkpt lat="45.98238" lon="4.80636">
        <ele>224</ele>
        <time>2018-10-23T09:03:12Z</time>
      </trkpt>
      <trkpt lat="45.98236" lon="4.80642">
        <ele>223</ele>
        <time>2018-10-23T09:03:13Z</time>
      </trkpt>
      <trkpt lat="45.98233" lon="4.80648">
        <ele>223</ele>
        <time>2018-10-23T09:03:14Z</time>
      </trkpt>
      <trkpt lat="45.98229" lon="4.80659">
        <ele>223</ele>
        <time>2018-10-23T09:03:16Z</time>
      </trkpt>
      <trkpt lat="45.98227" lon="4.80664">
        <ele>223</ele>
        <time>2018-10-23T09:03:17Z</time>
      </trkpt>
      <trkpt lat="45.98222" lon="4.80673">
        <ele>224</ele>
        <time>2018-10-23T09:03:19Z</time>
      </trkpt>
      <trkpt lat="45.9822" lon="4.80675">
        <ele>224</ele>
        <time>2018-10-23T09:03:20Z</time>
      </trkpt>
      <trkpt lat="45.98213" lon="4.80682">
        <ele>224</ele>
        <time>2018-10-23T09:03:22Z</time>
      </trkpt>
      <trkpt lat="45.98211" lon="4.80683">
        <ele>224</ele>
        <time>2018-10-23T09:03:23Z</time>
      </trkpt>
      <trkpt lat="45.98207" lon="4.80686">
        <ele>224</ele>
        <time>2018-10-23T09:03:24Z</time>
      </trkpt>
      <trkpt lat="45.98202" lon="4.80687">
        <ele>225</ele>
        <time>2018-10-23T09:03:25Z</time>
      </trkpt>
      <trkpt lat="45.98195" lon="4.80691">
        <ele>225</ele>
        <time>2018-10-23T09:03:27Z</time>
      </trkpt>
      <trkpt lat="45.98191" lon="4.80692">
        <ele>225</ele>
        <time>2018-10-23T09:03:28Z</time>
      </trkpt>
      <trkpt lat="45.98183" lon="4.80695">
        <ele>225</ele>
        <time>2018-10-23T09:03:30Z</time>
      </trkpt>
      <trkpt lat="45.98179" lon="4.80696">
        <ele>225</ele>
        <time>2018-10-23T09:03:31Z</time>
      </trkpt>
      <trkpt lat="45.9817" lon="4.80697">
        <ele>225</ele>
        <time>2018-10-23T09:03:33Z</time>
      </trkpt>
      <trkpt lat="45.98166" lon="4.80697">
        <ele>228</ele>
        <time>2018-10-23T09:03:34Z</time>
      </trkpt>
      <trkpt lat="45.98157" lon="4.80698">
        <ele>228</ele>
        <time>2018-10-23T09:03:36Z</time>
      </trkpt>
      <trkpt lat="45.98153" lon="4.80698">
        <ele>228</ele>
        <time>2018-10-23T09:03:37Z</time>
      </trkpt>
      <trkpt lat="45.98145" lon="4.80699">
        <ele>228</ele>
        <time>2018-10-23T09:03:39Z</time>
      </trkpt>
      <trkpt lat="45.98141" lon="4.80699">
        <ele>228</ele>
        <time>2018-10-23T09:03:40Z</time>
      </trkpt>
      <trkpt lat="45.98133" lon="4.80699">
        <ele>228</ele>
        <time>2018-10-23T09:03:42Z</time>
      </trkpt>
      <trkpt lat="45.98129" lon="4.80699">
        <ele>228</ele>
        <time>2018-10-23T09:03:43Z</time>
      </trkpt>
      <trkpt lat="45.98121" lon="4.807">
        <ele>228</ele>
        <time>2018-10-23T09:03:45Z</time>
      </trkpt>
      <trkpt lat="45.98118" lon="4.807">
        <ele>228</ele>
        <time>2018-10-23T09:03:46Z</time>
      </trkpt>
      <trkpt lat="45.98113" lon="4.807">
        <ele>228</ele>
        <time>2018-10-23T09:03:48Z</time>
      </trkpt>
      <trkpt lat="45.98106" lon="4.80698">
        <ele>228</ele>
        <time>2018-10-23T09:03:49Z</time>
      </trkpt>
      <trkpt lat="45.98098" lon="4.80697">
        <ele>228</ele>
        <time>2018-10-23T09:03:51Z</time>
      </trkpt>
      <trkpt lat="45.98095" lon="4.80697">
        <ele>228</ele>
        <time>2018-10-23T09:03:52Z</time>
      </trkpt>
      <trkpt lat="45.98087" lon="4.80697">
        <ele>228</ele>
        <time>2018-10-23T09:03:54Z</time>
      </trkpt>
      <trkpt lat="45.98083" lon="4.80697">
        <ele>230</ele>
        <time>2018-10-23T09:03:55Z</time>
      </trkpt>
      <trkpt lat="45.98077" lon="4.80697">
        <ele>230</ele>
        <time>2018-10-23T09:03:57Z</time>
      </trkpt>
      <trkpt lat="45.98072" lon="4.80698">
        <ele>230</ele>
        <time>2018-10-23T09:03:58Z</time>
      </trkpt>
      <trkpt lat="45.98063" lon="4.80699">
        <ele>230</ele>
        <time>2018-10-23T09:04:01Z</time>
      </trkpt>
      <trkpt lat="45.9806" lon="4.807">
        <ele>230</ele>
        <time>2018-10-23T09:04:02Z</time>
      </trkpt>
      <trkpt lat="45.98052" lon="4.80703">
        <ele>230</ele>
        <time>2018-10-23T09:04:04Z</time>
      </trkpt>
      <trkpt lat="45.98049" lon="4.80704">
        <ele>230</ele>
        <time>2018-10-23T09:04:05Z</time>
      </trkpt>
      <trkpt lat="45.98043" lon="4.80706">
        <ele>230</ele>
        <time>2018-10-23T09:04:07Z</time>
      </trkpt>
      <trkpt lat="45.98039" lon="4.80707">
        <ele>231</ele>
        <time>2018-10-23T09:04:08Z</time>
      </trkpt>
      <trkpt lat="45.98034" lon="4.8071">
        <ele>231</ele>
        <time>2018-10-23T09:04:09Z</time>
      </trkpt>
      <trkpt lat="45.98031" lon="4.80713">
        <ele>231</ele>
        <time>2018-10-23T09:04:10Z</time>
      </trkpt>
      <trkpt lat="45.98029" lon="4.80722">
        <ele>231</ele>
        <time>2018-10-23T09:04:13Z</time>
      </trkpt>
      <trkpt lat="45.98029" lon="4.80727">
        <ele>231</ele>
        <time>2018-10-23T09:04:14Z</time>
      </trkpt>
      <trkpt lat="45.98032" lon="4.80736">
        <ele>231</ele>
        <time>2018-10-23T09:04:17Z</time>
      </trkpt>
      <trkpt lat="45.98033" lon="4.80739">
        <ele>231</ele>
        <time>2018-10-23T09:04:18Z</time>
      </trkpt>
      <trkpt lat="45.98036" lon="4.80748">
        <ele>231</ele>
        <time>2018-10-23T09:04:21Z</time>
      </trkpt>
      <trkpt lat="45.98037" lon="4.80751">
        <ele>233</ele>
        <time>2018-10-23T09:04:22Z</time>
      </trkpt>
      <trkpt lat="45.98039" lon="4.80762">
        <ele>233</ele>
        <time>2018-10-23T09:04:25Z</time>
      </trkpt>
      <trkpt lat="45.9804" lon="4.80766">
        <ele>233</ele>
        <time>2018-10-23T09:04:26Z</time>
      </trkpt>
      <trkpt lat="45.98043" lon="4.80777">
        <ele>233</ele>
        <time>2018-10-23T09:04:29Z</time>
      </trkpt>
      <trkpt lat="45.98045" lon="4.80781">
        <ele>233</ele>
        <time>2018-10-23T09:04:30Z</time>
      </trkpt>
      <trkpt lat="45.98048" lon="4.80792">
        <ele>233</ele>
        <time>2018-10-23T09:04:33Z</time>
      </trkpt>
      <trkpt lat="45.98049" lon="4.80796">
        <ele>233</ele>
        <time>2018-10-23T09:04:34Z</time>
      </trkpt>
      <trkpt lat="45.98051" lon="4.80807">
        <ele>234</ele>
        <time>2018-10-23T09:04:37Z</time>
      </trkpt>
      <trkpt lat="45.98052" lon="4.80811">
        <ele>234</ele>
        <time>2018-10-23T09:04:38Z</time>
      </trkpt>
      <trkpt lat="45.98055" lon="4.8082">
        <ele>234</ele>
        <time>2018-10-23T09:04:40Z</time>
      </trkpt>
      <trkpt lat="45.98056" lon="4.80824">
        <ele>234</ele>
        <time>2018-10-23T09:04:41Z</time>
      </trkpt>
      <trkpt lat="45.98059" lon="4.80835">
        <ele>236</ele>
        <time>2018-10-23T09:04:44Z</time>
      </trkpt>
      <trkpt lat="45.9806" lon="4.80838">
        <ele>236</ele>
        <time>2018-10-23T09:04:45Z</time>
      </trkpt>
      <trkpt lat="45.98064" lon="4.80848">
        <ele>236</ele>
        <time>2018-10-23T09:04:48Z</time>
      </trkpt>
      <trkpt lat="45.98065" lon="4.80851">
        <ele>236</ele>
        <time>2018-10-23T09:04:49Z</time>
      </trkpt>
      <trkpt lat="45.98067" lon="4.80862">
        <ele>237</ele>
        <time>2018-10-23T09:04:52Z</time>
      </trkpt>
      <trkpt lat="45.98068" lon="4.80866">
        <ele>237</ele>
        <time>2018-10-23T09:04:53Z</time>
      </trkpt>
      <trkpt lat="45.98071" lon="4.80878">
        <ele>237</ele>
        <time>2018-10-23T09:04:57Z</time>
      </trkpt>
      <trkpt lat="45.98071" lon="4.80881">
        <ele>237</ele>
        <time>2018-10-23T09:04:58Z</time>
      </trkpt>
      <trkpt lat="45.98073" lon="4.8089">
        <ele>238</ele>
        <time>2018-10-23T09:05:01Z</time>
      </trkpt>
      <trkpt lat="45.98074" lon="4.80893">
        <ele>238</ele>
        <time>2018-10-23T09:05:02Z</time>
      </trkpt>
      <trkpt lat="45.98076" lon="4.80903">
        <ele>238</ele>
        <time>2018-10-23T09:05:05Z</time>
      </trkpt>
      <trkpt lat="45.98077" lon="4.80906">
        <ele>238</ele>
        <time>2018-10-23T09:05:06Z</time>
      </trkpt>
      <trkpt lat="45.9808" lon="4.80917">
        <ele>239</ele>
        <time>2018-10-23T09:05:10Z</time>
      </trkpt>
      <trkpt lat="45.98081" lon="4.80919">
        <ele>239</ele>
        <time>2018-10-23T09:05:11Z</time>
      </trkpt>
      <trkpt lat="45.98083" lon="4.8093">
        <ele>240</ele>
        <time>2018-10-23T09:05:15Z</time>
      </trkpt>
      <trkpt lat="45.98084" lon="4.80933">
        <ele>238</ele>
        <time>2018-10-23T09:05:16Z</time>
      </trkpt>
      <trkpt lat="45.98087" lon="4.80946">
        <ele>238</ele>
        <time>2018-10-23T09:05:20Z</time>
      </trkpt>
      <trkpt lat="45.98088" lon="4.80949">
        <ele>238</ele>
        <time>2018-10-23T09:05:21Z</time>
      </trkpt>
      <trkpt lat="45.98092" lon="4.8096">
        <ele>239</ele>
        <time>2018-10-23T09:05:25Z</time>
      </trkpt>
      <trkpt lat="45.98093" lon="4.80962">
        <ele>239</ele>
        <time>2018-10-23T09:05:26Z</time>
      </trkpt>
      <trkpt lat="45.98095" lon="4.80975">
        <ele>239</ele>
        <time>2018-10-23T09:05:30Z</time>
      </trkpt>
      <trkpt lat="45.98095" lon="4.80978">
        <ele>239</ele>
        <time>2018-10-23T09:05:31Z</time>
      </trkpt>
      <trkpt lat="45.98098" lon="4.80988">
        <ele>240</ele>
        <time>2018-10-23T09:05:34Z</time>
      </trkpt>
      <trkpt lat="45.98099" lon="4.80992">
        <ele>240</ele>
        <time>2018-10-23T09:05:35Z</time>
      </trkpt>
      <trkpt lat="45.98102" lon="4.81">
        <ele>242</ele>
        <time>2018-10-23T09:05:36Z</time>
      </trkpt>
      <trkpt lat="45.98103" lon="4.81005">
        <ele>242</ele>
        <time>2018-10-23T09:05:37Z</time>
      </trkpt>
      <trkpt lat="45.98106" lon="4.81015">
        <ele>242</ele>
        <time>2018-10-23T09:05:39Z</time>
      </trkpt>
      <trkpt lat="45.98108" lon="4.8102">
        <ele>242</ele>
        <time>2018-10-23T09:05:40Z</time>
      </trkpt>
      <trkpt lat="45.98111" lon="4.81031">
        <ele>242</ele>
        <time>2018-10-23T09:05:43Z</time>
      </trkpt>
      <trkpt lat="45.98113" lon="4.81035">
        <ele>242</ele>
        <time>2018-10-23T09:05:44Z</time>
      </trkpt>
      <trkpt lat="45.98116" lon="4.81043">
        <ele>242</ele>
        <time>2018-10-23T09:05:46Z</time>
      </trkpt>
      <trkpt lat="45.98117" lon="4.81047">
        <ele>243</ele>
        <time>2018-10-23T09:05:47Z</time>
      </trkpt>
      <trkpt lat="45.9812" lon="4.81056">
        <ele>243</ele>
        <time>2018-10-23T09:05:49Z</time>
      </trkpt>
      <trkpt lat="45.98124" lon="4.81066">
        <ele>243</ele>
        <time>2018-10-23T09:05:50Z</time>
      </trkpt>
      <trkpt lat="45.98127" lon="4.81076">
        <ele>243</ele>
        <time>2018-10-23T09:05:52Z</time>
      </trkpt>
      <trkpt lat="45.98129" lon="4.81081">
        <ele>243</ele>
        <time>2018-10-23T09:05:53Z</time>
      </trkpt>
      <trkpt lat="45.98132" lon="4.81091">
        <ele>245</ele>
        <time>2018-10-23T09:05:56Z</time>
      </trkpt>
      <trkpt lat="45.98133" lon="4.81095">
        <ele>245</ele>
        <time>2018-10-23T09:05:57Z</time>
      </trkpt>
      <trkpt lat="45.98136" lon="4.81103">
        <ele>245</ele>
        <time>2018-10-23T09:05:59Z</time>
      </trkpt>
      <trkpt lat="45.9814" lon="4.81112">
        <ele>245</ele>
        <time>2018-10-23T09:06:00Z</time>
      </trkpt>
      <trkpt lat="45.98144" lon="4.81121">
        <ele>245</ele>
        <time>2018-10-23T09:06:02Z</time>
      </trkpt>
      <trkpt lat="45.98146" lon="4.81126">
        <ele>245</ele>
        <time>2018-10-23T09:06:03Z</time>
      </trkpt>
      <trkpt lat="45.98151" lon="4.81135">
        <ele>245</ele>
        <time>2018-10-23T09:06:05Z</time>
      </trkpt>
      <trkpt lat="45.98153" lon="4.8114">
        <ele>245</ele>
        <time>2018-10-23T09:06:06Z</time>
      </trkpt>
      <trkpt lat="45.98157" lon="4.81151">
        <ele>245</ele>
        <time>2018-10-23T09:06:09Z</time>
      </trkpt>
      <trkpt lat="45.98158" lon="4.81155">
        <ele>245</ele>
        <time>2018-10-23T09:06:10Z</time>
      </trkpt>
      <trkpt lat="45.9816" lon="4.81159">
        <ele>245</ele>
        <time>2018-10-23T09:06:11Z</time>
      </trkpt>
      <trkpt lat="45.98163" lon="4.81167">
        <ele>245</ele>
        <time>2018-10-23T09:06:12Z</time>
      </trkpt>
      <trkpt lat="45.98166" lon="4.81177">
        <ele>246</ele>
        <time>2018-10-23T09:06:14Z</time>
      </trkpt>
      <trkpt lat="45.98167" lon="4.8118">
        <ele>246</ele>
        <time>2018-10-23T09:06:15Z</time>
      </trkpt>
      <trkpt lat="45.98168" lon="4.81192">
        <ele>245</ele>
        <time>2018-10-23T09:06:17Z</time>
      </trkpt>
      <trkpt lat="45.98169" lon="4.81198">
        <ele>245</ele>
        <time>2018-10-23T09:06:18Z</time>
      </trkpt>
      <trkpt lat="45.98169" lon="4.81207">
        <ele>246</ele>
        <time>2018-10-23T09:06:20Z</time>
      </trkpt>
      <trkpt lat="45.9817" lon="4.8121">
        <ele>246</ele>
        <time>2018-10-23T09:06:21Z</time>
      </trkpt>
      <trkpt lat="45.98171" lon="4.81223">
        <ele>246</ele>
        <time>2018-10-23T09:06:23Z</time>
      </trkpt>
      <trkpt lat="45.98171" lon="4.81226">
        <ele>246</ele>
        <time>2018-10-23T09:06:24Z</time>
      </trkpt>
      <trkpt lat="45.98172" lon="4.81237">
        <ele>247</ele>
        <time>2018-10-23T09:06:27Z</time>
      </trkpt>
      <trkpt lat="45.98173" lon="4.81241">
        <ele>247</ele>
        <time>2018-10-23T09:06:28Z</time>
      </trkpt>
      <trkpt lat="45.98174" lon="4.81251">
        <ele>248</ele>
        <time>2018-10-23T09:06:30Z</time>
      </trkpt>
      <trkpt lat="45.98175" lon="4.81256">
        <ele>247</ele>
        <time>2018-10-23T09:06:31Z</time>
      </trkpt>
      <trkpt lat="45.98176" lon="4.81265">
        <ele>247</ele>
        <time>2018-10-23T09:06:33Z</time>
      </trkpt>
      <trkpt lat="45.98178" lon="4.81277">
        <ele>247</ele>
        <time>2018-10-23T09:06:34Z</time>
      </trkpt>
      <trkpt lat="45.9818" lon="4.81289">
        <ele>247</ele>
        <time>2018-10-23T09:06:36Z</time>
      </trkpt>
      <trkpt lat="45.98181" lon="4.81292">
        <ele>247</ele>
        <time>2018-10-23T09:06:37Z</time>
      </trkpt>
      <trkpt lat="45.98183" lon="4.81299">
        <ele>247</ele>
        <time>2018-10-23T09:06:38Z</time>
      </trkpt>
      <trkpt lat="45.98184" lon="4.81304">
        <ele>247</ele>
        <time>2018-10-23T09:06:39Z</time>
      </trkpt>
      <trkpt lat="45.98187" lon="4.81316">
        <ele>247</ele>
        <time>2018-10-23T09:06:41Z</time>
      </trkpt>
      <trkpt lat="45.98188" lon="4.81321">
        <ele>247</ele>
        <time>2018-10-23T09:06:42Z</time>
      </trkpt>
      <trkpt lat="45.98191" lon="4.81332">
        <ele>247</ele>
        <time>2018-10-23T09:06:44Z</time>
      </trkpt>
      <trkpt lat="45.98192" lon="4.81335">
        <ele>248</ele>
        <time>2018-10-23T09:06:45Z</time>
      </trkpt>
      <trkpt lat="45.98196" lon="4.81346">
        <ele>248</ele>
        <time>2018-10-23T09:06:48Z</time>
      </trkpt>
      <trkpt lat="45.98197" lon="4.81351">
        <ele>248</ele>
        <time>2018-10-23T09:06:49Z</time>
      </trkpt>
      <trkpt lat="45.98198" lon="4.81356">
        <ele>248</ele>
        <time>2018-10-23T09:06:50Z</time>
      </trkpt>
      <trkpt lat="45.98201" lon="4.81365">
        <ele>248</ele>
        <time>2018-10-23T09:06:51Z</time>
      </trkpt>
      <trkpt lat="45.98204" lon="4.81376">
        <ele>248</ele>
        <time>2018-10-23T09:06:53Z</time>
      </trkpt>
      <trkpt lat="45.98206" lon="4.81382">
        <ele>248</ele>
        <time>2018-10-23T09:06:54Z</time>
      </trkpt>
      <trkpt lat="45.9821" lon="4.81394">
        <ele>248</ele>
        <time>2018-10-23T09:06:56Z</time>
      </trkpt>
      <trkpt lat="45.98212" lon="4.81399">
        <ele>248</ele>
        <time>2018-10-23T09:06:57Z</time>
      </trkpt>
      <trkpt lat="45.98213" lon="4.81404">
        <ele>248</ele>
        <time>2018-10-23T09:06:58Z</time>
      </trkpt>
      <trkpt lat="45.98215" lon="4.81412">
        <ele>248</ele>
        <time>2018-10-23T09:06:59Z</time>
      </trkpt>
      <trkpt lat="45.98217" lon="4.81417">
        <ele>249</ele>
        <time>2018-10-23T09:07:00Z</time>
      </trkpt>
      <trkpt lat="45.98219" lon="4.81424">
        <ele>249</ele>
        <time>2018-10-23T09:07:01Z</time>
      </trkpt>
      <trkpt lat="45.98222" lon="4.81435">
        <ele>249</ele>
        <time>2018-10-23T09:07:03Z</time>
      </trkpt>
      <trkpt lat="45.98224" lon="4.8144">
        <ele>249</ele>
        <time>2018-10-23T09:07:04Z</time>
      </trkpt>
      <trkpt lat="45.98226" lon="4.81451">
        <ele>249</ele>
        <time>2018-10-23T09:07:06Z</time>
      </trkpt>
      <trkpt lat="45.98228" lon="4.81457">
        <ele>249</ele>
        <time>2018-10-23T09:07:07Z</time>
      </trkpt>
      <trkpt lat="45.98232" lon="4.81467">
        <ele>249</ele>
        <time>2018-10-23T09:07:09Z</time>
      </trkpt>
      <trkpt lat="45.98233" lon="4.81472">
        <ele>249</ele>
        <time>2018-10-23T09:07:10Z</time>
      </trkpt>
      <trkpt lat="45.98237" lon="4.81484">
        <ele>249</ele>
        <time>2018-10-23T09:07:12Z</time>
      </trkpt>
      <trkpt lat="45.98238" lon="4.8149">
        <ele>249</ele>
        <time>2018-10-23T09:07:13Z</time>
      </trkpt>
      <trkpt lat="45.98241" lon="4.81496">
        <ele>249</ele>
        <time>2018-10-23T09:07:14Z</time>
      </trkpt>
      <trkpt lat="45.98243" lon="4.81504">
        <ele>249</ele>
        <time>2018-10-23T09:07:15Z</time>
      </trkpt>
      <trkpt lat="45.98246" lon="4.81511">
        <ele>249</ele>
        <time>2018-10-23T09:07:16Z</time>
      </trkpt>
      <trkpt lat="45.98248" lon="4.81518">
        <ele>249</ele>
        <time>2018-10-23T09:07:17Z</time>
      </trkpt>
      <trkpt lat="45.9825" lon="4.81526">
        <ele>249</ele>
        <time>2018-10-23T09:07:18Z</time>
      </trkpt>
      <trkpt lat="45.98252" lon="4.81533">
        <ele>247</ele>
        <time>2018-10-23T09:07:19Z</time>
      </trkpt>
      <trkpt lat="45.98254" lon="4.81539">
        <ele>247</ele>
        <time>2018-10-23T09:07:20Z</time>
      </trkpt>
      <trkpt lat="45.98257" lon="4.81546">
        <ele>247</ele>
        <time>2018-10-23T09:07:21Z</time>
      </trkpt>
      <trkpt lat="45.98259" lon="4.81553">
        <ele>247</ele>
        <time>2018-10-23T09:07:22Z</time>
      </trkpt>
      <trkpt lat="45.98261" lon="4.81559">
        <ele>247</ele>
        <time>2018-10-23T09:07:23Z</time>
      </trkpt>
      <trkpt lat="45.98263" lon="4.81566">
        <ele>247</ele>
        <time>2018-10-23T09:07:24Z</time>
      </trkpt>
      <trkpt lat="45.98266" lon="4.81572">
        <ele>247</ele>
        <time>2018-10-23T09:07:25Z</time>
      </trkpt>
      <trkpt lat="45.98269" lon="4.81579">
        <ele>247</ele>
        <time>2018-10-23T09:07:26Z</time>
      </trkpt>
      <trkpt lat="45.98271" lon="4.81585">
        <ele>247</ele>
        <time>2018-10-23T09:07:27Z</time>
      </trkpt>
      <trkpt lat="45.98273" lon="4.81591">
        <ele>247</ele>
        <time>2018-10-23T09:07:28Z</time>
      </trkpt>
      <trkpt lat="45.98276" lon="4.81597">
        <ele>247</ele>
        <time>2018-10-23T09:07:29Z</time>
      </trkpt>
      <trkpt lat="45.9828" lon="4.81608">
        <ele>247</ele>
        <time>2018-10-23T09:07:31Z</time>
      </trkpt>
      <trkpt lat="45.98282" lon="4.81613">
        <ele>247</ele>
        <time>2018-10-23T09:07:32Z</time>
      </trkpt>
      <trkpt lat="45.98285" lon="4.81619">
        <ele>247</ele>
        <time>2018-10-23T09:07:33Z</time>
      </trkpt>
      <trkpt lat="45.98288" lon="4.81623">
        <ele>247</ele>
        <time>2018-10-23T09:07:34Z</time>
      </trkpt>
      <trkpt lat="45.98292" lon="4.81628">
        <ele>247</ele>
        <time>2018-10-23T09:07:35Z</time>
      </trkpt>
      <trkpt lat="45.98297" lon="4.81633">
        <ele>246</ele>
        <time>2018-10-23T09:07:36Z</time>
      </trkpt>
      <trkpt lat="45.98301" lon="4.81637">
        <ele>246</ele>
        <time>2018-10-23T09:07:37Z</time>
      </trkpt>
      <trkpt lat="45.98305" lon="4.81642">
        <ele>246</ele>
        <time>2018-10-23T09:07:38Z</time>
      </trkpt>
      <trkpt lat="45.98309" lon="4.81646">
        <ele>246</ele>
        <time>2018-10-23T09:07:39Z</time>
      </trkpt>
      <trkpt lat="45.98314" lon="4.8165">
        <ele>246</ele>
        <time>2018-10-23T09:07:40Z</time>
      </trkpt>
      <trkpt lat="45.98318" lon="4.81654">
        <ele>246</ele>
        <time>2018-10-23T09:07:41Z</time>
      </trkpt>
      <trkpt lat="45.98322" lon="4.81657">
        <ele>246</ele>
        <time>2018-10-23T09:07:42Z</time>
      </trkpt>
      <trkpt lat="45.98326" lon="4.8166">
        <ele>246</ele>
        <time>2018-10-23T09:07:43Z</time>
      </trkpt>
      <trkpt lat="45.9833" lon="4.81664">
        <ele>246</ele>
        <time>2018-10-23T09:07:44Z</time>
      </trkpt>
      <trkpt lat="45.98334" lon="4.81667">
        <ele>246</ele>
        <time>2018-10-23T09:07:45Z</time>
      </trkpt>
      <trkpt lat="45.98339" lon="4.81669">
        <ele>246</ele>
        <time>2018-10-23T09:07:46Z</time>
      </trkpt>
      <trkpt lat="45.98345" lon="4.81671">
        <ele>245</ele>
        <time>2018-10-23T09:07:47Z</time>
      </trkpt>
      <trkpt lat="45.9835" lon="4.81673">
        <ele>245</ele>
        <time>2018-10-23T09:07:48Z</time>
      </trkpt>
      <trkpt lat="45.98354" lon="4.81673">
        <ele>245</ele>
        <time>2018-10-23T09:07:49Z</time>
      </trkpt>
      <trkpt lat="45.9836" lon="4.81672">
        <ele>244</ele>
        <time>2018-10-23T09:07:50Z</time>
      </trkpt>
      <trkpt lat="45.98366" lon="4.81672">
        <ele>244</ele>
        <time>2018-10-23T09:07:51Z</time>
      </trkpt>
      <trkpt lat="45.98371" lon="4.81671">
        <ele>244</ele>
        <time>2018-10-23T09:07:52Z</time>
      </trkpt>
      <trkpt lat="45.98375" lon="4.81669">
        <ele>244</ele>
        <time>2018-10-23T09:07:53Z</time>
      </trkpt>
      <trkpt lat="45.9838" lon="4.81668">
        <ele>244</ele>
        <time>2018-10-23T09:07:54Z</time>
      </trkpt>
      <trkpt lat="45.98385" lon="4.81666">
        <ele>242</ele>
        <time>2018-10-23T09:07:55Z</time>
      </trkpt>
      <trkpt lat="45.98389" lon="4.81665">
        <ele>242</ele>
        <time>2018-10-23T09:07:56Z</time>
      </trkpt>
      <trkpt lat="45.98394" lon="4.81663">
        <ele>242</ele>
        <time>2018-10-23T09:07:57Z</time>
      </trkpt>
      <trkpt lat="45.98399" lon="4.81661">
        <ele>242</ele>
        <time>2018-10-23T09:07:58Z</time>
      </trkpt>
      <trkpt lat="45.98403" lon="4.81661">
        <ele>241</ele>
        <time>2018-10-23T09:07:59Z</time>
      </trkpt>
      <trkpt lat="45.98408" lon="4.81661">
        <ele>241</ele>
        <time>2018-10-23T09:08:00Z</time>
      </trkpt>
      <trkpt lat="45.98414" lon="4.81661">
        <ele>241</ele>
        <time>2018-10-23T09:08:01Z</time>
      </trkpt>
      <trkpt lat="45.98419" lon="4.8166">
        <ele>240</ele>
        <time>2018-10-23T09:08:02Z</time>
      </trkpt>
      <trkpt lat="45.98424" lon="4.81662">
        <ele>240</ele>
        <time>2018-10-23T09:08:03Z</time>
      </trkpt>
      <trkpt lat="45.9843" lon="4.81664">
        <ele>239</ele>
        <time>2018-10-23T09:08:04Z</time>
      </trkpt>
      <trkpt lat="45.98434" lon="4.81666">
        <ele>239</ele>
        <time>2018-10-23T09:08:05Z</time>
      </trkpt>
      <trkpt lat="45.98439" lon="4.8167">
        <ele>240</ele>
        <time>2018-10-23T09:08:06Z</time>
      </trkpt>
      <trkpt lat="45.98443" lon="4.81675">
        <ele>239</ele>
        <time>2018-10-23T09:08:07Z</time>
      </trkpt>
      <trkpt lat="45.98447" lon="4.8168">
        <ele>239</ele>
        <time>2018-10-23T09:08:08Z</time>
      </trkpt>
      <trkpt lat="45.9845" lon="4.81686">
        <ele>239</ele>
        <time>2018-10-23T09:08:09Z</time>
      </trkpt>
      <trkpt lat="45.98453" lon="4.81693">
        <ele>239</ele>
        <time>2018-10-23T09:08:10Z</time>
      </trkpt>
      <trkpt lat="45.98456" lon="4.817">
        <ele>239</ele>
        <time>2018-10-23T09:08:11Z</time>
      </trkpt>
      <trkpt lat="45.9846" lon="4.81708">
        <ele>239</ele>
        <time>2018-10-23T09:08:12Z</time>
      </trkpt>
      <trkpt lat="45.98464" lon="4.81714">
        <ele>239</ele>
        <time>2018-10-23T09:08:13Z</time>
      </trkpt>
      <trkpt lat="45.98469" lon="4.8172">
        <ele>239</ele>
        <time>2018-10-23T09:08:14Z</time>
      </trkpt>
      <trkpt lat="45.98474" lon="4.81726">
        <ele>239</ele>
        <time>2018-10-23T09:08:15Z</time>
      </trkpt>
      <trkpt lat="45.9848" lon="4.81731">
        <ele>238</ele>
        <time>2018-10-23T09:08:16Z</time>
      </trkpt>
      <trkpt lat="45.98486" lon="4.81737">
        <ele>238</ele>
        <time>2018-10-23T09:08:17Z</time>
      </trkpt>
      <trkpt lat="45.98492" lon="4.81743">
        <ele>238</ele>
        <time>2018-10-23T09:08:18Z</time>
      </trkpt>
      <trkpt lat="45.98497" lon="4.81749">
        <ele>237</ele>
        <time>2018-10-23T09:08:19Z</time>
      </trkpt>
      <trkpt lat="45.98503" lon="4.81755">
        <ele>237</ele>
        <time>2018-10-23T09:08:20Z</time>
      </trkpt>
      <trkpt lat="45.98508" lon="4.81763">
        <ele>237</ele>
        <time>2018-10-23T09:08:21Z</time>
      </trkpt>
      <trkpt lat="45.98514" lon="4.8177">
        <ele>238</ele>
        <time>2018-10-23T09:08:22Z</time>
      </trkpt>
      <trkpt lat="45.98519" lon="4.81778">
        <ele>238</ele>
        <time>2018-10-23T09:08:23Z</time>
      </trkpt>
      <trkpt lat="45.98525" lon="4.81785">
        <ele>238</ele>
        <time>2018-10-23T09:08:24Z</time>
      </trkpt>
      <trkpt lat="45.98529" lon="4.81791">
        <ele>238</ele>
        <time>2018-10-23T09:08:25Z</time>
      </trkpt>
      <trkpt lat="45.98534" lon="4.81798">
        <ele>238</ele>
        <time>2018-10-23T09:08:26Z</time>
      </trkpt>
      <trkpt lat="45.9854" lon="4.81803">
        <ele>238</ele>
        <time>2018-10-23T09:08:27Z</time>
      </trkpt>
      <trkpt lat="45.98545" lon="4.81806">
        <ele>238</ele>
        <time>2018-10-23T09:08:28Z</time>
      </trkpt>
      <trkpt lat="45.9855" lon="4.81806">
        <ele>238</ele>
        <time>2018-10-23T09:08:29Z</time>
      </trkpt>
      <trkpt lat="45.98555" lon="4.81804">
        <ele>238</ele>
        <time>2018-10-23T09:08:30Z</time>
      </trkpt>
      <trkpt lat="45.9856" lon="4.81801">
        <ele>238</ele>
        <time>2018-10-23T09:08:31Z</time>
      </trkpt>
      <trkpt lat="45.98563" lon="4.81797">
        <ele>238</ele>
        <time>2018-10-23T09:08:32Z</time>
      </trkpt>
      <trkpt lat="45.9857" lon="4.81788">
        <ele>238</ele>
        <time>2018-10-23T09:08:34Z</time>
      </trkpt>
      <trkpt lat="45.98574" lon="4.81783">
        <ele>238</ele>
        <time>2018-10-23T09:08:35Z</time>
      </trkpt>
      <trkpt lat="45.98577" lon="4.81779">
        <ele>238</ele>
        <time>2018-10-23T09:08:36Z</time>
      </trkpt>
      <trkpt lat="45.98581" lon="4.81774">
        <ele>237</ele>
        <time>2018-10-23T09:08:37Z</time>
      </trkpt>
      <trkpt lat="45.98584" lon="4.81769">
        <ele>238</ele>
        <time>2018-10-23T09:08:38Z</time>
      </trkpt>
      <trkpt lat="45.98589" lon="4.81765">
        <ele>237</ele>
        <time>2018-10-23T09:08:39Z</time>
      </trkpt>
      <trkpt lat="45.98594" lon="4.81762">
        <ele>237</ele>
        <time>2018-10-23T09:08:40Z</time>
      </trkpt>
      <trkpt lat="45.98598" lon="4.8176">
        <ele>238</ele>
        <time>2018-10-23T09:08:41Z</time>
      </trkpt>
      <trkpt lat="45.98602" lon="4.81758">
        <ele>238</ele>
        <time>2018-10-23T09:08:42Z</time>
      </trkpt>
      <trkpt lat="45.98607" lon="4.81757">
        <ele>238</ele>
        <time>2018-10-23T09:08:43Z</time>
      </trkpt>
      <trkpt lat="45.98611" lon="4.81756">
        <ele>238</ele>
        <time>2018-10-23T09:08:44Z</time>
      </trkpt>
      <trkpt lat="45.98617" lon="4.81755">
        <ele>238</ele>
        <time>2018-10-23T09:08:45Z</time>
      </trkpt>
      <trkpt lat="45.98621" lon="4.81753">
        <ele>238</ele>
        <time>2018-10-23T09:08:46Z</time>
      </trkpt>
      <trkpt lat="45.98627" lon="4.81752">
        <ele>238</ele>
        <time>2018-10-23T09:08:47Z</time>
      </trkpt>
      <trkpt lat="45.98632" lon="4.8175">
        <ele>237</ele>
        <time>2018-10-23T09:08:48Z</time>
      </trkpt>
      <trkpt lat="45.98636" lon="4.81749">
        <ele>237</ele>
        <time>2018-10-23T09:08:49Z</time>
      </trkpt>
      <trkpt lat="45.98641" lon="4.81747">
        <ele>237</ele>
        <time>2018-10-23T09:08:50Z</time>
      </trkpt>
      <trkpt lat="45.98645" lon="4.81746">
        <ele>237</ele>
        <time>2018-10-23T09:08:51Z</time>
      </trkpt>
      <trkpt lat="45.9865" lon="4.81744">
        <ele>237</ele>
        <time>2018-10-23T09:08:52Z</time>
      </trkpt>
      <trkpt lat="45.98654" lon="4.81742">
        <ele>237</ele>
        <time>2018-10-23T09:08:53Z</time>
      </trkpt>
      <trkpt lat="45.98659" lon="4.81741">
        <ele>237</ele>
        <time>2018-10-23T09:08:54Z</time>
      </trkpt>
      <trkpt lat="45.98663" lon="4.8174">
        <ele>237</ele>
        <time>2018-10-23T09:08:55Z</time>
      </trkpt>
      <trkpt lat="45.98671" lon="4.81737">
        <ele>238</ele>
        <time>2018-10-23T09:08:57Z</time>
      </trkpt>
      <trkpt lat="45.98675" lon="4.81736">
        <ele>238</ele>
        <time>2018-10-23T09:08:58Z</time>
      </trkpt>
      <trkpt lat="45.98682" lon="4.81734">
        <ele>238</ele>
        <time>2018-10-23T09:09:00Z</time>
      </trkpt>
      <trkpt lat="45.98687" lon="4.81732">
        <ele>238</ele>
        <time>2018-10-23T09:09:01Z</time>
      </trkpt>
      <trkpt lat="45.98692" lon="4.81734">
        <ele>238</ele>
        <time>2018-10-23T09:09:02Z</time>
      </trkpt>
      <trkpt lat="45.98697" lon="4.81733">
        <ele>239</ele>
        <time>2018-10-23T09:09:03Z</time>
      </trkpt>
      <trkpt lat="45.98701" lon="4.8173">
        <ele>239</ele>
        <time>2018-10-23T09:09:04Z</time>
      </trkpt>
      <trkpt lat="45.98706" lon="4.8173">
        <ele>239</ele>
        <time>2018-10-23T09:09:05Z</time>
      </trkpt>
      <trkpt lat="45.9871" lon="4.81728">
        <ele>239</ele>
        <time>2018-10-23T09:09:06Z</time>
      </trkpt>
      <trkpt lat="45.98715" lon="4.81728">
        <ele>239</ele>
        <time>2018-10-23T09:09:07Z</time>
      </trkpt>
      <trkpt lat="45.98721" lon="4.81728">
        <ele>239</ele>
        <time>2018-10-23T09:09:08Z</time>
      </trkpt>
      <trkpt lat="45.98725" lon="4.8173">
        <ele>239</ele>
        <time>2018-10-23T09:09:09Z</time>
      </trkpt>
      <trkpt lat="45.98732" lon="4.81738">
        <ele>240</ele>
        <time>2018-10-23T09:09:11Z</time>
      </trkpt>
      <trkpt lat="45.98735" lon="4.81742">
        <ele>240</ele>
        <time>2018-10-23T09:09:12Z</time>
      </trkpt>
      <trkpt lat="45.98737" lon="4.81747">
        <ele>240</ele>
        <time>2018-10-23T09:09:13Z</time>
      </trkpt>
      <trkpt lat="45.9874" lon="4.81752">
        <ele>240</ele>
        <time>2018-10-23T09:09:14Z</time>
      </trkpt>
      <trkpt lat="45.98743" lon="4.81757">
        <ele>240</ele>
        <time>2018-10-23T09:09:15Z</time>
      </trkpt>
      <trkpt lat="45.98746" lon="4.81763">
        <ele>240</ele>
        <time>2018-10-23T09:09:16Z</time>
      </trkpt>
      <trkpt lat="45.98749" lon="4.81771">
        <ele>240</ele>
        <time>2018-10-23T09:09:17Z</time>
      </trkpt>
      <trkpt lat="45.98752" lon="4.81777">
        <ele>241</ele>
        <time>2018-10-23T09:09:18Z</time>
      </trkpt>
      <trkpt lat="45.98755" lon="4.81782">
        <ele>241</ele>
        <time>2018-10-23T09:09:19Z</time>
      </trkpt>
      <trkpt lat="45.98758" lon="4.81789">
        <ele>241</ele>
        <time>2018-10-23T09:09:20Z</time>
      </trkpt>
      <trkpt lat="45.9876" lon="4.81796">
        <ele>240</ele>
        <time>2018-10-23T09:09:21Z</time>
      </trkpt>
      <trkpt lat="45.98763" lon="4.81802">
        <ele>240</ele>
        <time>2018-10-23T09:09:22Z</time>
      </trkpt>
      <trkpt lat="45.98766" lon="4.81809">
        <ele>240</ele>
        <time>2018-10-23T09:09:23Z</time>
      </trkpt>
      <trkpt lat="45.98769" lon="4.81815">
        <ele>240</ele>
        <time>2018-10-23T09:09:24Z</time>
      </trkpt>
      <trkpt lat="45.98773" lon="4.81823">
        <ele>240</ele>
        <time>2018-10-23T09:09:25Z</time>
      </trkpt>
      <trkpt lat="45.98776" lon="4.81829">
        <ele>240</ele>
        <time>2018-10-23T09:09:26Z</time>
      </trkpt>
      <trkpt lat="45.98779" lon="4.81837">
        <ele>239</ele>
        <time>2018-10-23T09:09:27Z</time>
      </trkpt>
      <trkpt lat="45.98782" lon="4.81845">
        <ele>239</ele>
        <time>2018-10-23T09:09:28Z</time>
      </trkpt>
      <trkpt lat="45.98786" lon="4.81852">
        <ele>239</ele>
        <time>2018-10-23T09:09:29Z</time>
      </trkpt>
      <trkpt lat="45.98788" lon="4.81859">
        <ele>239</ele>
        <time>2018-10-23T09:09:30Z</time>
      </trkpt>
      <trkpt lat="45.98791" lon="4.81866">
        <ele>239</ele>
        <time>2018-10-23T09:09:31Z</time>
      </trkpt>
      <trkpt lat="45.98793" lon="4.81874">
        <ele>239</ele>
        <time>2018-10-23T09:09:32Z</time>
      </trkpt>
      <trkpt lat="45.98795" lon="4.8188">
        <ele>239</ele>
        <time>2018-10-23T09:09:33Z</time>
      </trkpt>
      <trkpt lat="45.98798" lon="4.81888">
        <ele>239</ele>
        <time>2018-10-23T09:09:34Z</time>
      </trkpt>
      <trkpt lat="45.988" lon="4.81896">
        <ele>239</ele>
        <time>2018-10-23T09:09:35Z</time>
      </trkpt>
      <trkpt lat="45.98802" lon="4.81903">
        <ele>239</ele>
        <time>2018-10-23T09:09:36Z</time>
      </trkpt>
      <trkpt lat="45.98804" lon="4.81913">
        <ele>239</ele>
        <time>2018-10-23T09:09:37Z</time>
      </trkpt>
      <trkpt lat="45.98805" lon="4.81921">
        <ele>239</ele>
        <time>2018-10-23T09:09:38Z</time>
      </trkpt>
      <trkpt lat="45.98807" lon="4.81929">
        <ele>239</ele>
        <time>2018-10-23T09:09:39Z</time>
      </trkpt>
      <trkpt lat="45.98809" lon="4.81936">
        <ele>239</ele>
        <time>2018-10-23T09:09:40Z</time>
      </trkpt>
      <trkpt lat="45.9881" lon="4.81943">
        <ele>239</ele>
        <time>2018-10-23T09:09:41Z</time>
      </trkpt>
      <trkpt lat="45.98815" lon="4.8195">
        <ele>239</ele>
        <time>2018-10-23T09:09:42Z</time>
      </trkpt>
      <trkpt lat="45.98817" lon="4.81957">
        <ele>239</ele>
        <time>2018-10-23T09:09:43Z</time>
      </trkpt>
      <trkpt lat="45.98818" lon="4.81964">
        <ele>239</ele>
        <time>2018-10-23T09:09:44Z</time>
      </trkpt>
      <trkpt lat="45.98818" lon="4.81971">
        <ele>239</ele>
        <time>2018-10-23T09:09:45Z</time>
      </trkpt>
      <trkpt lat="45.9882" lon="4.81978">
        <ele>239</ele>
        <time>2018-10-23T09:09:46Z</time>
      </trkpt>
      <trkpt lat="45.98822" lon="4.81985">
        <ele>238</ele>
        <time>2018-10-23T09:09:47Z</time>
      </trkpt>
      <trkpt lat="45.98823" lon="4.81991">
        <ele>238</ele>
        <time>2018-10-23T09:09:48Z</time>
      </trkpt>
      <trkpt lat="45.98824" lon="4.81997">
        <ele>238</ele>
        <time>2018-10-23T09:09:49Z</time>
      </trkpt>
      <trkpt lat="45.98826" lon="4.82005">
        <ele>238</ele>
        <time>2018-10-23T09:09:50Z</time>
      </trkpt>
      <trkpt lat="45.98826" lon="4.82012">
        <ele>238</ele>
        <time>2018-10-23T09:09:51Z</time>
      </trkpt>
      <trkpt lat="45.98827" lon="4.82018">
        <ele>238</ele>
        <time>2018-10-23T09:09:52Z</time>
      </trkpt>
      <trkpt lat="45.98828" lon="4.82026">
        <ele>238</ele>
        <time>2018-10-23T09:09:53Z</time>
      </trkpt>
      <trkpt lat="45.9883" lon="4.82034">
        <ele>238</ele>
        <time>2018-10-23T09:09:54Z</time>
      </trkpt>
      <trkpt lat="45.9883" lon="4.82042">
        <ele>238</ele>
        <time>2018-10-23T09:09:55Z</time>
      </trkpt>
      <trkpt lat="45.98831" lon="4.8205">
        <ele>237</ele>
        <time>2018-10-23T09:09:56Z</time>
      </trkpt>
      <trkpt lat="45.98833" lon="4.82057">
        <ele>237</ele>
        <time>2018-10-23T09:09:57Z</time>
      </trkpt>
      <trkpt lat="45.98836" lon="4.82064">
        <ele>236</ele>
        <time>2018-10-23T09:09:58Z</time>
      </trkpt>
      <trkpt lat="45.98837" lon="4.82072">
        <ele>236</ele>
        <time>2018-10-23T09:09:59Z</time>
      </trkpt>
      <trkpt lat="45.98838" lon="4.8208">
        <ele>236</ele>
        <time>2018-10-23T09:10:00Z</time>
      </trkpt>
      <trkpt lat="45.98839" lon="4.82087">
        <ele>236</ele>
        <time>2018-10-23T09:10:01Z</time>
      </trkpt>
      <trkpt lat="45.98839" lon="4.82095">
        <ele>236</ele>
        <time>2018-10-23T09:10:02Z</time>
      </trkpt>
      <trkpt lat="45.98842" lon="4.82106">
        <ele>235</ele>
        <time>2018-10-23T09:10:04Z</time>
      </trkpt>
      <trkpt lat="45.98845" lon="4.82115">
        <ele>235</ele>
        <time>2018-10-23T09:10:05Z</time>
      </trkpt>
      <trkpt lat="45.98845" lon="4.82122">
        <ele>235</ele>
        <time>2018-10-23T09:10:06Z</time>
      </trkpt>
      <trkpt lat="45.98847" lon="4.82129">
        <ele>235</ele>
        <time>2018-10-23T09:10:07Z</time>
      </trkpt>
      <trkpt lat="45.98849" lon="4.82137">
        <ele>236</ele>
        <time>2018-10-23T09:10:08Z</time>
      </trkpt>
      <trkpt lat="45.9885" lon="4.82144">
        <ele>236</ele>
        <time>2018-10-23T09:10:09Z</time>
      </trkpt>
      <trkpt lat="45.98851" lon="4.82151">
        <ele>236</ele>
        <time>2018-10-23T09:10:10Z</time>
      </trkpt>
      <trkpt lat="45.98853" lon="4.82157">
        <ele>236</ele>
        <time>2018-10-23T09:10:11Z</time>
      </trkpt>
      <trkpt lat="45.98855" lon="4.82164">
        <ele>236</ele>
        <time>2018-10-23T09:10:12Z</time>
      </trkpt>
      <trkpt lat="45.98857" lon="4.82171">
        <ele>236</ele>
        <time>2018-10-23T09:10:13Z</time>
      </trkpt>
      <trkpt lat="45.98859" lon="4.82178">
        <ele>236</ele>
        <time>2018-10-23T09:10:14Z</time>
      </trkpt>
      <trkpt lat="45.98861" lon="4.82185">
        <ele>236</ele>
        <time>2018-10-23T09:10:15Z</time>
      </trkpt>
      <trkpt lat="45.98863" lon="4.82191">
        <ele>236</ele>
        <time>2018-10-23T09:10:16Z</time>
      </trkpt>
      <trkpt lat="45.98866" lon="4.82197">
        <ele>236</ele>
        <time>2018-10-23T09:10:17Z</time>
      </trkpt>
      <trkpt lat="45.98868" lon="4.82203">
        <ele>236</ele>
        <time>2018-10-23T09:10:18Z</time>
      </trkpt>
      <trkpt lat="45.98871" lon="4.8221">
        <ele>236</ele>
        <time>2018-10-23T09:10:19Z</time>
      </trkpt>
      <trkpt lat="45.98874" lon="4.82217">
        <ele>236</ele>
        <time>2018-10-23T09:10:20Z</time>
      </trkpt>
      <trkpt lat="45.98876" lon="4.82224">
        <ele>236</ele>
        <time>2018-10-23T09:10:21Z</time>
      </trkpt>
      <trkpt lat="45.98878" lon="4.8223">
        <ele>236</ele>
        <time>2018-10-23T09:10:22Z</time>
      </trkpt>
      <trkpt lat="45.98881" lon="4.82237">
        <ele>236</ele>
        <time>2018-10-23T09:10:23Z</time>
      </trkpt>
      <trkpt lat="45.98884" lon="4.82243">
        <ele>236</ele>
        <time>2018-10-23T09:10:24Z</time>
      </trkpt>
      <trkpt lat="45.98886" lon="4.82249">
        <ele>235</ele>
        <time>2018-10-23T09:10:25Z</time>
      </trkpt>
      <trkpt lat="45.98889" lon="4.82255">
        <ele>236</ele>
        <time>2018-10-23T09:10:26Z</time>
      </trkpt>
      <trkpt lat="45.98892" lon="4.82261">
        <ele>236</ele>
        <time>2018-10-23T09:10:27Z</time>
      </trkpt>
      <trkpt lat="45.98895" lon="4.82267">
        <ele>236</ele>
        <time>2018-10-23T09:10:28Z</time>
      </trkpt>
      <trkpt lat="45.98898" lon="4.82272">
        <ele>236</ele>
        <time>2018-10-23T09:10:29Z</time>
      </trkpt>
      <trkpt lat="45.98901" lon="4.82278">
        <ele>236</ele>
        <time>2018-10-23T09:10:30Z</time>
      </trkpt>
      <trkpt lat="45.98904" lon="4.82282">
        <ele>236</ele>
        <time>2018-10-23T09:10:31Z</time>
      </trkpt>
      <trkpt lat="45.98908" lon="4.82287">
        <ele>236</ele>
        <time>2018-10-23T09:10:32Z</time>
      </trkpt>
      <trkpt lat="45.98912" lon="4.82291">
        <ele>236</ele>
        <time>2018-10-23T09:10:33Z</time>
      </trkpt>
      <trkpt lat="45.98916" lon="4.82295">
        <ele>236</ele>
        <time>2018-10-23T09:10:34Z</time>
      </trkpt>
      <trkpt lat="45.9892" lon="4.82299">
        <ele>234</ele>
        <time>2018-10-23T09:10:35Z</time>
      </trkpt>
      <trkpt lat="45.98924" lon="4.82303">
        <ele>234</ele>
        <time>2018-10-23T09:10:36Z</time>
      </trkpt>
      <trkpt lat="45.98927" lon="4.82307">
        <ele>234</ele>
        <time>2018-10-23T09:10:37Z</time>
      </trkpt>
      <trkpt lat="45.98932" lon="4.82312">
        <ele>234</ele>
        <time>2018-10-23T09:10:38Z</time>
      </trkpt>
      <trkpt lat="45.98935" lon="4.82317">
        <ele>234</ele>
        <time>2018-10-23T09:10:39Z</time>
      </trkpt>
      <trkpt lat="45.9894" lon="4.82323">
        <ele>234</ele>
        <time>2018-10-23T09:10:40Z</time>
      </trkpt>
      <trkpt lat="45.98944" lon="4.82328">
        <ele>234</ele>
        <time>2018-10-23T09:10:41Z</time>
      </trkpt>
      <trkpt lat="45.98948" lon="4.82334">
        <ele>235</ele>
        <time>2018-10-23T09:10:42Z</time>
      </trkpt>
      <trkpt lat="45.98951" lon="4.8234">
        <ele>235</ele>
        <time>2018-10-23T09:10:43Z</time>
      </trkpt>
      <trkpt lat="45.98955" lon="4.82346">
        <ele>235</ele>
        <time>2018-10-23T09:10:44Z</time>
      </trkpt>
      <trkpt lat="45.98958" lon="4.82352">
        <ele>235</ele>
        <time>2018-10-23T09:10:45Z</time>
      </trkpt>
      <trkpt lat="45.98961" lon="4.82363">
        <ele>235</ele>
        <time>2018-10-23T09:10:47Z</time>
      </trkpt>
      <trkpt lat="45.98963" lon="4.82369">
        <ele>235</ele>
        <time>2018-10-23T09:10:48Z</time>
      </trkpt>
      <trkpt lat="45.98965" lon="4.82375">
        <ele>235</ele>
        <time>2018-10-23T09:10:49Z</time>
      </trkpt>
      <trkpt lat="45.98966" lon="4.82381">
        <ele>235</ele>
        <time>2018-10-23T09:10:50Z</time>
      </trkpt>
      <trkpt lat="45.98967" lon="4.82387">
        <ele>235</ele>
        <time>2018-10-23T09:10:51Z</time>
      </trkpt>
      <trkpt lat="45.98969" lon="4.82393">
        <ele>235</ele>
        <time>2018-10-23T09:10:52Z</time>
      </trkpt>
      <trkpt lat="45.98971" lon="4.82401">
        <ele>235</ele>
        <time>2018-10-23T09:10:53Z</time>
      </trkpt>
      <trkpt lat="45.98973" lon="4.82408">
        <ele>235</ele>
        <time>2018-10-23T09:10:54Z</time>
      </trkpt>
      <trkpt lat="45.98974" lon="4.82416">
        <ele>235</ele>
        <time>2018-10-23T09:10:55Z</time>
      </trkpt>
      <trkpt lat="45.98976" lon="4.82423">
        <ele>236</ele>
        <time>2018-10-23T09:10:56Z</time>
      </trkpt>
      <trkpt lat="45.98979" lon="4.82431">
        <ele>236</ele>
        <time>2018-10-23T09:10:57Z</time>
      </trkpt>
      <trkpt lat="45.9898" lon="4.82438">
        <ele>236</ele>
        <time>2018-10-23T09:10:58Z</time>
      </trkpt>
      <trkpt lat="45.98982" lon="4.82445">
        <ele>236</ele>
        <time>2018-10-23T09:10:59Z</time>
      </trkpt>
      <trkpt lat="45.98984" lon="4.82454">
        <ele>236</ele>
        <time>2018-10-23T09:11:00Z</time>
      </trkpt>
      <trkpt lat="45.98987" lon="4.82462">
        <ele>236</ele>
        <time>2018-10-23T09:11:01Z</time>
      </trkpt>
      <trkpt lat="45.98989" lon="4.82469">
        <ele>236</ele>
        <time>2018-10-23T09:11:02Z</time>
      </trkpt>
      <trkpt lat="45.98991" lon="4.82477">
        <ele>236</ele>
        <time>2018-10-23T09:11:03Z</time>
      </trkpt>
      <trkpt lat="45.98993" lon="4.82484">
        <ele>236</ele>
        <time>2018-10-23T09:11:04Z</time>
      </trkpt>
      <trkpt lat="45.98995" lon="4.82491">
        <ele>236</ele>
        <time>2018-10-23T09:11:05Z</time>
      </trkpt>
      <trkpt lat="45.98997" lon="4.82497">
        <ele>235</ele>
        <time>2018-10-23T09:11:06Z</time>
      </trkpt>
      <trkpt lat="45.98999" lon="4.82502">
        <ele>235</ele>
        <time>2018-10-23T09:11:07Z</time>
      </trkpt>
      <trkpt lat="45.99002" lon="4.82508">
        <ele>235</ele>
        <time>2018-10-23T09:11:08Z</time>
      </trkpt>
      <trkpt lat="45.99004" lon="4.82513">
        <ele>235</ele>
        <time>2018-10-23T09:11:09Z</time>
      </trkpt>
      <trkpt lat="45.99007" lon="4.82519">
        <ele>235</ele>
        <time>2018-10-23T09:11:10Z</time>
      </trkpt>
      <trkpt lat="45.9901" lon="4.82525">
        <ele>235</ele>
        <time>2018-10-23T09:11:11Z</time>
      </trkpt>
      <trkpt lat="45.99013" lon="4.82531">
        <ele>235</ele>
        <time>2018-10-23T09:11:12Z</time>
      </trkpt>
      <trkpt lat="45.99017" lon="4.82537">
        <ele>235</ele>
        <time>2018-10-23T09:11:13Z</time>
      </trkpt>
      <trkpt lat="45.99022" lon="4.82541">
        <ele>235</ele>
        <time>2018-10-23T09:11:14Z</time>
      </trkpt>
      <trkpt lat="45.99026" lon="4.82547">
        <ele>235</ele>
        <time>2018-10-23T09:11:15Z</time>
      </trkpt>
      <trkpt lat="45.9903" lon="4.82551">
        <ele>235</ele>
        <time>2018-10-23T09:11:16Z</time>
      </trkpt>
      <trkpt lat="45.99034" lon="4.82555">
        <ele>235</ele>
        <time>2018-10-23T09:11:17Z</time>
      </trkpt>
      <trkpt lat="45.99038" lon="4.82558">
        <ele>235</ele>
        <time>2018-10-23T09:11:18Z</time>
      </trkpt>
      <trkpt lat="45.99042" lon="4.8256">
        <ele>235</ele>
        <time>2018-10-23T09:11:19Z</time>
      </trkpt>
      <trkpt lat="45.99047" lon="4.82562">
        <ele>235</ele>
        <time>2018-10-23T09:11:20Z</time>
      </trkpt>
      <trkpt lat="45.99051" lon="4.82564">
        <ele>235</ele>
        <time>2018-10-23T09:11:21Z</time>
      </trkpt>
      <trkpt lat="45.99056" lon="4.82565">
        <ele>235</ele>
        <time>2018-10-23T09:11:22Z</time>
      </trkpt>
      <trkpt lat="45.99064" lon="4.82567">
        <ele>235</ele>
        <time>2018-10-23T09:11:25Z</time>
      </trkpt>
      <trkpt lat="45.99065" lon="4.82568">
        <ele>235</ele>
        <time>2018-10-23T09:11:26Z</time>
      </trkpt>
      <trkpt lat="45.99072" lon="4.82572">
        <ele>235</ele>
        <time>2018-10-23T09:12:56Z</time>
      </trkpt>
      <trkpt lat="45.99074" lon="4.82572">
        <ele>235</ele>
        <time>2018-10-23T09:12:57Z</time>
      </trkpt>
      <trkpt lat="45.99081" lon="4.82579">
        <ele>235</ele>
        <time>2018-10-23T09:13:02Z</time>
      </trkpt>
      <trkpt lat="45.9908" lon="4.82583">
        <ele>235</ele>
        <time>2018-10-23T09:13:03Z</time>
      </trkpt>
      <trkpt lat="45.99076" lon="4.82589">
        <ele>235</ele>
        <time>2018-10-23T09:13:05Z</time>
      </trkpt>
      <trkpt lat="45.99074" lon="4.82592">
        <ele>235</ele>
        <time>2018-10-23T09:13:06Z</time>
      </trkpt>
      <trkpt lat="45.99069" lon="4.82601">
        <ele>236</ele>
        <time>2018-10-23T09:13:09Z</time>
      </trkpt>
      <trkpt lat="45.99067" lon="4.82604">
        <ele>236</ele>
        <time>2018-10-23T09:13:10Z</time>
      </trkpt>
      <trkpt lat="45.99064" lon="4.82614">
        <ele>236</ele>
        <time>2018-10-23T09:13:13Z</time>
      </trkpt>
      <trkpt lat="45.99062" lon="4.82618">
        <ele>236</ele>
        <time>2018-10-23T09:13:14Z</time>
      </trkpt>
      <trkpt lat="45.99059" lon="4.82625">
        <ele>236</ele>
        <time>2018-10-23T09:13:16Z</time>
      </trkpt>
      <trkpt lat="45.99057" lon="4.82629">
        <ele>236</ele>
        <time>2018-10-23T09:13:17Z</time>
      </trkpt>
      <trkpt lat="45.99054" lon="4.82637">
        <ele>236</ele>
        <time>2018-10-23T09:13:19Z</time>
      </trkpt>
      <trkpt lat="45.99052" lon="4.82641">
        <ele>236</ele>
        <time>2018-10-23T09:13:20Z</time>
      </trkpt>
      <trkpt lat="45.9905" lon="4.82647">
        <ele>236</ele>
        <time>2018-10-23T09:13:21Z</time>
      </trkpt>
      <trkpt lat="45.99047" lon="4.82652">
        <ele>236</ele>
        <time>2018-10-23T09:13:22Z</time>
      </trkpt>
      <trkpt lat="45.99044" lon="4.8266">
        <ele>236</ele>
        <time>2018-10-23T09:13:24Z</time>
      </trkpt>
      <trkpt lat="45.99042" lon="4.82666">
        <ele>236</ele>
        <time>2018-10-23T09:13:25Z</time>
      </trkpt>
      <trkpt lat="45.99039" lon="4.82674">
        <ele>238</ele>
        <time>2018-10-23T09:13:27Z</time>
      </trkpt>
      <trkpt lat="45.99037" lon="4.82679">
        <ele>238</ele>
        <time>2018-10-23T09:13:28Z</time>
      </trkpt>
      <trkpt lat="45.99034" lon="4.82687">
        <ele>238</ele>
        <time>2018-10-23T09:13:30Z</time>
      </trkpt>
      <trkpt lat="45.99032" lon="4.8269">
        <ele>238</ele>
        <time>2018-10-23T09:13:31Z</time>
      </trkpt>
      <trkpt lat="45.99029" lon="4.82699">
        <ele>238</ele>
        <time>2018-10-23T09:13:33Z</time>
      </trkpt>
      <trkpt lat="45.99027" lon="4.82704">
        <ele>238</ele>
        <time>2018-10-23T09:13:34Z</time>
      </trkpt>
      <trkpt lat="45.99024" lon="4.82713">
        <ele>238</ele>
        <time>2018-10-23T09:13:36Z</time>
      </trkpt>
      <trkpt lat="45.99023" lon="4.82717">
        <ele>239</ele>
        <time>2018-10-23T09:13:37Z</time>
      </trkpt>
      <trkpt lat="45.9902" lon="4.82725">
        <ele>239</ele>
        <time>2018-10-23T09:13:39Z</time>
      </trkpt>
      <trkpt lat="45.99019" lon="4.8273">
        <ele>239</ele>
        <time>2018-10-23T09:13:40Z</time>
      </trkpt>
      <trkpt lat="45.99015" lon="4.82737">
        <ele>239</ele>
        <time>2018-10-23T09:13:42Z</time>
      </trkpt>
      <trkpt lat="45.99014" lon="4.82741">
        <ele>240</ele>
        <time>2018-10-23T09:13:43Z</time>
      </trkpt>
      <trkpt lat="45.99011" lon="4.82749">
        <ele>240</ele>
        <time>2018-10-23T09:13:45Z</time>
      </trkpt>
      <trkpt lat="45.9901" lon="4.82753">
        <ele>241</ele>
        <time>2018-10-23T09:13:46Z</time>
      </trkpt>
      <trkpt lat="45.99007" lon="4.82761">
        <ele>241</ele>
        <time>2018-10-23T09:13:48Z</time>
      </trkpt>
      <trkpt lat="45.99005" lon="4.82764">
        <ele>241</ele>
        <time>2018-10-23T09:13:49Z</time>
      </trkpt>
      <trkpt lat="45.99002" lon="4.82772">
        <ele>242</ele>
        <time>2018-10-23T09:13:51Z</time>
      </trkpt>
      <trkpt lat="45.99001" lon="4.82776">
        <ele>242</ele>
        <time>2018-10-23T09:13:52Z</time>
      </trkpt>
      <trkpt lat="45.98998" lon="4.82784">
        <ele>246</ele>
        <time>2018-10-23T09:13:54Z</time>
      </trkpt>
      <trkpt lat="45.98996" lon="4.82788">
        <ele>247</ele>
        <time>2018-10-23T09:13:55Z</time>
      </trkpt>
      <trkpt lat="45.98992" lon="4.82799">
        <ele>247</ele>
        <time>2018-10-23T09:13:58Z</time>
      </trkpt>
      <trkpt lat="45.98991" lon="4.82802">
        <ele>248</ele>
        <time>2018-10-23T09:13:59Z</time>
      </trkpt>
      <trkpt lat="45.98986" lon="4.8281">
        <ele>248</ele>
        <time>2018-10-23T09:14:02Z</time>
      </trkpt>
      <trkpt lat="45.98984" lon="4.82813">
        <ele>248</ele>
        <time>2018-10-23T09:14:03Z</time>
      </trkpt>
      <trkpt lat="45.9898" lon="4.82822">
        <ele>248</ele>
        <time>2018-10-23T09:14:06Z</time>
      </trkpt>
      <trkpt lat="45.98978" lon="4.82825">
        <ele>248</ele>
        <time>2018-10-23T09:14:07Z</time>
      </trkpt>
      <trkpt lat="45.98974" lon="4.82834">
        <ele>251</ele>
        <time>2018-10-23T09:14:10Z</time>
      </trkpt>
      <trkpt lat="45.98973" lon="4.82837">
        <ele>251</ele>
        <time>2018-10-23T09:14:11Z</time>
      </trkpt>
      <trkpt lat="45.98969" lon="4.82848">
        <ele>252</ele>
        <time>2018-10-23T09:14:15Z</time>
      </trkpt>
      <trkpt lat="45.98968" lon="4.8285">
        <ele>252</ele>
        <time>2018-10-23T09:14:16Z</time>
      </trkpt>
      <trkpt lat="45.98963" lon="4.8286">
        <ele>252</ele>
        <time>2018-10-23T09:14:20Z</time>
      </trkpt>
      <trkpt lat="45.98962" lon="4.82862">
        <ele>252</ele>
        <time>2018-10-23T09:14:21Z</time>
      </trkpt>
      <trkpt lat="45.98957" lon="4.82872">
        <ele>252</ele>
        <time>2018-10-23T09:14:25Z</time>
      </trkpt>
      <trkpt lat="45.98955" lon="4.82875">
        <ele>253</ele>
        <time>2018-10-23T09:14:26Z</time>
      </trkpt>
      <trkpt lat="45.9895" lon="4.82885">
        <ele>253</ele>
        <time>2018-10-23T09:14:30Z</time>
      </trkpt>
      <trkpt lat="45.98949" lon="4.82888">
        <ele>253</ele>
        <time>2018-10-23T09:14:31Z</time>
      </trkpt>
      <trkpt lat="45.98946" lon="4.82896">
        <ele>253</ele>
        <time>2018-10-23T09:14:34Z</time>
      </trkpt>
      <trkpt lat="45.98945" lon="4.82899">
        <ele>253</ele>
        <time>2018-10-23T09:14:35Z</time>
      </trkpt>
      <trkpt lat="45.98941" lon="4.82908">
        <ele>253</ele>
        <time>2018-10-23T09:14:38Z</time>
      </trkpt>
      <trkpt lat="45.9894" lon="4.82911">
        <ele>254</ele>
        <time>2018-10-23T09:14:39Z</time>
      </trkpt>
      <trkpt lat="45.98936" lon="4.82919">
        <ele>255</ele>
        <time>2018-10-23T09:14:42Z</time>
      </trkpt>
      <trkpt lat="45.98935" lon="4.82922">
        <ele>255</ele>
        <time>2018-10-23T09:14:43Z</time>
      </trkpt>
      <trkpt lat="45.98931" lon="4.82933">
        <ele>255</ele>
        <time>2018-10-23T09:14:47Z</time>
      </trkpt>
      <trkpt lat="45.98929" lon="4.82936">
        <ele>255</ele>
        <time>2018-10-23T09:14:48Z</time>
      </trkpt>
      <trkpt lat="45.98926" lon="4.82944">
        <ele>255</ele>
        <time>2018-10-23T09:14:51Z</time>
      </trkpt>
      <trkpt lat="45.98924" lon="4.82946">
        <ele>255</ele>
        <time>2018-10-23T09:14:52Z</time>
      </trkpt>
      <trkpt lat="45.98919" lon="4.82955">
        <ele>255</ele>
        <time>2018-10-23T09:14:56Z</time>
      </trkpt>
      <trkpt lat="45.98918" lon="4.82958">
        <ele>255</ele>
        <time>2018-10-23T09:14:57Z</time>
      </trkpt>
      <trkpt lat="45.98912" lon="4.82966">
        <ele>258</ele>
        <time>2018-10-23T09:15:01Z</time>
      </trkpt>
      <trkpt lat="45.98911" lon="4.82969">
        <ele>258</ele>
        <time>2018-10-23T09:15:02Z</time>
      </trkpt>
      <trkpt lat="45.98905" lon="4.82975">
        <ele>259</ele>
        <time>2018-10-23T09:15:05Z</time>
      </trkpt>
      <trkpt lat="45.98904" lon="4.82977">
        <ele>259</ele>
        <time>2018-10-23T09:15:06Z</time>
      </trkpt>
      <trkpt lat="45.98896" lon="4.82984">
        <ele>259</ele>
        <time>2018-10-23T09:15:10Z</time>
      </trkpt>
      <trkpt lat="45.98894" lon="4.82986">
        <ele>259</ele>
        <time>2018-10-23T09:15:11Z</time>
      </trkpt>
      <trkpt lat="45.98887" lon="4.82992">
        <ele>259</ele>
        <time>2018-10-23T09:15:15Z</time>
      </trkpt>
      <trkpt lat="45.98885" lon="4.82994">
        <ele>259</ele>
        <time>2018-10-23T09:15:16Z</time>
      </trkpt>
      <trkpt lat="45.98879" lon="4.82998">
        <ele>260</ele>
        <time>2018-10-23T09:15:19Z</time>
      </trkpt>
      <trkpt lat="45.98876" lon="4.82999">
        <ele>260</ele>
        <time>2018-10-23T09:15:20Z</time>
      </trkpt>
      <trkpt lat="45.9887" lon="4.83003">
        <ele>260</ele>
        <time>2018-10-23T09:15:23Z</time>
      </trkpt>
      <trkpt lat="45.98868" lon="4.83004">
        <ele>260</ele>
        <time>2018-10-23T09:15:24Z</time>
      </trkpt>
      <trkpt lat="45.9886" lon="4.83008">
        <ele>260</ele>
        <time>2018-10-23T09:15:28Z</time>
      </trkpt>
      <trkpt lat="45.98857" lon="4.83009">
        <ele>261</ele>
        <time>2018-10-23T09:15:29Z</time>
      </trkpt>
      <trkpt lat="45.9885" lon="4.83015">
        <ele>261</ele>
        <time>2018-10-23T09:15:33Z</time>
      </trkpt>
      <trkpt lat="45.98848" lon="4.83016">
        <ele>261</ele>
        <time>2018-10-23T09:15:34Z</time>
      </trkpt>
      <trkpt lat="45.98841" lon="4.8302">
        <ele>261</ele>
        <time>2018-10-23T09:15:37Z</time>
      </trkpt>
      <trkpt lat="45.98839" lon="4.83022">
        <ele>261</ele>
        <time>2018-10-23T09:15:38Z</time>
      </trkpt>
      <trkpt lat="45.98832" lon="4.83025">
        <ele>264</ele>
        <time>2018-10-23T09:15:41Z</time>
      </trkpt>
      <trkpt lat="45.9883" lon="4.83027">
        <ele>264</ele>
        <time>2018-10-23T09:15:42Z</time>
      </trkpt>
      <trkpt lat="45.98823" lon="4.83032">
        <ele>264</ele>
        <time>2018-10-23T09:15:45Z</time>
      </trkpt>
      <trkpt lat="45.98821" lon="4.83034">
        <ele>264</ele>
        <time>2018-10-23T09:15:46Z</time>
      </trkpt>
      <trkpt lat="45.98814" lon="4.83039">
        <ele>264</ele>
        <time>2018-10-23T09:15:49Z</time>
      </trkpt>
      <trkpt lat="45.98811" lon="4.8304">
        <ele>264</ele>
        <time>2018-10-23T09:15:50Z</time>
      </trkpt>
      <trkpt lat="45.98806" lon="4.83045">
        <ele>264</ele>
        <time>2018-10-23T09:15:52Z</time>
      </trkpt>
      <trkpt lat="45.98803" lon="4.83047">
        <ele>264</ele>
        <time>2018-10-23T09:15:53Z</time>
      </trkpt>
      <trkpt lat="45.98795" lon="4.83052">
        <ele>265</ele>
        <time>2018-10-23T09:15:56Z</time>
      </trkpt>
      <trkpt lat="45.98793" lon="4.83054">
        <ele>265</ele>
        <time>2018-10-23T09:15:57Z</time>
      </trkpt>
      <trkpt lat="45.98786" lon="4.83061">
        <ele>265</ele>
        <time>2018-10-23T09:16:00Z</time>
      </trkpt>
      <trkpt lat="45.98784" lon="4.83063">
        <ele>265</ele>
        <time>2018-10-23T09:16:01Z</time>
      </trkpt>
      <trkpt lat="45.98777" lon="4.8307">
        <ele>265</ele>
        <time>2018-10-23T09:16:04Z</time>
      </trkpt>
      <trkpt lat="45.98774" lon="4.83072">
        <ele>265</ele>
        <time>2018-10-23T09:16:05Z</time>
      </trkpt>
      <trkpt lat="45.98769" lon="4.83076">
        <ele>266</ele>
        <time>2018-10-23T09:16:07Z</time>
      </trkpt>
      <trkpt lat="45.98766" lon="4.83078">
        <ele>266</ele>
        <time>2018-10-23T09:16:08Z</time>
      </trkpt>
      <trkpt lat="45.98761" lon="4.83083">
        <ele>266</ele>
        <time>2018-10-23T09:16:10Z</time>
      </trkpt>
      <trkpt lat="45.98758" lon="4.83086">
        <ele>266</ele>
        <time>2018-10-23T09:16:11Z</time>
      </trkpt>
      <trkpt lat="45.98752" lon="4.83091">
        <ele>266</ele>
        <time>2018-10-23T09:16:13Z</time>
      </trkpt>
      <trkpt lat="45.9875" lon="4.83094">
        <ele>267</ele>
        <time>2018-10-23T09:16:14Z</time>
      </trkpt>
      <trkpt lat="45.98745" lon="4.83098">
        <ele>267</ele>
        <time>2018-10-23T09:16:16Z</time>
      </trkpt>
      <trkpt lat="45.98742" lon="4.83101">
        <ele>267</ele>
        <time>2018-10-23T09:16:17Z</time>
      </trkpt>
      <trkpt lat="45.98736" lon="4.83105">
        <ele>267</ele>
        <time>2018-10-23T09:16:19Z</time>
      </trkpt>
      <trkpt lat="45.98733" lon="4.83108">
        <ele>267</ele>
        <time>2018-10-23T09:16:20Z</time>
      </trkpt>
      <trkpt lat="45.98729" lon="4.83113">
        <ele>267</ele>
        <time>2018-10-23T09:16:22Z</time>
      </trkpt>
      <trkpt lat="45.98726" lon="4.83115">
        <ele>267</ele>
        <time>2018-10-23T09:16:23Z</time>
      </trkpt>
      <trkpt lat="45.9872" lon="4.83121">
        <ele>266</ele>
        <time>2018-10-23T09:16:24Z</time>
      </trkpt>
      <trkpt lat="45.98717" lon="4.83124">
        <ele>266</ele>
        <time>2018-10-23T09:16:25Z</time>
      </trkpt>
      <trkpt lat="45.9871" lon="4.8313">
        <ele>266</ele>
        <time>2018-10-23T09:16:27Z</time>
      </trkpt>
      <trkpt lat="45.98706" lon="4.83132">
        <ele>266</ele>
        <time>2018-10-23T09:16:28Z</time>
      </trkpt>
      <trkpt lat="45.98702" lon="4.83136">
        <ele>266</ele>
        <time>2018-10-23T09:16:29Z</time>
      </trkpt>
      <trkpt lat="45.98698" lon="4.83138">
        <ele>266</ele>
        <time>2018-10-23T09:16:30Z</time>
      </trkpt>
      <trkpt lat="45.98693" lon="4.83141">
        <ele>266</ele>
        <time>2018-10-23T09:16:31Z</time>
      </trkpt>
      <trkpt lat="45.9869" lon="4.83145">
        <ele>266</ele>
        <time>2018-10-23T09:16:32Z</time>
      </trkpt>
      <trkpt lat="45.98682" lon="4.8315">
        <ele>266</ele>
        <time>2018-10-23T09:16:34Z</time>
      </trkpt>
      <trkpt lat="45.98678" lon="4.83154">
        <ele>266</ele>
        <time>2018-10-23T09:16:35Z</time>
      </trkpt>
      <trkpt lat="45.9867" lon="4.83159">
        <ele>266</ele>
        <time>2018-10-23T09:16:37Z</time>
      </trkpt>
      <trkpt lat="45.98668" lon="4.8316">
        <ele>266</ele>
        <time>2018-10-23T09:16:38Z</time>
      </trkpt>
      <trkpt lat="45.9866" lon="4.83164">
        <ele>266</ele>
        <time>2018-10-23T09:16:40Z</time>
      </trkpt>
      <trkpt lat="45.98657" lon="4.83168">
        <ele>266</ele>
        <time>2018-10-23T09:16:41Z</time>
      </trkpt>
      <trkpt lat="45.98653" lon="4.83172">
        <ele>267</ele>
        <time>2018-10-23T09:16:42Z</time>
      </trkpt>
      <trkpt lat="45.98649" lon="4.83175">
        <ele>267</ele>
        <time>2018-10-23T09:16:43Z</time>
      </trkpt>
      <trkpt lat="45.98646" lon="4.8318">
        <ele>267</ele>
        <time>2018-10-23T09:16:44Z</time>
      </trkpt>
      <trkpt lat="45.98642" lon="4.83184">
        <ele>267</ele>
        <time>2018-10-23T09:16:45Z</time>
      </trkpt>
      <trkpt lat="45.98638" lon="4.83188">
        <ele>267</ele>
        <time>2018-10-23T09:16:46Z</time>
      </trkpt>
      <trkpt lat="45.98634" lon="4.83192">
        <ele>267</ele>
        <time>2018-10-23T09:16:47Z</time>
      </trkpt>
      <trkpt lat="45.98629" lon="4.83197">
        <ele>267</ele>
        <time>2018-10-23T09:16:48Z</time>
      </trkpt>
      <trkpt lat="45.98625" lon="4.83201">
        <ele>267</ele>
        <time>2018-10-23T09:16:49Z</time>
      </trkpt>
      <trkpt lat="45.98619" lon="4.83209">
        <ele>267</ele>
        <time>2018-10-23T09:16:51Z</time>
      </trkpt>
      <trkpt lat="45.98616" lon="4.83213">
        <ele>267</ele>
        <time>2018-10-23T09:16:52Z</time>
      </trkpt>
      <trkpt lat="45.9861" lon="4.83222">
        <ele>267</ele>
        <time>2018-10-23T09:16:54Z</time>
      </trkpt>
      <trkpt lat="45.98608" lon="4.83225">
        <ele>267</ele>
        <time>2018-10-23T09:16:55Z</time>
      </trkpt>
      <trkpt lat="45.98602" lon="4.83232">
        <ele>268</ele>
        <time>2018-10-23T09:16:57Z</time>
      </trkpt>
      <trkpt lat="45.98599" lon="4.83235">
        <ele>268</ele>
        <time>2018-10-23T09:16:58Z</time>
      </trkpt>
      <trkpt lat="45.98594" lon="4.83244">
        <ele>268</ele>
        <time>2018-10-23T09:17:00Z</time>
      </trkpt>
      <trkpt lat="45.98591" lon="4.83249">
        <ele>268</ele>
        <time>2018-10-23T09:17:01Z</time>
      </trkpt>
      <trkpt lat="45.98585" lon="4.83258">
        <ele>268</ele>
        <time>2018-10-23T09:17:03Z</time>
      </trkpt>
      <trkpt lat="45.98581" lon="4.83263">
        <ele>269</ele>
        <time>2018-10-23T09:17:04Z</time>
      </trkpt>
      <trkpt lat="45.98579" lon="4.83269">
        <ele>269</ele>
        <time>2018-10-23T09:17:05Z</time>
      </trkpt>
      <trkpt lat="45.98575" lon="4.83274">
        <ele>269</ele>
        <time>2018-10-23T09:17:06Z</time>
      </trkpt>
      <trkpt lat="45.98572" lon="4.83278">
        <ele>269</ele>
        <time>2018-10-23T09:17:07Z</time>
      </trkpt>
      <trkpt lat="45.98568" lon="4.83282">
        <ele>269</ele>
        <time>2018-10-23T09:17:08Z</time>
      </trkpt>
      <trkpt lat="45.98562" lon="4.83291">
        <ele>269</ele>
        <time>2018-10-23T09:17:10Z</time>
      </trkpt>
      <trkpt lat="45.9856" lon="4.83294">
        <ele>269</ele>
        <time>2018-10-23T09:17:11Z</time>
      </trkpt>
      <trkpt lat="45.98556" lon="4.83299">
        <ele>269</ele>
        <time>2018-10-23T09:17:12Z</time>
      </trkpt>
      <trkpt lat="45.98553" lon="4.83304">
        <ele>269</ele>
        <time>2018-10-23T09:17:13Z</time>
      </trkpt>
      <trkpt lat="45.98549" lon="4.83308">
        <ele>269</ele>
        <time>2018-10-23T09:17:14Z</time>
      </trkpt>
      <trkpt lat="45.98545" lon="4.83313">
        <ele>269</ele>
        <time>2018-10-23T09:17:15Z</time>
      </trkpt>
      <trkpt lat="45.98542" lon="4.83318">
        <ele>269</ele>
        <time>2018-10-23T09:17:16Z</time>
      </trkpt>
      <trkpt lat="45.98539" lon="4.83322">
        <ele>269</ele>
        <time>2018-10-23T09:17:17Z</time>
      </trkpt>
      <trkpt lat="45.98535" lon="4.83328">
        <ele>269</ele>
        <time>2018-10-23T09:17:18Z</time>
      </trkpt>
      <trkpt lat="45.98531" lon="4.83333">
        <ele>269</ele>
        <time>2018-10-23T09:17:19Z</time>
      </trkpt>
      <trkpt lat="45.98527" lon="4.83338">
        <ele>269</ele>
        <time>2018-10-23T09:17:20Z</time>
      </trkpt>
      <trkpt lat="45.98523" lon="4.83344">
        <ele>269</ele>
        <time>2018-10-23T09:17:21Z</time>
      </trkpt>
      <trkpt lat="45.98519" lon="4.83349">
        <ele>270</ele>
        <time>2018-10-23T09:17:22Z</time>
      </trkpt>
      <trkpt lat="45.98515" lon="4.83355">
        <ele>269</ele>
        <time>2018-10-23T09:17:23Z</time>
      </trkpt>
      <trkpt lat="45.9851" lon="4.83361">
        <ele>269</ele>
        <time>2018-10-23T09:17:24Z</time>
      </trkpt>
      <trkpt lat="45.98506" lon="4.83367">
        <ele>269</ele>
        <time>2018-10-23T09:17:25Z</time>
      </trkpt>
      <trkpt lat="45.98502" lon="4.83374">
        <ele>269</ele>
        <time>2018-10-23T09:17:26Z</time>
      </trkpt>
      <trkpt lat="45.98498" lon="4.8338">
        <ele>269</ele>
        <time>2018-10-23T09:17:27Z</time>
      </trkpt>
      <trkpt lat="45.98493" lon="4.83385">
        <ele>269</ele>
        <time>2018-10-23T09:17:28Z</time>
      </trkpt>
      <trkpt lat="45.98488" lon="4.83391">
        <ele>269</ele>
        <time>2018-10-23T09:17:29Z</time>
      </trkpt>
      <trkpt lat="45.98483" lon="4.83396">
        <ele>269</ele>
        <time>2018-10-23T09:17:30Z</time>
      </trkpt>
      <trkpt lat="45.98478" lon="4.83402">
        <ele>269</ele>
        <time>2018-10-23T09:17:31Z</time>
      </trkpt>
      <trkpt lat="45.98474" lon="4.83407">
        <ele>269</ele>
        <time>2018-10-23T09:17:32Z</time>
      </trkpt>
      <trkpt lat="45.9847" lon="4.83414">
        <ele>269</ele>
        <time>2018-10-23T09:17:33Z</time>
      </trkpt>
      <trkpt lat="45.98466" lon="4.8342">
        <ele>269</ele>
        <time>2018-10-23T09:17:34Z</time>
      </trkpt>
      <trkpt lat="45.98462" lon="4.83425">
        <ele>269</ele>
        <time>2018-10-23T09:17:35Z</time>
      </trkpt>
      <trkpt lat="45.98457" lon="4.83429">
        <ele>268</ele>
        <time>2018-10-23T09:17:36Z</time>
      </trkpt>
      <trkpt lat="45.98453" lon="4.83436">
        <ele>268</ele>
        <time>2018-10-23T09:17:37Z</time>
      </trkpt>
      <trkpt lat="45.98447" lon="4.83444">
        <ele>268</ele>
        <time>2018-10-23T09:17:38Z</time>
      </trkpt>
      <trkpt lat="45.98443" lon="4.83449">
        <ele>268</ele>
        <time>2018-10-23T09:17:39Z</time>
      </trkpt>
      <trkpt lat="45.98439" lon="4.83456">
        <ele>268</ele>
        <time>2018-10-23T09:17:40Z</time>
      </trkpt>
      <trkpt lat="45.98435" lon="4.83463">
        <ele>268</ele>
        <time>2018-10-23T09:17:41Z</time>
      </trkpt>
      <trkpt lat="45.98431" lon="4.83469">
        <ele>268</ele>
        <time>2018-10-23T09:17:42Z</time>
      </trkpt>
      <trkpt lat="45.98427" lon="4.83475">
        <ele>268</ele>
        <time>2018-10-23T09:17:43Z</time>
      </trkpt>
      <trkpt lat="45.98421" lon="4.83481">
        <ele>268</ele>
        <time>2018-10-23T09:17:44Z</time>
      </trkpt>
      <trkpt lat="45.98417" lon="4.83488">
        <ele>268</ele>
        <time>2018-10-23T09:17:45Z</time>
      </trkpt>
      <trkpt lat="45.98413" lon="4.83493">
        <ele>268</ele>
        <time>2018-10-23T09:17:46Z</time>
      </trkpt>
      <trkpt lat="45.98409" lon="4.83498">
        <ele>268</ele>
        <time>2018-10-23T09:17:47Z</time>
      </trkpt>
      <trkpt lat="45.98405" lon="4.83504">
        <ele>268</ele>
        <time>2018-10-23T09:17:48Z</time>
      </trkpt>
      <trkpt lat="45.98401" lon="4.8351">
        <ele>269</ele>
        <time>2018-10-23T09:17:49Z</time>
      </trkpt>
      <trkpt lat="45.98397" lon="4.83515">
        <ele>269</ele>
        <time>2018-10-23T09:17:50Z</time>
      </trkpt>
      <trkpt lat="45.98393" lon="4.83521">
        <ele>269</ele>
        <time>2018-10-23T09:17:51Z</time>
      </trkpt>
      <trkpt lat="45.98389" lon="4.83526">
        <ele>269</ele>
        <time>2018-10-23T09:17:52Z</time>
      </trkpt>
      <trkpt lat="45.98386" lon="4.83531">
        <ele>269</ele>
        <time>2018-10-23T09:17:53Z</time>
      </trkpt>
      <trkpt lat="45.98382" lon="4.83535">
        <ele>269</ele>
        <time>2018-10-23T09:17:54Z</time>
      </trkpt>
      <trkpt lat="45.98378" lon="4.83539">
        <ele>269</ele>
        <time>2018-10-23T09:17:55Z</time>
      </trkpt>
      <trkpt lat="45.98372" lon="4.83547">
        <ele>269</ele>
        <time>2018-10-23T09:17:57Z</time>
      </trkpt>
      <trkpt lat="45.98368" lon="4.83551">
        <ele>269</ele>
        <time>2018-10-23T09:17:58Z</time>
      </trkpt>
      <trkpt lat="45.98363" lon="4.83558">
        <ele>269</ele>
        <time>2018-10-23T09:18:00Z</time>
      </trkpt>
      <trkpt lat="45.9836" lon="4.83564">
        <ele>269</ele>
        <time>2018-10-23T09:18:01Z</time>
      </trkpt>
      <trkpt lat="45.98354" lon="4.83572">
        <ele>269</ele>
        <time>2018-10-23T09:18:03Z</time>
      </trkpt>
      <trkpt lat="45.98351" lon="4.83576">
        <ele>269</ele>
        <time>2018-10-23T09:18:04Z</time>
      </trkpt>
      <trkpt lat="45.98348" lon="4.83581">
        <ele>270</ele>
        <time>2018-10-23T09:18:05Z</time>
      </trkpt>
      <trkpt lat="45.98345" lon="4.83587">
        <ele>270</ele>
        <time>2018-10-23T09:18:06Z</time>
      </trkpt>
      <trkpt lat="45.98342" lon="4.83591">
        <ele>270</ele>
        <time>2018-10-23T09:18:07Z</time>
      </trkpt>
      <trkpt lat="45.98339" lon="4.83596">
        <ele>270</ele>
        <time>2018-10-23T09:18:08Z</time>
      </trkpt>
      <trkpt lat="45.98334" lon="4.83602">
        <ele>270</ele>
        <time>2018-10-23T09:18:09Z</time>
      </trkpt>
      <trkpt lat="45.9833" lon="4.83607">
        <ele>271</ele>
        <time>2018-10-23T09:18:10Z</time>
      </trkpt>
      <trkpt lat="45.98327" lon="4.83611">
        <ele>271</ele>
        <time>2018-10-23T09:18:11Z</time>
      </trkpt>
      <trkpt lat="45.98323" lon="4.83617">
        <ele>271</ele>
        <time>2018-10-23T09:18:12Z</time>
      </trkpt>
      <trkpt lat="45.9832" lon="4.83622">
        <ele>271</ele>
        <time>2018-10-23T09:18:13Z</time>
      </trkpt>
      <trkpt lat="45.98316" lon="4.83628">
        <ele>271</ele>
        <time>2018-10-23T09:18:14Z</time>
      </trkpt>
      <trkpt lat="45.98312" lon="4.83634">
        <ele>271</ele>
        <time>2018-10-23T09:18:15Z</time>
      </trkpt>
      <trkpt lat="45.98309" lon="4.83641">
        <ele>271</ele>
        <time>2018-10-23T09:18:16Z</time>
      </trkpt>
      <trkpt lat="45.98306" lon="4.83647">
        <ele>271</ele>
        <time>2018-10-23T09:18:17Z</time>
      </trkpt>
      <trkpt lat="45.98303" lon="4.83653">
        <ele>271</ele>
        <time>2018-10-23T09:18:18Z</time>
      </trkpt>
      <trkpt lat="45.983" lon="4.8366">
        <ele>271</ele>
        <time>2018-10-23T09:18:19Z</time>
      </trkpt>
      <trkpt lat="45.98298" lon="4.83666">
        <ele>271</ele>
        <time>2018-10-23T09:18:20Z</time>
      </trkpt>
      <trkpt lat="45.98295" lon="4.83674">
        <ele>272</ele>
        <time>2018-10-23T09:18:21Z</time>
      </trkpt>
      <trkpt lat="45.98292" lon="4.8368">
        <ele>272</ele>
        <time>2018-10-23T09:18:22Z</time>
      </trkpt>
      <trkpt lat="45.98289" lon="4.83687">
        <ele>272</ele>
        <time>2018-10-23T09:18:23Z</time>
      </trkpt>
      <trkpt lat="45.98286" lon="4.83697">
        <ele>272</ele>
        <time>2018-10-23T09:18:24Z</time>
      </trkpt>
      <trkpt lat="45.98283" lon="4.83703">
        <ele>272</ele>
        <time>2018-10-23T09:18:25Z</time>
      </trkpt>
      <trkpt lat="45.98282" lon="4.8371">
        <ele>272</ele>
        <time>2018-10-23T09:18:26Z</time>
      </trkpt>
      <trkpt lat="45.9828" lon="4.83717">
        <ele>272</ele>
        <time>2018-10-23T09:18:27Z</time>
      </trkpt>
      <trkpt lat="45.98279" lon="4.83724">
        <ele>272</ele>
        <time>2018-10-23T09:18:28Z</time>
      </trkpt>
      <trkpt lat="45.98276" lon="4.83732">
        <ele>272</ele>
        <time>2018-10-23T09:18:29Z</time>
      </trkpt>
      <trkpt lat="45.98274" lon="4.83737">
        <ele>272</ele>
        <time>2018-10-23T09:18:30Z</time>
      </trkpt>
      <trkpt lat="45.98271" lon="4.83743">
        <ele>272</ele>
        <time>2018-10-23T09:18:31Z</time>
      </trkpt>
      <trkpt lat="45.98269" lon="4.83749">
        <ele>272</ele>
        <time>2018-10-23T09:18:32Z</time>
      </trkpt>
      <trkpt lat="45.98265" lon="4.83754">
        <ele>272</ele>
        <time>2018-10-23T09:18:33Z</time>
      </trkpt>
      <trkpt lat="45.98264" lon="4.83761">
        <ele>272</ele>
        <time>2018-10-23T09:18:34Z</time>
      </trkpt>
      <trkpt lat="45.98261" lon="4.83767">
        <ele>272</ele>
        <time>2018-10-23T09:18:35Z</time>
      </trkpt>
      <trkpt lat="45.98257" lon="4.83774">
        <ele>272</ele>
        <time>2018-10-23T09:18:36Z</time>
      </trkpt>
      <trkpt lat="45.98255" lon="4.83781">
        <ele>272</ele>
        <time>2018-10-23T09:18:37Z</time>
      </trkpt>
      <trkpt lat="45.98253" lon="4.8379">
        <ele>272</ele>
        <time>2018-10-23T09:18:38Z</time>
      </trkpt>
      <trkpt lat="45.98251" lon="4.83797">
        <ele>272</ele>
        <time>2018-10-23T09:18:39Z</time>
      </trkpt>
      <trkpt lat="45.98248" lon="4.83805">
        <ele>272</ele>
        <time>2018-10-23T09:18:40Z</time>
      </trkpt>
      <trkpt lat="45.98246" lon="4.83811">
        <ele>272</ele>
        <time>2018-10-23T09:18:41Z</time>
      </trkpt>
      <trkpt lat="45.98243" lon="4.83817">
        <ele>272</ele>
        <time>2018-10-23T09:18:42Z</time>
      </trkpt>
      <trkpt lat="45.98241" lon="4.83824">
        <ele>272</ele>
        <time>2018-10-23T09:18:43Z</time>
      </trkpt>
      <trkpt lat="45.98239" lon="4.8383">
        <ele>272</ele>
        <time>2018-10-23T09:18:44Z</time>
      </trkpt>
      <trkpt lat="45.98237" lon="4.83836">
        <ele>272</ele>
        <time>2018-10-23T09:18:45Z</time>
      </trkpt>
      <trkpt lat="45.98235" lon="4.83842">
        <ele>272</ele>
        <time>2018-10-23T09:18:46Z</time>
      </trkpt>
      <trkpt lat="45.98232" lon="4.83849">
        <ele>272</ele>
        <time>2018-10-23T09:18:47Z</time>
      </trkpt>
      <trkpt lat="45.9823" lon="4.83856">
        <ele>272</ele>
        <time>2018-10-23T09:18:48Z</time>
      </trkpt>
      <trkpt lat="45.98227" lon="4.83863">
        <ele>272</ele>
        <time>2018-10-23T09:18:49Z</time>
      </trkpt>
      <trkpt lat="45.98225" lon="4.83869">
        <ele>272</ele>
        <time>2018-10-23T09:18:50Z</time>
      </trkpt>
      <trkpt lat="45.98224" lon="4.83877">
        <ele>272</ele>
        <time>2018-10-23T09:18:51Z</time>
      </trkpt>
      <trkpt lat="45.98221" lon="4.83886">
        <ele>272</ele>
        <time>2018-10-23T09:18:52Z</time>
      </trkpt>
      <trkpt lat="45.98219" lon="4.83893">
        <ele>272</ele>
        <time>2018-10-23T09:18:53Z</time>
      </trkpt>
      <trkpt lat="45.98216" lon="4.83901">
        <ele>273</ele>
        <time>2018-10-23T09:18:54Z</time>
      </trkpt>
      <trkpt lat="45.98214" lon="4.8391">
        <ele>273</ele>
        <time>2018-10-23T09:18:55Z</time>
      </trkpt>
      <trkpt lat="45.98211" lon="4.83918">
        <ele>273</ele>
        <time>2018-10-23T09:18:56Z</time>
      </trkpt>
      <trkpt lat="45.98207" lon="4.83925">
        <ele>273</ele>
        <time>2018-10-23T09:18:57Z</time>
      </trkpt>
      <trkpt lat="45.98204" lon="4.83931">
        <ele>273</ele>
        <time>2018-10-23T09:18:58Z</time>
      </trkpt>
      <trkpt lat="45.98201" lon="4.83938">
        <ele>273</ele>
        <time>2018-10-23T09:18:59Z</time>
      </trkpt>
      <trkpt lat="45.98199" lon="4.83945">
        <ele>273</ele>
        <time>2018-10-23T09:19:00Z</time>
      </trkpt>
      <trkpt lat="45.98196" lon="4.83951">
        <ele>273</ele>
        <time>2018-10-23T09:19:01Z</time>
      </trkpt>
      <trkpt lat="45.98194" lon="4.83958">
        <ele>273</ele>
        <time>2018-10-23T09:19:02Z</time>
      </trkpt>
      <trkpt lat="45.98191" lon="4.83964">
        <ele>273</ele>
        <time>2018-10-23T09:19:03Z</time>
      </trkpt>
      <trkpt lat="45.98189" lon="4.8397">
        <ele>273</ele>
        <time>2018-10-23T09:19:04Z</time>
      </trkpt>
      <trkpt lat="45.98186" lon="4.83975">
        <ele>273</ele>
        <time>2018-10-23T09:19:05Z</time>
      </trkpt>
      <trkpt lat="45.98184" lon="4.83982">
        <ele>273</ele>
        <time>2018-10-23T09:19:06Z</time>
      </trkpt>
      <trkpt lat="45.98182" lon="4.83988">
        <ele>273</ele>
        <time>2018-10-23T09:19:07Z</time>
      </trkpt>
      <trkpt lat="45.98179" lon="4.83994">
        <ele>273</ele>
        <time>2018-10-23T09:19:08Z</time>
      </trkpt>
      <trkpt lat="45.98177" lon="4.84001">
        <ele>273</ele>
        <time>2018-10-23T09:19:09Z</time>
      </trkpt>
      <trkpt lat="45.98174" lon="4.84008">
        <ele>273</ele>
        <time>2018-10-23T09:19:10Z</time>
      </trkpt>
      <trkpt lat="45.98172" lon="4.84016">
        <ele>273</ele>
        <time>2018-10-23T09:19:11Z</time>
      </trkpt>
      <trkpt lat="45.98169" lon="4.84023">
        <ele>273</ele>
        <time>2018-10-23T09:19:12Z</time>
      </trkpt>
      <trkpt lat="45.98165" lon="4.8403">
        <ele>273</ele>
        <time>2018-10-23T09:19:13Z</time>
      </trkpt>
      <trkpt lat="45.98162" lon="4.84037">
        <ele>273</ele>
        <time>2018-10-23T09:19:14Z</time>
      </trkpt>
      <trkpt lat="45.98159" lon="4.84044">
        <ele>273</ele>
        <time>2018-10-23T09:19:15Z</time>
      </trkpt>
      <trkpt lat="45.98155" lon="4.84051">
        <ele>273</ele>
        <time>2018-10-23T09:19:16Z</time>
      </trkpt>
      <trkpt lat="45.98151" lon="4.84058">
        <ele>273</ele>
        <time>2018-10-23T09:19:17Z</time>
      </trkpt>
      <trkpt lat="45.98146" lon="4.84063">
        <ele>273</ele>
        <time>2018-10-23T09:19:18Z</time>
      </trkpt>
      <trkpt lat="45.98141" lon="4.84069">
        <ele>273</ele>
        <time>2018-10-23T09:19:19Z</time>
      </trkpt>
      <trkpt lat="45.98137" lon="4.84075">
        <ele>273</ele>
        <time>2018-10-23T09:19:20Z</time>
      </trkpt>
      <trkpt lat="45.98133" lon="4.84081">
        <ele>273</ele>
        <time>2018-10-23T09:19:21Z</time>
      </trkpt>
      <trkpt lat="45.98127" lon="4.84087">
        <ele>273</ele>
        <time>2018-10-23T09:19:22Z</time>
      </trkpt>
      <trkpt lat="45.98124" lon="4.84092">
        <ele>273</ele>
        <time>2018-10-23T09:19:23Z</time>
      </trkpt>
      <trkpt lat="45.98119" lon="4.84096">
        <ele>273</ele>
        <time>2018-10-23T09:19:24Z</time>
      </trkpt>
      <trkpt lat="45.98115" lon="4.841">
        <ele>273</ele>
        <time>2018-10-23T09:19:25Z</time>
      </trkpt>
      <trkpt lat="45.98111" lon="4.84103">
        <ele>273</ele>
        <time>2018-10-23T09:19:26Z</time>
      </trkpt>
      <trkpt lat="45.98106" lon="4.84107">
        <ele>273</ele>
        <time>2018-10-23T09:19:27Z</time>
      </trkpt>
      <trkpt lat="45.98101" lon="4.8411">
        <ele>273</ele>
        <time>2018-10-23T09:19:28Z</time>
      </trkpt>
      <trkpt lat="45.98096" lon="4.84114">
        <ele>273</ele>
        <time>2018-10-23T09:19:29Z</time>
      </trkpt>
      <trkpt lat="45.98092" lon="4.84119">
        <ele>273</ele>
        <time>2018-10-23T09:19:30Z</time>
      </trkpt>
      <trkpt lat="45.98088" lon="4.84124">
        <ele>273</ele>
        <time>2018-10-23T09:19:31Z</time>
      </trkpt>
      <trkpt lat="45.98084" lon="4.84129">
        <ele>273</ele>
        <time>2018-10-23T09:19:32Z</time>
      </trkpt>
      <trkpt lat="45.98079" lon="4.84133">
        <ele>273</ele>
        <time>2018-10-23T09:19:33Z</time>
      </trkpt>
      <trkpt lat="45.98075" lon="4.84138">
        <ele>273</ele>
        <time>2018-10-23T09:19:34Z</time>
      </trkpt>
      <trkpt lat="45.98069" lon="4.84143">
        <ele>273</ele>
        <time>2018-10-23T09:19:35Z</time>
      </trkpt>
      <trkpt lat="45.98064" lon="4.84148">
        <ele>273</ele>
        <time>2018-10-23T09:19:36Z</time>
      </trkpt>
      <trkpt lat="45.9806" lon="4.84152">
        <ele>273</ele>
        <time>2018-10-23T09:19:37Z</time>
      </trkpt>
      <trkpt lat="45.98055" lon="4.84159">
        <ele>273</ele>
        <time>2018-10-23T09:19:38Z</time>
      </trkpt>
      <trkpt lat="45.9805" lon="4.84163">
        <ele>273</ele>
        <time>2018-10-23T09:19:39Z</time>
      </trkpt>
      <trkpt lat="45.98046" lon="4.84166">
        <ele>273</ele>
        <time>2018-10-23T09:19:40Z</time>
      </trkpt>
      <trkpt lat="45.98042" lon="4.84171">
        <ele>273</ele>
        <time>2018-10-23T09:19:41Z</time>
      </trkpt>
      <trkpt lat="45.98038" lon="4.84175">
        <ele>273</ele>
        <time>2018-10-23T09:19:42Z</time>
      </trkpt>
      <trkpt lat="45.98033" lon="4.84179">
        <ele>273</ele>
        <time>2018-10-23T09:19:43Z</time>
      </trkpt>
      <trkpt lat="45.98028" lon="4.84184">
        <ele>274</ele>
        <time>2018-10-23T09:19:44Z</time>
      </trkpt>
      <trkpt lat="45.98024" lon="4.84191">
        <ele>274</ele>
        <time>2018-10-23T09:19:45Z</time>
      </trkpt>
      <trkpt lat="45.98018" lon="4.84194">
        <ele>274</ele>
        <time>2018-10-23T09:19:46Z</time>
      </trkpt>
      <trkpt lat="45.98013" lon="4.84199">
        <ele>274</ele>
        <time>2018-10-23T09:19:47Z</time>
      </trkpt>
      <trkpt lat="45.98007" lon="4.84206">
        <ele>274</ele>
        <time>2018-10-23T09:19:48Z</time>
      </trkpt>
      <trkpt lat="45.98001" lon="4.84211">
        <ele>274</ele>
        <time>2018-10-23T09:19:49Z</time>
      </trkpt>
      <trkpt lat="45.97996" lon="4.84215">
        <ele>274</ele>
        <time>2018-10-23T09:19:50Z</time>
      </trkpt>
      <trkpt lat="45.97992" lon="4.84221">
        <ele>274</ele>
        <time>2018-10-23T09:19:51Z</time>
      </trkpt>
      <trkpt lat="45.97987" lon="4.84225">
        <ele>274</ele>
        <time>2018-10-23T09:19:52Z</time>
      </trkpt>
      <trkpt lat="45.97983" lon="4.84231">
        <ele>274</ele>
        <time>2018-10-23T09:19:53Z</time>
      </trkpt>
      <trkpt lat="45.97979" lon="4.84234">
        <ele>274</ele>
        <time>2018-10-23T09:19:54Z</time>
      </trkpt>
      <trkpt lat="45.97974" lon="4.84238">
        <ele>274</ele>
        <time>2018-10-23T09:19:55Z</time>
      </trkpt>
      <trkpt lat="45.97969" lon="4.84242">
        <ele>274</ele>
        <time>2018-10-23T09:19:56Z</time>
      </trkpt>
      <trkpt lat="45.97965" lon="4.84246">
        <ele>274</ele>
        <time>2018-10-23T09:19:57Z</time>
      </trkpt>
      <trkpt lat="45.97961" lon="4.8425">
        <ele>274</ele>
        <time>2018-10-23T09:19:58Z</time>
      </trkpt>
      <trkpt lat="45.97954" lon="4.84257">
        <ele>275</ele>
        <time>2018-10-23T09:20:00Z</time>
      </trkpt>
      <trkpt lat="45.9795" lon="4.8426">
        <ele>275</ele>
        <time>2018-10-23T09:20:01Z</time>
      </trkpt>
      <trkpt lat="45.97946" lon="4.84265">
        <ele>275</ele>
        <time>2018-10-23T09:20:02Z</time>
      </trkpt>
      <trkpt lat="45.97943" lon="4.84268">
        <ele>275</ele>
        <time>2018-10-23T09:20:03Z</time>
      </trkpt>
      <trkpt lat="45.97936" lon="4.84276">
        <ele>275</ele>
        <time>2018-10-23T09:20:05Z</time>
      </trkpt>
      <trkpt lat="45.97932" lon="4.8428">
        <ele>275</ele>
        <time>2018-10-23T09:20:06Z</time>
      </trkpt>
      <trkpt lat="45.97926" lon="4.84289">
        <ele>275</ele>
        <time>2018-10-23T09:20:08Z</time>
      </trkpt>
      <trkpt lat="45.97926" lon="4.84296">
        <ele>275</ele>
        <time>2018-10-23T09:20:09Z</time>
      </trkpt>
      <trkpt lat="45.97929" lon="4.84308">
        <ele>275</ele>
        <time>2018-10-23T09:20:11Z</time>
      </trkpt>
      <trkpt lat="45.97929" lon="4.84314">
        <ele>275</ele>
        <time>2018-10-23T09:20:12Z</time>
      </trkpt>
      <trkpt lat="45.97931" lon="4.8432">
        <ele>275</ele>
        <time>2018-10-23T09:20:13Z</time>
      </trkpt>
      <trkpt lat="45.97933" lon="4.84326">
        <ele>275</ele>
        <time>2018-10-23T09:20:14Z</time>
      </trkpt>
      <trkpt lat="45.97934" lon="4.84333">
        <ele>275</ele>
        <time>2018-10-23T09:20:15Z</time>
      </trkpt>
      <trkpt lat="45.97935" lon="4.8434">
        <ele>275</ele>
        <time>2018-10-23T09:20:16Z</time>
      </trkpt>
      <trkpt lat="45.97936" lon="4.84347">
        <ele>275</ele>
        <time>2018-10-23T09:20:17Z</time>
      </trkpt>
      <trkpt lat="45.97937" lon="4.84355">
        <ele>275</ele>
        <time>2018-10-23T09:20:18Z</time>
      </trkpt>
      <trkpt lat="45.97939" lon="4.84362">
        <ele>275</ele>
        <time>2018-10-23T09:20:19Z</time>
      </trkpt>
      <trkpt lat="45.9794" lon="4.84369">
        <ele>275</ele>
        <time>2018-10-23T09:20:20Z</time>
      </trkpt>
      <trkpt lat="45.97941" lon="4.84377">
        <ele>275</ele>
        <time>2018-10-23T09:20:21Z</time>
      </trkpt>
      <trkpt lat="45.97942" lon="4.84384">
        <ele>275</ele>
        <time>2018-10-23T09:20:22Z</time>
      </trkpt>
      <trkpt lat="45.97943" lon="4.84391">
        <ele>275</ele>
        <time>2018-10-23T09:20:23Z</time>
      </trkpt>
      <trkpt lat="45.97945" lon="4.84398">
        <ele>275</ele>
        <time>2018-10-23T09:20:24Z</time>
      </trkpt>
      <trkpt lat="45.97945" lon="4.84404">
        <ele>275</ele>
        <time>2018-10-23T09:20:25Z</time>
      </trkpt>
      <trkpt lat="45.97946" lon="4.84411">
        <ele>275</ele>
        <time>2018-10-23T09:20:26Z</time>
      </trkpt>
      <trkpt lat="45.97947" lon="4.84418">
        <ele>275</ele>
        <time>2018-10-23T09:20:27Z</time>
      </trkpt>
      <trkpt lat="45.97948" lon="4.84425">
        <ele>275</ele>
        <time>2018-10-23T09:20:28Z</time>
      </trkpt>
      <trkpt lat="45.97949" lon="4.84433">
        <ele>275</ele>
        <time>2018-10-23T09:20:29Z</time>
      </trkpt>
      <trkpt lat="45.9795" lon="4.84442">
        <ele>275</ele>
        <time>2018-10-23T09:20:30Z</time>
      </trkpt>
      <trkpt lat="45.97952" lon="4.8445">
        <ele>275</ele>
        <time>2018-10-23T09:20:31Z</time>
      </trkpt>
      <trkpt lat="45.97954" lon="4.84458">
        <ele>275</ele>
        <time>2018-10-23T09:20:32Z</time>
      </trkpt>
      <trkpt lat="45.97956" lon="4.84466">
        <ele>275</ele>
        <time>2018-10-23T09:20:33Z</time>
      </trkpt>
      <trkpt lat="45.97957" lon="4.84474">
        <ele>275</ele>
        <time>2018-10-23T09:20:34Z</time>
      </trkpt>
      <trkpt lat="45.97958" lon="4.84482">
        <ele>275</ele>
        <time>2018-10-23T09:20:35Z</time>
      </trkpt>
      <trkpt lat="45.97959" lon="4.84489">
        <ele>275</ele>
        <time>2018-10-23T09:20:36Z</time>
      </trkpt>
      <trkpt lat="45.9796" lon="4.84496">
        <ele>275</ele>
        <time>2018-10-23T09:20:37Z</time>
      </trkpt>
      <trkpt lat="45.97961" lon="4.84502">
        <ele>275</ele>
        <time>2018-10-23T09:20:38Z</time>
      </trkpt>
      <trkpt lat="45.97962" lon="4.84509">
        <ele>275</ele>
        <time>2018-10-23T09:20:39Z</time>
      </trkpt>
      <trkpt lat="45.97963" lon="4.84515">
        <ele>275</ele>
        <time>2018-10-23T09:20:40Z</time>
      </trkpt>
      <trkpt lat="45.97963" lon="4.84521">
        <ele>275</ele>
        <time>2018-10-23T09:20:41Z</time>
      </trkpt>
      <trkpt lat="45.97964" lon="4.84528">
        <ele>275</ele>
        <time>2018-10-23T09:20:42Z</time>
      </trkpt>
      <trkpt lat="45.97966" lon="4.84535">
        <ele>275</ele>
        <time>2018-10-23T09:20:43Z</time>
      </trkpt>
      <trkpt lat="45.97968" lon="4.84542">
        <ele>275</ele>
        <time>2018-10-23T09:20:44Z</time>
      </trkpt>
      <trkpt lat="45.97969" lon="4.84549">
        <ele>275</ele>
        <time>2018-10-23T09:20:45Z</time>
      </trkpt>
      <trkpt lat="45.9797" lon="4.84556">
        <ele>275</ele>
        <time>2018-10-23T09:20:46Z</time>
      </trkpt>
      <trkpt lat="45.9797" lon="4.84565">
        <ele>275</ele>
        <time>2018-10-23T09:20:47Z</time>
      </trkpt>
      <trkpt lat="45.97971" lon="4.84573">
        <ele>275</ele>
        <time>2018-10-23T09:20:48Z</time>
      </trkpt>
      <trkpt lat="45.97972" lon="4.84581">
        <ele>275</ele>
        <time>2018-10-23T09:20:49Z</time>
      </trkpt>
      <trkpt lat="45.97973" lon="4.84589">
        <ele>275</ele>
        <time>2018-10-23T09:20:50Z</time>
      </trkpt>
      <trkpt lat="45.97974" lon="4.84598">
        <ele>275</ele>
        <time>2018-10-23T09:20:51Z</time>
      </trkpt>
      <trkpt lat="45.97975" lon="4.84607">
        <ele>275</ele>
        <time>2018-10-23T09:20:52Z</time>
      </trkpt>
      <trkpt lat="45.97978" lon="4.84616">
        <ele>275</ele>
        <time>2018-10-23T09:20:53Z</time>
      </trkpt>
      <trkpt lat="45.97979" lon="4.84624">
        <ele>275</ele>
        <time>2018-10-23T09:20:54Z</time>
      </trkpt>
      <trkpt lat="45.97981" lon="4.84633">
        <ele>275</ele>
        <time>2018-10-23T09:20:55Z</time>
      </trkpt>
      <trkpt lat="45.97982" lon="4.84641">
        <ele>275</ele>
        <time>2018-10-23T09:20:56Z</time>
      </trkpt>
      <trkpt lat="45.97983" lon="4.84649">
        <ele>274</ele>
        <time>2018-10-23T09:20:57Z</time>
      </trkpt>
      <trkpt lat="45.97984" lon="4.84657">
        <ele>274</ele>
        <time>2018-10-23T09:20:58Z</time>
      </trkpt>
      <trkpt lat="45.97985" lon="4.84665">
        <ele>274</ele>
        <time>2018-10-23T09:20:59Z</time>
      </trkpt>
      <trkpt lat="45.97986" lon="4.84671">
        <ele>275</ele>
        <time>2018-10-23T09:21:00Z</time>
      </trkpt>
      <trkpt lat="45.97987" lon="4.84678">
        <ele>275</ele>
        <time>2018-10-23T09:21:01Z</time>
      </trkpt>
      <trkpt lat="45.97988" lon="4.84684">
        <ele>275</ele>
        <time>2018-10-23T09:21:02Z</time>
      </trkpt>
      <trkpt lat="45.97988" lon="4.84692">
        <ele>275</ele>
        <time>2018-10-23T09:21:03Z</time>
      </trkpt>
      <trkpt lat="45.97989" lon="4.84699">
        <ele>275</ele>
        <time>2018-10-23T09:21:04Z</time>
      </trkpt>
      <trkpt lat="45.97989" lon="4.84706">
        <ele>275</ele>
        <time>2018-10-23T09:21:05Z</time>
      </trkpt>
      <trkpt lat="45.9799" lon="4.84712">
        <ele>275</ele>
        <time>2018-10-23T09:21:06Z</time>
      </trkpt>
      <trkpt lat="45.97991" lon="4.8472">
        <ele>275</ele>
        <time>2018-10-23T09:21:07Z</time>
      </trkpt>
      <trkpt lat="45.97991" lon="4.84727">
        <ele>275</ele>
        <time>2018-10-23T09:21:08Z</time>
      </trkpt>
      <trkpt lat="45.97991" lon="4.84736">
        <ele>275</ele>
        <time>2018-10-23T09:21:09Z</time>
      </trkpt>
      <trkpt lat="45.97992" lon="4.84744">
        <ele>275</ele>
        <time>2018-10-23T09:21:10Z</time>
      </trkpt>
      <trkpt lat="45.97992" lon="4.84752">
        <ele>275</ele>
        <time>2018-10-23T09:21:11Z</time>
      </trkpt>
      <trkpt lat="45.97992" lon="4.8476">
        <ele>275</ele>
        <time>2018-10-23T09:21:12Z</time>
      </trkpt>
      <trkpt lat="45.97993" lon="4.84767">
        <ele>275</ele>
        <time>2018-10-23T09:21:13Z</time>
      </trkpt>
      <trkpt lat="45.97993" lon="4.84775">
        <ele>274</ele>
        <time>2018-10-23T09:21:14Z</time>
      </trkpt>
      <trkpt lat="45.97993" lon="4.84782">
        <ele>274</ele>
        <time>2018-10-23T09:21:15Z</time>
      </trkpt>
      <trkpt lat="45.97995" lon="4.8479">
        <ele>274</ele>
        <time>2018-10-23T09:21:16Z</time>
      </trkpt>
      <trkpt lat="45.97996" lon="4.84797">
        <ele>274</ele>
        <time>2018-10-23T09:21:17Z</time>
      </trkpt>
      <trkpt lat="45.97997" lon="4.84806">
        <ele>274</ele>
        <time>2018-10-23T09:21:18Z</time>
      </trkpt>
      <trkpt lat="45.97997" lon="4.84812">
        <ele>273</ele>
        <time>2018-10-23T09:21:19Z</time>
      </trkpt>
      <trkpt lat="45.97997" lon="4.8482">
        <ele>273</ele>
        <time>2018-10-23T09:21:20Z</time>
      </trkpt>
      <trkpt lat="45.97997" lon="4.84831">
        <ele>272</ele>
        <time>2018-10-23T09:21:22Z</time>
      </trkpt>
      <trkpt lat="45.97998" lon="4.84838">
        <ele>272</ele>
        <time>2018-10-23T09:21:23Z</time>
      </trkpt>
      <trkpt lat="45.97998" lon="4.84845">
        <ele>272</ele>
        <time>2018-10-23T09:21:24Z</time>
      </trkpt>
      <trkpt lat="45.97999" lon="4.84852">
        <ele>272</ele>
        <time>2018-10-23T09:21:25Z</time>
      </trkpt>
      <trkpt lat="45.98" lon="4.84859">
        <ele>272</ele>
        <time>2018-10-23T09:21:26Z</time>
      </trkpt>
      <trkpt lat="45.98001" lon="4.84866">
        <ele>272</ele>
        <time>2018-10-23T09:21:27Z</time>
      </trkpt>
      <trkpt lat="45.98001" lon="4.84875">
        <ele>272</ele>
        <time>2018-10-23T09:21:28Z</time>
      </trkpt>
      <trkpt lat="45.98003" lon="4.84883">
        <ele>272</ele>
        <time>2018-10-23T09:21:29Z</time>
      </trkpt>
      <trkpt lat="45.98003" lon="4.84891">
        <ele>272</ele>
        <time>2018-10-23T09:21:30Z</time>
      </trkpt>
      <trkpt lat="45.98005" lon="4.84899">
        <ele>272</ele>
        <time>2018-10-23T09:21:31Z</time>
      </trkpt>
      <trkpt lat="45.98005" lon="4.84907">
        <ele>272</ele>
        <time>2018-10-23T09:21:32Z</time>
      </trkpt>
      <trkpt lat="45.98005" lon="4.84914">
        <ele>272</ele>
        <time>2018-10-23T09:21:33Z</time>
      </trkpt>
      <trkpt lat="45.98006" lon="4.84921">
        <ele>272</ele>
        <time>2018-10-23T09:21:34Z</time>
      </trkpt>
      <trkpt lat="45.98005" lon="4.8493">
        <ele>272</ele>
        <time>2018-10-23T09:21:35Z</time>
      </trkpt>
      <trkpt lat="45.98005" lon="4.84936">
        <ele>272</ele>
        <time>2018-10-23T09:21:36Z</time>
      </trkpt>
      <trkpt lat="45.98005" lon="4.84943">
        <ele>272</ele>
        <time>2018-10-23T09:21:37Z</time>
      </trkpt>
      <trkpt lat="45.98007" lon="4.84955">
        <ele>272</ele>
        <time>2018-10-23T09:21:39Z</time>
      </trkpt>
      <trkpt lat="45.98009" lon="4.84962">
        <ele>272</ele>
        <time>2018-10-23T09:21:40Z</time>
      </trkpt>
      <trkpt lat="45.9801" lon="4.8497">
        <ele>272</ele>
        <time>2018-10-23T09:21:41Z</time>
      </trkpt>
      <trkpt lat="45.98011" lon="4.84978">
        <ele>272</ele>
        <time>2018-10-23T09:21:42Z</time>
      </trkpt>
      <trkpt lat="45.98011" lon="4.84986">
        <ele>272</ele>
        <time>2018-10-23T09:21:43Z</time>
      </trkpt>
      <trkpt lat="45.98012" lon="4.84993">
        <ele>272</ele>
        <time>2018-10-23T09:21:44Z</time>
      </trkpt>
      <trkpt lat="45.98013" lon="4.85">
        <ele>272</ele>
        <time>2018-10-23T09:21:45Z</time>
      </trkpt>
      <trkpt lat="45.98014" lon="4.85008">
        <ele>272</ele>
        <time>2018-10-23T09:21:46Z</time>
      </trkpt>
      <trkpt lat="45.98015" lon="4.85016">
        <ele>273</ele>
        <time>2018-10-23T09:21:47Z</time>
      </trkpt>
      <trkpt lat="45.98015" lon="4.85024">
        <ele>273</ele>
        <time>2018-10-23T09:21:48Z</time>
      </trkpt>
      <trkpt lat="45.98016" lon="4.85033">
        <ele>273</ele>
        <time>2018-10-23T09:21:49Z</time>
      </trkpt>
      <trkpt lat="45.98016" lon="4.85041">
        <ele>273</ele>
        <time>2018-10-23T09:21:50Z</time>
      </trkpt>
      <trkpt lat="45.98017" lon="4.8505">
        <ele>273</ele>
        <time>2018-10-23T09:21:51Z</time>
      </trkpt>
      <trkpt lat="45.98017" lon="4.85058">
        <ele>273</ele>
        <time>2018-10-23T09:21:52Z</time>
      </trkpt>
      <trkpt lat="45.98019" lon="4.85066">
        <ele>273</ele>
        <time>2018-10-23T09:21:53Z</time>
      </trkpt>
      <trkpt lat="45.9802" lon="4.85073">
        <ele>273</ele>
        <time>2018-10-23T09:21:54Z</time>
      </trkpt>
      <trkpt lat="45.9802" lon="4.85081">
        <ele>273</ele>
        <time>2018-10-23T09:21:55Z</time>
      </trkpt>
      <trkpt lat="45.9802" lon="4.85088">
        <ele>274</ele>
        <time>2018-10-23T09:21:56Z</time>
      </trkpt>
      <trkpt lat="45.98022" lon="4.851">
        <ele>274</ele>
        <time>2018-10-23T09:21:58Z</time>
      </trkpt>
      <trkpt lat="45.98022" lon="4.85106">
        <ele>274</ele>
        <time>2018-10-23T09:21:59Z</time>
      </trkpt>
      <trkpt lat="45.98023" lon="4.85112">
        <ele>274</ele>
        <time>2018-10-23T09:22:00Z</time>
      </trkpt>
      <trkpt lat="45.98024" lon="4.8512">
        <ele>274</ele>
        <time>2018-10-23T09:22:01Z</time>
      </trkpt>
      <trkpt lat="45.98026" lon="4.85126">
        <ele>274</ele>
        <time>2018-10-23T09:22:02Z</time>
      </trkpt>
      <trkpt lat="45.98028" lon="4.85132">
        <ele>274</ele>
        <time>2018-10-23T09:22:03Z</time>
      </trkpt>
      <trkpt lat="45.98029" lon="4.85137">
        <ele>275</ele>
        <time>2018-10-23T09:22:04Z</time>
      </trkpt>
      <trkpt lat="45.98031" lon="4.85144">
        <ele>275</ele>
        <time>2018-10-23T09:22:05Z</time>
      </trkpt>
      <trkpt lat="45.98035" lon="4.85156">
        <ele>275</ele>
        <time>2018-10-23T09:22:07Z</time>
      </trkpt>
      <trkpt lat="45.98036" lon="4.85161">
        <ele>275</ele>
        <time>2018-10-23T09:22:08Z</time>
      </trkpt>
      <trkpt lat="45.9804" lon="4.85173">
        <ele>275</ele>
        <time>2018-10-23T09:22:10Z</time>
      </trkpt>
      <trkpt lat="45.98042" lon="4.85179">
        <ele>276</ele>
        <time>2018-10-23T09:22:11Z</time>
      </trkpt>
      <trkpt lat="45.98043" lon="4.85185">
        <ele>276</ele>
        <time>2018-10-23T09:22:12Z</time>
      </trkpt>
      <trkpt lat="45.98045" lon="4.85191">
        <ele>276</ele>
        <time>2018-10-23T09:22:13Z</time>
      </trkpt>
      <trkpt lat="45.98048" lon="4.85202">
        <ele>276</ele>
        <time>2018-10-23T09:22:15Z</time>
      </trkpt>
      <trkpt lat="45.98051" lon="4.85208">
        <ele>276</ele>
        <time>2018-10-23T09:22:16Z</time>
      </trkpt>
      <trkpt lat="45.98055" lon="4.85217">
        <ele>276</ele>
        <time>2018-10-23T09:22:18Z</time>
      </trkpt>
      <trkpt lat="45.98058" lon="4.85222">
        <ele>276</ele>
        <time>2018-10-23T09:22:19Z</time>
      </trkpt>
      <trkpt lat="45.98061" lon="4.85227">
        <ele>276</ele>
        <time>2018-10-23T09:22:20Z</time>
      </trkpt>
      <trkpt lat="45.98062" lon="4.85234">
        <ele>276</ele>
        <time>2018-10-23T09:22:21Z</time>
      </trkpt>
      <trkpt lat="45.98063" lon="4.8524">
        <ele>276</ele>
        <time>2018-10-23T09:22:22Z</time>
      </trkpt>
      <trkpt lat="45.98067" lon="4.85247">
        <ele>276</ele>
        <time>2018-10-23T09:22:23Z</time>
      </trkpt>
      <trkpt lat="45.98071" lon="4.85253">
        <ele>276</ele>
        <time>2018-10-23T09:22:24Z</time>
      </trkpt>
      <trkpt lat="45.98074" lon="4.85259">
        <ele>276</ele>
        <time>2018-10-23T09:22:25Z</time>
      </trkpt>
      <trkpt lat="45.98078" lon="4.85266">
        <ele>276</ele>
        <time>2018-10-23T09:22:26Z</time>
      </trkpt>
      <trkpt lat="45.98081" lon="4.85272">
        <ele>276</ele>
        <time>2018-10-23T09:22:27Z</time>
      </trkpt>
      <trkpt lat="45.98085" lon="4.8528">
        <ele>276</ele>
        <time>2018-10-23T09:22:28Z</time>
      </trkpt>
      <trkpt lat="45.98089" lon="4.85286">
        <ele>276</ele>
        <time>2018-10-23T09:22:29Z</time>
      </trkpt>
      <trkpt lat="45.98092" lon="4.85292">
        <ele>276</ele>
        <time>2018-10-23T09:22:30Z</time>
      </trkpt>
      <trkpt lat="45.98095" lon="4.853">
        <ele>276</ele>
        <time>2018-10-23T09:22:31Z</time>
      </trkpt>
      <trkpt lat="45.98098" lon="4.85306">
        <ele>276</ele>
        <time>2018-10-23T09:22:32Z</time>
      </trkpt>
      <trkpt lat="45.98101" lon="4.85313">
        <ele>276</ele>
        <time>2018-10-23T09:22:33Z</time>
      </trkpt>
      <trkpt lat="45.98103" lon="4.85319">
        <ele>276</ele>
        <time>2018-10-23T09:22:34Z</time>
      </trkpt>
      <trkpt lat="45.98106" lon="4.85326">
        <ele>276</ele>
        <time>2018-10-23T09:22:35Z</time>
      </trkpt>
      <trkpt lat="45.98108" lon="4.85331">
        <ele>276</ele>
        <time>2018-10-23T09:22:36Z</time>
      </trkpt>
      <trkpt lat="45.98111" lon="4.85339">
        <ele>276</ele>
        <time>2018-10-23T09:22:37Z</time>
      </trkpt>
      <trkpt lat="45.98114" lon="4.85345">
        <ele>276</ele>
        <time>2018-10-23T09:22:38Z</time>
      </trkpt>
      <trkpt lat="45.98116" lon="4.85351">
        <ele>276</ele>
        <time>2018-10-23T09:22:39Z</time>
      </trkpt>
      <trkpt lat="45.98119" lon="4.85356">
        <ele>276</ele>
        <time>2018-10-23T09:22:40Z</time>
      </trkpt>
      <trkpt lat="45.98123" lon="4.8536">
        <ele>276</ele>
        <time>2018-10-23T09:22:41Z</time>
      </trkpt>
      <trkpt lat="45.98125" lon="4.85367">
        <ele>276</ele>
        <time>2018-10-23T09:22:42Z</time>
      </trkpt>
      <trkpt lat="45.98127" lon="4.85374">
        <ele>276</ele>
        <time>2018-10-23T09:22:43Z</time>
      </trkpt>
      <trkpt lat="45.9813" lon="4.85382">
        <ele>276</ele>
        <time>2018-10-23T09:22:44Z</time>
      </trkpt>
      <trkpt lat="45.98133" lon="4.85388">
        <ele>276</ele>
        <time>2018-10-23T09:22:45Z</time>
      </trkpt>
      <trkpt lat="45.98135" lon="4.85395">
        <ele>276</ele>
        <time>2018-10-23T09:22:46Z</time>
      </trkpt>
      <trkpt lat="45.98137" lon="4.85402">
        <ele>276</ele>
        <time>2018-10-23T09:22:47Z</time>
      </trkpt>
      <trkpt lat="45.9814" lon="4.85409">
        <ele>276</ele>
        <time>2018-10-23T09:22:48Z</time>
      </trkpt>
      <trkpt lat="45.98142" lon="4.85416">
        <ele>276</ele>
        <time>2018-10-23T09:22:49Z</time>
      </trkpt>
      <trkpt lat="45.98145" lon="4.85422">
        <ele>276</ele>
        <time>2018-10-23T09:22:50Z</time>
      </trkpt>
      <trkpt lat="45.98147" lon="4.85429">
        <ele>276</ele>
        <time>2018-10-23T09:22:51Z</time>
      </trkpt>
      <trkpt lat="45.9815" lon="4.85434">
        <ele>276</ele>
        <time>2018-10-23T09:22:52Z</time>
      </trkpt>
      <trkpt lat="45.98153" lon="4.85441">
        <ele>276</ele>
        <time>2018-10-23T09:22:53Z</time>
      </trkpt>
      <trkpt lat="45.98158" lon="4.85451">
        <ele>276</ele>
        <time>2018-10-23T09:22:55Z</time>
      </trkpt>
      <trkpt lat="45.98161" lon="4.85457">
        <ele>276</ele>
        <time>2018-10-23T09:22:56Z</time>
      </trkpt>
      <trkpt lat="45.98163" lon="4.85463">
        <ele>275</ele>
        <time>2018-10-23T09:22:57Z</time>
      </trkpt>
      <trkpt lat="45.98165" lon="4.85468">
        <ele>275</ele>
        <time>2018-10-23T09:22:58Z</time>
      </trkpt>
      <trkpt lat="45.98167" lon="4.85475">
        <ele>275</ele>
        <time>2018-10-23T09:22:59Z</time>
      </trkpt>
      <trkpt lat="45.98169" lon="4.85481">
        <ele>275</ele>
        <time>2018-10-23T09:23:00Z</time>
      </trkpt>
      <trkpt lat="45.98171" lon="4.85487">
        <ele>275</ele>
        <time>2018-10-23T09:23:01Z</time>
      </trkpt>
      <trkpt lat="45.98173" lon="4.85493">
        <ele>275</ele>
        <time>2018-10-23T09:23:02Z</time>
      </trkpt>
      <trkpt lat="45.98176" lon="4.85499">
        <ele>275</ele>
        <time>2018-10-23T09:23:03Z</time>
      </trkpt>
      <trkpt lat="45.98179" lon="4.85506">
        <ele>275</ele>
        <time>2018-10-23T09:23:04Z</time>
      </trkpt>
      <trkpt lat="45.98182" lon="4.85511">
        <ele>275</ele>
        <time>2018-10-23T09:23:05Z</time>
      </trkpt>
      <trkpt lat="45.98184" lon="4.85518">
        <ele>275</ele>
        <time>2018-10-23T09:23:06Z</time>
      </trkpt>
      <trkpt lat="45.98186" lon="4.85524">
        <ele>276</ele>
        <time>2018-10-23T09:23:07Z</time>
      </trkpt>
      <trkpt lat="45.9819" lon="4.8553">
        <ele>276</ele>
        <time>2018-10-23T09:23:08Z</time>
      </trkpt>
      <trkpt lat="45.98194" lon="4.8554">
        <ele>276</ele>
        <time>2018-10-23T09:23:10Z</time>
      </trkpt>
      <trkpt lat="45.98196" lon="4.85546">
        <ele>276</ele>
        <time>2018-10-23T09:23:11Z</time>
      </trkpt>
      <trkpt lat="45.98201" lon="4.85556">
        <ele>276</ele>
        <time>2018-10-23T09:23:13Z</time>
      </trkpt>
      <trkpt lat="45.98203" lon="4.85563">
        <ele>276</ele>
        <time>2018-10-23T09:23:14Z</time>
      </trkpt>
      <trkpt lat="45.98205" lon="4.85569">
        <ele>276</ele>
        <time>2018-10-23T09:23:15Z</time>
      </trkpt>
      <trkpt lat="45.98208" lon="4.85575">
        <ele>276</ele>
        <time>2018-10-23T09:23:16Z</time>
      </trkpt>
      <trkpt lat="45.98211" lon="4.85582">
        <ele>276</ele>
        <time>2018-10-23T09:23:17Z</time>
      </trkpt>
      <trkpt lat="45.98214" lon="4.85589">
        <ele>277</ele>
        <time>2018-10-23T09:23:18Z</time>
      </trkpt>
      <trkpt lat="45.98217" lon="4.85596">
        <ele>277</ele>
        <time>2018-10-23T09:23:19Z</time>
      </trkpt>
      <trkpt lat="45.9822" lon="4.85602">
        <ele>277</ele>
        <time>2018-10-23T09:23:20Z</time>
      </trkpt>
      <trkpt lat="45.98222" lon="4.85609">
        <ele>277</ele>
        <time>2018-10-23T09:23:21Z</time>
      </trkpt>
      <trkpt lat="45.98225" lon="4.85616">
        <ele>277</ele>
        <time>2018-10-23T09:23:22Z</time>
      </trkpt>
      <trkpt lat="45.98226" lon="4.85622">
        <ele>277</ele>
        <time>2018-10-23T09:23:23Z</time>
      </trkpt>
      <trkpt lat="45.9823" lon="4.85627">
        <ele>277</ele>
        <time>2018-10-23T09:23:24Z</time>
      </trkpt>
      <trkpt lat="45.98233" lon="4.85633">
        <ele>277</ele>
        <time>2018-10-23T09:23:25Z</time>
      </trkpt>
      <trkpt lat="45.98236" lon="4.85639">
        <ele>277</ele>
        <time>2018-10-23T09:23:26Z</time>
      </trkpt>
      <trkpt lat="45.98237" lon="4.85645">
        <ele>277</ele>
        <time>2018-10-23T09:23:27Z</time>
      </trkpt>
      <trkpt lat="45.9824" lon="4.85653">
        <ele>276</ele>
        <time>2018-10-23T09:23:28Z</time>
      </trkpt>
      <trkpt lat="45.98242" lon="4.8566">
        <ele>276</ele>
        <time>2018-10-23T09:23:29Z</time>
      </trkpt>
      <trkpt lat="45.98245" lon="4.85667">
        <ele>276</ele>
        <time>2018-10-23T09:23:30Z</time>
      </trkpt>
      <trkpt lat="45.98248" lon="4.85674">
        <ele>276</ele>
        <time>2018-10-23T09:23:31Z</time>
      </trkpt>
      <trkpt lat="45.98251" lon="4.85682">
        <ele>275</ele>
        <time>2018-10-23T09:23:32Z</time>
      </trkpt>
      <trkpt lat="45.98254" lon="4.85689">
        <ele>275</ele>
        <time>2018-10-23T09:23:33Z</time>
      </trkpt>
      <trkpt lat="45.98257" lon="4.85695">
        <ele>275</ele>
        <time>2018-10-23T09:23:34Z</time>
      </trkpt>
      <trkpt lat="45.9826" lon="4.85702">
        <ele>275</ele>
        <time>2018-10-23T09:23:35Z</time>
      </trkpt>
      <trkpt lat="45.98262" lon="4.85709">
        <ele>275</ele>
        <time>2018-10-23T09:23:36Z</time>
      </trkpt>
      <trkpt lat="45.98265" lon="4.85715">
        <ele>275</ele>
        <time>2018-10-23T09:23:37Z</time>
      </trkpt>
      <trkpt lat="45.98267" lon="4.85721">
        <ele>275</ele>
        <time>2018-10-23T09:23:38Z</time>
      </trkpt>
      <trkpt lat="45.98269" lon="4.85727">
        <ele>275</ele>
        <time>2018-10-23T09:23:39Z</time>
      </trkpt>
      <trkpt lat="45.98272" lon="4.85733">
        <ele>274</ele>
        <time>2018-10-23T09:23:40Z</time>
      </trkpt>
      <trkpt lat="45.98275" lon="4.85739">
        <ele>274</ele>
        <time>2018-10-23T09:23:41Z</time>
      </trkpt>
      <trkpt lat="45.98277" lon="4.85746">
        <ele>274</ele>
        <time>2018-10-23T09:23:42Z</time>
      </trkpt>
      <trkpt lat="45.98279" lon="4.85753">
        <ele>275</ele>
        <time>2018-10-23T09:23:43Z</time>
      </trkpt>
      <trkpt lat="45.98283" lon="4.85759">
        <ele>275</ele>
        <time>2018-10-23T09:23:44Z</time>
      </trkpt>
      <trkpt lat="45.98286" lon="4.85765">
        <ele>275</ele>
        <time>2018-10-23T09:23:45Z</time>
      </trkpt>
      <trkpt lat="45.98288" lon="4.85772">
        <ele>275</ele>
        <time>2018-10-23T09:23:46Z</time>
      </trkpt>
      <trkpt lat="45.98291" lon="4.85779">
        <ele>275</ele>
        <time>2018-10-23T09:23:47Z</time>
      </trkpt>
      <trkpt lat="45.98294" lon="4.85785">
        <ele>275</ele>
        <time>2018-10-23T09:23:48Z</time>
      </trkpt>
      <trkpt lat="45.98296" lon="4.85792">
        <ele>275</ele>
        <time>2018-10-23T09:23:49Z</time>
      </trkpt>
      <trkpt lat="45.98299" lon="4.85799">
        <ele>275</ele>
        <time>2018-10-23T09:23:50Z</time>
      </trkpt>
      <trkpt lat="45.98301" lon="4.85805">
        <ele>275</ele>
        <time>2018-10-23T09:23:51Z</time>
      </trkpt>
      <trkpt lat="45.98304" lon="4.85811">
        <ele>275</ele>
        <time>2018-10-23T09:23:52Z</time>
      </trkpt>
      <trkpt lat="45.98307" lon="4.85818">
        <ele>275</ele>
        <time>2018-10-23T09:23:53Z</time>
      </trkpt>
      <trkpt lat="45.98309" lon="4.85825">
        <ele>275</ele>
        <time>2018-10-23T09:23:54Z</time>
      </trkpt>
      <trkpt lat="45.98311" lon="4.85832">
        <ele>275</ele>
        <time>2018-10-23T09:23:55Z</time>
      </trkpt>
      <trkpt lat="45.98314" lon="4.85839">
        <ele>276</ele>
        <time>2018-10-23T09:23:56Z</time>
      </trkpt>
      <trkpt lat="45.98318" lon="4.85845">
        <ele>276</ele>
        <time>2018-10-23T09:23:57Z</time>
      </trkpt>
      <trkpt lat="45.9832" lon="4.85853">
        <ele>276</ele>
        <time>2018-10-23T09:23:58Z</time>
      </trkpt>
      <trkpt lat="45.98321" lon="4.85858">
        <ele>276</ele>
        <time>2018-10-23T09:23:59Z</time>
      </trkpt>
      <trkpt lat="45.98324" lon="4.85865">
        <ele>276</ele>
        <time>2018-10-23T09:24:00Z</time>
      </trkpt>
      <trkpt lat="45.98327" lon="4.8587">
        <ele>276</ele>
        <time>2018-10-23T09:24:01Z</time>
      </trkpt>
      <trkpt lat="45.9833" lon="4.85876">
        <ele>276</ele>
        <time>2018-10-23T09:24:02Z</time>
      </trkpt>
      <trkpt lat="45.98333" lon="4.85883">
        <ele>276</ele>
        <time>2018-10-23T09:24:03Z</time>
      </trkpt>
      <trkpt lat="45.98336" lon="4.85889">
        <ele>276</ele>
        <time>2018-10-23T09:24:04Z</time>
      </trkpt>
      <trkpt lat="45.98338" lon="4.85895">
        <ele>276</ele>
        <time>2018-10-23T09:24:05Z</time>
      </trkpt>
      <trkpt lat="45.9834" lon="4.85902">
        <ele>276</ele>
        <time>2018-10-23T09:24:06Z</time>
      </trkpt>
      <trkpt lat="45.98343" lon="4.85909">
        <ele>276</ele>
        <time>2018-10-23T09:24:07Z</time>
      </trkpt>
      <trkpt lat="45.98345" lon="4.85916">
        <ele>276</ele>
        <time>2018-10-23T09:24:08Z</time>
      </trkpt>
      <trkpt lat="45.98347" lon="4.85922">
        <ele>276</ele>
        <time>2018-10-23T09:24:09Z</time>
      </trkpt>
      <trkpt lat="45.9835" lon="4.85929">
        <ele>276</ele>
        <time>2018-10-23T09:24:10Z</time>
      </trkpt>
      <trkpt lat="45.98352" lon="4.85936">
        <ele>276</ele>
        <time>2018-10-23T09:24:11Z</time>
      </trkpt>
      <trkpt lat="45.98354" lon="4.85943">
        <ele>276</ele>
        <time>2018-10-23T09:24:12Z</time>
      </trkpt>
      <trkpt lat="45.98357" lon="4.85948">
        <ele>276</ele>
        <time>2018-10-23T09:24:13Z</time>
      </trkpt>
      <trkpt lat="45.9836" lon="4.85955">
        <ele>276</ele>
        <time>2018-10-23T09:24:14Z</time>
      </trkpt>
      <trkpt lat="45.98361" lon="4.85961">
        <ele>276</ele>
        <time>2018-10-23T09:24:15Z</time>
      </trkpt>
      <trkpt lat="45.98364" lon="4.85968">
        <ele>276</ele>
        <time>2018-10-23T09:24:16Z</time>
      </trkpt>
      <trkpt lat="45.98365" lon="4.85974">
        <ele>276</ele>
        <time>2018-10-23T09:24:17Z</time>
      </trkpt>
      <trkpt lat="45.98368" lon="4.85981">
        <ele>276</ele>
        <time>2018-10-23T09:24:18Z</time>
      </trkpt>
      <trkpt lat="45.98371" lon="4.85986">
        <ele>276</ele>
        <time>2018-10-23T09:24:19Z</time>
      </trkpt>
      <trkpt lat="45.98373" lon="4.85991">
        <ele>277</ele>
        <time>2018-10-23T09:24:20Z</time>
      </trkpt>
      <trkpt lat="45.98375" lon="4.85998">
        <ele>277</ele>
        <time>2018-10-23T09:24:21Z</time>
      </trkpt>
      <trkpt lat="45.98378" lon="4.86005">
        <ele>277</ele>
        <time>2018-10-23T09:24:22Z</time>
      </trkpt>
      <trkpt lat="45.9838" lon="4.86012">
        <ele>277</ele>
        <time>2018-10-23T09:24:23Z</time>
      </trkpt>
      <trkpt lat="45.98382" lon="4.86019">
        <ele>277</ele>
        <time>2018-10-23T09:24:24Z</time>
      </trkpt>
      <trkpt lat="45.98384" lon="4.86025">
        <ele>277</ele>
        <time>2018-10-23T09:24:25Z</time>
      </trkpt>
      <trkpt lat="45.98387" lon="4.86034">
        <ele>277</ele>
        <time>2018-10-23T09:24:26Z</time>
      </trkpt>
      <trkpt lat="45.98389" lon="4.8604">
        <ele>277</ele>
        <time>2018-10-23T09:24:27Z</time>
      </trkpt>
      <trkpt lat="45.98393" lon="4.86048">
        <ele>277</ele>
        <time>2018-10-23T09:24:28Z</time>
      </trkpt>
      <trkpt lat="45.98395" lon="4.86054">
        <ele>277</ele>
        <time>2018-10-23T09:24:29Z</time>
      </trkpt>
      <trkpt lat="45.98397" lon="4.86061">
        <ele>277</ele>
        <time>2018-10-23T09:24:30Z</time>
      </trkpt>
      <trkpt lat="45.98399" lon="4.86067">
        <ele>277</ele>
        <time>2018-10-23T09:24:31Z</time>
      </trkpt>
      <trkpt lat="45.984" lon="4.86074">
        <ele>277</ele>
        <time>2018-10-23T09:24:32Z</time>
      </trkpt>
      <trkpt lat="45.98402" lon="4.86086">
        <ele>277</ele>
        <time>2018-10-23T09:24:34Z</time>
      </trkpt>
      <trkpt lat="45.98403" lon="4.86092">
        <ele>277</ele>
        <time>2018-10-23T09:24:35Z</time>
      </trkpt>
      <trkpt lat="45.98405" lon="4.86101">
        <ele>277</ele>
        <time>2018-10-23T09:24:37Z</time>
      </trkpt>
      <trkpt lat="45.98406" lon="4.86107">
        <ele>277</ele>
        <time>2018-10-23T09:24:38Z</time>
      </trkpt>
      <trkpt lat="45.9841" lon="4.86118">
        <ele>277</ele>
        <time>2018-10-23T09:24:40Z</time>
      </trkpt>
      <trkpt lat="45.9841" lon="4.86122">
        <ele>277</ele>
        <time>2018-10-23T09:24:41Z</time>
      </trkpt>
      <trkpt lat="45.98412" lon="4.8613">
        <ele>276</ele>
        <time>2018-10-23T09:24:43Z</time>
      </trkpt>
      <trkpt lat="45.98413" lon="4.86137">
        <ele>276</ele>
        <time>2018-10-23T09:24:44Z</time>
      </trkpt>
      <trkpt lat="45.98415" lon="4.86148">
        <ele>276</ele>
        <time>2018-10-23T09:24:46Z</time>
      </trkpt>
      <trkpt lat="45.98416" lon="4.86153">
        <ele>276</ele>
        <time>2018-10-23T09:24:47Z</time>
      </trkpt>
      <trkpt lat="45.98418" lon="4.86165">
        <ele>276</ele>
        <time>2018-10-23T09:24:49Z</time>
      </trkpt>
      <trkpt lat="45.98418" lon="4.86172">
        <ele>276</ele>
        <time>2018-10-23T09:24:50Z</time>
      </trkpt>
      <trkpt lat="45.98418" lon="4.86179">
        <ele>275</ele>
        <time>2018-10-23T09:24:51Z</time>
      </trkpt>
      <trkpt lat="45.98421" lon="4.86185">
        <ele>275</ele>
        <time>2018-10-23T09:24:52Z</time>
      </trkpt>
      <trkpt lat="45.98423" lon="4.86192">
        <ele>275</ele>
        <time>2018-10-23T09:24:53Z</time>
      </trkpt>
      <trkpt lat="45.98423" lon="4.86199">
        <ele>275</ele>
        <time>2018-10-23T09:24:54Z</time>
      </trkpt>
      <trkpt lat="45.98424" lon="4.86205">
        <ele>275</ele>
        <time>2018-10-23T09:24:55Z</time>
      </trkpt>
      <trkpt lat="45.98425" lon="4.86213">
        <ele>275</ele>
        <time>2018-10-23T09:24:56Z</time>
      </trkpt>
      <trkpt lat="45.98426" lon="4.86221">
        <ele>275</ele>
        <time>2018-10-23T09:24:57Z</time>
      </trkpt>
      <trkpt lat="45.98428" lon="4.86229">
        <ele>275</ele>
        <time>2018-10-23T09:24:58Z</time>
      </trkpt>
      <trkpt lat="45.98429" lon="4.86236">
        <ele>275</ele>
        <time>2018-10-23T09:24:59Z</time>
      </trkpt>
      <trkpt lat="45.98431" lon="4.86245">
        <ele>275</ele>
        <time>2018-10-23T09:25:00Z</time>
      </trkpt>
      <trkpt lat="45.98432" lon="4.86253">
        <ele>275</ele>
        <time>2018-10-23T09:25:01Z</time>
      </trkpt>
      <trkpt lat="45.98433" lon="4.86263">
        <ele>275</ele>
        <time>2018-10-23T09:25:02Z</time>
      </trkpt>
      <trkpt lat="45.98434" lon="4.86272">
        <ele>275</ele>
        <time>2018-10-23T09:25:03Z</time>
      </trkpt>
      <trkpt lat="45.98436" lon="4.86282">
        <ele>276</ele>
        <time>2018-10-23T09:25:04Z</time>
      </trkpt>
      <trkpt lat="45.98438" lon="4.86292">
        <ele>276</ele>
        <time>2018-10-23T09:25:05Z</time>
      </trkpt>
      <trkpt lat="45.98439" lon="4.86302">
        <ele>276</ele>
        <time>2018-10-23T09:25:06Z</time>
      </trkpt>
      <trkpt lat="45.98441" lon="4.86312">
        <ele>276</ele>
        <time>2018-10-23T09:25:07Z</time>
      </trkpt>
      <trkpt lat="45.98443" lon="4.86322">
        <ele>276</ele>
        <time>2018-10-23T09:25:08Z</time>
      </trkpt>
      <trkpt lat="45.98445" lon="4.86331">
        <ele>276</ele>
        <time>2018-10-23T09:25:09Z</time>
      </trkpt>
      <trkpt lat="45.98448" lon="4.8634">
        <ele>277</ele>
        <time>2018-10-23T09:25:10Z</time>
      </trkpt>
      <trkpt lat="45.9845" lon="4.8635">
        <ele>277</ele>
        <time>2018-10-23T09:25:11Z</time>
      </trkpt>
      <trkpt lat="45.98454" lon="4.86359">
        <ele>277</ele>
        <time>2018-10-23T09:25:12Z</time>
      </trkpt>
      <trkpt lat="45.98457" lon="4.86368">
        <ele>277</ele>
        <time>2018-10-23T09:25:13Z</time>
      </trkpt>
      <trkpt lat="45.98459" lon="4.86377">
        <ele>277</ele>
        <time>2018-10-23T09:25:14Z</time>
      </trkpt>
      <trkpt lat="45.98463" lon="4.86385">
        <ele>277</ele>
        <time>2018-10-23T09:25:15Z</time>
      </trkpt>
      <trkpt lat="45.98466" lon="4.86392">
        <ele>277</ele>
        <time>2018-10-23T09:25:16Z</time>
      </trkpt>
      <trkpt lat="45.9847" lon="4.86402">
        <ele>277</ele>
        <time>2018-10-23T09:25:17Z</time>
      </trkpt>
      <trkpt lat="45.98473" lon="4.86408">
        <ele>277</ele>
        <time>2018-10-23T09:25:18Z</time>
      </trkpt>
      <trkpt lat="45.98476" lon="4.86416">
        <ele>277</ele>
        <time>2018-10-23T09:25:19Z</time>
      </trkpt>
      <trkpt lat="45.98479" lon="4.86423">
        <ele>278</ele>
        <time>2018-10-23T09:25:20Z</time>
      </trkpt>
      <trkpt lat="45.98482" lon="4.86429">
        <ele>278</ele>
        <time>2018-10-23T09:25:21Z</time>
      </trkpt>
      <trkpt lat="45.98485" lon="4.86436">
        <ele>278</ele>
        <time>2018-10-23T09:25:22Z</time>
      </trkpt>
      <trkpt lat="45.98488" lon="4.86442">
        <ele>278</ele>
        <time>2018-10-23T09:25:23Z</time>
      </trkpt>
      <trkpt lat="45.98491" lon="4.86448">
        <ele>278</ele>
        <time>2018-10-23T09:25:24Z</time>
      </trkpt>
      <trkpt lat="45.98494" lon="4.86455">
        <ele>278</ele>
        <time>2018-10-23T09:25:25Z</time>
      </trkpt>
      <trkpt lat="45.98497" lon="4.86461">
        <ele>278</ele>
        <time>2018-10-23T09:25:26Z</time>
      </trkpt>
      <trkpt lat="45.98499" lon="4.86468">
        <ele>279</ele>
        <time>2018-10-23T09:25:27Z</time>
      </trkpt>
      <trkpt lat="45.98502" lon="4.86474">
        <ele>278</ele>
        <time>2018-10-23T09:25:28Z</time>
      </trkpt>
      <trkpt lat="45.98505" lon="4.86481">
        <ele>278</ele>
        <time>2018-10-23T09:25:29Z</time>
      </trkpt>
      <trkpt lat="45.98508" lon="4.86489">
        <ele>279</ele>
        <time>2018-10-23T09:25:30Z</time>
      </trkpt>
      <trkpt lat="45.98512" lon="4.86497">
        <ele>279</ele>
        <time>2018-10-23T09:25:31Z</time>
      </trkpt>
      <trkpt lat="45.98516" lon="4.86504">
        <ele>279</ele>
        <time>2018-10-23T09:25:32Z</time>
      </trkpt>
      <trkpt lat="45.98519" lon="4.86511">
        <ele>279</ele>
        <time>2018-10-23T09:25:33Z</time>
      </trkpt>
      <trkpt lat="45.98521" lon="4.86518">
        <ele>279</ele>
        <time>2018-10-23T09:25:34Z</time>
      </trkpt>
      <trkpt lat="45.98525" lon="4.86526">
        <ele>279</ele>
        <time>2018-10-23T09:25:35Z</time>
      </trkpt>
      <trkpt lat="45.98528" lon="4.86532">
        <ele>279</ele>
        <time>2018-10-23T09:25:36Z</time>
      </trkpt>
      <trkpt lat="45.98531" lon="4.86538">
        <ele>279</ele>
        <time>2018-10-23T09:25:37Z</time>
      </trkpt>
      <trkpt lat="45.98533" lon="4.86543">
        <ele>279</ele>
        <time>2018-10-23T09:25:38Z</time>
      </trkpt>
      <trkpt lat="45.98536" lon="4.86549">
        <ele>279</ele>
        <time>2018-10-23T09:25:39Z</time>
      </trkpt>
      <trkpt lat="45.98538" lon="4.86554">
        <ele>278</ele>
        <time>2018-10-23T09:25:40Z</time>
      </trkpt>
      <trkpt lat="45.98539" lon="4.86561">
        <ele>279</ele>
        <time>2018-10-23T09:25:41Z</time>
      </trkpt>
      <trkpt lat="45.98543" lon="4.86566">
        <ele>278</ele>
        <time>2018-10-23T09:25:42Z</time>
      </trkpt>
      <trkpt lat="45.98545" lon="4.86572">
        <ele>278</ele>
        <time>2018-10-23T09:25:43Z</time>
      </trkpt>
      <trkpt lat="45.98547" lon="4.86579">
        <ele>278</ele>
        <time>2018-10-23T09:25:44Z</time>
      </trkpt>
      <trkpt lat="45.98549" lon="4.86586">
        <ele>278</ele>
        <time>2018-10-23T09:25:45Z</time>
      </trkpt>
      <trkpt lat="45.98551" lon="4.86593">
        <ele>278</ele>
        <time>2018-10-23T09:25:46Z</time>
      </trkpt>
      <trkpt lat="45.98554" lon="4.86602">
        <ele>278</ele>
        <time>2018-10-23T09:25:47Z</time>
      </trkpt>
      <trkpt lat="45.98555" lon="4.86611">
        <ele>278</ele>
        <time>2018-10-23T09:25:48Z</time>
      </trkpt>
      <trkpt lat="45.98557" lon="4.86618">
        <ele>278</ele>
        <time>2018-10-23T09:25:49Z</time>
      </trkpt>
      <trkpt lat="45.98557" lon="4.86627">
        <ele>278</ele>
        <time>2018-10-23T09:25:50Z</time>
      </trkpt>
      <trkpt lat="45.98558" lon="4.86634">
        <ele>278</ele>
        <time>2018-10-23T09:25:51Z</time>
      </trkpt>
      <trkpt lat="45.98558" lon="4.86641">
        <ele>278</ele>
        <time>2018-10-23T09:25:52Z</time>
      </trkpt>
      <trkpt lat="45.98559" lon="4.86648">
        <ele>277</ele>
        <time>2018-10-23T09:25:53Z</time>
      </trkpt>
      <trkpt lat="45.98559" lon="4.86655">
        <ele>277</ele>
        <time>2018-10-23T09:25:54Z</time>
      </trkpt>
      <trkpt lat="45.9856" lon="4.86661">
        <ele>277</ele>
        <time>2018-10-23T09:25:55Z</time>
      </trkpt>
      <trkpt lat="45.98561" lon="4.86668">
        <ele>277</ele>
        <time>2018-10-23T09:25:56Z</time>
      </trkpt>
      <trkpt lat="45.98563" lon="4.86674">
        <ele>277</ele>
        <time>2018-10-23T09:25:57Z</time>
      </trkpt>
      <trkpt lat="45.98564" lon="4.86681">
        <ele>277</ele>
        <time>2018-10-23T09:25:58Z</time>
      </trkpt>
      <trkpt lat="45.98565" lon="4.86689">
        <ele>277</ele>
        <time>2018-10-23T09:25:59Z</time>
      </trkpt>
      <trkpt lat="45.98565" lon="4.86695">
        <ele>277</ele>
        <time>2018-10-23T09:26:00Z</time>
      </trkpt>
      <trkpt lat="45.98565" lon="4.86702">
        <ele>277</ele>
        <time>2018-10-23T09:26:01Z</time>
      </trkpt>
      <trkpt lat="45.98566" lon="4.8671">
        <ele>277</ele>
        <time>2018-10-23T09:26:02Z</time>
      </trkpt>
      <trkpt lat="45.98566" lon="4.86717">
        <ele>277</ele>
        <time>2018-10-23T09:26:03Z</time>
      </trkpt>
      <trkpt lat="45.98567" lon="4.86725">
        <ele>277</ele>
        <time>2018-10-23T09:26:04Z</time>
      </trkpt>
      <trkpt lat="45.98567" lon="4.86731">
        <ele>277</ele>
        <time>2018-10-23T09:26:05Z</time>
      </trkpt>
      <trkpt lat="45.98568" lon="4.86738">
        <ele>277</ele>
        <time>2018-10-23T09:26:06Z</time>
      </trkpt>
      <trkpt lat="45.9857" lon="4.86751">
        <ele>277</ele>
        <time>2018-10-23T09:26:08Z</time>
      </trkpt>
      <trkpt lat="45.98571" lon="4.86757">
        <ele>277</ele>
        <time>2018-10-23T09:26:09Z</time>
      </trkpt>
      <trkpt lat="45.98572" lon="4.86765">
        <ele>277</ele>
        <time>2018-10-23T09:26:10Z</time>
      </trkpt>
      <trkpt lat="45.98573" lon="4.86771">
        <ele>277</ele>
        <time>2018-10-23T09:26:11Z</time>
      </trkpt>
      <trkpt lat="45.98574" lon="4.86777">
        <ele>277</ele>
        <time>2018-10-23T09:26:12Z</time>
      </trkpt>
      <trkpt lat="45.98575" lon="4.86785">
        <ele>277</ele>
        <time>2018-10-23T09:26:13Z</time>
      </trkpt>
      <trkpt lat="45.98577" lon="4.86792">
        <ele>277</ele>
        <time>2018-10-23T09:26:14Z</time>
      </trkpt>
      <trkpt lat="45.98578" lon="4.86799">
        <ele>278</ele>
        <time>2018-10-23T09:26:15Z</time>
      </trkpt>
      <trkpt lat="45.9858" lon="4.86806">
        <ele>277</ele>
        <time>2018-10-23T09:26:16Z</time>
      </trkpt>
      <trkpt lat="45.98583" lon="4.86814">
        <ele>277</ele>
        <time>2018-10-23T09:26:17Z</time>
      </trkpt>
      <trkpt lat="45.98585" lon="4.86822">
        <ele>277</ele>
        <time>2018-10-23T09:26:18Z</time>
      </trkpt>
      <trkpt lat="45.98585" lon="4.86831">
        <ele>277</ele>
        <time>2018-10-23T09:26:19Z</time>
      </trkpt>
      <trkpt lat="45.98586" lon="4.86841">
        <ele>277</ele>
        <time>2018-10-23T09:26:20Z</time>
      </trkpt>
      <trkpt lat="45.98586" lon="4.86849">
        <ele>277</ele>
        <time>2018-10-23T09:26:21Z</time>
      </trkpt>
      <trkpt lat="45.98586" lon="4.86859">
        <ele>277</ele>
        <time>2018-10-23T09:26:22Z</time>
      </trkpt>
      <trkpt lat="45.98586" lon="4.86867">
        <ele>277</ele>
        <time>2018-10-23T09:26:23Z</time>
      </trkpt>
      <trkpt lat="45.98585" lon="4.86877">
        <ele>277</ele>
        <time>2018-10-23T09:26:24Z</time>
      </trkpt>
      <trkpt lat="45.98584" lon="4.86886">
        <ele>278</ele>
        <time>2018-10-23T09:26:25Z</time>
      </trkpt>
      <trkpt lat="45.98584" lon="4.86896">
        <ele>278</ele>
        <time>2018-10-23T09:26:26Z</time>
      </trkpt>
      <trkpt lat="45.98583" lon="4.86906">
        <ele>279</ele>
        <time>2018-10-23T09:26:27Z</time>
      </trkpt>
      <trkpt lat="45.98583" lon="4.86915">
        <ele>279</ele>
        <time>2018-10-23T09:26:28Z</time>
      </trkpt>
      <trkpt lat="45.98583" lon="4.86924">
        <ele>280</ele>
        <time>2018-10-23T09:26:29Z</time>
      </trkpt>
      <trkpt lat="45.98584" lon="4.86932">
        <ele>279</ele>
        <time>2018-10-23T09:26:30Z</time>
      </trkpt>
      <trkpt lat="45.98583" lon="4.86941">
        <ele>281</ele>
        <time>2018-10-23T09:26:31Z</time>
      </trkpt>
      <trkpt lat="45.98583" lon="4.8695">
        <ele>281</ele>
        <time>2018-10-23T09:26:32Z</time>
      </trkpt>
      <trkpt lat="45.98583" lon="4.86959">
        <ele>279</ele>
        <time>2018-10-23T09:26:33Z</time>
      </trkpt>
      <trkpt lat="45.98584" lon="4.86968">
        <ele>279</ele>
        <time>2018-10-23T09:26:34Z</time>
      </trkpt>
      <trkpt lat="45.98584" lon="4.86976">
        <ele>279</ele>
        <time>2018-10-23T09:26:35Z</time>
      </trkpt>
      <trkpt lat="45.98585" lon="4.86985">
        <ele>279</ele>
        <time>2018-10-23T09:26:36Z</time>
      </trkpt>
      <trkpt lat="45.98586" lon="4.86993">
        <ele>279</ele>
        <time>2018-10-23T09:26:37Z</time>
      </trkpt>
      <trkpt lat="45.98587" lon="4.87001">
        <ele>280</ele>
        <time>2018-10-23T09:26:38Z</time>
      </trkpt>
      <trkpt lat="45.98588" lon="4.87009">
        <ele>279</ele>
        <time>2018-10-23T09:26:39Z</time>
      </trkpt>
      <trkpt lat="45.98589" lon="4.87016">
        <ele>279</ele>
        <time>2018-10-23T09:26:40Z</time>
      </trkpt>
      <trkpt lat="45.9859" lon="4.87023">
        <ele>279</ele>
        <time>2018-10-23T09:26:41Z</time>
      </trkpt>
      <trkpt lat="45.98592" lon="4.87031">
        <ele>279</ele>
        <time>2018-10-23T09:26:42Z</time>
      </trkpt>
      <trkpt lat="45.98593" lon="4.87039">
        <ele>279</ele>
        <time>2018-10-23T09:26:43Z</time>
      </trkpt>
      <trkpt lat="45.98594" lon="4.87047">
        <ele>279</ele>
        <time>2018-10-23T09:26:44Z</time>
      </trkpt>
      <trkpt lat="45.98596" lon="4.87056">
        <ele>279</ele>
        <time>2018-10-23T09:26:45Z</time>
      </trkpt>
      <trkpt lat="45.98597" lon="4.87064">
        <ele>279</ele>
        <time>2018-10-23T09:26:46Z</time>
      </trkpt>
      <trkpt lat="45.98599" lon="4.87074">
        <ele>279</ele>
        <time>2018-10-23T09:26:47Z</time>
      </trkpt>
      <trkpt lat="45.986" lon="4.87082">
        <ele>279</ele>
        <time>2018-10-23T09:26:48Z</time>
      </trkpt>
      <trkpt lat="45.986" lon="4.8709">
        <ele>279</ele>
        <time>2018-10-23T09:26:49Z</time>
      </trkpt>
      <trkpt lat="45.98601" lon="4.87099">
        <ele>279</ele>
        <time>2018-10-23T09:26:50Z</time>
      </trkpt>
      <trkpt lat="45.98602" lon="4.87107">
        <ele>279</ele>
        <time>2018-10-23T09:26:51Z</time>
      </trkpt>
      <trkpt lat="45.98603" lon="4.87115">
        <ele>279</ele>
        <time>2018-10-23T09:26:52Z</time>
      </trkpt>
      <trkpt lat="45.98603" lon="4.87122">
        <ele>279</ele>
        <time>2018-10-23T09:26:53Z</time>
      </trkpt>
      <trkpt lat="45.98604" lon="4.87131">
        <ele>279</ele>
        <time>2018-10-23T09:26:54Z</time>
      </trkpt>
      <trkpt lat="45.98605" lon="4.87139">
        <ele>278</ele>
        <time>2018-10-23T09:26:55Z</time>
      </trkpt>
      <trkpt lat="45.98606" lon="4.87149">
        <ele>278</ele>
        <time>2018-10-23T09:26:56Z</time>
      </trkpt>
      <trkpt lat="45.98606" lon="4.87158">
        <ele>278</ele>
        <time>2018-10-23T09:26:57Z</time>
      </trkpt>
      <trkpt lat="45.98606" lon="4.87165">
        <ele>278</ele>
        <time>2018-10-23T09:26:58Z</time>
      </trkpt>
      <trkpt lat="45.98605" lon="4.87173">
        <ele>277</ele>
        <time>2018-10-23T09:26:59Z</time>
      </trkpt>
      <trkpt lat="45.98604" lon="4.87182">
        <ele>277</ele>
        <time>2018-10-23T09:27:00Z</time>
      </trkpt>
      <trkpt lat="45.98604" lon="4.8719">
        <ele>277</ele>
        <time>2018-10-23T09:27:01Z</time>
      </trkpt>
      <trkpt lat="45.98603" lon="4.87199">
        <ele>277</ele>
        <time>2018-10-23T09:27:02Z</time>
      </trkpt>
      <trkpt lat="45.98603" lon="4.87209">
        <ele>277</ele>
        <time>2018-10-23T09:27:03Z</time>
      </trkpt>
      <trkpt lat="45.98602" lon="4.87216">
        <ele>277</ele>
        <time>2018-10-23T09:27:04Z</time>
      </trkpt>
      <trkpt lat="45.98601" lon="4.87222">
        <ele>277</ele>
        <time>2018-10-23T09:27:05Z</time>
      </trkpt>
      <trkpt lat="45.986" lon="4.87229">
        <ele>277</ele>
        <time>2018-10-23T09:27:06Z</time>
      </trkpt>
      <trkpt lat="45.986" lon="4.87237">
        <ele>277</ele>
        <time>2018-10-23T09:27:07Z</time>
      </trkpt>
      <trkpt lat="45.98598" lon="4.87244">
        <ele>277</ele>
        <time>2018-10-23T09:27:08Z</time>
      </trkpt>
      <trkpt lat="45.98597" lon="4.87252">
        <ele>275</ele>
        <time>2018-10-23T09:27:09Z</time>
      </trkpt>
      <trkpt lat="45.98598" lon="4.87261">
        <ele>275</ele>
        <time>2018-10-23T09:27:10Z</time>
      </trkpt>
      <trkpt lat="45.98597" lon="4.8727">
        <ele>275</ele>
        <time>2018-10-23T09:27:11Z</time>
      </trkpt>
      <trkpt lat="45.98596" lon="4.87279">
        <ele>275</ele>
        <time>2018-10-23T09:27:12Z</time>
      </trkpt>
      <trkpt lat="45.98595" lon="4.87287">
        <ele>275</ele>
        <time>2018-10-23T09:27:13Z</time>
      </trkpt>
      <trkpt lat="45.98595" lon="4.87296">
        <ele>275</ele>
        <time>2018-10-23T09:27:14Z</time>
      </trkpt>
      <trkpt lat="45.98595" lon="4.87304">
        <ele>274</ele>
        <time>2018-10-23T09:27:15Z</time>
      </trkpt>
      <trkpt lat="45.98596" lon="4.87314">
        <ele>274</ele>
        <time>2018-10-23T09:27:16Z</time>
      </trkpt>
      <trkpt lat="45.98597" lon="4.87322">
        <ele>274</ele>
        <time>2018-10-23T09:27:17Z</time>
      </trkpt>
      <trkpt lat="45.98599" lon="4.87332">
        <ele>274</ele>
        <time>2018-10-23T09:27:18Z</time>
      </trkpt>
      <trkpt lat="45.98601" lon="4.87342">
        <ele>272</ele>
        <time>2018-10-23T09:27:19Z</time>
      </trkpt>
      <trkpt lat="45.98602" lon="4.87352">
        <ele>272</ele>
        <time>2018-10-23T09:27:20Z</time>
      </trkpt>
      <trkpt lat="45.98604" lon="4.87362">
        <ele>272</ele>
        <time>2018-10-23T09:27:21Z</time>
      </trkpt>
      <trkpt lat="45.98606" lon="4.87371">
        <ele>272</ele>
        <time>2018-10-23T09:27:22Z</time>
      </trkpt>
      <trkpt lat="45.98609" lon="4.87381">
        <ele>271</ele>
        <time>2018-10-23T09:27:23Z</time>
      </trkpt>
      <trkpt lat="45.98611" lon="4.87391">
        <ele>271</ele>
        <time>2018-10-23T09:27:24Z</time>
      </trkpt>
      <trkpt lat="45.98613" lon="4.87401">
        <ele>271</ele>
        <time>2018-10-23T09:27:25Z</time>
      </trkpt>
      <trkpt lat="45.98614" lon="4.8741">
        <ele>271</ele>
        <time>2018-10-23T09:27:26Z</time>
      </trkpt>
      <trkpt lat="45.98616" lon="4.87419">
        <ele>269</ele>
        <time>2018-10-23T09:27:27Z</time>
      </trkpt>
      <trkpt lat="45.98618" lon="4.87429">
        <ele>269</ele>
        <time>2018-10-23T09:27:28Z</time>
      </trkpt>
      <trkpt lat="45.9862" lon="4.87438">
        <ele>269</ele>
        <time>2018-10-23T09:27:29Z</time>
      </trkpt>
      <trkpt lat="45.98621" lon="4.87448">
        <ele>269</ele>
        <time>2018-10-23T09:27:30Z</time>
      </trkpt>
      <trkpt lat="45.98623" lon="4.87459">
        <ele>268</ele>
        <time>2018-10-23T09:27:31Z</time>
      </trkpt>
      <trkpt lat="45.98625" lon="4.87468">
        <ele>268</ele>
        <time>2018-10-23T09:27:32Z</time>
      </trkpt>
      <trkpt lat="45.98627" lon="4.87479">
        <ele>268</ele>
        <time>2018-10-23T09:27:33Z</time>
      </trkpt>
      <trkpt lat="45.98629" lon="4.87489">
        <ele>268</ele>
        <time>2018-10-23T09:27:34Z</time>
      </trkpt>
      <trkpt lat="45.98631" lon="4.87499">
        <ele>268</ele>
        <time>2018-10-23T09:27:35Z</time>
      </trkpt>
      <trkpt lat="45.98633" lon="4.87509">
        <ele>267</ele>
        <time>2018-10-23T09:27:36Z</time>
      </trkpt>
      <trkpt lat="45.98634" lon="4.87518">
        <ele>267</ele>
        <time>2018-10-23T09:27:37Z</time>
      </trkpt>
      <trkpt lat="45.98636" lon="4.87528">
        <ele>267</ele>
        <time>2018-10-23T09:27:38Z</time>
      </trkpt>
      <trkpt lat="45.98639" lon="4.87538">
        <ele>267</ele>
        <time>2018-10-23T09:27:39Z</time>
      </trkpt>
      <trkpt lat="45.98642" lon="4.87547">
        <ele>267</ele>
        <time>2018-10-23T09:27:40Z</time>
      </trkpt>
      <trkpt lat="45.98646" lon="4.87556">
        <ele>267</ele>
        <time>2018-10-23T09:27:41Z</time>
      </trkpt>
      <trkpt lat="45.98651" lon="4.87563">
        <ele>267</ele>
        <time>2018-10-23T09:27:42Z</time>
      </trkpt>
      <trkpt lat="45.98656" lon="4.87568">
        <ele>267</ele>
        <time>2018-10-23T09:27:43Z</time>
      </trkpt>
      <trkpt lat="45.98663" lon="4.87572">
        <ele>267</ele>
        <time>2018-10-23T09:27:44Z</time>
      </trkpt>
      <trkpt lat="45.98669" lon="4.87571">
        <ele>267</ele>
        <time>2018-10-23T09:27:45Z</time>
      </trkpt>
      <trkpt lat="45.98676" lon="4.87569">
        <ele>267</ele>
        <time>2018-10-23T09:27:46Z</time>
      </trkpt>
      <trkpt lat="45.98683" lon="4.87568">
        <ele>267</ele>
        <time>2018-10-23T09:27:47Z</time>
      </trkpt>
      <trkpt lat="45.98688" lon="4.87565">
        <ele>267</ele>
        <time>2018-10-23T09:27:48Z</time>
      </trkpt>
      <trkpt lat="45.98694" lon="4.87562">
        <ele>267</ele>
        <time>2018-10-23T09:27:49Z</time>
      </trkpt>
      <trkpt lat="45.98699" lon="4.87559">
        <ele>267</ele>
        <time>2018-10-23T09:27:50Z</time>
      </trkpt>
      <trkpt lat="45.98704" lon="4.87559">
        <ele>267</ele>
        <time>2018-10-23T09:27:51Z</time>
      </trkpt>
      <trkpt lat="45.9871" lon="4.87556">
        <ele>267</ele>
        <time>2018-10-23T09:27:52Z</time>
      </trkpt>
      <trkpt lat="45.98715" lon="4.87555">
        <ele>267</ele>
        <time>2018-10-23T09:27:53Z</time>
      </trkpt>
      <trkpt lat="45.9872" lon="4.87554">
        <ele>267</ele>
        <time>2018-10-23T09:27:54Z</time>
      </trkpt>
      <trkpt lat="45.98726" lon="4.87551">
        <ele>267</ele>
        <time>2018-10-23T09:27:55Z</time>
      </trkpt>
      <trkpt lat="45.98732" lon="4.87552">
        <ele>267</ele>
        <time>2018-10-23T09:27:56Z</time>
      </trkpt>
      <trkpt lat="45.98738" lon="4.87553">
        <ele>267</ele>
        <time>2018-10-23T09:27:57Z</time>
      </trkpt>
      <trkpt lat="45.98744" lon="4.87554">
        <ele>267</ele>
        <time>2018-10-23T09:27:58Z</time>
      </trkpt>
      <trkpt lat="45.98749" lon="4.87556">
        <ele>267</ele>
        <time>2018-10-23T09:27:59Z</time>
      </trkpt>
      <trkpt lat="45.98754" lon="4.87558">
        <ele>269</ele>
        <time>2018-10-23T09:28:00Z</time>
      </trkpt>
      <trkpt lat="45.98759" lon="4.87561">
        <ele>269</ele>
        <time>2018-10-23T09:28:01Z</time>
      </trkpt>
      <trkpt lat="45.98764" lon="4.87566">
        <ele>269</ele>
        <time>2018-10-23T09:28:02Z</time>
      </trkpt>
      <trkpt lat="45.98768" lon="4.87569">
        <ele>269</ele>
        <time>2018-10-23T09:28:03Z</time>
      </trkpt>
      <trkpt lat="45.98775" lon="4.87575">
        <ele>269</ele>
        <time>2018-10-23T09:28:05Z</time>
      </trkpt>
      <trkpt lat="45.98778" lon="4.87579">
        <ele>269</ele>
        <time>2018-10-23T09:28:06Z</time>
      </trkpt>
      <trkpt lat="45.98782" lon="4.87583">
        <ele>270</ele>
        <time>2018-10-23T09:28:07Z</time>
      </trkpt>
      <trkpt lat="45.98786" lon="4.87588">
        <ele>271</ele>
        <time>2018-10-23T09:28:08Z</time>
      </trkpt>
      <trkpt lat="45.98789" lon="4.87592">
        <ele>271</ele>
        <time>2018-10-23T09:28:09Z</time>
      </trkpt>
      <trkpt lat="45.98793" lon="4.87597">
        <ele>271</ele>
        <time>2018-10-23T09:28:10Z</time>
      </trkpt>
      <trkpt lat="45.98797" lon="4.87601">
        <ele>271</ele>
        <time>2018-10-23T09:28:11Z</time>
      </trkpt>
      <trkpt lat="45.98801" lon="4.87606">
        <ele>271</ele>
        <time>2018-10-23T09:28:12Z</time>
      </trkpt>
      <trkpt lat="45.98804" lon="4.87611">
        <ele>271</ele>
        <time>2018-10-23T09:28:13Z</time>
      </trkpt>
      <trkpt lat="45.98807" lon="4.87616">
        <ele>271</ele>
        <time>2018-10-23T09:28:14Z</time>
      </trkpt>
      <trkpt lat="45.98811" lon="4.87626">
        <ele>271</ele>
        <time>2018-10-23T09:28:16Z</time>
      </trkpt>
      <trkpt lat="45.98812" lon="4.87633">
        <ele>271</ele>
        <time>2018-10-23T09:28:17Z</time>
      </trkpt>
      <trkpt lat="45.98812" lon="4.87639">
        <ele>272</ele>
        <time>2018-10-23T09:28:18Z</time>
      </trkpt>
      <trkpt lat="45.98813" lon="4.87645">
        <ele>272</ele>
        <time>2018-10-23T09:28:19Z</time>
      </trkpt>
      <trkpt lat="45.98815" lon="4.87651">
        <ele>272</ele>
        <time>2018-10-23T09:28:20Z</time>
      </trkpt>
      <trkpt lat="45.98816" lon="4.87657">
        <ele>272</ele>
        <time>2018-10-23T09:28:21Z</time>
      </trkpt>
      <trkpt lat="45.98819" lon="4.87663">
        <ele>272</ele>
        <time>2018-10-23T09:28:22Z</time>
      </trkpt>
      <trkpt lat="45.98821" lon="4.87669">
        <ele>273</ele>
        <time>2018-10-23T09:28:23Z</time>
      </trkpt>
      <trkpt lat="45.98821" lon="4.87676">
        <ele>273</ele>
        <time>2018-10-23T09:28:24Z</time>
      </trkpt>
      <trkpt lat="45.98823" lon="4.87684">
        <ele>273</ele>
        <time>2018-10-23T09:28:25Z</time>
      </trkpt>
      <trkpt lat="45.98824" lon="4.87689">
        <ele>273</ele>
        <time>2018-10-23T09:28:26Z</time>
      </trkpt>
      <trkpt lat="45.98825" lon="4.87696">
        <ele>273</ele>
        <time>2018-10-23T09:28:27Z</time>
      </trkpt>
      <trkpt lat="45.98826" lon="4.87703">
        <ele>273</ele>
        <time>2018-10-23T09:28:28Z</time>
      </trkpt>
      <trkpt lat="45.98827" lon="4.8771">
        <ele>273</ele>
        <time>2018-10-23T09:28:29Z</time>
      </trkpt>
      <trkpt lat="45.98828" lon="4.87717">
        <ele>274</ele>
        <time>2018-10-23T09:28:30Z</time>
      </trkpt>
      <trkpt lat="45.9883" lon="4.87725">
        <ele>274</ele>
        <time>2018-10-23T09:28:31Z</time>
      </trkpt>
      <trkpt lat="45.98831" lon="4.87733">
        <ele>273</ele>
        <time>2018-10-23T09:28:32Z</time>
      </trkpt>
      <trkpt lat="45.98833" lon="4.8774">
        <ele>273</ele>
        <time>2018-10-23T09:28:33Z</time>
      </trkpt>
      <trkpt lat="45.98835" lon="4.87747">
        <ele>273</ele>
        <time>2018-10-23T09:28:34Z</time>
      </trkpt>
      <trkpt lat="45.98836" lon="4.87753">
        <ele>273</ele>
        <time>2018-10-23T09:28:35Z</time>
      </trkpt>
      <trkpt lat="45.98838" lon="4.87759">
        <ele>273</ele>
        <time>2018-10-23T09:28:36Z</time>
      </trkpt>
      <trkpt lat="45.9884" lon="4.87766">
        <ele>273</ele>
        <time>2018-10-23T09:28:37Z</time>
      </trkpt>
      <trkpt lat="45.98841" lon="4.87773">
        <ele>273</ele>
        <time>2018-10-23T09:28:38Z</time>
      </trkpt>
      <trkpt lat="45.98843" lon="4.8778">
        <ele>273</ele>
        <time>2018-10-23T09:28:39Z</time>
      </trkpt>
      <trkpt lat="45.98844" lon="4.87786">
        <ele>273</ele>
        <time>2018-10-23T09:28:40Z</time>
      </trkpt>
      <trkpt lat="45.98846" lon="4.87792">
        <ele>273</ele>
        <time>2018-10-23T09:28:41Z</time>
      </trkpt>
      <trkpt lat="45.98848" lon="4.87802">
        <ele>273</ele>
        <time>2018-10-23T09:28:42Z</time>
      </trkpt>
      <trkpt lat="45.9885" lon="4.87807">
        <ele>273</ele>
        <time>2018-10-23T09:28:43Z</time>
      </trkpt>
      <trkpt lat="45.98853" lon="4.87815">
        <ele>273</ele>
        <time>2018-10-23T09:28:44Z</time>
      </trkpt>
      <trkpt lat="45.98856" lon="4.8782">
        <ele>273</ele>
        <time>2018-10-23T09:28:45Z</time>
      </trkpt>
      <trkpt lat="45.98858" lon="4.87826">
        <ele>273</ele>
        <time>2018-10-23T09:28:46Z</time>
      </trkpt>
      <trkpt lat="45.98861" lon="4.87832">
        <ele>273</ele>
        <time>2018-10-23T09:28:47Z</time>
      </trkpt>
      <trkpt lat="45.98866" lon="4.87842">
        <ele>273</ele>
        <time>2018-10-23T09:28:49Z</time>
      </trkpt>
      <trkpt lat="45.98868" lon="4.87847">
        <ele>273</ele>
        <time>2018-10-23T09:28:50Z</time>
      </trkpt>
      <trkpt lat="45.98871" lon="4.87853">
        <ele>273</ele>
        <time>2018-10-23T09:28:51Z</time>
      </trkpt>
      <trkpt lat="45.98874" lon="4.87858">
        <ele>273</ele>
        <time>2018-10-23T09:28:52Z</time>
      </trkpt>
      <trkpt lat="45.98877" lon="4.87863">
        <ele>272</ele>
        <time>2018-10-23T09:28:53Z</time>
      </trkpt>
      <trkpt lat="45.98881" lon="4.87868">
        <ele>272</ele>
        <time>2018-10-23T09:28:54Z</time>
      </trkpt>
      <trkpt lat="45.98886" lon="4.87875">
        <ele>272</ele>
        <time>2018-10-23T09:28:56Z</time>
      </trkpt>
      <trkpt lat="45.98889" lon="4.8788">
        <ele>272</ele>
        <time>2018-10-23T09:28:57Z</time>
      </trkpt>
      <trkpt lat="45.98894" lon="4.87888">
        <ele>272</ele>
        <time>2018-10-23T09:28:59Z</time>
      </trkpt>
      <trkpt lat="45.98899" lon="4.87892">
        <ele>272</ele>
        <time>2018-10-23T09:29:00Z</time>
      </trkpt>
      <trkpt lat="45.98905" lon="4.879">
        <ele>272</ele>
        <time>2018-10-23T09:29:02Z</time>
      </trkpt>
      <trkpt lat="45.98909" lon="4.87904">
        <ele>272</ele>
        <time>2018-10-23T09:29:03Z</time>
      </trkpt>
      <trkpt lat="45.98916" lon="4.8791">
        <ele>271</ele>
        <time>2018-10-23T09:29:05Z</time>
      </trkpt>
      <trkpt lat="45.98919" lon="4.87913">
        <ele>272</ele>
        <time>2018-10-23T09:29:06Z</time>
      </trkpt>
      <trkpt lat="45.98925" lon="4.87918">
        <ele>272</ele>
        <time>2018-10-23T09:29:08Z</time>
      </trkpt>
      <trkpt lat="45.98927" lon="4.8792">
        <ele>272</ele>
        <time>2018-10-23T09:29:09Z</time>
      </trkpt>
      <trkpt lat="45.98933" lon="4.87924">
        <ele>272</ele>
        <time>2018-10-23T09:29:11Z</time>
      </trkpt>
      <trkpt lat="45.98936" lon="4.87927">
        <ele>272</ele>
        <time>2018-10-23T09:29:12Z</time>
      </trkpt>
      <trkpt lat="45.98942" lon="4.87931">
        <ele>273</ele>
        <time>2018-10-23T09:29:14Z</time>
      </trkpt>
      <trkpt lat="45.98945" lon="4.87932">
        <ele>273</ele>
        <time>2018-10-23T09:29:15Z</time>
      </trkpt>
      <trkpt lat="45.98951" lon="4.87936">
        <ele>273</ele>
        <time>2018-10-23T09:29:17Z</time>
      </trkpt>
      <trkpt lat="45.98954" lon="4.87937">
        <ele>273</ele>
        <time>2018-10-23T09:29:18Z</time>
      </trkpt>
      <trkpt lat="45.9896" lon="4.8794">
        <ele>273</ele>
        <time>2018-10-23T09:29:20Z</time>
      </trkpt>
      <trkpt lat="45.98963" lon="4.87941">
        <ele>273</ele>
        <time>2018-10-23T09:29:21Z</time>
      </trkpt>
      <trkpt lat="45.9897" lon="4.87944">
        <ele>274</ele>
        <time>2018-10-23T09:29:23Z</time>
      </trkpt>
      <trkpt lat="45.98973" lon="4.87945">
        <ele>274</ele>
        <time>2018-10-23T09:29:24Z</time>
      </trkpt>
      <trkpt lat="45.9898" lon="4.87948">
        <ele>274</ele>
        <time>2018-10-23T09:29:26Z</time>
      </trkpt>
      <trkpt lat="45.98983" lon="4.87949">
        <ele>274</ele>
        <time>2018-10-23T09:29:27Z</time>
      </trkpt>
      <trkpt lat="45.98987" lon="4.87951">
        <ele>274</ele>
        <time>2018-10-23T09:29:28Z</time>
      </trkpt>
      <trkpt lat="45.98994" lon="4.87954">
        <ele>274</ele>
        <time>2018-10-23T09:29:29Z</time>
      </trkpt>
      <trkpt lat="45.99" lon="4.87956">
        <ele>276</ele>
        <time>2018-10-23T09:29:32Z</time>
      </trkpt>
      <trkpt lat="45.99003" lon="4.87957">
        <ele>276</ele>
        <time>2018-10-23T09:29:33Z</time>
      </trkpt>
      <trkpt lat="45.9901" lon="4.8796">
        <ele>276</ele>
        <time>2018-10-23T09:29:34Z</time>
      </trkpt>
      <trkpt lat="45.99014" lon="4.87962">
        <ele>276</ele>
        <time>2018-10-23T09:29:35Z</time>
      </trkpt>
      <trkpt lat="45.99021" lon="4.87967">
        <ele>276</ele>
        <time>2018-10-23T09:29:37Z</time>
      </trkpt>
      <trkpt lat="45.99023" lon="4.87968">
        <ele>276</ele>
        <time>2018-10-23T09:29:38Z</time>
      </trkpt>
      <trkpt lat="45.9903" lon="4.87971">
        <ele>276</ele>
        <time>2018-10-23T09:29:40Z</time>
      </trkpt>
      <trkpt lat="45.99032" lon="4.87973">
        <ele>276</ele>
        <time>2018-10-23T09:29:41Z</time>
      </trkpt>
      <trkpt lat="45.99037" lon="4.87976">
        <ele>276</ele>
        <time>2018-10-23T09:29:43Z</time>
      </trkpt>
      <trkpt lat="45.99044" lon="4.87981">
        <ele>277</ele>
        <time>2018-10-23T09:29:44Z</time>
      </trkpt>
      <trkpt lat="45.99047" lon="4.87985">
        <ele>277</ele>
        <time>2018-10-23T09:29:46Z</time>
      </trkpt>
      <trkpt lat="45.99053" lon="4.87989">
        <ele>277</ele>
        <time>2018-10-23T09:29:47Z</time>
      </trkpt>
      <trkpt lat="45.99059" lon="4.87994">
        <ele>277</ele>
        <time>2018-10-23T09:29:49Z</time>
      </trkpt>
      <trkpt lat="45.99063" lon="4.87995">
        <ele>277</ele>
        <time>2018-10-23T09:29:50Z</time>
      </trkpt>
      <trkpt lat="45.9907" lon="4.87999">
        <ele>277</ele>
        <time>2018-10-23T09:29:52Z</time>
      </trkpt>
      <trkpt lat="45.99074" lon="4.88001">
        <ele>278</ele>
        <time>2018-10-23T09:29:53Z</time>
      </trkpt>
      <trkpt lat="45.9908" lon="4.88005">
        <ele>278</ele>
        <time>2018-10-23T09:29:55Z</time>
      </trkpt>
      <trkpt lat="45.99084" lon="4.88007">
        <ele>278</ele>
        <time>2018-10-23T09:29:56Z</time>
      </trkpt>
      <trkpt lat="45.99091" lon="4.88011">
        <ele>278</ele>
        <time>2018-10-23T09:29:58Z</time>
      </trkpt>
      <trkpt lat="45.99093" lon="4.88013">
        <ele>278</ele>
        <time>2018-10-23T09:29:59Z</time>
      </trkpt>
      <trkpt lat="45.99101" lon="4.88017">
        <ele>278</ele>
        <time>2018-10-23T09:30:01Z</time>
      </trkpt>
      <trkpt lat="45.99105" lon="4.88019">
        <ele>278</ele>
        <time>2018-10-23T09:30:02Z</time>
      </trkpt>
      <trkpt lat="45.99112" lon="4.88023">
        <ele>278</ele>
        <time>2018-10-23T09:30:04Z</time>
      </trkpt>
      <trkpt lat="45.99116" lon="4.88025">
        <ele>278</ele>
        <time>2018-10-23T09:30:05Z</time>
      </trkpt>
      <trkpt lat="45.99123" lon="4.8803">
        <ele>278</ele>
        <time>2018-10-23T09:30:07Z</time>
      </trkpt>
      <trkpt lat="45.99127" lon="4.88032">
        <ele>279</ele>
        <time>2018-10-23T09:30:08Z</time>
      </trkpt>
      <trkpt lat="45.99134" lon="4.88036">
        <ele>279</ele>
        <time>2018-10-23T09:30:10Z</time>
      </trkpt>
      <trkpt lat="45.99137" lon="4.88039">
        <ele>279</ele>
        <time>2018-10-23T09:30:11Z</time>
      </trkpt>
      <trkpt lat="45.99144" lon="4.88044">
        <ele>279</ele>
        <time>2018-10-23T09:30:13Z</time>
      </trkpt>
      <trkpt lat="45.99148" lon="4.88047">
        <ele>279</ele>
        <time>2018-10-23T09:30:14Z</time>
      </trkpt>
      <trkpt lat="45.99155" lon="4.88052">
        <ele>279</ele>
        <time>2018-10-23T09:30:16Z</time>
      </trkpt>
      <trkpt lat="45.99158" lon="4.88055">
        <ele>279</ele>
        <time>2018-10-23T09:30:17Z</time>
      </trkpt>
      <trkpt lat="45.99165" lon="4.8806">
        <ele>279</ele>
        <time>2018-10-23T09:30:19Z</time>
      </trkpt>
      <trkpt lat="45.99168" lon="4.88063">
        <ele>279</ele>
        <time>2018-10-23T09:30:20Z</time>
      </trkpt>
      <trkpt lat="45.99175" lon="4.88069">
        <ele>279</ele>
        <time>2018-10-23T09:30:22Z</time>
      </trkpt>
      <trkpt lat="45.99179" lon="4.88072">
        <ele>279</ele>
        <time>2018-10-23T09:30:23Z</time>
      </trkpt>
      <trkpt lat="45.99186" lon="4.88078">
        <ele>279</ele>
        <time>2018-10-23T09:30:25Z</time>
      </trkpt>
      <trkpt lat="45.9919" lon="4.8808">
        <ele>280</ele>
        <time>2018-10-23T09:30:26Z</time>
      </trkpt>
      <trkpt lat="45.99197" lon="4.88086">
        <ele>280</ele>
        <time>2018-10-23T09:30:28Z</time>
      </trkpt>
      <trkpt lat="45.992" lon="4.88089">
        <ele>280</ele>
        <time>2018-10-23T09:30:29Z</time>
      </trkpt>
      <trkpt lat="45.99207" lon="4.88095">
        <ele>280</ele>
        <time>2018-10-23T09:30:31Z</time>
      </trkpt>
      <trkpt lat="45.99211" lon="4.88098">
        <ele>280</ele>
        <time>2018-10-23T09:30:32Z</time>
      </trkpt>
      <trkpt lat="45.99219" lon="4.88103">
        <ele>280</ele>
        <time>2018-10-23T09:30:34Z</time>
      </trkpt>
      <trkpt lat="45.99222" lon="4.88106">
        <ele>280</ele>
        <time>2018-10-23T09:30:35Z</time>
      </trkpt>
      <trkpt lat="45.99229" lon="4.88113">
        <ele>280</ele>
        <time>2018-10-23T09:30:37Z</time>
      </trkpt>
      <trkpt lat="45.99233" lon="4.88116">
        <ele>280</ele>
        <time>2018-10-23T09:30:38Z</time>
      </trkpt>
      <trkpt lat="45.9924" lon="4.88123">
        <ele>280</ele>
        <time>2018-10-23T09:30:40Z</time>
      </trkpt>
      <trkpt lat="45.99244" lon="4.88126">
        <ele>280</ele>
        <time>2018-10-23T09:30:41Z</time>
      </trkpt>
      <trkpt lat="45.99251" lon="4.88132">
        <ele>283</ele>
        <time>2018-10-23T09:30:43Z</time>
      </trkpt>
      <trkpt lat="45.99255" lon="4.88135">
        <ele>283</ele>
        <time>2018-10-23T09:30:44Z</time>
      </trkpt>
      <trkpt lat="45.99262" lon="4.88141">
        <ele>283</ele>
        <time>2018-10-23T09:30:46Z</time>
      </trkpt>
      <trkpt lat="45.99266" lon="4.88144">
        <ele>283</ele>
        <time>2018-10-23T09:30:47Z</time>
      </trkpt>
      <trkpt lat="45.99274" lon="4.8815">
        <ele>283</ele>
        <time>2018-10-23T09:30:49Z</time>
      </trkpt>
      <trkpt lat="45.99277" lon="4.88154">
        <ele>283</ele>
        <time>2018-10-23T09:30:50Z</time>
      </trkpt>
      <trkpt lat="45.99284" lon="4.88162">
        <ele>284</ele>
        <time>2018-10-23T09:30:52Z</time>
      </trkpt>
      <trkpt lat="45.99288" lon="4.88166">
        <ele>284</ele>
        <time>2018-10-23T09:30:53Z</time>
      </trkpt>
      <trkpt lat="45.99295" lon="4.88172">
        <ele>284</ele>
        <time>2018-10-23T09:30:55Z</time>
      </trkpt>
      <trkpt lat="45.99299" lon="4.88175">
        <ele>284</ele>
        <time>2018-10-23T09:30:56Z</time>
      </trkpt>
      <trkpt lat="45.99306" lon="4.88181">
        <ele>285</ele>
        <time>2018-10-23T09:30:58Z</time>
      </trkpt>
      <trkpt lat="45.99309" lon="4.88185">
        <ele>285</ele>
        <time>2018-10-23T09:30:59Z</time>
      </trkpt>
      <trkpt lat="45.99316" lon="4.88191">
        <ele>285</ele>
        <time>2018-10-23T09:31:01Z</time>
      </trkpt>
      <trkpt lat="45.9932" lon="4.88195">
        <ele>285</ele>
        <time>2018-10-23T09:31:02Z</time>
      </trkpt>
      <trkpt lat="45.99327" lon="4.882">
        <ele>285</ele>
        <time>2018-10-23T09:31:04Z</time>
      </trkpt>
      <trkpt lat="45.9933" lon="4.88203">
        <ele>285</ele>
        <time>2018-10-23T09:31:05Z</time>
      </trkpt>
      <trkpt lat="45.99337" lon="4.88208">
        <ele>287</ele>
        <time>2018-10-23T09:31:07Z</time>
      </trkpt>
      <trkpt lat="45.9934" lon="4.88211">
        <ele>287</ele>
        <time>2018-10-23T09:31:08Z</time>
      </trkpt>
      <trkpt lat="45.99347" lon="4.88216">
        <ele>287</ele>
        <time>2018-10-23T09:31:10Z</time>
      </trkpt>
      <trkpt lat="45.9935" lon="4.88219">
        <ele>287</ele>
        <time>2018-10-23T09:31:11Z</time>
      </trkpt>
      <trkpt lat="45.99357" lon="4.88226">
        <ele>287</ele>
        <time>2018-10-23T09:31:13Z</time>
      </trkpt>
      <trkpt lat="45.9936" lon="4.88229">
        <ele>287</ele>
        <time>2018-10-23T09:31:14Z</time>
      </trkpt>
      <trkpt lat="45.99367" lon="4.88236">
        <ele>287</ele>
        <time>2018-10-23T09:31:16Z</time>
      </trkpt>
      <trkpt lat="45.9937" lon="4.88239">
        <ele>287</ele>
        <time>2018-10-23T09:31:17Z</time>
      </trkpt>
      <trkpt lat="45.99374" lon="4.88243">
        <ele>287</ele>
        <time>2018-10-23T09:31:18Z</time>
      </trkpt>
      <trkpt lat="45.99377" lon="4.88248">
        <ele>287</ele>
        <time>2018-10-23T09:31:19Z</time>
      </trkpt>
      <trkpt lat="45.99381" lon="4.88257">
        <ele>285</ele>
        <time>2018-10-23T09:31:21Z</time>
      </trkpt>
      <trkpt lat="45.99383" lon="4.88263">
        <ele>285</ele>
        <time>2018-10-23T09:31:22Z</time>
      </trkpt>
      <trkpt lat="45.99387" lon="4.88272">
        <ele>284</ele>
        <time>2018-10-23T09:31:24Z</time>
      </trkpt>
      <trkpt lat="45.99389" lon="4.88277">
        <ele>284</ele>
        <time>2018-10-23T09:31:25Z</time>
      </trkpt>
      <trkpt lat="45.99393" lon="4.88288">
        <ele>284</ele>
        <time>2018-10-23T09:31:27Z</time>
      </trkpt>
      <trkpt lat="45.99396" lon="4.88294">
        <ele>284</ele>
        <time>2018-10-23T09:31:28Z</time>
      </trkpt>
      <trkpt lat="45.994" lon="4.88305">
        <ele>284</ele>
        <time>2018-10-23T09:31:30Z</time>
      </trkpt>
      <trkpt lat="45.99402" lon="4.8831">
        <ele>283</ele>
        <time>2018-10-23T09:31:31Z</time>
      </trkpt>
      <trkpt lat="45.99407" lon="4.88319">
        <ele>283</ele>
        <time>2018-10-23T09:31:33Z</time>
      </trkpt>
      <trkpt lat="45.99409" lon="4.88324">
        <ele>283</ele>
        <time>2018-10-23T09:31:34Z</time>
      </trkpt>
      <trkpt lat="45.99413" lon="4.88334">
        <ele>282</ele>
        <time>2018-10-23T09:31:36Z</time>
      </trkpt>
      <trkpt lat="45.99416" lon="4.88339">
        <ele>282</ele>
        <time>2018-10-23T09:31:37Z</time>
      </trkpt>
      <trkpt lat="45.9942" lon="4.88349">
        <ele>282</ele>
        <time>2018-10-23T09:31:39Z</time>
      </trkpt>
      <trkpt lat="45.99422" lon="4.88354">
        <ele>283</ele>
        <time>2018-10-23T09:31:40Z</time>
      </trkpt>
      <trkpt lat="45.99427" lon="4.88365">
        <ele>283</ele>
        <time>2018-10-23T09:31:42Z</time>
      </trkpt>
      <trkpt lat="45.99429" lon="4.8837">
        <ele>283</ele>
        <time>2018-10-23T09:31:43Z</time>
      </trkpt>
      <trkpt lat="45.99434" lon="4.88381">
        <ele>283</ele>
        <time>2018-10-23T09:31:45Z</time>
      </trkpt>
      <trkpt lat="45.99436" lon="4.88386">
        <ele>283</ele>
        <time>2018-10-23T09:31:46Z</time>
      </trkpt>
      <trkpt lat="45.99439" lon="4.88391">
        <ele>283</ele>
        <time>2018-10-23T09:31:47Z</time>
      </trkpt>
      <trkpt lat="45.99442" lon="4.88396">
        <ele>283</ele>
        <time>2018-10-23T09:31:48Z</time>
      </trkpt>
      <trkpt lat="45.99448" lon="4.88405">
        <ele>283</ele>
        <time>2018-10-23T09:31:50Z</time>
      </trkpt>
      <trkpt lat="45.99452" lon="4.88409">
        <ele>283</ele>
        <time>2018-10-23T09:31:51Z</time>
      </trkpt>
      <trkpt lat="45.99459" lon="4.88415">
        <ele>283</ele>
        <time>2018-10-23T09:31:53Z</time>
      </trkpt>
      <trkpt lat="45.99463" lon="4.88418">
        <ele>284</ele>
        <time>2018-10-23T09:31:54Z</time>
      </trkpt>
      <trkpt lat="45.99471" lon="4.88424">
        <ele>284</ele>
        <time>2018-10-23T09:31:56Z</time>
      </trkpt>
      <trkpt lat="45.99474" lon="4.88428">
        <ele>284</ele>
        <time>2018-10-23T09:31:57Z</time>
      </trkpt>
      <trkpt lat="45.99478" lon="4.88431">
        <ele>284</ele>
        <time>2018-10-23T09:31:58Z</time>
      </trkpt>
      <trkpt lat="45.99481" lon="4.88436">
        <ele>284</ele>
        <time>2018-10-23T09:31:59Z</time>
      </trkpt>
      <trkpt lat="45.99488" lon="4.88445">
        <ele>284</ele>
        <time>2018-10-23T09:32:01Z</time>
      </trkpt>
      <trkpt lat="45.9949" lon="4.8845">
        <ele>284</ele>
        <time>2018-10-23T09:32:02Z</time>
      </trkpt>
      <trkpt lat="45.99493" lon="4.88455">
        <ele>284</ele>
        <time>2018-10-23T09:32:03Z</time>
      </trkpt>
      <trkpt lat="45.99496" lon="4.8846">
        <ele>284</ele>
        <time>2018-10-23T09:32:04Z</time>
      </trkpt>
      <trkpt lat="45.99501" lon="4.8847">
        <ele>284</ele>
        <time>2018-10-23T09:32:06Z</time>
      </trkpt>
      <trkpt lat="45.99503" lon="4.88476">
        <ele>284</ele>
        <time>2018-10-23T09:32:07Z</time>
      </trkpt>
      <trkpt lat="45.99508" lon="4.88486">
        <ele>284</ele>
        <time>2018-10-23T09:32:09Z</time>
      </trkpt>
      <trkpt lat="45.99511" lon="4.88491">
        <ele>284</ele>
        <time>2018-10-23T09:32:10Z</time>
      </trkpt>
      <trkpt lat="45.99515" lon="4.88501">
        <ele>285</ele>
        <time>2018-10-23T09:32:12Z</time>
      </trkpt>
      <trkpt lat="45.99517" lon="4.88506">
        <ele>285</ele>
        <time>2018-10-23T09:32:13Z</time>
      </trkpt>
      <trkpt lat="45.9952" lon="4.88512">
        <ele>285</ele>
        <time>2018-10-23T09:32:14Z</time>
      </trkpt>
      <trkpt lat="45.99523" lon="4.88519">
        <ele>285</ele>
        <time>2018-10-23T09:32:15Z</time>
      </trkpt>
      <trkpt lat="45.99526" lon="4.88524">
        <ele>285</ele>
        <time>2018-10-23T09:32:16Z</time>
      </trkpt>
      <trkpt lat="45.99528" lon="4.88529">
        <ele>285</ele>
        <time>2018-10-23T09:32:17Z</time>
      </trkpt>
      <trkpt lat="45.99531" lon="4.88535">
        <ele>285</ele>
        <time>2018-10-23T09:32:18Z</time>
      </trkpt>
      <trkpt lat="45.99533" lon="4.88541">
        <ele>285</ele>
        <time>2018-10-23T09:32:19Z</time>
      </trkpt>
      <trkpt lat="45.99536" lon="4.88547">
        <ele>285</ele>
        <time>2018-10-23T09:32:20Z</time>
      </trkpt>
      <trkpt lat="45.99538" lon="4.88553">
        <ele>285</ele>
        <time>2018-10-23T09:32:21Z</time>
      </trkpt>
      <trkpt lat="45.99542" lon="4.88565">
        <ele>285</ele>
        <time>2018-10-23T09:32:23Z</time>
      </trkpt>
      <trkpt lat="45.99543" lon="4.8857">
        <ele>286</ele>
        <time>2018-10-23T09:32:24Z</time>
      </trkpt>
      <trkpt lat="45.99546" lon="4.88582">
        <ele>286</ele>
        <time>2018-10-23T09:32:26Z</time>
      </trkpt>
      <trkpt lat="45.99548" lon="4.8859">
        <ele>286</ele>
        <time>2018-10-23T09:32:27Z</time>
      </trkpt>
      <trkpt lat="45.9955" lon="4.88602">
        <ele>286</ele>
        <time>2018-10-23T09:32:29Z</time>
      </trkpt>
      <trkpt lat="45.99551" lon="4.88608">
        <ele>286</ele>
        <time>2018-10-23T09:32:30Z</time>
      </trkpt>
      <trkpt lat="45.99552" lon="4.88621">
        <ele>286</ele>
        <time>2018-10-23T09:32:32Z</time>
      </trkpt>
      <trkpt lat="45.99553" lon="4.88627">
        <ele>286</ele>
        <time>2018-10-23T09:32:33Z</time>
      </trkpt>
      <trkpt lat="45.99554" lon="4.8864">
        <ele>286</ele>
        <time>2018-10-23T09:32:35Z</time>
      </trkpt>
      <trkpt lat="45.99553" lon="4.88646">
        <ele>286</ele>
        <time>2018-10-23T09:32:36Z</time>
      </trkpt>
      <trkpt lat="45.99554" lon="4.88658">
        <ele>286</ele>
        <time>2018-10-23T09:32:38Z</time>
      </trkpt>
      <trkpt lat="45.99555" lon="4.88664">
        <ele>286</ele>
        <time>2018-10-23T09:32:39Z</time>
      </trkpt>
      <trkpt lat="45.99557" lon="4.88676">
        <ele>286</ele>
        <time>2018-10-23T09:32:41Z</time>
      </trkpt>
      <trkpt lat="45.99558" lon="4.88683">
        <ele>286</ele>
        <time>2018-10-23T09:32:42Z</time>
      </trkpt>
      <trkpt lat="45.99558" lon="4.88688">
        <ele>286</ele>
        <time>2018-10-23T09:32:43Z</time>
      </trkpt>
      <trkpt lat="45.9956" lon="4.88695">
        <ele>286</ele>
        <time>2018-10-23T09:32:44Z</time>
      </trkpt>
      <trkpt lat="45.99562" lon="4.88703">
        <ele>286</ele>
        <time>2018-10-23T09:32:45Z</time>
      </trkpt>
      <trkpt lat="45.99562" lon="4.88709">
        <ele>286</ele>
        <time>2018-10-23T09:32:46Z</time>
      </trkpt>
      <trkpt lat="45.99562" lon="4.88721">
        <ele>286</ele>
        <time>2018-10-23T09:32:48Z</time>
      </trkpt>
      <trkpt lat="45.99562" lon="4.88727">
        <ele>286</ele>
        <time>2018-10-23T09:32:49Z</time>
      </trkpt>
      <trkpt lat="45.99563" lon="4.88734">
        <ele>287</ele>
        <time>2018-10-23T09:32:50Z</time>
      </trkpt>
      <trkpt lat="45.99565" lon="4.88741">
        <ele>287</ele>
        <time>2018-10-23T09:32:51Z</time>
      </trkpt>
      <trkpt lat="45.99565" lon="4.88748">
        <ele>287</ele>
        <time>2018-10-23T09:32:52Z</time>
      </trkpt>
      <trkpt lat="45.99566" lon="4.88755">
        <ele>287</ele>
        <time>2018-10-23T09:32:53Z</time>
      </trkpt>
      <trkpt lat="45.99566" lon="4.88762">
        <ele>287</ele>
        <time>2018-10-23T09:32:54Z</time>
      </trkpt>
      <trkpt lat="45.99567" lon="4.88768">
        <ele>287</ele>
        <time>2018-10-23T09:32:55Z</time>
      </trkpt>
      <trkpt lat="45.99568" lon="4.88775">
        <ele>287</ele>
        <time>2018-10-23T09:32:56Z</time>
      </trkpt>
      <trkpt lat="45.99568" lon="4.88782">
        <ele>287</ele>
        <time>2018-10-23T09:32:57Z</time>
      </trkpt>
      <trkpt lat="45.99568" lon="4.88789">
        <ele>287</ele>
        <time>2018-10-23T09:32:58Z</time>
      </trkpt>
      <trkpt lat="45.99569" lon="4.88797">
        <ele>287</ele>
        <time>2018-10-23T09:32:59Z</time>
      </trkpt>
      <trkpt lat="45.9957" lon="4.88804">
        <ele>287</ele>
        <time>2018-10-23T09:33:00Z</time>
      </trkpt>
      <trkpt lat="45.99571" lon="4.8881">
        <ele>287</ele>
        <time>2018-10-23T09:33:01Z</time>
      </trkpt>
      <trkpt lat="45.99571" lon="4.88817">
        <ele>287</ele>
        <time>2018-10-23T09:33:02Z</time>
      </trkpt>
      <trkpt lat="45.99572" lon="4.88824">
        <ele>287</ele>
        <time>2018-10-23T09:33:03Z</time>
      </trkpt>
      <trkpt lat="45.99572" lon="4.88831">
        <ele>287</ele>
        <time>2018-10-23T09:33:04Z</time>
      </trkpt>
      <trkpt lat="45.99573" lon="4.88838">
        <ele>287</ele>
        <time>2018-10-23T09:33:05Z</time>
      </trkpt>
      <trkpt lat="45.99573" lon="4.88844">
        <ele>287</ele>
        <time>2018-10-23T09:33:06Z</time>
      </trkpt>
      <trkpt lat="45.99575" lon="4.88851">
        <ele>287</ele>
        <time>2018-10-23T09:33:07Z</time>
      </trkpt>
      <trkpt lat="45.99575" lon="4.88859">
        <ele>287</ele>
        <time>2018-10-23T09:33:08Z</time>
      </trkpt>
      <trkpt lat="45.99575" lon="4.88865">
        <ele>287</ele>
        <time>2018-10-23T09:33:09Z</time>
      </trkpt>
      <trkpt lat="45.99576" lon="4.88872">
        <ele>287</ele>
        <time>2018-10-23T09:33:10Z</time>
      </trkpt>
      <trkpt lat="45.99576" lon="4.88879">
        <ele>287</ele>
        <time>2018-10-23T09:33:11Z</time>
      </trkpt>
      <trkpt lat="45.99577" lon="4.88886">
        <ele>287</ele>
        <time>2018-10-23T09:33:12Z</time>
      </trkpt>
      <trkpt lat="45.99578" lon="4.88892">
        <ele>287</ele>
        <time>2018-10-23T09:33:13Z</time>
      </trkpt>
      <trkpt lat="45.99579" lon="4.88899">
        <ele>287</ele>
        <time>2018-10-23T09:33:14Z</time>
      </trkpt>
      <trkpt lat="45.99579" lon="4.88906">
        <ele>287</ele>
        <time>2018-10-23T09:33:15Z</time>
      </trkpt>
      <trkpt lat="45.9958" lon="4.88912">
        <ele>287</ele>
        <time>2018-10-23T09:33:16Z</time>
      </trkpt>
      <trkpt lat="45.9958" lon="4.88919">
        <ele>287</ele>
        <time>2018-10-23T09:33:17Z</time>
      </trkpt>
      <trkpt lat="45.99581" lon="4.88925">
        <ele>287</ele>
        <time>2018-10-23T09:33:18Z</time>
      </trkpt>
      <trkpt lat="45.99581" lon="4.88932">
        <ele>287</ele>
        <time>2018-10-23T09:33:19Z</time>
      </trkpt>
      <trkpt lat="45.99582" lon="4.88938">
        <ele>287</ele>
        <time>2018-10-23T09:33:20Z</time>
      </trkpt>
      <trkpt lat="45.99583" lon="4.88945">
        <ele>287</ele>
        <time>2018-10-23T09:33:21Z</time>
      </trkpt>
      <trkpt lat="45.99583" lon="4.88952">
        <ele>287</ele>
        <time>2018-10-23T09:33:22Z</time>
      </trkpt>
      <trkpt lat="45.99583" lon="4.88958">
        <ele>287</ele>
        <time>2018-10-23T09:33:23Z</time>
      </trkpt>
      <trkpt lat="45.99584" lon="4.88965">
        <ele>288</ele>
        <time>2018-10-23T09:33:24Z</time>
      </trkpt>
      <trkpt lat="45.99584" lon="4.88972">
        <ele>288</ele>
        <time>2018-10-23T09:33:25Z</time>
      </trkpt>
      <trkpt lat="45.99584" lon="4.88979">
        <ele>288</ele>
        <time>2018-10-23T09:33:26Z</time>
      </trkpt>
      <trkpt lat="45.99584" lon="4.88985">
        <ele>288</ele>
        <time>2018-10-23T09:33:27Z</time>
      </trkpt>
      <trkpt lat="45.99584" lon="4.88998">
        <ele>288</ele>
        <time>2018-10-23T09:33:29Z</time>
      </trkpt>
      <trkpt lat="45.99583" lon="4.89005">
        <ele>288</ele>
        <time>2018-10-23T09:33:30Z</time>
      </trkpt>
      <trkpt lat="45.99583" lon="4.89011">
        <ele>288</ele>
        <time>2018-10-23T09:33:31Z</time>
      </trkpt>
      <trkpt lat="45.99584" lon="4.89018">
        <ele>288</ele>
        <time>2018-10-23T09:33:32Z</time>
      </trkpt>
      <trkpt lat="45.99583" lon="4.89025">
        <ele>288</ele>
        <time>2018-10-23T09:33:33Z</time>
      </trkpt>
      <trkpt lat="45.99583" lon="4.89031">
        <ele>288</ele>
        <time>2018-10-23T09:33:34Z</time>
      </trkpt>
      <trkpt lat="45.99583" lon="4.89038">
        <ele>288</ele>
        <time>2018-10-23T09:33:35Z</time>
      </trkpt>
      <trkpt lat="45.99582" lon="4.89044">
        <ele>288</ele>
        <time>2018-10-23T09:33:36Z</time>
      </trkpt>
      <trkpt lat="45.99581" lon="4.89051">
        <ele>288</ele>
        <time>2018-10-23T09:33:37Z</time>
      </trkpt>
      <trkpt lat="45.9958" lon="4.89059">
        <ele>289</ele>
        <time>2018-10-23T09:33:38Z</time>
      </trkpt>
      <trkpt lat="45.99579" lon="4.89066">
        <ele>289</ele>
        <time>2018-10-23T09:33:39Z</time>
      </trkpt>
      <trkpt lat="45.99578" lon="4.89071">
        <ele>289</ele>
        <time>2018-10-23T09:33:40Z</time>
      </trkpt>
      <trkpt lat="45.99578" lon="4.89079">
        <ele>289</ele>
        <time>2018-10-23T09:33:41Z</time>
      </trkpt>
      <trkpt lat="45.99576" lon="4.89085">
        <ele>289</ele>
        <time>2018-10-23T09:33:42Z</time>
      </trkpt>
      <trkpt lat="45.99575" lon="4.89092">
        <ele>289</ele>
        <time>2018-10-23T09:33:43Z</time>
      </trkpt>
      <trkpt lat="45.99577" lon="4.89098">
        <ele>289</ele>
        <time>2018-10-23T09:33:44Z</time>
      </trkpt>
      <trkpt lat="45.9958" lon="4.89106">
        <ele>289</ele>
        <time>2018-10-23T09:33:45Z</time>
      </trkpt>
      <trkpt lat="45.99577" lon="4.89113">
        <ele>289</ele>
        <time>2018-10-23T09:33:46Z</time>
      </trkpt>
      <trkpt lat="45.99577" lon="4.89119">
        <ele>289</ele>
        <time>2018-10-23T09:33:47Z</time>
      </trkpt>
      <trkpt lat="45.99578" lon="4.89126">
        <ele>289</ele>
        <time>2018-10-23T09:33:48Z</time>
      </trkpt>
      <trkpt lat="45.99577" lon="4.89139">
        <ele>289</ele>
        <time>2018-10-23T09:33:50Z</time>
      </trkpt>
      <trkpt lat="45.99577" lon="4.89145">
        <ele>289</ele>
        <time>2018-10-23T09:33:51Z</time>
      </trkpt>
      <trkpt lat="45.99578" lon="4.89152">
        <ele>288</ele>
        <time>2018-10-23T09:33:52Z</time>
      </trkpt>
      <trkpt lat="45.99582" lon="4.8916">
        <ele>288</ele>
        <time>2018-10-23T09:33:53Z</time>
      </trkpt>
      <trkpt lat="45.99583" lon="4.89167">
        <ele>288</ele>
        <time>2018-10-23T09:33:54Z</time>
      </trkpt>
      <trkpt lat="45.99584" lon="4.89175">
        <ele>288</ele>
        <time>2018-10-23T09:33:55Z</time>
      </trkpt>
      <trkpt lat="45.99584" lon="4.89181">
        <ele>288</ele>
        <time>2018-10-23T09:33:56Z</time>
      </trkpt>
      <trkpt lat="45.99585" lon="4.89188">
        <ele>288</ele>
        <time>2018-10-23T09:33:57Z</time>
      </trkpt>
      <trkpt lat="45.99585" lon="4.89195">
        <ele>288</ele>
        <time>2018-10-23T09:33:58Z</time>
      </trkpt>
      <trkpt lat="45.99585" lon="4.89202">
        <ele>288</ele>
        <time>2018-10-23T09:33:59Z</time>
      </trkpt>
      <trkpt lat="45.99586" lon="4.89209">
        <ele>288</ele>
        <time>2018-10-23T09:34:00Z</time>
      </trkpt>
      <trkpt lat="45.99585" lon="4.89216">
        <ele>288</ele>
        <time>2018-10-23T09:34:01Z</time>
      </trkpt>
      <trkpt lat="45.99585" lon="4.89223">
        <ele>288</ele>
        <time>2018-10-23T09:34:02Z</time>
      </trkpt>
      <trkpt lat="45.99586" lon="4.89231">
        <ele>288</ele>
        <time>2018-10-23T09:34:03Z</time>
      </trkpt>
      <trkpt lat="45.99586" lon="4.89238">
        <ele>288</ele>
        <time>2018-10-23T09:34:04Z</time>
      </trkpt>
      <trkpt lat="45.99587" lon="4.89245">
        <ele>288</ele>
        <time>2018-10-23T09:34:05Z</time>
      </trkpt>
      <trkpt lat="45.99586" lon="4.89252">
        <ele>288</ele>
        <time>2018-10-23T09:34:06Z</time>
      </trkpt>
      <trkpt lat="45.99586" lon="4.89259">
        <ele>288</ele>
        <time>2018-10-23T09:34:07Z</time>
      </trkpt>
      <trkpt lat="45.99588" lon="4.89267">
        <ele>288</ele>
        <time>2018-10-23T09:34:08Z</time>
      </trkpt>
      <trkpt lat="45.99589" lon="4.89275">
        <ele>288</ele>
        <time>2018-10-23T09:34:09Z</time>
      </trkpt>
      <trkpt lat="45.99588" lon="4.89282">
        <ele>289</ele>
        <time>2018-10-23T09:34:10Z</time>
      </trkpt>
      <trkpt lat="45.99589" lon="4.89289">
        <ele>289</ele>
        <time>2018-10-23T09:34:11Z</time>
      </trkpt>
      <trkpt lat="45.9959" lon="4.89298">
        <ele>289</ele>
        <time>2018-10-23T09:34:12Z</time>
      </trkpt>
      <trkpt lat="45.99591" lon="4.89305">
        <ele>289</ele>
        <time>2018-10-23T09:34:13Z</time>
      </trkpt>
      <trkpt lat="45.99591" lon="4.89312">
        <ele>289</ele>
        <time>2018-10-23T09:34:14Z</time>
      </trkpt>
      <trkpt lat="45.99591" lon="4.89319">
        <ele>289</ele>
        <time>2018-10-23T09:34:15Z</time>
      </trkpt>
      <trkpt lat="45.99592" lon="4.89326">
        <ele>289</ele>
        <time>2018-10-23T09:34:16Z</time>
      </trkpt>
      <trkpt lat="45.99592" lon="4.89333">
        <ele>289</ele>
        <time>2018-10-23T09:34:17Z</time>
      </trkpt>
      <trkpt lat="45.99592" lon="4.89341">
        <ele>289</ele>
        <time>2018-10-23T09:34:18Z</time>
      </trkpt>
      <trkpt lat="45.99593" lon="4.89348">
        <ele>289</ele>
        <time>2018-10-23T09:34:19Z</time>
      </trkpt>
      <trkpt lat="45.99593" lon="4.89355">
        <ele>289</ele>
        <time>2018-10-23T09:34:20Z</time>
      </trkpt>
      <trkpt lat="45.99593" lon="4.89363">
        <ele>289</ele>
        <time>2018-10-23T09:34:21Z</time>
      </trkpt>
      <trkpt lat="45.99594" lon="4.8937">
        <ele>289</ele>
        <time>2018-10-23T09:34:22Z</time>
      </trkpt>
      <trkpt lat="45.99593" lon="4.89377">
        <ele>290</ele>
        <time>2018-10-23T09:34:23Z</time>
      </trkpt>
      <trkpt lat="45.99594" lon="4.89386">
        <ele>290</ele>
        <time>2018-10-23T09:34:24Z</time>
      </trkpt>
      <trkpt lat="45.99594" lon="4.89393">
        <ele>290</ele>
        <time>2018-10-23T09:34:25Z</time>
      </trkpt>
      <trkpt lat="45.99594" lon="4.89401">
        <ele>290</ele>
        <time>2018-10-23T09:34:26Z</time>
      </trkpt>
      <trkpt lat="45.99595" lon="4.89407">
        <ele>290</ele>
        <time>2018-10-23T09:34:27Z</time>
      </trkpt>
      <trkpt lat="45.99595" lon="4.89415">
        <ele>290</ele>
        <time>2018-10-23T09:34:28Z</time>
      </trkpt>
      <trkpt lat="45.99595" lon="4.89422">
        <ele>290</ele>
        <time>2018-10-23T09:34:29Z</time>
      </trkpt>
      <trkpt lat="45.99596" lon="4.89429">
        <ele>290</ele>
        <time>2018-10-23T09:34:30Z</time>
      </trkpt>
      <trkpt lat="45.99596" lon="4.89436">
        <ele>290</ele>
        <time>2018-10-23T09:34:31Z</time>
      </trkpt>
      <trkpt lat="45.99597" lon="4.89442">
        <ele>290</ele>
        <time>2018-10-23T09:34:32Z</time>
      </trkpt>
      <trkpt lat="45.99596" lon="4.89449">
        <ele>290</ele>
        <time>2018-10-23T09:34:33Z</time>
      </trkpt>
      <trkpt lat="45.99596" lon="4.89456">
        <ele>290</ele>
        <time>2018-10-23T09:34:34Z</time>
      </trkpt>
      <trkpt lat="45.99596" lon="4.89462">
        <ele>290</ele>
        <time>2018-10-23T09:34:35Z</time>
      </trkpt>
      <trkpt lat="45.99595" lon="4.89469">
        <ele>290</ele>
        <time>2018-10-23T09:34:36Z</time>
      </trkpt>
      <trkpt lat="45.99596" lon="4.89477">
        <ele>290</ele>
        <time>2018-10-23T09:34:37Z</time>
      </trkpt>
      <trkpt lat="45.99597" lon="4.89484">
        <ele>290</ele>
        <time>2018-10-23T09:34:38Z</time>
      </trkpt>
      <trkpt lat="45.99598" lon="4.89491">
        <ele>290</ele>
        <time>2018-10-23T09:34:39Z</time>
      </trkpt>
      <trkpt lat="45.99599" lon="4.89499">
        <ele>290</ele>
        <time>2018-10-23T09:34:40Z</time>
      </trkpt>
      <trkpt lat="45.99599" lon="4.89507">
        <ele>290</ele>
        <time>2018-10-23T09:34:41Z</time>
      </trkpt>
      <trkpt lat="45.996" lon="4.89514">
        <ele>290</ele>
        <time>2018-10-23T09:34:42Z</time>
      </trkpt>
      <trkpt lat="45.996" lon="4.89521">
        <ele>291</ele>
        <time>2018-10-23T09:34:43Z</time>
      </trkpt>
      <trkpt lat="45.996" lon="4.89528">
        <ele>291</ele>
        <time>2018-10-23T09:34:44Z</time>
      </trkpt>
      <trkpt lat="45.99601" lon="4.89537">
        <ele>291</ele>
        <time>2018-10-23T09:34:45Z</time>
      </trkpt>
      <trkpt lat="45.99601" lon="4.89544">
        <ele>291</ele>
        <time>2018-10-23T09:34:46Z</time>
      </trkpt>
      <trkpt lat="45.99601" lon="4.89551">
        <ele>291</ele>
        <time>2018-10-23T09:34:47Z</time>
      </trkpt>
      <trkpt lat="45.99602" lon="4.8956">
        <ele>291</ele>
        <time>2018-10-23T09:34:48Z</time>
      </trkpt>
      <trkpt lat="45.99602" lon="4.89567">
        <ele>291</ele>
        <time>2018-10-23T09:34:49Z</time>
      </trkpt>
      <trkpt lat="45.99602" lon="4.89574">
        <ele>291</ele>
        <time>2018-10-23T09:34:50Z</time>
      </trkpt>
      <trkpt lat="45.99602" lon="4.89581">
        <ele>291</ele>
        <time>2018-10-23T09:34:51Z</time>
      </trkpt>
      <trkpt lat="45.99603" lon="4.89588">
        <ele>292</ele>
        <time>2018-10-23T09:34:52Z</time>
      </trkpt>
      <trkpt lat="45.99608" lon="4.89595">
        <ele>292</ele>
        <time>2018-10-23T09:34:53Z</time>
      </trkpt>
      <trkpt lat="45.99609" lon="4.89602">
        <ele>291</ele>
        <time>2018-10-23T09:34:54Z</time>
      </trkpt>
      <trkpt lat="45.9961" lon="4.89608">
        <ele>291</ele>
        <time>2018-10-23T09:34:55Z</time>
      </trkpt>
      <trkpt lat="45.9961" lon="4.89615">
        <ele>291</ele>
        <time>2018-10-23T09:34:56Z</time>
      </trkpt>
      <trkpt lat="45.99609" lon="4.89622">
        <ele>291</ele>
        <time>2018-10-23T09:34:57Z</time>
      </trkpt>
      <trkpt lat="45.99612" lon="4.89632">
        <ele>291</ele>
        <time>2018-10-23T09:34:58Z</time>
      </trkpt>
      <trkpt lat="45.9961" lon="4.8964">
        <ele>291</ele>
        <time>2018-10-23T09:34:59Z</time>
      </trkpt>
      <trkpt lat="45.99609" lon="4.89648">
        <ele>291</ele>
        <time>2018-10-23T09:35:01Z</time>
      </trkpt>
      <trkpt lat="45.99609" lon="4.89659">
        <ele>291</ele>
        <time>2018-10-23T09:35:02Z</time>
      </trkpt>
      <trkpt lat="45.9961" lon="4.89667">
        <ele>291</ele>
        <time>2018-10-23T09:35:03Z</time>
      </trkpt>
      <trkpt lat="45.99609" lon="4.89673">
        <ele>291</ele>
        <time>2018-10-23T09:35:04Z</time>
      </trkpt>
      <trkpt lat="45.9961" lon="4.89685">
        <ele>291</ele>
        <time>2018-10-23T09:35:06Z</time>
      </trkpt>
      <trkpt lat="45.9961" lon="4.89692">
        <ele>291</ele>
        <time>2018-10-23T09:35:07Z</time>
      </trkpt>
      <trkpt lat="45.99609" lon="4.89699">
        <ele>291</ele>
        <time>2018-10-23T09:35:08Z</time>
      </trkpt>
      <trkpt lat="45.99609" lon="4.89706">
        <ele>291</ele>
        <time>2018-10-23T09:35:09Z</time>
      </trkpt>
      <trkpt lat="45.9961" lon="4.89718">
        <ele>292</ele>
        <time>2018-10-23T09:35:11Z</time>
      </trkpt>
      <trkpt lat="45.9961" lon="4.89726">
        <ele>292</ele>
        <time>2018-10-23T09:35:12Z</time>
      </trkpt>
      <trkpt lat="45.9961" lon="4.89733">
        <ele>292</ele>
        <time>2018-10-23T09:35:13Z</time>
      </trkpt>
      <trkpt lat="45.99609" lon="4.8974">
        <ele>292</ele>
        <time>2018-10-23T09:35:14Z</time>
      </trkpt>
      <trkpt lat="45.99609" lon="4.89749">
        <ele>292</ele>
        <time>2018-10-23T09:35:15Z</time>
      </trkpt>
      <trkpt lat="45.99609" lon="4.89756">
        <ele>292</ele>
        <time>2018-10-23T09:35:16Z</time>
      </trkpt>
      <trkpt lat="45.9961" lon="4.89769">
        <ele>292</ele>
        <time>2018-10-23T09:35:18Z</time>
      </trkpt>
      <trkpt lat="45.99609" lon="4.89779">
        <ele>292</ele>
        <time>2018-10-23T09:35:19Z</time>
      </trkpt>
      <trkpt lat="45.99608" lon="4.89785">
        <ele>292</ele>
        <time>2018-10-23T09:35:20Z</time>
      </trkpt>
      <trkpt lat="45.99607" lon="4.89792">
        <ele>292</ele>
        <time>2018-10-23T09:35:21Z</time>
      </trkpt>
      <trkpt lat="45.99607" lon="4.898">
        <ele>292</ele>
        <time>2018-10-23T09:35:22Z</time>
      </trkpt>
      <trkpt lat="45.99605" lon="4.89808">
        <ele>292</ele>
        <time>2018-10-23T09:35:23Z</time>
      </trkpt>
      <trkpt lat="45.99605" lon="4.89814">
        <ele>292</ele>
        <time>2018-10-23T09:35:24Z</time>
      </trkpt>
      <trkpt lat="45.99604" lon="4.89821">
        <ele>292</ele>
        <time>2018-10-23T09:35:25Z</time>
      </trkpt>
      <trkpt lat="45.99603" lon="4.89824">
        <ele>292</ele>
        <time>2018-10-23T09:35:26Z</time>
      </trkpt>
      <trkpt lat="45.99604" lon="4.89838">
        <ele>293</ele>
        <time>2018-10-23T09:35:27Z</time>
      </trkpt>
      <trkpt lat="45.99604" lon="4.89847">
        <ele>293</ele>
        <time>2018-10-23T09:35:28Z</time>
      </trkpt>
      <trkpt lat="45.99603" lon="4.89854">
        <ele>293</ele>
        <time>2018-10-23T09:35:29Z</time>
      </trkpt>
      <trkpt lat="45.99603" lon="4.89862">
        <ele>293</ele>
        <time>2018-10-23T09:35:30Z</time>
      </trkpt>
      <trkpt lat="45.99603" lon="4.89868">
        <ele>293</ele>
        <time>2018-10-23T09:35:31Z</time>
      </trkpt>
      <trkpt lat="45.99603" lon="4.89876">
        <ele>292</ele>
        <time>2018-10-23T09:35:32Z</time>
      </trkpt>
      <trkpt lat="45.99603" lon="4.89884">
        <ele>292</ele>
        <time>2018-10-23T09:35:33Z</time>
      </trkpt>
      <trkpt lat="45.99603" lon="4.89892">
        <ele>292</ele>
        <time>2018-10-23T09:35:34Z</time>
      </trkpt>
      <trkpt lat="45.99602" lon="4.89899">
        <ele>292</ele>
        <time>2018-10-23T09:35:35Z</time>
      </trkpt>
      <trkpt lat="45.99602" lon="4.89908">
        <ele>292</ele>
        <time>2018-10-23T09:35:36Z</time>
      </trkpt>
      <trkpt lat="45.99602" lon="4.89915">
        <ele>292</ele>
        <time>2018-10-23T09:35:37Z</time>
      </trkpt>
      <trkpt lat="45.99603" lon="4.89921">
        <ele>293</ele>
        <time>2018-10-23T09:35:38Z</time>
      </trkpt>
      <trkpt lat="45.99602" lon="4.89929">
        <ele>293</ele>
        <time>2018-10-23T09:35:39Z</time>
      </trkpt>
      <trkpt lat="45.99605" lon="4.89936">
        <ele>293</ele>
        <time>2018-10-23T09:35:40Z</time>
      </trkpt>
      <trkpt lat="45.99605" lon="4.89944">
        <ele>294</ele>
        <time>2018-10-23T09:35:41Z</time>
      </trkpt>
      <trkpt lat="45.99605" lon="4.89951">
        <ele>294</ele>
        <time>2018-10-23T09:35:42Z</time>
      </trkpt>
      <trkpt lat="45.99605" lon="4.89958">
        <ele>294</ele>
        <time>2018-10-23T09:35:43Z</time>
      </trkpt>
      <trkpt lat="45.99605" lon="4.89965">
        <ele>294</ele>
        <time>2018-10-23T09:35:44Z</time>
      </trkpt>
      <trkpt lat="45.99605" lon="4.89972">
        <ele>294</ele>
        <time>2018-10-23T09:35:45Z</time>
      </trkpt>
      <trkpt lat="45.99605" lon="4.89979">
        <ele>294</ele>
        <time>2018-10-23T09:35:46Z</time>
      </trkpt>
      <trkpt lat="45.99606" lon="4.89987">
        <ele>294</ele>
        <time>2018-10-23T09:35:47Z</time>
      </trkpt>
      <trkpt lat="45.99607" lon="4.89994">
        <ele>294</ele>
        <time>2018-10-23T09:35:48Z</time>
      </trkpt>
      <trkpt lat="45.99607" lon="4.9">
        <ele>296</ele>
        <time>2018-10-23T09:35:49Z</time>
      </trkpt>
      <trkpt lat="45.99609" lon="4.90007">
        <ele>296</ele>
        <time>2018-10-23T09:35:50Z</time>
      </trkpt>
      <trkpt lat="45.9961" lon="4.90014">
        <ele>296</ele>
        <time>2018-10-23T09:35:51Z</time>
      </trkpt>
      <trkpt lat="45.99612" lon="4.9002">
        <ele>296</ele>
        <time>2018-10-23T09:35:52Z</time>
      </trkpt>
      <trkpt lat="45.99615" lon="4.90026">
        <ele>296</ele>
        <time>2018-10-23T09:35:53Z</time>
      </trkpt>
      <trkpt lat="45.99619" lon="4.90037">
        <ele>296</ele>
        <time>2018-10-23T09:35:55Z</time>
      </trkpt>
      <trkpt lat="45.99621" lon="4.90042">
        <ele>296</ele>
        <time>2018-10-23T09:35:56Z</time>
      </trkpt>
      <trkpt lat="45.99625" lon="4.90053">
        <ele>297</ele>
        <time>2018-10-23T09:35:58Z</time>
      </trkpt>
      <trkpt lat="45.99627" lon="4.90059">
        <ele>297</ele>
        <time>2018-10-23T09:35:59Z</time>
      </trkpt>
      <trkpt lat="45.99632" lon="4.90069">
        <ele>297</ele>
        <time>2018-10-23T09:36:01Z</time>
      </trkpt>
      <trkpt lat="45.99634" lon="4.90074">
        <ele>297</ele>
        <time>2018-10-23T09:36:02Z</time>
      </trkpt>
      <trkpt lat="45.99637" lon="4.90085">
        <ele>298</ele>
        <time>2018-10-23T09:36:04Z</time>
      </trkpt>
      <trkpt lat="45.9964" lon="4.9009">
        <ele>299</ele>
        <time>2018-10-23T09:36:05Z</time>
      </trkpt>
      <trkpt lat="45.99643" lon="4.90102">
        <ele>299</ele>
        <time>2018-10-23T09:36:07Z</time>
      </trkpt>
      <trkpt lat="45.99645" lon="4.90107">
        <ele>299</ele>
        <time>2018-10-23T09:36:08Z</time>
      </trkpt>
      <trkpt lat="45.99647" lon="4.90118">
        <ele>299</ele>
        <time>2018-10-23T09:36:10Z</time>
      </trkpt>
      <trkpt lat="45.99648" lon="4.90121">
        <ele>299</ele>
        <time>2018-10-23T09:36:11Z</time>
      </trkpt>
      <trkpt lat="45.99651" lon="4.90133">
        <ele>299</ele>
        <time>2018-10-23T09:36:13Z</time>
      </trkpt>
      <trkpt lat="45.99651" lon="4.90135">
        <ele>299</ele>
        <time>2018-10-23T09:36:14Z</time>
      </trkpt>
      <trkpt lat="45.99655" lon="4.90146">
        <ele>300</ele>
        <time>2018-10-23T09:36:16Z</time>
      </trkpt>
      <trkpt lat="45.99656" lon="4.90149">
        <ele>300</ele>
        <time>2018-10-23T09:36:17Z</time>
      </trkpt>
      <trkpt lat="45.99658" lon="4.90159">
        <ele>300</ele>
        <time>2018-10-23T09:36:20Z</time>
      </trkpt>
      <trkpt lat="45.99659" lon="4.90162">
        <ele>300</ele>
        <time>2018-10-23T09:36:21Z</time>
      </trkpt>
      <trkpt lat="45.99661" lon="4.90172">
        <ele>301</ele>
        <time>2018-10-23T09:36:23Z</time>
      </trkpt>
      <trkpt lat="45.99662" lon="4.90176">
        <ele>301</ele>
        <time>2018-10-23T09:36:24Z</time>
      </trkpt>
      <trkpt lat="45.99664" lon="4.90184">
        <ele>301</ele>
        <time>2018-10-23T09:36:26Z</time>
      </trkpt>
      <trkpt lat="45.99665" lon="4.90188">
        <ele>301</ele>
        <time>2018-10-23T09:36:27Z</time>
      </trkpt>
      <trkpt lat="45.99668" lon="4.902">
        <ele>303</ele>
        <time>2018-10-23T09:36:30Z</time>
      </trkpt>
      <trkpt lat="45.99669" lon="4.90204">
        <ele>303</ele>
        <time>2018-10-23T09:36:31Z</time>
      </trkpt>
      <trkpt lat="45.99671" lon="4.90216">
        <ele>303</ele>
        <time>2018-10-23T09:36:34Z</time>
      </trkpt>
      <trkpt lat="45.99673" lon="4.9022">
        <ele>303</ele>
        <time>2018-10-23T09:36:35Z</time>
      </trkpt>
      <trkpt lat="45.99674" lon="4.90224">
        <ele>304</ele>
        <time>2018-10-23T09:36:36Z</time>
      </trkpt>
      <trkpt lat="45.99676" lon="4.90233">
        <ele>304</ele>
        <time>2018-10-23T09:36:37Z</time>
      </trkpt>
      <trkpt lat="45.99678" lon="4.90244">
        <ele>304</ele>
        <time>2018-10-23T09:36:39Z</time>
      </trkpt>
      <trkpt lat="45.9968" lon="4.90249">
        <ele>304</ele>
        <time>2018-10-23T09:36:40Z</time>
      </trkpt>
      <trkpt lat="45.99681" lon="4.90259">
        <ele>304</ele>
        <time>2018-10-23T09:36:42Z</time>
      </trkpt>
      <trkpt lat="45.99681" lon="4.90265">
        <ele>305</ele>
        <time>2018-10-23T09:36:43Z</time>
      </trkpt>
      <trkpt lat="45.99679" lon="4.90276">
        <ele>305</ele>
        <time>2018-10-23T09:36:45Z</time>
      </trkpt>
      <trkpt lat="45.99677" lon="4.90282">
        <ele>304</ele>
        <time>2018-10-23T09:36:46Z</time>
      </trkpt>
      <trkpt lat="45.99676" lon="4.90288">
        <ele>304</ele>
        <time>2018-10-23T09:36:47Z</time>
      </trkpt>
      <trkpt lat="45.99673" lon="4.90295">
        <ele>304</ele>
        <time>2018-10-23T09:36:48Z</time>
      </trkpt>
      <trkpt lat="45.99672" lon="4.90306">
        <ele>304</ele>
        <time>2018-10-23T09:36:50Z</time>
      </trkpt>
      <trkpt lat="45.99672" lon="4.90311">
        <ele>304</ele>
        <time>2018-10-23T09:36:51Z</time>
      </trkpt>
      <trkpt lat="45.9967" lon="4.90324">
        <ele>303</ele>
        <time>2018-10-23T09:36:55Z</time>
      </trkpt>
      <trkpt lat="45.99668" lon="4.90327">
        <ele>303</ele>
        <time>2018-10-23T09:36:56Z</time>
      </trkpt>
      <trkpt lat="45.99663" lon="4.9033">
        <ele>302</ele>
        <time>2018-10-23T09:36:58Z</time>
      </trkpt>
      <trkpt lat="45.99656" lon="4.90329">
        <ele>302</ele>
        <time>2018-10-23T09:36:59Z</time>
      </trkpt>
      <trkpt lat="45.99648" lon="4.90327">
        <ele>302</ele>
        <time>2018-10-23T09:37:01Z</time>
      </trkpt>
      <trkpt lat="45.99644" lon="4.90325">
        <ele>302</ele>
        <time>2018-10-23T09:37:02Z</time>
      </trkpt>
      <trkpt lat="45.99636" lon="4.90325">
        <ele>302</ele>
        <time>2018-10-23T09:37:04Z</time>
      </trkpt>
      <trkpt lat="45.9963" lon="4.90324">
        <ele>302</ele>
        <time>2018-10-23T09:37:05Z</time>
      </trkpt>
      <trkpt lat="45.99625" lon="4.90324">
        <ele>302</ele>
        <time>2018-10-23T09:37:06Z</time>
      </trkpt>
      <trkpt lat="45.99619" lon="4.90324">
        <ele>302</ele>
        <time>2018-10-23T09:37:07Z</time>
      </trkpt>
      <trkpt lat="45.99613" lon="4.90324">
        <ele>302</ele>
        <time>2018-10-23T09:37:08Z</time>
      </trkpt>
      <trkpt lat="45.99607" lon="4.90325">
        <ele>301</ele>
        <time>2018-10-23T09:37:09Z</time>
      </trkpt>
      <trkpt lat="45.99602" lon="4.90324">
        <ele>301</ele>
        <time>2018-10-23T09:37:10Z</time>
      </trkpt>
      <trkpt lat="45.99596" lon="4.90323">
        <ele>301</ele>
        <time>2018-10-23T09:37:11Z</time>
      </trkpt>
      <trkpt lat="45.99591" lon="4.90321">
        <ele>301</ele>
        <time>2018-10-23T09:37:12Z</time>
      </trkpt>
      <trkpt lat="45.99585" lon="4.9032">
        <ele>301</ele>
        <time>2018-10-23T09:37:13Z</time>
      </trkpt>
      <trkpt lat="45.99579" lon="4.90319">
        <ele>301</ele>
        <time>2018-10-23T09:37:14Z</time>
      </trkpt>
      <trkpt lat="45.99573" lon="4.90321">
        <ele>301</ele>
        <time>2018-10-23T09:37:15Z</time>
      </trkpt>
      <trkpt lat="45.99567" lon="4.9032">
        <ele>301</ele>
        <time>2018-10-23T09:37:16Z</time>
      </trkpt>
      <trkpt lat="45.99561" lon="4.90319">
        <ele>301</ele>
        <time>2018-10-23T09:37:17Z</time>
      </trkpt>
      <trkpt lat="45.99555" lon="4.90317">
        <ele>300</ele>
        <time>2018-10-23T09:37:18Z</time>
      </trkpt>
      <trkpt lat="45.99549" lon="4.90316">
        <ele>300</ele>
        <time>2018-10-23T09:37:19Z</time>
      </trkpt>
      <trkpt lat="45.99543" lon="4.90316">
        <ele>300</ele>
        <time>2018-10-23T09:37:20Z</time>
      </trkpt>
      <trkpt lat="45.99537" lon="4.90315">
        <ele>300</ele>
        <time>2018-10-23T09:37:21Z</time>
      </trkpt>
      <trkpt lat="45.99531" lon="4.90315">
        <ele>300</ele>
        <time>2018-10-23T09:37:22Z</time>
      </trkpt>
      <trkpt lat="45.99524" lon="4.90313">
        <ele>300</ele>
        <time>2018-10-23T09:37:23Z</time>
      </trkpt>
      <trkpt lat="45.99519" lon="4.90312">
        <ele>300</ele>
        <time>2018-10-23T09:37:24Z</time>
      </trkpt>
      <trkpt lat="45.99513" lon="4.90311">
        <ele>300</ele>
        <time>2018-10-23T09:37:25Z</time>
      </trkpt>
      <trkpt lat="45.99507" lon="4.9031">
        <ele>300</ele>
        <time>2018-10-23T09:37:26Z</time>
      </trkpt>
      <trkpt lat="45.99501" lon="4.90309">
        <ele>300</ele>
        <time>2018-10-23T09:37:27Z</time>
      </trkpt>
      <trkpt lat="45.99495" lon="4.90309">
        <ele>300</ele>
        <time>2018-10-23T09:37:28Z</time>
      </trkpt>
      <trkpt lat="45.99489" lon="4.90308">
        <ele>300</ele>
        <time>2018-10-23T09:37:29Z</time>
      </trkpt>
      <trkpt lat="45.99483" lon="4.90308">
        <ele>300</ele>
        <time>2018-10-23T09:37:30Z</time>
      </trkpt>
      <trkpt lat="45.99477" lon="4.90306">
        <ele>300</ele>
        <time>2018-10-23T09:37:31Z</time>
      </trkpt>
      <trkpt lat="45.9947" lon="4.90305">
        <ele>300</ele>
        <time>2018-10-23T09:37:32Z</time>
      </trkpt>
      <trkpt lat="45.99465" lon="4.90304">
        <ele>300</ele>
        <time>2018-10-23T09:37:33Z</time>
      </trkpt>
      <trkpt lat="45.9946" lon="4.90304">
        <ele>300</ele>
        <time>2018-10-23T09:37:34Z</time>
      </trkpt>
      <trkpt lat="45.99454" lon="4.90304">
        <ele>300</ele>
        <time>2018-10-23T09:37:35Z</time>
      </trkpt>
      <trkpt lat="45.99449" lon="4.90303">
        <ele>300</ele>
        <time>2018-10-23T09:37:36Z</time>
      </trkpt>
      <trkpt lat="45.99444" lon="4.90302">
        <ele>300</ele>
        <time>2018-10-23T09:37:37Z</time>
      </trkpt>
      <trkpt lat="45.99438" lon="4.90301">
        <ele>300</ele>
        <time>2018-10-23T09:37:38Z</time>
      </trkpt>
      <trkpt lat="45.99432" lon="4.903">
        <ele>300</ele>
        <time>2018-10-23T09:37:39Z</time>
      </trkpt>
      <trkpt lat="45.99426" lon="4.90299">
        <ele>300</ele>
        <time>2018-10-23T09:37:40Z</time>
      </trkpt>
      <trkpt lat="45.9942" lon="4.90299">
        <ele>300</ele>
        <time>2018-10-23T09:37:41Z</time>
      </trkpt>
      <trkpt lat="45.99414" lon="4.90299">
        <ele>300</ele>
        <time>2018-10-23T09:37:42Z</time>
      </trkpt>
      <trkpt lat="45.99408" lon="4.90298">
        <ele>300</ele>
        <time>2018-10-23T09:37:43Z</time>
      </trkpt>
      <trkpt lat="45.99401" lon="4.90297">
        <ele>300</ele>
        <time>2018-10-23T09:37:44Z</time>
      </trkpt>
      <trkpt lat="45.99395" lon="4.90296">
        <ele>300</ele>
        <time>2018-10-23T09:37:45Z</time>
      </trkpt>
      <trkpt lat="45.9939" lon="4.90295">
        <ele>300</ele>
        <time>2018-10-23T09:37:46Z</time>
      </trkpt>
      <trkpt lat="45.99384" lon="4.90295">
        <ele>300</ele>
        <time>2018-10-23T09:37:47Z</time>
      </trkpt>
      <trkpt lat="45.99378" lon="4.90294">
        <ele>300</ele>
        <time>2018-10-23T09:37:48Z</time>
      </trkpt>
      <trkpt lat="45.99373" lon="4.90293">
        <ele>300</ele>
        <time>2018-10-23T09:37:49Z</time>
      </trkpt>
      <trkpt lat="45.99368" lon="4.90293">
        <ele>300</ele>
        <time>2018-10-23T09:37:50Z</time>
      </trkpt>
      <trkpt lat="45.99363" lon="4.90292">
        <ele>299</ele>
        <time>2018-10-23T09:37:51Z</time>
      </trkpt>
      <trkpt lat="45.99358" lon="4.90291">
        <ele>299</ele>
        <time>2018-10-23T09:37:54Z</time>
      </trkpt>
      <trkpt lat="45.99352" lon="4.90292">
        <ele>299</ele>
        <time>2018-10-23T09:37:55Z</time>
      </trkpt>
      <trkpt lat="45.99344" lon="4.90291">
        <ele>299</ele>
        <time>2018-10-23T09:37:57Z</time>
      </trkpt>
      <trkpt lat="45.9934" lon="4.90291">
        <ele>299</ele>
        <time>2018-10-23T09:37:58Z</time>
      </trkpt>
      <trkpt lat="45.99335" lon="4.9029">
        <ele>299</ele>
        <time>2018-10-23T09:37:59Z</time>
      </trkpt>
      <trkpt lat="45.9933" lon="4.90288">
        <ele>299</ele>
        <time>2018-10-23T09:38:00Z</time>
      </trkpt>
      <trkpt lat="45.99325" lon="4.90285">
        <ele>299</ele>
        <time>2018-10-23T09:38:01Z</time>
      </trkpt>
      <trkpt lat="45.99321" lon="4.90282">
        <ele>299</ele>
        <time>2018-10-23T09:38:02Z</time>
      </trkpt>
      <trkpt lat="45.99317" lon="4.90276">
        <ele>299</ele>
        <time>2018-10-23T09:38:03Z</time>
      </trkpt>
      <trkpt lat="45.99314" lon="4.9027">
        <ele>299</ele>
        <time>2018-10-23T09:38:04Z</time>
      </trkpt>
      <trkpt lat="45.9931" lon="4.90261">
        <ele>299</ele>
        <time>2018-10-23T09:38:06Z</time>
      </trkpt>
      <trkpt lat="45.99306" lon="4.90255">
        <ele>299</ele>
        <time>2018-10-23T09:38:07Z</time>
      </trkpt>
      <trkpt lat="45.99302" lon="4.90249">
        <ele>298</ele>
        <time>2018-10-23T09:38:08Z</time>
      </trkpt>
      <trkpt lat="45.99294" lon="4.90242">
        <ele>298</ele>
        <time>2018-10-23T09:38:09Z</time>
      </trkpt>
      <trkpt lat="45.99291" lon="4.90237">
        <ele>298</ele>
        <time>2018-10-23T09:38:10Z</time>
      </trkpt>
      <trkpt lat="45.99286" lon="4.90231">
        <ele>298</ele>
        <time>2018-10-23T09:38:11Z</time>
      </trkpt>
      <trkpt lat="45.99282" lon="4.90226">
        <ele>298</ele>
        <time>2018-10-23T09:38:12Z</time>
      </trkpt>
      <trkpt lat="45.99278" lon="4.90219">
        <ele>298</ele>
        <time>2018-10-23T09:38:13Z</time>
      </trkpt>
      <trkpt lat="45.99275" lon="4.90212">
        <ele>298</ele>
        <time>2018-10-23T09:38:14Z</time>
      </trkpt>
      <trkpt lat="45.9927" lon="4.90205">
        <ele>298</ele>
        <time>2018-10-23T09:38:15Z</time>
      </trkpt>
      <trkpt lat="45.99265" lon="4.90198">
        <ele>298</ele>
        <time>2018-10-23T09:38:16Z</time>
      </trkpt>
      <trkpt lat="45.99261" lon="4.90194">
        <ele>298</ele>
        <time>2018-10-23T09:38:17Z</time>
      </trkpt>
      <trkpt lat="45.99257" lon="4.90188">
        <ele>298</ele>
        <time>2018-10-23T09:38:18Z</time>
      </trkpt>
      <trkpt lat="45.99253" lon="4.90183">
        <ele>298</ele>
        <time>2018-10-23T09:38:19Z</time>
      </trkpt>
      <trkpt lat="45.99249" lon="4.90178">
        <ele>297</ele>
        <time>2018-10-23T09:38:20Z</time>
      </trkpt>
      <trkpt lat="45.99245" lon="4.90173">
        <ele>297</ele>
        <time>2018-10-23T09:38:21Z</time>
      </trkpt>
      <trkpt lat="45.9924" lon="4.90168">
        <ele>297</ele>
        <time>2018-10-23T09:38:22Z</time>
      </trkpt>
      <trkpt lat="45.99237" lon="4.90164">
        <ele>297</ele>
        <time>2018-10-23T09:38:23Z</time>
      </trkpt>
      <trkpt lat="45.99234" lon="4.90158">
        <ele>297</ele>
        <time>2018-10-23T09:38:24Z</time>
      </trkpt>
      <trkpt lat="45.9923" lon="4.90154">
        <ele>297</ele>
        <time>2018-10-23T09:38:25Z</time>
      </trkpt>
      <trkpt lat="45.99226" lon="4.90146">
        <ele>297</ele>
        <time>2018-10-23T09:38:26Z</time>
      </trkpt>
      <trkpt lat="45.99223" lon="4.90141">
        <ele>297</ele>
        <time>2018-10-23T09:38:27Z</time>
      </trkpt>
      <trkpt lat="45.99218" lon="4.90136">
        <ele>297</ele>
        <time>2018-10-23T09:38:28Z</time>
      </trkpt>
      <trkpt lat="45.99215" lon="4.9013">
        <ele>297</ele>
        <time>2018-10-23T09:38:29Z</time>
      </trkpt>
      <trkpt lat="45.99211" lon="4.90124">
        <ele>297</ele>
        <time>2018-10-23T09:38:30Z</time>
      </trkpt>
      <trkpt lat="45.99206" lon="4.90118">
        <ele>297</ele>
        <time>2018-10-23T09:38:31Z</time>
      </trkpt>
      <trkpt lat="45.99202" lon="4.90114">
        <ele>297</ele>
        <time>2018-10-23T09:38:32Z</time>
      </trkpt>
      <trkpt lat="45.99198" lon="4.90108">
        <ele>297</ele>
        <time>2018-10-23T09:38:33Z</time>
      </trkpt>
      <trkpt lat="45.99193" lon="4.90103">
        <ele>297</ele>
        <time>2018-10-23T09:38:34Z</time>
      </trkpt>
      <trkpt lat="45.99189" lon="4.90097">
        <ele>297</ele>
        <time>2018-10-23T09:38:35Z</time>
      </trkpt>
      <trkpt lat="45.99186" lon="4.90091">
        <ele>297</ele>
        <time>2018-10-23T09:38:36Z</time>
      </trkpt>
      <trkpt lat="45.99183" lon="4.90084">
        <ele>297</ele>
        <time>2018-10-23T09:38:37Z</time>
      </trkpt>
      <trkpt lat="45.9918" lon="4.90079">
        <ele>297</ele>
        <time>2018-10-23T09:38:38Z</time>
      </trkpt>
      <trkpt lat="45.99175" lon="4.90072">
        <ele>297</ele>
        <time>2018-10-23T09:38:39Z</time>
      </trkpt>
      <trkpt lat="45.9917" lon="4.90066">
        <ele>297</ele>
        <time>2018-10-23T09:38:41Z</time>
      </trkpt>
      <trkpt lat="45.99166" lon="4.90063">
        <ele>297</ele>
        <time>2018-10-23T09:38:42Z</time>
      </trkpt>
      <trkpt lat="45.99162" lon="4.90059">
        <ele>297</ele>
        <time>2018-10-23T09:38:43Z</time>
      </trkpt>
      <trkpt lat="45.99159" lon="4.90056">
        <ele>297</ele>
        <time>2018-10-23T09:38:44Z</time>
      </trkpt>
      <trkpt lat="45.99154" lon="4.90051">
        <ele>297</ele>
        <time>2018-10-23T09:38:45Z</time>
      </trkpt>
      <trkpt lat="45.9915" lon="4.90045">
        <ele>297</ele>
        <time>2018-10-23T09:38:46Z</time>
      </trkpt>
      <trkpt lat="45.99146" lon="4.90039">
        <ele>297</ele>
        <time>2018-10-23T09:38:47Z</time>
      </trkpt>
      <trkpt lat="45.99142" lon="4.90032">
        <ele>297</ele>
        <time>2018-10-23T09:38:48Z</time>
      </trkpt>
      <trkpt lat="45.99138" lon="4.90024">
        <ele>297</ele>
        <time>2018-10-23T09:38:49Z</time>
      </trkpt>
      <trkpt lat="45.99133" lon="4.90019">
        <ele>296</ele>
        <time>2018-10-23T09:38:50Z</time>
      </trkpt>
      <trkpt lat="45.99128" lon="4.90012">
        <ele>296</ele>
        <time>2018-10-23T09:38:51Z</time>
      </trkpt>
      <trkpt lat="45.99124" lon="4.90006">
        <ele>296</ele>
        <time>2018-10-23T09:38:52Z</time>
      </trkpt>
      <trkpt lat="45.9912" lon="4.90001">
        <ele>296</ele>
        <time>2018-10-23T09:38:53Z</time>
      </trkpt>
      <trkpt lat="45.99115" lon="4.89996">
        <ele>295</ele>
        <time>2018-10-23T09:38:54Z</time>
      </trkpt>
      <trkpt lat="45.99111" lon="4.89989">
        <ele>295</ele>
        <time>2018-10-23T09:38:55Z</time>
      </trkpt>
      <trkpt lat="45.99106" lon="4.89983">
        <ele>295</ele>
        <time>2018-10-23T09:38:56Z</time>
      </trkpt>
      <trkpt lat="45.99102" lon="4.89978">
        <ele>295</ele>
        <time>2018-10-23T09:38:57Z</time>
      </trkpt>
      <trkpt lat="45.99096" lon="4.89972">
        <ele>295</ele>
        <time>2018-10-23T09:38:58Z</time>
      </trkpt>
      <trkpt lat="45.99091" lon="4.89966">
        <ele>295</ele>
        <time>2018-10-23T09:38:59Z</time>
      </trkpt>
      <trkpt lat="45.99087" lon="4.8996">
        <ele>295</ele>
        <time>2018-10-23T09:39:00Z</time>
      </trkpt>
      <trkpt lat="45.99083" lon="4.89955">
        <ele>294</ele>
        <time>2018-10-23T09:39:01Z</time>
      </trkpt>
      <trkpt lat="45.99079" lon="4.89949">
        <ele>294</ele>
        <time>2018-10-23T09:39:02Z</time>
      </trkpt>
      <trkpt lat="45.99075" lon="4.89943">
        <ele>294</ele>
        <time>2018-10-23T09:39:03Z</time>
      </trkpt>
      <trkpt lat="45.99072" lon="4.89939">
        <ele>294</ele>
        <time>2018-10-23T09:39:04Z</time>
      </trkpt>
      <trkpt lat="45.99068" lon="4.89934">
        <ele>294</ele>
        <time>2018-10-23T09:39:05Z</time>
      </trkpt>
      <trkpt lat="45.99064" lon="4.89928">
        <ele>294</ele>
        <time>2018-10-23T09:39:06Z</time>
      </trkpt>
      <trkpt lat="45.99058" lon="4.89925">
        <ele>294</ele>
        <time>2018-10-23T09:39:07Z</time>
      </trkpt>
      <trkpt lat="45.99053" lon="4.89918">
        <ele>294</ele>
        <time>2018-10-23T09:39:08Z</time>
      </trkpt>
      <trkpt lat="45.99049" lon="4.89912">
        <ele>293</ele>
        <time>2018-10-23T09:39:09Z</time>
      </trkpt>
      <trkpt lat="45.99046" lon="4.89905">
        <ele>293</ele>
        <time>2018-10-23T09:39:10Z</time>
      </trkpt>
      <trkpt lat="45.99041" lon="4.89899">
        <ele>293</ele>
        <time>2018-10-23T09:39:11Z</time>
      </trkpt>
      <trkpt lat="45.99036" lon="4.89894">
        <ele>293</ele>
        <time>2018-10-23T09:39:12Z</time>
      </trkpt>
      <trkpt lat="45.99032" lon="4.89889">
        <ele>293</ele>
        <time>2018-10-23T09:39:13Z</time>
      </trkpt>
      <trkpt lat="45.99027" lon="4.89883">
        <ele>293</ele>
        <time>2018-10-23T09:39:14Z</time>
      </trkpt>
      <trkpt lat="45.99021" lon="4.89876">
        <ele>293</ele>
        <time>2018-10-23T09:39:15Z</time>
      </trkpt>
      <trkpt lat="45.99017" lon="4.89868">
        <ele>293</ele>
        <time>2018-10-23T09:39:16Z</time>
      </trkpt>
      <trkpt lat="45.99012" lon="4.89862">
        <ele>293</ele>
        <time>2018-10-23T09:39:17Z</time>
      </trkpt>
      <trkpt lat="45.99009" lon="4.89856">
        <ele>293</ele>
        <time>2018-10-23T09:39:18Z</time>
      </trkpt>
      <trkpt lat="45.99005" lon="4.89851">
        <ele>293</ele>
        <time>2018-10-23T09:39:19Z</time>
      </trkpt>
      <trkpt lat="45.99001" lon="4.89845">
        <ele>293</ele>
        <time>2018-10-23T09:39:20Z</time>
      </trkpt>
      <trkpt lat="45.98997" lon="4.8984">
        <ele>293</ele>
        <time>2018-10-23T09:39:21Z</time>
      </trkpt>
      <trkpt lat="45.98993" lon="4.89834">
        <ele>293</ele>
        <time>2018-10-23T09:39:22Z</time>
      </trkpt>
      <trkpt lat="45.98988" lon="4.89829">
        <ele>293</ele>
        <time>2018-10-23T09:39:23Z</time>
      </trkpt>
      <trkpt lat="45.98986" lon="4.89824">
        <ele>293</ele>
        <time>2018-10-23T09:39:24Z</time>
      </trkpt>
      <trkpt lat="45.9898" lon="4.89817">
        <ele>293</ele>
        <time>2018-10-23T09:39:25Z</time>
      </trkpt>
      <trkpt lat="45.98976" lon="4.89811">
        <ele>293</ele>
        <time>2018-10-23T09:39:26Z</time>
      </trkpt>
      <trkpt lat="45.98971" lon="4.89807">
        <ele>293</ele>
        <time>2018-10-23T09:39:27Z</time>
      </trkpt>
      <trkpt lat="45.98966" lon="4.89801">
        <ele>293</ele>
        <time>2018-10-23T09:39:28Z</time>
      </trkpt>
      <trkpt lat="45.9896" lon="4.89796">
        <ele>293</ele>
        <time>2018-10-23T09:39:29Z</time>
      </trkpt>
      <trkpt lat="45.98955" lon="4.89791">
        <ele>293</ele>
        <time>2018-10-23T09:39:30Z</time>
      </trkpt>
      <trkpt lat="45.98949" lon="4.89786">
        <ele>293</ele>
        <time>2018-10-23T09:39:31Z</time>
      </trkpt>
      <trkpt lat="45.98943" lon="4.89782">
        <ele>293</ele>
        <time>2018-10-23T09:39:32Z</time>
      </trkpt>
      <trkpt lat="45.98939" lon="4.89777">
        <ele>293</ele>
        <time>2018-10-23T09:39:33Z</time>
      </trkpt>
      <trkpt lat="45.98932" lon="4.89774">
        <ele>293</ele>
        <time>2018-10-23T09:39:34Z</time>
      </trkpt>
      <trkpt lat="45.98927" lon="4.89769">
        <ele>293</ele>
        <time>2018-10-23T09:39:35Z</time>
      </trkpt>
      <trkpt lat="45.98921" lon="4.89765">
        <ele>293</ele>
        <time>2018-10-23T09:39:36Z</time>
      </trkpt>
      <trkpt lat="45.98916" lon="4.89762">
        <ele>293</ele>
        <time>2018-10-23T09:39:37Z</time>
      </trkpt>
      <trkpt lat="45.98911" lon="4.8976">
        <ele>293</ele>
        <time>2018-10-23T09:39:38Z</time>
      </trkpt>
      <trkpt lat="45.98905" lon="4.89757">
        <ele>293</ele>
        <time>2018-10-23T09:39:39Z</time>
      </trkpt>
      <trkpt lat="45.989" lon="4.89753">
        <ele>293</ele>
        <time>2018-10-23T09:39:40Z</time>
      </trkpt>
      <trkpt lat="45.98894" lon="4.89748">
        <ele>293</ele>
        <time>2018-10-23T09:39:41Z</time>
      </trkpt>
      <trkpt lat="45.98888" lon="4.89745">
        <ele>293</ele>
        <time>2018-10-23T09:39:42Z</time>
      </trkpt>
      <trkpt lat="45.98883" lon="4.89742">
        <ele>293</ele>
        <time>2018-10-23T09:39:43Z</time>
      </trkpt>
      <trkpt lat="45.98878" lon="4.8974">
        <ele>293</ele>
        <time>2018-10-23T09:39:44Z</time>
      </trkpt>
      <trkpt lat="45.98873" lon="4.89736">
        <ele>293</ele>
        <time>2018-10-23T09:39:45Z</time>
      </trkpt>
      <trkpt lat="45.98868" lon="4.89732">
        <ele>293</ele>
        <time>2018-10-23T09:39:46Z</time>
      </trkpt>
      <trkpt lat="45.98864" lon="4.89727">
        <ele>293</ele>
        <time>2018-10-23T09:39:47Z</time>
      </trkpt>
      <trkpt lat="45.9886" lon="4.89723">
        <ele>293</ele>
        <time>2018-10-23T09:39:48Z</time>
      </trkpt>
      <trkpt lat="45.98855" lon="4.89718">
        <ele>293</ele>
        <time>2018-10-23T09:39:49Z</time>
      </trkpt>
      <trkpt lat="45.9885" lon="4.89713">
        <ele>293</ele>
        <time>2018-10-23T09:39:50Z</time>
      </trkpt>
      <trkpt lat="45.98846" lon="4.89709">
        <ele>293</ele>
        <time>2018-10-23T09:39:51Z</time>
      </trkpt>
      <trkpt lat="45.98841" lon="4.89705">
        <ele>292</ele>
        <time>2018-10-23T09:39:52Z</time>
      </trkpt>
      <trkpt lat="45.98836" lon="4.89698">
        <ele>292</ele>
        <time>2018-10-23T09:39:53Z</time>
      </trkpt>
      <trkpt lat="45.98832" lon="4.89693">
        <ele>292</ele>
        <time>2018-10-23T09:39:54Z</time>
      </trkpt>
      <trkpt lat="45.98827" lon="4.89688">
        <ele>292</ele>
        <time>2018-10-23T09:39:55Z</time>
      </trkpt>
      <trkpt lat="45.98821" lon="4.89683">
        <ele>292</ele>
        <time>2018-10-23T09:39:56Z</time>
      </trkpt>
      <trkpt lat="45.98815" lon="4.89678">
        <ele>292</ele>
        <time>2018-10-23T09:39:57Z</time>
      </trkpt>
      <trkpt lat="45.9881" lon="4.89673">
        <ele>292</ele>
        <time>2018-10-23T09:39:58Z</time>
      </trkpt>
      <trkpt lat="45.98805" lon="4.89667">
        <ele>292</ele>
        <time>2018-10-23T09:39:59Z</time>
      </trkpt>
      <trkpt lat="45.988" lon="4.89662">
        <ele>291</ele>
        <time>2018-10-23T09:40:00Z</time>
      </trkpt>
      <trkpt lat="45.98795" lon="4.89656">
        <ele>291</ele>
        <time>2018-10-23T09:40:01Z</time>
      </trkpt>
      <trkpt lat="45.9879" lon="4.89648">
        <ele>291</ele>
        <time>2018-10-23T09:40:02Z</time>
      </trkpt>
      <trkpt lat="45.98785" lon="4.89642">
        <ele>291</ele>
        <time>2018-10-23T09:40:03Z</time>
      </trkpt>
      <trkpt lat="45.9878" lon="4.89635">
        <ele>291</ele>
        <time>2018-10-23T09:40:04Z</time>
      </trkpt>
      <trkpt lat="45.98774" lon="4.89628">
        <ele>291</ele>
        <time>2018-10-23T09:40:05Z</time>
      </trkpt>
      <trkpt lat="45.98769" lon="4.8962">
        <ele>291</ele>
        <time>2018-10-23T09:40:06Z</time>
      </trkpt>
      <trkpt lat="45.98764" lon="4.89612">
        <ele>291</ele>
        <time>2018-10-23T09:40:07Z</time>
      </trkpt>
      <trkpt lat="45.98757" lon="4.89604">
        <ele>291</ele>
        <time>2018-10-23T09:40:08Z</time>
      </trkpt>
      <trkpt lat="45.98752" lon="4.89596">
        <ele>291</ele>
        <time>2018-10-23T09:40:09Z</time>
      </trkpt>
      <trkpt lat="45.98746" lon="4.89588">
        <ele>291</ele>
        <time>2018-10-23T09:40:10Z</time>
      </trkpt>
      <trkpt lat="45.98741" lon="4.89579">
        <ele>290</ele>
        <time>2018-10-23T09:40:11Z</time>
      </trkpt>
      <trkpt lat="45.98737" lon="4.89569">
        <ele>290</ele>
        <time>2018-10-23T09:40:12Z</time>
      </trkpt>
      <trkpt lat="45.98733" lon="4.8956">
        <ele>290</ele>
        <time>2018-10-23T09:40:13Z</time>
      </trkpt>
      <trkpt lat="45.98726" lon="4.89553">
        <ele>290</ele>
        <time>2018-10-23T09:40:14Z</time>
      </trkpt>
      <trkpt lat="45.9872" lon="4.89545">
        <ele>290</ele>
        <time>2018-10-23T09:40:15Z</time>
      </trkpt>
      <trkpt lat="45.98714" lon="4.89537">
        <ele>290</ele>
        <time>2018-10-23T09:40:16Z</time>
      </trkpt>
      <trkpt lat="45.98707" lon="4.89532">
        <ele>289</ele>
        <time>2018-10-23T09:40:17Z</time>
      </trkpt>
      <trkpt lat="45.98703" lon="4.89524">
        <ele>289</ele>
        <time>2018-10-23T09:40:18Z</time>
      </trkpt>
      <trkpt lat="45.98698" lon="4.89517">
        <ele>289</ele>
        <time>2018-10-23T09:40:19Z</time>
      </trkpt>
      <trkpt lat="45.98694" lon="4.89508">
        <ele>289</ele>
        <time>2018-10-23T09:40:20Z</time>
      </trkpt>
      <trkpt lat="45.98689" lon="4.89501">
        <ele>289</ele>
        <time>2018-10-23T09:40:21Z</time>
      </trkpt>
      <trkpt lat="45.98684" lon="4.89493">
        <ele>289</ele>
        <time>2018-10-23T09:40:22Z</time>
      </trkpt>
      <trkpt lat="45.98678" lon="4.89487">
        <ele>289</ele>
        <time>2018-10-23T09:40:23Z</time>
      </trkpt>
      <trkpt lat="45.98673" lon="4.89479">
        <ele>289</ele>
        <time>2018-10-23T09:40:24Z</time>
      </trkpt>
      <trkpt lat="45.98668" lon="4.89473">
        <ele>288</ele>
        <time>2018-10-23T09:40:25Z</time>
      </trkpt>
      <trkpt lat="45.98662" lon="4.89466">
        <ele>290</ele>
        <time>2018-10-23T09:40:26Z</time>
      </trkpt>
      <trkpt lat="45.98657" lon="4.89459">
        <ele>290</ele>
        <time>2018-10-23T09:40:27Z</time>
      </trkpt>
      <trkpt lat="45.98651" lon="4.89453">
        <ele>290</ele>
        <time>2018-10-23T09:40:28Z</time>
      </trkpt>
      <trkpt lat="45.98645" lon="4.89447">
        <ele>291</ele>
        <time>2018-10-23T09:40:29Z</time>
      </trkpt>
      <trkpt lat="45.9864" lon="4.89441">
        <ele>291</ele>
        <time>2018-10-23T09:40:30Z</time>
      </trkpt>
      <trkpt lat="45.98634" lon="4.89435">
        <ele>291</ele>
        <time>2018-10-23T09:40:31Z</time>
      </trkpt>
      <trkpt lat="45.98628" lon="4.8943">
        <ele>291</ele>
        <time>2018-10-23T09:40:32Z</time>
      </trkpt>
      <trkpt lat="45.98624" lon="4.89424">
        <ele>291</ele>
        <time>2018-10-23T09:40:33Z</time>
      </trkpt>
      <trkpt lat="45.98617" lon="4.89419">
        <ele>292</ele>
        <time>2018-10-23T09:40:34Z</time>
      </trkpt>
      <trkpt lat="45.98612" lon="4.89413">
        <ele>291</ele>
        <time>2018-10-23T09:40:35Z</time>
      </trkpt>
      <trkpt lat="45.98606" lon="4.89408">
        <ele>292</ele>
        <time>2018-10-23T09:40:36Z</time>
      </trkpt>
      <trkpt lat="45.986" lon="4.89402">
        <ele>292</ele>
        <time>2018-10-23T09:40:37Z</time>
      </trkpt>
      <trkpt lat="45.98595" lon="4.89396">
        <ele>292</ele>
        <time>2018-10-23T09:40:38Z</time>
      </trkpt>
      <trkpt lat="45.98589" lon="4.8939">
        <ele>292</ele>
        <time>2018-10-23T09:40:39Z</time>
      </trkpt>
      <trkpt lat="45.98583" lon="4.89384">
        <ele>295</ele>
        <time>2018-10-23T09:40:40Z</time>
      </trkpt>
      <trkpt lat="45.98577" lon="4.89377">
        <ele>295</ele>
        <time>2018-10-23T09:40:41Z</time>
      </trkpt>
      <trkpt lat="45.98571" lon="4.8937">
        <ele>295</ele>
        <time>2018-10-23T09:40:42Z</time>
      </trkpt>
      <trkpt lat="45.98565" lon="4.89363">
        <ele>295</ele>
        <time>2018-10-23T09:40:43Z</time>
      </trkpt>
      <trkpt lat="45.98559" lon="4.89362">
        <ele>295</ele>
        <time>2018-10-23T09:40:44Z</time>
      </trkpt>
      <trkpt lat="45.98553" lon="4.89354">
        <ele>295</ele>
        <time>2018-10-23T09:40:45Z</time>
      </trkpt>
      <trkpt lat="45.98547" lon="4.89347">
        <ele>295</ele>
        <time>2018-10-23T09:40:46Z</time>
      </trkpt>
      <trkpt lat="45.98542" lon="4.89341">
        <ele>295</ele>
        <time>2018-10-23T09:40:47Z</time>
      </trkpt>
      <trkpt lat="45.98537" lon="4.89334">
        <ele>295</ele>
        <time>2018-10-23T09:40:48Z</time>
      </trkpt>
      <trkpt lat="45.98533" lon="4.89327">
        <ele>293</ele>
        <time>2018-10-23T09:40:49Z</time>
      </trkpt>
      <trkpt lat="45.98528" lon="4.89321">
        <ele>293</ele>
        <time>2018-10-23T09:40:50Z</time>
      </trkpt>
      <trkpt lat="45.98523" lon="4.89315">
        <ele>293</ele>
        <time>2018-10-23T09:40:51Z</time>
      </trkpt>
      <trkpt lat="45.98519" lon="4.89308">
        <ele>293</ele>
        <time>2018-10-23T09:40:52Z</time>
      </trkpt>
      <trkpt lat="45.98514" lon="4.893">
        <ele>293</ele>
        <time>2018-10-23T09:40:53Z</time>
      </trkpt>
      <trkpt lat="45.98509" lon="4.89294">
        <ele>292</ele>
        <time>2018-10-23T09:40:54Z</time>
      </trkpt>
      <trkpt lat="45.98505" lon="4.89287">
        <ele>292</ele>
        <time>2018-10-23T09:40:55Z</time>
      </trkpt>
      <trkpt lat="45.98501" lon="4.89282">
        <ele>292</ele>
        <time>2018-10-23T09:40:56Z</time>
      </trkpt>
      <trkpt lat="45.98497" lon="4.89275">
        <ele>292</ele>
        <time>2018-10-23T09:40:57Z</time>
      </trkpt>
      <trkpt lat="45.98494" lon="4.89267">
        <ele>291</ele>
        <time>2018-10-23T09:40:58Z</time>
      </trkpt>
      <trkpt lat="45.98489" lon="4.89261">
        <ele>291</ele>
        <time>2018-10-23T09:40:59Z</time>
      </trkpt>
      <trkpt lat="45.98484" lon="4.89252">
        <ele>291</ele>
        <time>2018-10-23T09:41:00Z</time>
      </trkpt>
      <trkpt lat="45.98479" lon="4.89244">
        <ele>289</ele>
        <time>2018-10-23T09:41:01Z</time>
      </trkpt>
      <trkpt lat="45.98474" lon="4.89234">
        <ele>289</ele>
        <time>2018-10-23T09:41:02Z</time>
      </trkpt>
      <trkpt lat="45.9847" lon="4.89225">
        <ele>289</ele>
        <time>2018-10-23T09:41:03Z</time>
      </trkpt>
      <trkpt lat="45.98466" lon="4.89216">
        <ele>289</ele>
        <time>2018-10-23T09:41:04Z</time>
      </trkpt>
      <trkpt lat="45.98461" lon="4.89207">
        <ele>289</ele>
        <time>2018-10-23T09:41:05Z</time>
      </trkpt>
      <trkpt lat="45.98455" lon="4.89196">
        <ele>289</ele>
        <time>2018-10-23T09:41:06Z</time>
      </trkpt>
      <trkpt lat="45.98451" lon="4.89188">
        <ele>289</ele>
        <time>2018-10-23T09:41:07Z</time>
      </trkpt>
      <trkpt lat="45.98445" lon="4.89179">
        <ele>288</ele>
        <time>2018-10-23T09:41:08Z</time>
      </trkpt>
      <trkpt lat="45.9844" lon="4.8917">
        <ele>288</ele>
        <time>2018-10-23T09:41:09Z</time>
      </trkpt>
      <trkpt lat="45.98435" lon="4.89161">
        <ele>288</ele>
        <time>2018-10-23T09:41:10Z</time>
      </trkpt>
      <trkpt lat="45.9843" lon="4.89151">
        <ele>288</ele>
        <time>2018-10-23T09:41:11Z</time>
      </trkpt>
      <trkpt lat="45.98425" lon="4.89143">
        <ele>288</ele>
        <time>2018-10-23T09:41:12Z</time>
      </trkpt>
      <trkpt lat="45.98419" lon="4.89134">
        <ele>288</ele>
        <time>2018-10-23T09:41:13Z</time>
      </trkpt>
      <trkpt lat="45.98415" lon="4.89125">
        <ele>285</ele>
        <time>2018-10-23T09:41:14Z</time>
      </trkpt>
      <trkpt lat="45.98411" lon="4.89117">
        <ele>286</ele>
        <time>2018-10-23T09:41:15Z</time>
      </trkpt>
      <trkpt lat="45.98407" lon="4.89108">
        <ele>286</ele>
        <time>2018-10-23T09:41:16Z</time>
      </trkpt>
      <trkpt lat="45.98402" lon="4.891">
        <ele>286</ele>
        <time>2018-10-23T09:41:17Z</time>
      </trkpt>
      <trkpt lat="45.98395" lon="4.89093">
        <ele>286</ele>
        <time>2018-10-23T09:41:18Z</time>
      </trkpt>
      <trkpt lat="45.98392" lon="4.8908">
        <ele>285</ele>
        <time>2018-10-23T09:41:19Z</time>
      </trkpt>
      <trkpt lat="45.98387" lon="4.89073">
        <ele>285</ele>
        <time>2018-10-23T09:41:20Z</time>
      </trkpt>
      <trkpt lat="45.98383" lon="4.89063">
        <ele>285</ele>
        <time>2018-10-23T09:41:21Z</time>
      </trkpt>
      <trkpt lat="45.98381" lon="4.89052">
        <ele>284</ele>
        <time>2018-10-23T09:41:22Z</time>
      </trkpt>
      <trkpt lat="45.98377" lon="4.89041">
        <ele>284</ele>
        <time>2018-10-23T09:41:23Z</time>
      </trkpt>
      <trkpt lat="45.98375" lon="4.89028">
        <ele>284</ele>
        <time>2018-10-23T09:41:24Z</time>
      </trkpt>
      <trkpt lat="45.98371" lon="4.89018">
        <ele>284</ele>
        <time>2018-10-23T09:41:25Z</time>
      </trkpt>
      <trkpt lat="45.98369" lon="4.89006">
        <ele>283</ele>
        <time>2018-10-23T09:41:26Z</time>
      </trkpt>
      <trkpt lat="45.98367" lon="4.88995">
        <ele>283</ele>
        <time>2018-10-23T09:41:27Z</time>
      </trkpt>
      <trkpt lat="45.98364" lon="4.88983">
        <ele>282</ele>
        <time>2018-10-23T09:41:28Z</time>
      </trkpt>
      <trkpt lat="45.98362" lon="4.88972">
        <ele>282</ele>
        <time>2018-10-23T09:41:29Z</time>
      </trkpt>
      <trkpt lat="45.98359" lon="4.88961">
        <ele>282</ele>
        <time>2018-10-23T09:41:30Z</time>
      </trkpt>
      <trkpt lat="45.98356" lon="4.88949">
        <ele>282</ele>
        <time>2018-10-23T09:41:31Z</time>
      </trkpt>
      <trkpt lat="45.98353" lon="4.88938">
        <ele>282</ele>
        <time>2018-10-23T09:41:32Z</time>
      </trkpt>
      <trkpt lat="45.9835" lon="4.88928">
        <ele>281</ele>
        <time>2018-10-23T09:41:33Z</time>
      </trkpt>
      <trkpt lat="45.98347" lon="4.88918">
        <ele>281</ele>
        <time>2018-10-23T09:41:34Z</time>
      </trkpt>
      <trkpt lat="45.98345" lon="4.88906">
        <ele>280</ele>
        <time>2018-10-23T09:41:35Z</time>
      </trkpt>
      <trkpt lat="45.98343" lon="4.88895">
        <ele>280</ele>
        <time>2018-10-23T09:41:36Z</time>
      </trkpt>
      <trkpt lat="45.98341" lon="4.88885">
        <ele>280</ele>
        <time>2018-10-23T09:41:37Z</time>
      </trkpt>
      <trkpt lat="45.98339" lon="4.88874">
        <ele>280</ele>
        <time>2018-10-23T09:41:38Z</time>
      </trkpt>
      <trkpt lat="45.98336" lon="4.88865">
        <ele>280</ele>
        <time>2018-10-23T09:41:39Z</time>
      </trkpt>
      <trkpt lat="45.98334" lon="4.88856">
        <ele>279</ele>
        <time>2018-10-23T09:41:40Z</time>
      </trkpt>
      <trkpt lat="45.98333" lon="4.88847">
        <ele>278</ele>
        <time>2018-10-23T09:41:41Z</time>
      </trkpt>
      <trkpt lat="45.98331" lon="4.88837">
        <ele>278</ele>
        <time>2018-10-23T09:41:42Z</time>
      </trkpt>
      <trkpt lat="45.98329" lon="4.88827">
        <ele>278</ele>
        <time>2018-10-23T09:41:43Z</time>
      </trkpt>
      <trkpt lat="45.98326" lon="4.88817">
        <ele>277</ele>
        <time>2018-10-23T09:41:44Z</time>
      </trkpt>
      <trkpt lat="45.98323" lon="4.88807">
        <ele>277</ele>
        <time>2018-10-23T09:41:45Z</time>
      </trkpt>
      <trkpt lat="45.9832" lon="4.88797">
        <ele>277</ele>
        <time>2018-10-23T09:41:46Z</time>
      </trkpt>
      <trkpt lat="45.98318" lon="4.88787">
        <ele>277</ele>
        <time>2018-10-23T09:41:47Z</time>
      </trkpt>
      <trkpt lat="45.98315" lon="4.88777">
        <ele>277</ele>
        <time>2018-10-23T09:41:48Z</time>
      </trkpt>
      <trkpt lat="45.98313" lon="4.88766">
        <ele>276</ele>
        <time>2018-10-23T09:41:49Z</time>
      </trkpt>
      <trkpt lat="45.98311" lon="4.88757">
        <ele>276</ele>
        <time>2018-10-23T09:41:50Z</time>
      </trkpt>
      <trkpt lat="45.98307" lon="4.88746">
        <ele>276</ele>
        <time>2018-10-23T09:41:51Z</time>
      </trkpt>
      <trkpt lat="45.98305" lon="4.88734">
        <ele>276</ele>
        <time>2018-10-23T09:41:52Z</time>
      </trkpt>
      <trkpt lat="45.983" lon="4.88725">
        <ele>276</ele>
        <time>2018-10-23T09:41:53Z</time>
      </trkpt>
      <trkpt lat="45.98301" lon="4.88716">
        <ele>276</ele>
        <time>2018-10-23T09:41:54Z</time>
      </trkpt>
      <trkpt lat="45.98297" lon="4.88705">
        <ele>276</ele>
        <time>2018-10-23T09:41:55Z</time>
      </trkpt>
      <trkpt lat="45.98295" lon="4.88694">
        <ele>276</ele>
        <time>2018-10-23T09:41:56Z</time>
      </trkpt>
      <trkpt lat="45.98293" lon="4.88683">
        <ele>276</ele>
        <time>2018-10-23T09:41:57Z</time>
      </trkpt>
      <trkpt lat="45.98289" lon="4.88674">
        <ele>276</ele>
        <time>2018-10-23T09:41:58Z</time>
      </trkpt>
      <trkpt lat="45.98287" lon="4.88663">
        <ele>276</ele>
        <time>2018-10-23T09:41:59Z</time>
      </trkpt>
      <trkpt lat="45.98284" lon="4.88653">
        <ele>276</ele>
        <time>2018-10-23T09:42:00Z</time>
      </trkpt>
      <trkpt lat="45.98282" lon="4.88642">
        <ele>276</ele>
        <time>2018-10-23T09:42:01Z</time>
      </trkpt>
      <trkpt lat="45.9828" lon="4.88633">
        <ele>276</ele>
        <time>2018-10-23T09:42:02Z</time>
      </trkpt>
      <trkpt lat="45.98278" lon="4.88623">
        <ele>276</ele>
        <time>2018-10-23T09:42:03Z</time>
      </trkpt>
      <trkpt lat="45.98277" lon="4.88612">
        <ele>276</ele>
        <time>2018-10-23T09:42:04Z</time>
      </trkpt>
      <trkpt lat="45.98274" lon="4.88603">
        <ele>276</ele>
        <time>2018-10-23T09:42:05Z</time>
      </trkpt>
      <trkpt lat="45.98274" lon="4.88593">
        <ele>276</ele>
        <time>2018-10-23T09:42:06Z</time>
      </trkpt>
      <trkpt lat="45.98272" lon="4.88584">
        <ele>276</ele>
        <time>2018-10-23T09:42:07Z</time>
      </trkpt>
      <trkpt lat="45.98268" lon="4.88576">
        <ele>276</ele>
        <time>2018-10-23T09:42:08Z</time>
      </trkpt>
      <trkpt lat="45.98267" lon="4.88569">
        <ele>276</ele>
        <time>2018-10-23T09:42:09Z</time>
      </trkpt>
      <trkpt lat="45.98266" lon="4.88561">
        <ele>276</ele>
        <time>2018-10-23T09:42:10Z</time>
      </trkpt>
      <trkpt lat="45.98261" lon="4.88552">
        <ele>276</ele>
        <time>2018-10-23T09:42:11Z</time>
      </trkpt>
      <trkpt lat="45.98257" lon="4.88545">
        <ele>276</ele>
        <time>2018-10-23T09:42:12Z</time>
      </trkpt>
      <trkpt lat="45.98255" lon="4.88537">
        <ele>276</ele>
        <time>2018-10-23T09:42:13Z</time>
      </trkpt>
      <trkpt lat="45.98254" lon="4.88529">
        <ele>277</ele>
        <time>2018-10-23T09:42:14Z</time>
      </trkpt>
      <trkpt lat="45.98252" lon="4.88522">
        <ele>277</ele>
        <time>2018-10-23T09:42:15Z</time>
      </trkpt>
      <trkpt lat="45.98249" lon="4.88513">
        <ele>276</ele>
        <time>2018-10-23T09:42:16Z</time>
      </trkpt>
      <trkpt lat="45.98248" lon="4.88505">
        <ele>277</ele>
        <time>2018-10-23T09:42:17Z</time>
      </trkpt>
      <trkpt lat="45.98249" lon="4.88496">
        <ele>277</ele>
        <time>2018-10-23T09:42:18Z</time>
      </trkpt>
      <trkpt lat="45.98248" lon="4.88489">
        <ele>276</ele>
        <time>2018-10-23T09:42:19Z</time>
      </trkpt>
      <trkpt lat="45.98246" lon="4.88482">
        <ele>276</ele>
        <time>2018-10-23T09:42:20Z</time>
      </trkpt>
      <trkpt lat="45.98244" lon="4.88473">
        <ele>276</ele>
        <time>2018-10-23T09:42:21Z</time>
      </trkpt>
      <trkpt lat="45.98242" lon="4.88466">
        <ele>276</ele>
        <time>2018-10-23T09:42:22Z</time>
      </trkpt>
      <trkpt lat="45.9824" lon="4.88457">
        <ele>276</ele>
        <time>2018-10-23T09:42:23Z</time>
      </trkpt>
      <trkpt lat="45.98238" lon="4.88449">
        <ele>276</ele>
        <time>2018-10-23T09:42:24Z</time>
      </trkpt>
      <trkpt lat="45.98236" lon="4.8844">
        <ele>276</ele>
        <time>2018-10-23T09:42:25Z</time>
      </trkpt>
      <trkpt lat="45.98233" lon="4.8843">
        <ele>276</ele>
        <time>2018-10-23T09:42:26Z</time>
      </trkpt>
      <trkpt lat="45.98231" lon="4.8842">
        <ele>276</ele>
        <time>2018-10-23T09:42:27Z</time>
      </trkpt>
      <trkpt lat="45.98228" lon="4.8841">
        <ele>276</ele>
        <time>2018-10-23T09:42:28Z</time>
      </trkpt>
      <trkpt lat="45.98227" lon="4.884">
        <ele>275</ele>
        <time>2018-10-23T09:42:29Z</time>
      </trkpt>
      <trkpt lat="45.9822" lon="4.8839">
        <ele>275</ele>
        <time>2018-10-23T09:42:30Z</time>
      </trkpt>
      <trkpt lat="45.98217" lon="4.8838">
        <ele>275</ele>
        <time>2018-10-23T09:42:31Z</time>
      </trkpt>
      <trkpt lat="45.98216" lon="4.88369">
        <ele>275</ele>
        <time>2018-10-23T09:42:32Z</time>
      </trkpt>
      <trkpt lat="45.98214" lon="4.88359">
        <ele>275</ele>
        <time>2018-10-23T09:42:33Z</time>
      </trkpt>
      <trkpt lat="45.98214" lon="4.88348">
        <ele>275</ele>
        <time>2018-10-23T09:42:34Z</time>
      </trkpt>
      <trkpt lat="45.98213" lon="4.88338">
        <ele>275</ele>
        <time>2018-10-23T09:42:35Z</time>
      </trkpt>
      <trkpt lat="45.98213" lon="4.88328">
        <ele>274</ele>
        <time>2018-10-23T09:42:36Z</time>
      </trkpt>
      <trkpt lat="45.98211" lon="4.88318">
        <ele>274</ele>
        <time>2018-10-23T09:42:37Z</time>
      </trkpt>
      <trkpt lat="45.98211" lon="4.88308">
        <ele>274</ele>
        <time>2018-10-23T09:42:38Z</time>
      </trkpt>
      <trkpt lat="45.9821" lon="4.88298">
        <ele>274</ele>
        <time>2018-10-23T09:42:39Z</time>
      </trkpt>
      <trkpt lat="45.9821" lon="4.88289">
        <ele>274</ele>
        <time>2018-10-23T09:42:40Z</time>
      </trkpt>
      <trkpt lat="45.98208" lon="4.88279">
        <ele>274</ele>
        <time>2018-10-23T09:42:41Z</time>
      </trkpt>
      <trkpt lat="45.98205" lon="4.88269">
        <ele>274</ele>
        <time>2018-10-23T09:42:42Z</time>
      </trkpt>
      <trkpt lat="45.98203" lon="4.8826">
        <ele>274</ele>
        <time>2018-10-23T09:42:43Z</time>
      </trkpt>
      <trkpt lat="45.98201" lon="4.8825">
        <ele>273</ele>
        <time>2018-10-23T09:42:44Z</time>
      </trkpt>
      <trkpt lat="45.98198" lon="4.8824">
        <ele>273</ele>
        <time>2018-10-23T09:42:45Z</time>
      </trkpt>
      <trkpt lat="45.98198" lon="4.8823">
        <ele>273</ele>
        <time>2018-10-23T09:42:46Z</time>
      </trkpt>
      <trkpt lat="45.98196" lon="4.88221">
        <ele>273</ele>
        <time>2018-10-23T09:42:47Z</time>
      </trkpt>
      <trkpt lat="45.98193" lon="4.88212">
        <ele>273</ele>
        <time>2018-10-23T09:42:48Z</time>
      </trkpt>
      <trkpt lat="45.98191" lon="4.88204">
        <ele>273</ele>
        <time>2018-10-23T09:42:49Z</time>
      </trkpt>
      <trkpt lat="45.98188" lon="4.88196">
        <ele>273</ele>
        <time>2018-10-23T09:42:50Z</time>
      </trkpt>
      <trkpt lat="45.98186" lon="4.88188">
        <ele>273</ele>
        <time>2018-10-23T09:42:51Z</time>
      </trkpt>
      <trkpt lat="45.98186" lon="4.8818">
        <ele>273</ele>
        <time>2018-10-23T09:42:52Z</time>
      </trkpt>
      <trkpt lat="45.98183" lon="4.88172">
        <ele>273</ele>
        <time>2018-10-23T09:42:53Z</time>
      </trkpt>
      <trkpt lat="45.98181" lon="4.88164">
        <ele>273</ele>
        <time>2018-10-23T09:42:54Z</time>
      </trkpt>
      <trkpt lat="45.98179" lon="4.88157">
        <ele>273</ele>
        <time>2018-10-23T09:42:55Z</time>
      </trkpt>
      <trkpt lat="45.98177" lon="4.88149">
        <ele>273</ele>
        <time>2018-10-23T09:42:56Z</time>
      </trkpt>
      <trkpt lat="45.98172" lon="4.88141">
        <ele>273</ele>
        <time>2018-10-23T09:42:57Z</time>
      </trkpt>
      <trkpt lat="45.98169" lon="4.88133">
        <ele>273</ele>
        <time>2018-10-23T09:42:58Z</time>
      </trkpt>
      <trkpt lat="45.98167" lon="4.88125">
        <ele>273</ele>
        <time>2018-10-23T09:42:59Z</time>
      </trkpt>
      <trkpt lat="45.98164" lon="4.88117">
        <ele>274</ele>
        <time>2018-10-23T09:43:00Z</time>
      </trkpt>
      <trkpt lat="45.98162" lon="4.88109">
        <ele>274</ele>
        <time>2018-10-23T09:43:01Z</time>
      </trkpt>
      <trkpt lat="45.9816" lon="4.88101">
        <ele>274</ele>
        <time>2018-10-23T09:43:02Z</time>
      </trkpt>
      <trkpt lat="45.98158" lon="4.88093">
        <ele>274</ele>
        <time>2018-10-23T09:43:03Z</time>
      </trkpt>
      <trkpt lat="45.98155" lon="4.88086">
        <ele>274</ele>
        <time>2018-10-23T09:43:04Z</time>
      </trkpt>
      <trkpt lat="45.98154" lon="4.88078">
        <ele>274</ele>
        <time>2018-10-23T09:43:05Z</time>
      </trkpt>
      <trkpt lat="45.98151" lon="4.88072">
        <ele>275</ele>
        <time>2018-10-23T09:43:06Z</time>
      </trkpt>
      <trkpt lat="45.98148" lon="4.88064">
        <ele>275</ele>
        <time>2018-10-23T09:43:07Z</time>
      </trkpt>
      <trkpt lat="45.98145" lon="4.88057">
        <ele>275</ele>
        <time>2018-10-23T09:43:08Z</time>
      </trkpt>
      <trkpt lat="45.98143" lon="4.8805">
        <ele>275</ele>
        <time>2018-10-23T09:43:09Z</time>
      </trkpt>
      <trkpt lat="45.9814" lon="4.88043">
        <ele>275</ele>
        <time>2018-10-23T09:43:10Z</time>
      </trkpt>
      <trkpt lat="45.98138" lon="4.88036">
        <ele>276</ele>
        <time>2018-10-23T09:43:11Z</time>
      </trkpt>
      <trkpt lat="45.98137" lon="4.88028">
        <ele>276</ele>
        <time>2018-10-23T09:43:12Z</time>
      </trkpt>
      <trkpt lat="45.98134" lon="4.88022">
        <ele>276</ele>
        <time>2018-10-23T09:43:13Z</time>
      </trkpt>
      <trkpt lat="45.98131" lon="4.88014">
        <ele>276</ele>
        <time>2018-10-23T09:43:14Z</time>
      </trkpt>
      <trkpt lat="45.98129" lon="4.88008">
        <ele>276</ele>
        <time>2018-10-23T09:43:15Z</time>
      </trkpt>
      <trkpt lat="45.98127" lon="4.88001">
        <ele>276</ele>
        <time>2018-10-23T09:43:16Z</time>
      </trkpt>
      <trkpt lat="45.98125" lon="4.87994">
        <ele>277</ele>
        <time>2018-10-23T09:43:17Z</time>
      </trkpt>
      <trkpt lat="45.98122" lon="4.87985">
        <ele>277</ele>
        <time>2018-10-23T09:43:18Z</time>
      </trkpt>
      <trkpt lat="45.9812" lon="4.87977">
        <ele>277</ele>
        <time>2018-10-23T09:43:19Z</time>
      </trkpt>
      <trkpt lat="45.98118" lon="4.87969">
        <ele>277</ele>
        <time>2018-10-23T09:43:20Z</time>
      </trkpt>
      <trkpt lat="45.98117" lon="4.87963">
        <ele>277</ele>
        <time>2018-10-23T09:43:21Z</time>
      </trkpt>
      <trkpt lat="45.98114" lon="4.87955">
        <ele>277</ele>
        <time>2018-10-23T09:43:22Z</time>
      </trkpt>
      <trkpt lat="45.98114" lon="4.87949">
        <ele>277</ele>
        <time>2018-10-23T09:43:23Z</time>
      </trkpt>
      <trkpt lat="45.98114" lon="4.87942">
        <ele>277</ele>
        <time>2018-10-23T09:43:24Z</time>
      </trkpt>
      <trkpt lat="45.98112" lon="4.87934">
        <ele>277</ele>
        <time>2018-10-23T09:43:25Z</time>
      </trkpt>
      <trkpt lat="45.98107" lon="4.87928">
        <ele>277</ele>
        <time>2018-10-23T09:43:26Z</time>
      </trkpt>
      <trkpt lat="45.98103" lon="4.87917">
        <ele>277</ele>
        <time>2018-10-23T09:43:28Z</time>
      </trkpt>
      <trkpt lat="45.98101" lon="4.8791">
        <ele>278</ele>
        <time>2018-10-23T09:43:29Z</time>
      </trkpt>
      <trkpt lat="45.98099" lon="4.87904">
        <ele>278</ele>
        <time>2018-10-23T09:43:30Z</time>
      </trkpt>
      <trkpt lat="45.98097" lon="4.87897">
        <ele>278</ele>
        <time>2018-10-23T09:43:31Z</time>
      </trkpt>
      <trkpt lat="45.98093" lon="4.87887">
        <ele>278</ele>
        <time>2018-10-23T09:43:33Z</time>
      </trkpt>
      <trkpt lat="45.98092" lon="4.87883">
        <ele>278</ele>
        <time>2018-10-23T09:43:34Z</time>
      </trkpt>
      <trkpt lat="45.98091" lon="4.87874">
        <ele>278</ele>
        <time>2018-10-23T09:43:36Z</time>
      </trkpt>
      <trkpt lat="45.98088" lon="4.87866">
        <ele>278</ele>
        <time>2018-10-23T09:43:37Z</time>
      </trkpt>
      <trkpt lat="45.98085" lon="4.87857">
        <ele>278</ele>
        <time>2018-10-23T09:43:39Z</time>
      </trkpt>
      <trkpt lat="45.98081" lon="4.87851">
        <ele>280</ele>
        <time>2018-10-23T09:43:40Z</time>
      </trkpt>
      <trkpt lat="45.98079" lon="4.87841">
        <ele>279</ele>
        <time>2018-10-23T09:43:42Z</time>
      </trkpt>
      <trkpt lat="45.98082" lon="4.87836">
        <ele>279</ele>
        <time>2018-10-23T09:43:43Z</time>
      </trkpt>
      <trkpt lat="45.98079" lon="4.87832">
        <ele>279</ele>
        <time>2018-10-23T09:43:44Z</time>
      </trkpt>
      <trkpt lat="45.98076" lon="4.87825">
        <ele>279</ele>
        <time>2018-10-23T09:43:45Z</time>
      </trkpt>
      <trkpt lat="45.98074" lon="4.8782">
        <ele>279</ele>
        <time>2018-10-23T09:43:46Z</time>
      </trkpt>
      <trkpt lat="45.98073" lon="4.87813">
        <ele>280</ele>
        <time>2018-10-23T09:43:47Z</time>
      </trkpt>
      <trkpt lat="45.9807" lon="4.87806">
        <ele>280</ele>
        <time>2018-10-23T09:43:48Z</time>
      </trkpt>
      <trkpt lat="45.98068" lon="4.878">
        <ele>280</ele>
        <time>2018-10-23T09:43:49Z</time>
      </trkpt>
      <trkpt lat="45.98065" lon="4.87794">
        <ele>280</ele>
        <time>2018-10-23T09:43:50Z</time>
      </trkpt>
      <trkpt lat="45.98063" lon="4.87787">
        <ele>280</ele>
        <time>2018-10-23T09:43:51Z</time>
      </trkpt>
      <trkpt lat="45.98061" lon="4.87781">
        <ele>280</ele>
        <time>2018-10-23T09:43:52Z</time>
      </trkpt>
      <trkpt lat="45.98059" lon="4.87774">
        <ele>280</ele>
        <time>2018-10-23T09:43:53Z</time>
      </trkpt>
      <trkpt lat="45.98056" lon="4.87767">
        <ele>280</ele>
        <time>2018-10-23T09:43:54Z</time>
      </trkpt>
      <trkpt lat="45.98053" lon="4.8776">
        <ele>280</ele>
        <time>2018-10-23T09:43:55Z</time>
      </trkpt>
      <trkpt lat="45.98051" lon="4.87753">
        <ele>280</ele>
        <time>2018-10-23T09:43:56Z</time>
      </trkpt>
      <trkpt lat="45.98051" lon="4.87745">
        <ele>280</ele>
        <time>2018-10-23T09:43:57Z</time>
      </trkpt>
      <trkpt lat="45.98049" lon="4.87739">
        <ele>280</ele>
        <time>2018-10-23T09:43:58Z</time>
      </trkpt>
      <trkpt lat="45.98047" lon="4.87731">
        <ele>280</ele>
        <time>2018-10-23T09:43:59Z</time>
      </trkpt>
      <trkpt lat="45.98045" lon="4.87724">
        <ele>280</ele>
        <time>2018-10-23T09:44:00Z</time>
      </trkpt>
      <trkpt lat="45.98043" lon="4.87717">
        <ele>280</ele>
        <time>2018-10-23T09:44:01Z</time>
      </trkpt>
      <trkpt lat="45.98041" lon="4.8771">
        <ele>279</ele>
        <time>2018-10-23T09:44:02Z</time>
      </trkpt>
      <trkpt lat="45.98039" lon="4.87703">
        <ele>280</ele>
        <time>2018-10-23T09:44:03Z</time>
      </trkpt>
      <trkpt lat="45.98037" lon="4.87697">
        <ele>280</ele>
        <time>2018-10-23T09:44:04Z</time>
      </trkpt>
      <trkpt lat="45.98035" lon="4.8769">
        <ele>280</ele>
        <time>2018-10-23T09:44:05Z</time>
      </trkpt>
      <trkpt lat="45.98033" lon="4.87683">
        <ele>280</ele>
        <time>2018-10-23T09:44:06Z</time>
      </trkpt>
      <trkpt lat="45.98031" lon="4.87677">
        <ele>280</ele>
        <time>2018-10-23T09:44:07Z</time>
      </trkpt>
      <trkpt lat="45.98029" lon="4.8767">
        <ele>280</ele>
        <time>2018-10-23T09:44:08Z</time>
      </trkpt>
      <trkpt lat="45.98027" lon="4.87662">
        <ele>280</ele>
        <time>2018-10-23T09:44:09Z</time>
      </trkpt>
      <trkpt lat="45.98025" lon="4.87655">
        <ele>280</ele>
        <time>2018-10-23T09:44:10Z</time>
      </trkpt>
      <trkpt lat="45.98022" lon="4.87648">
        <ele>280</ele>
        <time>2018-10-23T09:44:11Z</time>
      </trkpt>
      <trkpt lat="45.98021" lon="4.8764">
        <ele>280</ele>
        <time>2018-10-23T09:44:12Z</time>
      </trkpt>
      <trkpt lat="45.98019" lon="4.87632">
        <ele>280</ele>
        <time>2018-10-23T09:44:13Z</time>
      </trkpt>
      <trkpt lat="45.98017" lon="4.87625">
        <ele>280</ele>
        <time>2018-10-23T09:44:14Z</time>
      </trkpt>
      <trkpt lat="45.98015" lon="4.87617">
        <ele>280</ele>
        <time>2018-10-23T09:44:15Z</time>
      </trkpt>
      <trkpt lat="45.98012" lon="4.8761">
        <ele>280</ele>
        <time>2018-10-23T09:44:16Z</time>
      </trkpt>
      <trkpt lat="45.9801" lon="4.87602">
        <ele>280</ele>
        <time>2018-10-23T09:44:17Z</time>
      </trkpt>
      <trkpt lat="45.98007" lon="4.87595">
        <ele>280</ele>
        <time>2018-10-23T09:44:18Z</time>
      </trkpt>
      <trkpt lat="45.98004" lon="4.87589">
        <ele>280</ele>
        <time>2018-10-23T09:44:19Z</time>
      </trkpt>
      <trkpt lat="45.98001" lon="4.87582">
        <ele>280</ele>
        <time>2018-10-23T09:44:20Z</time>
      </trkpt>
      <trkpt lat="45.97996" lon="4.87576">
        <ele>280</ele>
        <time>2018-10-23T09:44:21Z</time>
      </trkpt>
      <trkpt lat="45.97993" lon="4.8757">
        <ele>280</ele>
        <time>2018-10-23T09:44:22Z</time>
      </trkpt>
      <trkpt lat="45.97989" lon="4.87564">
        <ele>279</ele>
        <time>2018-10-23T09:44:23Z</time>
      </trkpt>
      <trkpt lat="45.97985" lon="4.87557">
        <ele>279</ele>
        <time>2018-10-23T09:44:24Z</time>
      </trkpt>
      <trkpt lat="45.97979" lon="4.87553">
        <ele>279</ele>
        <time>2018-10-23T09:44:25Z</time>
      </trkpt>
      <trkpt lat="45.97975" lon="4.87548">
        <ele>279</ele>
        <time>2018-10-23T09:44:26Z</time>
      </trkpt>
      <trkpt lat="45.9797" lon="4.87544">
        <ele>279</ele>
        <time>2018-10-23T09:44:27Z</time>
      </trkpt>
      <trkpt lat="45.97964" lon="4.87543">
        <ele>279</ele>
        <time>2018-10-23T09:44:28Z</time>
      </trkpt>
      <trkpt lat="45.97958" lon="4.87544">
        <ele>279</ele>
        <time>2018-10-23T09:44:29Z</time>
      </trkpt>
      <trkpt lat="45.97951" lon="4.87544">
        <ele>279</ele>
        <time>2018-10-23T09:44:30Z</time>
      </trkpt>
      <trkpt lat="45.97945" lon="4.87543">
        <ele>279</ele>
        <time>2018-10-23T09:44:31Z</time>
      </trkpt>
      <trkpt lat="45.9794" lon="4.87541">
        <ele>279</ele>
        <time>2018-10-23T09:44:32Z</time>
      </trkpt>
      <trkpt lat="45.97935" lon="4.87538">
        <ele>279</ele>
        <time>2018-10-23T09:44:33Z</time>
      </trkpt>
      <trkpt lat="45.9793" lon="4.87536">
        <ele>279</ele>
        <time>2018-10-23T09:44:34Z</time>
      </trkpt>
      <trkpt lat="45.97926" lon="4.87534">
        <ele>279</ele>
        <time>2018-10-23T09:44:35Z</time>
      </trkpt>
      <trkpt lat="45.97921" lon="4.87531">
        <ele>279</ele>
        <time>2018-10-23T09:44:36Z</time>
      </trkpt>
      <trkpt lat="45.97916" lon="4.87528">
        <ele>280</ele>
        <time>2018-10-23T09:44:37Z</time>
      </trkpt>
      <trkpt lat="45.97911" lon="4.87527">
        <ele>280</ele>
        <time>2018-10-23T09:44:38Z</time>
      </trkpt>
      <trkpt lat="45.97906" lon="4.87524">
        <ele>280</ele>
        <time>2018-10-23T09:44:39Z</time>
      </trkpt>
      <trkpt lat="45.97901" lon="4.87521">
        <ele>280</ele>
        <time>2018-10-23T09:44:40Z</time>
      </trkpt>
      <trkpt lat="45.97896" lon="4.87517">
        <ele>280</ele>
        <time>2018-10-23T09:44:41Z</time>
      </trkpt>
      <trkpt lat="45.9789" lon="4.87516">
        <ele>281</ele>
        <time>2018-10-23T09:44:42Z</time>
      </trkpt>
      <trkpt lat="45.97884" lon="4.87513">
        <ele>281</ele>
        <time>2018-10-23T09:44:43Z</time>
      </trkpt>
      <trkpt lat="45.97879" lon="4.87509">
        <ele>281</ele>
        <time>2018-10-23T09:44:44Z</time>
      </trkpt>
      <trkpt lat="45.97874" lon="4.87505">
        <ele>281</ele>
        <time>2018-10-23T09:44:45Z</time>
      </trkpt>
      <trkpt lat="45.9787" lon="4.875">
        <ele>281</ele>
        <time>2018-10-23T09:44:46Z</time>
      </trkpt>
      <trkpt lat="45.97866" lon="4.87498">
        <ele>280</ele>
        <time>2018-10-23T09:44:47Z</time>
      </trkpt>
      <trkpt lat="45.97861" lon="4.87493">
        <ele>281</ele>
        <time>2018-10-23T09:44:48Z</time>
      </trkpt>
      <trkpt lat="45.97858" lon="4.87488">
        <ele>281</ele>
        <time>2018-10-23T09:44:49Z</time>
      </trkpt>
      <trkpt lat="45.97854" lon="4.87484">
        <ele>281</ele>
        <time>2018-10-23T09:44:50Z</time>
      </trkpt>
      <trkpt lat="45.97849" lon="4.87479">
        <ele>281</ele>
        <time>2018-10-23T09:44:51Z</time>
      </trkpt>
      <trkpt lat="45.97845" lon="4.87474">
        <ele>281</ele>
        <time>2018-10-23T09:44:52Z</time>
      </trkpt>
      <trkpt lat="45.97842" lon="4.8747">
        <ele>281</ele>
        <time>2018-10-23T09:44:53Z</time>
      </trkpt>
      <trkpt lat="45.97835" lon="4.87463">
        <ele>281</ele>
        <time>2018-10-23T09:44:55Z</time>
      </trkpt>
      <trkpt lat="45.97831" lon="4.87458">
        <ele>282</ele>
        <time>2018-10-23T09:44:56Z</time>
      </trkpt>
      <trkpt lat="45.97827" lon="4.87454">
        <ele>282</ele>
        <time>2018-10-23T09:44:57Z</time>
      </trkpt>
      <trkpt lat="45.97823" lon="4.8745">
        <ele>282</ele>
        <time>2018-10-23T09:44:58Z</time>
      </trkpt>
      <trkpt lat="45.97819" lon="4.87444">
        <ele>282</ele>
        <time>2018-10-23T09:44:59Z</time>
      </trkpt>
      <trkpt lat="45.97815" lon="4.8744">
        <ele>282</ele>
        <time>2018-10-23T09:45:00Z</time>
      </trkpt>
      <trkpt lat="45.97811" lon="4.87435">
        <ele>282</ele>
        <time>2018-10-23T09:45:01Z</time>
      </trkpt>
      <trkpt lat="45.97807" lon="4.8743">
        <ele>283</ele>
        <time>2018-10-23T09:45:02Z</time>
      </trkpt>
      <trkpt lat="45.97803" lon="4.87426">
        <ele>283</ele>
        <time>2018-10-23T09:45:03Z</time>
      </trkpt>
      <trkpt lat="45.97799" lon="4.87421">
        <ele>283</ele>
        <time>2018-10-23T09:45:04Z</time>
      </trkpt>
      <trkpt lat="45.97793" lon="4.87413">
        <ele>284</ele>
        <time>2018-10-23T09:45:06Z</time>
      </trkpt>
      <trkpt lat="45.97789" lon="4.8741">
        <ele>284</ele>
        <time>2018-10-23T09:45:07Z</time>
      </trkpt>
      <trkpt lat="45.97785" lon="4.87406">
        <ele>284</ele>
        <time>2018-10-23T09:45:08Z</time>
      </trkpt>
      <trkpt lat="45.97782" lon="4.87399">
        <ele>284</ele>
        <time>2018-10-23T09:45:09Z</time>
      </trkpt>
      <trkpt lat="45.97779" lon="4.87393">
        <ele>284</ele>
        <time>2018-10-23T09:45:10Z</time>
      </trkpt>
      <trkpt lat="45.97776" lon="4.87389">
        <ele>284</ele>
        <time>2018-10-23T09:45:11Z</time>
      </trkpt>
      <trkpt lat="45.97773" lon="4.87384">
        <ele>284</ele>
        <time>2018-10-23T09:45:12Z</time>
      </trkpt>
      <trkpt lat="45.97769" lon="4.87379">
        <ele>284</ele>
        <time>2018-10-23T09:45:13Z</time>
      </trkpt>
      <trkpt lat="45.97763" lon="4.87376">
        <ele>284</ele>
        <time>2018-10-23T09:45:14Z</time>
      </trkpt>
      <trkpt lat="45.97758" lon="4.87373">
        <ele>285</ele>
        <time>2018-10-23T09:45:15Z</time>
      </trkpt>
      <trkpt lat="45.97754" lon="4.87367">
        <ele>285</ele>
        <time>2018-10-23T09:45:16Z</time>
      </trkpt>
      <trkpt lat="45.97749" lon="4.87363">
        <ele>285</ele>
        <time>2018-10-23T09:45:17Z</time>
      </trkpt>
      <trkpt lat="45.97745" lon="4.87357">
        <ele>286</ele>
        <time>2018-10-23T09:45:18Z</time>
      </trkpt>
      <trkpt lat="45.97741" lon="4.87354">
        <ele>286</ele>
        <time>2018-10-23T09:45:19Z</time>
      </trkpt>
      <trkpt lat="45.97738" lon="4.8735">
        <ele>286</ele>
        <time>2018-10-23T09:45:20Z</time>
      </trkpt>
      <trkpt lat="45.97734" lon="4.87346">
        <ele>286</ele>
        <time>2018-10-23T09:45:21Z</time>
      </trkpt>
      <trkpt lat="45.97731" lon="4.8734">
        <ele>286</ele>
        <time>2018-10-23T09:45:22Z</time>
      </trkpt>
      <trkpt lat="45.97727" lon="4.87335">
        <ele>286</ele>
        <time>2018-10-23T09:45:23Z</time>
      </trkpt>
      <trkpt lat="45.9772" lon="4.87328">
        <ele>286</ele>
        <time>2018-10-23T09:45:25Z</time>
      </trkpt>
      <trkpt lat="45.97716" lon="4.87323">
        <ele>286</ele>
        <time>2018-10-23T09:45:26Z</time>
      </trkpt>
      <trkpt lat="45.97712" lon="4.87318">
        <ele>286</ele>
        <time>2018-10-23T09:45:27Z</time>
      </trkpt>
      <trkpt lat="45.97711" lon="4.8731">
        <ele>286</ele>
        <time>2018-10-23T09:45:28Z</time>
      </trkpt>
      <trkpt lat="45.97706" lon="4.87306">
        <ele>286</ele>
        <time>2018-10-23T09:45:29Z</time>
      </trkpt>
      <trkpt lat="45.97701" lon="4.873">
        <ele>286</ele>
        <time>2018-10-23T09:45:30Z</time>
      </trkpt>
      <trkpt lat="45.97695" lon="4.87297">
        <ele>286</ele>
        <time>2018-10-23T09:45:31Z</time>
      </trkpt>
      <trkpt lat="45.97692" lon="4.8729">
        <ele>286</ele>
        <time>2018-10-23T09:45:32Z</time>
      </trkpt>
      <trkpt lat="45.97688" lon="4.87284">
        <ele>286</ele>
        <time>2018-10-23T09:45:33Z</time>
      </trkpt>
      <trkpt lat="45.97683" lon="4.87279">
        <ele>286</ele>
        <time>2018-10-23T09:45:34Z</time>
      </trkpt>
      <trkpt lat="45.97677" lon="4.87276">
        <ele>286</ele>
        <time>2018-10-23T09:45:35Z</time>
      </trkpt>
      <trkpt lat="45.97672" lon="4.87269">
        <ele>286</ele>
        <time>2018-10-23T09:45:36Z</time>
      </trkpt>
      <trkpt lat="45.97668" lon="4.87266">
        <ele>286</ele>
        <time>2018-10-23T09:45:37Z</time>
      </trkpt>
      <trkpt lat="45.97664" lon="4.87261">
        <ele>286</ele>
        <time>2018-10-23T09:45:38Z</time>
      </trkpt>
      <trkpt lat="45.9766" lon="4.87255">
        <ele>286</ele>
        <time>2018-10-23T09:45:39Z</time>
      </trkpt>
      <trkpt lat="45.97656" lon="4.8725">
        <ele>285</ele>
        <time>2018-10-23T09:45:40Z</time>
      </trkpt>
      <trkpt lat="45.97651" lon="4.87246">
        <ele>285</ele>
        <time>2018-10-23T09:45:41Z</time>
      </trkpt>
      <trkpt lat="45.97646" lon="4.8724">
        <ele>285</ele>
        <time>2018-10-23T09:45:42Z</time>
      </trkpt>
      <trkpt lat="45.97639" lon="4.87234">
        <ele>284</ele>
        <time>2018-10-23T09:45:44Z</time>
      </trkpt>
      <trkpt lat="45.97634" lon="4.87229">
        <ele>284</ele>
        <time>2018-10-23T09:45:45Z</time>
      </trkpt>
      <trkpt lat="45.97629" lon="4.87225">
        <ele>284</ele>
        <time>2018-10-23T09:45:46Z</time>
      </trkpt>
      <trkpt lat="45.97623" lon="4.87223">
        <ele>284</ele>
        <time>2018-10-23T09:45:47Z</time>
      </trkpt>
      <trkpt lat="45.97619" lon="4.87219">
        <ele>284</ele>
        <time>2018-10-23T09:45:48Z</time>
      </trkpt>
      <trkpt lat="45.97614" lon="4.87215">
        <ele>284</ele>
        <time>2018-10-23T09:45:49Z</time>
      </trkpt>
      <trkpt lat="45.97608" lon="4.8721">
        <ele>284</ele>
        <time>2018-10-23T09:45:50Z</time>
      </trkpt>
      <trkpt lat="45.97603" lon="4.87207">
        <ele>284</ele>
        <time>2018-10-23T09:45:51Z</time>
      </trkpt>
      <trkpt lat="45.97598" lon="4.87202">
        <ele>284</ele>
        <time>2018-10-23T09:45:52Z</time>
      </trkpt>
      <trkpt lat="45.97592" lon="4.87197">
        <ele>283</ele>
        <time>2018-10-23T09:45:53Z</time>
      </trkpt>
      <trkpt lat="45.97587" lon="4.87193">
        <ele>283</ele>
        <time>2018-10-23T09:45:54Z</time>
      </trkpt>
      <trkpt lat="45.97582" lon="4.8719">
        <ele>283</ele>
        <time>2018-10-23T09:45:55Z</time>
      </trkpt>
      <trkpt lat="45.97578" lon="4.87186">
        <ele>283</ele>
        <time>2018-10-23T09:45:56Z</time>
      </trkpt>
      <trkpt lat="45.97574" lon="4.87183">
        <ele>283</ele>
        <time>2018-10-23T09:45:57Z</time>
      </trkpt>
      <trkpt lat="45.9757" lon="4.87178">
        <ele>283</ele>
        <time>2018-10-23T09:45:58Z</time>
      </trkpt>
      <trkpt lat="45.97567" lon="4.87174">
        <ele>283</ele>
        <time>2018-10-23T09:45:59Z</time>
      </trkpt>
      <trkpt lat="45.97562" lon="4.8717">
        <ele>283</ele>
        <time>2018-10-23T09:46:00Z</time>
      </trkpt>
      <trkpt lat="45.97558" lon="4.87167">
        <ele>283</ele>
        <time>2018-10-23T09:46:01Z</time>
      </trkpt>
      <trkpt lat="45.97556" lon="4.87161">
        <ele>283</ele>
        <time>2018-10-23T09:46:02Z</time>
      </trkpt>
      <trkpt lat="45.97551" lon="4.87157">
        <ele>283</ele>
        <time>2018-10-23T09:46:03Z</time>
      </trkpt>
      <trkpt lat="45.97547" lon="4.87154">
        <ele>283</ele>
        <time>2018-10-23T09:46:04Z</time>
      </trkpt>
      <trkpt lat="45.97543" lon="4.87151">
        <ele>283</ele>
        <time>2018-10-23T09:46:05Z</time>
      </trkpt>
      <trkpt lat="45.97538" lon="4.87147">
        <ele>283</ele>
        <time>2018-10-23T09:46:06Z</time>
      </trkpt>
      <trkpt lat="45.97535" lon="4.87144">
        <ele>283</ele>
        <time>2018-10-23T09:46:07Z</time>
      </trkpt>
      <trkpt lat="45.9753" lon="4.87142">
        <ele>283</ele>
        <time>2018-10-23T09:46:08Z</time>
      </trkpt>
      <trkpt lat="45.97526" lon="4.87137">
        <ele>283</ele>
        <time>2018-10-23T09:46:09Z</time>
      </trkpt>
      <trkpt lat="45.97522" lon="4.87133">
        <ele>283</ele>
        <time>2018-10-23T09:46:10Z</time>
      </trkpt>
      <trkpt lat="45.97518" lon="4.87129">
        <ele>283</ele>
        <time>2018-10-23T09:46:11Z</time>
      </trkpt>
      <trkpt lat="45.97513" lon="4.87124">
        <ele>283</ele>
        <time>2018-10-23T09:46:12Z</time>
      </trkpt>
      <trkpt lat="45.97508" lon="4.87119">
        <ele>283</ele>
        <time>2018-10-23T09:46:13Z</time>
      </trkpt>
      <trkpt lat="45.97505" lon="4.87112">
        <ele>283</ele>
        <time>2018-10-23T09:46:14Z</time>
      </trkpt>
      <trkpt lat="45.97501" lon="4.87108">
        <ele>283</ele>
        <time>2018-10-23T09:46:15Z</time>
      </trkpt>
      <trkpt lat="45.97497" lon="4.87105">
        <ele>283</ele>
        <time>2018-10-23T09:46:16Z</time>
      </trkpt>
      <trkpt lat="45.97493" lon="4.871">
        <ele>283</ele>
        <time>2018-10-23T09:46:17Z</time>
      </trkpt>
      <trkpt lat="45.97488" lon="4.87095">
        <ele>283</ele>
        <time>2018-10-23T09:46:18Z</time>
      </trkpt>
      <trkpt lat="45.97482" lon="4.87088">
        <ele>283</ele>
        <time>2018-10-23T09:46:19Z</time>
      </trkpt>
      <trkpt lat="45.97476" lon="4.87085">
        <ele>283</ele>
        <time>2018-10-23T09:46:20Z</time>
      </trkpt>
      <trkpt lat="45.97472" lon="4.87082">
        <ele>284</ele>
        <time>2018-10-23T09:46:21Z</time>
      </trkpt>
      <trkpt lat="45.97468" lon="4.87077">
        <ele>284</ele>
        <time>2018-10-23T09:46:22Z</time>
      </trkpt>
      <trkpt lat="45.97465" lon="4.87071">
        <ele>284</ele>
        <time>2018-10-23T09:46:23Z</time>
      </trkpt>
      <trkpt lat="45.97461" lon="4.87067">
        <ele>284</ele>
        <time>2018-10-23T09:46:24Z</time>
      </trkpt>
      <trkpt lat="45.97457" lon="4.87064">
        <ele>284</ele>
        <time>2018-10-23T09:46:25Z</time>
      </trkpt>
      <trkpt lat="45.97452" lon="4.87061">
        <ele>284</ele>
        <time>2018-10-23T09:46:26Z</time>
      </trkpt>
      <trkpt lat="45.97449" lon="4.87056">
        <ele>284</ele>
        <time>2018-10-23T09:46:27Z</time>
      </trkpt>
      <trkpt lat="45.97444" lon="4.87051">
        <ele>284</ele>
        <time>2018-10-23T09:46:28Z</time>
      </trkpt>
      <trkpt lat="45.97441" lon="4.87048">
        <ele>284</ele>
        <time>2018-10-23T09:46:29Z</time>
      </trkpt>
      <trkpt lat="45.97436" lon="4.87043">
        <ele>284</ele>
        <time>2018-10-23T09:46:30Z</time>
      </trkpt>
      <trkpt lat="45.97431" lon="4.87038">
        <ele>284</ele>
        <time>2018-10-23T09:46:31Z</time>
      </trkpt>
      <trkpt lat="45.97426" lon="4.87033">
        <ele>284</ele>
        <time>2018-10-23T09:46:32Z</time>
      </trkpt>
      <trkpt lat="45.97421" lon="4.87028">
        <ele>284</ele>
        <time>2018-10-23T09:46:33Z</time>
      </trkpt>
      <trkpt lat="45.97416" lon="4.87022">
        <ele>285</ele>
        <time>2018-10-23T09:46:34Z</time>
      </trkpt>
      <trkpt lat="45.9741" lon="4.87018">
        <ele>285</ele>
        <time>2018-10-23T09:46:35Z</time>
      </trkpt>
      <trkpt lat="45.97406" lon="4.87013">
        <ele>285</ele>
        <time>2018-10-23T09:46:36Z</time>
      </trkpt>
      <trkpt lat="45.97402" lon="4.87008">
        <ele>285</ele>
        <time>2018-10-23T09:46:37Z</time>
      </trkpt>
      <trkpt lat="45.97398" lon="4.87001">
        <ele>285</ele>
        <time>2018-10-23T09:46:38Z</time>
      </trkpt>
      <trkpt lat="45.97393" lon="4.86997">
        <ele>285</ele>
        <time>2018-10-23T09:46:39Z</time>
      </trkpt>
      <trkpt lat="45.97386" lon="4.86991">
        <ele>285</ele>
        <time>2018-10-23T09:46:41Z</time>
      </trkpt>
      <trkpt lat="45.97381" lon="4.86985">
        <ele>285</ele>
        <time>2018-10-23T09:46:42Z</time>
      </trkpt>
      <trkpt lat="45.97376" lon="4.86982">
        <ele>285</ele>
        <time>2018-10-23T09:46:43Z</time>
      </trkpt>
      <trkpt lat="45.97372" lon="4.86977">
        <ele>285</ele>
        <time>2018-10-23T09:46:44Z</time>
      </trkpt>
      <trkpt lat="45.97367" lon="4.86973">
        <ele>285</ele>
        <time>2018-10-23T09:46:45Z</time>
      </trkpt>
      <trkpt lat="45.97362" lon="4.86969">
        <ele>285</ele>
        <time>2018-10-23T09:46:46Z</time>
      </trkpt>
      <trkpt lat="45.97359" lon="4.86965">
        <ele>285</ele>
        <time>2018-10-23T09:46:47Z</time>
      </trkpt>
      <trkpt lat="45.97354" lon="4.86959">
        <ele>285</ele>
        <time>2018-10-23T09:46:48Z</time>
      </trkpt>
      <trkpt lat="45.97351" lon="4.86952">
        <ele>284</ele>
        <time>2018-10-23T09:46:49Z</time>
      </trkpt>
      <trkpt lat="45.97346" lon="4.86949">
        <ele>284</ele>
        <time>2018-10-23T09:46:50Z</time>
      </trkpt>
      <trkpt lat="45.97343" lon="4.86944">
        <ele>284</ele>
        <time>2018-10-23T09:46:51Z</time>
      </trkpt>
      <trkpt lat="45.9734" lon="4.86939">
        <ele>284</ele>
        <time>2018-10-23T09:46:52Z</time>
      </trkpt>
      <trkpt lat="45.97333" lon="4.86933">
        <ele>284</ele>
        <time>2018-10-23T09:46:54Z</time>
      </trkpt>
      <trkpt lat="45.9733" lon="4.86928">
        <ele>284</ele>
        <time>2018-10-23T09:46:55Z</time>
      </trkpt>
      <trkpt lat="45.97326" lon="4.86924">
        <ele>284</ele>
        <time>2018-10-23T09:46:56Z</time>
      </trkpt>
      <trkpt lat="45.97323" lon="4.86919">
        <ele>284</ele>
        <time>2018-10-23T09:46:57Z</time>
      </trkpt>
      <trkpt lat="45.97319" lon="4.86915">
        <ele>284</ele>
        <time>2018-10-23T09:46:58Z</time>
      </trkpt>
      <trkpt lat="45.97316" lon="4.8691">
        <ele>284</ele>
        <time>2018-10-23T09:46:59Z</time>
      </trkpt>
      <trkpt lat="45.97308" lon="4.86903">
        <ele>284</ele>
        <time>2018-10-23T09:47:01Z</time>
      </trkpt>
      <trkpt lat="45.97304" lon="4.86898">
        <ele>284</ele>
        <time>2018-10-23T09:47:02Z</time>
      </trkpt>
      <trkpt lat="45.973" lon="4.86892">
        <ele>284</ele>
        <time>2018-10-23T09:47:03Z</time>
      </trkpt>
      <trkpt lat="45.97295" lon="4.86885">
        <ele>284</ele>
        <time>2018-10-23T09:47:04Z</time>
      </trkpt>
      <trkpt lat="45.9729" lon="4.86879">
        <ele>285</ele>
        <time>2018-10-23T09:47:05Z</time>
      </trkpt>
      <trkpt lat="45.97286" lon="4.86872">
        <ele>285</ele>
        <time>2018-10-23T09:47:06Z</time>
      </trkpt>
      <trkpt lat="45.97282" lon="4.86865">
        <ele>285</ele>
        <time>2018-10-23T09:47:07Z</time>
      </trkpt>
      <trkpt lat="45.97278" lon="4.86858">
        <ele>285</ele>
        <time>2018-10-23T09:47:08Z</time>
      </trkpt>
      <trkpt lat="45.97274" lon="4.86851">
        <ele>285</ele>
        <time>2018-10-23T09:47:09Z</time>
      </trkpt>
      <trkpt lat="45.97271" lon="4.86845">
        <ele>285</ele>
        <time>2018-10-23T09:47:10Z</time>
      </trkpt>
      <trkpt lat="45.97267" lon="4.8684">
        <ele>285</ele>
        <time>2018-10-23T09:47:11Z</time>
      </trkpt>
      <trkpt lat="45.97264" lon="4.86834">
        <ele>285</ele>
        <time>2018-10-23T09:47:12Z</time>
      </trkpt>
      <trkpt lat="45.97261" lon="4.86827">
        <ele>285</ele>
        <time>2018-10-23T09:47:13Z</time>
      </trkpt>
      <trkpt lat="45.97258" lon="4.86822">
        <ele>285</ele>
        <time>2018-10-23T09:47:14Z</time>
      </trkpt>
      <trkpt lat="45.97255" lon="4.86816">
        <ele>285</ele>
        <time>2018-10-23T09:47:15Z</time>
      </trkpt>
      <trkpt lat="45.97251" lon="4.86812">
        <ele>285</ele>
        <time>2018-10-23T09:47:16Z</time>
      </trkpt>
      <trkpt lat="45.97247" lon="4.86807">
        <ele>284</ele>
        <time>2018-10-23T09:47:17Z</time>
      </trkpt>
      <trkpt lat="45.97242" lon="4.86802">
        <ele>284</ele>
        <time>2018-10-23T09:47:18Z</time>
      </trkpt>
      <trkpt lat="45.97236" lon="4.86797">
        <ele>284</ele>
        <time>2018-10-23T09:47:19Z</time>
      </trkpt>
      <trkpt lat="45.97231" lon="4.86795">
        <ele>284</ele>
        <time>2018-10-23T09:47:20Z</time>
      </trkpt>
      <trkpt lat="45.97224" lon="4.86794">
        <ele>284</ele>
        <time>2018-10-23T09:47:21Z</time>
      </trkpt>
      <trkpt lat="45.97219" lon="4.86794">
        <ele>284</ele>
        <time>2018-10-23T09:47:22Z</time>
      </trkpt>
      <trkpt lat="45.97213" lon="4.86793">
        <ele>284</ele>
        <time>2018-10-23T09:47:23Z</time>
      </trkpt>
      <trkpt lat="45.97207" lon="4.86795">
        <ele>284</ele>
        <time>2018-10-23T09:47:24Z</time>
      </trkpt>
      <trkpt lat="45.97202" lon="4.86796">
        <ele>284</ele>
        <time>2018-10-23T09:47:25Z</time>
      </trkpt>
      <trkpt lat="45.97196" lon="4.86798">
        <ele>284</ele>
        <time>2018-10-23T09:47:26Z</time>
      </trkpt>
      <trkpt lat="45.9719" lon="4.868">
        <ele>284</ele>
        <time>2018-10-23T09:47:27Z</time>
      </trkpt>
      <trkpt lat="45.97185" lon="4.86802">
        <ele>284</ele>
        <time>2018-10-23T09:47:28Z</time>
      </trkpt>
      <trkpt lat="45.97179" lon="4.86805">
        <ele>284</ele>
        <time>2018-10-23T09:47:29Z</time>
      </trkpt>
      <trkpt lat="45.97175" lon="4.86807">
        <ele>283</ele>
        <time>2018-10-23T09:47:30Z</time>
      </trkpt>
      <trkpt lat="45.9717" lon="4.86809">
        <ele>283</ele>
        <time>2018-10-23T09:47:31Z</time>
      </trkpt>
      <trkpt lat="45.97165" lon="4.86811">
        <ele>283</ele>
        <time>2018-10-23T09:47:32Z</time>
      </trkpt>
      <trkpt lat="45.9716" lon="4.86813">
        <ele>283</ele>
        <time>2018-10-23T09:47:33Z</time>
      </trkpt>
      <trkpt lat="45.97155" lon="4.86814">
        <ele>283</ele>
        <time>2018-10-23T09:47:34Z</time>
      </trkpt>
      <trkpt lat="45.9715" lon="4.86817">
        <ele>283</ele>
        <time>2018-10-23T09:47:35Z</time>
      </trkpt>
      <trkpt lat="45.97145" lon="4.86818">
        <ele>283</ele>
        <time>2018-10-23T09:47:36Z</time>
      </trkpt>
      <trkpt lat="45.9714" lon="4.8682">
        <ele>283</ele>
        <time>2018-10-23T09:47:37Z</time>
      </trkpt>
      <trkpt lat="45.97134" lon="4.86822">
        <ele>283</ele>
        <time>2018-10-23T09:47:38Z</time>
      </trkpt>
      <trkpt lat="45.97128" lon="4.86823">
        <ele>283</ele>
        <time>2018-10-23T09:47:39Z</time>
      </trkpt>
      <trkpt lat="45.97122" lon="4.86826">
        <ele>283</ele>
        <time>2018-10-23T09:47:40Z</time>
      </trkpt>
      <trkpt lat="45.97117" lon="4.86828">
        <ele>283</ele>
        <time>2018-10-23T09:47:41Z</time>
      </trkpt>
      <trkpt lat="45.97111" lon="4.8683">
        <ele>283</ele>
        <time>2018-10-23T09:47:42Z</time>
      </trkpt>
      <trkpt lat="45.97105" lon="4.86832">
        <ele>284</ele>
        <time>2018-10-23T09:47:43Z</time>
      </trkpt>
      <trkpt lat="45.971" lon="4.86834">
        <ele>284</ele>
        <time>2018-10-23T09:47:44Z</time>
      </trkpt>
      <trkpt lat="45.97095" lon="4.86835">
        <ele>284</ele>
        <time>2018-10-23T09:47:45Z</time>
      </trkpt>
      <trkpt lat="45.97089" lon="4.86836">
        <ele>284</ele>
        <time>2018-10-23T09:47:46Z</time>
      </trkpt>
      <trkpt lat="45.97083" lon="4.86837">
        <ele>284</ele>
        <time>2018-10-23T09:47:47Z</time>
      </trkpt>
      <trkpt lat="45.97077" lon="4.86837">
        <ele>284</ele>
        <time>2018-10-23T09:47:48Z</time>
      </trkpt>
      <trkpt lat="45.9707" lon="4.86839">
        <ele>284</ele>
        <time>2018-10-23T09:47:49Z</time>
      </trkpt>
      <trkpt lat="45.97063" lon="4.86839">
        <ele>284</ele>
        <time>2018-10-23T09:47:50Z</time>
      </trkpt>
      <trkpt lat="45.97057" lon="4.8684">
        <ele>285</ele>
        <time>2018-10-23T09:47:51Z</time>
      </trkpt>
      <trkpt lat="45.9705" lon="4.86841">
        <ele>285</ele>
        <time>2018-10-23T09:47:52Z</time>
      </trkpt>
      <trkpt lat="45.97044" lon="4.86842">
        <ele>285</ele>
        <time>2018-10-23T09:47:53Z</time>
      </trkpt>
      <trkpt lat="45.97038" lon="4.86843">
        <ele>285</ele>
        <time>2018-10-23T09:47:54Z</time>
      </trkpt>
      <trkpt lat="45.97031" lon="4.86843">
        <ele>285</ele>
        <time>2018-10-23T09:47:55Z</time>
      </trkpt>
      <trkpt lat="45.97026" lon="4.86845">
        <ele>285</ele>
        <time>2018-10-23T09:47:56Z</time>
      </trkpt>
      <trkpt lat="45.97021" lon="4.86847">
        <ele>285</ele>
        <time>2018-10-23T09:47:57Z</time>
      </trkpt>
      <trkpt lat="45.97015" lon="4.86847">
        <ele>285</ele>
        <time>2018-10-23T09:47:58Z</time>
      </trkpt>
      <trkpt lat="45.9701" lon="4.86846">
        <ele>285</ele>
        <time>2018-10-23T09:47:59Z</time>
      </trkpt>
      <trkpt lat="45.97006" lon="4.86846">
        <ele>285</ele>
        <time>2018-10-23T09:48:00Z</time>
      </trkpt>
      <trkpt lat="45.97001" lon="4.86846">
        <ele>285</ele>
        <time>2018-10-23T09:48:01Z</time>
      </trkpt>
      <trkpt lat="45.96997" lon="4.86845">
        <ele>286</ele>
        <time>2018-10-23T09:48:02Z</time>
      </trkpt>
      <trkpt lat="45.96993" lon="4.86844">
        <ele>286</ele>
        <time>2018-10-23T09:48:03Z</time>
      </trkpt>
      <trkpt lat="45.96987" lon="4.86843">
        <ele>286</ele>
        <time>2018-10-23T09:48:04Z</time>
      </trkpt>
      <trkpt lat="45.96983" lon="4.86842">
        <ele>286</ele>
        <time>2018-10-23T09:48:05Z</time>
      </trkpt>
      <trkpt lat="45.96978" lon="4.8684">
        <ele>286</ele>
        <time>2018-10-23T09:48:06Z</time>
      </trkpt>
      <trkpt lat="45.96973" lon="4.86838">
        <ele>286</ele>
        <time>2018-10-23T09:48:07Z</time>
      </trkpt>
      <trkpt lat="45.96968" lon="4.86836">
        <ele>286</ele>
        <time>2018-10-23T09:48:08Z</time>
      </trkpt>
      <trkpt lat="45.96963" lon="4.86835">
        <ele>287</ele>
        <time>2018-10-23T09:48:09Z</time>
      </trkpt>
      <trkpt lat="45.96958" lon="4.86834">
        <ele>287</ele>
        <time>2018-10-23T09:48:10Z</time>
      </trkpt>
      <trkpt lat="45.96954" lon="4.86832">
        <ele>286</ele>
        <time>2018-10-23T09:48:11Z</time>
      </trkpt>
      <trkpt lat="45.9695" lon="4.86831">
        <ele>287</ele>
        <time>2018-10-23T09:48:12Z</time>
      </trkpt>
      <trkpt lat="45.96942" lon="4.86826">
        <ele>287</ele>
        <time>2018-10-23T09:48:14Z</time>
      </trkpt>
      <trkpt lat="45.96938" lon="4.86823">
        <ele>287</ele>
        <time>2018-10-23T09:48:15Z</time>
      </trkpt>
      <trkpt lat="45.96933" lon="4.8682">
        <ele>287</ele>
        <time>2018-10-23T09:48:16Z</time>
      </trkpt>
      <trkpt lat="45.9693" lon="4.86817">
        <ele>287</ele>
        <time>2018-10-23T09:48:17Z</time>
      </trkpt>
      <trkpt lat="45.96926" lon="4.86814">
        <ele>287</ele>
        <time>2018-10-23T09:48:18Z</time>
      </trkpt>
      <trkpt lat="45.96922" lon="4.86811">
        <ele>287</ele>
        <time>2018-10-23T09:48:19Z</time>
      </trkpt>
      <trkpt lat="45.96914" lon="4.86806">
        <ele>288</ele>
        <time>2018-10-23T09:48:21Z</time>
      </trkpt>
      <trkpt lat="45.96909" lon="4.86809">
        <ele>288</ele>
        <time>2018-10-23T09:48:22Z</time>
      </trkpt>
      <trkpt lat="45.96903" lon="4.86815">
        <ele>288</ele>
        <time>2018-10-23T09:48:24Z</time>
      </trkpt>
      <trkpt lat="45.969" lon="4.86822">
        <ele>288</ele>
        <time>2018-10-23T09:48:25Z</time>
      </trkpt>
      <trkpt lat="45.96899" lon="4.86829">
        <ele>288</ele>
        <time>2018-10-23T09:48:26Z</time>
      </trkpt>
      <trkpt lat="45.96898" lon="4.86835">
        <ele>288</ele>
        <time>2018-10-23T09:48:27Z</time>
      </trkpt>
      <trkpt lat="45.96896" lon="4.86841">
        <ele>288</ele>
        <time>2018-10-23T09:48:28Z</time>
      </trkpt>
      <trkpt lat="45.96894" lon="4.86848">
        <ele>289</ele>
        <time>2018-10-23T09:48:29Z</time>
      </trkpt>
      <trkpt lat="45.96892" lon="4.86855">
        <ele>289</ele>
        <time>2018-10-23T09:48:30Z</time>
      </trkpt>
      <trkpt lat="45.9689" lon="4.86862">
        <ele>289</ele>
        <time>2018-10-23T09:48:31Z</time>
      </trkpt>
      <trkpt lat="45.96888" lon="4.86868">
        <ele>289</ele>
        <time>2018-10-23T09:48:32Z</time>
      </trkpt>
      <trkpt lat="45.96885" lon="4.86874">
        <ele>289</ele>
        <time>2018-10-23T09:48:33Z</time>
      </trkpt>
      <trkpt lat="45.96883" lon="4.8688">
        <ele>289</ele>
        <time>2018-10-23T09:48:34Z</time>
      </trkpt>
      <trkpt lat="45.9688" lon="4.86885">
        <ele>289</ele>
        <time>2018-10-23T09:48:35Z</time>
      </trkpt>
      <trkpt lat="45.96877" lon="4.86897">
        <ele>289</ele>
        <time>2018-10-23T09:48:37Z</time>
      </trkpt>
      <trkpt lat="45.96875" lon="4.86903">
        <ele>289</ele>
        <time>2018-10-23T09:48:38Z</time>
      </trkpt>
      <trkpt lat="45.96871" lon="4.86914">
        <ele>289</ele>
        <time>2018-10-23T09:48:40Z</time>
      </trkpt>
      <trkpt lat="45.9687" lon="4.86923">
        <ele>288</ele>
        <time>2018-10-23T09:48:41Z</time>
      </trkpt>
      <trkpt lat="45.96868" lon="4.86929">
        <ele>288</ele>
        <time>2018-10-23T09:48:42Z</time>
      </trkpt>
      <trkpt lat="45.96865" lon="4.86934">
        <ele>288</ele>
        <time>2018-10-23T09:48:43Z</time>
      </trkpt>
      <trkpt lat="45.96862" lon="4.86941">
        <ele>288</ele>
        <time>2018-10-23T09:48:44Z</time>
      </trkpt>
      <trkpt lat="45.9686" lon="4.86947">
        <ele>288</ele>
        <time>2018-10-23T09:48:45Z</time>
      </trkpt>
      <trkpt lat="45.96857" lon="4.86954">
        <ele>288</ele>
        <time>2018-10-23T09:48:46Z</time>
      </trkpt>
      <trkpt lat="45.96857" lon="4.86964">
        <ele>288</ele>
        <time>2018-10-23T09:48:47Z</time>
      </trkpt>
      <trkpt lat="45.96854" lon="4.86971">
        <ele>288</ele>
        <time>2018-10-23T09:48:48Z</time>
      </trkpt>
      <trkpt lat="45.96852" lon="4.86978">
        <ele>288</ele>
        <time>2018-10-23T09:48:49Z</time>
      </trkpt>
      <trkpt lat="45.9685" lon="4.86984">
        <ele>288</ele>
        <time>2018-10-23T09:48:50Z</time>
      </trkpt>
      <trkpt lat="45.96847" lon="4.86991">
        <ele>288</ele>
        <time>2018-10-23T09:48:51Z</time>
      </trkpt>
      <trkpt lat="45.96844" lon="4.86998">
        <ele>288</ele>
        <time>2018-10-23T09:48:52Z</time>
      </trkpt>
      <trkpt lat="45.96842" lon="4.87003">
        <ele>288</ele>
        <time>2018-10-23T09:48:53Z</time>
      </trkpt>
      <trkpt lat="45.9684" lon="4.8701">
        <ele>288</ele>
        <time>2018-10-23T09:48:54Z</time>
      </trkpt>
      <trkpt lat="45.96837" lon="4.87016">
        <ele>288</ele>
        <time>2018-10-23T09:48:55Z</time>
      </trkpt>
      <trkpt lat="45.96835" lon="4.87022">
        <ele>287</ele>
        <time>2018-10-23T09:48:56Z</time>
      </trkpt>
      <trkpt lat="45.96833" lon="4.87029">
        <ele>288</ele>
        <time>2018-10-23T09:48:57Z</time>
      </trkpt>
      <trkpt lat="45.96831" lon="4.87036">
        <ele>288</ele>
        <time>2018-10-23T09:48:58Z</time>
      </trkpt>
      <trkpt lat="45.96829" lon="4.87043">
        <ele>287</ele>
        <time>2018-10-23T09:48:59Z</time>
      </trkpt>
      <trkpt lat="45.96827" lon="4.8705">
        <ele>287</ele>
        <time>2018-10-23T09:49:00Z</time>
      </trkpt>
      <trkpt lat="45.96825" lon="4.87057">
        <ele>287</ele>
        <time>2018-10-23T09:49:01Z</time>
      </trkpt>
      <trkpt lat="45.96823" lon="4.87063">
        <ele>287</ele>
        <time>2018-10-23T09:49:02Z</time>
      </trkpt>
      <trkpt lat="45.9682" lon="4.8707">
        <ele>287</ele>
        <time>2018-10-23T09:49:03Z</time>
      </trkpt>
      <trkpt lat="45.96818" lon="4.87077">
        <ele>287</ele>
        <time>2018-10-23T09:49:04Z</time>
      </trkpt>
      <trkpt lat="45.96816" lon="4.87083">
        <ele>287</ele>
        <time>2018-10-23T09:49:05Z</time>
      </trkpt>
      <trkpt lat="45.96814" lon="4.87091">
        <ele>287</ele>
        <time>2018-10-23T09:49:06Z</time>
      </trkpt>
      <trkpt lat="45.96813" lon="4.87098">
        <ele>287</ele>
        <time>2018-10-23T09:49:07Z</time>
      </trkpt>
      <trkpt lat="45.96811" lon="4.87106">
        <ele>286</ele>
        <time>2018-10-23T09:49:08Z</time>
      </trkpt>
      <trkpt lat="45.9681" lon="4.87113">
        <ele>286</ele>
        <time>2018-10-23T09:49:09Z</time>
      </trkpt>
      <trkpt lat="45.96809" lon="4.87119">
        <ele>286</ele>
        <time>2018-10-23T09:49:10Z</time>
      </trkpt>
      <trkpt lat="45.96807" lon="4.87125">
        <ele>286</ele>
        <time>2018-10-23T09:49:11Z</time>
      </trkpt>
      <trkpt lat="45.96804" lon="4.87131">
        <ele>286</ele>
        <time>2018-10-23T09:49:12Z</time>
      </trkpt>
      <trkpt lat="45.96803" lon="4.87137">
        <ele>286</ele>
        <time>2018-10-23T09:49:13Z</time>
      </trkpt>
      <trkpt lat="45.96799" lon="4.87142">
        <ele>286</ele>
        <time>2018-10-23T09:49:14Z</time>
      </trkpt>
      <trkpt lat="45.96795" lon="4.87146">
        <ele>286</ele>
        <time>2018-10-23T09:49:15Z</time>
      </trkpt>
      <trkpt lat="45.96789" lon="4.87147">
        <ele>286</ele>
        <time>2018-10-23T09:49:16Z</time>
      </trkpt>
      <trkpt lat="45.96784" lon="4.87145">
        <ele>286</ele>
        <time>2018-10-23T09:49:17Z</time>
      </trkpt>
      <trkpt lat="45.96779" lon="4.87136">
        <ele>286</ele>
        <time>2018-10-23T09:49:19Z</time>
      </trkpt>
      <trkpt lat="45.96776" lon="4.8713">
        <ele>286</ele>
        <time>2018-10-23T09:49:20Z</time>
      </trkpt>
      <trkpt lat="45.96773" lon="4.87124">
        <ele>286</ele>
        <time>2018-10-23T09:49:21Z</time>
      </trkpt>
      <trkpt lat="45.96772" lon="4.87117">
        <ele>286</ele>
        <time>2018-10-23T09:49:22Z</time>
      </trkpt>
      <trkpt lat="45.9677" lon="4.87112">
        <ele>286</ele>
        <time>2018-10-23T09:49:23Z</time>
      </trkpt>
      <trkpt lat="45.96766" lon="4.87108">
        <ele>286</ele>
        <time>2018-10-23T09:49:24Z</time>
      </trkpt>
      <trkpt lat="45.96763" lon="4.87102">
        <ele>287</ele>
        <time>2018-10-23T09:49:25Z</time>
      </trkpt>
      <trkpt lat="45.96759" lon="4.87097">
        <ele>287</ele>
        <time>2018-10-23T09:49:26Z</time>
      </trkpt>
      <trkpt lat="45.96755" lon="4.87088">
        <ele>287</ele>
        <time>2018-10-23T09:49:28Z</time>
      </trkpt>
      <trkpt lat="45.96751" lon="4.87083">
        <ele>287</ele>
        <time>2018-10-23T09:49:29Z</time>
      </trkpt>
      <trkpt lat="45.96746" lon="4.87078">
        <ele>287</ele>
        <time>2018-10-23T09:49:30Z</time>
      </trkpt>
      <trkpt lat="45.96741" lon="4.87074">
        <ele>287</ele>
        <time>2018-10-23T09:49:31Z</time>
      </trkpt>
      <trkpt lat="45.96736" lon="4.87069">
        <ele>287</ele>
        <time>2018-10-23T09:49:32Z</time>
      </trkpt>
      <trkpt lat="45.96731" lon="4.87065">
        <ele>287</ele>
        <time>2018-10-23T09:49:33Z</time>
      </trkpt>
      <trkpt lat="45.96725" lon="4.87063">
        <ele>287</ele>
        <time>2018-10-23T09:49:34Z</time>
      </trkpt>
      <trkpt lat="45.96723" lon="4.87059">
        <ele>287</ele>
        <time>2018-10-23T09:49:35Z</time>
      </trkpt>
      <trkpt lat="45.96718" lon="4.87056">
        <ele>287</ele>
        <time>2018-10-23T09:49:36Z</time>
      </trkpt>
      <trkpt lat="45.96714" lon="4.87052">
        <ele>287</ele>
        <time>2018-10-23T09:49:37Z</time>
      </trkpt>
      <trkpt lat="45.9671" lon="4.87052">
        <ele>287</ele>
        <time>2018-10-23T09:49:38Z</time>
      </trkpt>
      <trkpt lat="45.96704" lon="4.87049">
        <ele>287</ele>
        <time>2018-10-23T09:49:39Z</time>
      </trkpt>
      <trkpt lat="45.967" lon="4.87045">
        <ele>287</ele>
        <time>2018-10-23T09:49:40Z</time>
      </trkpt>
      <trkpt lat="45.96696" lon="4.87041">
        <ele>287</ele>
        <time>2018-10-23T09:49:41Z</time>
      </trkpt>
      <trkpt lat="45.96692" lon="4.87038">
        <ele>287</ele>
        <time>2018-10-23T09:49:42Z</time>
      </trkpt>
      <trkpt lat="45.96687" lon="4.87034">
        <ele>287</ele>
        <time>2018-10-23T09:49:43Z</time>
      </trkpt>
      <trkpt lat="45.96683" lon="4.87031">
        <ele>287</ele>
        <time>2018-10-23T09:49:44Z</time>
      </trkpt>
      <trkpt lat="45.96678" lon="4.87027">
        <ele>287</ele>
        <time>2018-10-23T09:49:45Z</time>
      </trkpt>
      <trkpt lat="45.96674" lon="4.87023">
        <ele>287</ele>
        <time>2018-10-23T09:49:46Z</time>
      </trkpt>
      <trkpt lat="45.96671" lon="4.87017">
        <ele>287</ele>
        <time>2018-10-23T09:49:47Z</time>
      </trkpt>
      <trkpt lat="45.96667" lon="4.8701">
        <ele>286</ele>
        <time>2018-10-23T09:49:48Z</time>
      </trkpt>
      <trkpt lat="45.96664" lon="4.87003">
        <ele>287</ele>
        <time>2018-10-23T09:49:49Z</time>
      </trkpt>
      <trkpt lat="45.96661" lon="4.86996">
        <ele>287</ele>
        <time>2018-10-23T09:49:50Z</time>
      </trkpt>
      <trkpt lat="45.96656" lon="4.8699">
        <ele>287</ele>
        <time>2018-10-23T09:49:51Z</time>
      </trkpt>
      <trkpt lat="45.96651" lon="4.86984">
        <ele>287</ele>
        <time>2018-10-23T09:49:52Z</time>
      </trkpt>
      <trkpt lat="45.96645" lon="4.86982">
        <ele>286</ele>
        <time>2018-10-23T09:49:53Z</time>
      </trkpt>
      <trkpt lat="45.96639" lon="4.8698">
        <ele>286</ele>
        <time>2018-10-23T09:49:54Z</time>
      </trkpt>
      <trkpt lat="45.96633" lon="4.86981">
        <ele>286</ele>
        <time>2018-10-23T09:49:55Z</time>
      </trkpt>
      <trkpt lat="45.96626" lon="4.86982">
        <ele>286</ele>
        <time>2018-10-23T09:49:56Z</time>
      </trkpt>
      <trkpt lat="45.96619" lon="4.86984">
        <ele>286</ele>
        <time>2018-10-23T09:49:57Z</time>
      </trkpt>
      <trkpt lat="45.96612" lon="4.86986">
        <ele>286</ele>
        <time>2018-10-23T09:49:58Z</time>
      </trkpt>
      <trkpt lat="45.96606" lon="4.86989">
        <ele>286</ele>
        <time>2018-10-23T09:49:59Z</time>
      </trkpt>
      <trkpt lat="45.96599" lon="4.86989">
        <ele>286</ele>
        <time>2018-10-23T09:50:00Z</time>
      </trkpt>
      <trkpt lat="45.96592" lon="4.86991">
        <ele>285</ele>
        <time>2018-10-23T09:50:01Z</time>
      </trkpt>
      <trkpt lat="45.96585" lon="4.86991">
        <ele>285</ele>
        <time>2018-10-23T09:50:02Z</time>
      </trkpt>
      <trkpt lat="45.96578" lon="4.86993">
        <ele>284</ele>
        <time>2018-10-23T09:50:03Z</time>
      </trkpt>
      <trkpt lat="45.96571" lon="4.86994">
        <ele>284</ele>
        <time>2018-10-23T09:50:04Z</time>
      </trkpt>
      <trkpt lat="45.96565" lon="4.86994">
        <ele>284</ele>
        <time>2018-10-23T09:50:05Z</time>
      </trkpt>
      <trkpt lat="45.96556" lon="4.86993">
        <ele>284</ele>
        <time>2018-10-23T09:50:07Z</time>
      </trkpt>
      <trkpt lat="45.96555" lon="4.86992">
        <ele>283</ele>
        <time>2018-10-23T09:50:08Z</time>
      </trkpt>
      <trkpt lat="45.96548" lon="4.86993">
        <ele>283</ele>
        <time>2018-10-23T09:50:11Z</time>
      </trkpt>
      <trkpt lat="45.96546" lon="4.86994">
        <ele>283</ele>
        <time>2018-10-23T09:50:12Z</time>
      </trkpt>
      <trkpt lat="45.96541" lon="4.87003">
        <ele>283</ele>
        <time>2018-10-23T09:50:15Z</time>
      </trkpt>
      <trkpt lat="45.96541" lon="4.87007">
        <ele>283</ele>
        <time>2018-10-23T09:50:16Z</time>
      </trkpt>
      <trkpt lat="45.96544" lon="4.87018">
        <ele>283</ele>
        <time>2018-10-23T09:50:19Z</time>
      </trkpt>
      <trkpt lat="45.96545" lon="4.87022">
        <ele>283</ele>
        <time>2018-10-23T09:50:20Z</time>
      </trkpt>
      <trkpt lat="45.96551" lon="4.8703">
        <ele>283</ele>
        <time>2018-10-23T09:50:23Z</time>
      </trkpt>
      <trkpt lat="45.96553" lon="4.87033">
        <ele>283</ele>
        <time>2018-10-23T09:50:24Z</time>
      </trkpt>
      <trkpt lat="45.96554" lon="4.87037">
        <ele>283</ele>
        <time>2018-10-23T09:50:25Z</time>
      </trkpt>
      <trkpt lat="45.96556" lon="4.87046">
        <ele>283</ele>
        <time>2018-10-23T09:50:26Z</time>
      </trkpt>
      <trkpt lat="45.96558" lon="4.87055">
        <ele>283</ele>
        <time>2018-10-23T09:50:28Z</time>
      </trkpt>
      <trkpt lat="45.96558" lon="4.87059">
        <ele>283</ele>
        <time>2018-10-23T09:50:29Z</time>
      </trkpt>
      <trkpt lat="45.96559" lon="4.87071">
        <ele>283</ele>
        <time>2018-10-23T09:50:32Z</time>
      </trkpt>
      <trkpt lat="45.96559" lon="4.87074">
        <ele>283</ele>
        <time>2018-10-23T09:50:33Z</time>
      </trkpt>
      <trkpt lat="45.96553" lon="4.87081">
        <ele>283</ele>
        <time>2018-10-23T09:50:37Z</time>
      </trkpt>
      <trkpt lat="45.96551" lon="4.87081">
        <ele>283</ele>
        <time>2018-10-23T09:50:38Z</time>
      </trkpt>
      <trkpt lat="45.96546" lon="4.8708">
        <ele>283</ele>
        <time>2018-10-23T09:50:40Z</time>
      </trkpt>
      <trkpt lat="45.96541" lon="4.87078">
        <ele>283</ele>
        <time>2018-10-23T09:50:41Z</time>
      </trkpt>
      <trkpt lat="45.96536" lon="4.87069">
        <ele>283</ele>
        <time>2018-10-23T09:50:44Z</time>
      </trkpt>
      <trkpt lat="45.96535" lon="4.87064">
        <ele>283</ele>
        <time>2018-10-23T09:50:45Z</time>
      </trkpt>
      <trkpt lat="45.96535" lon="4.87054">
        <ele>283</ele>
        <time>2018-10-23T09:50:46Z</time>
      </trkpt>
      <trkpt lat="45.96535" lon="4.8705">
        <ele>283</ele>
        <time>2018-10-23T09:50:47Z</time>
      </trkpt>
      <trkpt lat="45.96535" lon="4.87038">
        <ele>283</ele>
        <time>2018-10-23T09:50:50Z</time>
      </trkpt>
      <trkpt lat="45.96534" lon="4.87035">
        <ele>283</ele>
        <time>2018-10-23T09:50:51Z</time>
      </trkpt>
      <trkpt lat="45.96533" lon="4.87022">
        <ele>283</ele>
        <time>2018-10-23T10:01:08Z</time>
      </trkpt>
      <trkpt lat="45.96534" lon="4.87021">
        <ele>283</ele>
        <time>2018-10-23T10:01:09Z</time>
      </trkpt>
      <trkpt lat="45.96538" lon="4.87013">
        <ele>283</ele>
        <time>2018-10-23T10:01:14Z</time>
      </trkpt>
      <trkpt lat="45.96539" lon="4.8701">
        <ele>283</ele>
        <time>2018-10-23T10:01:15Z</time>
      </trkpt>
      <trkpt lat="45.9654" lon="4.86999">
        <ele>283</ele>
        <time>2018-10-23T10:01:18Z</time>
      </trkpt>
      <trkpt lat="45.9654" lon="4.86995">
        <ele>283</ele>
        <time>2018-10-23T10:01:19Z</time>
      </trkpt>
      <trkpt lat="45.96539" lon="4.86991">
        <ele>283</ele>
        <time>2018-10-23T10:01:20Z</time>
      </trkpt>
      <trkpt lat="45.96538" lon="4.86981">
        <ele>283</ele>
        <time>2018-10-23T10:01:21Z</time>
      </trkpt>
      <trkpt lat="45.96538" lon="4.8697">
        <ele>283</ele>
        <time>2018-10-23T10:01:23Z</time>
      </trkpt>
      <trkpt lat="45.96537" lon="4.86964">
        <ele>283</ele>
        <time>2018-10-23T10:01:24Z</time>
      </trkpt>
      <trkpt lat="45.96537" lon="4.86951">
        <ele>283</ele>
        <time>2018-10-23T10:01:26Z</time>
      </trkpt>
      <trkpt lat="45.96537" lon="4.86946">
        <ele>283</ele>
        <time>2018-10-23T10:01:27Z</time>
      </trkpt>
      <trkpt lat="45.96537" lon="4.86934">
        <ele>283</ele>
        <time>2018-10-23T10:01:29Z</time>
      </trkpt>
      <trkpt lat="45.96536" lon="4.86929">
        <ele>283</ele>
        <time>2018-10-23T10:01:30Z</time>
      </trkpt>
      <trkpt lat="45.96536" lon="4.86919">
        <ele>283</ele>
        <time>2018-10-23T10:01:32Z</time>
      </trkpt>
      <trkpt lat="45.96535" lon="4.86914">
        <ele>283</ele>
        <time>2018-10-23T10:01:33Z</time>
      </trkpt>
      <trkpt lat="45.96535" lon="4.86903">
        <ele>283</ele>
        <time>2018-10-23T10:01:35Z</time>
      </trkpt>
      <trkpt lat="45.96535" lon="4.86897">
        <ele>283</ele>
        <time>2018-10-23T10:01:36Z</time>
      </trkpt>
      <trkpt lat="45.96534" lon="4.86886">
        <ele>283</ele>
        <time>2018-10-23T10:01:38Z</time>
      </trkpt>
      <trkpt lat="45.96533" lon="4.86881">
        <ele>283</ele>
        <time>2018-10-23T10:01:39Z</time>
      </trkpt>
      <trkpt lat="45.96532" lon="4.86869">
        <ele>284</ele>
        <time>2018-10-23T10:01:42Z</time>
      </trkpt>
      <trkpt lat="45.96532" lon="4.8686">
        <ele>284</ele>
        <time>2018-10-23T10:01:43Z</time>
      </trkpt>
      <trkpt lat="45.96531" lon="4.8685">
        <ele>284</ele>
        <time>2018-10-23T10:01:45Z</time>
      </trkpt>
      <trkpt lat="45.9653" lon="4.86844">
        <ele>284</ele>
        <time>2018-10-23T10:01:46Z</time>
      </trkpt>
      <trkpt lat="45.96529" lon="4.86832">
        <ele>284</ele>
        <time>2018-10-23T10:01:48Z</time>
      </trkpt>
      <trkpt lat="45.96529" lon="4.86826">
        <ele>284</ele>
        <time>2018-10-23T10:01:49Z</time>
      </trkpt>
      <trkpt lat="45.96529" lon="4.86813">
        <ele>284</ele>
        <time>2018-10-23T10:01:51Z</time>
      </trkpt>
      <trkpt lat="45.96528" lon="4.86807">
        <ele>284</ele>
        <time>2018-10-23T10:01:52Z</time>
      </trkpt>
      <trkpt lat="45.96529" lon="4.86794">
        <ele>284</ele>
        <time>2018-10-23T10:01:54Z</time>
      </trkpt>
      <trkpt lat="45.96528" lon="4.86788">
        <ele>284</ele>
        <time>2018-10-23T10:01:55Z</time>
      </trkpt>
      <trkpt lat="45.96527" lon="4.86776">
        <ele>284</ele>
        <time>2018-10-23T10:01:57Z</time>
      </trkpt>
      <trkpt lat="45.96527" lon="4.8677">
        <ele>284</ele>
        <time>2018-10-23T10:01:58Z</time>
      </trkpt>
      <trkpt lat="45.96526" lon="4.86757">
        <ele>284</ele>
        <time>2018-10-23T10:02:00Z</time>
      </trkpt>
      <trkpt lat="45.96525" lon="4.86751">
        <ele>284</ele>
        <time>2018-10-23T10:02:01Z</time>
      </trkpt>
      <trkpt lat="45.96524" lon="4.86738">
        <ele>285</ele>
        <time>2018-10-23T10:02:03Z</time>
      </trkpt>
      <trkpt lat="45.96524" lon="4.86732">
        <ele>285</ele>
        <time>2018-10-23T10:02:04Z</time>
      </trkpt>
      <trkpt lat="45.96524" lon="4.8672">
        <ele>285</ele>
        <time>2018-10-23T10:02:06Z</time>
      </trkpt>
      <trkpt lat="45.96524" lon="4.86714">
        <ele>285</ele>
        <time>2018-10-23T10:02:07Z</time>
      </trkpt>
      <trkpt lat="45.96524" lon="4.86702">
        <ele>285</ele>
        <time>2018-10-23T10:02:09Z</time>
      </trkpt>
      <trkpt lat="45.96524" lon="4.86697">
        <ele>285</ele>
        <time>2018-10-23T10:02:10Z</time>
      </trkpt>
      <trkpt lat="45.96523" lon="4.86685">
        <ele>285</ele>
        <time>2018-10-23T10:02:12Z</time>
      </trkpt>
      <trkpt lat="45.96523" lon="4.86679">
        <ele>285</ele>
        <time>2018-10-23T10:02:13Z</time>
      </trkpt>
      <trkpt lat="45.96522" lon="4.86667">
        <ele>285</ele>
        <time>2018-10-23T10:02:15Z</time>
      </trkpt>
      <trkpt lat="45.96522" lon="4.86661">
        <ele>286</ele>
        <time>2018-10-23T10:02:16Z</time>
      </trkpt>
      <trkpt lat="45.96521" lon="4.86649">
        <ele>287</ele>
        <time>2018-10-23T10:02:18Z</time>
      </trkpt>
      <trkpt lat="45.96521" lon="4.86643">
        <ele>287</ele>
        <time>2018-10-23T10:02:19Z</time>
      </trkpt>
      <trkpt lat="45.96522" lon="4.86631">
        <ele>287</ele>
        <time>2018-10-23T10:02:21Z</time>
      </trkpt>
      <trkpt lat="45.96522" lon="4.86625">
        <ele>287</ele>
        <time>2018-10-23T10:02:22Z</time>
      </trkpt>
      <trkpt lat="45.96524" lon="4.86613">
        <ele>287</ele>
        <time>2018-10-23T10:02:24Z</time>
      </trkpt>
      <trkpt lat="45.96525" lon="4.86607">
        <ele>287</ele>
        <time>2018-10-23T10:02:25Z</time>
      </trkpt>
      <trkpt lat="45.96527" lon="4.86598">
        <ele>287</ele>
        <time>2018-10-23T10:02:27Z</time>
      </trkpt>
      <trkpt lat="45.96528" lon="4.86595">
        <ele>287</ele>
        <time>2018-10-23T10:02:28Z</time>
      </trkpt>
      <trkpt lat="45.96531" lon="4.86587">
        <ele>287</ele>
        <time>2018-10-23T10:02:30Z</time>
      </trkpt>
      <trkpt lat="45.96533" lon="4.86583">
        <ele>288</ele>
        <time>2018-10-23T10:02:31Z</time>
      </trkpt>
      <trkpt lat="45.96536" lon="4.86575">
        <ele>288</ele>
        <time>2018-10-23T10:02:33Z</time>
      </trkpt>
      <trkpt lat="45.96538" lon="4.86571">
        <ele>288</ele>
        <time>2018-10-23T10:02:34Z</time>
      </trkpt>
      <trkpt lat="45.96543" lon="4.86561">
        <ele>288</ele>
        <time>2018-10-23T10:02:38Z</time>
      </trkpt>
      <trkpt lat="45.96544" lon="4.8656">
        <ele>288</ele>
        <time>2018-10-23T10:02:39Z</time>
      </trkpt>
      <trkpt lat="45.96548" lon="4.8655">
        <ele>289</ele>
        <time>2018-10-23T10:02:52Z</time>
      </trkpt>
      <trkpt lat="45.96548" lon="4.86548">
        <ele>289</ele>
        <time>2018-10-23T10:02:53Z</time>
      </trkpt>
      <trkpt lat="45.96551" lon="4.86539">
        <ele>289</ele>
        <time>2018-10-23T10:02:56Z</time>
      </trkpt>
      <trkpt lat="45.96553" lon="4.86536">
        <ele>289</ele>
        <time>2018-10-23T10:02:57Z</time>
      </trkpt>
      <trkpt lat="45.96556" lon="4.86528">
        <ele>289</ele>
        <time>2018-10-23T10:02:59Z</time>
      </trkpt>
      <trkpt lat="45.96558" lon="4.86524">
        <ele>289</ele>
        <time>2018-10-23T10:03:00Z</time>
      </trkpt>
      <trkpt lat="45.96562" lon="4.86513">
        <ele>290</ele>
        <time>2018-10-23T10:03:03Z</time>
      </trkpt>
      <trkpt lat="45.96564" lon="4.86509">
        <ele>290</ele>
        <time>2018-10-23T10:03:04Z</time>
      </trkpt>
      <trkpt lat="45.96567" lon="4.865">
        <ele>290</ele>
        <time>2018-10-23T10:03:05Z</time>
      </trkpt>
      <trkpt lat="45.96568" lon="4.86496">
        <ele>290</ele>
        <time>2018-10-23T10:03:06Z</time>
      </trkpt>
      <trkpt lat="45.96572" lon="4.86485">
        <ele>290</ele>
        <time>2018-10-23T10:03:09Z</time>
      </trkpt>
      <trkpt lat="45.96573" lon="4.86481">
        <ele>290</ele>
        <time>2018-10-23T10:03:10Z</time>
      </trkpt>
      <trkpt lat="45.96574" lon="4.86477">
        <ele>290</ele>
        <time>2018-10-23T10:03:11Z</time>
      </trkpt>
      <trkpt lat="45.96575" lon="4.86468">
        <ele>289</ele>
        <time>2018-10-23T10:03:12Z</time>
      </trkpt>
      <trkpt lat="45.96577" lon="4.86456">
        <ele>289</ele>
        <time>2018-10-23T10:03:14Z</time>
      </trkpt>
      <trkpt lat="45.96578" lon="4.86449">
        <ele>289</ele>
        <time>2018-10-23T10:03:15Z</time>
      </trkpt>
      <trkpt lat="45.96578" lon="4.86442">
        <ele>289</ele>
        <time>2018-10-23T10:03:16Z</time>
      </trkpt>
      <trkpt lat="45.96578" lon="4.86434">
        <ele>289</ele>
        <time>2018-10-23T10:03:17Z</time>
      </trkpt>
      <trkpt lat="45.96578" lon="4.86427">
        <ele>289</ele>
        <time>2018-10-23T10:03:18Z</time>
      </trkpt>
      <trkpt lat="45.96578" lon="4.8642">
        <ele>290</ele>
        <time>2018-10-23T10:03:19Z</time>
      </trkpt>
      <trkpt lat="45.96577" lon="4.86412">
        <ele>289</ele>
        <time>2018-10-23T10:03:20Z</time>
      </trkpt>
      <trkpt lat="45.96578" lon="4.86402">
        <ele>288</ele>
        <time>2018-10-23T10:03:21Z</time>
      </trkpt>
      <trkpt lat="45.96578" lon="4.86394">
        <ele>287</ele>
        <time>2018-10-23T10:03:22Z</time>
      </trkpt>
      <trkpt lat="45.96577" lon="4.86385">
        <ele>287</ele>
        <time>2018-10-23T10:03:23Z</time>
      </trkpt>
      <trkpt lat="45.96577" lon="4.86376">
        <ele>286</ele>
        <time>2018-10-23T10:03:24Z</time>
      </trkpt>
      <trkpt lat="45.96578" lon="4.86367">
        <ele>286</ele>
        <time>2018-10-23T10:03:25Z</time>
      </trkpt>
      <trkpt lat="45.96578" lon="4.86358">
        <ele>285</ele>
        <time>2018-10-23T10:03:26Z</time>
      </trkpt>
      <trkpt lat="45.96578" lon="4.86348">
        <ele>285</ele>
        <time>2018-10-23T10:03:27Z</time>
      </trkpt>
      <trkpt lat="45.96578" lon="4.86339">
        <ele>285</ele>
        <time>2018-10-23T10:03:28Z</time>
      </trkpt>
      <trkpt lat="45.96578" lon="4.8633">
        <ele>284</ele>
        <time>2018-10-23T10:03:29Z</time>
      </trkpt>
      <trkpt lat="45.96579" lon="4.86321">
        <ele>284</ele>
        <time>2018-10-23T10:03:30Z</time>
      </trkpt>
      <trkpt lat="45.96579" lon="4.86312">
        <ele>283</ele>
        <time>2018-10-23T10:03:31Z</time>
      </trkpt>
      <trkpt lat="45.96581" lon="4.86302">
        <ele>283</ele>
        <time>2018-10-23T10:03:32Z</time>
      </trkpt>
      <trkpt lat="45.96582" lon="4.86293">
        <ele>282</ele>
        <time>2018-10-23T10:03:33Z</time>
      </trkpt>
      <trkpt lat="45.96582" lon="4.86283">
        <ele>282</ele>
        <time>2018-10-23T10:03:34Z</time>
      </trkpt>
      <trkpt lat="45.96583" lon="4.86273">
        <ele>282</ele>
        <time>2018-10-23T10:03:35Z</time>
      </trkpt>
      <trkpt lat="45.96584" lon="4.86262">
        <ele>282</ele>
        <time>2018-10-23T10:03:36Z</time>
      </trkpt>
      <trkpt lat="45.96584" lon="4.86251">
        <ele>281</ele>
        <time>2018-10-23T10:03:37Z</time>
      </trkpt>
      <trkpt lat="45.96585" lon="4.8624">
        <ele>282</ele>
        <time>2018-10-23T10:03:38Z</time>
      </trkpt>
      <trkpt lat="45.96586" lon="4.86229">
        <ele>282</ele>
        <time>2018-10-23T10:03:39Z</time>
      </trkpt>
      <trkpt lat="45.96588" lon="4.86217">
        <ele>282</ele>
        <time>2018-10-23T10:03:40Z</time>
      </trkpt>
      <trkpt lat="45.96589" lon="4.86204">
        <ele>282</ele>
        <time>2018-10-23T10:03:41Z</time>
      </trkpt>
      <trkpt lat="45.9659" lon="4.86191">
        <ele>282</ele>
        <time>2018-10-23T10:03:42Z</time>
      </trkpt>
      <trkpt lat="45.96591" lon="4.86176">
        <ele>281</ele>
        <time>2018-10-23T10:03:43Z</time>
      </trkpt>
      <trkpt lat="45.96592" lon="4.86162">
        <ele>281</ele>
        <time>2018-10-23T10:03:44Z</time>
      </trkpt>
      <trkpt lat="45.96593" lon="4.8615">
        <ele>281</ele>
        <time>2018-10-23T10:03:45Z</time>
      </trkpt>
      <trkpt lat="45.96593" lon="4.86136">
        <ele>281</ele>
        <time>2018-10-23T10:03:46Z</time>
      </trkpt>
      <trkpt lat="45.96594" lon="4.86122">
        <ele>281</ele>
        <time>2018-10-23T10:03:47Z</time>
      </trkpt>
      <trkpt lat="45.96594" lon="4.86108">
        <ele>281</ele>
        <time>2018-10-23T10:03:48Z</time>
      </trkpt>
      <trkpt lat="45.96593" lon="4.86095">
        <ele>280</ele>
        <time>2018-10-23T10:03:49Z</time>
      </trkpt>
      <trkpt lat="45.9659" lon="4.86082">
        <ele>279</ele>
        <time>2018-10-23T10:03:50Z</time>
      </trkpt>
      <trkpt lat="45.96586" lon="4.86069">
        <ele>279</ele>
        <time>2018-10-23T10:03:51Z</time>
      </trkpt>
      <trkpt lat="45.9658" lon="4.86056">
        <ele>277</ele>
        <time>2018-10-23T10:03:52Z</time>
      </trkpt>
      <trkpt lat="45.96574" lon="4.86045">
        <ele>276</ele>
        <time>2018-10-23T10:03:53Z</time>
      </trkpt>
      <trkpt lat="45.96569" lon="4.86033">
        <ele>276</ele>
        <time>2018-10-23T10:03:54Z</time>
      </trkpt>
      <trkpt lat="45.96563" lon="4.86022">
        <ele>276</ele>
        <time>2018-10-23T10:03:55Z</time>
      </trkpt>
      <trkpt lat="45.96556" lon="4.86012">
        <ele>276</ele>
        <time>2018-10-23T10:03:56Z</time>
      </trkpt>
      <trkpt lat="45.96551" lon="4.86001">
        <ele>276</ele>
        <time>2018-10-23T10:03:57Z</time>
      </trkpt>
      <trkpt lat="45.96545" lon="4.85989">
        <ele>275</ele>
        <time>2018-10-23T10:03:58Z</time>
      </trkpt>
      <trkpt lat="45.96539" lon="4.85979">
        <ele>275</ele>
        <time>2018-10-23T10:03:59Z</time>
      </trkpt>
      <trkpt lat="45.96534" lon="4.85967">
        <ele>275</ele>
        <time>2018-10-23T10:04:00Z</time>
      </trkpt>
      <trkpt lat="45.96529" lon="4.85955">
        <ele>275</ele>
        <time>2018-10-23T10:04:01Z</time>
      </trkpt>
      <trkpt lat="45.96524" lon="4.85944">
        <ele>275</ele>
        <time>2018-10-23T10:04:02Z</time>
      </trkpt>
      <trkpt lat="45.9652" lon="4.85932">
        <ele>275</ele>
        <time>2018-10-23T10:04:03Z</time>
      </trkpt>
      <trkpt lat="45.96517" lon="4.85918">
        <ele>275</ele>
        <time>2018-10-23T10:04:04Z</time>
      </trkpt>
      <trkpt lat="45.96513" lon="4.85906">
        <ele>275</ele>
        <time>2018-10-23T10:04:05Z</time>
      </trkpt>
      <trkpt lat="45.96511" lon="4.85892">
        <ele>275</ele>
        <time>2018-10-23T10:04:06Z</time>
      </trkpt>
      <trkpt lat="45.96509" lon="4.8588">
        <ele>275</ele>
        <time>2018-10-23T10:04:07Z</time>
      </trkpt>
      <trkpt lat="45.96508" lon="4.85868">
        <ele>275</ele>
        <time>2018-10-23T10:04:08Z</time>
      </trkpt>
      <trkpt lat="45.96507" lon="4.85856">
        <ele>275</ele>
        <time>2018-10-23T10:04:09Z</time>
      </trkpt>
      <trkpt lat="45.96505" lon="4.85844">
        <ele>275</ele>
        <time>2018-10-23T10:04:10Z</time>
      </trkpt>
      <trkpt lat="45.96504" lon="4.85832">
        <ele>275</ele>
        <time>2018-10-23T10:04:11Z</time>
      </trkpt>
      <trkpt lat="45.96502" lon="4.8582">
        <ele>275</ele>
        <time>2018-10-23T10:04:12Z</time>
      </trkpt>
      <trkpt lat="45.965" lon="4.85809">
        <ele>276</ele>
        <time>2018-10-23T10:04:13Z</time>
      </trkpt>
      <trkpt lat="45.96499" lon="4.85798">
        <ele>274</ele>
        <time>2018-10-23T10:04:14Z</time>
      </trkpt>
      <trkpt lat="45.96498" lon="4.85787">
        <ele>274</ele>
        <time>2018-10-23T10:04:15Z</time>
      </trkpt>
      <trkpt lat="45.96495" lon="4.85777">
        <ele>274</ele>
        <time>2018-10-23T10:04:16Z</time>
      </trkpt>
      <trkpt lat="45.96494" lon="4.85766">
        <ele>274</ele>
        <time>2018-10-23T10:04:17Z</time>
      </trkpt>
      <trkpt lat="45.96493" lon="4.85755">
        <ele>274</ele>
        <time>2018-10-23T10:04:18Z</time>
      </trkpt>
      <trkpt lat="45.9649" lon="4.85746">
        <ele>273</ele>
        <time>2018-10-23T10:04:19Z</time>
      </trkpt>
      <trkpt lat="45.96489" lon="4.85735">
        <ele>273</ele>
        <time>2018-10-23T10:04:20Z</time>
      </trkpt>
      <trkpt lat="45.96487" lon="4.85725">
        <ele>273</ele>
        <time>2018-10-23T10:04:21Z</time>
      </trkpt>
      <trkpt lat="45.96486" lon="4.85716">
        <ele>272</ele>
        <time>2018-10-23T10:04:22Z</time>
      </trkpt>
      <trkpt lat="45.96484" lon="4.85707">
        <ele>272</ele>
        <time>2018-10-23T10:04:23Z</time>
      </trkpt>
      <trkpt lat="45.96483" lon="4.85698">
        <ele>272</ele>
        <time>2018-10-23T10:04:24Z</time>
      </trkpt>
      <trkpt lat="45.96482" lon="4.85689">
        <ele>272</ele>
        <time>2018-10-23T10:04:25Z</time>
      </trkpt>
      <trkpt lat="45.96481" lon="4.8568">
        <ele>272</ele>
        <time>2018-10-23T10:04:26Z</time>
      </trkpt>
      <trkpt lat="45.9648" lon="4.85671">
        <ele>272</ele>
        <time>2018-10-23T10:04:27Z</time>
      </trkpt>
      <trkpt lat="45.96478" lon="4.85662">
        <ele>271</ele>
        <time>2018-10-23T10:04:28Z</time>
      </trkpt>
      <trkpt lat="45.96476" lon="4.85655">
        <ele>271</ele>
        <time>2018-10-23T10:04:29Z</time>
      </trkpt>
      <trkpt lat="45.96475" lon="4.85647">
        <ele>271</ele>
        <time>2018-10-23T10:04:30Z</time>
      </trkpt>
      <trkpt lat="45.96474" lon="4.85638">
        <ele>271</ele>
        <time>2018-10-23T10:04:31Z</time>
      </trkpt>
      <trkpt lat="45.96474" lon="4.85631">
        <ele>271</ele>
        <time>2018-10-23T10:04:32Z</time>
      </trkpt>
      <trkpt lat="45.96473" lon="4.85623">
        <ele>271</ele>
        <time>2018-10-23T10:04:33Z</time>
      </trkpt>
      <trkpt lat="45.96472" lon="4.85615">
        <ele>271</ele>
        <time>2018-10-23T10:04:34Z</time>
      </trkpt>
      <trkpt lat="45.96471" lon="4.85607">
        <ele>271</ele>
        <time>2018-10-23T10:04:35Z</time>
      </trkpt>
      <trkpt lat="45.96471" lon="4.85599">
        <ele>271</ele>
        <time>2018-10-23T10:04:36Z</time>
      </trkpt>
      <trkpt lat="45.9647" lon="4.85592">
        <ele>271</ele>
        <time>2018-10-23T10:04:37Z</time>
      </trkpt>
      <trkpt lat="45.9647" lon="4.85584">
        <ele>271</ele>
        <time>2018-10-23T10:04:38Z</time>
      </trkpt>
      <trkpt lat="45.96469" lon="4.85575">
        <ele>272</ele>
        <time>2018-10-23T10:04:39Z</time>
      </trkpt>
      <trkpt lat="45.96469" lon="4.85566">
        <ele>272</ele>
        <time>2018-10-23T10:04:40Z</time>
      </trkpt>
      <trkpt lat="45.96469" lon="4.85558">
        <ele>272</ele>
        <time>2018-10-23T10:04:41Z</time>
      </trkpt>
      <trkpt lat="45.9647" lon="4.8555">
        <ele>272</ele>
        <time>2018-10-23T10:04:42Z</time>
      </trkpt>
      <trkpt lat="45.9647" lon="4.85541">
        <ele>272</ele>
        <time>2018-10-23T10:04:43Z</time>
      </trkpt>
      <trkpt lat="45.96469" lon="4.85532">
        <ele>272</ele>
        <time>2018-10-23T10:04:44Z</time>
      </trkpt>
      <trkpt lat="45.96469" lon="4.85524">
        <ele>272</ele>
        <time>2018-10-23T10:04:45Z</time>
      </trkpt>
      <trkpt lat="45.96469" lon="4.85515">
        <ele>272</ele>
        <time>2018-10-23T10:04:46Z</time>
      </trkpt>
      <trkpt lat="45.96469" lon="4.85505">
        <ele>272</ele>
        <time>2018-10-23T10:04:47Z</time>
      </trkpt>
      <trkpt lat="45.96468" lon="4.85495">
        <ele>272</ele>
        <time>2018-10-23T10:04:48Z</time>
      </trkpt>
      <trkpt lat="45.96468" lon="4.85486">
        <ele>272</ele>
        <time>2018-10-23T10:04:49Z</time>
      </trkpt>
      <trkpt lat="45.96469" lon="4.85476">
        <ele>272</ele>
        <time>2018-10-23T10:04:50Z</time>
      </trkpt>
      <trkpt lat="45.96468" lon="4.85468">
        <ele>272</ele>
        <time>2018-10-23T10:04:51Z</time>
      </trkpt>
      <trkpt lat="45.96468" lon="4.8546">
        <ele>272</ele>
        <time>2018-10-23T10:04:52Z</time>
      </trkpt>
      <trkpt lat="45.96467" lon="4.85452">
        <ele>272</ele>
        <time>2018-10-23T10:04:53Z</time>
      </trkpt>
      <trkpt lat="45.96467" lon="4.85444">
        <ele>272</ele>
        <time>2018-10-23T10:04:54Z</time>
      </trkpt>
      <trkpt lat="45.96466" lon="4.85436">
        <ele>272</ele>
        <time>2018-10-23T10:04:55Z</time>
      </trkpt>
      <trkpt lat="45.96466" lon="4.85429">
        <ele>272</ele>
        <time>2018-10-23T10:04:56Z</time>
      </trkpt>
      <trkpt lat="45.96465" lon="4.85421">
        <ele>272</ele>
        <time>2018-10-23T10:04:57Z</time>
      </trkpt>
      <trkpt lat="45.96465" lon="4.85414">
        <ele>272</ele>
        <time>2018-10-23T10:04:58Z</time>
      </trkpt>
      <trkpt lat="45.96463" lon="4.85406">
        <ele>272</ele>
        <time>2018-10-23T10:04:59Z</time>
      </trkpt>
      <trkpt lat="45.96463" lon="4.85397">
        <ele>272</ele>
        <time>2018-10-23T10:05:00Z</time>
      </trkpt>
      <trkpt lat="45.96463" lon="4.85389">
        <ele>272</ele>
        <time>2018-10-23T10:05:01Z</time>
      </trkpt>
      <trkpt lat="45.96462" lon="4.8538">
        <ele>272</ele>
        <time>2018-10-23T10:05:02Z</time>
      </trkpt>
      <trkpt lat="45.96461" lon="4.85371">
        <ele>272</ele>
        <time>2018-10-23T10:05:03Z</time>
      </trkpt>
      <trkpt lat="45.9646" lon="4.85363">
        <ele>272</ele>
        <time>2018-10-23T10:05:04Z</time>
      </trkpt>
      <trkpt lat="45.96459" lon="4.85355">
        <ele>272</ele>
        <time>2018-10-23T10:05:05Z</time>
      </trkpt>
      <trkpt lat="45.96458" lon="4.85346">
        <ele>272</ele>
        <time>2018-10-23T10:05:06Z</time>
      </trkpt>
      <trkpt lat="45.96457" lon="4.85337">
        <ele>272</ele>
        <time>2018-10-23T10:05:07Z</time>
      </trkpt>
      <trkpt lat="45.96456" lon="4.85328">
        <ele>271</ele>
        <time>2018-10-23T10:05:08Z</time>
      </trkpt>
      <trkpt lat="45.96455" lon="4.85319">
        <ele>271</ele>
        <time>2018-10-23T10:05:09Z</time>
      </trkpt>
      <trkpt lat="45.96454" lon="4.85312">
        <ele>271</ele>
        <time>2018-10-23T10:05:10Z</time>
      </trkpt>
      <trkpt lat="45.96453" lon="4.85304">
        <ele>271</ele>
        <time>2018-10-23T10:05:11Z</time>
      </trkpt>
      <trkpt lat="45.96453" lon="4.85295">
        <ele>270</ele>
        <time>2018-10-23T10:05:12Z</time>
      </trkpt>
      <trkpt lat="45.96453" lon="4.85287">
        <ele>270</ele>
        <time>2018-10-23T10:05:13Z</time>
      </trkpt>
      <trkpt lat="45.96452" lon="4.85279">
        <ele>270</ele>
        <time>2018-10-23T10:05:14Z</time>
      </trkpt>
      <trkpt lat="45.96452" lon="4.85271">
        <ele>270</ele>
        <time>2018-10-23T10:05:15Z</time>
      </trkpt>
      <trkpt lat="45.96453" lon="4.85262">
        <ele>270</ele>
        <time>2018-10-23T10:05:16Z</time>
      </trkpt>
      <trkpt lat="45.96453" lon="4.85252">
        <ele>270</ele>
        <time>2018-10-23T10:05:17Z</time>
      </trkpt>
      <trkpt lat="45.96453" lon="4.85243">
        <ele>269</ele>
        <time>2018-10-23T10:05:18Z</time>
      </trkpt>
      <trkpt lat="45.96453" lon="4.85233">
        <ele>269</ele>
        <time>2018-10-23T10:05:19Z</time>
      </trkpt>
      <trkpt lat="45.96453" lon="4.85223">
        <ele>269</ele>
        <time>2018-10-23T10:05:20Z</time>
      </trkpt>
      <trkpt lat="45.96454" lon="4.85211">
        <ele>269</ele>
        <time>2018-10-23T10:05:21Z</time>
      </trkpt>
      <trkpt lat="45.96454" lon="4.85199">
        <ele>269</ele>
        <time>2018-10-23T10:05:22Z</time>
      </trkpt>
      <trkpt lat="45.96455" lon="4.85189">
        <ele>269</ele>
        <time>2018-10-23T10:05:23Z</time>
      </trkpt>
      <trkpt lat="45.96456" lon="4.85177">
        <ele>269</ele>
        <time>2018-10-23T10:05:24Z</time>
      </trkpt>
      <trkpt lat="45.96458" lon="4.85167">
        <ele>269</ele>
        <time>2018-10-23T10:05:25Z</time>
      </trkpt>
      <trkpt lat="45.9646" lon="4.85157">
        <ele>268</ele>
        <time>2018-10-23T10:05:26Z</time>
      </trkpt>
      <trkpt lat="45.96462" lon="4.85146">
        <ele>268</ele>
        <time>2018-10-23T10:05:27Z</time>
      </trkpt>
      <trkpt lat="45.96465" lon="4.85135">
        <ele>268</ele>
        <time>2018-10-23T10:05:28Z</time>
      </trkpt>
      <trkpt lat="45.96467" lon="4.85125">
        <ele>268</ele>
        <time>2018-10-23T10:05:29Z</time>
      </trkpt>
      <trkpt lat="45.96469" lon="4.85114">
        <ele>268</ele>
        <time>2018-10-23T10:05:30Z</time>
      </trkpt>
      <trkpt lat="45.9647" lon="4.85103">
        <ele>268</ele>
        <time>2018-10-23T10:05:31Z</time>
      </trkpt>
      <trkpt lat="45.96471" lon="4.85091">
        <ele>268</ele>
        <time>2018-10-23T10:05:32Z</time>
      </trkpt>
      <trkpt lat="45.9647" lon="4.8508">
        <ele>267</ele>
        <time>2018-10-23T10:05:33Z</time>
      </trkpt>
      <trkpt lat="45.96471" lon="4.85069">
        <ele>266</ele>
        <time>2018-10-23T10:05:34Z</time>
      </trkpt>
      <trkpt lat="45.96471" lon="4.85057">
        <ele>266</ele>
        <time>2018-10-23T10:05:35Z</time>
      </trkpt>
      <trkpt lat="45.96471" lon="4.85045">
        <ele>266</ele>
        <time>2018-10-23T10:05:36Z</time>
      </trkpt>
      <trkpt lat="45.96471" lon="4.85032">
        <ele>266</ele>
        <time>2018-10-23T10:05:37Z</time>
      </trkpt>
      <trkpt lat="45.96472" lon="4.8502">
        <ele>266</ele>
        <time>2018-10-23T10:05:38Z</time>
      </trkpt>
      <trkpt lat="45.96473" lon="4.85007">
        <ele>266</ele>
        <time>2018-10-23T10:05:39Z</time>
      </trkpt>
      <trkpt lat="45.96474" lon="4.84995">
        <ele>263</ele>
        <time>2018-10-23T10:05:40Z</time>
      </trkpt>
      <trkpt lat="45.96476" lon="4.84981">
        <ele>262</ele>
        <time>2018-10-23T10:05:41Z</time>
      </trkpt>
      <trkpt lat="45.96479" lon="4.84967">
        <ele>262</ele>
        <time>2018-10-23T10:05:42Z</time>
      </trkpt>
      <trkpt lat="45.96481" lon="4.84956">
        <ele>261</ele>
        <time>2018-10-23T10:05:43Z</time>
      </trkpt>
      <trkpt lat="45.96484" lon="4.84943">
        <ele>260</ele>
        <time>2018-10-23T10:05:44Z</time>
      </trkpt>
      <trkpt lat="45.96488" lon="4.84931">
        <ele>259</ele>
        <time>2018-10-23T10:05:45Z</time>
      </trkpt>
      <trkpt lat="45.96491" lon="4.84917">
        <ele>258</ele>
        <time>2018-10-23T10:05:46Z</time>
      </trkpt>
      <trkpt lat="45.96493" lon="4.84905">
        <ele>256</ele>
        <time>2018-10-23T10:05:47Z</time>
      </trkpt>
      <trkpt lat="45.96496" lon="4.84891">
        <ele>256</ele>
        <time>2018-10-23T10:05:48Z</time>
      </trkpt>
      <trkpt lat="45.965" lon="4.84877">
        <ele>255</ele>
        <time>2018-10-23T10:05:49Z</time>
      </trkpt>
      <trkpt lat="45.96503" lon="4.84864">
        <ele>257</ele>
        <time>2018-10-23T10:05:50Z</time>
      </trkpt>
      <trkpt lat="45.96505" lon="4.84852">
        <ele>256</ele>
        <time>2018-10-23T10:05:51Z</time>
      </trkpt>
      <trkpt lat="45.96508" lon="4.84839">
        <ele>255</ele>
        <time>2018-10-23T10:05:52Z</time>
      </trkpt>
      <trkpt lat="45.96511" lon="4.84828">
        <ele>254</ele>
        <time>2018-10-23T10:05:53Z</time>
      </trkpt>
      <trkpt lat="45.96513" lon="4.84815">
        <ele>254</ele>
        <time>2018-10-23T10:05:54Z</time>
      </trkpt>
      <trkpt lat="45.96516" lon="4.84803">
        <ele>254</ele>
        <time>2018-10-23T10:05:55Z</time>
      </trkpt>
      <trkpt lat="45.96518" lon="4.8479">
        <ele>254</ele>
        <time>2018-10-23T10:05:56Z</time>
      </trkpt>
      <trkpt lat="45.96521" lon="4.84777">
        <ele>254</ele>
        <time>2018-10-23T10:05:57Z</time>
      </trkpt>
      <trkpt lat="45.96524" lon="4.84765">
        <ele>253</ele>
        <time>2018-10-23T10:05:58Z</time>
      </trkpt>
      <trkpt lat="45.96528" lon="4.84751">
        <ele>253</ele>
        <time>2018-10-23T10:05:59Z</time>
      </trkpt>
      <trkpt lat="45.9653" lon="4.84739">
        <ele>253</ele>
        <time>2018-10-23T10:06:00Z</time>
      </trkpt>
      <trkpt lat="45.96531" lon="4.84726">
        <ele>253</ele>
        <time>2018-10-23T10:06:01Z</time>
      </trkpt>
      <trkpt lat="45.96531" lon="4.84714">
        <ele>253</ele>
        <time>2018-10-23T10:06:02Z</time>
      </trkpt>
      <trkpt lat="45.96531" lon="4.84703">
        <ele>253</ele>
        <time>2018-10-23T10:06:03Z</time>
      </trkpt>
      <trkpt lat="45.9653" lon="4.84691">
        <ele>253</ele>
        <time>2018-10-23T10:06:04Z</time>
      </trkpt>
      <trkpt lat="45.96528" lon="4.8468">
        <ele>252</ele>
        <time>2018-10-23T10:06:05Z</time>
      </trkpt>
      <trkpt lat="45.96526" lon="4.84668">
        <ele>252</ele>
        <time>2018-10-23T10:06:06Z</time>
      </trkpt>
      <trkpt lat="45.96525" lon="4.84657">
        <ele>252</ele>
        <time>2018-10-23T10:06:07Z</time>
      </trkpt>
      <trkpt lat="45.96524" lon="4.84646">
        <ele>252</ele>
        <time>2018-10-23T10:06:08Z</time>
      </trkpt>
      <trkpt lat="45.96524" lon="4.84635">
        <ele>252</ele>
        <time>2018-10-23T10:06:09Z</time>
      </trkpt>
      <trkpt lat="45.96523" lon="4.84625">
        <ele>252</ele>
        <time>2018-10-23T10:06:10Z</time>
      </trkpt>
      <trkpt lat="45.96523" lon="4.84615">
        <ele>252</ele>
        <time>2018-10-23T10:06:11Z</time>
      </trkpt>
      <trkpt lat="45.96523" lon="4.84605">
        <ele>252</ele>
        <time>2018-10-23T10:06:12Z</time>
      </trkpt>
      <trkpt lat="45.96524" lon="4.84595">
        <ele>252</ele>
        <time>2018-10-23T10:06:13Z</time>
      </trkpt>
      <trkpt lat="45.96523" lon="4.84586">
        <ele>252</ele>
        <time>2018-10-23T10:06:14Z</time>
      </trkpt>
      <trkpt lat="45.96523" lon="4.84577">
        <ele>253</ele>
        <time>2018-10-23T10:06:15Z</time>
      </trkpt>
      <trkpt lat="45.96524" lon="4.84568">
        <ele>253</ele>
        <time>2018-10-23T10:06:16Z</time>
      </trkpt>
      <trkpt lat="45.96524" lon="4.8456">
        <ele>253</ele>
        <time>2018-10-23T10:06:17Z</time>
      </trkpt>
      <trkpt lat="45.96525" lon="4.84551">
        <ele>253</ele>
        <time>2018-10-23T10:06:18Z</time>
      </trkpt>
      <trkpt lat="45.96525" lon="4.84542">
        <ele>253</ele>
        <time>2018-10-23T10:06:19Z</time>
      </trkpt>
      <trkpt lat="45.96525" lon="4.84531">
        <ele>253</ele>
        <time>2018-10-23T10:06:20Z</time>
      </trkpt>
      <trkpt lat="45.96526" lon="4.84522">
        <ele>253</ele>
        <time>2018-10-23T10:06:21Z</time>
      </trkpt>
      <trkpt lat="45.96527" lon="4.84513">
        <ele>253</ele>
        <time>2018-10-23T10:06:22Z</time>
      </trkpt>
      <trkpt lat="45.96528" lon="4.84503">
        <ele>253</ele>
        <time>2018-10-23T10:06:23Z</time>
      </trkpt>
      <trkpt lat="45.96529" lon="4.84493">
        <ele>253</ele>
        <time>2018-10-23T10:06:24Z</time>
      </trkpt>
      <trkpt lat="45.96529" lon="4.84483">
        <ele>253</ele>
        <time>2018-10-23T10:06:25Z</time>
      </trkpt>
      <trkpt lat="45.9653" lon="4.84473">
        <ele>253</ele>
        <time>2018-10-23T10:06:26Z</time>
      </trkpt>
      <trkpt lat="45.96531" lon="4.84464">
        <ele>253</ele>
        <time>2018-10-23T10:06:27Z</time>
      </trkpt>
      <trkpt lat="45.96531" lon="4.84454">
        <ele>253</ele>
        <time>2018-10-23T10:06:28Z</time>
      </trkpt>
      <trkpt lat="45.96532" lon="4.84445">
        <ele>253</ele>
        <time>2018-10-23T10:06:29Z</time>
      </trkpt>
      <trkpt lat="45.96533" lon="4.84436">
        <ele>253</ele>
        <time>2018-10-23T10:06:30Z</time>
      </trkpt>
      <trkpt lat="45.96533" lon="4.84428">
        <ele>253</ele>
        <time>2018-10-23T10:06:31Z</time>
      </trkpt>
      <trkpt lat="45.96533" lon="4.8442">
        <ele>253</ele>
        <time>2018-10-23T10:06:32Z</time>
      </trkpt>
      <trkpt lat="45.96534" lon="4.84412">
        <ele>252</ele>
        <time>2018-10-23T10:06:33Z</time>
      </trkpt>
      <trkpt lat="45.96534" lon="4.84403">
        <ele>252</ele>
        <time>2018-10-23T10:06:34Z</time>
      </trkpt>
      <trkpt lat="45.96535" lon="4.84393">
        <ele>252</ele>
        <time>2018-10-23T10:06:35Z</time>
      </trkpt>
      <trkpt lat="45.96535" lon="4.84384">
        <ele>252</ele>
        <time>2018-10-23T10:06:36Z</time>
      </trkpt>
      <trkpt lat="45.96535" lon="4.84376">
        <ele>251</ele>
        <time>2018-10-23T10:06:37Z</time>
      </trkpt>
      <trkpt lat="45.96534" lon="4.84367">
        <ele>251</ele>
        <time>2018-10-23T10:06:38Z</time>
      </trkpt>
      <trkpt lat="45.96533" lon="4.84359">
        <ele>251</ele>
        <time>2018-10-23T10:06:39Z</time>
      </trkpt>
      <trkpt lat="45.96531" lon="4.8435">
        <ele>251</ele>
        <time>2018-10-23T10:06:40Z</time>
      </trkpt>
      <trkpt lat="45.9653" lon="4.84341">
        <ele>251</ele>
        <time>2018-10-23T10:06:41Z</time>
      </trkpt>
      <trkpt lat="45.96528" lon="4.84334">
        <ele>251</ele>
        <time>2018-10-23T10:06:42Z</time>
      </trkpt>
      <trkpt lat="45.96526" lon="4.84326">
        <ele>250</ele>
        <time>2018-10-23T10:06:43Z</time>
      </trkpt>
      <trkpt lat="45.96524" lon="4.84317">
        <ele>250</ele>
        <time>2018-10-23T10:06:44Z</time>
      </trkpt>
      <trkpt lat="45.96522" lon="4.84309">
        <ele>250</ele>
        <time>2018-10-23T10:06:45Z</time>
      </trkpt>
      <trkpt lat="45.96521" lon="4.84302">
        <ele>250</ele>
        <time>2018-10-23T10:06:46Z</time>
      </trkpt>
      <trkpt lat="45.96519" lon="4.84293">
        <ele>250</ele>
        <time>2018-10-23T10:06:47Z</time>
      </trkpt>
      <trkpt lat="45.96518" lon="4.84285">
        <ele>250</ele>
        <time>2018-10-23T10:06:48Z</time>
      </trkpt>
      <trkpt lat="45.96516" lon="4.84278">
        <ele>250</ele>
        <time>2018-10-23T10:06:49Z</time>
      </trkpt>
      <trkpt lat="45.96514" lon="4.8427">
        <ele>250</ele>
        <time>2018-10-23T10:06:50Z</time>
      </trkpt>
      <trkpt lat="45.96512" lon="4.84263">
        <ele>250</ele>
        <time>2018-10-23T10:06:51Z</time>
      </trkpt>
      <trkpt lat="45.96511" lon="4.84255">
        <ele>251</ele>
        <time>2018-10-23T10:06:52Z</time>
      </trkpt>
      <trkpt lat="45.9651" lon="4.84247">
        <ele>250</ele>
        <time>2018-10-23T10:06:53Z</time>
      </trkpt>
      <trkpt lat="45.96508" lon="4.84239">
        <ele>250</ele>
        <time>2018-10-23T10:06:54Z</time>
      </trkpt>
      <trkpt lat="45.96506" lon="4.84231">
        <ele>250</ele>
        <time>2018-10-23T10:06:55Z</time>
      </trkpt>
      <trkpt lat="45.96504" lon="4.84223">
        <ele>249</ele>
        <time>2018-10-23T10:06:56Z</time>
      </trkpt>
      <trkpt lat="45.96503" lon="4.84215">
        <ele>249</ele>
        <time>2018-10-23T10:06:57Z</time>
      </trkpt>
      <trkpt lat="45.96502" lon="4.84208">
        <ele>249</ele>
        <time>2018-10-23T10:06:58Z</time>
      </trkpt>
      <trkpt lat="45.96499" lon="4.84202">
        <ele>251</ele>
        <time>2018-10-23T10:06:59Z</time>
      </trkpt>
      <trkpt lat="45.96497" lon="4.84195">
        <ele>251</ele>
        <time>2018-10-23T10:07:00Z</time>
      </trkpt>
      <trkpt lat="45.96496" lon="4.84188">
        <ele>251</ele>
        <time>2018-10-23T10:07:01Z</time>
      </trkpt>
      <trkpt lat="45.96494" lon="4.84181">
        <ele>251</ele>
        <time>2018-10-23T10:07:02Z</time>
      </trkpt>
      <trkpt lat="45.96492" lon="4.84175">
        <ele>250</ele>
        <time>2018-10-23T10:07:03Z</time>
      </trkpt>
      <trkpt lat="45.96491" lon="4.84166">
        <ele>250</ele>
        <time>2018-10-23T10:07:04Z</time>
      </trkpt>
      <trkpt lat="45.96489" lon="4.8416">
        <ele>250</ele>
        <time>2018-10-23T10:07:05Z</time>
      </trkpt>
      <trkpt lat="45.96486" lon="4.84152">
        <ele>250</ele>
        <time>2018-10-23T10:07:06Z</time>
      </trkpt>
      <trkpt lat="45.96484" lon="4.84144">
        <ele>251</ele>
        <time>2018-10-23T10:07:07Z</time>
      </trkpt>
      <trkpt lat="45.96482" lon="4.84136">
        <ele>251</ele>
        <time>2018-10-23T10:07:08Z</time>
      </trkpt>
      <trkpt lat="45.9648" lon="4.84127">
        <ele>251</ele>
        <time>2018-10-23T10:07:09Z</time>
      </trkpt>
      <trkpt lat="45.96477" lon="4.8412">
        <ele>251</ele>
        <time>2018-10-23T10:07:10Z</time>
      </trkpt>
      <trkpt lat="45.96475" lon="4.84112">
        <ele>251</ele>
        <time>2018-10-23T10:07:11Z</time>
      </trkpt>
      <trkpt lat="45.96473" lon="4.84103">
        <ele>251</ele>
        <time>2018-10-23T10:07:12Z</time>
      </trkpt>
      <trkpt lat="45.9647" lon="4.84096">
        <ele>251</ele>
        <time>2018-10-23T10:07:13Z</time>
      </trkpt>
      <trkpt lat="45.96468" lon="4.84088">
        <ele>251</ele>
        <time>2018-10-23T10:07:14Z</time>
      </trkpt>
      <trkpt lat="45.96464" lon="4.8408">
        <ele>250</ele>
        <time>2018-10-23T10:07:15Z</time>
      </trkpt>
      <trkpt lat="45.96461" lon="4.84071">
        <ele>251</ele>
        <time>2018-10-23T10:07:16Z</time>
      </trkpt>
      <trkpt lat="45.96458" lon="4.84063">
        <ele>251</ele>
        <time>2018-10-23T10:07:17Z</time>
      </trkpt>
      <trkpt lat="45.96455" lon="4.84054">
        <ele>251</ele>
        <time>2018-10-23T10:07:18Z</time>
      </trkpt>
      <trkpt lat="45.96453" lon="4.84046">
        <ele>251</ele>
        <time>2018-10-23T10:07:19Z</time>
      </trkpt>
      <trkpt lat="45.96449" lon="4.84038">
        <ele>251</ele>
        <time>2018-10-23T10:07:20Z</time>
      </trkpt>
      <trkpt lat="45.96446" lon="4.8403">
        <ele>251</ele>
        <time>2018-10-23T10:07:21Z</time>
      </trkpt>
      <trkpt lat="45.96443" lon="4.84021">
        <ele>251</ele>
        <time>2018-10-23T10:07:22Z</time>
      </trkpt>
      <trkpt lat="45.9644" lon="4.84014">
        <ele>251</ele>
        <time>2018-10-23T10:07:23Z</time>
      </trkpt>
      <trkpt lat="45.96435" lon="4.84005">
        <ele>252</ele>
        <time>2018-10-23T10:07:24Z</time>
      </trkpt>
      <trkpt lat="45.96431" lon="4.83996">
        <ele>251</ele>
        <time>2018-10-23T10:07:25Z</time>
      </trkpt>
      <trkpt lat="45.96427" lon="4.83987">
        <ele>251</ele>
        <time>2018-10-23T10:07:26Z</time>
      </trkpt>
      <trkpt lat="45.96423" lon="4.83978">
        <ele>250</ele>
        <time>2018-10-23T10:07:27Z</time>
      </trkpt>
      <trkpt lat="45.9642" lon="4.83969">
        <ele>250</ele>
        <time>2018-10-23T10:07:28Z</time>
      </trkpt>
      <trkpt lat="45.96415" lon="4.83959">
        <ele>252</ele>
        <time>2018-10-23T10:07:29Z</time>
      </trkpt>
      <trkpt lat="45.9641" lon="4.83949">
        <ele>252</ele>
        <time>2018-10-23T10:07:30Z</time>
      </trkpt>
      <trkpt lat="45.96406" lon="4.8394">
        <ele>251</ele>
        <time>2018-10-23T10:07:31Z</time>
      </trkpt>
      <trkpt lat="45.96401" lon="4.8393">
        <ele>250</ele>
        <time>2018-10-23T10:07:32Z</time>
      </trkpt>
      <trkpt lat="45.96397" lon="4.83922">
        <ele>250</ele>
        <time>2018-10-23T10:07:33Z</time>
      </trkpt>
      <trkpt lat="45.96394" lon="4.83911">
        <ele>248</ele>
        <time>2018-10-23T10:07:34Z</time>
      </trkpt>
      <trkpt lat="45.96389" lon="4.83902">
        <ele>248</ele>
        <time>2018-10-23T10:07:35Z</time>
      </trkpt>
      <trkpt lat="45.96385" lon="4.83892">
        <ele>248</ele>
        <time>2018-10-23T10:07:36Z</time>
      </trkpt>
      <trkpt lat="45.9638" lon="4.83883">
        <ele>247</ele>
        <time>2018-10-23T10:07:37Z</time>
      </trkpt>
      <trkpt lat="45.96375" lon="4.83873">
        <ele>247</ele>
        <time>2018-10-23T10:07:38Z</time>
      </trkpt>
      <trkpt lat="45.9637" lon="4.83862">
        <ele>247</ele>
        <time>2018-10-23T10:07:39Z</time>
      </trkpt>
      <trkpt lat="45.96365" lon="4.83852">
        <ele>246</ele>
        <time>2018-10-23T10:07:40Z</time>
      </trkpt>
      <trkpt lat="45.96359" lon="4.83842">
        <ele>246</ele>
        <time>2018-10-23T10:07:41Z</time>
      </trkpt>
      <trkpt lat="45.96353" lon="4.83833">
        <ele>246</ele>
        <time>2018-10-23T10:07:42Z</time>
      </trkpt>
      <trkpt lat="45.96346" lon="4.83825">
        <ele>245</ele>
        <time>2018-10-23T10:07:43Z</time>
      </trkpt>
      <trkpt lat="45.9634" lon="4.83817">
        <ele>245</ele>
        <time>2018-10-23T10:07:44Z</time>
      </trkpt>
      <trkpt lat="45.96333" lon="4.83811">
        <ele>244</ele>
        <time>2018-10-23T10:07:45Z</time>
      </trkpt>
      <trkpt lat="45.96326" lon="4.83804">
        <ele>245</ele>
        <time>2018-10-23T10:07:46Z</time>
      </trkpt>
      <trkpt lat="45.96319" lon="4.83798">
        <ele>245</ele>
        <time>2018-10-23T10:07:47Z</time>
      </trkpt>
      <trkpt lat="45.96313" lon="4.83792">
        <ele>245</ele>
        <time>2018-10-23T10:07:48Z</time>
      </trkpt>
      <trkpt lat="45.96306" lon="4.83785">
        <ele>245</ele>
        <time>2018-10-23T10:07:49Z</time>
      </trkpt>
      <trkpt lat="45.963" lon="4.83781">
        <ele>245</ele>
        <time>2018-10-23T10:07:50Z</time>
      </trkpt>
      <trkpt lat="45.96294" lon="4.83776">
        <ele>245</ele>
        <time>2018-10-23T10:07:51Z</time>
      </trkpt>
      <trkpt lat="45.96287" lon="4.83771">
        <ele>245</ele>
        <time>2018-10-23T10:07:52Z</time>
      </trkpt>
      <trkpt lat="45.96281" lon="4.83765">
        <ele>245</ele>
        <time>2018-10-23T10:07:53Z</time>
      </trkpt>
      <trkpt lat="45.96275" lon="4.83759">
        <ele>245</ele>
        <time>2018-10-23T10:07:54Z</time>
      </trkpt>
      <trkpt lat="45.9627" lon="4.83754">
        <ele>245</ele>
        <time>2018-10-23T10:07:55Z</time>
      </trkpt>
      <trkpt lat="45.96265" lon="4.83749">
        <ele>245</ele>
        <time>2018-10-23T10:07:56Z</time>
      </trkpt>
      <trkpt lat="45.96259" lon="4.83743">
        <ele>245</ele>
        <time>2018-10-23T10:07:57Z</time>
      </trkpt>
      <trkpt lat="45.96254" lon="4.83737">
        <ele>245</ele>
        <time>2018-10-23T10:07:58Z</time>
      </trkpt>
      <trkpt lat="45.96249" lon="4.83731">
        <ele>244</ele>
        <time>2018-10-23T10:07:59Z</time>
      </trkpt>
      <trkpt lat="45.96244" lon="4.83725">
        <ele>244</ele>
        <time>2018-10-23T10:08:00Z</time>
      </trkpt>
      <trkpt lat="45.9624" lon="4.8372">
        <ele>244</ele>
        <time>2018-10-23T10:08:01Z</time>
      </trkpt>
      <trkpt lat="45.96235" lon="4.83716">
        <ele>244</ele>
        <time>2018-10-23T10:08:02Z</time>
      </trkpt>
      <trkpt lat="45.9623" lon="4.83711">
        <ele>244</ele>
        <time>2018-10-23T10:08:03Z</time>
      </trkpt>
      <trkpt lat="45.96225" lon="4.83706">
        <ele>244</ele>
        <time>2018-10-23T10:08:04Z</time>
      </trkpt>
      <trkpt lat="45.96221" lon="4.837">
        <ele>244</ele>
        <time>2018-10-23T10:08:05Z</time>
      </trkpt>
      <trkpt lat="45.96216" lon="4.83695">
        <ele>243</ele>
        <time>2018-10-23T10:08:06Z</time>
      </trkpt>
      <trkpt lat="45.96211" lon="4.83689">
        <ele>243</ele>
        <time>2018-10-23T10:08:07Z</time>
      </trkpt>
      <trkpt lat="45.96206" lon="4.83683">
        <ele>243</ele>
        <time>2018-10-23T10:08:08Z</time>
      </trkpt>
      <trkpt lat="45.96201" lon="4.83678">
        <ele>243</ele>
        <time>2018-10-23T10:08:09Z</time>
      </trkpt>
      <trkpt lat="45.96196" lon="4.83672">
        <ele>243</ele>
        <time>2018-10-23T10:08:10Z</time>
      </trkpt>
      <trkpt lat="45.96191" lon="4.83667">
        <ele>242</ele>
        <time>2018-10-23T10:08:11Z</time>
      </trkpt>
      <trkpt lat="45.96186" lon="4.83661">
        <ele>242</ele>
        <time>2018-10-23T10:08:12Z</time>
      </trkpt>
      <trkpt lat="45.96181" lon="4.83654">
        <ele>242</ele>
        <time>2018-10-23T10:08:13Z</time>
      </trkpt>
      <trkpt lat="45.96176" lon="4.83648">
        <ele>242</ele>
        <time>2018-10-23T10:08:14Z</time>
      </trkpt>
      <trkpt lat="45.96172" lon="4.83642">
        <ele>242</ele>
        <time>2018-10-23T10:08:15Z</time>
      </trkpt>
      <trkpt lat="45.96169" lon="4.83634">
        <ele>241</ele>
        <time>2018-10-23T10:08:16Z</time>
      </trkpt>
      <trkpt lat="45.96166" lon="4.83626">
        <ele>242</ele>
        <time>2018-10-23T10:08:17Z</time>
      </trkpt>
      <trkpt lat="45.96164" lon="4.83618">
        <ele>242</ele>
        <time>2018-10-23T10:08:18Z</time>
      </trkpt>
      <trkpt lat="45.96162" lon="4.83609">
        <ele>242</ele>
        <time>2018-10-23T10:08:19Z</time>
      </trkpt>
      <trkpt lat="45.9616" lon="4.83601">
        <ele>242</ele>
        <time>2018-10-23T10:08:20Z</time>
      </trkpt>
      <trkpt lat="45.96158" lon="4.83593">
        <ele>241</ele>
        <time>2018-10-23T10:08:21Z</time>
      </trkpt>
      <trkpt lat="45.96156" lon="4.83585">
        <ele>241</ele>
        <time>2018-10-23T10:08:22Z</time>
      </trkpt>
      <trkpt lat="45.96154" lon="4.83577">
        <ele>241</ele>
        <time>2018-10-23T10:08:23Z</time>
      </trkpt>
      <trkpt lat="45.96152" lon="4.83568">
        <ele>241</ele>
        <time>2018-10-23T10:08:24Z</time>
      </trkpt>
      <trkpt lat="45.9615" lon="4.83561">
        <ele>241</ele>
        <time>2018-10-23T10:08:25Z</time>
      </trkpt>
      <trkpt lat="45.96148" lon="4.83552">
        <ele>241</ele>
        <time>2018-10-23T10:08:26Z</time>
      </trkpt>
      <trkpt lat="45.96146" lon="4.83543">
        <ele>242</ele>
        <time>2018-10-23T10:08:27Z</time>
      </trkpt>
      <trkpt lat="45.96144" lon="4.83535">
        <ele>242</ele>
        <time>2018-10-23T10:08:28Z</time>
      </trkpt>
      <trkpt lat="45.96142" lon="4.83525">
        <ele>242</ele>
        <time>2018-10-23T10:08:29Z</time>
      </trkpt>
      <trkpt lat="45.9614" lon="4.83516">
        <ele>241</ele>
        <time>2018-10-23T10:08:30Z</time>
      </trkpt>
      <trkpt lat="45.96138" lon="4.83505">
        <ele>241</ele>
        <time>2018-10-23T10:08:31Z</time>
      </trkpt>
      <trkpt lat="45.96136" lon="4.83495">
        <ele>242</ele>
        <time>2018-10-23T10:08:32Z</time>
      </trkpt>
      <trkpt lat="45.96135" lon="4.83484">
        <ele>242</ele>
        <time>2018-10-23T10:08:33Z</time>
      </trkpt>
      <trkpt lat="45.96132" lon="4.83474">
        <ele>242</ele>
        <time>2018-10-23T10:08:34Z</time>
      </trkpt>
      <trkpt lat="45.9613" lon="4.83464">
        <ele>242</ele>
        <time>2018-10-23T10:08:35Z</time>
      </trkpt>
      <trkpt lat="45.96128" lon="4.83454">
        <ele>242</ele>
        <time>2018-10-23T10:08:36Z</time>
      </trkpt>
      <trkpt lat="45.96126" lon="4.83444">
        <ele>242</ele>
        <time>2018-10-23T10:08:37Z</time>
      </trkpt>
      <trkpt lat="45.96122" lon="4.83435">
        <ele>242</ele>
        <time>2018-10-23T10:08:38Z</time>
      </trkpt>
      <trkpt lat="45.9612" lon="4.83425">
        <ele>243</ele>
        <time>2018-10-23T10:08:39Z</time>
      </trkpt>
      <trkpt lat="45.96117" lon="4.83414">
        <ele>243</ele>
        <time>2018-10-23T10:08:40Z</time>
      </trkpt>
      <trkpt lat="45.96115" lon="4.83405">
        <ele>243</ele>
        <time>2018-10-23T10:08:41Z</time>
      </trkpt>
      <trkpt lat="45.96113" lon="4.83396">
        <ele>243</ele>
        <time>2018-10-23T10:08:42Z</time>
      </trkpt>
      <trkpt lat="45.96112" lon="4.83386">
        <ele>243</ele>
        <time>2018-10-23T10:08:43Z</time>
      </trkpt>
      <trkpt lat="45.96109" lon="4.83377">
        <ele>242</ele>
        <time>2018-10-23T10:08:44Z</time>
      </trkpt>
      <trkpt lat="45.96106" lon="4.83367">
        <ele>242</ele>
        <time>2018-10-23T10:08:45Z</time>
      </trkpt>
      <trkpt lat="45.96104" lon="4.83356">
        <ele>242</ele>
        <time>2018-10-23T10:08:46Z</time>
      </trkpt>
      <trkpt lat="45.96103" lon="4.83346">
        <ele>242</ele>
        <time>2018-10-23T10:08:47Z</time>
      </trkpt>
      <trkpt lat="45.96102" lon="4.83337">
        <ele>242</ele>
        <time>2018-10-23T10:08:48Z</time>
      </trkpt>
      <trkpt lat="45.961" lon="4.83328">
        <ele>241</ele>
        <time>2018-10-23T10:08:49Z</time>
      </trkpt>
      <trkpt lat="45.96099" lon="4.83318">
        <ele>241</ele>
        <time>2018-10-23T10:08:50Z</time>
      </trkpt>
      <trkpt lat="45.96098" lon="4.83309">
        <ele>241</ele>
        <time>2018-10-23T10:08:51Z</time>
      </trkpt>
      <trkpt lat="45.96095" lon="4.83301">
        <ele>241</ele>
        <time>2018-10-23T10:08:52Z</time>
      </trkpt>
      <trkpt lat="45.96096" lon="4.83291">
        <ele>241</ele>
        <time>2018-10-23T10:08:53Z</time>
      </trkpt>
      <trkpt lat="45.96095" lon="4.83281">
        <ele>241</ele>
        <time>2018-10-23T10:08:54Z</time>
      </trkpt>
      <trkpt lat="45.96095" lon="4.83271">
        <ele>241</ele>
        <time>2018-10-23T10:08:55Z</time>
      </trkpt>
      <trkpt lat="45.96095" lon="4.83262">
        <ele>241</ele>
        <time>2018-10-23T10:08:56Z</time>
      </trkpt>
      <trkpt lat="45.96092" lon="4.83253">
        <ele>240</ele>
        <time>2018-10-23T10:08:57Z</time>
      </trkpt>
      <trkpt lat="45.96092" lon="4.83242">
        <ele>240</ele>
        <time>2018-10-23T10:08:58Z</time>
      </trkpt>
      <trkpt lat="45.96092" lon="4.83232">
        <ele>240</ele>
        <time>2018-10-23T10:08:59Z</time>
      </trkpt>
      <trkpt lat="45.96092" lon="4.83222">
        <ele>240</ele>
        <time>2018-10-23T10:09:00Z</time>
      </trkpt>
      <trkpt lat="45.96092" lon="4.83211">
        <ele>240</ele>
        <time>2018-10-23T10:09:01Z</time>
      </trkpt>
      <trkpt lat="45.96091" lon="4.83201">
        <ele>240</ele>
        <time>2018-10-23T10:09:02Z</time>
      </trkpt>
      <trkpt lat="45.96091" lon="4.83191">
        <ele>240</ele>
        <time>2018-10-23T10:09:03Z</time>
      </trkpt>
      <trkpt lat="45.96091" lon="4.83181">
        <ele>240</ele>
        <time>2018-10-23T10:09:04Z</time>
      </trkpt>
      <trkpt lat="45.9609" lon="4.83173">
        <ele>240</ele>
        <time>2018-10-23T10:09:05Z</time>
      </trkpt>
      <trkpt lat="45.9609" lon="4.83163">
        <ele>240</ele>
        <time>2018-10-23T10:09:06Z</time>
      </trkpt>
      <trkpt lat="45.9609" lon="4.83155">
        <ele>240</ele>
        <time>2018-10-23T10:09:07Z</time>
      </trkpt>
      <trkpt lat="45.96089" lon="4.83146">
        <ele>240</ele>
        <time>2018-10-23T10:09:08Z</time>
      </trkpt>
      <trkpt lat="45.96088" lon="4.83137">
        <ele>240</ele>
        <time>2018-10-23T10:09:09Z</time>
      </trkpt>
      <trkpt lat="45.96088" lon="4.83129">
        <ele>240</ele>
        <time>2018-10-23T10:09:10Z</time>
      </trkpt>
      <trkpt lat="45.96088" lon="4.83121">
        <ele>240</ele>
        <time>2018-10-23T10:09:11Z</time>
      </trkpt>
      <trkpt lat="45.96088" lon="4.83112">
        <ele>240</ele>
        <time>2018-10-23T10:09:12Z</time>
      </trkpt>
      <trkpt lat="45.96086" lon="4.83104">
        <ele>240</ele>
        <time>2018-10-23T10:09:13Z</time>
      </trkpt>
      <trkpt lat="45.96085" lon="4.83096">
        <ele>240</ele>
        <time>2018-10-23T10:09:14Z</time>
      </trkpt>
      <trkpt lat="45.96085" lon="4.83087">
        <ele>240</ele>
        <time>2018-10-23T10:09:15Z</time>
      </trkpt>
      <trkpt lat="45.96083" lon="4.83079">
        <ele>241</ele>
        <time>2018-10-23T10:09:16Z</time>
      </trkpt>
      <trkpt lat="45.96082" lon="4.83072">
        <ele>241</ele>
        <time>2018-10-23T10:09:17Z</time>
      </trkpt>
      <trkpt lat="45.96079" lon="4.83064">
        <ele>242</ele>
        <time>2018-10-23T10:09:18Z</time>
      </trkpt>
      <trkpt lat="45.96077" lon="4.83056">
        <ele>242</ele>
        <time>2018-10-23T10:09:19Z</time>
      </trkpt>
      <trkpt lat="45.96074" lon="4.83048">
        <ele>243</ele>
        <time>2018-10-23T10:09:20Z</time>
      </trkpt>
      <trkpt lat="45.96073" lon="4.8304">
        <ele>243</ele>
        <time>2018-10-23T10:09:21Z</time>
      </trkpt>
      <trkpt lat="45.96072" lon="4.83031">
        <ele>242</ele>
        <time>2018-10-23T10:09:22Z</time>
      </trkpt>
      <trkpt lat="45.96072" lon="4.83024">
        <ele>242</ele>
        <time>2018-10-23T10:09:23Z</time>
      </trkpt>
      <trkpt lat="45.96071" lon="4.83017">
        <ele>242</ele>
        <time>2018-10-23T10:09:24Z</time>
      </trkpt>
      <trkpt lat="45.96071" lon="4.83009">
        <ele>241</ele>
        <time>2018-10-23T10:09:25Z</time>
      </trkpt>
      <trkpt lat="45.9607" lon="4.83001">
        <ele>241</ele>
        <time>2018-10-23T10:09:26Z</time>
      </trkpt>
      <trkpt lat="45.96071" lon="4.82993">
        <ele>241</ele>
        <time>2018-10-23T10:09:27Z</time>
      </trkpt>
      <trkpt lat="45.96072" lon="4.82985">
        <ele>241</ele>
        <time>2018-10-23T10:09:28Z</time>
      </trkpt>
      <trkpt lat="45.96074" lon="4.82977">
        <ele>241</ele>
        <time>2018-10-23T10:09:29Z</time>
      </trkpt>
      <trkpt lat="45.96076" lon="4.82968">
        <ele>241</ele>
        <time>2018-10-23T10:09:30Z</time>
      </trkpt>
      <trkpt lat="45.96077" lon="4.82958">
        <ele>241</ele>
        <time>2018-10-23T10:09:31Z</time>
      </trkpt>
      <trkpt lat="45.96079" lon="4.82949">
        <ele>241</ele>
        <time>2018-10-23T10:09:32Z</time>
      </trkpt>
      <trkpt lat="45.96082" lon="4.82938">
        <ele>240</ele>
        <time>2018-10-23T10:09:33Z</time>
      </trkpt>
      <trkpt lat="45.96084" lon="4.82929">
        <ele>238</ele>
        <time>2018-10-23T10:09:34Z</time>
      </trkpt>
      <trkpt lat="45.96086" lon="4.82921">
        <ele>238</ele>
        <time>2018-10-23T10:09:35Z</time>
      </trkpt>
      <trkpt lat="45.96089" lon="4.82912">
        <ele>238</ele>
        <time>2018-10-23T10:09:36Z</time>
      </trkpt>
      <trkpt lat="45.9609" lon="4.82904">
        <ele>238</ele>
        <time>2018-10-23T10:09:37Z</time>
      </trkpt>
      <trkpt lat="45.96092" lon="4.82895">
        <ele>237</ele>
        <time>2018-10-23T10:09:38Z</time>
      </trkpt>
      <trkpt lat="45.96093" lon="4.82886">
        <ele>237</ele>
        <time>2018-10-23T10:09:39Z</time>
      </trkpt>
      <trkpt lat="45.96094" lon="4.82879">
        <ele>237</ele>
        <time>2018-10-23T10:09:40Z</time>
      </trkpt>
      <trkpt lat="45.96095" lon="4.82871">
        <ele>237</ele>
        <time>2018-10-23T10:09:41Z</time>
      </trkpt>
      <trkpt lat="45.96097" lon="4.82864">
        <ele>237</ele>
        <time>2018-10-23T10:09:42Z</time>
      </trkpt>
      <trkpt lat="45.96098" lon="4.82857">
        <ele>237</ele>
        <time>2018-10-23T10:09:43Z</time>
      </trkpt>
      <trkpt lat="45.96097" lon="4.82849">
        <ele>237</ele>
        <time>2018-10-23T10:09:44Z</time>
      </trkpt>
      <trkpt lat="45.96097" lon="4.82841">
        <ele>237</ele>
        <time>2018-10-23T10:09:45Z</time>
      </trkpt>
      <trkpt lat="45.96096" lon="4.82834">
        <ele>237</ele>
        <time>2018-10-23T10:09:46Z</time>
      </trkpt>
      <trkpt lat="45.96096" lon="4.82826">
        <ele>237</ele>
        <time>2018-10-23T10:09:47Z</time>
      </trkpt>
      <trkpt lat="45.96094" lon="4.82819">
        <ele>237</ele>
        <time>2018-10-23T10:09:48Z</time>
      </trkpt>
      <trkpt lat="45.96093" lon="4.82812">
        <ele>237</ele>
        <time>2018-10-23T10:09:49Z</time>
      </trkpt>
      <trkpt lat="45.96092" lon="4.82805">
        <ele>237</ele>
        <time>2018-10-23T10:09:50Z</time>
      </trkpt>
      <trkpt lat="45.96091" lon="4.82797">
        <ele>237</ele>
        <time>2018-10-23T10:09:51Z</time>
      </trkpt>
      <trkpt lat="45.9609" lon="4.82791">
        <ele>237</ele>
        <time>2018-10-23T10:09:52Z</time>
      </trkpt>
      <trkpt lat="45.96088" lon="4.82784">
        <ele>237</ele>
        <time>2018-10-23T10:09:53Z</time>
      </trkpt>
      <trkpt lat="45.96085" lon="4.82775">
        <ele>237</ele>
        <time>2018-10-23T10:09:54Z</time>
      </trkpt>
      <trkpt lat="45.96084" lon="4.82768">
        <ele>237</ele>
        <time>2018-10-23T10:09:55Z</time>
      </trkpt>
      <trkpt lat="45.96081" lon="4.82759">
        <ele>237</ele>
        <time>2018-10-23T10:09:56Z</time>
      </trkpt>
      <trkpt lat="45.96079" lon="4.82751">
        <ele>237</ele>
        <time>2018-10-23T10:09:57Z</time>
      </trkpt>
      <trkpt lat="45.96076" lon="4.82743">
        <ele>237</ele>
        <time>2018-10-23T10:09:58Z</time>
      </trkpt>
      <trkpt lat="45.96073" lon="4.82734">
        <ele>237</ele>
        <time>2018-10-23T10:09:59Z</time>
      </trkpt>
      <trkpt lat="45.96071" lon="4.82726">
        <ele>237</ele>
        <time>2018-10-23T10:10:00Z</time>
      </trkpt>
      <trkpt lat="45.96067" lon="4.82718">
        <ele>237</ele>
        <time>2018-10-23T10:10:01Z</time>
      </trkpt>
      <trkpt lat="45.96065" lon="4.82711">
        <ele>237</ele>
        <time>2018-10-23T10:10:02Z</time>
      </trkpt>
      <trkpt lat="45.96062" lon="4.82703">
        <ele>237</ele>
        <time>2018-10-23T10:10:03Z</time>
      </trkpt>
      <trkpt lat="45.96059" lon="4.82695">
        <ele>237</ele>
        <time>2018-10-23T10:10:04Z</time>
      </trkpt>
      <trkpt lat="45.96057" lon="4.82688">
        <ele>236</ele>
        <time>2018-10-23T10:10:05Z</time>
      </trkpt>
      <trkpt lat="45.96054" lon="4.82682">
        <ele>236</ele>
        <time>2018-10-23T10:10:06Z</time>
      </trkpt>
      <trkpt lat="45.96051" lon="4.82675">
        <ele>236</ele>
        <time>2018-10-23T10:10:07Z</time>
      </trkpt>
      <trkpt lat="45.96048" lon="4.82669">
        <ele>236</ele>
        <time>2018-10-23T10:10:08Z</time>
      </trkpt>
      <trkpt lat="45.96046" lon="4.82661">
        <ele>235</ele>
        <time>2018-10-23T10:10:09Z</time>
      </trkpt>
      <trkpt lat="45.96043" lon="4.82654">
        <ele>235</ele>
        <time>2018-10-23T10:10:10Z</time>
      </trkpt>
      <trkpt lat="45.9604" lon="4.82647">
        <ele>235</ele>
        <time>2018-10-23T10:10:11Z</time>
      </trkpt>
      <trkpt lat="45.96037" lon="4.8264">
        <ele>235</ele>
        <time>2018-10-23T10:10:12Z</time>
      </trkpt>
      <trkpt lat="45.96035" lon="4.82631">
        <ele>235</ele>
        <time>2018-10-23T10:10:13Z</time>
      </trkpt>
      <trkpt lat="45.96032" lon="4.82624">
        <ele>235</ele>
        <time>2018-10-23T10:10:14Z</time>
      </trkpt>
      <trkpt lat="45.96029" lon="4.82617">
        <ele>235</ele>
        <time>2018-10-23T10:10:15Z</time>
      </trkpt>
      <trkpt lat="45.96027" lon="4.82609">
        <ele>235</ele>
        <time>2018-10-23T10:10:16Z</time>
      </trkpt>
      <trkpt lat="45.96024" lon="4.82602">
        <ele>235</ele>
        <time>2018-10-23T10:10:17Z</time>
      </trkpt>
      <trkpt lat="45.96022" lon="4.82595">
        <ele>235</ele>
        <time>2018-10-23T10:10:18Z</time>
      </trkpt>
      <trkpt lat="45.9602" lon="4.82587">
        <ele>235</ele>
        <time>2018-10-23T10:10:19Z</time>
      </trkpt>
      <trkpt lat="45.96018" lon="4.8258">
        <ele>234</ele>
        <time>2018-10-23T10:10:20Z</time>
      </trkpt>
      <trkpt lat="45.96016" lon="4.82573">
        <ele>234</ele>
        <time>2018-10-23T10:10:21Z</time>
      </trkpt>
      <trkpt lat="45.96015" lon="4.82567">
        <ele>235</ele>
        <time>2018-10-23T10:10:22Z</time>
      </trkpt>
      <trkpt lat="45.96013" lon="4.8256">
        <ele>235</ele>
        <time>2018-10-23T10:10:23Z</time>
      </trkpt>
      <trkpt lat="45.96013" lon="4.82553">
        <ele>235</ele>
        <time>2018-10-23T10:10:24Z</time>
      </trkpt>
      <trkpt lat="45.96012" lon="4.82546">
        <ele>235</ele>
        <time>2018-10-23T10:10:25Z</time>
      </trkpt>
      <trkpt lat="45.96012" lon="4.82539">
        <ele>235</ele>
        <time>2018-10-23T10:10:26Z</time>
      </trkpt>
      <trkpt lat="45.96013" lon="4.82531">
        <ele>235</ele>
        <time>2018-10-23T10:10:27Z</time>
      </trkpt>
      <trkpt lat="45.96012" lon="4.82523">
        <ele>235</ele>
        <time>2018-10-23T10:10:28Z</time>
      </trkpt>
      <trkpt lat="45.96012" lon="4.82515">
        <ele>235</ele>
        <time>2018-10-23T10:10:29Z</time>
      </trkpt>
      <trkpt lat="45.96012" lon="4.82508">
        <ele>235</ele>
        <time>2018-10-23T10:10:30Z</time>
      </trkpt>
      <trkpt lat="45.96013" lon="4.825">
        <ele>235</ele>
        <time>2018-10-23T10:10:31Z</time>
      </trkpt>
      <trkpt lat="45.96014" lon="4.82491">
        <ele>235</ele>
        <time>2018-10-23T10:10:32Z</time>
      </trkpt>
      <trkpt lat="45.96015" lon="4.82481">
        <ele>235</ele>
        <time>2018-10-23T10:10:33Z</time>
      </trkpt>
      <trkpt lat="45.96016" lon="4.82472">
        <ele>235</ele>
        <time>2018-10-23T10:10:34Z</time>
      </trkpt>
      <trkpt lat="45.96017" lon="4.82463">
        <ele>235</ele>
        <time>2018-10-23T10:10:35Z</time>
      </trkpt>
      <trkpt lat="45.96018" lon="4.82454">
        <ele>235</ele>
        <time>2018-10-23T10:10:36Z</time>
      </trkpt>
      <trkpt lat="45.9602" lon="4.82447">
        <ele>235</ele>
        <time>2018-10-23T10:10:37Z</time>
      </trkpt>
      <trkpt lat="45.96021" lon="4.82439">
        <ele>235</ele>
        <time>2018-10-23T10:10:38Z</time>
      </trkpt>
      <trkpt lat="45.96022" lon="4.8243">
        <ele>235</ele>
        <time>2018-10-23T10:10:39Z</time>
      </trkpt>
      <trkpt lat="45.96022" lon="4.82422">
        <ele>235</ele>
        <time>2018-10-23T10:10:40Z</time>
      </trkpt>
      <trkpt lat="45.96024" lon="4.82414">
        <ele>235</ele>
        <time>2018-10-23T10:10:41Z</time>
      </trkpt>
      <trkpt lat="45.96026" lon="4.82406">
        <ele>235</ele>
        <time>2018-10-23T10:10:42Z</time>
      </trkpt>
      <trkpt lat="45.96027" lon="4.82399">
        <ele>235</ele>
        <time>2018-10-23T10:10:43Z</time>
      </trkpt>
      <trkpt lat="45.96028" lon="4.82391">
        <ele>235</ele>
        <time>2018-10-23T10:10:44Z</time>
      </trkpt>
      <trkpt lat="45.96029" lon="4.82384">
        <ele>235</ele>
        <time>2018-10-23T10:10:45Z</time>
      </trkpt>
      <trkpt lat="45.96032" lon="4.82372">
        <ele>235</ele>
        <time>2018-10-23T10:10:47Z</time>
      </trkpt>
      <trkpt lat="45.96033" lon="4.82366">
        <ele>235</ele>
        <time>2018-10-23T10:10:48Z</time>
      </trkpt>
      <trkpt lat="45.96029" lon="4.82358">
        <ele>235</ele>
        <time>2018-10-23T10:10:51Z</time>
      </trkpt>
      <trkpt lat="45.96023" lon="4.82356">
        <ele>235</ele>
        <time>2018-10-23T10:10:52Z</time>
      </trkpt>
      <trkpt lat="45.96015" lon="4.82354">
        <ele>235</ele>
        <time>2018-10-23T10:10:54Z</time>
      </trkpt>
      <trkpt lat="45.9601" lon="4.82353">
        <ele>235</ele>
        <time>2018-10-23T10:10:55Z</time>
      </trkpt>
      <trkpt lat="45.96002" lon="4.82353">
        <ele>235</ele>
        <time>2018-10-23T10:10:57Z</time>
      </trkpt>
      <trkpt lat="45.95998" lon="4.82354">
        <ele>236</ele>
        <time>2018-10-23T10:10:58Z</time>
      </trkpt>
      <trkpt lat="45.9599" lon="4.82355">
        <ele>236</ele>
        <time>2018-10-23T10:11:00Z</time>
      </trkpt>
      <trkpt lat="45.95986" lon="4.82355">
        <ele>236</ele>
        <time>2018-10-23T10:11:01Z</time>
      </trkpt>
      <trkpt lat="45.95978" lon="4.82354">
        <ele>237</ele>
        <time>2018-10-23T10:11:03Z</time>
      </trkpt>
      <trkpt lat="45.95974" lon="4.82354">
        <ele>237</ele>
        <time>2018-10-23T10:11:04Z</time>
      </trkpt>
      <trkpt lat="45.95967" lon="4.82356">
        <ele>237</ele>
        <time>2018-10-23T10:11:06Z</time>
      </trkpt>
      <trkpt lat="45.95963" lon="4.82357">
        <ele>237</ele>
        <time>2018-10-23T10:11:07Z</time>
      </trkpt>
      <trkpt lat="45.95955" lon="4.82359">
        <ele>237</ele>
        <time>2018-10-23T10:11:10Z</time>
      </trkpt>
      <trkpt lat="45.95951" lon="4.82359">
        <ele>237</ele>
        <time>2018-10-23T10:11:11Z</time>
      </trkpt>
      <trkpt lat="45.95945" lon="4.82361">
        <ele>237</ele>
        <time>2018-10-23T10:11:13Z</time>
      </trkpt>
      <trkpt lat="45.95942" lon="4.82361">
        <ele>237</ele>
        <time>2018-10-23T10:11:14Z</time>
      </trkpt>
      <trkpt lat="45.95936" lon="4.82362">
        <ele>238</ele>
        <time>2018-10-23T10:11:16Z</time>
      </trkpt>
      <trkpt lat="45.95932" lon="4.82363">
        <ele>238</ele>
        <time>2018-10-23T10:11:17Z</time>
      </trkpt>
      <trkpt lat="45.95925" lon="4.82363">
        <ele>238</ele>
        <time>2018-10-23T10:11:19Z</time>
      </trkpt>
      <trkpt lat="45.95922" lon="4.82363">
        <ele>238</ele>
        <time>2018-10-23T10:11:20Z</time>
      </trkpt>
      <trkpt lat="45.95916" lon="4.82364">
        <ele>242</ele>
        <time>2018-10-23T10:11:22Z</time>
      </trkpt>
      <trkpt lat="45.95913" lon="4.82365">
        <ele>242</ele>
        <time>2018-10-23T10:11:23Z</time>
      </trkpt>
      <trkpt lat="45.95904" lon="4.82367">
        <ele>242</ele>
        <time>2018-10-23T10:11:26Z</time>
      </trkpt>
      <trkpt lat="45.95901" lon="4.82368">
        <ele>243</ele>
        <time>2018-10-23T10:11:27Z</time>
      </trkpt>
      <trkpt lat="45.95894" lon="4.82369">
        <ele>243</ele>
        <time>2018-10-23T10:11:30Z</time>
      </trkpt>
      <trkpt lat="45.95891" lon="4.8237">
        <ele>243</ele>
        <time>2018-10-23T10:11:31Z</time>
      </trkpt>
      <trkpt lat="45.95883" lon="4.82371">
        <ele>244</ele>
        <time>2018-10-23T10:11:34Z</time>
      </trkpt>
      <trkpt lat="45.95881" lon="4.82371">
        <ele>244</ele>
        <time>2018-10-23T10:11:35Z</time>
      </trkpt>
      <trkpt lat="45.95873" lon="4.82371">
        <ele>244</ele>
        <time>2018-10-23T10:11:38Z</time>
      </trkpt>
      <trkpt lat="45.9587" lon="4.82371">
        <ele>244</ele>
        <time>2018-10-23T10:11:39Z</time>
      </trkpt>
      <trkpt lat="45.95863" lon="4.82372">
        <ele>245</ele>
        <time>2018-10-23T10:11:42Z</time>
      </trkpt>
      <trkpt lat="45.9586" lon="4.82372">
        <ele>245</ele>
        <time>2018-10-23T10:11:43Z</time>
      </trkpt>
      <trkpt lat="45.95852" lon="4.82371">
        <ele>245</ele>
        <time>2018-10-23T10:11:46Z</time>
      </trkpt>
      <trkpt lat="45.9585" lon="4.82371">
        <ele>246</ele>
        <time>2018-10-23T10:11:47Z</time>
      </trkpt>
      <trkpt lat="45.95843" lon="4.82371">
        <ele>246</ele>
        <time>2018-10-23T10:11:50Z</time>
      </trkpt>
      <trkpt lat="45.9584" lon="4.82371">
        <ele>246</ele>
        <time>2018-10-23T10:11:51Z</time>
      </trkpt>
      <trkpt lat="45.95832" lon="4.82369">
        <ele>251</ele>
        <time>2018-10-23T10:11:55Z</time>
      </trkpt>
      <trkpt lat="45.9583" lon="4.82369">
        <ele>251</ele>
        <time>2018-10-23T10:11:56Z</time>
      </trkpt>
      <trkpt lat="45.95823" lon="4.82367">
        <ele>251</ele>
        <time>2018-10-23T10:11:59Z</time>
      </trkpt>
      <trkpt lat="45.9582" lon="4.82366">
        <ele>251</ele>
        <time>2018-10-23T10:12:00Z</time>
      </trkpt>
      <trkpt lat="45.95813" lon="4.82365">
        <ele>252</ele>
        <time>2018-10-23T10:12:03Z</time>
      </trkpt>
      <trkpt lat="45.95811" lon="4.82365">
        <ele>252</ele>
        <time>2018-10-23T10:12:04Z</time>
      </trkpt>
      <trkpt lat="45.95803" lon="4.82361">
        <ele>252</ele>
        <time>2018-10-23T10:12:07Z</time>
      </trkpt>
      <trkpt lat="45.95801" lon="4.8236">
        <ele>252</ele>
        <time>2018-10-23T10:12:08Z</time>
      </trkpt>
      <trkpt lat="45.95795" lon="4.82357">
        <ele>252</ele>
        <time>2018-10-23T10:12:10Z</time>
      </trkpt>
      <trkpt lat="45.95792" lon="4.82356">
        <ele>252</ele>
        <time>2018-10-23T10:12:11Z</time>
      </trkpt>
      <trkpt lat="45.95786" lon="4.82352">
        <ele>253</ele>
        <time>2018-10-23T10:12:13Z</time>
      </trkpt>
      <trkpt lat="45.95783" lon="4.8235">
        <ele>253</ele>
        <time>2018-10-23T10:12:14Z</time>
      </trkpt>
      <trkpt lat="45.95776" lon="4.82344">
        <ele>253</ele>
        <time>2018-10-23T10:12:16Z</time>
      </trkpt>
      <trkpt lat="45.95774" lon="4.82341">
        <ele>254</ele>
        <time>2018-10-23T10:12:17Z</time>
      </trkpt>
      <trkpt lat="45.95769" lon="4.82335">
        <ele>254</ele>
        <time>2018-10-23T10:12:19Z</time>
      </trkpt>
      <trkpt lat="45.95767" lon="4.82332">
        <ele>253</ele>
        <time>2018-10-23T10:12:20Z</time>
      </trkpt>
      <trkpt lat="45.95762" lon="4.82326">
        <ele>253</ele>
        <time>2018-10-23T10:12:22Z</time>
      </trkpt>
      <trkpt lat="45.9576" lon="4.82323">
        <ele>253</ele>
        <time>2018-10-23T10:12:23Z</time>
      </trkpt>
      <trkpt lat="45.95755" lon="4.82317">
        <ele>253</ele>
        <time>2018-10-23T10:12:25Z</time>
      </trkpt>
      <trkpt lat="45.9575" lon="4.82311">
        <ele>252</ele>
        <time>2018-10-23T10:12:26Z</time>
      </trkpt>
      <trkpt lat="45.95745" lon="4.82305">
        <ele>255</ele>
        <time>2018-10-23T10:12:29Z</time>
      </trkpt>
      <trkpt lat="45.95742" lon="4.82303">
        <ele>255</ele>
        <time>2018-10-23T10:12:30Z</time>
      </trkpt>
      <trkpt lat="45.95736" lon="4.82297">
        <ele>255</ele>
        <time>2018-10-23T10:12:33Z</time>
      </trkpt>
      <trkpt lat="45.95733" lon="4.82294">
        <ele>255</ele>
        <time>2018-10-23T10:12:34Z</time>
      </trkpt>
      <trkpt lat="45.95728" lon="4.82289">
        <ele>255</ele>
        <time>2018-10-23T10:12:35Z</time>
      </trkpt>
      <trkpt lat="45.95726" lon="4.82287">
        <ele>255</ele>
        <time>2018-10-23T10:12:36Z</time>
      </trkpt>
      <trkpt lat="45.95719" lon="4.8228">
        <ele>255</ele>
        <time>2018-10-23T10:12:39Z</time>
      </trkpt>
      <trkpt lat="45.95717" lon="4.82278">
        <ele>255</ele>
        <time>2018-10-23T10:12:40Z</time>
      </trkpt>
      <trkpt lat="45.9571" lon="4.82271">
        <ele>255</ele>
        <time>2018-10-23T10:12:43Z</time>
      </trkpt>
      <trkpt lat="45.95704" lon="4.82265">
        <ele>255</ele>
        <time>2018-10-23T10:12:44Z</time>
      </trkpt>
      <trkpt lat="45.95698" lon="4.8226">
        <ele>255</ele>
        <time>2018-10-23T10:12:46Z</time>
      </trkpt>
      <trkpt lat="45.95695" lon="4.82255">
        <ele>255</ele>
        <time>2018-10-23T10:12:47Z</time>
      </trkpt>
      <trkpt lat="45.95689" lon="4.82248">
        <ele>255</ele>
        <time>2018-10-23T10:12:50Z</time>
      </trkpt>
      <trkpt lat="45.95687" lon="4.82246">
        <ele>255</ele>
        <time>2018-10-23T10:12:51Z</time>
      </trkpt>
      <trkpt lat="45.95681" lon="4.8224">
        <ele>255</ele>
        <time>2018-10-23T10:12:52Z</time>
      </trkpt>
      <trkpt lat="45.95678" lon="4.82238">
        <ele>255</ele>
        <time>2018-10-23T10:12:53Z</time>
      </trkpt>
      <trkpt lat="45.95671" lon="4.82233">
        <ele>255</ele>
        <time>2018-10-23T10:12:55Z</time>
      </trkpt>
      <trkpt lat="45.95668" lon="4.82231">
        <ele>255</ele>
        <time>2018-10-23T10:12:56Z</time>
      </trkpt>
      <trkpt lat="45.9566" lon="4.82227">
        <ele>257</ele>
        <time>2018-10-23T10:12:58Z</time>
      </trkpt>
      <trkpt lat="45.95656" lon="4.82226">
        <ele>257</ele>
        <time>2018-10-23T10:12:59Z</time>
      </trkpt>
      <trkpt lat="45.95648" lon="4.82224">
        <ele>257</ele>
        <time>2018-10-23T10:13:01Z</time>
      </trkpt>
      <trkpt lat="45.95645" lon="4.82223">
        <ele>257</ele>
        <time>2018-10-23T10:13:02Z</time>
      </trkpt>
      <trkpt lat="45.95636" lon="4.82222">
        <ele>257</ele>
        <time>2018-10-23T10:13:05Z</time>
      </trkpt>
      <trkpt lat="45.95633" lon="4.82222">
        <ele>257</ele>
        <time>2018-10-23T10:13:06Z</time>
      </trkpt>
      <trkpt lat="45.95626" lon="4.82222">
        <ele>257</ele>
        <time>2018-10-23T10:13:08Z</time>
      </trkpt>
      <trkpt lat="45.95623" lon="4.82223">
        <ele>257</ele>
        <time>2018-10-23T10:13:09Z</time>
      </trkpt>
      <trkpt lat="45.95616" lon="4.82224">
        <ele>257</ele>
        <time>2018-10-23T10:13:11Z</time>
      </trkpt>
      <trkpt lat="45.9561" lon="4.82225">
        <ele>257</ele>
        <time>2018-10-23T10:13:12Z</time>
      </trkpt>
      <trkpt lat="45.95603" lon="4.82224">
        <ele>257</ele>
        <time>2018-10-23T10:13:15Z</time>
      </trkpt>
      <trkpt lat="45.956" lon="4.82223">
        <ele>257</ele>
        <time>2018-10-23T10:13:16Z</time>
      </trkpt>
      <trkpt lat="45.95593" lon="4.82221">
        <ele>257</ele>
        <time>2018-10-23T10:13:17Z</time>
      </trkpt>
      <trkpt lat="45.9559" lon="4.82218">
        <ele>257</ele>
        <time>2018-10-23T10:13:18Z</time>
      </trkpt>
      <trkpt lat="45.95583" lon="4.82213">
        <ele>258</ele>
        <time>2018-10-23T10:13:20Z</time>
      </trkpt>
      <trkpt lat="45.9558" lon="4.8221">
        <ele>258</ele>
        <time>2018-10-23T10:13:21Z</time>
      </trkpt>
      <trkpt lat="45.95575" lon="4.82206">
        <ele>258</ele>
        <time>2018-10-23T10:13:23Z</time>
      </trkpt>
      <trkpt lat="45.95571" lon="4.82203">
        <ele>258</ele>
        <time>2018-10-23T10:13:24Z</time>
      </trkpt>
      <trkpt lat="45.95564" lon="4.82198">
        <ele>258</ele>
        <time>2018-10-23T10:13:26Z</time>
      </trkpt>
      <trkpt lat="45.95562" lon="4.82196">
        <ele>259</ele>
        <time>2018-10-23T10:13:27Z</time>
      </trkpt>
      <trkpt lat="45.95555" lon="4.8219">
        <ele>259</ele>
        <time>2018-10-23T10:13:29Z</time>
      </trkpt>
      <trkpt lat="45.95553" lon="4.82188">
        <ele>259</ele>
        <time>2018-10-23T10:13:30Z</time>
      </trkpt>
      <trkpt lat="45.95545" lon="4.82182">
        <ele>259</ele>
        <time>2018-10-23T10:13:32Z</time>
      </trkpt>
      <trkpt lat="45.95542" lon="4.8218">
        <ele>259</ele>
        <time>2018-10-23T10:13:33Z</time>
      </trkpt>
      <trkpt lat="45.95535" lon="4.82176">
        <ele>259</ele>
        <time>2018-10-23T10:13:35Z</time>
      </trkpt>
      <trkpt lat="45.95531" lon="4.82173">
        <ele>259</ele>
        <time>2018-10-23T10:13:36Z</time>
      </trkpt>
      <trkpt lat="45.95524" lon="4.82166">
        <ele>259</ele>
        <time>2018-10-23T10:13:38Z</time>
      </trkpt>
      <trkpt lat="45.9552" lon="4.82162">
        <ele>259</ele>
        <time>2018-10-23T10:13:39Z</time>
      </trkpt>
      <trkpt lat="45.95513" lon="4.82156">
        <ele>259</ele>
        <time>2018-10-23T10:13:41Z</time>
      </trkpt>
      <trkpt lat="45.95509" lon="4.82152">
        <ele>259</ele>
        <time>2018-10-23T10:13:42Z</time>
      </trkpt>
      <trkpt lat="45.95505" lon="4.82148">
        <ele>259</ele>
        <time>2018-10-23T10:13:43Z</time>
      </trkpt>
      <trkpt lat="45.95502" lon="4.82143">
        <ele>259</ele>
        <time>2018-10-23T10:13:44Z</time>
      </trkpt>
      <trkpt lat="45.95498" lon="4.82139">
        <ele>260</ele>
        <time>2018-10-23T10:13:45Z</time>
      </trkpt>
      <trkpt lat="45.95494" lon="4.82135">
        <ele>260</ele>
        <time>2018-10-23T10:13:46Z</time>
      </trkpt>
      <trkpt lat="45.9549" lon="4.82132">
        <ele>260</ele>
        <time>2018-10-23T10:13:47Z</time>
      </trkpt>
      <trkpt lat="45.95486" lon="4.82128">
        <ele>260</ele>
        <time>2018-10-23T10:13:48Z</time>
      </trkpt>
      <trkpt lat="45.95482" lon="4.82124">
        <ele>260</ele>
        <time>2018-10-23T10:13:49Z</time>
      </trkpt>
      <trkpt lat="45.95479" lon="4.82119">
        <ele>260</ele>
        <time>2018-10-23T10:13:50Z</time>
      </trkpt>
      <trkpt lat="45.95475" lon="4.82115">
        <ele>260</ele>
        <time>2018-10-23T10:13:51Z</time>
      </trkpt>
      <trkpt lat="45.95472" lon="4.8211">
        <ele>260</ele>
        <time>2018-10-23T10:13:52Z</time>
      </trkpt>
      <trkpt lat="45.95468" lon="4.82106">
        <ele>260</ele>
        <time>2018-10-23T10:13:53Z</time>
      </trkpt>
      <trkpt lat="45.95464" lon="4.82102">
        <ele>260</ele>
        <time>2018-10-23T10:13:54Z</time>
      </trkpt>
      <trkpt lat="45.95459" lon="4.82097">
        <ele>260</ele>
        <time>2018-10-23T10:13:55Z</time>
      </trkpt>
      <trkpt lat="45.95455" lon="4.82092">
        <ele>260</ele>
        <time>2018-10-23T10:13:56Z</time>
      </trkpt>
      <trkpt lat="45.95451" lon="4.82087">
        <ele>260</ele>
        <time>2018-10-23T10:13:57Z</time>
      </trkpt>
      <trkpt lat="45.95449" lon="4.82083">
        <ele>260</ele>
        <time>2018-10-23T10:13:58Z</time>
      </trkpt>
      <trkpt lat="45.95445" lon="4.82078">
        <ele>260</ele>
        <time>2018-10-23T10:13:59Z</time>
      </trkpt>
      <trkpt lat="45.95441" lon="4.82074">
        <ele>260</ele>
        <time>2018-10-23T10:14:00Z</time>
      </trkpt>
      <trkpt lat="45.95435" lon="4.82065">
        <ele>260</ele>
        <time>2018-10-23T10:14:02Z</time>
      </trkpt>
      <trkpt lat="45.95432" lon="4.82062">
        <ele>260</ele>
        <time>2018-10-23T10:14:03Z</time>
      </trkpt>
      <trkpt lat="45.95426" lon="4.82053">
        <ele>260</ele>
        <time>2018-10-23T10:14:05Z</time>
      </trkpt>
      <trkpt lat="45.95422" lon="4.82049">
        <ele>260</ele>
        <time>2018-10-23T10:14:06Z</time>
      </trkpt>
      <trkpt lat="45.95418" lon="4.82045">
        <ele>260</ele>
        <time>2018-10-23T10:14:07Z</time>
      </trkpt>
      <trkpt lat="45.95414" lon="4.82041">
        <ele>261</ele>
        <time>2018-10-23T10:14:08Z</time>
      </trkpt>
      <trkpt lat="45.95411" lon="4.82036">
        <ele>261</ele>
        <time>2018-10-23T10:14:09Z</time>
      </trkpt>
      <trkpt lat="45.95407" lon="4.82031">
        <ele>261</ele>
        <time>2018-10-23T10:14:10Z</time>
      </trkpt>
      <trkpt lat="45.95402" lon="4.82027">
        <ele>261</ele>
        <time>2018-10-23T10:14:11Z</time>
      </trkpt>
      <trkpt lat="45.95398" lon="4.82023">
        <ele>261</ele>
        <time>2018-10-23T10:14:12Z</time>
      </trkpt>
      <trkpt lat="45.95394" lon="4.82023">
        <ele>261</ele>
        <time>2018-10-23T10:14:13Z</time>
      </trkpt>
      <trkpt lat="45.9539" lon="4.82018">
        <ele>261</ele>
        <time>2018-10-23T10:14:14Z</time>
      </trkpt>
      <trkpt lat="45.95387" lon="4.82014">
        <ele>261</ele>
        <time>2018-10-23T10:14:15Z</time>
      </trkpt>
      <trkpt lat="45.95382" lon="4.82011">
        <ele>262</ele>
        <time>2018-10-23T10:14:16Z</time>
      </trkpt>
      <trkpt lat="45.95378" lon="4.82007">
        <ele>262</ele>
        <time>2018-10-23T10:14:17Z</time>
      </trkpt>
      <trkpt lat="45.95374" lon="4.82005">
        <ele>262</ele>
        <time>2018-10-23T10:14:18Z</time>
      </trkpt>
      <trkpt lat="45.95368" lon="4.81996">
        <ele>261</ele>
        <time>2018-10-23T10:14:20Z</time>
      </trkpt>
      <trkpt lat="45.95364" lon="4.81992">
        <ele>261</ele>
        <time>2018-10-23T10:14:21Z</time>
      </trkpt>
      <trkpt lat="45.9536" lon="4.81989">
        <ele>261</ele>
        <time>2018-10-23T10:14:22Z</time>
      </trkpt>
      <trkpt lat="45.95356" lon="4.81985">
        <ele>261</ele>
        <time>2018-10-23T10:14:23Z</time>
      </trkpt>
      <trkpt lat="45.95349" lon="4.81978">
        <ele>262</ele>
        <time>2018-10-23T10:14:25Z</time>
      </trkpt>
      <trkpt lat="45.95344" lon="4.81975">
        <ele>262</ele>
        <time>2018-10-23T10:14:26Z</time>
      </trkpt>
      <trkpt lat="45.95339" lon="4.8197">
        <ele>261</ele>
        <time>2018-10-23T10:14:27Z</time>
      </trkpt>
      <trkpt lat="45.95336" lon="4.81965">
        <ele>261</ele>
        <time>2018-10-23T10:14:28Z</time>
      </trkpt>
      <trkpt lat="45.95331" lon="4.81963">
        <ele>262</ele>
        <time>2018-10-23T10:14:29Z</time>
      </trkpt>
      <trkpt lat="45.95326" lon="4.81958">
        <ele>262</ele>
        <time>2018-10-23T10:14:30Z</time>
      </trkpt>
      <trkpt lat="45.95322" lon="4.81955">
        <ele>262</ele>
        <time>2018-10-23T10:14:31Z</time>
      </trkpt>
      <trkpt lat="45.95318" lon="4.8195">
        <ele>262</ele>
        <time>2018-10-23T10:14:32Z</time>
      </trkpt>
      <trkpt lat="45.95314" lon="4.81945">
        <ele>261</ele>
        <time>2018-10-23T10:14:33Z</time>
      </trkpt>
      <trkpt lat="45.9531" lon="4.8194">
        <ele>261</ele>
        <time>2018-10-23T10:14:34Z</time>
      </trkpt>
      <trkpt lat="45.95306" lon="4.81935">
        <ele>261</ele>
        <time>2018-10-23T10:14:35Z</time>
      </trkpt>
      <trkpt lat="45.95302" lon="4.81931">
        <ele>261</ele>
        <time>2018-10-23T10:14:36Z</time>
      </trkpt>
      <trkpt lat="45.95295" lon="4.81923">
        <ele>261</ele>
        <time>2018-10-23T10:14:38Z</time>
      </trkpt>
      <trkpt lat="45.95292" lon="4.81918">
        <ele>261</ele>
        <time>2018-10-23T10:14:39Z</time>
      </trkpt>
      <trkpt lat="45.95289" lon="4.81913">
        <ele>260</ele>
        <time>2018-10-23T10:14:40Z</time>
      </trkpt>
      <trkpt lat="45.95286" lon="4.81908">
        <ele>260</ele>
        <time>2018-10-23T10:14:41Z</time>
      </trkpt>
      <trkpt lat="45.95283" lon="4.81903">
        <ele>260</ele>
        <time>2018-10-23T10:14:42Z</time>
      </trkpt>
      <trkpt lat="45.9528" lon="4.81898">
        <ele>260</ele>
        <time>2018-10-23T10:14:43Z</time>
      </trkpt>
      <trkpt lat="45.95277" lon="4.81892">
        <ele>260</ele>
        <time>2018-10-23T10:14:44Z</time>
      </trkpt>
      <trkpt lat="45.95273" lon="4.81886">
        <ele>260</ele>
        <time>2018-10-23T10:14:45Z</time>
      </trkpt>
      <trkpt lat="45.9527" lon="4.81881">
        <ele>260</ele>
        <time>2018-10-23T10:14:46Z</time>
      </trkpt>
      <trkpt lat="45.95267" lon="4.81875">
        <ele>260</ele>
        <time>2018-10-23T10:14:47Z</time>
      </trkpt>
      <trkpt lat="45.95263" lon="4.81869">
        <ele>260</ele>
        <time>2018-10-23T10:14:48Z</time>
      </trkpt>
      <trkpt lat="45.9526" lon="4.81863">
        <ele>260</ele>
        <time>2018-10-23T10:14:49Z</time>
      </trkpt>
      <trkpt lat="45.95257" lon="4.81859">
        <ele>260</ele>
        <time>2018-10-23T10:14:50Z</time>
      </trkpt>
      <trkpt lat="45.95253" lon="4.81854">
        <ele>259</ele>
        <time>2018-10-23T10:14:51Z</time>
      </trkpt>
      <trkpt lat="45.9525" lon="4.81848">
        <ele>260</ele>
        <time>2018-10-23T10:14:52Z</time>
      </trkpt>
      <trkpt lat="45.95246" lon="4.81843">
        <ele>259</ele>
        <time>2018-10-23T10:14:53Z</time>
      </trkpt>
      <trkpt lat="45.95241" lon="4.8184">
        <ele>259</ele>
        <time>2018-10-23T10:14:54Z</time>
      </trkpt>
      <trkpt lat="45.95238" lon="4.81835">
        <ele>259</ele>
        <time>2018-10-23T10:14:55Z</time>
      </trkpt>
      <trkpt lat="45.95234" lon="4.8183">
        <ele>259</ele>
        <time>2018-10-23T10:14:56Z</time>
      </trkpt>
      <trkpt lat="45.95231" lon="4.81824">
        <ele>259</ele>
        <time>2018-10-23T10:14:57Z</time>
      </trkpt>
      <trkpt lat="45.95227" lon="4.81818">
        <ele>259</ele>
        <time>2018-10-23T10:14:58Z</time>
      </trkpt>
      <trkpt lat="45.95223" lon="4.81812">
        <ele>259</ele>
        <time>2018-10-23T10:14:59Z</time>
      </trkpt>
      <trkpt lat="45.9522" lon="4.81807">
        <ele>259</ele>
        <time>2018-10-23T10:15:00Z</time>
      </trkpt>
      <trkpt lat="45.95216" lon="4.818">
        <ele>259</ele>
        <time>2018-10-23T10:15:01Z</time>
      </trkpt>
      <trkpt lat="45.95212" lon="4.81794">
        <ele>258</ele>
        <time>2018-10-23T10:15:02Z</time>
      </trkpt>
      <trkpt lat="45.95207" lon="4.81788">
        <ele>258</ele>
        <time>2018-10-23T10:15:03Z</time>
      </trkpt>
      <trkpt lat="45.95203" lon="4.81781">
        <ele>258</ele>
        <time>2018-10-23T10:15:04Z</time>
      </trkpt>
      <trkpt lat="45.95198" lon="4.81775">
        <ele>258</ele>
        <time>2018-10-23T10:15:05Z</time>
      </trkpt>
      <trkpt lat="45.95193" lon="4.81769">
        <ele>258</ele>
        <time>2018-10-23T10:15:06Z</time>
      </trkpt>
      <trkpt lat="45.95188" lon="4.8176">
        <ele>258</ele>
        <time>2018-10-23T10:15:07Z</time>
      </trkpt>
      <trkpt lat="45.95183" lon="4.81752">
        <ele>258</ele>
        <time>2018-10-23T10:15:08Z</time>
      </trkpt>
      <trkpt lat="45.95178" lon="4.81744">
        <ele>257</ele>
        <time>2018-10-23T10:15:09Z</time>
      </trkpt>
      <trkpt lat="45.95172" lon="4.81734">
        <ele>257</ele>
        <time>2018-10-23T10:15:10Z</time>
      </trkpt>
      <trkpt lat="45.95168" lon="4.81723">
        <ele>257</ele>
        <time>2018-10-23T10:15:11Z</time>
      </trkpt>
      <trkpt lat="45.95164" lon="4.8171">
        <ele>256</ele>
        <time>2018-10-23T10:15:12Z</time>
      </trkpt>
      <trkpt lat="45.95159" lon="4.81698">
        <ele>255</ele>
        <time>2018-10-23T10:15:13Z</time>
      </trkpt>
      <trkpt lat="45.95156" lon="4.81686">
        <ele>255</ele>
        <time>2018-10-23T10:15:14Z</time>
      </trkpt>
      <trkpt lat="45.95152" lon="4.81674">
        <ele>255</ele>
        <time>2018-10-23T10:15:15Z</time>
      </trkpt>
      <trkpt lat="45.95148" lon="4.81662">
        <ele>253</ele>
        <time>2018-10-23T10:15:16Z</time>
      </trkpt>
      <trkpt lat="45.95144" lon="4.81649">
        <ele>253</ele>
        <time>2018-10-23T10:15:17Z</time>
      </trkpt>
      <trkpt lat="45.9514" lon="4.81636">
        <ele>253</ele>
        <time>2018-10-23T10:15:18Z</time>
      </trkpt>
      <trkpt lat="45.95136" lon="4.81622">
        <ele>252</ele>
        <time>2018-10-23T10:15:19Z</time>
      </trkpt>
      <trkpt lat="45.95134" lon="4.81609">
        <ele>252</ele>
        <time>2018-10-23T10:15:20Z</time>
      </trkpt>
      <trkpt lat="45.95129" lon="4.81597">
        <ele>252</ele>
        <time>2018-10-23T10:15:21Z</time>
      </trkpt>
      <trkpt lat="45.95124" lon="4.81585">
        <ele>252</ele>
        <time>2018-10-23T10:15:22Z</time>
      </trkpt>
      <trkpt lat="45.95121" lon="4.81572">
        <ele>251</ele>
        <time>2018-10-23T10:15:23Z</time>
      </trkpt>
      <trkpt lat="45.95116" lon="4.81561">
        <ele>251</ele>
        <time>2018-10-23T10:15:24Z</time>
      </trkpt>
      <trkpt lat="45.95112" lon="4.81548">
        <ele>251</ele>
        <time>2018-10-23T10:15:25Z</time>
      </trkpt>
      <trkpt lat="45.95108" lon="4.81537">
        <ele>251</ele>
        <time>2018-10-23T10:15:26Z</time>
      </trkpt>
      <trkpt lat="45.95102" lon="4.81527">
        <ele>251</ele>
        <time>2018-10-23T10:15:27Z</time>
      </trkpt>
      <trkpt lat="45.95098" lon="4.81517">
        <ele>251</ele>
        <time>2018-10-23T10:15:28Z</time>
      </trkpt>
      <trkpt lat="45.95094" lon="4.81507">
        <ele>252</ele>
        <time>2018-10-23T10:15:29Z</time>
      </trkpt>
      <trkpt lat="45.95091" lon="4.81497">
        <ele>251</ele>
        <time>2018-10-23T10:15:30Z</time>
      </trkpt>
      <trkpt lat="45.95088" lon="4.81487">
        <ele>251</ele>
        <time>2018-10-23T10:15:31Z</time>
      </trkpt>
      <trkpt lat="45.95084" lon="4.81478">
        <ele>251</ele>
        <time>2018-10-23T10:15:32Z</time>
      </trkpt>
      <trkpt lat="45.9508" lon="4.8147">
        <ele>253</ele>
        <time>2018-10-23T10:15:33Z</time>
      </trkpt>
      <trkpt lat="45.95077" lon="4.81464">
        <ele>253</ele>
        <time>2018-10-23T10:15:34Z</time>
      </trkpt>
      <trkpt lat="45.95075" lon="4.81457">
        <ele>253</ele>
        <time>2018-10-23T10:15:35Z</time>
      </trkpt>
      <trkpt lat="45.95072" lon="4.81451">
        <ele>253</ele>
        <time>2018-10-23T10:15:36Z</time>
      </trkpt>
      <trkpt lat="45.9507" lon="4.81444">
        <ele>253</ele>
        <time>2018-10-23T10:15:37Z</time>
      </trkpt>
      <trkpt lat="45.95069" lon="4.81438">
        <ele>252</ele>
        <time>2018-10-23T10:15:38Z</time>
      </trkpt>
      <trkpt lat="45.95066" lon="4.81431">
        <ele>252</ele>
        <time>2018-10-23T10:15:39Z</time>
      </trkpt>
      <trkpt lat="45.95064" lon="4.81426">
        <ele>252</ele>
        <time>2018-10-23T10:15:40Z</time>
      </trkpt>
      <trkpt lat="45.95061" lon="4.8142">
        <ele>252</ele>
        <time>2018-10-23T10:15:41Z</time>
      </trkpt>
      <trkpt lat="45.95058" lon="4.81414">
        <ele>253</ele>
        <time>2018-10-23T10:15:42Z</time>
      </trkpt>
      <trkpt lat="45.95055" lon="4.81409">
        <ele>253</ele>
        <time>2018-10-23T10:15:43Z</time>
      </trkpt>
      <trkpt lat="45.95053" lon="4.81403">
        <ele>253</ele>
        <time>2018-10-23T10:15:44Z</time>
      </trkpt>
      <trkpt lat="45.95051" lon="4.81397">
        <ele>253</ele>
        <time>2018-10-23T10:15:45Z</time>
      </trkpt>
      <trkpt lat="45.95048" lon="4.81385">
        <ele>254</ele>
        <time>2018-10-23T10:15:47Z</time>
      </trkpt>
      <trkpt lat="45.95046" lon="4.81379">
        <ele>254</ele>
        <time>2018-10-23T10:15:48Z</time>
      </trkpt>
      <trkpt lat="45.95044" lon="4.81373">
        <ele>254</ele>
        <time>2018-10-23T10:15:49Z</time>
      </trkpt>
      <trkpt lat="45.95043" lon="4.81367">
        <ele>254</ele>
        <time>2018-10-23T10:15:50Z</time>
      </trkpt>
      <trkpt lat="45.9504" lon="4.81356">
        <ele>254</ele>
        <time>2018-10-23T10:15:52Z</time>
      </trkpt>
      <trkpt lat="45.95037" lon="4.8135">
        <ele>254</ele>
        <time>2018-10-23T10:15:53Z</time>
      </trkpt>
      <trkpt lat="45.95034" lon="4.81339">
        <ele>254</ele>
        <time>2018-10-23T10:15:55Z</time>
      </trkpt>
      <trkpt lat="45.95032" lon="4.81335">
        <ele>254</ele>
        <time>2018-10-23T10:15:56Z</time>
      </trkpt>
      <trkpt lat="45.95029" lon="4.81324">
        <ele>255</ele>
        <time>2018-10-23T10:15:58Z</time>
      </trkpt>
      <trkpt lat="45.95028" lon="4.81319">
        <ele>255</ele>
        <time>2018-10-23T10:15:59Z</time>
      </trkpt>
      <trkpt lat="45.95026" lon="4.81307">
        <ele>255</ele>
        <time>2018-10-23T10:16:01Z</time>
      </trkpt>
      <trkpt lat="45.95024" lon="4.81301">
        <ele>255</ele>
        <time>2018-10-23T10:16:02Z</time>
      </trkpt>
      <trkpt lat="45.95022" lon="4.81295">
        <ele>255</ele>
        <time>2018-10-23T10:16:03Z</time>
      </trkpt>
      <trkpt lat="45.95021" lon="4.81288">
        <ele>255</ele>
        <time>2018-10-23T10:16:04Z</time>
      </trkpt>
      <trkpt lat="45.95019" lon="4.81276">
        <ele>255</ele>
        <time>2018-10-23T10:16:06Z</time>
      </trkpt>
      <trkpt lat="45.95017" lon="4.81269">
        <ele>255</ele>
        <time>2018-10-23T10:16:07Z</time>
      </trkpt>
      <trkpt lat="45.95016" lon="4.81262">
        <ele>255</ele>
        <time>2018-10-23T10:16:08Z</time>
      </trkpt>
      <trkpt lat="45.95015" lon="4.81256">
        <ele>256</ele>
        <time>2018-10-23T10:16:09Z</time>
      </trkpt>
      <trkpt lat="45.95014" lon="4.81249">
        <ele>256</ele>
        <time>2018-10-23T10:16:10Z</time>
      </trkpt>
      <trkpt lat="45.95014" lon="4.81242">
        <ele>256</ele>
        <time>2018-10-23T10:16:11Z</time>
      </trkpt>
      <trkpt lat="45.95013" lon="4.81236">
        <ele>256</ele>
        <time>2018-10-23T10:16:12Z</time>
      </trkpt>
      <trkpt lat="45.95014" lon="4.81229">
        <ele>256</ele>
        <time>2018-10-23T10:16:13Z</time>
      </trkpt>
      <trkpt lat="45.95013" lon="4.81221">
        <ele>256</ele>
        <time>2018-10-23T10:16:14Z</time>
      </trkpt>
      <trkpt lat="45.95012" lon="4.81214">
        <ele>256</ele>
        <time>2018-10-23T10:16:15Z</time>
      </trkpt>
      <trkpt lat="45.95011" lon="4.81207">
        <ele>256</ele>
        <time>2018-10-23T10:16:16Z</time>
      </trkpt>
      <trkpt lat="45.9501" lon="4.812">
        <ele>256</ele>
        <time>2018-10-23T10:16:17Z</time>
      </trkpt>
      <trkpt lat="45.9501" lon="4.81193">
        <ele>256</ele>
        <time>2018-10-23T10:16:18Z</time>
      </trkpt>
      <trkpt lat="45.95009" lon="4.81186">
        <ele>256</ele>
        <time>2018-10-23T10:16:19Z</time>
      </trkpt>
      <trkpt lat="45.95008" lon="4.81179">
        <ele>256</ele>
        <time>2018-10-23T10:16:20Z</time>
      </trkpt>
      <trkpt lat="45.95007" lon="4.81173">
        <ele>256</ele>
        <time>2018-10-23T10:16:21Z</time>
      </trkpt>
      <trkpt lat="45.95005" lon="4.81166">
        <ele>256</ele>
        <time>2018-10-23T10:16:22Z</time>
      </trkpt>
      <trkpt lat="45.95004" lon="4.81159">
        <ele>256</ele>
        <time>2018-10-23T10:16:23Z</time>
      </trkpt>
      <trkpt lat="45.95003" lon="4.81152">
        <ele>256</ele>
        <time>2018-10-23T10:16:24Z</time>
      </trkpt>
      <trkpt lat="45.95002" lon="4.81146">
        <ele>256</ele>
        <time>2018-10-23T10:16:25Z</time>
      </trkpt>
      <trkpt lat="45.95002" lon="4.81139">
        <ele>256</ele>
        <time>2018-10-23T10:16:26Z</time>
      </trkpt>
      <trkpt lat="45.95001" lon="4.81132">
        <ele>256</ele>
        <time>2018-10-23T10:16:27Z</time>
      </trkpt>
      <trkpt lat="45.95001" lon="4.81121">
        <ele>256</ele>
        <time>2018-10-23T10:16:29Z</time>
      </trkpt>
      <trkpt lat="45.95" lon="4.81114">
        <ele>257</ele>
        <time>2018-10-23T10:16:30Z</time>
      </trkpt>
      <trkpt lat="45.94998" lon="4.81102">
        <ele>257</ele>
        <time>2018-10-23T10:16:32Z</time>
      </trkpt>
      <trkpt lat="45.94997" lon="4.81095">
        <ele>257</ele>
        <time>2018-10-23T10:16:33Z</time>
      </trkpt>
      <trkpt lat="45.94996" lon="4.81083">
        <ele>257</ele>
        <time>2018-10-23T10:16:35Z</time>
      </trkpt>
      <trkpt lat="45.94995" lon="4.81077">
        <ele>257</ele>
        <time>2018-10-23T10:16:36Z</time>
      </trkpt>
      <trkpt lat="45.94995" lon="4.81071">
        <ele>257</ele>
        <time>2018-10-23T10:16:37Z</time>
      </trkpt>
      <trkpt lat="45.94995" lon="4.81063">
        <ele>257</ele>
        <time>2018-10-23T10:16:38Z</time>
      </trkpt>
      <trkpt lat="45.94994" lon="4.81056">
        <ele>257</ele>
        <time>2018-10-23T10:16:39Z</time>
      </trkpt>
      <trkpt lat="45.94993" lon="4.8105">
        <ele>257</ele>
        <time>2018-10-23T10:16:40Z</time>
      </trkpt>
      <trkpt lat="45.94991" lon="4.81042">
        <ele>257</ele>
        <time>2018-10-23T10:16:41Z</time>
      </trkpt>
      <trkpt lat="45.94991" lon="4.81035">
        <ele>257</ele>
        <time>2018-10-23T10:16:42Z</time>
      </trkpt>
      <trkpt lat="45.9499" lon="4.81028">
        <ele>257</ele>
        <time>2018-10-23T10:16:43Z</time>
      </trkpt>
      <trkpt lat="45.94991" lon="4.81021">
        <ele>257</ele>
        <time>2018-10-23T10:16:44Z</time>
      </trkpt>
      <trkpt lat="45.9499" lon="4.81013">
        <ele>257</ele>
        <time>2018-10-23T10:16:45Z</time>
      </trkpt>
      <trkpt lat="45.94989" lon="4.81006">
        <ele>257</ele>
        <time>2018-10-23T10:16:46Z</time>
      </trkpt>
      <trkpt lat="45.94989" lon="4.80999">
        <ele>257</ele>
        <time>2018-10-23T10:16:47Z</time>
      </trkpt>
      <trkpt lat="45.94989" lon="4.80993">
        <ele>257</ele>
        <time>2018-10-23T10:16:48Z</time>
      </trkpt>
      <trkpt lat="45.94986" lon="4.80981">
        <ele>258</ele>
        <time>2018-10-23T10:16:50Z</time>
      </trkpt>
      <trkpt lat="45.94985" lon="4.80973">
        <ele>258</ele>
        <time>2018-10-23T10:16:51Z</time>
      </trkpt>
      <trkpt lat="45.94984" lon="4.80961">
        <ele>258</ele>
        <time>2018-10-23T10:16:53Z</time>
      </trkpt>
      <trkpt lat="45.94983" lon="4.80954">
        <ele>258</ele>
        <time>2018-10-23T10:16:54Z</time>
      </trkpt>
      <trkpt lat="45.94981" lon="4.80947">
        <ele>258</ele>
        <time>2018-10-23T10:16:55Z</time>
      </trkpt>
      <trkpt lat="45.9498" lon="4.8094">
        <ele>258</ele>
        <time>2018-10-23T10:16:56Z</time>
      </trkpt>
      <trkpt lat="45.94978" lon="4.80928">
        <ele>258</ele>
        <time>2018-10-23T10:16:58Z</time>
      </trkpt>
      <trkpt lat="45.94977" lon="4.80922">
        <ele>258</ele>
        <time>2018-10-23T10:16:59Z</time>
      </trkpt>
      <trkpt lat="45.94973" lon="4.80911">
        <ele>258</ele>
        <time>2018-10-23T10:17:01Z</time>
      </trkpt>
      <trkpt lat="45.94973" lon="4.80907">
        <ele>258</ele>
        <time>2018-10-23T10:17:02Z</time>
      </trkpt>
      <trkpt lat="45.94971" lon="4.80895">
        <ele>258</ele>
        <time>2018-10-23T10:17:04Z</time>
      </trkpt>
      <trkpt lat="45.9497" lon="4.8089">
        <ele>258</ele>
        <time>2018-10-23T10:17:05Z</time>
      </trkpt>
      <trkpt lat="45.94968" lon="4.80878">
        <ele>258</ele>
        <time>2018-10-23T10:17:07Z</time>
      </trkpt>
      <trkpt lat="45.94967" lon="4.80872">
        <ele>259</ele>
        <time>2018-10-23T10:17:08Z</time>
      </trkpt>
      <trkpt lat="45.94966" lon="4.80863">
        <ele>259</ele>
        <time>2018-10-23T10:17:10Z</time>
      </trkpt>
      <trkpt lat="45.94965" lon="4.8086">
        <ele>259</ele>
        <time>2018-10-23T10:17:11Z</time>
      </trkpt>
      <trkpt lat="45.94964" lon="4.80851">
        <ele>259</ele>
        <time>2018-10-23T10:17:12Z</time>
      </trkpt>
      <trkpt lat="45.94963" lon="4.80845">
        <ele>259</ele>
        <time>2018-10-23T10:17:13Z</time>
      </trkpt>
      <trkpt lat="45.9496" lon="4.80833">
        <ele>259</ele>
        <time>2018-10-23T10:17:15Z</time>
      </trkpt>
      <trkpt lat="45.94959" lon="4.80827">
        <ele>259</ele>
        <time>2018-10-23T10:17:16Z</time>
      </trkpt>
      <trkpt lat="45.94957" lon="4.80818">
        <ele>258</ele>
        <time>2018-10-23T10:17:18Z</time>
      </trkpt>
      <trkpt lat="45.94957" lon="4.80815">
        <ele>258</ele>
        <time>2018-10-23T10:17:19Z</time>
      </trkpt>
      <trkpt lat="45.94957" lon="4.80802">
        <ele>259</ele>
        <time>2018-10-23T10:17:24Z</time>
      </trkpt>
      <trkpt lat="45.94957" lon="4.80801">
        <ele>259</ele>
        <time>2018-10-23T10:17:25Z</time>
      </trkpt>
      <trkpt lat="45.94958" lon="4.8079">
        <ele>259</ele>
        <time>2018-10-23T10:17:30Z</time>
      </trkpt>
      <trkpt lat="45.94958" lon="4.80787">
        <ele>259</ele>
        <time>2018-10-23T10:17:31Z</time>
      </trkpt>
      <trkpt lat="45.94958" lon="4.80778">
        <ele>259</ele>
        <time>2018-10-23T10:17:33Z</time>
      </trkpt>
      <trkpt lat="45.94958" lon="4.80773">
        <ele>259</ele>
        <time>2018-10-23T10:17:34Z</time>
      </trkpt>
      <trkpt lat="45.94957" lon="4.80768">
        <ele>259</ele>
        <time>2018-10-23T10:17:35Z</time>
      </trkpt>
      <trkpt lat="45.94957" lon="4.80759">
        <ele>259</ele>
        <time>2018-10-23T10:17:36Z</time>
      </trkpt>
      <trkpt lat="45.94958" lon="4.80747">
        <ele>259</ele>
        <time>2018-10-23T10:17:38Z</time>
      </trkpt>
      <trkpt lat="45.94959" lon="4.8074">
        <ele>259</ele>
        <time>2018-10-23T10:17:39Z</time>
      </trkpt>
      <trkpt lat="45.9496" lon="4.80733">
        <ele>259</ele>
        <time>2018-10-23T10:17:40Z</time>
      </trkpt>
      <trkpt lat="45.94959" lon="4.80725">
        <ele>259</ele>
        <time>2018-10-23T10:17:41Z</time>
      </trkpt>
      <trkpt lat="45.94959" lon="4.80717">
        <ele>259</ele>
        <time>2018-10-23T10:17:42Z</time>
      </trkpt>
      <trkpt lat="45.94959" lon="4.80711">
        <ele>259</ele>
        <time>2018-10-23T10:17:43Z</time>
      </trkpt>
      <trkpt lat="45.94959" lon="4.80704">
        <ele>259</ele>
        <time>2018-10-23T10:17:44Z</time>
      </trkpt>
      <trkpt lat="45.94959" lon="4.80696">
        <ele>259</ele>
        <time>2018-10-23T10:17:45Z</time>
      </trkpt>
      <trkpt lat="45.94958" lon="4.80684">
        <ele>259</ele>
        <time>2018-10-23T10:17:47Z</time>
      </trkpt>
      <trkpt lat="45.94958" lon="4.80677">
        <ele>259</ele>
        <time>2018-10-23T10:17:48Z</time>
      </trkpt>
      <trkpt lat="45.94958" lon="4.8067">
        <ele>259</ele>
        <time>2018-10-23T10:17:49Z</time>
      </trkpt>
      <trkpt lat="45.94958" lon="4.80664">
        <ele>259</ele>
        <time>2018-10-23T10:17:50Z</time>
      </trkpt>
      <trkpt lat="45.94958" lon="4.80657">
        <ele>258</ele>
        <time>2018-10-23T10:17:51Z</time>
      </trkpt>
      <trkpt lat="45.94958" lon="4.80649">
        <ele>258</ele>
        <time>2018-10-23T10:17:52Z</time>
      </trkpt>
      <trkpt lat="45.94958" lon="4.80642">
        <ele>258</ele>
        <time>2018-10-23T10:17:53Z</time>
      </trkpt>
      <trkpt lat="45.94958" lon="4.80635">
        <ele>258</ele>
        <time>2018-10-23T10:17:54Z</time>
      </trkpt>
      <trkpt lat="45.94958" lon="4.80628">
        <ele>258</ele>
        <time>2018-10-23T10:17:55Z</time>
      </trkpt>
      <trkpt lat="45.94958" lon="4.8062">
        <ele>258</ele>
        <time>2018-10-23T10:17:56Z</time>
      </trkpt>
      <trkpt lat="45.94957" lon="4.80612">
        <ele>258</ele>
        <time>2018-10-23T10:17:57Z</time>
      </trkpt>
      <trkpt lat="45.94957" lon="4.80604">
        <ele>258</ele>
        <time>2018-10-23T10:17:58Z</time>
      </trkpt>
      <trkpt lat="45.94956" lon="4.80597">
        <ele>258</ele>
        <time>2018-10-23T10:17:59Z</time>
      </trkpt>
      <trkpt lat="45.94955" lon="4.80589">
        <ele>258</ele>
        <time>2018-10-23T10:18:00Z</time>
      </trkpt>
      <trkpt lat="45.94953" lon="4.80582">
        <ele>257</ele>
        <time>2018-10-23T10:18:01Z</time>
      </trkpt>
      <trkpt lat="45.94951" lon="4.80574">
        <ele>257</ele>
        <time>2018-10-23T10:18:02Z</time>
      </trkpt>
      <trkpt lat="45.94952" lon="4.80566">
        <ele>257</ele>
        <time>2018-10-23T10:18:03Z</time>
      </trkpt>
      <trkpt lat="45.94952" lon="4.80559">
        <ele>257</ele>
        <time>2018-10-23T10:18:04Z</time>
      </trkpt>
      <trkpt lat="45.94952" lon="4.80552">
        <ele>258</ele>
        <time>2018-10-23T10:18:05Z</time>
      </trkpt>
      <trkpt lat="45.9495" lon="4.80545">
        <ele>258</ele>
        <time>2018-10-23T10:18:06Z</time>
      </trkpt>
      <trkpt lat="45.9495" lon="4.80537">
        <ele>258</ele>
        <time>2018-10-23T10:18:07Z</time>
      </trkpt>
      <trkpt lat="45.94949" lon="4.80529">
        <ele>258</ele>
        <time>2018-10-23T10:18:08Z</time>
      </trkpt>
      <trkpt lat="45.94949" lon="4.8052">
        <ele>258</ele>
        <time>2018-10-23T10:18:09Z</time>
      </trkpt>
      <trkpt lat="45.94949" lon="4.80511">
        <ele>258</ele>
        <time>2018-10-23T10:18:10Z</time>
      </trkpt>
      <trkpt lat="45.94949" lon="4.80502">
        <ele>258</ele>
        <time>2018-10-23T10:18:11Z</time>
      </trkpt>
      <trkpt lat="45.94948" lon="4.80493">
        <ele>258</ele>
        <time>2018-10-23T10:18:12Z</time>
      </trkpt>
      <trkpt lat="45.94946" lon="4.80484">
        <ele>258</ele>
        <time>2018-10-23T10:18:13Z</time>
      </trkpt>
      <trkpt lat="45.94947" lon="4.80476">
        <ele>258</ele>
        <time>2018-10-23T10:18:14Z</time>
      </trkpt>
      <trkpt lat="45.94947" lon="4.80468">
        <ele>258</ele>
        <time>2018-10-23T10:18:15Z</time>
      </trkpt>
      <trkpt lat="45.94947" lon="4.8046">
        <ele>258</ele>
        <time>2018-10-23T10:18:16Z</time>
      </trkpt>
      <trkpt lat="45.94947" lon="4.80452">
        <ele>258</ele>
        <time>2018-10-23T10:18:17Z</time>
      </trkpt>
      <trkpt lat="45.94947" lon="4.80444">
        <ele>259</ele>
        <time>2018-10-23T10:18:18Z</time>
      </trkpt>
      <trkpt lat="45.94947" lon="4.80436">
        <ele>259</ele>
        <time>2018-10-23T10:18:19Z</time>
      </trkpt>
      <trkpt lat="45.94948" lon="4.80426">
        <ele>259</ele>
        <time>2018-10-23T10:18:20Z</time>
      </trkpt>
      <trkpt lat="45.94946" lon="4.80416">
        <ele>259</ele>
        <time>2018-10-23T10:18:21Z</time>
      </trkpt>
      <trkpt lat="45.94946" lon="4.80406">
        <ele>258</ele>
        <time>2018-10-23T10:18:22Z</time>
      </trkpt>
      <trkpt lat="45.94947" lon="4.80397">
        <ele>258</ele>
        <time>2018-10-23T10:18:23Z</time>
      </trkpt>
      <trkpt lat="45.94946" lon="4.80389">
        <ele>258</ele>
        <time>2018-10-23T10:18:24Z</time>
      </trkpt>
      <trkpt lat="45.94947" lon="4.80381">
        <ele>258</ele>
        <time>2018-10-23T10:18:25Z</time>
      </trkpt>
      <trkpt lat="45.94947" lon="4.80373">
        <ele>258</ele>
        <time>2018-10-23T10:18:26Z</time>
      </trkpt>
      <trkpt lat="45.94945" lon="4.80364">
        <ele>258</ele>
        <time>2018-10-23T10:18:27Z</time>
      </trkpt>
      <trkpt lat="45.94945" lon="4.80354">
        <ele>258</ele>
        <time>2018-10-23T10:18:28Z</time>
      </trkpt>
      <trkpt lat="45.94945" lon="4.80346">
        <ele>258</ele>
        <time>2018-10-23T10:18:29Z</time>
      </trkpt>
      <trkpt lat="45.94947" lon="4.80339">
        <ele>258</ele>
        <time>2018-10-23T10:18:30Z</time>
      </trkpt>
      <trkpt lat="45.94947" lon="4.80331">
        <ele>257</ele>
        <time>2018-10-23T10:18:31Z</time>
      </trkpt>
      <trkpt lat="45.94946" lon="4.80321">
        <ele>257</ele>
        <time>2018-10-23T10:18:32Z</time>
      </trkpt>
      <trkpt lat="45.94946" lon="4.80313">
        <ele>257</ele>
        <time>2018-10-23T10:18:33Z</time>
      </trkpt>
      <trkpt lat="45.94946" lon="4.80304">
        <ele>257</ele>
        <time>2018-10-23T10:18:34Z</time>
      </trkpt>
      <trkpt lat="45.94946" lon="4.80294">
        <ele>257</ele>
        <time>2018-10-23T10:18:35Z</time>
      </trkpt>
      <trkpt lat="45.94947" lon="4.80285">
        <ele>257</ele>
        <time>2018-10-23T10:18:36Z</time>
      </trkpt>
      <trkpt lat="45.94946" lon="4.80276">
        <ele>257</ele>
        <time>2018-10-23T10:18:37Z</time>
      </trkpt>
      <trkpt lat="45.94946" lon="4.80267">
        <ele>257</ele>
        <time>2018-10-23T10:18:38Z</time>
      </trkpt>
      <trkpt lat="45.94945" lon="4.80259">
        <ele>257</ele>
        <time>2018-10-23T10:18:39Z</time>
      </trkpt>
      <trkpt lat="45.94945" lon="4.80251">
        <ele>257</ele>
        <time>2018-10-23T10:18:40Z</time>
      </trkpt>
      <trkpt lat="45.94943" lon="4.80243">
        <ele>256</ele>
        <time>2018-10-23T10:18:41Z</time>
      </trkpt>
      <trkpt lat="45.94942" lon="4.80235">
        <ele>256</ele>
        <time>2018-10-23T10:18:42Z</time>
      </trkpt>
      <trkpt lat="45.94941" lon="4.80228">
        <ele>256</ele>
        <time>2018-10-23T10:18:43Z</time>
      </trkpt>
      <trkpt lat="45.9494" lon="4.80219">
        <ele>256</ele>
        <time>2018-10-23T10:18:44Z</time>
      </trkpt>
      <trkpt lat="45.94939" lon="4.80211">
        <ele>256</ele>
        <time>2018-10-23T10:18:45Z</time>
      </trkpt>
      <trkpt lat="45.94938" lon="4.80202">
        <ele>256</ele>
        <time>2018-10-23T10:18:46Z</time>
      </trkpt>
      <trkpt lat="45.94937" lon="4.80195">
        <ele>256</ele>
        <time>2018-10-23T10:18:47Z</time>
      </trkpt>
      <trkpt lat="45.94936" lon="4.80187">
        <ele>256</ele>
        <time>2018-10-23T10:18:48Z</time>
      </trkpt>
      <trkpt lat="45.94935" lon="4.80179">
        <ele>256</ele>
        <time>2018-10-23T10:18:49Z</time>
      </trkpt>
      <trkpt lat="45.94933" lon="4.80171">
        <ele>256</ele>
        <time>2018-10-23T10:18:50Z</time>
      </trkpt>
      <trkpt lat="45.94931" lon="4.80162">
        <ele>255</ele>
        <time>2018-10-23T10:18:51Z</time>
      </trkpt>
      <trkpt lat="45.9493" lon="4.80154">
        <ele>255</ele>
        <time>2018-10-23T10:18:52Z</time>
      </trkpt>
      <trkpt lat="45.94928" lon="4.80143">
        <ele>256</ele>
        <time>2018-10-23T10:18:53Z</time>
      </trkpt>
      <trkpt lat="45.94926" lon="4.80134">
        <ele>256</ele>
        <time>2018-10-23T10:18:54Z</time>
      </trkpt>
      <trkpt lat="45.94924" lon="4.80123">
        <ele>256</ele>
        <time>2018-10-23T10:18:55Z</time>
      </trkpt>
      <trkpt lat="45.94922" lon="4.80115">
        <ele>256</ele>
        <time>2018-10-23T10:18:56Z</time>
      </trkpt>
      <trkpt lat="45.9492" lon="4.80105">
        <ele>256</ele>
        <time>2018-10-23T10:18:57Z</time>
      </trkpt>
      <trkpt lat="45.94917" lon="4.80097">
        <ele>256</ele>
        <time>2018-10-23T10:18:58Z</time>
      </trkpt>
      <trkpt lat="45.94915" lon="4.80089">
        <ele>257</ele>
        <time>2018-10-23T10:18:59Z</time>
      </trkpt>
      <trkpt lat="45.94913" lon="4.80081">
        <ele>257</ele>
        <time>2018-10-23T10:19:00Z</time>
      </trkpt>
      <trkpt lat="45.9491" lon="4.80072">
        <ele>257</ele>
        <time>2018-10-23T10:19:01Z</time>
      </trkpt>
      <trkpt lat="45.94908" lon="4.80065">
        <ele>256</ele>
        <time>2018-10-23T10:19:02Z</time>
      </trkpt>
      <trkpt lat="45.94906" lon="4.80057">
        <ele>256</ele>
        <time>2018-10-23T10:19:03Z</time>
      </trkpt>
      <trkpt lat="45.94905" lon="4.80049">
        <ele>256</ele>
        <time>2018-10-23T10:19:04Z</time>
      </trkpt>
      <trkpt lat="45.94904" lon="4.80042">
        <ele>256</ele>
        <time>2018-10-23T10:19:05Z</time>
      </trkpt>
      <trkpt lat="45.94901" lon="4.80034">
        <ele>256</ele>
        <time>2018-10-23T10:19:06Z</time>
      </trkpt>
      <trkpt lat="45.94898" lon="4.80025">
        <ele>256</ele>
        <time>2018-10-23T10:19:07Z</time>
      </trkpt>
      <trkpt lat="45.94896" lon="4.80017">
        <ele>256</ele>
        <time>2018-10-23T10:19:08Z</time>
      </trkpt>
      <trkpt lat="45.94893" lon="4.80009">
        <ele>256</ele>
        <time>2018-10-23T10:19:09Z</time>
      </trkpt>
      <trkpt lat="45.9489" lon="4.79999">
        <ele>256</ele>
        <time>2018-10-23T10:19:10Z</time>
      </trkpt>
      <trkpt lat="45.94886" lon="4.7999">
        <ele>256</ele>
        <time>2018-10-23T10:19:11Z</time>
      </trkpt>
      <trkpt lat="45.94883" lon="4.79982">
        <ele>256</ele>
        <time>2018-10-23T10:19:12Z</time>
      </trkpt>
      <trkpt lat="45.94879" lon="4.79973">
        <ele>256</ele>
        <time>2018-10-23T10:19:13Z</time>
      </trkpt>
      <trkpt lat="45.94877" lon="4.79965">
        <ele>256</ele>
        <time>2018-10-23T10:19:14Z</time>
      </trkpt>
      <trkpt lat="45.94874" lon="4.79958">
        <ele>256</ele>
        <time>2018-10-23T10:19:15Z</time>
      </trkpt>
      <trkpt lat="45.94871" lon="4.7995">
        <ele>256</ele>
        <time>2018-10-23T10:19:16Z</time>
      </trkpt>
      <trkpt lat="45.94867" lon="4.79942">
        <ele>256</ele>
        <time>2018-10-23T10:19:17Z</time>
      </trkpt>
      <trkpt lat="45.94865" lon="4.79934">
        <ele>256</ele>
        <time>2018-10-23T10:19:18Z</time>
      </trkpt>
      <trkpt lat="45.94861" lon="4.79926">
        <ele>256</ele>
        <time>2018-10-23T10:19:19Z</time>
      </trkpt>
      <trkpt lat="45.94858" lon="4.7992">
        <ele>256</ele>
        <time>2018-10-23T10:19:20Z</time>
      </trkpt>
      <trkpt lat="45.94855" lon="4.79912">
        <ele>255</ele>
        <time>2018-10-23T10:19:21Z</time>
      </trkpt>
      <trkpt lat="45.94853" lon="4.79903">
        <ele>255</ele>
        <time>2018-10-23T10:19:22Z</time>
      </trkpt>
      <trkpt lat="45.9485" lon="4.79895">
        <ele>255</ele>
        <time>2018-10-23T10:19:23Z</time>
      </trkpt>
      <trkpt lat="45.94847" lon="4.79887">
        <ele>255</ele>
        <time>2018-10-23T10:19:24Z</time>
      </trkpt>
      <trkpt lat="45.94844" lon="4.79878">
        <ele>255</ele>
        <time>2018-10-23T10:19:25Z</time>
      </trkpt>
      <trkpt lat="45.94842" lon="4.79869">
        <ele>255</ele>
        <time>2018-10-23T10:19:26Z</time>
      </trkpt>
      <trkpt lat="45.94839" lon="4.7986">
        <ele>255</ele>
        <time>2018-10-23T10:19:27Z</time>
      </trkpt>
      <trkpt lat="45.94836" lon="4.79851">
        <ele>255</ele>
        <time>2018-10-23T10:19:28Z</time>
      </trkpt>
      <trkpt lat="45.94835" lon="4.79842">
        <ele>254</ele>
        <time>2018-10-23T10:19:29Z</time>
      </trkpt>
      <trkpt lat="45.94832" lon="4.79832">
        <ele>254</ele>
        <time>2018-10-23T10:19:30Z</time>
      </trkpt>
      <trkpt lat="45.9483" lon="4.79824">
        <ele>254</ele>
        <time>2018-10-23T10:19:31Z</time>
      </trkpt>
      <trkpt lat="45.94827" lon="4.79815">
        <ele>254</ele>
        <time>2018-10-23T10:19:32Z</time>
      </trkpt>
      <trkpt lat="45.94824" lon="4.79807">
        <ele>254</ele>
        <time>2018-10-23T10:19:33Z</time>
      </trkpt>
      <trkpt lat="45.94821" lon="4.79797">
        <ele>254</ele>
        <time>2018-10-23T10:19:34Z</time>
      </trkpt>
      <trkpt lat="45.94819" lon="4.79788">
        <ele>254</ele>
        <time>2018-10-23T10:19:35Z</time>
      </trkpt>
      <trkpt lat="45.94817" lon="4.7978">
        <ele>254</ele>
        <time>2018-10-23T10:19:36Z</time>
      </trkpt>
      <trkpt lat="45.94815" lon="4.79772">
        <ele>254</ele>
        <time>2018-10-23T10:19:37Z</time>
      </trkpt>
      <trkpt lat="45.94812" lon="4.79764">
        <ele>254</ele>
        <time>2018-10-23T10:19:38Z</time>
      </trkpt>
      <trkpt lat="45.94811" lon="4.79755">
        <ele>254</ele>
        <time>2018-10-23T10:19:39Z</time>
      </trkpt>
      <trkpt lat="45.94809" lon="4.79747">
        <ele>254</ele>
        <time>2018-10-23T10:19:40Z</time>
      </trkpt>
      <trkpt lat="45.94806" lon="4.79739">
        <ele>254</ele>
        <time>2018-10-23T10:19:41Z</time>
      </trkpt>
      <trkpt lat="45.94804" lon="4.79731">
        <ele>254</ele>
        <time>2018-10-23T10:19:42Z</time>
      </trkpt>
      <trkpt lat="45.94801" lon="4.79724">
        <ele>254</ele>
        <time>2018-10-23T10:19:43Z</time>
      </trkpt>
      <trkpt lat="45.94799" lon="4.79716">
        <ele>254</ele>
        <time>2018-10-23T10:19:44Z</time>
      </trkpt>
      <trkpt lat="45.94796" lon="4.79708">
        <ele>254</ele>
        <time>2018-10-23T10:19:45Z</time>
      </trkpt>
      <trkpt lat="45.94793" lon="4.79702">
        <ele>254</ele>
        <time>2018-10-23T10:19:46Z</time>
      </trkpt>
      <trkpt lat="45.94791" lon="4.79696">
        <ele>254</ele>
        <time>2018-10-23T10:19:47Z</time>
      </trkpt>
      <trkpt lat="45.94789" lon="4.79688">
        <ele>254</ele>
        <time>2018-10-23T10:19:48Z</time>
      </trkpt>
      <trkpt lat="45.94787" lon="4.79682">
        <ele>254</ele>
        <time>2018-10-23T10:19:49Z</time>
      </trkpt>
      <trkpt lat="45.94785" lon="4.79675">
        <ele>254</ele>
        <time>2018-10-23T10:19:50Z</time>
      </trkpt>
      <trkpt lat="45.94783" lon="4.79666">
        <ele>254</ele>
        <time>2018-10-23T10:19:51Z</time>
      </trkpt>
      <trkpt lat="45.94781" lon="4.79658">
        <ele>254</ele>
        <time>2018-10-23T10:19:52Z</time>
      </trkpt>
      <trkpt lat="45.94779" lon="4.7965">
        <ele>254</ele>
        <time>2018-10-23T10:19:53Z</time>
      </trkpt>
      <trkpt lat="45.94779" lon="4.79641">
        <ele>254</ele>
        <time>2018-10-23T10:19:54Z</time>
      </trkpt>
      <trkpt lat="45.94776" lon="4.79635">
        <ele>253</ele>
        <time>2018-10-23T10:19:55Z</time>
      </trkpt>
      <trkpt lat="45.94774" lon="4.79627">
        <ele>253</ele>
        <time>2018-10-23T10:19:56Z</time>
      </trkpt>
      <trkpt lat="45.9477" lon="4.79618">
        <ele>253</ele>
        <time>2018-10-23T10:19:57Z</time>
      </trkpt>
      <trkpt lat="45.94768" lon="4.7961">
        <ele>253</ele>
        <time>2018-10-23T10:19:58Z</time>
      </trkpt>
      <trkpt lat="45.94767" lon="4.79602">
        <ele>253</ele>
        <time>2018-10-23T10:19:59Z</time>
      </trkpt>
      <trkpt lat="45.94765" lon="4.79596">
        <ele>253</ele>
        <time>2018-10-23T10:20:00Z</time>
      </trkpt>
      <trkpt lat="45.94768" lon="4.79587">
        <ele>253</ele>
        <time>2018-10-23T10:20:04Z</time>
      </trkpt>
      <trkpt lat="45.9477" lon="4.79583">
        <ele>252</ele>
        <time>2018-10-23T10:20:05Z</time>
      </trkpt>
      <trkpt lat="45.94768" lon="4.79571">
        <ele>252</ele>
        <time>2018-10-23T10:20:07Z</time>
      </trkpt>
      <trkpt lat="45.94768" lon="4.79566">
        <ele>252</ele>
        <time>2018-10-23T10:20:08Z</time>
      </trkpt>
      <trkpt lat="45.94767" lon="4.79559">
        <ele>252</ele>
        <time>2018-10-23T10:20:09Z</time>
      </trkpt>
      <trkpt lat="45.94764" lon="4.79553">
        <ele>252</ele>
        <time>2018-10-23T10:20:10Z</time>
      </trkpt>
      <trkpt lat="45.94761" lon="4.79546">
        <ele>252</ele>
        <time>2018-10-23T10:20:11Z</time>
      </trkpt>
      <trkpt lat="45.94759" lon="4.79539">
        <ele>252</ele>
        <time>2018-10-23T10:20:12Z</time>
      </trkpt>
      <trkpt lat="45.94756" lon="4.79532">
        <ele>252</ele>
        <time>2018-10-23T10:20:13Z</time>
      </trkpt>
      <trkpt lat="45.94754" lon="4.79525">
        <ele>252</ele>
        <time>2018-10-23T10:20:14Z</time>
      </trkpt>
      <trkpt lat="45.94751" lon="4.79516">
        <ele>252</ele>
        <time>2018-10-23T10:20:15Z</time>
      </trkpt>
      <trkpt lat="45.94748" lon="4.79508">
        <ele>252</ele>
        <time>2018-10-23T10:20:16Z</time>
      </trkpt>
      <trkpt lat="45.94745" lon="4.79499">
        <ele>252</ele>
        <time>2018-10-23T10:20:17Z</time>
      </trkpt>
      <trkpt lat="45.94741" lon="4.79491">
        <ele>252</ele>
        <time>2018-10-23T10:20:18Z</time>
      </trkpt>
      <trkpt lat="45.94737" lon="4.79483">
        <ele>253</ele>
        <time>2018-10-23T10:20:19Z</time>
      </trkpt>
      <trkpt lat="45.94735" lon="4.79475">
        <ele>253</ele>
        <time>2018-10-23T10:20:20Z</time>
      </trkpt>
      <trkpt lat="45.94732" lon="4.79467">
        <ele>253</ele>
        <time>2018-10-23T10:20:21Z</time>
      </trkpt>
      <trkpt lat="45.94729" lon="4.7946">
        <ele>253</ele>
        <time>2018-10-23T10:20:22Z</time>
      </trkpt>
      <trkpt lat="45.94725" lon="4.79451">
        <ele>253</ele>
        <time>2018-10-23T10:20:23Z</time>
      </trkpt>
      <trkpt lat="45.94721" lon="4.79443">
        <ele>253</ele>
        <time>2018-10-23T10:20:24Z</time>
      </trkpt>
      <trkpt lat="45.94718" lon="4.79436">
        <ele>253</ele>
        <time>2018-10-23T10:20:25Z</time>
      </trkpt>
      <trkpt lat="45.94714" lon="4.79429">
        <ele>253</ele>
        <time>2018-10-23T10:20:26Z</time>
      </trkpt>
      <trkpt lat="45.9471" lon="4.79422">
        <ele>253</ele>
        <time>2018-10-23T10:20:27Z</time>
      </trkpt>
      <trkpt lat="45.94707" lon="4.79414">
        <ele>253</ele>
        <time>2018-10-23T10:20:28Z</time>
      </trkpt>
      <trkpt lat="45.94703" lon="4.79407">
        <ele>253</ele>
        <time>2018-10-23T10:20:29Z</time>
      </trkpt>
      <trkpt lat="45.94699" lon="4.794">
        <ele>253</ele>
        <time>2018-10-23T10:20:30Z</time>
      </trkpt>
      <trkpt lat="45.94695" lon="4.79392">
        <ele>253</ele>
        <time>2018-10-23T10:20:31Z</time>
      </trkpt>
      <trkpt lat="45.94692" lon="4.79385">
        <ele>253</ele>
        <time>2018-10-23T10:20:32Z</time>
      </trkpt>
      <trkpt lat="45.94688" lon="4.79377">
        <ele>253</ele>
        <time>2018-10-23T10:20:33Z</time>
      </trkpt>
      <trkpt lat="45.94685" lon="4.79369">
        <ele>253</ele>
        <time>2018-10-23T10:20:34Z</time>
      </trkpt>
      <trkpt lat="45.94681" lon="4.7936">
        <ele>253</ele>
        <time>2018-10-23T10:20:35Z</time>
      </trkpt>
      <trkpt lat="45.94677" lon="4.79353">
        <ele>253</ele>
        <time>2018-10-23T10:20:36Z</time>
      </trkpt>
      <trkpt lat="45.94673" lon="4.79346">
        <ele>253</ele>
        <time>2018-10-23T10:20:37Z</time>
      </trkpt>
      <trkpt lat="45.94669" lon="4.79338">
        <ele>254</ele>
        <time>2018-10-23T10:20:38Z</time>
      </trkpt>
      <trkpt lat="45.94666" lon="4.79331">
        <ele>254</ele>
        <time>2018-10-23T10:20:39Z</time>
      </trkpt>
      <trkpt lat="45.94661" lon="4.79324">
        <ele>254</ele>
        <time>2018-10-23T10:20:40Z</time>
      </trkpt>
      <trkpt lat="45.94657" lon="4.79316">
        <ele>254</ele>
        <time>2018-10-23T10:20:41Z</time>
      </trkpt>
      <trkpt lat="45.94653" lon="4.79308">
        <ele>254</ele>
        <time>2018-10-23T10:20:42Z</time>
      </trkpt>
      <trkpt lat="45.94649" lon="4.79301">
        <ele>254</ele>
        <time>2018-10-23T10:20:43Z</time>
      </trkpt>
      <trkpt lat="45.94646" lon="4.79294">
        <ele>254</ele>
        <time>2018-10-23T10:20:44Z</time>
      </trkpt>
      <trkpt lat="45.94641" lon="4.79285">
        <ele>254</ele>
        <time>2018-10-23T10:20:45Z</time>
      </trkpt>
      <trkpt lat="45.94638" lon="4.79278">
        <ele>254</ele>
        <time>2018-10-23T10:20:46Z</time>
      </trkpt>
      <trkpt lat="45.94634" lon="4.79269">
        <ele>254</ele>
        <time>2018-10-23T10:20:47Z</time>
      </trkpt>
      <trkpt lat="45.9463" lon="4.79263">
        <ele>254</ele>
        <time>2018-10-23T10:20:48Z</time>
      </trkpt>
      <trkpt lat="45.94627" lon="4.79255">
        <ele>254</ele>
        <time>2018-10-23T10:20:49Z</time>
      </trkpt>
      <trkpt lat="45.94623" lon="4.79247">
        <ele>256</ele>
        <time>2018-10-23T10:20:50Z</time>
      </trkpt>
      <trkpt lat="45.94619" lon="4.79239">
        <ele>256</ele>
        <time>2018-10-23T10:20:51Z</time>
      </trkpt>
      <trkpt lat="45.94617" lon="4.79231">
        <ele>256</ele>
        <time>2018-10-23T10:20:52Z</time>
      </trkpt>
      <trkpt lat="45.94613" lon="4.79223">
        <ele>256</ele>
        <time>2018-10-23T10:20:53Z</time>
      </trkpt>
      <trkpt lat="45.94609" lon="4.79218">
        <ele>257</ele>
        <time>2018-10-23T10:20:54Z</time>
      </trkpt>
      <trkpt lat="45.94608" lon="4.79211">
        <ele>257</ele>
        <time>2018-10-23T10:20:55Z</time>
      </trkpt>
      <trkpt lat="45.94606" lon="4.79205">
        <ele>257</ele>
        <time>2018-10-23T10:20:56Z</time>
      </trkpt>
      <trkpt lat="45.94602" lon="4.79198">
        <ele>257</ele>
        <time>2018-10-23T10:20:57Z</time>
      </trkpt>
      <trkpt lat="45.94599" lon="4.79192">
        <ele>257</ele>
        <time>2018-10-23T10:20:58Z</time>
      </trkpt>
      <trkpt lat="45.94595" lon="4.79186">
        <ele>258</ele>
        <time>2018-10-23T10:20:59Z</time>
      </trkpt>
      <trkpt lat="45.94591" lon="4.79179">
        <ele>258</ele>
        <time>2018-10-23T10:21:00Z</time>
      </trkpt>
      <trkpt lat="45.94587" lon="4.7917">
        <ele>259</ele>
        <time>2018-10-23T10:21:01Z</time>
      </trkpt>
      <trkpt lat="45.9458" lon="4.79158">
        <ele>258</ele>
        <time>2018-10-23T10:21:02Z</time>
      </trkpt>
      <trkpt lat="45.94577" lon="4.79151">
        <ele>258</ele>
        <time>2018-10-23T10:21:03Z</time>
      </trkpt>
      <trkpt lat="45.94574" lon="4.79142">
        <ele>257</ele>
        <time>2018-10-23T10:21:04Z</time>
      </trkpt>
      <trkpt lat="45.94572" lon="4.79135">
        <ele>257</ele>
        <time>2018-10-23T10:21:05Z</time>
      </trkpt>
      <trkpt lat="45.9457" lon="4.79127">
        <ele>257</ele>
        <time>2018-10-23T10:21:06Z</time>
      </trkpt>
      <trkpt lat="45.94569" lon="4.79119">
        <ele>257</ele>
        <time>2018-10-23T10:21:07Z</time>
      </trkpt>
      <trkpt lat="45.94564" lon="4.79111">
        <ele>257</ele>
        <time>2018-10-23T10:21:08Z</time>
      </trkpt>
      <trkpt lat="45.94559" lon="4.79103">
        <ele>257</ele>
        <time>2018-10-23T10:21:09Z</time>
      </trkpt>
      <trkpt lat="45.94556" lon="4.79097">
        <ele>257</ele>
        <time>2018-10-23T10:21:10Z</time>
      </trkpt>
      <trkpt lat="45.94553" lon="4.7909">
        <ele>257</ele>
        <time>2018-10-23T10:21:11Z</time>
      </trkpt>
      <trkpt lat="45.9455" lon="4.79083">
        <ele>256</ele>
        <time>2018-10-23T10:21:12Z</time>
      </trkpt>
      <trkpt lat="45.94545" lon="4.79075">
        <ele>256</ele>
        <time>2018-10-23T10:21:13Z</time>
      </trkpt>
      <trkpt lat="45.9454" lon="4.79068">
        <ele>256</ele>
        <time>2018-10-23T10:21:14Z</time>
      </trkpt>
      <trkpt lat="45.94537" lon="4.7906">
        <ele>255</ele>
        <time>2018-10-23T10:21:15Z</time>
      </trkpt>
      <trkpt lat="45.94534" lon="4.79054">
        <ele>255</ele>
        <time>2018-10-23T10:21:16Z</time>
      </trkpt>
      <trkpt lat="45.94531" lon="4.79049">
        <ele>255</ele>
        <time>2018-10-23T10:21:17Z</time>
      </trkpt>
      <trkpt lat="45.94528" lon="4.79045">
        <ele>255</ele>
        <time>2018-10-23T10:21:18Z</time>
      </trkpt>
      <trkpt lat="45.94524" lon="4.79039">
        <ele>255</ele>
        <time>2018-10-23T10:21:19Z</time>
      </trkpt>
      <trkpt lat="45.9452" lon="4.7903">
        <ele>255</ele>
        <time>2018-10-23T10:21:20Z</time>
      </trkpt>
      <trkpt lat="45.94517" lon="4.79024">
        <ele>255</ele>
        <time>2018-10-23T10:21:21Z</time>
      </trkpt>
      <trkpt lat="45.94513" lon="4.79019">
        <ele>255</ele>
        <time>2018-10-23T10:21:22Z</time>
      </trkpt>
      <trkpt lat="45.94509" lon="4.79011">
        <ele>255</ele>
        <time>2018-10-23T10:21:23Z</time>
      </trkpt>
      <trkpt lat="45.94502" lon="4.79006">
        <ele>254</ele>
        <time>2018-10-23T10:21:24Z</time>
      </trkpt>
      <trkpt lat="45.94498" lon="4.78998">
        <ele>254</ele>
        <time>2018-10-23T10:21:25Z</time>
      </trkpt>
      <trkpt lat="45.94494" lon="4.78991">
        <ele>254</ele>
        <time>2018-10-23T10:21:26Z</time>
      </trkpt>
      <trkpt lat="45.94491" lon="4.78983">
        <ele>254</ele>
        <time>2018-10-23T10:21:27Z</time>
      </trkpt>
      <trkpt lat="45.94486" lon="4.78976">
        <ele>254</ele>
        <time>2018-10-23T10:21:28Z</time>
      </trkpt>
      <trkpt lat="45.94483" lon="4.78967">
        <ele>254</ele>
        <time>2018-10-23T10:21:29Z</time>
      </trkpt>
      <trkpt lat="45.94479" lon="4.78959">
        <ele>254</ele>
        <time>2018-10-23T10:21:30Z</time>
      </trkpt>
      <trkpt lat="45.94475" lon="4.7895">
        <ele>254</ele>
        <time>2018-10-23T10:21:31Z</time>
      </trkpt>
      <trkpt lat="45.94471" lon="4.7894">
        <ele>254</ele>
        <time>2018-10-23T10:21:32Z</time>
      </trkpt>
      <trkpt lat="45.94469" lon="4.78929">
        <ele>254</ele>
        <time>2018-10-23T10:21:33Z</time>
      </trkpt>
      <trkpt lat="45.94467" lon="4.78917">
        <ele>254</ele>
        <time>2018-10-23T10:21:34Z</time>
      </trkpt>
      <trkpt lat="45.94465" lon="4.78905">
        <ele>253</ele>
        <time>2018-10-23T10:21:35Z</time>
      </trkpt>
      <trkpt lat="45.94463" lon="4.78891">
        <ele>253</ele>
        <time>2018-10-23T10:21:36Z</time>
      </trkpt>
      <trkpt lat="45.94462" lon="4.78878">
        <ele>253</ele>
        <time>2018-10-23T10:21:37Z</time>
      </trkpt>
      <trkpt lat="45.94463" lon="4.78863">
        <ele>253</ele>
        <time>2018-10-23T10:21:38Z</time>
      </trkpt>
      <trkpt lat="45.94466" lon="4.78848">
        <ele>253</ele>
        <time>2018-10-23T10:21:39Z</time>
      </trkpt>
      <trkpt lat="45.94469" lon="4.78834">
        <ele>253</ele>
        <time>2018-10-23T10:21:40Z</time>
      </trkpt>
      <trkpt lat="45.9447" lon="4.78821">
        <ele>251</ele>
        <time>2018-10-23T10:21:41Z</time>
      </trkpt>
      <trkpt lat="45.94475" lon="4.78806">
        <ele>251</ele>
        <time>2018-10-23T10:21:42Z</time>
      </trkpt>
      <trkpt lat="45.94478" lon="4.78792">
        <ele>250</ele>
        <time>2018-10-23T10:21:43Z</time>
      </trkpt>
      <trkpt lat="45.94481" lon="4.78778">
        <ele>250</ele>
        <time>2018-10-23T10:21:44Z</time>
      </trkpt>
      <trkpt lat="45.94484" lon="4.78762">
        <ele>249</ele>
        <time>2018-10-23T10:21:45Z</time>
      </trkpt>
      <trkpt lat="45.94485" lon="4.78747">
        <ele>246</ele>
        <time>2018-10-23T10:21:46Z</time>
      </trkpt>
      <trkpt lat="45.94485" lon="4.78731">
        <ele>246</ele>
        <time>2018-10-23T10:21:47Z</time>
      </trkpt>
      <trkpt lat="45.94484" lon="4.78715">
        <ele>245</ele>
        <time>2018-10-23T10:21:48Z</time>
      </trkpt>
      <trkpt lat="45.94482" lon="4.78699">
        <ele>244</ele>
        <time>2018-10-23T10:21:49Z</time>
      </trkpt>
      <trkpt lat="45.9448" lon="4.78683">
        <ele>244</ele>
        <time>2018-10-23T10:21:50Z</time>
      </trkpt>
      <trkpt lat="45.94479" lon="4.78668">
        <ele>243</ele>
        <time>2018-10-23T10:21:51Z</time>
      </trkpt>
      <trkpt lat="45.94476" lon="4.78651">
        <ele>241</ele>
        <time>2018-10-23T10:21:52Z</time>
      </trkpt>
      <trkpt lat="45.94473" lon="4.78635">
        <ele>241</ele>
        <time>2018-10-23T10:21:53Z</time>
      </trkpt>
      <trkpt lat="45.94469" lon="4.78619">
        <ele>241</ele>
        <time>2018-10-23T10:21:54Z</time>
      </trkpt>
      <trkpt lat="45.94464" lon="4.78603">
        <ele>241</ele>
        <time>2018-10-23T10:21:55Z</time>
      </trkpt>
      <trkpt lat="45.94457" lon="4.78589">
        <ele>240</ele>
        <time>2018-10-23T10:21:56Z</time>
      </trkpt>
      <trkpt lat="45.9445" lon="4.78575">
        <ele>239</ele>
        <time>2018-10-23T10:21:57Z</time>
      </trkpt>
      <trkpt lat="45.94443" lon="4.78562">
        <ele>239</ele>
        <time>2018-10-23T10:21:58Z</time>
      </trkpt>
      <trkpt lat="45.94435" lon="4.78548">
        <ele>239</ele>
        <time>2018-10-23T10:21:59Z</time>
      </trkpt>
      <trkpt lat="45.94429" lon="4.78535">
        <ele>238</ele>
        <time>2018-10-23T10:22:00Z</time>
      </trkpt>
      <trkpt lat="45.94421" lon="4.78523">
        <ele>237</ele>
        <time>2018-10-23T10:22:01Z</time>
      </trkpt>
      <trkpt lat="45.94412" lon="4.78512">
        <ele>236</ele>
        <time>2018-10-23T10:22:02Z</time>
      </trkpt>
      <trkpt lat="45.94402" lon="4.78503">
        <ele>236</ele>
        <time>2018-10-23T10:22:03Z</time>
      </trkpt>
      <trkpt lat="45.94393" lon="4.78492">
        <ele>235</ele>
        <time>2018-10-23T10:22:04Z</time>
      </trkpt>
      <trkpt lat="45.94383" lon="4.78482">
        <ele>236</ele>
        <time>2018-10-23T10:22:05Z</time>
      </trkpt>
      <trkpt lat="45.94375" lon="4.7847">
        <ele>236</ele>
        <time>2018-10-23T10:22:06Z</time>
      </trkpt>
      <trkpt lat="45.94366" lon="4.78459">
        <ele>236</ele>
        <time>2018-10-23T10:22:07Z</time>
      </trkpt>
      <trkpt lat="45.94358" lon="4.78447">
        <ele>235</ele>
        <time>2018-10-23T10:22:08Z</time>
      </trkpt>
      <trkpt lat="45.9435" lon="4.78435">
        <ele>234</ele>
        <time>2018-10-23T10:22:09Z</time>
      </trkpt>
      <trkpt lat="45.94342" lon="4.78423">
        <ele>232</ele>
        <time>2018-10-23T10:22:10Z</time>
      </trkpt>
      <trkpt lat="45.94334" lon="4.78411">
        <ele>231</ele>
        <time>2018-10-23T10:22:11Z</time>
      </trkpt>
      <trkpt lat="45.94327" lon="4.78399">
        <ele>230</ele>
        <time>2018-10-23T10:22:12Z</time>
      </trkpt>
      <trkpt lat="45.94321" lon="4.78385">
        <ele>230</ele>
        <time>2018-10-23T10:22:13Z</time>
      </trkpt>
      <trkpt lat="45.94314" lon="4.78371">
        <ele>229</ele>
        <time>2018-10-23T10:22:14Z</time>
      </trkpt>
      <trkpt lat="45.94308" lon="4.78358">
        <ele>229</ele>
        <time>2018-10-23T10:22:15Z</time>
      </trkpt>
      <trkpt lat="45.943" lon="4.78345">
        <ele>229</ele>
        <time>2018-10-23T10:22:16Z</time>
      </trkpt>
      <trkpt lat="45.94292" lon="4.78334">
        <ele>228</ele>
        <time>2018-10-23T10:22:17Z</time>
      </trkpt>
      <trkpt lat="45.94283" lon="4.78324">
        <ele>228</ele>
        <time>2018-10-23T10:22:18Z</time>
      </trkpt>
      <trkpt lat="45.94274" lon="4.78314">
        <ele>228</ele>
        <time>2018-10-23T10:22:19Z</time>
      </trkpt>
      <trkpt lat="45.94264" lon="4.78306">
        <ele>228</ele>
        <time>2018-10-23T10:22:20Z</time>
      </trkpt>
      <trkpt lat="45.94255" lon="4.783">
        <ele>228</ele>
        <time>2018-10-23T10:22:21Z</time>
      </trkpt>
      <trkpt lat="45.94245" lon="4.78295">
        <ele>222</ele>
        <time>2018-10-23T10:22:22Z</time>
      </trkpt>
      <trkpt lat="45.94233" lon="4.78293">
        <ele>222</ele>
        <time>2018-10-23T10:22:23Z</time>
      </trkpt>
      <trkpt lat="45.94222" lon="4.78291">
        <ele>222</ele>
        <time>2018-10-23T10:22:24Z</time>
      </trkpt>
      <trkpt lat="45.94212" lon="4.78289">
        <ele>222</ele>
        <time>2018-10-23T10:22:25Z</time>
      </trkpt>
      <trkpt lat="45.94202" lon="4.78287">
        <ele>221</ele>
        <time>2018-10-23T10:22:26Z</time>
      </trkpt>
      <trkpt lat="45.94192" lon="4.78283">
        <ele>221</ele>
        <time>2018-10-23T10:22:27Z</time>
      </trkpt>
      <trkpt lat="45.94183" lon="4.78278">
        <ele>221</ele>
        <time>2018-10-23T10:22:28Z</time>
      </trkpt>
      <trkpt lat="45.94173" lon="4.78272">
        <ele>220</ele>
        <time>2018-10-23T10:22:29Z</time>
      </trkpt>
      <trkpt lat="45.94164" lon="4.78267">
        <ele>217</ele>
        <time>2018-10-23T10:22:30Z</time>
      </trkpt>
      <trkpt lat="45.94154" lon="4.78261">
        <ele>216</ele>
        <time>2018-10-23T10:22:31Z</time>
      </trkpt>
      <trkpt lat="45.94145" lon="4.78257">
        <ele>216</ele>
        <time>2018-10-23T10:22:32Z</time>
      </trkpt>
      <trkpt lat="45.94137" lon="4.7825">
        <ele>216</ele>
        <time>2018-10-23T10:22:33Z</time>
      </trkpt>
      <trkpt lat="45.94128" lon="4.78244">
        <ele>215</ele>
        <time>2018-10-23T10:22:34Z</time>
      </trkpt>
      <trkpt lat="45.94118" lon="4.78238">
        <ele>214</ele>
        <time>2018-10-23T10:22:35Z</time>
      </trkpt>
      <trkpt lat="45.94108" lon="4.78233">
        <ele>213</ele>
        <time>2018-10-23T10:22:36Z</time>
      </trkpt>
      <trkpt lat="45.94099" lon="4.78227">
        <ele>213</ele>
        <time>2018-10-23T10:22:37Z</time>
      </trkpt>
      <trkpt lat="45.94091" lon="4.7822">
        <ele>213</ele>
        <time>2018-10-23T10:22:38Z</time>
      </trkpt>
      <trkpt lat="45.94082" lon="4.78214">
        <ele>206</ele>
        <time>2018-10-23T10:22:39Z</time>
      </trkpt>
      <trkpt lat="45.94073" lon="4.78207">
        <ele>206</ele>
        <time>2018-10-23T10:22:40Z</time>
      </trkpt>
      <trkpt lat="45.94064" lon="4.78201">
        <ele>206</ele>
        <time>2018-10-23T10:22:41Z</time>
      </trkpt>
      <trkpt lat="45.94054" lon="4.78198">
        <ele>206</ele>
        <time>2018-10-23T10:22:42Z</time>
      </trkpt>
      <trkpt lat="45.94045" lon="4.78192">
        <ele>205</ele>
        <time>2018-10-23T10:22:43Z</time>
      </trkpt>
      <trkpt lat="45.94039" lon="4.78189">
        <ele>205</ele>
        <time>2018-10-23T10:22:44Z</time>
      </trkpt>
      <trkpt lat="45.94031" lon="4.78185">
        <ele>204</ele>
        <time>2018-10-23T10:22:45Z</time>
      </trkpt>
      <trkpt lat="45.94024" lon="4.78181">
        <ele>204</ele>
        <time>2018-10-23T10:22:46Z</time>
      </trkpt>
      <trkpt lat="45.94018" lon="4.78178">
        <ele>203</ele>
        <time>2018-10-23T10:22:47Z</time>
      </trkpt>
      <trkpt lat="45.94013" lon="4.78176">
        <ele>203</ele>
        <time>2018-10-23T10:22:48Z</time>
      </trkpt>
      <trkpt lat="45.94008" lon="4.78173">
        <ele>202</ele>
        <time>2018-10-23T10:22:49Z</time>
      </trkpt>
      <trkpt lat="45.94003" lon="4.78166">
        <ele>201</ele>
        <time>2018-10-23T10:22:51Z</time>
      </trkpt>
      <trkpt lat="45.93999" lon="4.7816">
        <ele>200</ele>
        <time>2018-10-23T10:22:52Z</time>
      </trkpt>
      <trkpt lat="45.93996" lon="4.78155">
        <ele>199</ele>
        <time>2018-10-23T10:22:53Z</time>
      </trkpt>
      <trkpt lat="45.93993" lon="4.7815">
        <ele>198</ele>
        <time>2018-10-23T10:22:54Z</time>
      </trkpt>
      <trkpt lat="45.93993" lon="4.78139">
        <ele>198</ele>
        <time>2018-10-23T10:22:56Z</time>
      </trkpt>
      <trkpt lat="45.93994" lon="4.78133">
        <ele>197</ele>
        <time>2018-10-23T10:22:57Z</time>
      </trkpt>
      <trkpt lat="45.93996" lon="4.78126">
        <ele>197</ele>
        <time>2018-10-23T10:22:58Z</time>
      </trkpt>
      <trkpt lat="45.93997" lon="4.7812">
        <ele>197</ele>
        <time>2018-10-23T10:22:59Z</time>
      </trkpt>
      <trkpt lat="45.93998" lon="4.78113">
        <ele>197</ele>
        <time>2018-10-23T10:23:00Z</time>
      </trkpt>
      <trkpt lat="45.93999" lon="4.78107">
        <ele>197</ele>
        <time>2018-10-23T10:23:01Z</time>
      </trkpt>
      <trkpt lat="45.94" lon="4.781">
        <ele>202</ele>
        <time>2018-10-23T10:23:02Z</time>
      </trkpt>
      <trkpt lat="45.94001" lon="4.78092">
        <ele>201</ele>
        <time>2018-10-23T10:23:03Z</time>
      </trkpt>
      <trkpt lat="45.94002" lon="4.78085">
        <ele>200</ele>
        <time>2018-10-23T10:23:04Z</time>
      </trkpt>
      <trkpt lat="45.94003" lon="4.78078">
        <ele>200</ele>
        <time>2018-10-23T10:23:05Z</time>
      </trkpt>
      <trkpt lat="45.94004" lon="4.78071">
        <ele>200</ele>
        <time>2018-10-23T10:23:06Z</time>
      </trkpt>
      <trkpt lat="45.94005" lon="4.78064">
        <ele>201</ele>
        <time>2018-10-23T10:23:07Z</time>
      </trkpt>
      <trkpt lat="45.94006" lon="4.78058">
        <ele>201</ele>
        <time>2018-10-23T10:23:08Z</time>
      </trkpt>
      <trkpt lat="45.94008" lon="4.78052">
        <ele>201</ele>
        <time>2018-10-23T10:23:09Z</time>
      </trkpt>
      <trkpt lat="45.94011" lon="4.78046">
        <ele>201</ele>
        <time>2018-10-23T10:23:10Z</time>
      </trkpt>
      <trkpt lat="45.94013" lon="4.78039">
        <ele>201</ele>
        <time>2018-10-23T10:23:11Z</time>
      </trkpt>
      <trkpt lat="45.94014" lon="4.78032">
        <ele>201</ele>
        <time>2018-10-23T10:23:12Z</time>
      </trkpt>
      <trkpt lat="45.94015" lon="4.78025">
        <ele>201</ele>
        <time>2018-10-23T10:23:13Z</time>
      </trkpt>
      <trkpt lat="45.94016" lon="4.78018">
        <ele>200</ele>
        <time>2018-10-23T10:23:14Z</time>
      </trkpt>
      <trkpt lat="45.94018" lon="4.78011">
        <ele>200</ele>
        <time>2018-10-23T10:23:15Z</time>
      </trkpt>
      <trkpt lat="45.94019" lon="4.78004">
        <ele>200</ele>
        <time>2018-10-23T10:23:16Z</time>
      </trkpt>
      <trkpt lat="45.94021" lon="4.77997">
        <ele>199</ele>
        <time>2018-10-23T10:23:17Z</time>
      </trkpt>
      <trkpt lat="45.94021" lon="4.77989">
        <ele>200</ele>
        <time>2018-10-23T10:23:18Z</time>
      </trkpt>
      <trkpt lat="45.94022" lon="4.77981">
        <ele>200</ele>
        <time>2018-10-23T10:23:19Z</time>
      </trkpt>
      <trkpt lat="45.94022" lon="4.77972">
        <ele>200</ele>
        <time>2018-10-23T10:23:20Z</time>
      </trkpt>
      <trkpt lat="45.94023" lon="4.77964">
        <ele>200</ele>
        <time>2018-10-23T10:23:21Z</time>
      </trkpt>
      <trkpt lat="45.94023" lon="4.77957">
        <ele>200</ele>
        <time>2018-10-23T10:23:22Z</time>
      </trkpt>
      <trkpt lat="45.94024" lon="4.7795">
        <ele>200</ele>
        <time>2018-10-23T10:23:23Z</time>
      </trkpt>
      <trkpt lat="45.94027" lon="4.77945">
        <ele>200</ele>
        <time>2018-10-23T10:23:24Z</time>
      </trkpt>
      <trkpt lat="45.94028" lon="4.77939">
        <ele>200</ele>
        <time>2018-10-23T10:23:25Z</time>
      </trkpt>
      <trkpt lat="45.94028" lon="4.77932">
        <ele>200</ele>
        <time>2018-10-23T10:23:26Z</time>
      </trkpt>
      <trkpt lat="45.94025" lon="4.77926">
        <ele>199</ele>
        <time>2018-10-23T10:23:27Z</time>
      </trkpt>
      <trkpt lat="45.94021" lon="4.77922">
        <ele>199</ele>
        <time>2018-10-23T10:23:28Z</time>
      </trkpt>
      <trkpt lat="45.94015" lon="4.77922">
        <ele>198</ele>
        <time>2018-10-23T10:23:29Z</time>
      </trkpt>
      <trkpt lat="45.9401" lon="4.77922">
        <ele>197</ele>
        <time>2018-10-23T10:23:30Z</time>
      </trkpt>
      <trkpt lat="45.94004" lon="4.77923">
        <ele>196</ele>
        <time>2018-10-23T10:23:31Z</time>
      </trkpt>
      <trkpt lat="45.93996" lon="4.77923">
        <ele>193</ele>
        <time>2018-10-23T10:23:32Z</time>
      </trkpt>
      <trkpt lat="45.9399" lon="4.77926">
        <ele>192</ele>
        <time>2018-10-23T10:23:33Z</time>
      </trkpt>
      <trkpt lat="45.93982" lon="4.7793">
        <ele>192</ele>
        <time>2018-10-23T10:23:34Z</time>
      </trkpt>
      <trkpt lat="45.93975" lon="4.77934">
        <ele>191</ele>
        <time>2018-10-23T10:23:35Z</time>
      </trkpt>
      <trkpt lat="45.93967" lon="4.7794">
        <ele>190</ele>
        <time>2018-10-23T10:23:36Z</time>
      </trkpt>
      <trkpt lat="45.93959" lon="4.77945">
        <ele>190</ele>
        <time>2018-10-23T10:23:37Z</time>
      </trkpt>
      <trkpt lat="45.93953" lon="4.77949">
        <ele>190</ele>
        <time>2018-10-23T10:23:38Z</time>
      </trkpt>
      <trkpt lat="45.93945" lon="4.77955">
        <ele>189</ele>
        <time>2018-10-23T10:23:39Z</time>
      </trkpt>
      <trkpt lat="45.93936" lon="4.77962">
        <ele>189</ele>
        <time>2018-10-23T10:23:40Z</time>
      </trkpt>
      <trkpt lat="45.93929" lon="4.77968">
        <ele>188</ele>
        <time>2018-10-23T10:23:41Z</time>
      </trkpt>
      <trkpt lat="45.9392" lon="4.77973">
        <ele>188</ele>
        <time>2018-10-23T10:23:42Z</time>
      </trkpt>
      <trkpt lat="45.93913" lon="4.77978">
        <ele>182</ele>
        <time>2018-10-23T10:23:43Z</time>
      </trkpt>
      <trkpt lat="45.93907" lon="4.77984">
        <ele>182</ele>
        <time>2018-10-23T10:23:44Z</time>
      </trkpt>
      <trkpt lat="45.939" lon="4.7799">
        <ele>182</ele>
        <time>2018-10-23T10:23:45Z</time>
      </trkpt>
      <trkpt lat="45.93895" lon="4.77996">
        <ele>182</ele>
        <time>2018-10-23T10:23:46Z</time>
      </trkpt>
      <trkpt lat="45.93891" lon="4.78">
        <ele>184</ele>
        <time>2018-10-23T10:23:47Z</time>
      </trkpt>
      <trkpt lat="45.93888" lon="4.78004">
        <ele>184</ele>
        <time>2018-10-23T10:23:48Z</time>
      </trkpt>
      <trkpt lat="45.93881" lon="4.78011">
        <ele>184</ele>
        <time>2018-10-23T10:23:51Z</time>
      </trkpt>
      <trkpt lat="45.9388" lon="4.78011">
        <ele>184</ele>
        <time>2018-10-23T10:23:52Z</time>
      </trkpt>
      <trkpt lat="45.93872" lon="4.78008">
        <ele>183</ele>
        <time>2018-10-23T10:23:54Z</time>
      </trkpt>
      <trkpt lat="45.93868" lon="4.78004">
        <ele>183</ele>
        <time>2018-10-23T10:23:55Z</time>
      </trkpt>
      <trkpt lat="45.93864" lon="4.78">
        <ele>183</ele>
        <time>2018-10-23T10:23:56Z</time>
      </trkpt>
      <trkpt lat="45.9386" lon="4.77996">
        <ele>179</ele>
        <time>2018-10-23T10:23:57Z</time>
      </trkpt>
      <trkpt lat="45.93855" lon="4.77993">
        <ele>179</ele>
        <time>2018-10-23T10:23:58Z</time>
      </trkpt>
      <trkpt lat="45.9385" lon="4.77989">
        <ele>179</ele>
        <time>2018-10-23T10:23:59Z</time>
      </trkpt>
      <trkpt lat="45.93845" lon="4.77985">
        <ele>179</ele>
        <time>2018-10-23T10:24:00Z</time>
      </trkpt>
      <trkpt lat="45.93839" lon="4.77983">
        <ele>178</ele>
        <time>2018-10-23T10:24:01Z</time>
      </trkpt>
      <trkpt lat="45.93834" lon="4.77976">
        <ele>178</ele>
        <time>2018-10-23T10:24:03Z</time>
      </trkpt>
      <trkpt lat="45.93831" lon="4.77971">
        <ele>172</ele>
        <time>2018-10-23T10:24:04Z</time>
      </trkpt>
      <trkpt lat="45.93824" lon="4.77963">
        <ele>171</ele>
        <time>2018-10-23T10:24:07Z</time>
      </trkpt>
      <trkpt lat="45.93822" lon="4.7796">
        <ele>170</ele>
        <time>2018-10-23T10:24:08Z</time>
      </trkpt>
      <trkpt lat="45.93815" lon="4.77953">
        <ele>170</ele>
        <time>2018-10-23T10:24:14Z</time>
      </trkpt>
      <trkpt lat="45.93815" lon="4.77952">
        <ele>170</ele>
        <time>2018-10-23T10:24:15Z</time>
      </trkpt>
      <trkpt lat="45.93811" lon="4.77942">
        <ele>169</ele>
        <time>2018-10-23T10:26:12Z</time>
      </trkpt>
      <trkpt lat="45.9381" lon="4.77941">
        <ele>169</ele>
        <time>2018-10-23T10:26:13Z</time>
      </trkpt>
      <trkpt lat="45.93803" lon="4.77933">
        <ele>168</ele>
        <time>2018-10-23T10:26:17Z</time>
      </trkpt>
      <trkpt lat="45.93801" lon="4.77931">
        <ele>168</ele>
        <time>2018-10-23T10:26:18Z</time>
      </trkpt>
      <trkpt lat="45.93796" lon="4.77923">
        <ele>168</ele>
        <time>2018-10-23T10:26:21Z</time>
      </trkpt>
      <trkpt lat="45.93793" lon="4.7792">
        <ele>168</ele>
        <time>2018-10-23T10:26:22Z</time>
      </trkpt>
      <trkpt lat="45.93789" lon="4.77913">
        <ele>166</ele>
        <time>2018-10-23T10:26:24Z</time>
      </trkpt>
      <trkpt lat="45.93787" lon="4.77909">
        <ele>166</ele>
        <time>2018-10-23T10:26:25Z</time>
      </trkpt>
      <trkpt lat="45.93782" lon="4.77903">
        <ele>166</ele>
        <time>2018-10-23T10:26:27Z</time>
      </trkpt>
      <trkpt lat="45.93777" lon="4.77897">
        <ele>166</ele>
        <time>2018-10-23T10:26:28Z</time>
      </trkpt>
      <trkpt lat="45.93771" lon="4.7789">
        <ele>166</ele>
        <time>2018-10-23T10:26:30Z</time>
      </trkpt>
      <trkpt lat="45.93767" lon="4.77887">
        <ele>166</ele>
        <time>2018-10-23T10:26:31Z</time>
      </trkpt>
      <trkpt lat="45.93763" lon="4.77883">
        <ele>166</ele>
        <time>2018-10-23T10:26:32Z</time>
      </trkpt>
      <trkpt lat="45.93759" lon="4.77878">
        <ele>166</ele>
        <time>2018-10-23T10:26:33Z</time>
      </trkpt>
      <trkpt lat="45.93755" lon="4.77874">
        <ele>166</ele>
        <time>2018-10-23T10:26:34Z</time>
      </trkpt>
      <trkpt lat="45.93751" lon="4.77868">
        <ele>166</ele>
        <time>2018-10-23T10:26:35Z</time>
      </trkpt>
      <trkpt lat="45.93747" lon="4.77863">
        <ele>167</ele>
        <time>2018-10-23T10:26:36Z</time>
      </trkpt>
      <trkpt lat="45.93743" lon="4.77857">
        <ele>167</ele>
        <time>2018-10-23T10:26:37Z</time>
      </trkpt>
      <trkpt lat="45.93739" lon="4.7785">
        <ele>167</ele>
        <time>2018-10-23T10:26:38Z</time>
      </trkpt>
      <trkpt lat="45.93734" lon="4.77844">
        <ele>167</ele>
        <time>2018-10-23T10:26:39Z</time>
      </trkpt>
      <trkpt lat="45.93729" lon="4.77838">
        <ele>167</ele>
        <time>2018-10-23T10:26:40Z</time>
      </trkpt>
      <trkpt lat="45.93724" lon="4.7783">
        <ele>168</ele>
        <time>2018-10-23T10:26:41Z</time>
      </trkpt>
      <trkpt lat="45.93719" lon="4.77823">
        <ele>168</ele>
        <time>2018-10-23T10:26:42Z</time>
      </trkpt>
      <trkpt lat="45.93713" lon="4.77816">
        <ele>169</ele>
        <time>2018-10-23T10:26:43Z</time>
      </trkpt>
      <trkpt lat="45.93708" lon="4.7781">
        <ele>169</ele>
        <time>2018-10-23T10:26:44Z</time>
      </trkpt>
      <trkpt lat="45.93702" lon="4.77802">
        <ele>169</ele>
        <time>2018-10-23T10:26:45Z</time>
      </trkpt>
      <trkpt lat="45.93697" lon="4.77795">
        <ele>169</ele>
        <time>2018-10-23T10:26:46Z</time>
      </trkpt>
      <trkpt lat="45.93692" lon="4.77787">
        <ele>170</ele>
        <time>2018-10-23T10:26:47Z</time>
      </trkpt>
      <trkpt lat="45.93686" lon="4.77779">
        <ele>170</ele>
        <time>2018-10-23T10:26:48Z</time>
      </trkpt>
      <trkpt lat="45.93681" lon="4.77772">
        <ele>170</ele>
        <time>2018-10-23T10:26:49Z</time>
      </trkpt>
      <trkpt lat="45.93675" lon="4.77764">
        <ele>170</ele>
        <time>2018-10-23T10:26:50Z</time>
      </trkpt>
      <trkpt lat="45.9367" lon="4.77757">
        <ele>171</ele>
        <time>2018-10-23T10:26:51Z</time>
      </trkpt>
      <trkpt lat="45.93664" lon="4.77749">
        <ele>171</ele>
        <time>2018-10-23T10:26:52Z</time>
      </trkpt>
      <trkpt lat="45.93659" lon="4.7774">
        <ele>170</ele>
        <time>2018-10-23T10:26:53Z</time>
      </trkpt>
      <trkpt lat="45.93654" lon="4.77731">
        <ele>170</ele>
        <time>2018-10-23T10:26:54Z</time>
      </trkpt>
      <trkpt lat="45.93649" lon="4.77722">
        <ele>170</ele>
        <time>2018-10-23T10:26:55Z</time>
      </trkpt>
      <trkpt lat="45.93643" lon="4.77712">
        <ele>170</ele>
        <time>2018-10-23T10:26:56Z</time>
      </trkpt>
      <trkpt lat="45.93637" lon="4.77701">
        <ele>170</ele>
        <time>2018-10-23T10:26:57Z</time>
      </trkpt>
      <trkpt lat="45.93632" lon="4.7769">
        <ele>169</ele>
        <time>2018-10-23T10:26:58Z</time>
      </trkpt>
      <trkpt lat="45.93627" lon="4.7768">
        <ele>169</ele>
        <time>2018-10-23T10:26:59Z</time>
      </trkpt>
      <trkpt lat="45.93622" lon="4.7767">
        <ele>169</ele>
        <time>2018-10-23T10:27:00Z</time>
      </trkpt>
      <trkpt lat="45.93617" lon="4.77659">
        <ele>169</ele>
        <time>2018-10-23T10:27:01Z</time>
      </trkpt>
      <trkpt lat="45.93612" lon="4.77649">
        <ele>169</ele>
        <time>2018-10-23T10:27:02Z</time>
      </trkpt>
      <trkpt lat="45.93608" lon="4.77639">
        <ele>169</ele>
        <time>2018-10-23T10:27:03Z</time>
      </trkpt>
      <trkpt lat="45.93604" lon="4.77629">
        <ele>169</ele>
        <time>2018-10-23T10:27:04Z</time>
      </trkpt>
      <trkpt lat="45.93601" lon="4.7762">
        <ele>170</ele>
        <time>2018-10-23T10:27:05Z</time>
      </trkpt>
      <trkpt lat="45.93598" lon="4.77612">
        <ele>170</ele>
        <time>2018-10-23T10:27:06Z</time>
      </trkpt>
      <trkpt lat="45.93595" lon="4.77603">
        <ele>170</ele>
        <time>2018-10-23T10:27:07Z</time>
      </trkpt>
      <trkpt lat="45.93592" lon="4.77595">
        <ele>170</ele>
        <time>2018-10-23T10:27:08Z</time>
      </trkpt>
      <trkpt lat="45.93589" lon="4.77586">
        <ele>170</ele>
        <time>2018-10-23T10:27:09Z</time>
      </trkpt>
      <trkpt lat="45.93586" lon="4.77578">
        <ele>170</ele>
        <time>2018-10-23T10:27:10Z</time>
      </trkpt>
      <trkpt lat="45.93584" lon="4.77569">
        <ele>170</ele>
        <time>2018-10-23T10:27:11Z</time>
      </trkpt>
      <trkpt lat="45.93581" lon="4.77561">
        <ele>169</ele>
        <time>2018-10-23T10:27:12Z</time>
      </trkpt>
      <trkpt lat="45.93579" lon="4.77552">
        <ele>169</ele>
        <time>2018-10-23T10:27:13Z</time>
      </trkpt>
      <trkpt lat="45.93578" lon="4.77545">
        <ele>169</ele>
        <time>2018-10-23T10:27:14Z</time>
      </trkpt>
      <trkpt lat="45.93575" lon="4.77537">
        <ele>169</ele>
        <time>2018-10-23T10:27:15Z</time>
      </trkpt>
      <trkpt lat="45.93574" lon="4.77528">
        <ele>169</ele>
        <time>2018-10-23T10:27:16Z</time>
      </trkpt>
      <trkpt lat="45.93572" lon="4.77521">
        <ele>169</ele>
        <time>2018-10-23T10:27:17Z</time>
      </trkpt>
      <trkpt lat="45.93569" lon="4.77513">
        <ele>169</ele>
        <time>2018-10-23T10:27:18Z</time>
      </trkpt>
      <trkpt lat="45.93568" lon="4.77505">
        <ele>169</ele>
        <time>2018-10-23T10:27:19Z</time>
      </trkpt>
      <trkpt lat="45.93567" lon="4.77496">
        <ele>169</ele>
        <time>2018-10-23T10:27:20Z</time>
      </trkpt>
      <trkpt lat="45.93565" lon="4.77488">
        <ele>169</ele>
        <time>2018-10-23T10:27:21Z</time>
      </trkpt>
      <trkpt lat="45.93563" lon="4.7748">
        <ele>169</ele>
        <time>2018-10-23T10:27:22Z</time>
      </trkpt>
      <trkpt lat="45.93561" lon="4.77471">
        <ele>169</ele>
        <time>2018-10-23T10:27:23Z</time>
      </trkpt>
      <trkpt lat="45.93559" lon="4.77463">
        <ele>169</ele>
        <time>2018-10-23T10:27:24Z</time>
      </trkpt>
      <trkpt lat="45.93557" lon="4.77454">
        <ele>169</ele>
        <time>2018-10-23T10:27:25Z</time>
      </trkpt>
      <trkpt lat="45.93555" lon="4.77445">
        <ele>169</ele>
        <time>2018-10-23T10:27:26Z</time>
      </trkpt>
      <trkpt lat="45.93553" lon="4.77436">
        <ele>169</ele>
        <time>2018-10-23T10:27:27Z</time>
      </trkpt>
      <trkpt lat="45.93551" lon="4.77427">
        <ele>170</ele>
        <time>2018-10-23T10:27:28Z</time>
      </trkpt>
      <trkpt lat="45.93549" lon="4.77418">
        <ele>170</ele>
        <time>2018-10-23T10:27:29Z</time>
      </trkpt>
      <trkpt lat="45.93547" lon="4.77409">
        <ele>170</ele>
        <time>2018-10-23T10:27:30Z</time>
      </trkpt>
      <trkpt lat="45.93545" lon="4.77401">
        <ele>170</ele>
        <time>2018-10-23T10:27:31Z</time>
      </trkpt>
      <trkpt lat="45.93542" lon="4.77393">
        <ele>170</ele>
        <time>2018-10-23T10:27:32Z</time>
      </trkpt>
      <trkpt lat="45.93541" lon="4.77384">
        <ele>170</ele>
        <time>2018-10-23T10:27:33Z</time>
      </trkpt>
      <trkpt lat="45.93538" lon="4.77374">
        <ele>170</ele>
        <time>2018-10-23T10:27:34Z</time>
      </trkpt>
      <trkpt lat="45.93536" lon="4.77366">
        <ele>170</ele>
        <time>2018-10-23T10:27:35Z</time>
      </trkpt>
      <trkpt lat="45.93535" lon="4.77357">
        <ele>170</ele>
        <time>2018-10-23T10:27:36Z</time>
      </trkpt>
      <trkpt lat="45.93532" lon="4.77348">
        <ele>170</ele>
        <time>2018-10-23T10:27:37Z</time>
      </trkpt>
      <trkpt lat="45.9353" lon="4.77339">
        <ele>170</ele>
        <time>2018-10-23T10:27:38Z</time>
      </trkpt>
      <trkpt lat="45.93528" lon="4.77331">
        <ele>170</ele>
        <time>2018-10-23T10:27:39Z</time>
      </trkpt>
      <trkpt lat="45.93527" lon="4.77322">
        <ele>170</ele>
        <time>2018-10-23T10:27:40Z</time>
      </trkpt>
      <trkpt lat="45.93525" lon="4.77314">
        <ele>170</ele>
        <time>2018-10-23T10:27:41Z</time>
      </trkpt>
      <trkpt lat="45.93524" lon="4.77304">
        <ele>170</ele>
        <time>2018-10-23T10:27:42Z</time>
      </trkpt>
      <trkpt lat="45.93522" lon="4.77297">
        <ele>170</ele>
        <time>2018-10-23T10:27:43Z</time>
      </trkpt>
      <trkpt lat="45.9352" lon="4.77288">
        <ele>170</ele>
        <time>2018-10-23T10:27:44Z</time>
      </trkpt>
      <trkpt lat="45.93517" lon="4.77279">
        <ele>170</ele>
        <time>2018-10-23T10:27:45Z</time>
      </trkpt>
      <trkpt lat="45.93515" lon="4.77269">
        <ele>170</ele>
        <time>2018-10-23T10:27:46Z</time>
      </trkpt>
      <trkpt lat="45.93512" lon="4.7726">
        <ele>170</ele>
        <time>2018-10-23T10:27:47Z</time>
      </trkpt>
      <trkpt lat="45.93511" lon="4.7725">
        <ele>170</ele>
        <time>2018-10-23T10:27:48Z</time>
      </trkpt>
      <trkpt lat="45.93508" lon="4.77241">
        <ele>169</ele>
        <time>2018-10-23T10:27:49Z</time>
      </trkpt>
      <trkpt lat="45.93506" lon="4.77231">
        <ele>169</ele>
        <time>2018-10-23T10:27:50Z</time>
      </trkpt>
      <trkpt lat="45.93505" lon="4.77222">
        <ele>169</ele>
        <time>2018-10-23T10:27:51Z</time>
      </trkpt>
      <trkpt lat="45.93503" lon="4.77213">
        <ele>169</ele>
        <time>2018-10-23T10:27:52Z</time>
      </trkpt>
      <trkpt lat="45.935" lon="4.77205">
        <ele>169</ele>
        <time>2018-10-23T10:27:53Z</time>
      </trkpt>
      <trkpt lat="45.93499" lon="4.77197">
        <ele>169</ele>
        <time>2018-10-23T10:27:54Z</time>
      </trkpt>
      <trkpt lat="45.93497" lon="4.77189">
        <ele>169</ele>
        <time>2018-10-23T10:27:55Z</time>
      </trkpt>
      <trkpt lat="45.93495" lon="4.7718">
        <ele>169</ele>
        <time>2018-10-23T10:27:56Z</time>
      </trkpt>
      <trkpt lat="45.93494" lon="4.77173">
        <ele>169</ele>
        <time>2018-10-23T10:27:57Z</time>
      </trkpt>
      <trkpt lat="45.93493" lon="4.77166">
        <ele>169</ele>
        <time>2018-10-23T10:27:58Z</time>
      </trkpt>
      <trkpt lat="45.93492" lon="4.77158">
        <ele>169</ele>
        <time>2018-10-23T10:27:59Z</time>
      </trkpt>
      <trkpt lat="45.93489" lon="4.77152">
        <ele>169</ele>
        <time>2018-10-23T10:28:00Z</time>
      </trkpt>
      <trkpt lat="45.93488" lon="4.77144">
        <ele>169</ele>
        <time>2018-10-23T10:28:01Z</time>
      </trkpt>
      <trkpt lat="45.93486" lon="4.77137">
        <ele>169</ele>
        <time>2018-10-23T10:28:02Z</time>
      </trkpt>
      <trkpt lat="45.93484" lon="4.77129">
        <ele>169</ele>
        <time>2018-10-23T10:28:03Z</time>
      </trkpt>
      <trkpt lat="45.93483" lon="4.7712">
        <ele>169</ele>
        <time>2018-10-23T10:28:04Z</time>
      </trkpt>
      <trkpt lat="45.93481" lon="4.77112">
        <ele>169</ele>
        <time>2018-10-23T10:28:05Z</time>
      </trkpt>
      <trkpt lat="45.9348" lon="4.77104">
        <ele>169</ele>
        <time>2018-10-23T10:28:06Z</time>
      </trkpt>
      <trkpt lat="45.93478" lon="4.77096">
        <ele>169</ele>
        <time>2018-10-23T10:28:07Z</time>
      </trkpt>
      <trkpt lat="45.93477" lon="4.77088">
        <ele>169</ele>
        <time>2018-10-23T10:28:08Z</time>
      </trkpt>
      <trkpt lat="45.93475" lon="4.7708">
        <ele>170</ele>
        <time>2018-10-23T10:28:09Z</time>
      </trkpt>
      <trkpt lat="45.93474" lon="4.77072">
        <ele>170</ele>
        <time>2018-10-23T10:28:10Z</time>
      </trkpt>
      <trkpt lat="45.93472" lon="4.77064">
        <ele>170</ele>
        <time>2018-10-23T10:28:11Z</time>
      </trkpt>
      <trkpt lat="45.93471" lon="4.77055">
        <ele>170</ele>
        <time>2018-10-23T10:28:12Z</time>
      </trkpt>
      <trkpt lat="45.93469" lon="4.77047">
        <ele>170</ele>
        <time>2018-10-23T10:28:13Z</time>
      </trkpt>
      <trkpt lat="45.93468" lon="4.77039">
        <ele>170</ele>
        <time>2018-10-23T10:28:14Z</time>
      </trkpt>
      <trkpt lat="45.93467" lon="4.77031">
        <ele>170</ele>
        <time>2018-10-23T10:28:15Z</time>
      </trkpt>
      <trkpt lat="45.93466" lon="4.77023">
        <ele>170</ele>
        <time>2018-10-23T10:28:16Z</time>
      </trkpt>
      <trkpt lat="45.93464" lon="4.77014">
        <ele>170</ele>
        <time>2018-10-23T10:28:17Z</time>
      </trkpt>
      <trkpt lat="45.93463" lon="4.77005">
        <ele>170</ele>
        <time>2018-10-23T10:28:18Z</time>
      </trkpt>
      <trkpt lat="45.93462" lon="4.76997">
        <ele>170</ele>
        <time>2018-10-23T10:28:19Z</time>
      </trkpt>
      <trkpt lat="45.93461" lon="4.76987">
        <ele>170</ele>
        <time>2018-10-23T10:28:20Z</time>
      </trkpt>
      <trkpt lat="45.93459" lon="4.76978">
        <ele>170</ele>
        <time>2018-10-23T10:28:21Z</time>
      </trkpt>
      <trkpt lat="45.93457" lon="4.7697">
        <ele>170</ele>
        <time>2018-10-23T10:28:22Z</time>
      </trkpt>
      <trkpt lat="45.93456" lon="4.76961">
        <ele>170</ele>
        <time>2018-10-23T10:28:23Z</time>
      </trkpt>
      <trkpt lat="45.93454" lon="4.76952">
        <ele>170</ele>
        <time>2018-10-23T10:28:24Z</time>
      </trkpt>
      <trkpt lat="45.93454" lon="4.76944">
        <ele>170</ele>
        <time>2018-10-23T10:28:25Z</time>
      </trkpt>
      <trkpt lat="45.93453" lon="4.76935">
        <ele>170</ele>
        <time>2018-10-23T10:28:26Z</time>
      </trkpt>
      <trkpt lat="45.93451" lon="4.76925">
        <ele>170</ele>
        <time>2018-10-23T10:28:27Z</time>
      </trkpt>
      <trkpt lat="45.9345" lon="4.76917">
        <ele>170</ele>
        <time>2018-10-23T10:28:28Z</time>
      </trkpt>
      <trkpt lat="45.93448" lon="4.76908">
        <ele>170</ele>
        <time>2018-10-23T10:28:29Z</time>
      </trkpt>
      <trkpt lat="45.93446" lon="4.769">
        <ele>170</ele>
        <time>2018-10-23T10:28:30Z</time>
      </trkpt>
      <trkpt lat="45.93444" lon="4.76892">
        <ele>170</ele>
        <time>2018-10-23T10:28:31Z</time>
      </trkpt>
      <trkpt lat="45.93441" lon="4.76884">
        <ele>170</ele>
        <time>2018-10-23T10:28:32Z</time>
      </trkpt>
      <trkpt lat="45.93438" lon="4.76876">
        <ele>171</ele>
        <time>2018-10-23T10:28:33Z</time>
      </trkpt>
      <trkpt lat="45.93434" lon="4.76868">
        <ele>171</ele>
        <time>2018-10-23T10:28:34Z</time>
      </trkpt>
      <trkpt lat="45.93432" lon="4.7686">
        <ele>171</ele>
        <time>2018-10-23T10:28:35Z</time>
      </trkpt>
      <trkpt lat="45.93429" lon="4.76852">
        <ele>171</ele>
        <time>2018-10-23T10:28:36Z</time>
      </trkpt>
      <trkpt lat="45.93426" lon="4.76844">
        <ele>171</ele>
        <time>2018-10-23T10:28:37Z</time>
      </trkpt>
      <trkpt lat="45.93422" lon="4.76838">
        <ele>172</ele>
        <time>2018-10-23T10:28:38Z</time>
      </trkpt>
      <trkpt lat="45.93418" lon="4.7683">
        <ele>172</ele>
        <time>2018-10-23T10:28:39Z</time>
      </trkpt>
      <trkpt lat="45.93415" lon="4.76823">
        <ele>172</ele>
        <time>2018-10-23T10:28:40Z</time>
      </trkpt>
      <trkpt lat="45.9341" lon="4.76816">
        <ele>172</ele>
        <time>2018-10-23T10:28:41Z</time>
      </trkpt>
      <trkpt lat="45.93405" lon="4.76809">
        <ele>172</ele>
        <time>2018-10-23T10:28:42Z</time>
      </trkpt>
      <trkpt lat="45.93401" lon="4.76803">
        <ele>172</ele>
        <time>2018-10-23T10:28:43Z</time>
      </trkpt>
      <trkpt lat="45.93396" lon="4.76797">
        <ele>172</ele>
        <time>2018-10-23T10:28:44Z</time>
      </trkpt>
      <trkpt lat="45.9339" lon="4.76791">
        <ele>172</ele>
        <time>2018-10-23T10:28:45Z</time>
      </trkpt>
      <trkpt lat="45.93384" lon="4.76787">
        <ele>172</ele>
        <time>2018-10-23T10:28:46Z</time>
      </trkpt>
      <trkpt lat="45.93379" lon="4.76781">
        <ele>172</ele>
        <time>2018-10-23T10:28:47Z</time>
      </trkpt>
      <trkpt lat="45.93375" lon="4.76776">
        <ele>172</ele>
        <time>2018-10-23T10:28:48Z</time>
      </trkpt>
      <trkpt lat="45.9337" lon="4.76771">
        <ele>172</ele>
        <time>2018-10-23T10:28:49Z</time>
      </trkpt>
      <trkpt lat="45.93365" lon="4.76766">
        <ele>172</ele>
        <time>2018-10-23T10:28:50Z</time>
      </trkpt>
      <trkpt lat="45.93359" lon="4.76761">
        <ele>172</ele>
        <time>2018-10-23T10:28:51Z</time>
      </trkpt>
      <trkpt lat="45.93354" lon="4.76755">
        <ele>172</ele>
        <time>2018-10-23T10:28:52Z</time>
      </trkpt>
      <trkpt lat="45.93349" lon="4.7675">
        <ele>172</ele>
        <time>2018-10-23T10:28:53Z</time>
      </trkpt>
      <trkpt lat="45.93345" lon="4.76745">
        <ele>172</ele>
        <time>2018-10-23T10:28:54Z</time>
      </trkpt>
      <trkpt lat="45.93339" lon="4.7674">
        <ele>172</ele>
        <time>2018-10-23T10:28:55Z</time>
      </trkpt>
      <trkpt lat="45.93334" lon="4.76734">
        <ele>172</ele>
        <time>2018-10-23T10:28:56Z</time>
      </trkpt>
      <trkpt lat="45.9333" lon="4.76729">
        <ele>172</ele>
        <time>2018-10-23T10:28:57Z</time>
      </trkpt>
      <trkpt lat="45.93325" lon="4.76724">
        <ele>172</ele>
        <time>2018-10-23T10:28:58Z</time>
      </trkpt>
      <trkpt lat="45.9332" lon="4.76719">
        <ele>172</ele>
        <time>2018-10-23T10:28:59Z</time>
      </trkpt>
      <trkpt lat="45.93315" lon="4.76715">
        <ele>172</ele>
        <time>2018-10-23T10:29:00Z</time>
      </trkpt>
      <trkpt lat="45.9331" lon="4.76709">
        <ele>172</ele>
        <time>2018-10-23T10:29:01Z</time>
      </trkpt>
      <trkpt lat="45.93306" lon="4.76704">
        <ele>172</ele>
        <time>2018-10-23T10:29:02Z</time>
      </trkpt>
      <trkpt lat="45.93301" lon="4.76699">
        <ele>172</ele>
        <time>2018-10-23T10:29:03Z</time>
      </trkpt>
      <trkpt lat="45.93295" lon="4.76693">
        <ele>172</ele>
        <time>2018-10-23T10:29:04Z</time>
      </trkpt>
      <trkpt lat="45.9329" lon="4.76688">
        <ele>172</ele>
        <time>2018-10-23T10:29:05Z</time>
      </trkpt>
      <trkpt lat="45.93284" lon="4.76684">
        <ele>172</ele>
        <time>2018-10-23T10:29:06Z</time>
      </trkpt>
      <trkpt lat="45.93279" lon="4.76679">
        <ele>172</ele>
        <time>2018-10-23T10:29:07Z</time>
      </trkpt>
      <trkpt lat="45.93274" lon="4.76674">
        <ele>172</ele>
        <time>2018-10-23T10:29:08Z</time>
      </trkpt>
      <trkpt lat="45.93269" lon="4.7667">
        <ele>172</ele>
        <time>2018-10-23T10:29:09Z</time>
      </trkpt>
      <trkpt lat="45.93263" lon="4.76665">
        <ele>171</ele>
        <time>2018-10-23T10:29:10Z</time>
      </trkpt>
      <trkpt lat="45.93258" lon="4.7666">
        <ele>171</ele>
        <time>2018-10-23T10:29:11Z</time>
      </trkpt>
      <trkpt lat="45.93253" lon="4.76656">
        <ele>171</ele>
        <time>2018-10-23T10:29:12Z</time>
      </trkpt>
      <trkpt lat="45.93247" lon="4.76651">
        <ele>171</ele>
        <time>2018-10-23T10:29:13Z</time>
      </trkpt>
      <trkpt lat="45.93242" lon="4.76646">
        <ele>171</ele>
        <time>2018-10-23T10:29:14Z</time>
      </trkpt>
      <trkpt lat="45.93237" lon="4.76641">
        <ele>171</ele>
        <time>2018-10-23T10:29:15Z</time>
      </trkpt>
      <trkpt lat="45.93231" lon="4.76635">
        <ele>171</ele>
        <time>2018-10-23T10:29:16Z</time>
      </trkpt>
      <trkpt lat="45.93225" lon="4.7663">
        <ele>170</ele>
        <time>2018-10-23T10:29:17Z</time>
      </trkpt>
      <trkpt lat="45.93221" lon="4.76625">
        <ele>170</ele>
        <time>2018-10-23T10:29:18Z</time>
      </trkpt>
      <trkpt lat="45.93216" lon="4.76619">
        <ele>170</ele>
        <time>2018-10-23T10:29:19Z</time>
      </trkpt>
      <trkpt lat="45.9321" lon="4.76614">
        <ele>170</ele>
        <time>2018-10-23T10:29:20Z</time>
      </trkpt>
      <trkpt lat="45.93205" lon="4.76609">
        <ele>170</ele>
        <time>2018-10-23T10:29:21Z</time>
      </trkpt>
      <trkpt lat="45.93199" lon="4.76604">
        <ele>170</ele>
        <time>2018-10-23T10:29:22Z</time>
      </trkpt>
      <trkpt lat="45.93194" lon="4.766">
        <ele>170</ele>
        <time>2018-10-23T10:29:23Z</time>
      </trkpt>
      <trkpt lat="45.9319" lon="4.76595">
        <ele>170</ele>
        <time>2018-10-23T10:29:24Z</time>
      </trkpt>
      <trkpt lat="45.93185" lon="4.76589">
        <ele>171</ele>
        <time>2018-10-23T10:29:25Z</time>
      </trkpt>
      <trkpt lat="45.9318" lon="4.76583">
        <ele>170</ele>
        <time>2018-10-23T10:29:26Z</time>
      </trkpt>
      <trkpt lat="45.93176" lon="4.76578">
        <ele>170</ele>
        <time>2018-10-23T10:29:27Z</time>
      </trkpt>
      <trkpt lat="45.93172" lon="4.76572">
        <ele>170</ele>
        <time>2018-10-23T10:29:28Z</time>
      </trkpt>
      <trkpt lat="45.93167" lon="4.76569">
        <ele>170</ele>
        <time>2018-10-23T10:29:29Z</time>
      </trkpt>
      <trkpt lat="45.93162" lon="4.76564">
        <ele>170</ele>
        <time>2018-10-23T10:29:30Z</time>
      </trkpt>
      <trkpt lat="45.93157" lon="4.76559">
        <ele>170</ele>
        <time>2018-10-23T10:29:31Z</time>
      </trkpt>
      <trkpt lat="45.93152" lon="4.76553">
        <ele>170</ele>
        <time>2018-10-23T10:29:32Z</time>
      </trkpt>
      <trkpt lat="45.93147" lon="4.76548">
        <ele>170</ele>
        <time>2018-10-23T10:29:33Z</time>
      </trkpt>
      <trkpt lat="45.93142" lon="4.76543">
        <ele>170</ele>
        <time>2018-10-23T10:29:34Z</time>
      </trkpt>
      <trkpt lat="45.93137" lon="4.76538">
        <ele>170</ele>
        <time>2018-10-23T10:29:35Z</time>
      </trkpt>
      <trkpt lat="45.93131" lon="4.76535">
        <ele>170</ele>
        <time>2018-10-23T10:29:36Z</time>
      </trkpt>
      <trkpt lat="45.93126" lon="4.76529">
        <ele>170</ele>
        <time>2018-10-23T10:29:37Z</time>
      </trkpt>
      <trkpt lat="45.93121" lon="4.76524">
        <ele>170</ele>
        <time>2018-10-23T10:29:38Z</time>
      </trkpt>
      <trkpt lat="45.93116" lon="4.76518">
        <ele>170</ele>
        <time>2018-10-23T10:29:39Z</time>
      </trkpt>
      <trkpt lat="45.93111" lon="4.76513">
        <ele>170</ele>
        <time>2018-10-23T10:29:40Z</time>
      </trkpt>
      <trkpt lat="45.93105" lon="4.76508">
        <ele>170</ele>
        <time>2018-10-23T10:29:41Z</time>
      </trkpt>
      <trkpt lat="45.93099" lon="4.76503">
        <ele>170</ele>
        <time>2018-10-23T10:29:42Z</time>
      </trkpt>
      <trkpt lat="45.93095" lon="4.76499">
        <ele>170</ele>
        <time>2018-10-23T10:29:43Z</time>
      </trkpt>
      <trkpt lat="45.9309" lon="4.76494">
        <ele>170</ele>
        <time>2018-10-23T10:29:44Z</time>
      </trkpt>
      <trkpt lat="45.93085" lon="4.7649">
        <ele>170</ele>
        <time>2018-10-23T10:29:45Z</time>
      </trkpt>
      <trkpt lat="45.9308" lon="4.76486">
        <ele>170</ele>
        <time>2018-10-23T10:29:46Z</time>
      </trkpt>
      <trkpt lat="45.93077" lon="4.76481">
        <ele>169</ele>
        <time>2018-10-23T10:29:47Z</time>
      </trkpt>
      <trkpt lat="45.93073" lon="4.76477">
        <ele>169</ele>
        <time>2018-10-23T10:29:48Z</time>
      </trkpt>
      <trkpt lat="45.93068" lon="4.76472">
        <ele>169</ele>
        <time>2018-10-23T10:29:49Z</time>
      </trkpt>
      <trkpt lat="45.93064" lon="4.76467">
        <ele>169</ele>
        <time>2018-10-23T10:29:50Z</time>
      </trkpt>
      <trkpt lat="45.93059" lon="4.76462">
        <ele>169</ele>
        <time>2018-10-23T10:29:51Z</time>
      </trkpt>
      <trkpt lat="45.93054" lon="4.76458">
        <ele>169</ele>
        <time>2018-10-23T10:29:52Z</time>
      </trkpt>
      <trkpt lat="45.9305" lon="4.76453">
        <ele>169</ele>
        <time>2018-10-23T10:29:53Z</time>
      </trkpt>
      <trkpt lat="45.93045" lon="4.76449">
        <ele>169</ele>
        <time>2018-10-23T10:29:54Z</time>
      </trkpt>
      <trkpt lat="45.9304" lon="4.76444">
        <ele>169</ele>
        <time>2018-10-23T10:29:55Z</time>
      </trkpt>
      <trkpt lat="45.93035" lon="4.76438">
        <ele>169</ele>
        <time>2018-10-23T10:29:56Z</time>
      </trkpt>
      <trkpt lat="45.93029" lon="4.76432">
        <ele>169</ele>
        <time>2018-10-23T10:29:57Z</time>
      </trkpt>
      <trkpt lat="45.93025" lon="4.76427">
        <ele>169</ele>
        <time>2018-10-23T10:29:58Z</time>
      </trkpt>
      <trkpt lat="45.9302" lon="4.76424">
        <ele>169</ele>
        <time>2018-10-23T10:29:59Z</time>
      </trkpt>
      <trkpt lat="45.93015" lon="4.7642">
        <ele>169</ele>
        <time>2018-10-23T10:30:00Z</time>
      </trkpt>
      <trkpt lat="45.93009" lon="4.76415">
        <ele>169</ele>
        <time>2018-10-23T10:30:01Z</time>
      </trkpt>
      <trkpt lat="45.93004" lon="4.7641">
        <ele>169</ele>
        <time>2018-10-23T10:30:02Z</time>
      </trkpt>
      <trkpt lat="45.93" lon="4.76406">
        <ele>169</ele>
        <time>2018-10-23T10:30:03Z</time>
      </trkpt>
      <trkpt lat="45.92996" lon="4.76402">
        <ele>169</ele>
        <time>2018-10-23T10:30:04Z</time>
      </trkpt>
      <trkpt lat="45.92991" lon="4.76397">
        <ele>169</ele>
        <time>2018-10-23T10:30:05Z</time>
      </trkpt>
      <trkpt lat="45.92986" lon="4.76392">
        <ele>169</ele>
        <time>2018-10-23T10:30:06Z</time>
      </trkpt>
      <trkpt lat="45.92981" lon="4.76388">
        <ele>169</ele>
        <time>2018-10-23T10:30:07Z</time>
      </trkpt>
      <trkpt lat="45.92976" lon="4.76382">
        <ele>169</ele>
        <time>2018-10-23T10:30:08Z</time>
      </trkpt>
      <trkpt lat="45.92971" lon="4.76377">
        <ele>169</ele>
        <time>2018-10-23T10:30:09Z</time>
      </trkpt>
      <trkpt lat="45.92966" lon="4.76372">
        <ele>169</ele>
        <time>2018-10-23T10:30:10Z</time>
      </trkpt>
      <trkpt lat="45.92962" lon="4.76369">
        <ele>169</ele>
        <time>2018-10-23T10:30:11Z</time>
      </trkpt>
      <trkpt lat="45.92957" lon="4.76364">
        <ele>169</ele>
        <time>2018-10-23T10:30:12Z</time>
      </trkpt>
      <trkpt lat="45.92952" lon="4.76359">
        <ele>169</ele>
        <time>2018-10-23T10:30:13Z</time>
      </trkpt>
      <trkpt lat="45.92947" lon="4.76353">
        <ele>169</ele>
        <time>2018-10-23T10:30:14Z</time>
      </trkpt>
      <trkpt lat="45.92944" lon="4.76348">
        <ele>169</ele>
        <time>2018-10-23T10:30:15Z</time>
      </trkpt>
      <trkpt lat="45.92939" lon="4.76343">
        <ele>169</ele>
        <time>2018-10-23T10:30:16Z</time>
      </trkpt>
      <trkpt lat="45.92933" lon="4.76338">
        <ele>169</ele>
        <time>2018-10-23T10:30:17Z</time>
      </trkpt>
      <trkpt lat="45.92928" lon="4.76332">
        <ele>169</ele>
        <time>2018-10-23T10:30:18Z</time>
      </trkpt>
      <trkpt lat="45.92923" lon="4.76327">
        <ele>169</ele>
        <time>2018-10-23T10:30:19Z</time>
      </trkpt>
      <trkpt lat="45.92918" lon="4.76323">
        <ele>169</ele>
        <time>2018-10-23T10:30:20Z</time>
      </trkpt>
      <trkpt lat="45.92914" lon="4.76317">
        <ele>169</ele>
        <time>2018-10-23T10:30:21Z</time>
      </trkpt>
      <trkpt lat="45.92909" lon="4.76313">
        <ele>169</ele>
        <time>2018-10-23T10:30:22Z</time>
      </trkpt>
      <trkpt lat="45.92904" lon="4.76308">
        <ele>169</ele>
        <time>2018-10-23T10:30:23Z</time>
      </trkpt>
      <trkpt lat="45.92899" lon="4.76303">
        <ele>169</ele>
        <time>2018-10-23T10:30:24Z</time>
      </trkpt>
      <trkpt lat="45.92894" lon="4.76298">
        <ele>169</ele>
        <time>2018-10-23T10:30:25Z</time>
      </trkpt>
      <trkpt lat="45.92889" lon="4.76294">
        <ele>169</ele>
        <time>2018-10-23T10:30:26Z</time>
      </trkpt>
      <trkpt lat="45.92883" lon="4.7629">
        <ele>169</ele>
        <time>2018-10-23T10:30:27Z</time>
      </trkpt>
      <trkpt lat="45.92879" lon="4.76285">
        <ele>169</ele>
        <time>2018-10-23T10:30:28Z</time>
      </trkpt>
      <trkpt lat="45.92873" lon="4.76279">
        <ele>169</ele>
        <time>2018-10-23T10:30:29Z</time>
      </trkpt>
      <trkpt lat="45.92869" lon="4.76274">
        <ele>169</ele>
        <time>2018-10-23T10:30:30Z</time>
      </trkpt>
      <trkpt lat="45.92864" lon="4.76269">
        <ele>169</ele>
        <time>2018-10-23T10:30:31Z</time>
      </trkpt>
      <trkpt lat="45.9286" lon="4.76265">
        <ele>169</ele>
        <time>2018-10-23T10:30:32Z</time>
      </trkpt>
      <trkpt lat="45.92856" lon="4.76261">
        <ele>169</ele>
        <time>2018-10-23T10:30:33Z</time>
      </trkpt>
      <trkpt lat="45.92852" lon="4.76257">
        <ele>169</ele>
        <time>2018-10-23T10:30:34Z</time>
      </trkpt>
      <trkpt lat="45.92848" lon="4.76253">
        <ele>169</ele>
        <time>2018-10-23T10:30:35Z</time>
      </trkpt>
      <trkpt lat="45.92843" lon="4.76249">
        <ele>169</ele>
        <time>2018-10-23T10:30:36Z</time>
      </trkpt>
      <trkpt lat="45.92839" lon="4.76244">
        <ele>169</ele>
        <time>2018-10-23T10:30:37Z</time>
      </trkpt>
      <trkpt lat="45.92834" lon="4.76239">
        <ele>169</ele>
        <time>2018-10-23T10:30:38Z</time>
      </trkpt>
      <trkpt lat="45.92829" lon="4.76235">
        <ele>168</ele>
        <time>2018-10-23T10:30:39Z</time>
      </trkpt>
      <trkpt lat="45.92824" lon="4.7623">
        <ele>168</ele>
        <time>2018-10-23T10:30:40Z</time>
      </trkpt>
      <trkpt lat="45.92819" lon="4.76227">
        <ele>168</ele>
        <time>2018-10-23T10:30:41Z</time>
      </trkpt>
      <trkpt lat="45.92815" lon="4.76223">
        <ele>168</ele>
        <time>2018-10-23T10:30:42Z</time>
      </trkpt>
      <trkpt lat="45.9281" lon="4.76219">
        <ele>168</ele>
        <time>2018-10-23T10:30:43Z</time>
      </trkpt>
      <trkpt lat="45.92806" lon="4.76214">
        <ele>168</ele>
        <time>2018-10-23T10:30:44Z</time>
      </trkpt>
      <trkpt lat="45.92801" lon="4.7621">
        <ele>168</ele>
        <time>2018-10-23T10:30:45Z</time>
      </trkpt>
      <trkpt lat="45.92796" lon="4.76205">
        <ele>168</ele>
        <time>2018-10-23T10:30:46Z</time>
      </trkpt>
      <trkpt lat="45.92792" lon="4.762">
        <ele>168</ele>
        <time>2018-10-23T10:30:47Z</time>
      </trkpt>
      <trkpt lat="45.92787" lon="4.76195">
        <ele>168</ele>
        <time>2018-10-23T10:30:48Z</time>
      </trkpt>
      <trkpt lat="45.92783" lon="4.76191">
        <ele>168</ele>
        <time>2018-10-23T10:30:49Z</time>
      </trkpt>
      <trkpt lat="45.9278" lon="4.76187">
        <ele>168</ele>
        <time>2018-10-23T10:30:50Z</time>
      </trkpt>
      <trkpt lat="45.92775" lon="4.76183">
        <ele>167</ele>
        <time>2018-10-23T10:30:51Z</time>
      </trkpt>
      <trkpt lat="45.92772" lon="4.76179">
        <ele>167</ele>
        <time>2018-10-23T10:30:52Z</time>
      </trkpt>
      <trkpt lat="45.92767" lon="4.76175">
        <ele>167</ele>
        <time>2018-10-23T10:30:53Z</time>
      </trkpt>
      <trkpt lat="45.92762" lon="4.7617">
        <ele>167</ele>
        <time>2018-10-23T10:30:54Z</time>
      </trkpt>
      <trkpt lat="45.92758" lon="4.76166">
        <ele>167</ele>
        <time>2018-10-23T10:30:55Z</time>
      </trkpt>
      <trkpt lat="45.92753" lon="4.76161">
        <ele>167</ele>
        <time>2018-10-23T10:30:56Z</time>
      </trkpt>
      <trkpt lat="45.92748" lon="4.76158">
        <ele>167</ele>
        <time>2018-10-23T10:30:57Z</time>
      </trkpt>
      <trkpt lat="45.92742" lon="4.76154">
        <ele>168</ele>
        <time>2018-10-23T10:30:58Z</time>
      </trkpt>
      <trkpt lat="45.92737" lon="4.7615">
        <ele>168</ele>
        <time>2018-10-23T10:30:59Z</time>
      </trkpt>
      <trkpt lat="45.92733" lon="4.76146">
        <ele>168</ele>
        <time>2018-10-23T10:31:00Z</time>
      </trkpt>
      <trkpt lat="45.92727" lon="4.76142">
        <ele>168</ele>
        <time>2018-10-23T10:31:01Z</time>
      </trkpt>
      <trkpt lat="45.92722" lon="4.76139">
        <ele>168</ele>
        <time>2018-10-23T10:31:02Z</time>
      </trkpt>
      <trkpt lat="45.92718" lon="4.76135">
        <ele>168</ele>
        <time>2018-10-23T10:31:03Z</time>
      </trkpt>
      <trkpt lat="45.92713" lon="4.76131">
        <ele>168</ele>
        <time>2018-10-23T10:31:04Z</time>
      </trkpt>
      <trkpt lat="45.92707" lon="4.76127">
        <ele>169</ele>
        <time>2018-10-23T10:31:05Z</time>
      </trkpt>
      <trkpt lat="45.92702" lon="4.76124">
        <ele>169</ele>
        <time>2018-10-23T10:31:06Z</time>
      </trkpt>
      <trkpt lat="45.92697" lon="4.7612">
        <ele>169</ele>
        <time>2018-10-23T10:31:07Z</time>
      </trkpt>
      <trkpt lat="45.92692" lon="4.76117">
        <ele>169</ele>
        <time>2018-10-23T10:31:08Z</time>
      </trkpt>
      <trkpt lat="45.92687" lon="4.76114">
        <ele>169</ele>
        <time>2018-10-23T10:31:09Z</time>
      </trkpt>
      <trkpt lat="45.92684" lon="4.7611">
        <ele>169</ele>
        <time>2018-10-23T10:31:10Z</time>
      </trkpt>
      <trkpt lat="45.92677" lon="4.76102">
        <ele>169</ele>
        <time>2018-10-23T10:31:12Z</time>
      </trkpt>
      <trkpt lat="45.92672" lon="4.76098">
        <ele>169</ele>
        <time>2018-10-23T10:31:13Z</time>
      </trkpt>
      <trkpt lat="45.92665" lon="4.76092">
        <ele>170</ele>
        <time>2018-10-23T10:31:15Z</time>
      </trkpt>
      <trkpt lat="45.92661" lon="4.7609">
        <ele>170</ele>
        <time>2018-10-23T10:31:16Z</time>
      </trkpt>
      <trkpt lat="45.92653" lon="4.76084">
        <ele>170</ele>
        <time>2018-10-23T10:31:18Z</time>
      </trkpt>
      <trkpt lat="45.9265" lon="4.76081">
        <ele>170</ele>
        <time>2018-10-23T10:31:19Z</time>
      </trkpt>
      <trkpt lat="45.92642" lon="4.76073">
        <ele>170</ele>
        <time>2018-10-23T10:31:21Z</time>
      </trkpt>
      <trkpt lat="45.92639" lon="4.7607">
        <ele>170</ele>
        <time>2018-10-23T10:31:22Z</time>
      </trkpt>
      <trkpt lat="45.92631" lon="4.76066">
        <ele>170</ele>
        <time>2018-10-23T10:31:24Z</time>
      </trkpt>
      <trkpt lat="45.92626" lon="4.76062">
        <ele>170</ele>
        <time>2018-10-23T10:31:25Z</time>
      </trkpt>
      <trkpt lat="45.92618" lon="4.76056">
        <ele>171</ele>
        <time>2018-10-23T10:31:27Z</time>
      </trkpt>
      <trkpt lat="45.92614" lon="4.76054">
        <ele>171</ele>
        <time>2018-10-23T10:31:28Z</time>
      </trkpt>
      <trkpt lat="45.92606" lon="4.76049">
        <ele>171</ele>
        <time>2018-10-23T10:31:30Z</time>
      </trkpt>
      <trkpt lat="45.92603" lon="4.76046">
        <ele>171</ele>
        <time>2018-10-23T10:31:31Z</time>
      </trkpt>
      <trkpt lat="45.92598" lon="4.76043">
        <ele>171</ele>
        <time>2018-10-23T10:31:32Z</time>
      </trkpt>
      <trkpt lat="45.92594" lon="4.7604">
        <ele>171</ele>
        <time>2018-10-23T10:31:33Z</time>
      </trkpt>
      <trkpt lat="45.9259" lon="4.76036">
        <ele>171</ele>
        <time>2018-10-23T10:31:34Z</time>
      </trkpt>
      <trkpt lat="45.92586" lon="4.76034">
        <ele>171</ele>
        <time>2018-10-23T10:31:35Z</time>
      </trkpt>
      <trkpt lat="45.92581" lon="4.76031">
        <ele>172</ele>
        <time>2018-10-23T10:31:36Z</time>
      </trkpt>
      <trkpt lat="45.92575" lon="4.76028">
        <ele>172</ele>
        <time>2018-10-23T10:31:37Z</time>
      </trkpt>
      <trkpt lat="45.92571" lon="4.76024">
        <ele>172</ele>
        <time>2018-10-23T10:31:38Z</time>
      </trkpt>
      <trkpt lat="45.92566" lon="4.76021">
        <ele>172</ele>
        <time>2018-10-23T10:31:39Z</time>
      </trkpt>
      <trkpt lat="45.92561" lon="4.76017">
        <ele>172</ele>
        <time>2018-10-23T10:31:40Z</time>
      </trkpt>
      <trkpt lat="45.92555" lon="4.76012">
        <ele>172</ele>
        <time>2018-10-23T10:31:41Z</time>
      </trkpt>
      <trkpt lat="45.92551" lon="4.76009">
        <ele>172</ele>
        <time>2018-10-23T10:31:42Z</time>
      </trkpt>
      <trkpt lat="45.92546" lon="4.76006">
        <ele>172</ele>
        <time>2018-10-23T10:31:43Z</time>
      </trkpt>
      <trkpt lat="45.92541" lon="4.76001">
        <ele>172</ele>
        <time>2018-10-23T10:31:44Z</time>
      </trkpt>
      <trkpt lat="45.92536" lon="4.75998">
        <ele>172</ele>
        <time>2018-10-23T10:31:45Z</time>
      </trkpt>
      <trkpt lat="45.92531" lon="4.75995">
        <ele>172</ele>
        <time>2018-10-23T10:31:46Z</time>
      </trkpt>
      <trkpt lat="45.92527" lon="4.75992">
        <ele>172</ele>
        <time>2018-10-23T10:31:47Z</time>
      </trkpt>
      <trkpt lat="45.92522" lon="4.75988">
        <ele>172</ele>
        <time>2018-10-23T10:31:48Z</time>
      </trkpt>
      <trkpt lat="45.92517" lon="4.75984">
        <ele>172</ele>
        <time>2018-10-23T10:31:49Z</time>
      </trkpt>
      <trkpt lat="45.92512" lon="4.7598">
        <ele>172</ele>
        <time>2018-10-23T10:31:50Z</time>
      </trkpt>
      <trkpt lat="45.92507" lon="4.75977">
        <ele>172</ele>
        <time>2018-10-23T10:31:51Z</time>
      </trkpt>
      <trkpt lat="45.92502" lon="4.75974">
        <ele>172</ele>
        <time>2018-10-23T10:31:52Z</time>
      </trkpt>
      <trkpt lat="45.92498" lon="4.7597">
        <ele>172</ele>
        <time>2018-10-23T10:31:53Z</time>
      </trkpt>
      <trkpt lat="45.92493" lon="4.75967">
        <ele>172</ele>
        <time>2018-10-23T10:31:54Z</time>
      </trkpt>
      <trkpt lat="45.92489" lon="4.75963">
        <ele>172</ele>
        <time>2018-10-23T10:31:55Z</time>
      </trkpt>
      <trkpt lat="45.92484" lon="4.7596">
        <ele>172</ele>
        <time>2018-10-23T10:31:56Z</time>
      </trkpt>
      <trkpt lat="45.92479" lon="4.75957">
        <ele>172</ele>
        <time>2018-10-23T10:31:57Z</time>
      </trkpt>
      <trkpt lat="45.92474" lon="4.75954">
        <ele>172</ele>
        <time>2018-10-23T10:31:58Z</time>
      </trkpt>
      <trkpt lat="45.92469" lon="4.75951">
        <ele>172</ele>
        <time>2018-10-23T10:31:59Z</time>
      </trkpt>
      <trkpt lat="45.92463" lon="4.75948">
        <ele>172</ele>
        <time>2018-10-23T10:32:00Z</time>
      </trkpt>
      <trkpt lat="45.92457" lon="4.75945">
        <ele>172</ele>
        <time>2018-10-23T10:32:01Z</time>
      </trkpt>
      <trkpt lat="45.92452" lon="4.7594">
        <ele>172</ele>
        <time>2018-10-23T10:32:02Z</time>
      </trkpt>
      <trkpt lat="45.92446" lon="4.75937">
        <ele>172</ele>
        <time>2018-10-23T10:32:03Z</time>
      </trkpt>
      <trkpt lat="45.9244" lon="4.75933">
        <ele>172</ele>
        <time>2018-10-23T10:32:04Z</time>
      </trkpt>
      <trkpt lat="45.92434" lon="4.75929">
        <ele>172</ele>
        <time>2018-10-23T10:32:05Z</time>
      </trkpt>
      <trkpt lat="45.92428" lon="4.75924">
        <ele>172</ele>
        <time>2018-10-23T10:32:06Z</time>
      </trkpt>
      <trkpt lat="45.92422" lon="4.7592">
        <ele>172</ele>
        <time>2018-10-23T10:32:07Z</time>
      </trkpt>
      <trkpt lat="45.92416" lon="4.75916">
        <ele>172</ele>
        <time>2018-10-23T10:32:08Z</time>
      </trkpt>
      <trkpt lat="45.92409" lon="4.75911">
        <ele>172</ele>
        <time>2018-10-23T10:32:09Z</time>
      </trkpt>
      <trkpt lat="45.92402" lon="4.75907">
        <ele>173</ele>
        <time>2018-10-23T10:32:10Z</time>
      </trkpt>
      <trkpt lat="45.92395" lon="4.75903">
        <ele>173</ele>
        <time>2018-10-23T10:32:11Z</time>
      </trkpt>
      <trkpt lat="45.92389" lon="4.75898">
        <ele>173</ele>
        <time>2018-10-23T10:32:12Z</time>
      </trkpt>
      <trkpt lat="45.92382" lon="4.75894">
        <ele>173</ele>
        <time>2018-10-23T10:32:13Z</time>
      </trkpt>
      <trkpt lat="45.92376" lon="4.75889">
        <ele>173</ele>
        <time>2018-10-23T10:32:14Z</time>
      </trkpt>
      <trkpt lat="45.92369" lon="4.75884">
        <ele>173</ele>
        <time>2018-10-23T10:32:15Z</time>
      </trkpt>
      <trkpt lat="45.92362" lon="4.75879">
        <ele>173</ele>
        <time>2018-10-23T10:32:16Z</time>
      </trkpt>
      <trkpt lat="45.92356" lon="4.75875">
        <ele>173</ele>
        <time>2018-10-23T10:32:17Z</time>
      </trkpt>
      <trkpt lat="45.92349" lon="4.75871">
        <ele>173</ele>
        <time>2018-10-23T10:32:18Z</time>
      </trkpt>
      <trkpt lat="45.92342" lon="4.75868">
        <ele>173</ele>
        <time>2018-10-23T10:32:19Z</time>
      </trkpt>
      <trkpt lat="45.92336" lon="4.75864">
        <ele>173</ele>
        <time>2018-10-23T10:32:20Z</time>
      </trkpt>
      <trkpt lat="45.92331" lon="4.7586">
        <ele>173</ele>
        <time>2018-10-23T10:32:21Z</time>
      </trkpt>
      <trkpt lat="45.92326" lon="4.75856">
        <ele>174</ele>
        <time>2018-10-23T10:32:22Z</time>
      </trkpt>
      <trkpt lat="45.9232" lon="4.75852">
        <ele>174</ele>
        <time>2018-10-23T10:32:23Z</time>
      </trkpt>
      <trkpt lat="45.92315" lon="4.75849">
        <ele>174</ele>
        <time>2018-10-23T10:32:24Z</time>
      </trkpt>
      <trkpt lat="45.9231" lon="4.75847">
        <ele>173</ele>
        <time>2018-10-23T10:32:25Z</time>
      </trkpt>
      <trkpt lat="45.92306" lon="4.75844">
        <ele>173</ele>
        <time>2018-10-23T10:32:26Z</time>
      </trkpt>
      <trkpt lat="45.92302" lon="4.75841">
        <ele>173</ele>
        <time>2018-10-23T10:32:27Z</time>
      </trkpt>
      <trkpt lat="45.92297" lon="4.75838">
        <ele>173</ele>
        <time>2018-10-23T10:32:28Z</time>
      </trkpt>
      <trkpt lat="45.92293" lon="4.75836">
        <ele>173</ele>
        <time>2018-10-23T10:32:29Z</time>
      </trkpt>
      <trkpt lat="45.92288" lon="4.75832">
        <ele>174</ele>
        <time>2018-10-23T10:32:30Z</time>
      </trkpt>
      <trkpt lat="45.92282" lon="4.75828">
        <ele>174</ele>
        <time>2018-10-23T10:32:31Z</time>
      </trkpt>
      <trkpt lat="45.92277" lon="4.75824">
        <ele>174</ele>
        <time>2018-10-23T10:32:32Z</time>
      </trkpt>
      <trkpt lat="45.92272" lon="4.75818">
        <ele>174</ele>
        <time>2018-10-23T10:32:33Z</time>
      </trkpt>
      <trkpt lat="45.92267" lon="4.75813">
        <ele>174</ele>
        <time>2018-10-23T10:32:34Z</time>
      </trkpt>
      <trkpt lat="45.92264" lon="4.75808">
        <ele>174</ele>
        <time>2018-10-23T10:32:35Z</time>
      </trkpt>
      <trkpt lat="45.92261" lon="4.75802">
        <ele>174</ele>
        <time>2018-10-23T10:32:36Z</time>
      </trkpt>
      <trkpt lat="45.92258" lon="4.75795">
        <ele>174</ele>
        <time>2018-10-23T10:32:37Z</time>
      </trkpt>
      <trkpt lat="45.92256" lon="4.75786">
        <ele>174</ele>
        <time>2018-10-23T10:32:38Z</time>
      </trkpt>
      <trkpt lat="45.92254" lon="4.75778">
        <ele>174</ele>
        <time>2018-10-23T10:32:39Z</time>
      </trkpt>
      <trkpt lat="45.92253" lon="4.75771">
        <ele>174</ele>
        <time>2018-10-23T10:32:40Z</time>
      </trkpt>
      <trkpt lat="45.92252" lon="4.75764">
        <ele>174</ele>
        <time>2018-10-23T10:32:41Z</time>
      </trkpt>
      <trkpt lat="45.92251" lon="4.75756">
        <ele>174</ele>
        <time>2018-10-23T10:32:42Z</time>
      </trkpt>
      <trkpt lat="45.92249" lon="4.75749">
        <ele>174</ele>
        <time>2018-10-23T10:32:43Z</time>
      </trkpt>
      <trkpt lat="45.92249" lon="4.75741">
        <ele>174</ele>
        <time>2018-10-23T10:32:44Z</time>
      </trkpt>
      <trkpt lat="45.92247" lon="4.75734">
        <ele>174</ele>
        <time>2018-10-23T10:32:45Z</time>
      </trkpt>
      <trkpt lat="45.92245" lon="4.75726">
        <ele>174</ele>
        <time>2018-10-23T10:32:46Z</time>
      </trkpt>
      <trkpt lat="45.92243" lon="4.75719">
        <ele>174</ele>
        <time>2018-10-23T10:32:47Z</time>
      </trkpt>
      <trkpt lat="45.9224" lon="4.75712">
        <ele>174</ele>
        <time>2018-10-23T10:32:48Z</time>
      </trkpt>
      <trkpt lat="45.92237" lon="4.75706">
        <ele>174</ele>
        <time>2018-10-23T10:32:49Z</time>
      </trkpt>
      <trkpt lat="45.92233" lon="4.757">
        <ele>174</ele>
        <time>2018-10-23T10:32:50Z</time>
      </trkpt>
      <trkpt lat="45.92229" lon="4.75694">
        <ele>174</ele>
        <time>2018-10-23T10:32:51Z</time>
      </trkpt>
      <trkpt lat="45.92226" lon="4.75689">
        <ele>174</ele>
        <time>2018-10-23T10:32:52Z</time>
      </trkpt>
      <trkpt lat="45.92221" lon="4.75685">
        <ele>174</ele>
        <time>2018-10-23T10:32:53Z</time>
      </trkpt>
      <trkpt lat="45.92216" lon="4.7568">
        <ele>174</ele>
        <time>2018-10-23T10:32:54Z</time>
      </trkpt>
      <trkpt lat="45.92212" lon="4.75676">
        <ele>174</ele>
        <time>2018-10-23T10:32:55Z</time>
      </trkpt>
      <trkpt lat="45.92206" lon="4.75672">
        <ele>174</ele>
        <time>2018-10-23T10:32:56Z</time>
      </trkpt>
      <trkpt lat="45.92202" lon="4.75667">
        <ele>174</ele>
        <time>2018-10-23T10:32:57Z</time>
      </trkpt>
      <trkpt lat="45.92197" lon="4.75663">
        <ele>174</ele>
        <time>2018-10-23T10:32:58Z</time>
      </trkpt>
      <trkpt lat="45.92192" lon="4.75659">
        <ele>174</ele>
        <time>2018-10-23T10:32:59Z</time>
      </trkpt>
      <trkpt lat="45.92188" lon="4.75655">
        <ele>174</ele>
        <time>2018-10-23T10:33:00Z</time>
      </trkpt>
      <trkpt lat="45.92184" lon="4.7565">
        <ele>174</ele>
        <time>2018-10-23T10:33:01Z</time>
      </trkpt>
      <trkpt lat="45.92179" lon="4.75647">
        <ele>174</ele>
        <time>2018-10-23T10:33:02Z</time>
      </trkpt>
      <trkpt lat="45.92174" lon="4.75643">
        <ele>174</ele>
        <time>2018-10-23T10:33:03Z</time>
      </trkpt>
      <trkpt lat="45.92169" lon="4.75638">
        <ele>174</ele>
        <time>2018-10-23T10:33:04Z</time>
      </trkpt>
      <trkpt lat="45.92164" lon="4.75633">
        <ele>174</ele>
        <time>2018-10-23T10:33:05Z</time>
      </trkpt>
      <trkpt lat="45.9216" lon="4.75627">
        <ele>174</ele>
        <time>2018-10-23T10:33:06Z</time>
      </trkpt>
      <trkpt lat="45.92154" lon="4.75621">
        <ele>174</ele>
        <time>2018-10-23T10:33:07Z</time>
      </trkpt>
      <trkpt lat="45.9215" lon="4.75615">
        <ele>174</ele>
        <time>2018-10-23T10:33:08Z</time>
      </trkpt>
      <trkpt lat="45.92145" lon="4.75611">
        <ele>174</ele>
        <time>2018-10-23T10:33:09Z</time>
      </trkpt>
      <trkpt lat="45.9214" lon="4.75607">
        <ele>174</ele>
        <time>2018-10-23T10:33:10Z</time>
      </trkpt>
      <trkpt lat="45.92135" lon="4.75601">
        <ele>174</ele>
        <time>2018-10-23T10:33:11Z</time>
      </trkpt>
      <trkpt lat="45.92131" lon="4.75596">
        <ele>174</ele>
        <time>2018-10-23T10:33:12Z</time>
      </trkpt>
      <trkpt lat="45.92126" lon="4.75591">
        <ele>174</ele>
        <time>2018-10-23T10:33:13Z</time>
      </trkpt>
      <trkpt lat="45.92121" lon="4.75588">
        <ele>174</ele>
        <time>2018-10-23T10:33:14Z</time>
      </trkpt>
      <trkpt lat="45.92117" lon="4.75584">
        <ele>174</ele>
        <time>2018-10-23T10:33:15Z</time>
      </trkpt>
      <trkpt lat="45.92113" lon="4.75574">
        <ele>174</ele>
        <time>2018-10-23T10:33:17Z</time>
      </trkpt>
      <trkpt lat="45.92113" lon="4.75569">
        <ele>174</ele>
        <time>2018-10-23T10:33:18Z</time>
      </trkpt>
      <trkpt lat="45.92117" lon="4.75558">
        <ele>174</ele>
        <time>2018-10-23T10:33:20Z</time>
      </trkpt>
      <trkpt lat="45.92119" lon="4.75552">
        <ele>174</ele>
        <time>2018-10-23T10:33:21Z</time>
      </trkpt>
      <trkpt lat="45.92122" lon="4.75547">
        <ele>174</ele>
        <time>2018-10-23T10:33:22Z</time>
      </trkpt>
      <trkpt lat="45.92125" lon="4.75541">
        <ele>174</ele>
        <time>2018-10-23T10:33:23Z</time>
      </trkpt>
      <trkpt lat="45.92128" lon="4.75537">
        <ele>174</ele>
        <time>2018-10-23T10:33:24Z</time>
      </trkpt>
      <trkpt lat="45.92131" lon="4.75532">
        <ele>174</ele>
        <time>2018-10-23T10:33:25Z</time>
      </trkpt>
      <trkpt lat="45.92134" lon="4.75525">
        <ele>174</ele>
        <time>2018-10-23T10:33:26Z</time>
      </trkpt>
      <trkpt lat="45.92137" lon="4.75519">
        <ele>174</ele>
        <time>2018-10-23T10:33:27Z</time>
      </trkpt>
      <trkpt lat="45.92141" lon="4.75512">
        <ele>174</ele>
        <time>2018-10-23T10:33:28Z</time>
      </trkpt>
      <trkpt lat="45.92144" lon="4.75506">
        <ele>175</ele>
        <time>2018-10-23T10:33:29Z</time>
      </trkpt>
      <trkpt lat="45.92148" lon="4.75498">
        <ele>175</ele>
        <time>2018-10-23T10:33:30Z</time>
      </trkpt>
      <trkpt lat="45.9215" lon="4.75491">
        <ele>175</ele>
        <time>2018-10-23T10:33:31Z</time>
      </trkpt>
      <trkpt lat="45.92153" lon="4.75484">
        <ele>176</ele>
        <time>2018-10-23T10:33:32Z</time>
      </trkpt>
      <trkpt lat="45.92156" lon="4.75477">
        <ele>176</ele>
        <time>2018-10-23T10:33:33Z</time>
      </trkpt>
      <trkpt lat="45.92158" lon="4.75469">
        <ele>176</ele>
        <time>2018-10-23T10:33:34Z</time>
      </trkpt>
      <trkpt lat="45.92162" lon="4.75462">
        <ele>176</ele>
        <time>2018-10-23T10:33:35Z</time>
      </trkpt>
      <trkpt lat="45.92164" lon="4.75455">
        <ele>176</ele>
        <time>2018-10-23T10:33:36Z</time>
      </trkpt>
      <trkpt lat="45.92167" lon="4.75449">
        <ele>176</ele>
        <time>2018-10-23T10:33:37Z</time>
      </trkpt>
      <trkpt lat="45.9217" lon="4.75442">
        <ele>177</ele>
        <time>2018-10-23T10:33:38Z</time>
      </trkpt>
      <trkpt lat="45.92173" lon="4.75434">
        <ele>177</ele>
        <time>2018-10-23T10:33:39Z</time>
      </trkpt>
      <trkpt lat="45.92176" lon="4.75427">
        <ele>177</ele>
        <time>2018-10-23T10:33:40Z</time>
      </trkpt>
      <trkpt lat="45.92179" lon="4.75422">
        <ele>177</ele>
        <time>2018-10-23T10:33:41Z</time>
      </trkpt>
      <trkpt lat="45.92181" lon="4.75416">
        <ele>177</ele>
        <time>2018-10-23T10:33:42Z</time>
      </trkpt>
      <trkpt lat="45.92184" lon="4.75409">
        <ele>177</ele>
        <time>2018-10-23T10:33:43Z</time>
      </trkpt>
      <trkpt lat="45.92186" lon="4.75404">
        <ele>177</ele>
        <time>2018-10-23T10:33:44Z</time>
      </trkpt>
      <trkpt lat="45.92188" lon="4.75396">
        <ele>177</ele>
        <time>2018-10-23T10:33:45Z</time>
      </trkpt>
      <trkpt lat="45.92193" lon="4.75389">
        <ele>177</ele>
        <time>2018-10-23T10:33:46Z</time>
      </trkpt>
      <trkpt lat="45.92194" lon="4.75384">
        <ele>177</ele>
        <time>2018-10-23T10:33:47Z</time>
      </trkpt>
      <trkpt lat="45.92196" lon="4.75377">
        <ele>177</ele>
        <time>2018-10-23T10:33:48Z</time>
      </trkpt>
      <trkpt lat="45.92198" lon="4.75371">
        <ele>177</ele>
        <time>2018-10-23T10:33:49Z</time>
      </trkpt>
      <trkpt lat="45.922" lon="4.75364">
        <ele>177</ele>
        <time>2018-10-23T10:33:50Z</time>
      </trkpt>
      <trkpt lat="45.92202" lon="4.75357">
        <ele>177</ele>
        <time>2018-10-23T10:33:51Z</time>
      </trkpt>
      <trkpt lat="45.92204" lon="4.75351">
        <ele>177</ele>
        <time>2018-10-23T10:33:52Z</time>
      </trkpt>
      <trkpt lat="45.92205" lon="4.75344">
        <ele>177</ele>
        <time>2018-10-23T10:33:53Z</time>
      </trkpt>
      <trkpt lat="45.92207" lon="4.75337">
        <ele>177</ele>
        <time>2018-10-23T10:33:54Z</time>
      </trkpt>
      <trkpt lat="45.92208" lon="4.7533">
        <ele>176</ele>
        <time>2018-10-23T10:33:55Z</time>
      </trkpt>
      <trkpt lat="45.92209" lon="4.75322">
        <ele>176</ele>
        <time>2018-10-23T10:33:56Z</time>
      </trkpt>
      <trkpt lat="45.92212" lon="4.75317">
        <ele>176</ele>
        <time>2018-10-23T10:33:57Z</time>
      </trkpt>
      <trkpt lat="45.92212" lon="4.75309">
        <ele>176</ele>
        <time>2018-10-23T10:33:58Z</time>
      </trkpt>
      <trkpt lat="45.92213" lon="4.753">
        <ele>176</ele>
        <time>2018-10-23T10:33:59Z</time>
      </trkpt>
      <trkpt lat="45.92214" lon="4.75291">
        <ele>176</ele>
        <time>2018-10-23T10:34:00Z</time>
      </trkpt>
      <trkpt lat="45.92214" lon="4.75283">
        <ele>176</ele>
        <time>2018-10-23T10:34:01Z</time>
      </trkpt>
      <trkpt lat="45.92214" lon="4.75274">
        <ele>176</ele>
        <time>2018-10-23T10:34:02Z</time>
      </trkpt>
      <trkpt lat="45.92215" lon="4.75265">
        <ele>176</ele>
        <time>2018-10-23T10:34:03Z</time>
      </trkpt>
      <trkpt lat="45.92215" lon="4.75257">
        <ele>175</ele>
        <time>2018-10-23T10:34:04Z</time>
      </trkpt>
      <trkpt lat="45.92216" lon="4.75249">
        <ele>175</ele>
        <time>2018-10-23T10:34:05Z</time>
      </trkpt>
      <trkpt lat="45.92216" lon="4.7524">
        <ele>175</ele>
        <time>2018-10-23T10:34:06Z</time>
      </trkpt>
      <trkpt lat="45.92217" lon="4.75232">
        <ele>175</ele>
        <time>2018-10-23T10:34:07Z</time>
      </trkpt>
      <trkpt lat="45.92217" lon="4.75223">
        <ele>175</ele>
        <time>2018-10-23T10:34:08Z</time>
      </trkpt>
      <trkpt lat="45.92218" lon="4.75214">
        <ele>175</ele>
        <time>2018-10-23T10:34:09Z</time>
      </trkpt>
      <trkpt lat="45.92218" lon="4.75205">
        <ele>175</ele>
        <time>2018-10-23T10:34:10Z</time>
      </trkpt>
      <trkpt lat="45.92219" lon="4.75197">
        <ele>175</ele>
        <time>2018-10-23T10:34:11Z</time>
      </trkpt>
      <trkpt lat="45.92221" lon="4.75189">
        <ele>175</ele>
        <time>2018-10-23T10:34:12Z</time>
      </trkpt>
      <trkpt lat="45.92223" lon="4.7518">
        <ele>175</ele>
        <time>2018-10-23T10:34:13Z</time>
      </trkpt>
      <trkpt lat="45.92226" lon="4.75172">
        <ele>175</ele>
        <time>2018-10-23T10:34:14Z</time>
      </trkpt>
      <trkpt lat="45.92229" lon="4.75164">
        <ele>174</ele>
        <time>2018-10-23T10:34:15Z</time>
      </trkpt>
      <trkpt lat="45.92232" lon="4.75157">
        <ele>174</ele>
        <time>2018-10-23T10:34:16Z</time>
      </trkpt>
      <trkpt lat="45.92235" lon="4.7515">
        <ele>174</ele>
        <time>2018-10-23T10:34:17Z</time>
      </trkpt>
      <trkpt lat="45.9224" lon="4.75145">
        <ele>174</ele>
        <time>2018-10-23T10:34:18Z</time>
      </trkpt>
      <trkpt lat="45.92244" lon="4.75139">
        <ele>174</ele>
        <time>2018-10-23T10:34:19Z</time>
      </trkpt>
      <trkpt lat="45.92247" lon="4.75133">
        <ele>174</ele>
        <time>2018-10-23T10:34:20Z</time>
      </trkpt>
      <trkpt lat="45.92251" lon="4.75128">
        <ele>174</ele>
        <time>2018-10-23T10:34:21Z</time>
      </trkpt>
      <trkpt lat="45.92255" lon="4.75124">
        <ele>174</ele>
        <time>2018-10-23T10:34:22Z</time>
      </trkpt>
      <trkpt lat="45.92259" lon="4.75118">
        <ele>174</ele>
        <time>2018-10-23T10:34:23Z</time>
      </trkpt>
      <trkpt lat="45.92264" lon="4.75113">
        <ele>174</ele>
        <time>2018-10-23T10:34:24Z</time>
      </trkpt>
      <trkpt lat="45.92269" lon="4.75107">
        <ele>174</ele>
        <time>2018-10-23T10:34:25Z</time>
      </trkpt>
      <trkpt lat="45.92274" lon="4.75102">
        <ele>173</ele>
        <time>2018-10-23T10:34:26Z</time>
      </trkpt>
      <trkpt lat="45.9228" lon="4.75096">
        <ele>173</ele>
        <time>2018-10-23T10:34:27Z</time>
      </trkpt>
      <trkpt lat="45.92285" lon="4.75091">
        <ele>173</ele>
        <time>2018-10-23T10:34:28Z</time>
      </trkpt>
      <trkpt lat="45.92289" lon="4.75086">
        <ele>173</ele>
        <time>2018-10-23T10:34:29Z</time>
      </trkpt>
      <trkpt lat="45.92294" lon="4.7508">
        <ele>172</ele>
        <time>2018-10-23T10:34:30Z</time>
      </trkpt>
      <trkpt lat="45.923" lon="4.75074">
        <ele>172</ele>
        <time>2018-10-23T10:34:31Z</time>
      </trkpt>
      <trkpt lat="45.92304" lon="4.75069">
        <ele>172</ele>
        <time>2018-10-23T10:34:32Z</time>
      </trkpt>
      <trkpt lat="45.92308" lon="4.75063">
        <ele>172</ele>
        <time>2018-10-23T10:34:33Z</time>
      </trkpt>
      <trkpt lat="45.92313" lon="4.75056">
        <ele>172</ele>
        <time>2018-10-23T10:34:34Z</time>
      </trkpt>
      <trkpt lat="45.92317" lon="4.75048">
        <ele>172</ele>
        <time>2018-10-23T10:34:35Z</time>
      </trkpt>
      <trkpt lat="45.92321" lon="4.75041">
        <ele>172</ele>
        <time>2018-10-23T10:34:36Z</time>
      </trkpt>
      <trkpt lat="45.92325" lon="4.75035">
        <ele>171</ele>
        <time>2018-10-23T10:34:37Z</time>
      </trkpt>
      <trkpt lat="45.92327" lon="4.75028">
        <ele>171</ele>
        <time>2018-10-23T10:34:38Z</time>
      </trkpt>
      <trkpt lat="45.92329" lon="4.75024">
        <ele>171</ele>
        <time>2018-10-23T10:34:39Z</time>
      </trkpt>
      <trkpt lat="45.92332" lon="4.75017">
        <ele>171</ele>
        <time>2018-10-23T10:34:40Z</time>
      </trkpt>
      <trkpt lat="45.92336" lon="4.75011">
        <ele>170</ele>
        <time>2018-10-23T10:34:41Z</time>
      </trkpt>
      <trkpt lat="45.92339" lon="4.75005">
        <ele>170</ele>
        <time>2018-10-23T10:34:42Z</time>
      </trkpt>
      <trkpt lat="45.92341" lon="4.74998">
        <ele>170</ele>
        <time>2018-10-23T10:34:43Z</time>
      </trkpt>
      <trkpt lat="45.92345" lon="4.74991">
        <ele>170</ele>
        <time>2018-10-23T10:34:44Z</time>
      </trkpt>
      <trkpt lat="45.92348" lon="4.74984">
        <ele>170</ele>
        <time>2018-10-23T10:34:45Z</time>
      </trkpt>
      <trkpt lat="45.92351" lon="4.74977">
        <ele>170</ele>
        <time>2018-10-23T10:34:46Z</time>
      </trkpt>
      <trkpt lat="45.92354" lon="4.74969">
        <ele>170</ele>
        <time>2018-10-23T10:34:47Z</time>
      </trkpt>
      <trkpt lat="45.92358" lon="4.74962">
        <ele>170</ele>
        <time>2018-10-23T10:34:48Z</time>
      </trkpt>
      <trkpt lat="45.9236" lon="4.74956">
        <ele>170</ele>
        <time>2018-10-23T10:34:49Z</time>
      </trkpt>
      <trkpt lat="45.92363" lon="4.74949">
        <ele>170</ele>
        <time>2018-10-23T10:34:50Z</time>
      </trkpt>
      <trkpt lat="45.92366" lon="4.74942">
        <ele>170</ele>
        <time>2018-10-23T10:34:51Z</time>
      </trkpt>
      <trkpt lat="45.92369" lon="4.74933">
        <ele>170</ele>
        <time>2018-10-23T10:34:52Z</time>
      </trkpt>
      <trkpt lat="45.92372" lon="4.74925">
        <ele>170</ele>
        <time>2018-10-23T10:34:53Z</time>
      </trkpt>
      <trkpt lat="45.92375" lon="4.74918">
        <ele>170</ele>
        <time>2018-10-23T10:34:54Z</time>
      </trkpt>
      <trkpt lat="45.92378" lon="4.74912">
        <ele>171</ele>
        <time>2018-10-23T10:34:55Z</time>
      </trkpt>
      <trkpt lat="45.92379" lon="4.74906">
        <ele>171</ele>
        <time>2018-10-23T10:34:56Z</time>
      </trkpt>
      <trkpt lat="45.92382" lon="4.749">
        <ele>171</ele>
        <time>2018-10-23T10:34:57Z</time>
      </trkpt>
      <trkpt lat="45.92384" lon="4.74893">
        <ele>171</ele>
        <time>2018-10-23T10:34:58Z</time>
      </trkpt>
      <trkpt lat="45.92387" lon="4.74887">
        <ele>171</ele>
        <time>2018-10-23T10:34:59Z</time>
      </trkpt>
      <trkpt lat="45.92389" lon="4.74881">
        <ele>171</ele>
        <time>2018-10-23T10:35:00Z</time>
      </trkpt>
      <trkpt lat="45.92392" lon="4.74875">
        <ele>171</ele>
        <time>2018-10-23T10:35:01Z</time>
      </trkpt>
      <trkpt lat="45.92394" lon="4.74869">
        <ele>171</ele>
        <time>2018-10-23T10:35:02Z</time>
      </trkpt>
      <trkpt lat="45.92396" lon="4.74862">
        <ele>171</ele>
        <time>2018-10-23T10:35:03Z</time>
      </trkpt>
      <trkpt lat="45.92398" lon="4.74856">
        <ele>171</ele>
        <time>2018-10-23T10:35:04Z</time>
      </trkpt>
      <trkpt lat="45.924" lon="4.74849">
        <ele>171</ele>
        <time>2018-10-23T10:35:05Z</time>
      </trkpt>
      <trkpt lat="45.92402" lon="4.74843">
        <ele>171</ele>
        <time>2018-10-23T10:35:06Z</time>
      </trkpt>
      <trkpt lat="45.92403" lon="4.74835">
        <ele>171</ele>
        <time>2018-10-23T10:35:07Z</time>
      </trkpt>
      <trkpt lat="45.92405" lon="4.74829">
        <ele>171</ele>
        <time>2018-10-23T10:35:08Z</time>
      </trkpt>
      <trkpt lat="45.92406" lon="4.7482">
        <ele>171</ele>
        <time>2018-10-23T10:35:09Z</time>
      </trkpt>
      <trkpt lat="45.92407" lon="4.74813">
        <ele>171</ele>
        <time>2018-10-23T10:35:10Z</time>
      </trkpt>
      <trkpt lat="45.92409" lon="4.74806">
        <ele>171</ele>
        <time>2018-10-23T10:35:11Z</time>
      </trkpt>
      <trkpt lat="45.92411" lon="4.74798">
        <ele>171</ele>
        <time>2018-10-23T10:35:12Z</time>
      </trkpt>
      <trkpt lat="45.92412" lon="4.7479">
        <ele>171</ele>
        <time>2018-10-23T10:35:13Z</time>
      </trkpt>
      <trkpt lat="45.92414" lon="4.74782">
        <ele>171</ele>
        <time>2018-10-23T10:35:14Z</time>
      </trkpt>
      <trkpt lat="45.92416" lon="4.74774">
        <ele>172</ele>
        <time>2018-10-23T10:35:15Z</time>
      </trkpt>
      <trkpt lat="45.92419" lon="4.74766">
        <ele>171</ele>
        <time>2018-10-23T10:35:16Z</time>
      </trkpt>
      <trkpt lat="45.92421" lon="4.74758">
        <ele>172</ele>
        <time>2018-10-23T10:35:17Z</time>
      </trkpt>
      <trkpt lat="45.92424" lon="4.7475">
        <ele>172</ele>
        <time>2018-10-23T10:35:18Z</time>
      </trkpt>
      <trkpt lat="45.92426" lon="4.74744">
        <ele>172</ele>
        <time>2018-10-23T10:35:19Z</time>
      </trkpt>
      <trkpt lat="45.92428" lon="4.74737">
        <ele>171</ele>
        <time>2018-10-23T10:35:20Z</time>
      </trkpt>
      <trkpt lat="45.9243" lon="4.74731">
        <ele>171</ele>
        <time>2018-10-23T10:35:21Z</time>
      </trkpt>
      <trkpt lat="45.92432" lon="4.74725">
        <ele>171</ele>
        <time>2018-10-23T10:35:22Z</time>
      </trkpt>
      <trkpt lat="45.92434" lon="4.74719">
        <ele>171</ele>
        <time>2018-10-23T10:35:23Z</time>
      </trkpt>
      <trkpt lat="45.92436" lon="4.74713">
        <ele>171</ele>
        <time>2018-10-23T10:35:24Z</time>
      </trkpt>
      <trkpt lat="45.92438" lon="4.74705">
        <ele>171</ele>
        <time>2018-10-23T10:35:25Z</time>
      </trkpt>
      <trkpt lat="45.92441" lon="4.74698">
        <ele>171</ele>
        <time>2018-10-23T10:35:26Z</time>
      </trkpt>
      <trkpt lat="45.92443" lon="4.74692">
        <ele>171</ele>
        <time>2018-10-23T10:35:27Z</time>
      </trkpt>
      <trkpt lat="45.92446" lon="4.74685">
        <ele>171</ele>
        <time>2018-10-23T10:35:28Z</time>
      </trkpt>
      <trkpt lat="45.92449" lon="4.74679">
        <ele>171</ele>
        <time>2018-10-23T10:35:29Z</time>
      </trkpt>
      <trkpt lat="45.92453" lon="4.74673">
        <ele>171</ele>
        <time>2018-10-23T10:35:30Z</time>
      </trkpt>
      <trkpt lat="45.92456" lon="4.74666">
        <ele>171</ele>
        <time>2018-10-23T10:35:31Z</time>
      </trkpt>
      <trkpt lat="45.92459" lon="4.74661">
        <ele>171</ele>
        <time>2018-10-23T10:35:32Z</time>
      </trkpt>
      <trkpt lat="45.92462" lon="4.74656">
        <ele>171</ele>
        <time>2018-10-23T10:35:33Z</time>
      </trkpt>
      <trkpt lat="45.92465" lon="4.74649">
        <ele>171</ele>
        <time>2018-10-23T10:35:34Z</time>
      </trkpt>
      <trkpt lat="45.9247" lon="4.74645">
        <ele>171</ele>
        <time>2018-10-23T10:35:35Z</time>
      </trkpt>
      <trkpt lat="45.92475" lon="4.74638">
        <ele>171</ele>
        <time>2018-10-23T10:35:36Z</time>
      </trkpt>
      <trkpt lat="45.92478" lon="4.74631">
        <ele>171</ele>
        <time>2018-10-23T10:35:37Z</time>
      </trkpt>
      <trkpt lat="45.92481" lon="4.74626">
        <ele>171</ele>
        <time>2018-10-23T10:35:38Z</time>
      </trkpt>
      <trkpt lat="45.92485" lon="4.74621">
        <ele>171</ele>
        <time>2018-10-23T10:35:39Z</time>
      </trkpt>
      <trkpt lat="45.92489" lon="4.74616">
        <ele>171</ele>
        <time>2018-10-23T10:35:40Z</time>
      </trkpt>
      <trkpt lat="45.92494" lon="4.7461">
        <ele>171</ele>
        <time>2018-10-23T10:35:41Z</time>
      </trkpt>
      <trkpt lat="45.92498" lon="4.74605">
        <ele>171</ele>
        <time>2018-10-23T10:35:42Z</time>
      </trkpt>
      <trkpt lat="45.92502" lon="4.746">
        <ele>171</ele>
        <time>2018-10-23T10:35:43Z</time>
      </trkpt>
      <trkpt lat="45.92506" lon="4.74594">
        <ele>171</ele>
        <time>2018-10-23T10:35:44Z</time>
      </trkpt>
      <trkpt lat="45.92511" lon="4.7459">
        <ele>171</ele>
        <time>2018-10-23T10:35:45Z</time>
      </trkpt>
      <trkpt lat="45.92515" lon="4.74585">
        <ele>171</ele>
        <time>2018-10-23T10:35:46Z</time>
      </trkpt>
      <trkpt lat="45.9252" lon="4.7458">
        <ele>171</ele>
        <time>2018-10-23T10:35:47Z</time>
      </trkpt>
      <trkpt lat="45.92524" lon="4.74575">
        <ele>171</ele>
        <time>2018-10-23T10:35:48Z</time>
      </trkpt>
      <trkpt lat="45.92527" lon="4.7457">
        <ele>171</ele>
        <time>2018-10-23T10:35:49Z</time>
      </trkpt>
      <trkpt lat="45.92531" lon="4.74565">
        <ele>171</ele>
        <time>2018-10-23T10:35:50Z</time>
      </trkpt>
      <trkpt lat="45.92535" lon="4.74559">
        <ele>171</ele>
        <time>2018-10-23T10:35:51Z</time>
      </trkpt>
      <trkpt lat="45.92538" lon="4.74554">
        <ele>171</ele>
        <time>2018-10-23T10:35:52Z</time>
      </trkpt>
      <trkpt lat="45.92542" lon="4.74548">
        <ele>171</ele>
        <time>2018-10-23T10:35:53Z</time>
      </trkpt>
      <trkpt lat="45.92546" lon="4.74543">
        <ele>170</ele>
        <time>2018-10-23T10:35:54Z</time>
      </trkpt>
      <trkpt lat="45.92548" lon="4.74537">
        <ele>170</ele>
        <time>2018-10-23T10:35:55Z</time>
      </trkpt>
      <trkpt lat="45.92552" lon="4.74531">
        <ele>170</ele>
        <time>2018-10-23T10:35:56Z</time>
      </trkpt>
      <trkpt lat="45.92555" lon="4.74524">
        <ele>170</ele>
        <time>2018-10-23T10:35:57Z</time>
      </trkpt>
      <trkpt lat="45.92558" lon="4.74518">
        <ele>170</ele>
        <time>2018-10-23T10:35:58Z</time>
      </trkpt>
      <trkpt lat="45.92562" lon="4.74511">
        <ele>170</ele>
        <time>2018-10-23T10:35:59Z</time>
      </trkpt>
      <trkpt lat="45.92565" lon="4.74506">
        <ele>170</ele>
        <time>2018-10-23T10:36:00Z</time>
      </trkpt>
      <trkpt lat="45.92569" lon="4.745">
        <ele>170</ele>
        <time>2018-10-23T10:36:01Z</time>
      </trkpt>
      <trkpt lat="45.92572" lon="4.74493">
        <ele>170</ele>
        <time>2018-10-23T10:36:02Z</time>
      </trkpt>
      <trkpt lat="45.92575" lon="4.74488">
        <ele>170</ele>
        <time>2018-10-23T10:36:03Z</time>
      </trkpt>
      <trkpt lat="45.92578" lon="4.74482">
        <ele>170</ele>
        <time>2018-10-23T10:36:04Z</time>
      </trkpt>
      <trkpt lat="45.92581" lon="4.74477">
        <ele>170</ele>
        <time>2018-10-23T10:36:05Z</time>
      </trkpt>
      <trkpt lat="45.92584" lon="4.74472">
        <ele>170</ele>
        <time>2018-10-23T10:36:06Z</time>
      </trkpt>
      <trkpt lat="45.92587" lon="4.74467">
        <ele>170</ele>
        <time>2018-10-23T10:36:07Z</time>
      </trkpt>
      <trkpt lat="45.9259" lon="4.74461">
        <ele>170</ele>
        <time>2018-10-23T10:36:08Z</time>
      </trkpt>
      <trkpt lat="45.92593" lon="4.74457">
        <ele>170</ele>
        <time>2018-10-23T10:36:09Z</time>
      </trkpt>
      <trkpt lat="45.92598" lon="4.74447">
        <ele>170</ele>
        <time>2018-10-23T10:36:11Z</time>
      </trkpt>
      <trkpt lat="45.92602" lon="4.74441">
        <ele>170</ele>
        <time>2018-10-23T10:36:12Z</time>
      </trkpt>
      <trkpt lat="45.92604" lon="4.74436">
        <ele>170</ele>
        <time>2018-10-23T10:36:13Z</time>
      </trkpt>
      <trkpt lat="45.92607" lon="4.7443">
        <ele>170</ele>
        <time>2018-10-23T10:36:14Z</time>
      </trkpt>
      <trkpt lat="45.9261" lon="4.74425">
        <ele>170</ele>
        <time>2018-10-23T10:36:15Z</time>
      </trkpt>
      <trkpt lat="45.92613" lon="4.7442">
        <ele>170</ele>
        <time>2018-10-23T10:36:16Z</time>
      </trkpt>
      <trkpt lat="45.92615" lon="4.74414">
        <ele>170</ele>
        <time>2018-10-23T10:36:17Z</time>
      </trkpt>
      <trkpt lat="45.92618" lon="4.74409">
        <ele>170</ele>
        <time>2018-10-23T10:36:18Z</time>
      </trkpt>
      <trkpt lat="45.92621" lon="4.74403">
        <ele>170</ele>
        <time>2018-10-23T10:36:19Z</time>
      </trkpt>
      <trkpt lat="45.92624" lon="4.74397">
        <ele>170</ele>
        <time>2018-10-23T10:36:20Z</time>
      </trkpt>
      <trkpt lat="45.92627" lon="4.74392">
        <ele>170</ele>
        <time>2018-10-23T10:36:21Z</time>
      </trkpt>
      <trkpt lat="45.9263" lon="4.74387">
        <ele>170</ele>
        <time>2018-10-23T10:36:22Z</time>
      </trkpt>
      <trkpt lat="45.92633" lon="4.74382">
        <ele>170</ele>
        <time>2018-10-23T10:36:23Z</time>
      </trkpt>
      <trkpt lat="45.92635" lon="4.74376">
        <ele>170</ele>
        <time>2018-10-23T10:36:24Z</time>
      </trkpt>
      <trkpt lat="45.92638" lon="4.7437">
        <ele>171</ele>
        <time>2018-10-23T10:36:25Z</time>
      </trkpt>
      <trkpt lat="45.92641" lon="4.74365">
        <ele>171</ele>
        <time>2018-10-23T10:36:26Z</time>
      </trkpt>
      <trkpt lat="45.92646" lon="4.74355">
        <ele>171</ele>
        <time>2018-10-23T10:36:28Z</time>
      </trkpt>
      <trkpt lat="45.92649" lon="4.74349">
        <ele>171</ele>
        <time>2018-10-23T10:36:29Z</time>
      </trkpt>
      <trkpt lat="45.92654" lon="4.74341">
        <ele>171</ele>
        <time>2018-10-23T10:36:31Z</time>
      </trkpt>
      <trkpt lat="45.92657" lon="4.74337">
        <ele>171</ele>
        <time>2018-10-23T10:36:32Z</time>
      </trkpt>
      <trkpt lat="45.92662" lon="4.74329">
        <ele>171</ele>
        <time>2018-10-23T10:36:34Z</time>
      </trkpt>
      <trkpt lat="45.92665" lon="4.74324">
        <ele>171</ele>
        <time>2018-10-23T10:36:35Z</time>
      </trkpt>
      <trkpt lat="45.92671" lon="4.74314">
        <ele>171</ele>
        <time>2018-10-23T10:36:37Z</time>
      </trkpt>
      <trkpt lat="45.92673" lon="4.74309">
        <ele>171</ele>
        <time>2018-10-23T10:36:38Z</time>
      </trkpt>
      <trkpt lat="45.92678" lon="4.743">
        <ele>171</ele>
        <time>2018-10-23T10:36:40Z</time>
      </trkpt>
      <trkpt lat="45.92681" lon="4.74295">
        <ele>171</ele>
        <time>2018-10-23T10:36:41Z</time>
      </trkpt>
      <trkpt lat="45.92686" lon="4.74285">
        <ele>171</ele>
        <time>2018-10-23T10:36:43Z</time>
      </trkpt>
      <trkpt lat="45.92689" lon="4.74279">
        <ele>171</ele>
        <time>2018-10-23T10:36:44Z</time>
      </trkpt>
      <trkpt lat="45.92692" lon="4.74274">
        <ele>171</ele>
        <time>2018-10-23T10:36:45Z</time>
      </trkpt>
      <trkpt lat="45.92695" lon="4.74269">
        <ele>171</ele>
        <time>2018-10-23T10:36:46Z</time>
      </trkpt>
      <trkpt lat="45.92698" lon="4.74264">
        <ele>171</ele>
        <time>2018-10-23T10:36:47Z</time>
      </trkpt>
      <trkpt lat="45.92702" lon="4.74259">
        <ele>171</ele>
        <time>2018-10-23T10:36:48Z</time>
      </trkpt>
      <trkpt lat="45.92707" lon="4.74249">
        <ele>171</ele>
        <time>2018-10-23T10:36:50Z</time>
      </trkpt>
      <trkpt lat="45.9271" lon="4.74243">
        <ele>171</ele>
        <time>2018-10-23T10:36:51Z</time>
      </trkpt>
      <trkpt lat="45.92713" lon="4.74238">
        <ele>171</ele>
        <time>2018-10-23T10:36:52Z</time>
      </trkpt>
      <trkpt lat="45.92717" lon="4.74233">
        <ele>171</ele>
        <time>2018-10-23T10:36:53Z</time>
      </trkpt>
      <trkpt lat="45.9272" lon="4.74228">
        <ele>171</ele>
        <time>2018-10-23T10:36:54Z</time>
      </trkpt>
      <trkpt lat="45.92723" lon="4.74223">
        <ele>171</ele>
        <time>2018-10-23T10:36:55Z</time>
      </trkpt>
      <trkpt lat="45.92727" lon="4.74218">
        <ele>171</ele>
        <time>2018-10-23T10:36:56Z</time>
      </trkpt>
      <trkpt lat="45.92731" lon="4.74213">
        <ele>171</ele>
        <time>2018-10-23T10:36:57Z</time>
      </trkpt>
      <trkpt lat="45.92735" lon="4.74207">
        <ele>171</ele>
        <time>2018-10-23T10:36:58Z</time>
      </trkpt>
      <trkpt lat="45.92739" lon="4.74202">
        <ele>171</ele>
        <time>2018-10-23T10:36:59Z</time>
      </trkpt>
      <trkpt lat="45.92742" lon="4.74196">
        <ele>171</ele>
        <time>2018-10-23T10:37:00Z</time>
      </trkpt>
      <trkpt lat="45.92746" lon="4.74192">
        <ele>171</ele>
        <time>2018-10-23T10:37:01Z</time>
      </trkpt>
      <trkpt lat="45.9275" lon="4.74188">
        <ele>172</ele>
        <time>2018-10-23T10:37:02Z</time>
      </trkpt>
      <trkpt lat="45.92754" lon="4.74183">
        <ele>172</ele>
        <time>2018-10-23T10:37:03Z</time>
      </trkpt>
      <trkpt lat="45.92757" lon="4.74179">
        <ele>172</ele>
        <time>2018-10-23T10:37:04Z</time>
      </trkpt>
      <trkpt lat="45.92761" lon="4.74175">
        <ele>172</ele>
        <time>2018-10-23T10:37:05Z</time>
      </trkpt>
      <trkpt lat="45.92765" lon="4.74171">
        <ele>172</ele>
        <time>2018-10-23T10:37:06Z</time>
      </trkpt>
      <trkpt lat="45.92769" lon="4.74167">
        <ele>172</ele>
        <time>2018-10-23T10:37:07Z</time>
      </trkpt>
      <trkpt lat="45.92772" lon="4.74162">
        <ele>172</ele>
        <time>2018-10-23T10:37:08Z</time>
      </trkpt>
      <trkpt lat="45.92776" lon="4.74158">
        <ele>172</ele>
        <time>2018-10-23T10:37:09Z</time>
      </trkpt>
      <trkpt lat="45.9278" lon="4.74154">
        <ele>172</ele>
        <time>2018-10-23T10:37:10Z</time>
      </trkpt>
      <trkpt lat="45.92784" lon="4.74151">
        <ele>172</ele>
        <time>2018-10-23T10:37:11Z</time>
      </trkpt>
      <trkpt lat="45.92788" lon="4.74147">
        <ele>172</ele>
        <time>2018-10-23T10:37:12Z</time>
      </trkpt>
      <trkpt lat="45.92792" lon="4.74142">
        <ele>172</ele>
        <time>2018-10-23T10:37:13Z</time>
      </trkpt>
      <trkpt lat="45.92796" lon="4.74137">
        <ele>172</ele>
        <time>2018-10-23T10:37:14Z</time>
      </trkpt>
      <trkpt lat="45.928" lon="4.74133">
        <ele>172</ele>
        <time>2018-10-23T10:37:15Z</time>
      </trkpt>
      <trkpt lat="45.92804" lon="4.74128">
        <ele>172</ele>
        <time>2018-10-23T10:37:16Z</time>
      </trkpt>
      <trkpt lat="45.92807" lon="4.74124">
        <ele>172</ele>
        <time>2018-10-23T10:37:17Z</time>
      </trkpt>
      <trkpt lat="45.92812" lon="4.7412">
        <ele>172</ele>
        <time>2018-10-23T10:37:18Z</time>
      </trkpt>
      <trkpt lat="45.92817" lon="4.74116">
        <ele>172</ele>
        <time>2018-10-23T10:37:19Z</time>
      </trkpt>
      <trkpt lat="45.92822" lon="4.74112">
        <ele>171</ele>
        <time>2018-10-23T10:37:20Z</time>
      </trkpt>
      <trkpt lat="45.92825" lon="4.74107">
        <ele>171</ele>
        <time>2018-10-23T10:37:21Z</time>
      </trkpt>
      <trkpt lat="45.92828" lon="4.74102">
        <ele>171</ele>
        <time>2018-10-23T10:37:22Z</time>
      </trkpt>
      <trkpt lat="45.92833" lon="4.74097">
        <ele>171</ele>
        <time>2018-10-23T10:37:23Z</time>
      </trkpt>
      <trkpt lat="45.92836" lon="4.74093">
        <ele>171</ele>
        <time>2018-10-23T10:37:24Z</time>
      </trkpt>
      <trkpt lat="45.9284" lon="4.74088">
        <ele>171</ele>
        <time>2018-10-23T10:37:25Z</time>
      </trkpt>
      <trkpt lat="45.92844" lon="4.74083">
        <ele>171</ele>
        <time>2018-10-23T10:37:26Z</time>
      </trkpt>
      <trkpt lat="45.92848" lon="4.74078">
        <ele>172</ele>
        <time>2018-10-23T10:37:27Z</time>
      </trkpt>
      <trkpt lat="45.92851" lon="4.74073">
        <ele>172</ele>
        <time>2018-10-23T10:37:28Z</time>
      </trkpt>
      <trkpt lat="45.92855" lon="4.74069">
        <ele>172</ele>
        <time>2018-10-23T10:37:29Z</time>
      </trkpt>
      <trkpt lat="45.9286" lon="4.74063">
        <ele>172</ele>
        <time>2018-10-23T10:37:30Z</time>
      </trkpt>
      <trkpt lat="45.92864" lon="4.74059">
        <ele>172</ele>
        <time>2018-10-23T10:37:31Z</time>
      </trkpt>
      <trkpt lat="45.92868" lon="4.74055">
        <ele>172</ele>
        <time>2018-10-23T10:37:32Z</time>
      </trkpt>
      <trkpt lat="45.92872" lon="4.7405">
        <ele>172</ele>
        <time>2018-10-23T10:37:33Z</time>
      </trkpt>
      <trkpt lat="45.92876" lon="4.74046">
        <ele>172</ele>
        <time>2018-10-23T10:37:34Z</time>
      </trkpt>
      <trkpt lat="45.9288" lon="4.74043">
        <ele>172</ele>
        <time>2018-10-23T10:37:35Z</time>
      </trkpt>
      <trkpt lat="45.92888" lon="4.74041">
        <ele>172</ele>
        <time>2018-10-23T10:37:37Z</time>
      </trkpt>
      <trkpt lat="45.92893" lon="4.74041">
        <ele>172</ele>
        <time>2018-10-23T10:37:38Z</time>
      </trkpt>
      <trkpt lat="45.92898" lon="4.74041">
        <ele>172</ele>
        <time>2018-10-23T10:37:39Z</time>
      </trkpt>
      <trkpt lat="45.92902" lon="4.74041">
        <ele>172</ele>
        <time>2018-10-23T10:37:40Z</time>
      </trkpt>
      <trkpt lat="45.92906" lon="4.74039">
        <ele>172</ele>
        <time>2018-10-23T10:37:41Z</time>
      </trkpt>
      <trkpt lat="45.92911" lon="4.74037">
        <ele>172</ele>
        <time>2018-10-23T10:37:42Z</time>
      </trkpt>
      <trkpt lat="45.92918" lon="4.74028">
        <ele>172</ele>
        <time>2018-10-23T10:37:44Z</time>
      </trkpt>
      <trkpt lat="45.92919" lon="4.74021">
        <ele>172</ele>
        <time>2018-10-23T10:37:45Z</time>
      </trkpt>
      <trkpt lat="45.92921" lon="4.74012">
        <ele>172</ele>
        <time>2018-10-23T10:37:46Z</time>
      </trkpt>
      <trkpt lat="45.92921" lon="4.74004">
        <ele>172</ele>
        <time>2018-10-23T10:37:47Z</time>
      </trkpt>
      <trkpt lat="45.92919" lon="4.73998">
        <ele>172</ele>
        <time>2018-10-23T10:37:48Z</time>
      </trkpt>
      <trkpt lat="45.92914" lon="4.73994">
        <ele>172</ele>
        <time>2018-10-23T10:37:49Z</time>
      </trkpt>
      <trkpt lat="45.92909" lon="4.73988">
        <ele>172</ele>
        <time>2018-10-23T10:37:50Z</time>
      </trkpt>
      <trkpt lat="45.92905" lon="4.73984">
        <ele>172</ele>
        <time>2018-10-23T10:37:51Z</time>
      </trkpt>
      <trkpt lat="45.929" lon="4.7398">
        <ele>172</ele>
        <time>2018-10-23T10:37:52Z</time>
      </trkpt>
      <trkpt lat="45.92896" lon="4.73975">
        <ele>172</ele>
        <time>2018-10-23T10:37:53Z</time>
      </trkpt>
      <trkpt lat="45.92892" lon="4.73969">
        <ele>172</ele>
        <time>2018-10-23T10:37:54Z</time>
      </trkpt>
      <trkpt lat="45.92889" lon="4.73962">
        <ele>172</ele>
        <time>2018-10-23T10:37:55Z</time>
      </trkpt>
      <trkpt lat="45.92887" lon="4.73954">
        <ele>172</ele>
        <time>2018-10-23T10:37:56Z</time>
      </trkpt>
      <trkpt lat="45.92887" lon="4.73946">
        <ele>172</ele>
        <time>2018-10-23T10:37:57Z</time>
      </trkpt>
      <trkpt lat="45.92887" lon="4.73937">
        <ele>172</ele>
        <time>2018-10-23T10:37:58Z</time>
      </trkpt>
      <trkpt lat="45.92886" lon="4.73928">
        <ele>172</ele>
        <time>2018-10-23T10:37:59Z</time>
      </trkpt>
      <trkpt lat="45.92884" lon="4.73919">
        <ele>172</ele>
        <time>2018-10-23T10:38:00Z</time>
      </trkpt>
      <trkpt lat="45.92884" lon="4.73911">
        <ele>173</ele>
        <time>2018-10-23T10:38:01Z</time>
      </trkpt>
      <trkpt lat="45.92883" lon="4.73902">
        <ele>173</ele>
        <time>2018-10-23T10:38:02Z</time>
      </trkpt>
      <trkpt lat="45.92883" lon="4.73893">
        <ele>173</ele>
        <time>2018-10-23T10:38:03Z</time>
      </trkpt>
      <trkpt lat="45.92881" lon="4.73883">
        <ele>173</ele>
        <time>2018-10-23T10:38:04Z</time>
      </trkpt>
      <trkpt lat="45.92878" lon="4.73874">
        <ele>173</ele>
        <time>2018-10-23T10:38:05Z</time>
      </trkpt>
      <trkpt lat="45.92876" lon="4.73864">
        <ele>173</ele>
        <time>2018-10-23T10:38:06Z</time>
      </trkpt>
      <trkpt lat="45.92874" lon="4.73856">
        <ele>173</ele>
        <time>2018-10-23T10:38:07Z</time>
      </trkpt>
      <trkpt lat="45.92872" lon="4.73847">
        <ele>173</ele>
        <time>2018-10-23T10:38:08Z</time>
      </trkpt>
      <trkpt lat="45.92869" lon="4.73839">
        <ele>173</ele>
        <time>2018-10-23T10:38:09Z</time>
      </trkpt>
      <trkpt lat="45.92866" lon="4.73831">
        <ele>173</ele>
        <time>2018-10-23T10:38:10Z</time>
      </trkpt>
      <trkpt lat="45.92864" lon="4.73824">
        <ele>173</ele>
        <time>2018-10-23T10:38:11Z</time>
      </trkpt>
      <trkpt lat="45.92861" lon="4.73818">
        <ele>173</ele>
        <time>2018-10-23T10:38:12Z</time>
      </trkpt>
      <trkpt lat="45.92858" lon="4.7381">
        <ele>173</ele>
        <time>2018-10-23T10:38:13Z</time>
      </trkpt>
      <trkpt lat="45.92855" lon="4.738">
        <ele>173</ele>
        <time>2018-10-23T10:38:14Z</time>
      </trkpt>
      <trkpt lat="45.92852" lon="4.73794">
        <ele>173</ele>
        <time>2018-10-23T10:38:15Z</time>
      </trkpt>
      <trkpt lat="45.92848" lon="4.7379">
        <ele>173</ele>
        <time>2018-10-23T10:38:16Z</time>
      </trkpt>
      <trkpt lat="45.92844" lon="4.73787">
        <ele>173</ele>
        <time>2018-10-23T10:38:17Z</time>
      </trkpt>
      <trkpt lat="45.92839" lon="4.73782">
        <ele>173</ele>
        <time>2018-10-23T10:38:18Z</time>
      </trkpt>
      <trkpt lat="45.92833" lon="4.73779">
        <ele>173</ele>
        <time>2018-10-23T10:38:19Z</time>
      </trkpt>
      <trkpt lat="45.92828" lon="4.73776">
        <ele>173</ele>
        <time>2018-10-23T10:38:20Z</time>
      </trkpt>
      <trkpt lat="45.92823" lon="4.73773">
        <ele>173</ele>
        <time>2018-10-23T10:38:21Z</time>
      </trkpt>
      <trkpt lat="45.92818" lon="4.73769">
        <ele>173</ele>
        <time>2018-10-23T10:38:22Z</time>
      </trkpt>
      <trkpt lat="45.92813" lon="4.73766">
        <ele>173</ele>
        <time>2018-10-23T10:38:23Z</time>
      </trkpt>
      <trkpt lat="45.92809" lon="4.73764">
        <ele>173</ele>
        <time>2018-10-23T10:38:24Z</time>
      </trkpt>
      <trkpt lat="45.92805" lon="4.73761">
        <ele>173</ele>
        <time>2018-10-23T10:38:25Z</time>
      </trkpt>
      <trkpt lat="45.928" lon="4.73758">
        <ele>173</ele>
        <time>2018-10-23T10:38:26Z</time>
      </trkpt>
      <trkpt lat="45.92796" lon="4.73756">
        <ele>173</ele>
        <time>2018-10-23T10:38:27Z</time>
      </trkpt>
      <trkpt lat="45.92792" lon="4.73753">
        <ele>173</ele>
        <time>2018-10-23T10:38:28Z</time>
      </trkpt>
      <trkpt lat="45.92788" lon="4.7375">
        <ele>172</ele>
        <time>2018-10-23T10:38:29Z</time>
      </trkpt>
      <trkpt lat="45.92782" lon="4.7374">
        <ele>172</ele>
        <time>2018-10-23T10:38:31Z</time>
      </trkpt>
      <trkpt lat="45.9278" lon="4.73735">
        <ele>172</ele>
        <time>2018-10-23T10:38:32Z</time>
      </trkpt>
      <trkpt lat="45.92777" lon="4.7373">
        <ele>172</ele>
        <time>2018-10-23T10:38:33Z</time>
      </trkpt>
      <trkpt lat="45.92772" lon="4.73726">
        <ele>172</ele>
        <time>2018-10-23T10:38:34Z</time>
      </trkpt>
      <trkpt lat="45.92767" lon="4.73724">
        <ele>172</ele>
        <time>2018-10-23T10:38:35Z</time>
      </trkpt>
      <trkpt lat="45.92762" lon="4.73723">
        <ele>172</ele>
        <time>2018-10-23T10:38:36Z</time>
      </trkpt>
      <trkpt lat="45.92758" lon="4.73721">
        <ele>172</ele>
        <time>2018-10-23T10:38:37Z</time>
      </trkpt>
      <trkpt lat="45.92753" lon="4.73719">
        <ele>172</ele>
        <time>2018-10-23T10:38:38Z</time>
      </trkpt>
      <trkpt lat="45.92747" lon="4.73719">
        <ele>173</ele>
        <time>2018-10-23T10:38:39Z</time>
      </trkpt>
      <trkpt lat="45.92742" lon="4.73718">
        <ele>173</ele>
        <time>2018-10-23T10:38:40Z</time>
      </trkpt>
      <trkpt lat="45.92737" lon="4.73717">
        <ele>173</ele>
        <time>2018-10-23T10:38:41Z</time>
      </trkpt>
      <trkpt lat="45.92731" lon="4.73716">
        <ele>173</ele>
        <time>2018-10-23T10:38:42Z</time>
      </trkpt>
      <trkpt lat="45.92726" lon="4.73714">
        <ele>173</ele>
        <time>2018-10-23T10:38:43Z</time>
      </trkpt>
      <trkpt lat="45.92721" lon="4.73712">
        <ele>173</ele>
        <time>2018-10-23T10:38:44Z</time>
      </trkpt>
      <trkpt lat="45.92716" lon="4.73711">
        <ele>173</ele>
        <time>2018-10-23T10:38:45Z</time>
      </trkpt>
      <trkpt lat="45.92711" lon="4.73709">
        <ele>173</ele>
        <time>2018-10-23T10:38:46Z</time>
      </trkpt>
      <trkpt lat="45.92706" lon="4.73708">
        <ele>173</ele>
        <time>2018-10-23T10:38:47Z</time>
      </trkpt>
      <trkpt lat="45.92702" lon="4.73708">
        <ele>173</ele>
        <time>2018-10-23T10:38:48Z</time>
      </trkpt>
      <trkpt lat="45.92697" lon="4.73708">
        <ele>173</ele>
        <time>2018-10-23T10:38:49Z</time>
      </trkpt>
      <trkpt lat="45.92691" lon="4.73707">
        <ele>173</ele>
        <time>2018-10-23T10:38:50Z</time>
      </trkpt>
      <trkpt lat="45.92686" lon="4.73707">
        <ele>173</ele>
        <time>2018-10-23T10:38:51Z</time>
      </trkpt>
      <trkpt lat="45.9268" lon="4.73706">
        <ele>173</ele>
        <time>2018-10-23T10:38:52Z</time>
      </trkpt>
      <trkpt lat="45.92674" lon="4.73704">
        <ele>174</ele>
        <time>2018-10-23T10:38:53Z</time>
      </trkpt>
      <trkpt lat="45.92668" lon="4.73702">
        <ele>174</ele>
        <time>2018-10-23T10:38:54Z</time>
      </trkpt>
      <trkpt lat="45.92663" lon="4.73699">
        <ele>173</ele>
        <time>2018-10-23T10:38:55Z</time>
      </trkpt>
      <trkpt lat="45.92658" lon="4.73695">
        <ele>173</ele>
        <time>2018-10-23T10:38:56Z</time>
      </trkpt>
      <trkpt lat="45.92653" lon="4.73691">
        <ele>173</ele>
        <time>2018-10-23T10:38:57Z</time>
      </trkpt>
      <trkpt lat="45.92649" lon="4.73687">
        <ele>173</ele>
        <time>2018-10-23T10:38:58Z</time>
      </trkpt>
      <trkpt lat="45.92645" lon="4.73682">
        <ele>173</ele>
        <time>2018-10-23T10:38:59Z</time>
      </trkpt>
      <trkpt lat="45.9264" lon="4.73676">
        <ele>173</ele>
        <time>2018-10-23T10:39:00Z</time>
      </trkpt>
      <trkpt lat="45.92637" lon="4.73669">
        <ele>173</ele>
        <time>2018-10-23T10:39:01Z</time>
      </trkpt>
      <trkpt lat="45.92635" lon="4.73663">
        <ele>173</ele>
        <time>2018-10-23T10:39:02Z</time>
      </trkpt>
      <trkpt lat="45.92632" lon="4.73657">
        <ele>173</ele>
        <time>2018-10-23T10:39:03Z</time>
      </trkpt>
      <trkpt lat="45.9263" lon="4.7365">
        <ele>173</ele>
        <time>2018-10-23T10:39:04Z</time>
      </trkpt>
      <trkpt lat="45.92627" lon="4.73644">
        <ele>173</ele>
        <time>2018-10-23T10:39:05Z</time>
      </trkpt>
      <trkpt lat="45.92624" lon="4.73638">
        <ele>173</ele>
        <time>2018-10-23T10:39:06Z</time>
      </trkpt>
      <trkpt lat="45.92621" lon="4.73632">
        <ele>173</ele>
        <time>2018-10-23T10:39:07Z</time>
      </trkpt>
      <trkpt lat="45.92616" lon="4.73628">
        <ele>173</ele>
        <time>2018-10-23T10:39:08Z</time>
      </trkpt>
      <trkpt lat="45.92612" lon="4.73625">
        <ele>173</ele>
        <time>2018-10-23T10:39:09Z</time>
      </trkpt>
      <trkpt lat="45.92607" lon="4.73622">
        <ele>173</ele>
        <time>2018-10-23T10:39:10Z</time>
      </trkpt>
      <trkpt lat="45.92602" lon="4.73621">
        <ele>173</ele>
        <time>2018-10-23T10:39:11Z</time>
      </trkpt>
      <trkpt lat="45.92597" lon="4.73621">
        <ele>173</ele>
        <time>2018-10-23T10:39:12Z</time>
      </trkpt>
      <trkpt lat="45.92591" lon="4.73621">
        <ele>173</ele>
        <time>2018-10-23T10:39:13Z</time>
      </trkpt>
      <trkpt lat="45.92586" lon="4.73622">
        <ele>173</ele>
        <time>2018-10-23T10:39:14Z</time>
      </trkpt>
      <trkpt lat="45.9258" lon="4.73623">
        <ele>173</ele>
        <time>2018-10-23T10:39:15Z</time>
      </trkpt>
      <trkpt lat="45.92576" lon="4.73623">
        <ele>173</ele>
        <time>2018-10-23T10:39:16Z</time>
      </trkpt>
      <trkpt lat="45.92572" lon="4.73624">
        <ele>173</ele>
        <time>2018-10-23T10:39:17Z</time>
      </trkpt>
      <trkpt lat="45.92566" lon="4.73626">
        <ele>173</ele>
        <time>2018-10-23T10:39:18Z</time>
      </trkpt>
      <trkpt lat="45.9256" lon="4.73628">
        <ele>173</ele>
        <time>2018-10-23T10:39:19Z</time>
      </trkpt>
      <trkpt lat="45.92554" lon="4.73629">
        <ele>173</ele>
        <time>2018-10-23T10:39:20Z</time>
      </trkpt>
      <trkpt lat="45.92548" lon="4.73631">
        <ele>173</ele>
        <time>2018-10-23T10:39:21Z</time>
      </trkpt>
      <trkpt lat="45.92542" lon="4.73632">
        <ele>173</ele>
        <time>2018-10-23T10:39:22Z</time>
      </trkpt>
      <trkpt lat="45.92537" lon="4.73635">
        <ele>173</ele>
        <time>2018-10-23T10:39:23Z</time>
      </trkpt>
      <trkpt lat="45.92532" lon="4.73636">
        <ele>173</ele>
        <time>2018-10-23T10:39:24Z</time>
      </trkpt>
      <trkpt lat="45.92526" lon="4.73636">
        <ele>173</ele>
        <time>2018-10-23T10:39:25Z</time>
      </trkpt>
      <trkpt lat="45.92521" lon="4.73637">
        <ele>173</ele>
        <time>2018-10-23T10:39:26Z</time>
      </trkpt>
      <trkpt lat="45.92516" lon="4.73638">
        <ele>173</ele>
        <time>2018-10-23T10:39:27Z</time>
      </trkpt>
      <trkpt lat="45.9251" lon="4.73638">
        <ele>174</ele>
        <time>2018-10-23T10:39:28Z</time>
      </trkpt>
      <trkpt lat="45.92506" lon="4.73639">
        <ele>174</ele>
        <time>2018-10-23T10:39:29Z</time>
      </trkpt>
      <trkpt lat="45.92501" lon="4.73638">
        <ele>174</ele>
        <time>2018-10-23T10:39:30Z</time>
      </trkpt>
      <trkpt lat="45.92492" lon="4.73639">
        <ele>174</ele>
        <time>2018-10-23T10:39:32Z</time>
      </trkpt>
      <trkpt lat="45.92488" lon="4.73639">
        <ele>174</ele>
        <time>2018-10-23T10:39:33Z</time>
      </trkpt>
      <trkpt lat="45.92482" lon="4.73638">
        <ele>174</ele>
        <time>2018-10-23T10:39:34Z</time>
      </trkpt>
      <trkpt lat="45.92478" lon="4.73638">
        <ele>174</ele>
        <time>2018-10-23T10:39:35Z</time>
      </trkpt>
      <trkpt lat="45.92471" lon="4.73643">
        <ele>174</ele>
        <time>2018-10-23T10:39:37Z</time>
      </trkpt>
      <trkpt lat="45.92468" lon="4.73647">
        <ele>174</ele>
        <time>2018-10-23T10:39:38Z</time>
      </trkpt>
      <trkpt lat="45.92466" lon="4.73659">
        <ele>174</ele>
        <time>2018-10-23T10:39:40Z</time>
      </trkpt>
      <trkpt lat="45.92464" lon="4.73666">
        <ele>174</ele>
        <time>2018-10-23T10:39:41Z</time>
      </trkpt>
      <trkpt lat="45.92464" lon="4.73676">
        <ele>174</ele>
        <time>2018-10-23T10:39:43Z</time>
      </trkpt>
      <trkpt lat="45.92464" lon="4.73681">
        <ele>174</ele>
        <time>2018-10-23T10:39:44Z</time>
      </trkpt>
      <trkpt lat="45.92463" lon="4.73691">
        <ele>174</ele>
        <time>2018-10-23T10:39:46Z</time>
      </trkpt>
      <trkpt lat="45.92463" lon="4.73695">
        <ele>174</ele>
        <time>2018-10-23T10:39:47Z</time>
      </trkpt>
      <trkpt lat="45.92461" lon="4.73705">
        <ele>174</ele>
        <time>2018-10-23T10:39:50Z</time>
      </trkpt>
      <trkpt lat="45.92461" lon="4.73707">
        <ele>174</ele>
        <time>2018-10-23T10:39:51Z</time>
      </trkpt>
      <trkpt lat="45.92456" lon="4.73714">
        <ele>174</ele>
        <time>2018-10-23T10:40:31.331Z</time>
      </trkpt>
    </trkseg>
  </trk>
</gpx>